<?xml version="1.0" encoding="UTF-8" standalone="no" ?>
<gpx xmlns="http://www.topografix.com/GPX/1/1" xmlns:xsi="http://www.w3.org/2001/XMLSchema-instance" xsi:schemaLocation="http://www.topografix.com/GPX/1/1 http://www.topografix.com/GPX/1/1/gpx.xsd" version="1.1" creator="VisuGPX - https://www.visugpx.com">
  <metadata>
    <name>Randonnée pédestre sans difficultés de 8 km au départ de Crépon </name>
  </metadata>
  <trk>
    <name><![CDATA[Crépon Marche à pied]]></name>
    <trkseg>
      <trkpt lat="49.31598" lon="-0.55015">
        <ele>50.200000762939</ele>
        <time>2026-03-24T13:00:11.000Z</time>
      </trkpt>
      <trkpt lat="49.31603" lon="-0.55013">
        <ele>50.400001525879</ele>
        <time>2026-03-24T13:00:12.000Z</time>
      </trkpt>
      <trkpt lat="49.31605" lon="-0.55012">
        <ele>50.599998474121</ele>
        <time>2026-03-24T13:00:13.000Z</time>
      </trkpt>
      <trkpt lat="49.31606" lon="-0.55017">
        <ele>50.400001525879</ele>
        <time>2026-03-24T13:00:14.000Z</time>
      </trkpt>
      <trkpt lat="49.31604" lon="-0.55019">
        <ele>50.200000762939</ele>
        <time>2026-03-24T13:00:16.000Z</time>
      </trkpt>
      <trkpt lat="49.31604" lon="-0.55023">
        <ele>50.200000762939</ele>
        <time>2026-03-24T13:00:17.000Z</time>
      </trkpt>
      <trkpt lat="49.31603" lon="-0.55024">
        <ele>50</ele>
        <time>2026-03-24T13:00:18.000Z</time>
      </trkpt>
      <trkpt lat="49.31601" lon="-0.55023">
        <ele>50</ele>
        <time>2026-03-24T13:00:19.000Z</time>
      </trkpt>
      <trkpt lat="49.316" lon="-0.55026">
        <ele>50</ele>
        <time>2026-03-24T13:00:20.000Z</time>
      </trkpt>
      <trkpt lat="49.31599" lon="-0.55026">
        <ele>49.799999237061</ele>
        <time>2026-03-24T13:00:21.000Z</time>
      </trkpt>
      <trkpt lat="49.31599" lon="-0.55029">
        <ele>49.799999237061</ele>
        <time>2026-03-24T13:00:22.000Z</time>
      </trkpt>
      <trkpt lat="49.31601" lon="-0.55023">
        <ele>50</ele>
        <time>2026-03-24T13:00:23.000Z</time>
      </trkpt>
      <trkpt lat="49.31601" lon="-0.55027">
        <ele>50</ele>
        <time>2026-03-24T13:00:24.000Z</time>
      </trkpt>
      <trkpt lat="49.31601" lon="-0.55024">
        <ele>50</ele>
        <time>2026-03-24T13:00:25.000Z</time>
      </trkpt>
      <trkpt lat="49.31598" lon="-0.55025">
        <ele>49.799999237061</ele>
        <time>2026-03-24T13:00:26.000Z</time>
      </trkpt>
      <trkpt lat="49.31598" lon="-0.55025">
        <ele>49.799999237061</ele>
        <time>2026-03-24T13:00:27.000Z</time>
      </trkpt>
      <trkpt lat="49.31599" lon="-0.55029">
        <ele>49.799999237061</ele>
        <time>2026-03-24T13:00:28.000Z</time>
      </trkpt>
      <trkpt lat="49.316" lon="-0.5503">
        <ele>49.799999237061</ele>
        <time>2026-03-24T13:00:29.000Z</time>
      </trkpt>
      <trkpt lat="49.31598" lon="-0.5503">
        <ele>49.799999237061</ele>
        <time>2026-03-24T13:00:30.000Z</time>
      </trkpt>
      <trkpt lat="49.31597" lon="-0.5503">
        <ele>49.599998474121</ele>
        <time>2026-03-24T13:00:31.000Z</time>
      </trkpt>
      <trkpt lat="49.31597" lon="-0.5503">
        <ele>49.599998474121</ele>
        <time>2026-03-24T13:00:32.000Z</time>
      </trkpt>
      <trkpt lat="49.31596" lon="-0.55033">
        <ele>49.599998474121</ele>
        <time>2026-03-24T13:00:33.000Z</time>
      </trkpt>
      <trkpt lat="49.31592" lon="-0.55032">
        <ele>49.599998474121</ele>
        <time>2026-03-24T13:00:34.000Z</time>
      </trkpt>
      <trkpt lat="49.31591" lon="-0.55033">
        <ele>49.400001525879</ele>
        <time>2026-03-24T13:00:35.000Z</time>
      </trkpt>
      <trkpt lat="49.31593" lon="-0.55031">
        <ele>49.599998474121</ele>
        <time>2026-03-24T13:00:36.000Z</time>
      </trkpt>
      <trkpt lat="49.31593" lon="-0.55031">
        <ele>49.599998474121</ele>
        <time>2026-03-24T13:00:37.000Z</time>
      </trkpt>
      <trkpt lat="49.31593" lon="-0.55032">
        <ele>49.599998474121</ele>
        <time>2026-03-24T13:00:38.000Z</time>
      </trkpt>
      <trkpt lat="49.31593" lon="-0.55032">
        <ele>49.599998474121</ele>
        <time>2026-03-24T13:00:39.000Z</time>
      </trkpt>
      <trkpt lat="49.31592" lon="-0.55033">
        <ele>49.599998474121</ele>
        <time>2026-03-24T13:00:40.000Z</time>
      </trkpt>
      <trkpt lat="49.31592" lon="-0.55034">
        <ele>49.400001525879</ele>
        <time>2026-03-24T13:00:41.000Z</time>
      </trkpt>
      <trkpt lat="49.31591" lon="-0.55035">
        <ele>49.400001525879</ele>
        <time>2026-03-24T13:00:42.000Z</time>
      </trkpt>
      <trkpt lat="49.3159" lon="-0.55037">
        <ele>49.400001525879</ele>
        <time>2026-03-24T13:00:43.000Z</time>
      </trkpt>
      <trkpt lat="49.3159" lon="-0.55038">
        <ele>49.400001525879</ele>
        <time>2026-03-24T13:00:44.000Z</time>
      </trkpt>
      <trkpt lat="49.31589" lon="-0.55038">
        <ele>49.400001525879</ele>
        <time>2026-03-24T13:00:45.000Z</time>
      </trkpt>
      <trkpt lat="49.31589" lon="-0.5504">
        <ele>49.400001525879</ele>
        <time>2026-03-24T13:00:46.000Z</time>
      </trkpt>
      <trkpt lat="49.31589" lon="-0.55041">
        <ele>49.400001525879</ele>
        <time>2026-03-24T13:00:47.000Z</time>
      </trkpt>
      <trkpt lat="49.31588" lon="-0.55041">
        <ele>49.400001525879</ele>
        <time>2026-03-24T13:00:48.000Z</time>
      </trkpt>
      <trkpt lat="49.31588" lon="-0.55043">
        <ele>49.400001525879</ele>
        <time>2026-03-24T13:00:49.000Z</time>
      </trkpt>
      <trkpt lat="49.31588" lon="-0.55044">
        <ele>49.400001525879</ele>
        <time>2026-03-24T13:00:50.000Z</time>
      </trkpt>
      <trkpt lat="49.31587" lon="-0.55045">
        <ele>49.400001525879</ele>
        <time>2026-03-24T13:00:51.000Z</time>
      </trkpt>
      <trkpt lat="49.31587" lon="-0.55046">
        <ele>49.400001525879</ele>
        <time>2026-03-24T13:00:52.000Z</time>
      </trkpt>
      <trkpt lat="49.31587" lon="-0.55048">
        <ele>49.400001525879</ele>
        <time>2026-03-24T13:00:53.000Z</time>
      </trkpt>
      <trkpt lat="49.31587" lon="-0.5505">
        <ele>49.200000762939</ele>
        <time>2026-03-24T13:00:54.000Z</time>
      </trkpt>
      <trkpt lat="49.31588" lon="-0.55051">
        <ele>49.200000762939</ele>
        <time>2026-03-24T13:00:55.000Z</time>
      </trkpt>
      <trkpt lat="49.31589" lon="-0.55052">
        <ele>49.200000762939</ele>
        <time>2026-03-24T13:00:56.000Z</time>
      </trkpt>
      <trkpt lat="49.3159" lon="-0.55053">
        <ele>49.200000762939</ele>
        <time>2026-03-24T13:00:57.000Z</time>
      </trkpt>
      <trkpt lat="49.3159" lon="-0.55054">
        <ele>49</ele>
        <time>2026-03-24T13:00:58.000Z</time>
      </trkpt>
      <trkpt lat="49.31591" lon="-0.55056">
        <ele>49</ele>
        <time>2026-03-24T13:00:59.000Z</time>
      </trkpt>
      <trkpt lat="49.31592" lon="-0.55057">
        <ele>49</ele>
        <time>2026-03-24T13:01:00.000Z</time>
      </trkpt>
      <trkpt lat="49.31592" lon="-0.55058">
        <ele>49</ele>
        <time>2026-03-24T13:01:01.000Z</time>
      </trkpt>
      <trkpt lat="49.31593" lon="-0.55059">
        <ele>49</ele>
        <time>2026-03-24T13:01:02.000Z</time>
      </trkpt>
      <trkpt lat="49.31594" lon="-0.5506">
        <ele>49.200000762939</ele>
        <time>2026-03-24T13:01:03.000Z</time>
      </trkpt>
      <trkpt lat="49.31595" lon="-0.55061">
        <ele>49.200000762939</ele>
        <time>2026-03-24T13:01:04.000Z</time>
      </trkpt>
      <trkpt lat="49.31595" lon="-0.55062">
        <ele>49.200000762939</ele>
        <time>2026-03-24T13:01:05.000Z</time>
      </trkpt>
      <trkpt lat="49.31596" lon="-0.55063">
        <ele>49.200000762939</ele>
        <time>2026-03-24T13:01:06.000Z</time>
      </trkpt>
      <trkpt lat="49.31596" lon="-0.55065">
        <ele>49.200000762939</ele>
        <time>2026-03-24T13:01:07.000Z</time>
      </trkpt>
      <trkpt lat="49.31597" lon="-0.55066">
        <ele>49.400001525879</ele>
        <time>2026-03-24T13:01:08.000Z</time>
      </trkpt>
      <trkpt lat="49.31598" lon="-0.55067">
        <ele>49.400001525879</ele>
        <time>2026-03-24T13:01:09.000Z</time>
      </trkpt>
      <trkpt lat="49.31599" lon="-0.55068">
        <ele>49.400001525879</ele>
        <time>2026-03-24T13:01:10.000Z</time>
      </trkpt>
      <trkpt lat="49.31599" lon="-0.55068">
        <ele>49.400001525879</ele>
        <time>2026-03-24T13:01:11.000Z</time>
      </trkpt>
      <trkpt lat="49.316" lon="-0.55069">
        <ele>49.400001525879</ele>
        <time>2026-03-24T13:01:12.000Z</time>
      </trkpt>
      <trkpt lat="49.31601" lon="-0.5507">
        <ele>49.400001525879</ele>
        <time>2026-03-24T13:01:13.000Z</time>
      </trkpt>
      <trkpt lat="49.31602" lon="-0.55071">
        <ele>49.599998474121</ele>
        <time>2026-03-24T13:01:14.000Z</time>
      </trkpt>
      <trkpt lat="49.31603" lon="-0.55072">
        <ele>49.599998474121</ele>
        <time>2026-03-24T13:01:15.000Z</time>
      </trkpt>
      <trkpt lat="49.31604" lon="-0.55073">
        <ele>49.599998474121</ele>
        <time>2026-03-24T13:01:16.000Z</time>
      </trkpt>
      <trkpt lat="49.31605" lon="-0.55074">
        <ele>49.599998474121</ele>
        <time>2026-03-24T13:01:17.000Z</time>
      </trkpt>
      <trkpt lat="49.31606" lon="-0.55075">
        <ele>49.599998474121</ele>
        <time>2026-03-24T13:01:18.000Z</time>
      </trkpt>
      <trkpt lat="49.31607" lon="-0.55076">
        <ele>49.799999237061</ele>
        <time>2026-03-24T13:01:19.000Z</time>
      </trkpt>
      <trkpt lat="49.31608" lon="-0.55077">
        <ele>49.799999237061</ele>
        <time>2026-03-24T13:01:20.000Z</time>
      </trkpt>
      <trkpt lat="49.31608" lon="-0.55077">
        <ele>49.799999237061</ele>
        <time>2026-03-24T13:01:21.000Z</time>
      </trkpt>
      <trkpt lat="49.31609" lon="-0.55078">
        <ele>49.799999237061</ele>
        <time>2026-03-24T13:01:22.000Z</time>
      </trkpt>
      <trkpt lat="49.3161" lon="-0.55078">
        <ele>50</ele>
        <time>2026-03-24T13:01:23.000Z</time>
      </trkpt>
      <trkpt lat="49.3161" lon="-0.55079">
        <ele>50</ele>
        <time>2026-03-24T13:01:24.000Z</time>
      </trkpt>
      <trkpt lat="49.31611" lon="-0.55081">
        <ele>50</ele>
        <time>2026-03-24T13:01:25.000Z</time>
      </trkpt>
      <trkpt lat="49.31612" lon="-0.55082">
        <ele>50</ele>
        <time>2026-03-24T13:01:26.000Z</time>
      </trkpt>
      <trkpt lat="49.31612" lon="-0.55083">
        <ele>50</ele>
        <time>2026-03-24T13:01:27.000Z</time>
      </trkpt>
      <trkpt lat="49.31613" lon="-0.55084">
        <ele>50</ele>
        <time>2026-03-24T13:01:28.000Z</time>
      </trkpt>
      <trkpt lat="49.31613" lon="-0.55085">
        <ele>50</ele>
        <time>2026-03-24T13:01:29.000Z</time>
      </trkpt>
      <trkpt lat="49.31614" lon="-0.55086">
        <ele>50</ele>
        <time>2026-03-24T13:01:30.000Z</time>
      </trkpt>
      <trkpt lat="49.31614" lon="-0.55087">
        <ele>50</ele>
        <time>2026-03-24T13:01:31.000Z</time>
      </trkpt>
      <trkpt lat="49.31615" lon="-0.55087">
        <ele>50</ele>
        <time>2026-03-24T13:01:32.000Z</time>
      </trkpt>
      <trkpt lat="49.31615" lon="-0.55088">
        <ele>50</ele>
        <time>2026-03-24T13:01:33.000Z</time>
      </trkpt>
      <trkpt lat="49.31616" lon="-0.55089">
        <ele>50</ele>
        <time>2026-03-24T13:01:34.000Z</time>
      </trkpt>
      <trkpt lat="49.31616" lon="-0.55091">
        <ele>50</ele>
        <time>2026-03-24T13:01:35.000Z</time>
      </trkpt>
      <trkpt lat="49.31617" lon="-0.55092">
        <ele>50</ele>
        <time>2026-03-24T13:01:36.000Z</time>
      </trkpt>
      <trkpt lat="49.31618" lon="-0.55093">
        <ele>50</ele>
        <time>2026-03-24T13:01:37.000Z</time>
      </trkpt>
      <trkpt lat="49.31618" lon="-0.55094">
        <ele>50</ele>
        <time>2026-03-24T13:01:38.000Z</time>
      </trkpt>
      <trkpt lat="49.31618" lon="-0.55095">
        <ele>50</ele>
        <time>2026-03-24T13:01:39.000Z</time>
      </trkpt>
      <trkpt lat="49.31619" lon="-0.55096">
        <ele>50</ele>
        <time>2026-03-24T13:01:40.000Z</time>
      </trkpt>
      <trkpt lat="49.31619" lon="-0.55097">
        <ele>50</ele>
        <time>2026-03-24T13:01:41.000Z</time>
      </trkpt>
      <trkpt lat="49.3162" lon="-0.55098">
        <ele>50</ele>
        <time>2026-03-24T13:01:42.000Z</time>
      </trkpt>
      <trkpt lat="49.3162" lon="-0.55098">
        <ele>50</ele>
        <time>2026-03-24T13:01:43.000Z</time>
      </trkpt>
      <trkpt lat="49.3162" lon="-0.55101">
        <ele>50</ele>
        <time>2026-03-24T13:01:44.000Z</time>
      </trkpt>
      <trkpt lat="49.3162" lon="-0.55102">
        <ele>50</ele>
        <time>2026-03-24T13:01:45.000Z</time>
      </trkpt>
      <trkpt lat="49.31621" lon="-0.55103">
        <ele>50</ele>
        <time>2026-03-24T13:01:46.000Z</time>
      </trkpt>
      <trkpt lat="49.31621" lon="-0.55105">
        <ele>50</ele>
        <time>2026-03-24T13:01:47.000Z</time>
      </trkpt>
      <trkpt lat="49.31622" lon="-0.55106">
        <ele>50</ele>
        <time>2026-03-24T13:01:48.000Z</time>
      </trkpt>
      <trkpt lat="49.31622" lon="-0.55108">
        <ele>50</ele>
        <time>2026-03-24T13:01:49.000Z</time>
      </trkpt>
      <trkpt lat="49.31623" lon="-0.55109">
        <ele>50</ele>
        <time>2026-03-24T13:01:50.000Z</time>
      </trkpt>
      <trkpt lat="49.31623" lon="-0.55111">
        <ele>50</ele>
        <time>2026-03-24T13:01:51.000Z</time>
      </trkpt>
      <trkpt lat="49.31624" lon="-0.55113">
        <ele>50</ele>
        <time>2026-03-24T13:01:52.000Z</time>
      </trkpt>
      <trkpt lat="49.31625" lon="-0.55114">
        <ele>50</ele>
        <time>2026-03-24T13:01:53.000Z</time>
      </trkpt>
      <trkpt lat="49.31626" lon="-0.55115">
        <ele>50</ele>
        <time>2026-03-24T13:01:54.000Z</time>
      </trkpt>
      <trkpt lat="49.31626" lon="-0.55119">
        <ele>50</ele>
        <time>2026-03-24T13:01:55.000Z</time>
      </trkpt>
      <trkpt lat="49.31626" lon="-0.55121">
        <ele>50</ele>
        <time>2026-03-24T13:01:56.000Z</time>
      </trkpt>
      <trkpt lat="49.31627" lon="-0.55122">
        <ele>50</ele>
        <time>2026-03-24T13:01:57.000Z</time>
      </trkpt>
      <trkpt lat="49.31628" lon="-0.55124">
        <ele>50</ele>
        <time>2026-03-24T13:01:58.000Z</time>
      </trkpt>
      <trkpt lat="49.31628" lon="-0.55125">
        <ele>50</ele>
        <time>2026-03-24T13:01:59.000Z</time>
      </trkpt>
      <trkpt lat="49.31629" lon="-0.55126">
        <ele>50</ele>
        <time>2026-03-24T13:02:00.000Z</time>
      </trkpt>
      <trkpt lat="49.3163" lon="-0.55127">
        <ele>50</ele>
        <time>2026-03-24T13:02:01.000Z</time>
      </trkpt>
      <trkpt lat="49.3163" lon="-0.55128">
        <ele>50</ele>
        <time>2026-03-24T13:02:02.000Z</time>
      </trkpt>
      <trkpt lat="49.31631" lon="-0.55129">
        <ele>50</ele>
        <time>2026-03-24T13:02:03.000Z</time>
      </trkpt>
      <trkpt lat="49.31632" lon="-0.5513">
        <ele>50</ele>
        <time>2026-03-24T13:02:04.000Z</time>
      </trkpt>
      <trkpt lat="49.31633" lon="-0.5513">
        <ele>50</ele>
        <time>2026-03-24T13:02:05.000Z</time>
      </trkpt>
      <trkpt lat="49.31634" lon="-0.55131">
        <ele>50</ele>
        <time>2026-03-24T13:02:06.000Z</time>
      </trkpt>
      <trkpt lat="49.31634" lon="-0.55132">
        <ele>50</ele>
        <time>2026-03-24T13:02:07.000Z</time>
      </trkpt>
      <trkpt lat="49.31635" lon="-0.55133">
        <ele>50</ele>
        <time>2026-03-24T13:02:08.000Z</time>
      </trkpt>
      <trkpt lat="49.31636" lon="-0.55134">
        <ele>50</ele>
        <time>2026-03-24T13:02:09.000Z</time>
      </trkpt>
      <trkpt lat="49.31637" lon="-0.55135">
        <ele>49.799999237061</ele>
        <time>2026-03-24T13:02:10.000Z</time>
      </trkpt>
      <trkpt lat="49.31638" lon="-0.55135">
        <ele>49.799999237061</ele>
        <time>2026-03-24T13:02:11.000Z</time>
      </trkpt>
      <trkpt lat="49.31639" lon="-0.55136">
        <ele>49.799999237061</ele>
        <time>2026-03-24T13:02:12.000Z</time>
      </trkpt>
      <trkpt lat="49.3164" lon="-0.55137">
        <ele>49.799999237061</ele>
        <time>2026-03-24T13:02:13.000Z</time>
      </trkpt>
      <trkpt lat="49.3164" lon="-0.55138">
        <ele>50</ele>
        <time>2026-03-24T13:02:14.000Z</time>
      </trkpt>
      <trkpt lat="49.31641" lon="-0.55139">
        <ele>50</ele>
        <time>2026-03-24T13:02:15.000Z</time>
      </trkpt>
      <trkpt lat="49.31642" lon="-0.5514">
        <ele>50</ele>
        <time>2026-03-24T13:02:16.000Z</time>
      </trkpt>
      <trkpt lat="49.31642" lon="-0.55141">
        <ele>50</ele>
        <time>2026-03-24T13:02:17.000Z</time>
      </trkpt>
      <trkpt lat="49.31643" lon="-0.55141">
        <ele>50</ele>
        <time>2026-03-24T13:02:18.000Z</time>
      </trkpt>
      <trkpt lat="49.31644" lon="-0.55142">
        <ele>50</ele>
        <time>2026-03-24T13:02:19.000Z</time>
      </trkpt>
      <trkpt lat="49.31645" lon="-0.55142">
        <ele>50</ele>
        <time>2026-03-24T13:02:20.000Z</time>
      </trkpt>
      <trkpt lat="49.31646" lon="-0.55142">
        <ele>50</ele>
        <time>2026-03-24T13:02:21.000Z</time>
      </trkpt>
      <trkpt lat="49.31647" lon="-0.55142">
        <ele>50</ele>
        <time>2026-03-24T13:02:22.000Z</time>
      </trkpt>
      <trkpt lat="49.31648" lon="-0.55142">
        <ele>50</ele>
        <time>2026-03-24T13:02:23.000Z</time>
      </trkpt>
      <trkpt lat="49.31649" lon="-0.55141">
        <ele>50</ele>
        <time>2026-03-24T13:02:24.000Z</time>
      </trkpt>
      <trkpt lat="49.3165" lon="-0.5514">
        <ele>50</ele>
        <time>2026-03-24T13:02:25.000Z</time>
      </trkpt>
      <trkpt lat="49.3165" lon="-0.55139">
        <ele>50</ele>
        <time>2026-03-24T13:02:26.000Z</time>
      </trkpt>
      <trkpt lat="49.31651" lon="-0.55139">
        <ele>50</ele>
        <time>2026-03-24T13:02:27.000Z</time>
      </trkpt>
      <trkpt lat="49.31652" lon="-0.55139">
        <ele>50</ele>
        <time>2026-03-24T13:02:28.000Z</time>
      </trkpt>
      <trkpt lat="49.31652" lon="-0.55138">
        <ele>50</ele>
        <time>2026-03-24T13:02:29.000Z</time>
      </trkpt>
      <trkpt lat="49.31653" lon="-0.55137">
        <ele>49.799999237061</ele>
        <time>2026-03-24T13:02:30.000Z</time>
      </trkpt>
      <trkpt lat="49.31654" lon="-0.55136">
        <ele>49.799999237061</ele>
        <time>2026-03-24T13:02:31.000Z</time>
      </trkpt>
      <trkpt lat="49.31655" lon="-0.55136">
        <ele>49.799999237061</ele>
        <time>2026-03-24T13:02:32.000Z</time>
      </trkpt>
      <trkpt lat="49.31655" lon="-0.55135">
        <ele>49.799999237061</ele>
        <time>2026-03-24T13:02:33.000Z</time>
      </trkpt>
      <trkpt lat="49.31656" lon="-0.55134">
        <ele>49.799999237061</ele>
        <time>2026-03-24T13:02:34.000Z</time>
      </trkpt>
      <trkpt lat="49.31656" lon="-0.55133">
        <ele>49.799999237061</ele>
        <time>2026-03-24T13:02:35.000Z</time>
      </trkpt>
      <trkpt lat="49.31657" lon="-0.55132">
        <ele>49.799999237061</ele>
        <time>2026-03-24T13:02:36.000Z</time>
      </trkpt>
      <trkpt lat="49.31657" lon="-0.55131">
        <ele>49.599998474121</ele>
        <time>2026-03-24T13:02:37.000Z</time>
      </trkpt>
      <trkpt lat="49.31658" lon="-0.5513">
        <ele>49.599998474121</ele>
        <time>2026-03-24T13:02:38.000Z</time>
      </trkpt>
      <trkpt lat="49.31659" lon="-0.55129">
        <ele>49.599998474121</ele>
        <time>2026-03-24T13:02:39.000Z</time>
      </trkpt>
      <trkpt lat="49.31659" lon="-0.55128">
        <ele>49.599998474121</ele>
        <time>2026-03-24T13:02:40.000Z</time>
      </trkpt>
      <trkpt lat="49.3166" lon="-0.55127">
        <ele>49.599998474121</ele>
        <time>2026-03-24T13:02:41.000Z</time>
      </trkpt>
      <trkpt lat="49.3166" lon="-0.55126">
        <ele>49.400001525879</ele>
        <time>2026-03-24T13:02:42.000Z</time>
      </trkpt>
      <trkpt lat="49.31661" lon="-0.55125">
        <ele>49.400001525879</ele>
        <time>2026-03-24T13:02:43.000Z</time>
      </trkpt>
      <trkpt lat="49.31662" lon="-0.55124">
        <ele>49.400001525879</ele>
        <time>2026-03-24T13:02:44.000Z</time>
      </trkpt>
      <trkpt lat="49.31662" lon="-0.55122">
        <ele>49.400001525879</ele>
        <time>2026-03-24T13:02:45.000Z</time>
      </trkpt>
      <trkpt lat="49.31663" lon="-0.55121">
        <ele>49.400001525879</ele>
        <time>2026-03-24T13:02:46.000Z</time>
      </trkpt>
      <trkpt lat="49.31664" lon="-0.55121">
        <ele>49.200000762939</ele>
        <time>2026-03-24T13:02:47.000Z</time>
      </trkpt>
      <trkpt lat="49.31664" lon="-0.5512">
        <ele>49.200000762939</ele>
        <time>2026-03-24T13:02:48.000Z</time>
      </trkpt>
      <trkpt lat="49.31665" lon="-0.55119">
        <ele>49.200000762939</ele>
        <time>2026-03-24T13:02:49.000Z</time>
      </trkpt>
      <trkpt lat="49.31666" lon="-0.55118">
        <ele>49.200000762939</ele>
        <time>2026-03-24T13:02:50.000Z</time>
      </trkpt>
      <trkpt lat="49.31666" lon="-0.55117">
        <ele>49.200000762939</ele>
        <time>2026-03-24T13:02:51.000Z</time>
      </trkpt>
      <trkpt lat="49.31667" lon="-0.55116">
        <ele>49.200000762939</ele>
        <time>2026-03-24T13:02:52.000Z</time>
      </trkpt>
      <trkpt lat="49.31667" lon="-0.55114">
        <ele>49</ele>
        <time>2026-03-24T13:02:53.000Z</time>
      </trkpt>
      <trkpt lat="49.31667" lon="-0.55113">
        <ele>49</ele>
        <time>2026-03-24T13:02:54.000Z</time>
      </trkpt>
      <trkpt lat="49.31668" lon="-0.55112">
        <ele>49</ele>
        <time>2026-03-24T13:02:55.000Z</time>
      </trkpt>
      <trkpt lat="49.31669" lon="-0.55111">
        <ele>49</ele>
        <time>2026-03-24T13:02:56.000Z</time>
      </trkpt>
      <trkpt lat="49.3167" lon="-0.55111">
        <ele>49</ele>
        <time>2026-03-24T13:02:57.000Z</time>
      </trkpt>
      <trkpt lat="49.3167" lon="-0.55109">
        <ele>49</ele>
        <time>2026-03-24T13:02:58.000Z</time>
      </trkpt>
      <trkpt lat="49.31671" lon="-0.55108">
        <ele>49</ele>
        <time>2026-03-24T13:02:59.000Z</time>
      </trkpt>
      <trkpt lat="49.31671" lon="-0.55107">
        <ele>49</ele>
        <time>2026-03-24T13:03:00.000Z</time>
      </trkpt>
      <trkpt lat="49.31671" lon="-0.55106">
        <ele>49</ele>
        <time>2026-03-24T13:03:01.000Z</time>
      </trkpt>
      <trkpt lat="49.31672" lon="-0.55104">
        <ele>49</ele>
        <time>2026-03-24T13:03:02.000Z</time>
      </trkpt>
      <trkpt lat="49.31672" lon="-0.55103">
        <ele>49</ele>
        <time>2026-03-24T13:03:03.000Z</time>
      </trkpt>
      <trkpt lat="49.31673" lon="-0.55102">
        <ele>49</ele>
        <time>2026-03-24T13:03:04.000Z</time>
      </trkpt>
      <trkpt lat="49.31673" lon="-0.55101">
        <ele>49</ele>
        <time>2026-03-24T13:03:05.000Z</time>
      </trkpt>
      <trkpt lat="49.31674" lon="-0.551">
        <ele>49</ele>
        <time>2026-03-24T13:03:06.000Z</time>
      </trkpt>
      <trkpt lat="49.31674" lon="-0.55099">
        <ele>49</ele>
        <time>2026-03-24T13:03:07.000Z</time>
      </trkpt>
      <trkpt lat="49.31675" lon="-0.55098">
        <ele>49</ele>
        <time>2026-03-24T13:03:08.000Z</time>
      </trkpt>
      <trkpt lat="49.31675" lon="-0.55097">
        <ele>49</ele>
        <time>2026-03-24T13:03:09.000Z</time>
      </trkpt>
      <trkpt lat="49.31675" lon="-0.55096">
        <ele>49</ele>
        <time>2026-03-24T13:03:10.000Z</time>
      </trkpt>
      <trkpt lat="49.31676" lon="-0.55095">
        <ele>49</ele>
        <time>2026-03-24T13:03:11.000Z</time>
      </trkpt>
      <trkpt lat="49.31676" lon="-0.55094">
        <ele>49</ele>
        <time>2026-03-24T13:03:12.000Z</time>
      </trkpt>
      <trkpt lat="49.31677" lon="-0.55093">
        <ele>49</ele>
        <time>2026-03-24T13:03:13.000Z</time>
      </trkpt>
      <trkpt lat="49.31678" lon="-0.55092">
        <ele>49</ele>
        <time>2026-03-24T13:03:14.000Z</time>
      </trkpt>
      <trkpt lat="49.31679" lon="-0.5509">
        <ele>49</ele>
        <time>2026-03-24T13:03:15.000Z</time>
      </trkpt>
      <trkpt lat="49.3168" lon="-0.5509">
        <ele>49</ele>
        <time>2026-03-24T13:03:16.000Z</time>
      </trkpt>
      <trkpt lat="49.31681" lon="-0.55089">
        <ele>49</ele>
        <time>2026-03-24T13:03:17.000Z</time>
      </trkpt>
      <trkpt lat="49.31682" lon="-0.55088">
        <ele>49</ele>
        <time>2026-03-24T13:03:18.000Z</time>
      </trkpt>
      <trkpt lat="49.31683" lon="-0.55086">
        <ele>49</ele>
        <time>2026-03-24T13:03:19.000Z</time>
      </trkpt>
      <trkpt lat="49.31683" lon="-0.55085">
        <ele>49</ele>
        <time>2026-03-24T13:03:20.000Z</time>
      </trkpt>
      <trkpt lat="49.31684" lon="-0.55084">
        <ele>49</ele>
        <time>2026-03-24T13:03:21.000Z</time>
      </trkpt>
      <trkpt lat="49.31685" lon="-0.55083">
        <ele>49</ele>
        <time>2026-03-24T13:03:22.000Z</time>
      </trkpt>
      <trkpt lat="49.31686" lon="-0.55082">
        <ele>49</ele>
        <time>2026-03-24T13:03:23.000Z</time>
      </trkpt>
      <trkpt lat="49.31688" lon="-0.55081">
        <ele>49</ele>
        <time>2026-03-24T13:03:24.000Z</time>
      </trkpt>
      <trkpt lat="49.31689" lon="-0.5508">
        <ele>49</ele>
        <time>2026-03-24T13:03:25.000Z</time>
      </trkpt>
      <trkpt lat="49.3169" lon="-0.55079">
        <ele>49</ele>
        <time>2026-03-24T13:03:26.000Z</time>
      </trkpt>
      <trkpt lat="49.31691" lon="-0.55078">
        <ele>49</ele>
        <time>2026-03-24T13:03:27.000Z</time>
      </trkpt>
      <trkpt lat="49.31692" lon="-0.55077">
        <ele>49</ele>
        <time>2026-03-24T13:03:28.000Z</time>
      </trkpt>
      <trkpt lat="49.31694" lon="-0.55075">
        <ele>49</ele>
        <time>2026-03-24T13:03:29.000Z</time>
      </trkpt>
      <trkpt lat="49.31695" lon="-0.55074">
        <ele>49</ele>
        <time>2026-03-24T13:03:30.000Z</time>
      </trkpt>
      <trkpt lat="49.31696" lon="-0.55072">
        <ele>49</ele>
        <time>2026-03-24T13:03:31.000Z</time>
      </trkpt>
      <trkpt lat="49.31697" lon="-0.55071">
        <ele>49</ele>
        <time>2026-03-24T13:03:32.000Z</time>
      </trkpt>
      <trkpt lat="49.31698" lon="-0.55069">
        <ele>49</ele>
        <time>2026-03-24T13:03:33.000Z</time>
      </trkpt>
      <trkpt lat="49.31699" lon="-0.55068">
        <ele>49</ele>
        <time>2026-03-24T13:03:34.000Z</time>
      </trkpt>
      <trkpt lat="49.317" lon="-0.55066">
        <ele>49</ele>
        <time>2026-03-24T13:03:35.000Z</time>
      </trkpt>
      <trkpt lat="49.31701" lon="-0.55065">
        <ele>49</ele>
        <time>2026-03-24T13:03:36.000Z</time>
      </trkpt>
      <trkpt lat="49.31702" lon="-0.55064">
        <ele>49</ele>
        <time>2026-03-24T13:03:37.000Z</time>
      </trkpt>
      <trkpt lat="49.31703" lon="-0.55063">
        <ele>49</ele>
        <time>2026-03-24T13:03:38.000Z</time>
      </trkpt>
      <trkpt lat="49.31704" lon="-0.55062">
        <ele>49</ele>
        <time>2026-03-24T13:03:39.000Z</time>
      </trkpt>
      <trkpt lat="49.31705" lon="-0.5506">
        <ele>49</ele>
        <time>2026-03-24T13:03:40.000Z</time>
      </trkpt>
      <trkpt lat="49.31706" lon="-0.55059">
        <ele>49</ele>
        <time>2026-03-24T13:03:41.000Z</time>
      </trkpt>
      <trkpt lat="49.31707" lon="-0.55058">
        <ele>49</ele>
        <time>2026-03-24T13:03:42.000Z</time>
      </trkpt>
      <trkpt lat="49.31707" lon="-0.55058">
        <ele>49</ele>
        <time>2026-03-24T13:03:43.000Z</time>
      </trkpt>
      <trkpt lat="49.31708" lon="-0.55056">
        <ele>49</ele>
        <time>2026-03-24T13:03:44.000Z</time>
      </trkpt>
      <trkpt lat="49.31709" lon="-0.55055">
        <ele>49</ele>
        <time>2026-03-24T13:03:45.000Z</time>
      </trkpt>
      <trkpt lat="49.31709" lon="-0.55054">
        <ele>48.799999237061</ele>
        <time>2026-03-24T13:03:46.000Z</time>
      </trkpt>
      <trkpt lat="49.3171" lon="-0.55053">
        <ele>48.799999237061</ele>
        <time>2026-03-24T13:03:47.000Z</time>
      </trkpt>
      <trkpt lat="49.3171" lon="-0.55051">
        <ele>48.799999237061</ele>
        <time>2026-03-24T13:03:48.000Z</time>
      </trkpt>
      <trkpt lat="49.31711" lon="-0.55049">
        <ele>48.799999237061</ele>
        <time>2026-03-24T13:03:49.000Z</time>
      </trkpt>
      <trkpt lat="49.31711" lon="-0.55048">
        <ele>48.599998474121</ele>
        <time>2026-03-24T13:03:50.000Z</time>
      </trkpt>
      <trkpt lat="49.31712" lon="-0.55047">
        <ele>48.599998474121</ele>
        <time>2026-03-24T13:03:51.000Z</time>
      </trkpt>
      <trkpt lat="49.31713" lon="-0.55046">
        <ele>48.599998474121</ele>
        <time>2026-03-24T13:03:52.000Z</time>
      </trkpt>
      <trkpt lat="49.31714" lon="-0.55045">
        <ele>48.599998474121</ele>
        <time>2026-03-24T13:03:53.000Z</time>
      </trkpt>
      <trkpt lat="49.31714" lon="-0.55043">
        <ele>48.599998474121</ele>
        <time>2026-03-24T13:03:54.000Z</time>
      </trkpt>
      <trkpt lat="49.31715" lon="-0.55042">
        <ele>48.400001525879</ele>
        <time>2026-03-24T13:03:55.000Z</time>
      </trkpt>
      <trkpt lat="49.31716" lon="-0.55041">
        <ele>48.400001525879</ele>
        <time>2026-03-24T13:03:56.000Z</time>
      </trkpt>
      <trkpt lat="49.31716" lon="-0.5504">
        <ele>48.400001525879</ele>
        <time>2026-03-24T13:03:57.000Z</time>
      </trkpt>
      <trkpt lat="49.31717" lon="-0.55039">
        <ele>48.400001525879</ele>
        <time>2026-03-24T13:03:58.000Z</time>
      </trkpt>
      <trkpt lat="49.31717" lon="-0.55044">
        <ele>48.599998474121</ele>
        <time>2026-03-24T13:03:59.000Z</time>
      </trkpt>
      <trkpt lat="49.31717" lon="-0.55044">
        <ele>48.599998474121</ele>
        <time>2026-03-24T13:04:00.000Z</time>
      </trkpt>
      <trkpt lat="49.31717" lon="-0.55043">
        <ele>48.400001525879</ele>
        <time>2026-03-24T13:04:01.000Z</time>
      </trkpt>
      <trkpt lat="49.31718" lon="-0.55042">
        <ele>48.400001525879</ele>
        <time>2026-03-24T13:04:02.000Z</time>
      </trkpt>
      <trkpt lat="49.31718" lon="-0.55041">
        <ele>48.400001525879</ele>
        <time>2026-03-24T13:04:03.000Z</time>
      </trkpt>
      <trkpt lat="49.31718" lon="-0.55041">
        <ele>48.400001525879</ele>
        <time>2026-03-24T13:04:04.000Z</time>
      </trkpt>
      <trkpt lat="49.31719" lon="-0.5504">
        <ele>48.400001525879</ele>
        <time>2026-03-24T13:04:05.000Z</time>
      </trkpt>
      <trkpt lat="49.31719" lon="-0.55039">
        <ele>48.400001525879</ele>
        <time>2026-03-24T13:04:06.000Z</time>
      </trkpt>
      <trkpt lat="49.3172" lon="-0.55039">
        <ele>48.400001525879</ele>
        <time>2026-03-24T13:04:07.000Z</time>
      </trkpt>
      <trkpt lat="49.3172" lon="-0.55038">
        <ele>48.400001525879</ele>
        <time>2026-03-24T13:04:08.000Z</time>
      </trkpt>
      <trkpt lat="49.31721" lon="-0.55037">
        <ele>48.200000762939</ele>
        <time>2026-03-24T13:04:09.000Z</time>
      </trkpt>
      <trkpt lat="49.31722" lon="-0.55037">
        <ele>48.200000762939</ele>
        <time>2026-03-24T13:04:10.000Z</time>
      </trkpt>
      <trkpt lat="49.31723" lon="-0.55036">
        <ele>48.200000762939</ele>
        <time>2026-03-24T13:04:11.000Z</time>
      </trkpt>
      <trkpt lat="49.31724" lon="-0.55036">
        <ele>48.200000762939</ele>
        <time>2026-03-24T13:04:12.000Z</time>
      </trkpt>
      <trkpt lat="49.31725" lon="-0.55035">
        <ele>48.200000762939</ele>
        <time>2026-03-24T13:04:13.000Z</time>
      </trkpt>
      <trkpt lat="49.31726" lon="-0.55035">
        <ele>48.200000762939</ele>
        <time>2026-03-24T13:04:14.000Z</time>
      </trkpt>
      <trkpt lat="49.31727" lon="-0.55034">
        <ele>48.200000762939</ele>
        <time>2026-03-24T13:04:15.000Z</time>
      </trkpt>
      <trkpt lat="49.31727" lon="-0.55034">
        <ele>48.200000762939</ele>
        <time>2026-03-24T13:04:16.000Z</time>
      </trkpt>
      <trkpt lat="49.31728" lon="-0.55033">
        <ele>48.200000762939</ele>
        <time>2026-03-24T13:04:17.000Z</time>
      </trkpt>
      <trkpt lat="49.31728" lon="-0.55032">
        <ele>48.200000762939</ele>
        <time>2026-03-24T13:04:18.000Z</time>
      </trkpt>
      <trkpt lat="49.31729" lon="-0.55032">
        <ele>48</ele>
        <time>2026-03-24T13:04:19.000Z</time>
      </trkpt>
      <trkpt lat="49.31729" lon="-0.55031">
        <ele>48</ele>
        <time>2026-03-24T13:04:20.000Z</time>
      </trkpt>
      <trkpt lat="49.3173" lon="-0.5503">
        <ele>48</ele>
        <time>2026-03-24T13:04:21.000Z</time>
      </trkpt>
      <trkpt lat="49.3173" lon="-0.55029">
        <ele>48</ele>
        <time>2026-03-24T13:04:22.000Z</time>
      </trkpt>
      <trkpt lat="49.31731" lon="-0.55029">
        <ele>48</ele>
        <time>2026-03-24T13:04:23.000Z</time>
      </trkpt>
      <trkpt lat="49.31732" lon="-0.55027">
        <ele>48</ele>
        <time>2026-03-24T13:04:24.000Z</time>
      </trkpt>
      <trkpt lat="49.31733" lon="-0.55026">
        <ele>48</ele>
        <time>2026-03-24T13:04:25.000Z</time>
      </trkpt>
      <trkpt lat="49.31734" lon="-0.55024">
        <ele>48</ele>
        <time>2026-03-24T13:04:26.000Z</time>
      </trkpt>
      <trkpt lat="49.31734" lon="-0.55023">
        <ele>48</ele>
        <time>2026-03-24T13:04:27.000Z</time>
      </trkpt>
      <trkpt lat="49.31735" lon="-0.55022">
        <ele>48</ele>
        <time>2026-03-24T13:04:28.000Z</time>
      </trkpt>
      <trkpt lat="49.31736" lon="-0.5502">
        <ele>48</ele>
        <time>2026-03-24T13:04:29.000Z</time>
      </trkpt>
      <trkpt lat="49.31737" lon="-0.55019">
        <ele>48</ele>
        <time>2026-03-24T13:04:30.000Z</time>
      </trkpt>
      <trkpt lat="49.31738" lon="-0.55018">
        <ele>48</ele>
        <time>2026-03-24T13:04:31.000Z</time>
      </trkpt>
      <trkpt lat="49.31739" lon="-0.55016">
        <ele>48</ele>
        <time>2026-03-24T13:04:32.000Z</time>
      </trkpt>
      <trkpt lat="49.31741" lon="-0.55016">
        <ele>48</ele>
        <time>2026-03-24T13:04:33.000Z</time>
      </trkpt>
      <trkpt lat="49.31741" lon="-0.55015">
        <ele>48</ele>
        <time>2026-03-24T13:04:34.000Z</time>
      </trkpt>
      <trkpt lat="49.31742" lon="-0.55014">
        <ele>48</ele>
        <time>2026-03-24T13:04:35.000Z</time>
      </trkpt>
      <trkpt lat="49.31743" lon="-0.55013">
        <ele>48</ele>
        <time>2026-03-24T13:04:36.000Z</time>
      </trkpt>
      <trkpt lat="49.31744" lon="-0.55012">
        <ele>48</ele>
        <time>2026-03-24T13:04:37.000Z</time>
      </trkpt>
      <trkpt lat="49.31745" lon="-0.55011">
        <ele>48</ele>
        <time>2026-03-24T13:04:38.000Z</time>
      </trkpt>
      <trkpt lat="49.31746" lon="-0.5501">
        <ele>48</ele>
        <time>2026-03-24T13:04:39.000Z</time>
      </trkpt>
      <trkpt lat="49.31747" lon="-0.55009">
        <ele>48</ele>
        <time>2026-03-24T13:04:40.000Z</time>
      </trkpt>
      <trkpt lat="49.31747" lon="-0.55008">
        <ele>48</ele>
        <time>2026-03-24T13:04:41.000Z</time>
      </trkpt>
      <trkpt lat="49.31748" lon="-0.55008">
        <ele>48</ele>
        <time>2026-03-24T13:04:42.000Z</time>
      </trkpt>
      <trkpt lat="49.31749" lon="-0.55007">
        <ele>48</ele>
        <time>2026-03-24T13:04:43.000Z</time>
      </trkpt>
      <trkpt lat="49.31751" lon="-0.55005">
        <ele>48</ele>
        <time>2026-03-24T13:04:44.000Z</time>
      </trkpt>
      <trkpt lat="49.31752" lon="-0.55005">
        <ele>48</ele>
        <time>2026-03-24T13:04:45.000Z</time>
      </trkpt>
      <trkpt lat="49.31753" lon="-0.55004">
        <ele>48</ele>
        <time>2026-03-24T13:04:46.000Z</time>
      </trkpt>
      <trkpt lat="49.31754" lon="-0.55003">
        <ele>48</ele>
        <time>2026-03-24T13:04:47.000Z</time>
      </trkpt>
      <trkpt lat="49.31754" lon="-0.55002">
        <ele>48</ele>
        <time>2026-03-24T13:04:48.000Z</time>
      </trkpt>
      <trkpt lat="49.31755" lon="-0.55001">
        <ele>48</ele>
        <time>2026-03-24T13:04:49.000Z</time>
      </trkpt>
      <trkpt lat="49.31756" lon="-0.55">
        <ele>48</ele>
        <time>2026-03-24T13:04:50.000Z</time>
      </trkpt>
      <trkpt lat="49.31757" lon="-0.54998">
        <ele>48</ele>
        <time>2026-03-24T13:04:51.000Z</time>
      </trkpt>
      <trkpt lat="49.31759" lon="-0.54997">
        <ele>48</ele>
        <time>2026-03-24T13:04:52.000Z</time>
      </trkpt>
      <trkpt lat="49.3176" lon="-0.54996">
        <ele>48</ele>
        <time>2026-03-24T13:04:53.000Z</time>
      </trkpt>
      <trkpt lat="49.31761" lon="-0.54994">
        <ele>48</ele>
        <time>2026-03-24T13:04:54.000Z</time>
      </trkpt>
      <trkpt lat="49.31762" lon="-0.54993">
        <ele>48</ele>
        <time>2026-03-24T13:04:55.000Z</time>
      </trkpt>
      <trkpt lat="49.31763" lon="-0.54991">
        <ele>48</ele>
        <time>2026-03-24T13:04:56.000Z</time>
      </trkpt>
      <trkpt lat="49.31764" lon="-0.5499">
        <ele>48</ele>
        <time>2026-03-24T13:04:57.000Z</time>
      </trkpt>
      <trkpt lat="49.31765" lon="-0.54989">
        <ele>48</ele>
        <time>2026-03-24T13:04:58.000Z</time>
      </trkpt>
      <trkpt lat="49.31766" lon="-0.54988">
        <ele>48</ele>
        <time>2026-03-24T13:04:59.000Z</time>
      </trkpt>
      <trkpt lat="49.31766" lon="-0.54987">
        <ele>48</ele>
        <time>2026-03-24T13:05:00.000Z</time>
      </trkpt>
      <trkpt lat="49.31767" lon="-0.54986">
        <ele>48</ele>
        <time>2026-03-24T13:05:01.000Z</time>
      </trkpt>
      <trkpt lat="49.31768" lon="-0.54984">
        <ele>48</ele>
        <time>2026-03-24T13:05:02.000Z</time>
      </trkpt>
      <trkpt lat="49.31768" lon="-0.54983">
        <ele>48</ele>
        <time>2026-03-24T13:05:03.000Z</time>
      </trkpt>
      <trkpt lat="49.31769" lon="-0.54981">
        <ele>48</ele>
        <time>2026-03-24T13:05:04.000Z</time>
      </trkpt>
      <trkpt lat="49.3177" lon="-0.54981">
        <ele>48</ele>
        <time>2026-03-24T13:05:05.000Z</time>
      </trkpt>
      <trkpt lat="49.31772" lon="-0.5498">
        <ele>48</ele>
        <time>2026-03-24T13:05:06.000Z</time>
      </trkpt>
      <trkpt lat="49.31772" lon="-0.54979">
        <ele>48</ele>
        <time>2026-03-24T13:05:07.000Z</time>
      </trkpt>
      <trkpt lat="49.31773" lon="-0.54978">
        <ele>48</ele>
        <time>2026-03-24T13:05:08.000Z</time>
      </trkpt>
      <trkpt lat="49.31774" lon="-0.54977">
        <ele>48</ele>
        <time>2026-03-24T13:05:09.000Z</time>
      </trkpt>
      <trkpt lat="49.31774" lon="-0.54976">
        <ele>48.200000762939</ele>
        <time>2026-03-24T13:05:10.000Z</time>
      </trkpt>
      <trkpt lat="49.31775" lon="-0.54975">
        <ele>48.200000762939</ele>
        <time>2026-03-24T13:05:11.000Z</time>
      </trkpt>
      <trkpt lat="49.31776" lon="-0.54975">
        <ele>48.200000762939</ele>
        <time>2026-03-24T13:05:12.000Z</time>
      </trkpt>
      <trkpt lat="49.31776" lon="-0.54974">
        <ele>48.200000762939</ele>
        <time>2026-03-24T13:05:13.000Z</time>
      </trkpt>
      <trkpt lat="49.31777" lon="-0.54974">
        <ele>48.200000762939</ele>
        <time>2026-03-24T13:05:14.000Z</time>
      </trkpt>
      <trkpt lat="49.31777" lon="-0.54974">
        <ele>48.400001525879</ele>
        <time>2026-03-24T13:05:15.000Z</time>
      </trkpt>
      <trkpt lat="49.31778" lon="-0.54973">
        <ele>48.400001525879</ele>
        <time>2026-03-24T13:05:16.000Z</time>
      </trkpt>
      <trkpt lat="49.31779" lon="-0.54972">
        <ele>48.400001525879</ele>
        <time>2026-03-24T13:05:17.000Z</time>
      </trkpt>
      <trkpt lat="49.31779" lon="-0.54971">
        <ele>48.400001525879</ele>
        <time>2026-03-24T13:05:18.000Z</time>
      </trkpt>
      <trkpt lat="49.3178" lon="-0.5497">
        <ele>48.599998474121</ele>
        <time>2026-03-24T13:05:19.000Z</time>
      </trkpt>
      <trkpt lat="49.31781" lon="-0.54969">
        <ele>48.599998474121</ele>
        <time>2026-03-24T13:05:20.000Z</time>
      </trkpt>
      <trkpt lat="49.31782" lon="-0.54968">
        <ele>48.599998474121</ele>
        <time>2026-03-24T13:05:21.000Z</time>
      </trkpt>
      <trkpt lat="49.31783" lon="-0.54967">
        <ele>48.799999237061</ele>
        <time>2026-03-24T13:05:22.000Z</time>
      </trkpt>
      <trkpt lat="49.31783" lon="-0.54965">
        <ele>48.799999237061</ele>
        <time>2026-03-24T13:05:23.000Z</time>
      </trkpt>
      <trkpt lat="49.31784" lon="-0.54964">
        <ele>48.799999237061</ele>
        <time>2026-03-24T13:05:24.000Z</time>
      </trkpt>
      <trkpt lat="49.31785" lon="-0.54963">
        <ele>48.799999237061</ele>
        <time>2026-03-24T13:05:25.000Z</time>
      </trkpt>
      <trkpt lat="49.31785" lon="-0.54961">
        <ele>48.799999237061</ele>
        <time>2026-03-24T13:05:26.000Z</time>
      </trkpt>
      <trkpt lat="49.31786" lon="-0.5496">
        <ele>49</ele>
        <time>2026-03-24T13:05:27.000Z</time>
      </trkpt>
      <trkpt lat="49.31787" lon="-0.54959">
        <ele>49</ele>
        <time>2026-03-24T13:05:28.000Z</time>
      </trkpt>
      <trkpt lat="49.31787" lon="-0.54957">
        <ele>49.200000762939</ele>
        <time>2026-03-24T13:05:29.000Z</time>
      </trkpt>
      <trkpt lat="49.31788" lon="-0.54956">
        <ele>49.200000762939</ele>
        <time>2026-03-24T13:05:30.000Z</time>
      </trkpt>
      <trkpt lat="49.31789" lon="-0.54955">
        <ele>49.200000762939</ele>
        <time>2026-03-24T13:05:31.000Z</time>
      </trkpt>
      <trkpt lat="49.3179" lon="-0.54953">
        <ele>49.400001525879</ele>
        <time>2026-03-24T13:05:32.000Z</time>
      </trkpt>
      <trkpt lat="49.31791" lon="-0.54952">
        <ele>49.400001525879</ele>
        <time>2026-03-24T13:05:33.000Z</time>
      </trkpt>
      <trkpt lat="49.31792" lon="-0.54951">
        <ele>49.400001525879</ele>
        <time>2026-03-24T13:05:34.000Z</time>
      </trkpt>
      <trkpt lat="49.31792" lon="-0.5495">
        <ele>49.599998474121</ele>
        <time>2026-03-24T13:05:35.000Z</time>
      </trkpt>
      <trkpt lat="49.31793" lon="-0.54949">
        <ele>49.599998474121</ele>
        <time>2026-03-24T13:05:36.000Z</time>
      </trkpt>
      <trkpt lat="49.31794" lon="-0.54948">
        <ele>49.799999237061</ele>
        <time>2026-03-24T13:05:37.000Z</time>
      </trkpt>
      <trkpt lat="49.31795" lon="-0.54947">
        <ele>49.799999237061</ele>
        <time>2026-03-24T13:05:38.000Z</time>
      </trkpt>
      <trkpt lat="49.31796" lon="-0.54946">
        <ele>49.799999237061</ele>
        <time>2026-03-24T13:05:39.000Z</time>
      </trkpt>
      <trkpt lat="49.31797" lon="-0.54945">
        <ele>49.799999237061</ele>
        <time>2026-03-24T13:05:40.000Z</time>
      </trkpt>
      <trkpt lat="49.31797" lon="-0.54944">
        <ele>50</ele>
        <time>2026-03-24T13:05:41.000Z</time>
      </trkpt>
      <trkpt lat="49.31797" lon="-0.54944">
        <ele>50</ele>
        <time>2026-03-24T13:05:42.000Z</time>
      </trkpt>
      <trkpt lat="49.31798" lon="-0.54943">
        <ele>50</ele>
        <time>2026-03-24T13:05:43.000Z</time>
      </trkpt>
      <trkpt lat="49.31799" lon="-0.54942">
        <ele>50</ele>
        <time>2026-03-24T13:05:44.000Z</time>
      </trkpt>
      <trkpt lat="49.31799" lon="-0.54941">
        <ele>50.200000762939</ele>
        <time>2026-03-24T13:05:45.000Z</time>
      </trkpt>
      <trkpt lat="49.318" lon="-0.54939">
        <ele>50.200000762939</ele>
        <time>2026-03-24T13:05:46.000Z</time>
      </trkpt>
      <trkpt lat="49.318" lon="-0.54939">
        <ele>50.200000762939</ele>
        <time>2026-03-24T13:05:47.000Z</time>
      </trkpt>
      <trkpt lat="49.31801" lon="-0.54938">
        <ele>50.200000762939</ele>
        <time>2026-03-24T13:05:48.000Z</time>
      </trkpt>
      <trkpt lat="49.31802" lon="-0.54937">
        <ele>50.400001525879</ele>
        <time>2026-03-24T13:05:49.000Z</time>
      </trkpt>
      <trkpt lat="49.31802" lon="-0.54936">
        <ele>50.400001525879</ele>
        <time>2026-03-24T13:05:50.000Z</time>
      </trkpt>
      <trkpt lat="49.31803" lon="-0.54936">
        <ele>50.400001525879</ele>
        <time>2026-03-24T13:05:51.000Z</time>
      </trkpt>
      <trkpt lat="49.31804" lon="-0.54935">
        <ele>50.400001525879</ele>
        <time>2026-03-24T13:05:52.000Z</time>
      </trkpt>
      <trkpt lat="49.31804" lon="-0.54934">
        <ele>50.400001525879</ele>
        <time>2026-03-24T13:05:53.000Z</time>
      </trkpt>
      <trkpt lat="49.31805" lon="-0.54933">
        <ele>50.400001525879</ele>
        <time>2026-03-24T13:05:54.000Z</time>
      </trkpt>
      <trkpt lat="49.31805" lon="-0.54932">
        <ele>50.599998474121</ele>
        <time>2026-03-24T13:05:55.000Z</time>
      </trkpt>
      <trkpt lat="49.31806" lon="-0.54931">
        <ele>50.599998474121</ele>
        <time>2026-03-24T13:05:56.000Z</time>
      </trkpt>
      <trkpt lat="49.31806" lon="-0.54929">
        <ele>50.599998474121</ele>
        <time>2026-03-24T13:05:57.000Z</time>
      </trkpt>
      <trkpt lat="49.31808" lon="-0.54929">
        <ele>50.599998474121</ele>
        <time>2026-03-24T13:05:58.000Z</time>
      </trkpt>
      <trkpt lat="49.31809" lon="-0.54927">
        <ele>50.599998474121</ele>
        <time>2026-03-24T13:05:59.000Z</time>
      </trkpt>
      <trkpt lat="49.3181" lon="-0.54926">
        <ele>50.799999237061</ele>
        <time>2026-03-24T13:06:00.000Z</time>
      </trkpt>
      <trkpt lat="49.31811" lon="-0.54925">
        <ele>50.799999237061</ele>
        <time>2026-03-24T13:06:01.000Z</time>
      </trkpt>
      <trkpt lat="49.31811" lon="-0.54923">
        <ele>50.799999237061</ele>
        <time>2026-03-24T13:06:02.000Z</time>
      </trkpt>
      <trkpt lat="49.31812" lon="-0.54922">
        <ele>50.799999237061</ele>
        <time>2026-03-24T13:06:03.000Z</time>
      </trkpt>
      <trkpt lat="49.31812" lon="-0.5492">
        <ele>51</ele>
        <time>2026-03-24T13:06:04.000Z</time>
      </trkpt>
      <trkpt lat="49.31813" lon="-0.54918">
        <ele>51</ele>
        <time>2026-03-24T13:06:05.000Z</time>
      </trkpt>
      <trkpt lat="49.31813" lon="-0.54916">
        <ele>51</ele>
        <time>2026-03-24T13:06:06.000Z</time>
      </trkpt>
      <trkpt lat="49.31813" lon="-0.54914">
        <ele>51</ele>
        <time>2026-03-24T13:06:07.000Z</time>
      </trkpt>
      <trkpt lat="49.31814" lon="-0.54912">
        <ele>51</ele>
        <time>2026-03-24T13:06:08.000Z</time>
      </trkpt>
      <trkpt lat="49.31814" lon="-0.54911">
        <ele>51</ele>
        <time>2026-03-24T13:06:09.000Z</time>
      </trkpt>
      <trkpt lat="49.31815" lon="-0.5491">
        <ele>51</ele>
        <time>2026-03-24T13:06:10.000Z</time>
      </trkpt>
      <trkpt lat="49.31816" lon="-0.5491">
        <ele>51</ele>
        <time>2026-03-24T13:06:11.000Z</time>
      </trkpt>
      <trkpt lat="49.31817" lon="-0.54909">
        <ele>51</ele>
        <time>2026-03-24T13:06:12.000Z</time>
      </trkpt>
      <trkpt lat="49.31819" lon="-0.54907">
        <ele>51</ele>
        <time>2026-03-24T13:06:13.000Z</time>
      </trkpt>
      <trkpt lat="49.3182" lon="-0.54906">
        <ele>51</ele>
        <time>2026-03-24T13:06:14.000Z</time>
      </trkpt>
      <trkpt lat="49.31821" lon="-0.54905">
        <ele>51</ele>
        <time>2026-03-24T13:06:15.000Z</time>
      </trkpt>
      <trkpt lat="49.31821" lon="-0.54905">
        <ele>51</ele>
        <time>2026-03-24T13:06:16.000Z</time>
      </trkpt>
      <trkpt lat="49.31822" lon="-0.54904">
        <ele>51</ele>
        <time>2026-03-24T13:06:17.000Z</time>
      </trkpt>
      <trkpt lat="49.31822" lon="-0.54903">
        <ele>51</ele>
        <time>2026-03-24T13:06:18.000Z</time>
      </trkpt>
      <trkpt lat="49.31823" lon="-0.54901">
        <ele>51</ele>
        <time>2026-03-24T13:06:19.000Z</time>
      </trkpt>
      <trkpt lat="49.31824" lon="-0.549">
        <ele>51</ele>
        <time>2026-03-24T13:06:20.000Z</time>
      </trkpt>
      <trkpt lat="49.31824" lon="-0.54899">
        <ele>51</ele>
        <time>2026-03-24T13:06:21.000Z</time>
      </trkpt>
      <trkpt lat="49.31825" lon="-0.54898">
        <ele>51</ele>
        <time>2026-03-24T13:06:22.000Z</time>
      </trkpt>
      <trkpt lat="49.31825" lon="-0.54897">
        <ele>51</ele>
        <time>2026-03-24T13:06:23.000Z</time>
      </trkpt>
      <trkpt lat="49.31825" lon="-0.54896">
        <ele>51</ele>
        <time>2026-03-24T13:06:24.000Z</time>
      </trkpt>
      <trkpt lat="49.31826" lon="-0.54893">
        <ele>51</ele>
        <time>2026-03-24T13:06:25.000Z</time>
      </trkpt>
      <trkpt lat="49.31827" lon="-0.54892">
        <ele>51</ele>
        <time>2026-03-24T13:06:26.000Z</time>
      </trkpt>
      <trkpt lat="49.31827" lon="-0.54891">
        <ele>51</ele>
        <time>2026-03-24T13:06:27.000Z</time>
      </trkpt>
      <trkpt lat="49.31827" lon="-0.5489">
        <ele>51</ele>
        <time>2026-03-24T13:06:28.000Z</time>
      </trkpt>
      <trkpt lat="49.31828" lon="-0.54889">
        <ele>51</ele>
        <time>2026-03-24T13:06:29.000Z</time>
      </trkpt>
      <trkpt lat="49.31829" lon="-0.54888">
        <ele>51</ele>
        <time>2026-03-24T13:06:30.000Z</time>
      </trkpt>
      <trkpt lat="49.3183" lon="-0.54887">
        <ele>51</ele>
        <time>2026-03-24T13:06:31.000Z</time>
      </trkpt>
      <trkpt lat="49.31831" lon="-0.54886">
        <ele>51</ele>
        <time>2026-03-24T13:06:32.000Z</time>
      </trkpt>
      <trkpt lat="49.31831" lon="-0.54885">
        <ele>51</ele>
        <time>2026-03-24T13:06:33.000Z</time>
      </trkpt>
      <trkpt lat="49.31831" lon="-0.54884">
        <ele>50.799999237061</ele>
        <time>2026-03-24T13:06:34.000Z</time>
      </trkpt>
      <trkpt lat="49.31832" lon="-0.54883">
        <ele>50.799999237061</ele>
        <time>2026-03-24T13:06:35.000Z</time>
      </trkpt>
      <trkpt lat="49.31832" lon="-0.54882">
        <ele>50.799999237061</ele>
        <time>2026-03-24T13:06:36.000Z</time>
      </trkpt>
      <trkpt lat="49.31834" lon="-0.54879">
        <ele>50.799999237061</ele>
        <time>2026-03-24T13:06:37.000Z</time>
      </trkpt>
      <trkpt lat="49.31836" lon="-0.54878">
        <ele>50.799999237061</ele>
        <time>2026-03-24T13:06:38.000Z</time>
      </trkpt>
      <trkpt lat="49.31837" lon="-0.54876">
        <ele>50.599998474121</ele>
        <time>2026-03-24T13:06:39.000Z</time>
      </trkpt>
      <trkpt lat="49.31839" lon="-0.54874">
        <ele>50.599998474121</ele>
        <time>2026-03-24T13:06:40.000Z</time>
      </trkpt>
      <trkpt lat="49.3184" lon="-0.54873">
        <ele>50.599998474121</ele>
        <time>2026-03-24T13:06:41.000Z</time>
      </trkpt>
      <trkpt lat="49.31841" lon="-0.54872">
        <ele>50.599998474121</ele>
        <time>2026-03-24T13:06:42.000Z</time>
      </trkpt>
      <trkpt lat="49.31842" lon="-0.5487">
        <ele>50.400001525879</ele>
        <time>2026-03-24T13:06:43.000Z</time>
      </trkpt>
      <trkpt lat="49.31843" lon="-0.54869">
        <ele>50.400001525879</ele>
        <time>2026-03-24T13:06:44.000Z</time>
      </trkpt>
      <trkpt lat="49.31844" lon="-0.54868">
        <ele>50.400001525879</ele>
        <time>2026-03-24T13:06:45.000Z</time>
      </trkpt>
      <trkpt lat="49.31845" lon="-0.54867">
        <ele>50.400001525879</ele>
        <time>2026-03-24T13:06:46.000Z</time>
      </trkpt>
      <trkpt lat="49.31846" lon="-0.54866">
        <ele>50.400001525879</ele>
        <time>2026-03-24T13:06:47.000Z</time>
      </trkpt>
      <trkpt lat="49.31847" lon="-0.54866">
        <ele>50.400001525879</ele>
        <time>2026-03-24T13:06:48.000Z</time>
      </trkpt>
      <trkpt lat="49.31848" lon="-0.54864">
        <ele>50.200000762939</ele>
        <time>2026-03-24T13:06:49.000Z</time>
      </trkpt>
      <trkpt lat="49.31849" lon="-0.54863">
        <ele>50.200000762939</ele>
        <time>2026-03-24T13:06:50.000Z</time>
      </trkpt>
      <trkpt lat="49.3185" lon="-0.54862">
        <ele>50.200000762939</ele>
        <time>2026-03-24T13:06:51.000Z</time>
      </trkpt>
      <trkpt lat="49.31851" lon="-0.54861">
        <ele>50.200000762939</ele>
        <time>2026-03-24T13:06:52.000Z</time>
      </trkpt>
      <trkpt lat="49.31852" lon="-0.5486">
        <ele>50</ele>
        <time>2026-03-24T13:06:53.000Z</time>
      </trkpt>
      <trkpt lat="49.31853" lon="-0.54859">
        <ele>50</ele>
        <time>2026-03-24T13:06:54.000Z</time>
      </trkpt>
      <trkpt lat="49.31853" lon="-0.54858">
        <ele>50</ele>
        <time>2026-03-24T13:06:55.000Z</time>
      </trkpt>
      <trkpt lat="49.31854" lon="-0.54857">
        <ele>49.799999237061</ele>
        <time>2026-03-24T13:06:56.000Z</time>
      </trkpt>
      <trkpt lat="49.31855" lon="-0.54856">
        <ele>49.799999237061</ele>
        <time>2026-03-24T13:06:57.000Z</time>
      </trkpt>
      <trkpt lat="49.31855" lon="-0.54855">
        <ele>49.799999237061</ele>
        <time>2026-03-24T13:06:58.000Z</time>
      </trkpt>
      <trkpt lat="49.31856" lon="-0.54854">
        <ele>49.599998474121</ele>
        <time>2026-03-24T13:06:59.000Z</time>
      </trkpt>
      <trkpt lat="49.31857" lon="-0.54853">
        <ele>49.599998474121</ele>
        <time>2026-03-24T13:07:00.000Z</time>
      </trkpt>
      <trkpt lat="49.31858" lon="-0.54852">
        <ele>49.599998474121</ele>
        <time>2026-03-24T13:07:01.000Z</time>
      </trkpt>
      <trkpt lat="49.31859" lon="-0.5485">
        <ele>49.599998474121</ele>
        <time>2026-03-24T13:07:02.000Z</time>
      </trkpt>
      <trkpt lat="49.3186" lon="-0.54849">
        <ele>49.599998474121</ele>
        <time>2026-03-24T13:07:03.000Z</time>
      </trkpt>
      <trkpt lat="49.3186" lon="-0.54848">
        <ele>49.400001525879</ele>
        <time>2026-03-24T13:07:04.000Z</time>
      </trkpt>
      <trkpt lat="49.31861" lon="-0.54847">
        <ele>49.400001525879</ele>
        <time>2026-03-24T13:07:05.000Z</time>
      </trkpt>
      <trkpt lat="49.31862" lon="-0.54846">
        <ele>49.400001525879</ele>
        <time>2026-03-24T13:07:06.000Z</time>
      </trkpt>
      <trkpt lat="49.31863" lon="-0.54845">
        <ele>49.400001525879</ele>
        <time>2026-03-24T13:07:07.000Z</time>
      </trkpt>
      <trkpt lat="49.31864" lon="-0.54844">
        <ele>49.400001525879</ele>
        <time>2026-03-24T13:07:08.000Z</time>
      </trkpt>
      <trkpt lat="49.31864" lon="-0.54842">
        <ele>49.200000762939</ele>
        <time>2026-03-24T13:07:09.000Z</time>
      </trkpt>
      <trkpt lat="49.31865" lon="-0.54841">
        <ele>49.200000762939</ele>
        <time>2026-03-24T13:07:10.000Z</time>
      </trkpt>
      <trkpt lat="49.31865" lon="-0.54841">
        <ele>49.200000762939</ele>
        <time>2026-03-24T13:07:11.000Z</time>
      </trkpt>
      <trkpt lat="49.31866" lon="-0.5484">
        <ele>49.200000762939</ele>
        <time>2026-03-24T13:07:12.000Z</time>
      </trkpt>
      <trkpt lat="49.31867" lon="-0.54839">
        <ele>49.200000762939</ele>
        <time>2026-03-24T13:07:13.000Z</time>
      </trkpt>
      <trkpt lat="49.31868" lon="-0.54838">
        <ele>49.200000762939</ele>
        <time>2026-03-24T13:07:14.000Z</time>
      </trkpt>
      <trkpt lat="49.31868" lon="-0.54837">
        <ele>49</ele>
        <time>2026-03-24T13:07:15.000Z</time>
      </trkpt>
      <trkpt lat="49.31869" lon="-0.54835">
        <ele>49</ele>
        <time>2026-03-24T13:07:16.000Z</time>
      </trkpt>
      <trkpt lat="49.31869" lon="-0.54834">
        <ele>49</ele>
        <time>2026-03-24T13:07:17.000Z</time>
      </trkpt>
      <trkpt lat="49.3187" lon="-0.54833">
        <ele>49</ele>
        <time>2026-03-24T13:07:18.000Z</time>
      </trkpt>
      <trkpt lat="49.31871" lon="-0.54832">
        <ele>49</ele>
        <time>2026-03-24T13:07:19.000Z</time>
      </trkpt>
      <trkpt lat="49.31872" lon="-0.54831">
        <ele>49</ele>
        <time>2026-03-24T13:07:20.000Z</time>
      </trkpt>
      <trkpt lat="49.31873" lon="-0.54829">
        <ele>49</ele>
        <time>2026-03-24T13:07:21.000Z</time>
      </trkpt>
      <trkpt lat="49.31873" lon="-0.54828">
        <ele>49</ele>
        <time>2026-03-24T13:07:22.000Z</time>
      </trkpt>
      <trkpt lat="49.31874" lon="-0.54827">
        <ele>49</ele>
        <time>2026-03-24T13:07:23.000Z</time>
      </trkpt>
      <trkpt lat="49.31875" lon="-0.54826">
        <ele>49</ele>
        <time>2026-03-24T13:07:24.000Z</time>
      </trkpt>
      <trkpt lat="49.31876" lon="-0.54825">
        <ele>49</ele>
        <time>2026-03-24T13:07:25.000Z</time>
      </trkpt>
      <trkpt lat="49.31876" lon="-0.54824">
        <ele>49</ele>
        <time>2026-03-24T13:07:26.000Z</time>
      </trkpt>
      <trkpt lat="49.31877" lon="-0.54823">
        <ele>49</ele>
        <time>2026-03-24T13:07:27.000Z</time>
      </trkpt>
      <trkpt lat="49.31878" lon="-0.54821">
        <ele>49</ele>
        <time>2026-03-24T13:07:28.000Z</time>
      </trkpt>
      <trkpt lat="49.31879" lon="-0.54821">
        <ele>49</ele>
        <time>2026-03-24T13:07:29.000Z</time>
      </trkpt>
      <trkpt lat="49.3188" lon="-0.54819">
        <ele>49</ele>
        <time>2026-03-24T13:07:30.000Z</time>
      </trkpt>
      <trkpt lat="49.31881" lon="-0.54818">
        <ele>49</ele>
        <time>2026-03-24T13:07:31.000Z</time>
      </trkpt>
      <trkpt lat="49.31882" lon="-0.54817">
        <ele>49</ele>
        <time>2026-03-24T13:07:32.000Z</time>
      </trkpt>
      <trkpt lat="49.31883" lon="-0.54817">
        <ele>49</ele>
        <time>2026-03-24T13:07:33.000Z</time>
      </trkpt>
      <trkpt lat="49.31884" lon="-0.54816">
        <ele>49</ele>
        <time>2026-03-24T13:07:34.000Z</time>
      </trkpt>
      <trkpt lat="49.31885" lon="-0.54815">
        <ele>49</ele>
        <time>2026-03-24T13:07:35.000Z</time>
      </trkpt>
      <trkpt lat="49.31886" lon="-0.54814">
        <ele>49</ele>
        <time>2026-03-24T13:07:36.000Z</time>
      </trkpt>
      <trkpt lat="49.31887" lon="-0.54812">
        <ele>49</ele>
        <time>2026-03-24T13:07:37.000Z</time>
      </trkpt>
      <trkpt lat="49.31888" lon="-0.54811">
        <ele>49</ele>
        <time>2026-03-24T13:07:38.000Z</time>
      </trkpt>
      <trkpt lat="49.31889" lon="-0.5481">
        <ele>49</ele>
        <time>2026-03-24T13:07:39.000Z</time>
      </trkpt>
      <trkpt lat="49.3189" lon="-0.54809">
        <ele>49</ele>
        <time>2026-03-24T13:07:40.000Z</time>
      </trkpt>
      <trkpt lat="49.3189" lon="-0.54808">
        <ele>49</ele>
        <time>2026-03-24T13:07:41.000Z</time>
      </trkpt>
      <trkpt lat="49.31891" lon="-0.54807">
        <ele>49</ele>
        <time>2026-03-24T13:07:42.000Z</time>
      </trkpt>
      <trkpt lat="49.31892" lon="-0.54805">
        <ele>49</ele>
        <time>2026-03-24T13:07:43.000Z</time>
      </trkpt>
      <trkpt lat="49.31893" lon="-0.54804">
        <ele>49</ele>
        <time>2026-03-24T13:07:44.000Z</time>
      </trkpt>
      <trkpt lat="49.31894" lon="-0.54803">
        <ele>48.799999237061</ele>
        <time>2026-03-24T13:07:45.000Z</time>
      </trkpt>
      <trkpt lat="49.31895" lon="-0.54802">
        <ele>48.799999237061</ele>
        <time>2026-03-24T13:07:46.000Z</time>
      </trkpt>
      <trkpt lat="49.31896" lon="-0.54802">
        <ele>48.799999237061</ele>
        <time>2026-03-24T13:07:47.000Z</time>
      </trkpt>
      <trkpt lat="49.31898" lon="-0.54801">
        <ele>48.799999237061</ele>
        <time>2026-03-24T13:07:48.000Z</time>
      </trkpt>
      <trkpt lat="49.31899" lon="-0.548">
        <ele>48.799999237061</ele>
        <time>2026-03-24T13:07:49.000Z</time>
      </trkpt>
      <trkpt lat="49.319" lon="-0.54799">
        <ele>48.799999237061</ele>
        <time>2026-03-24T13:07:50.000Z</time>
      </trkpt>
      <trkpt lat="49.31901" lon="-0.54799">
        <ele>48.599998474121</ele>
        <time>2026-03-24T13:07:51.000Z</time>
      </trkpt>
      <trkpt lat="49.31902" lon="-0.54797">
        <ele>48.599998474121</ele>
        <time>2026-03-24T13:07:52.000Z</time>
      </trkpt>
      <trkpt lat="49.31903" lon="-0.54796">
        <ele>48.599998474121</ele>
        <time>2026-03-24T13:07:53.000Z</time>
      </trkpt>
      <trkpt lat="49.31904" lon="-0.54795">
        <ele>48.599998474121</ele>
        <time>2026-03-24T13:07:54.000Z</time>
      </trkpt>
      <trkpt lat="49.31905" lon="-0.54794">
        <ele>48.599998474121</ele>
        <time>2026-03-24T13:07:55.000Z</time>
      </trkpt>
      <trkpt lat="49.31906" lon="-0.54794">
        <ele>48.599998474121</ele>
        <time>2026-03-24T13:07:56.000Z</time>
      </trkpt>
      <trkpt lat="49.31907" lon="-0.54793">
        <ele>48.400001525879</ele>
        <time>2026-03-24T13:07:57.000Z</time>
      </trkpt>
      <trkpt lat="49.31908" lon="-0.54792">
        <ele>48.400001525879</ele>
        <time>2026-03-24T13:07:58.000Z</time>
      </trkpt>
      <trkpt lat="49.31909" lon="-0.54791">
        <ele>48.400001525879</ele>
        <time>2026-03-24T13:07:59.000Z</time>
      </trkpt>
      <trkpt lat="49.3191" lon="-0.5479">
        <ele>48.400001525879</ele>
        <time>2026-03-24T13:08:00.000Z</time>
      </trkpt>
      <trkpt lat="49.31912" lon="-0.5479">
        <ele>48.400001525879</ele>
        <time>2026-03-24T13:08:01.000Z</time>
      </trkpt>
      <trkpt lat="49.31913" lon="-0.54789">
        <ele>48.400001525879</ele>
        <time>2026-03-24T13:08:02.000Z</time>
      </trkpt>
      <trkpt lat="49.31914" lon="-0.54789">
        <ele>48.400001525879</ele>
        <time>2026-03-24T13:08:03.000Z</time>
      </trkpt>
      <trkpt lat="49.31915" lon="-0.54789">
        <ele>48.400001525879</ele>
        <time>2026-03-24T13:08:04.000Z</time>
      </trkpt>
      <trkpt lat="49.31916" lon="-0.54788">
        <ele>48.400001525879</ele>
        <time>2026-03-24T13:08:05.000Z</time>
      </trkpt>
      <trkpt lat="49.31917" lon="-0.54788">
        <ele>48.400001525879</ele>
        <time>2026-03-24T13:08:06.000Z</time>
      </trkpt>
      <trkpt lat="49.31918" lon="-0.54787">
        <ele>48.400001525879</ele>
        <time>2026-03-24T13:08:07.000Z</time>
      </trkpt>
      <trkpt lat="49.3192" lon="-0.54787">
        <ele>48.200000762939</ele>
        <time>2026-03-24T13:08:08.000Z</time>
      </trkpt>
      <trkpt lat="49.31921" lon="-0.54787">
        <ele>48.200000762939</ele>
        <time>2026-03-24T13:08:09.000Z</time>
      </trkpt>
      <trkpt lat="49.31922" lon="-0.54787">
        <ele>48.200000762939</ele>
        <time>2026-03-24T13:08:10.000Z</time>
      </trkpt>
      <trkpt lat="49.31923" lon="-0.54787">
        <ele>48.200000762939</ele>
        <time>2026-03-24T13:08:11.000Z</time>
      </trkpt>
      <trkpt lat="49.31924" lon="-0.54787">
        <ele>48.200000762939</ele>
        <time>2026-03-24T13:08:12.000Z</time>
      </trkpt>
      <trkpt lat="49.31925" lon="-0.54788">
        <ele>48.400001525879</ele>
        <time>2026-03-24T13:08:13.000Z</time>
      </trkpt>
      <trkpt lat="49.31927" lon="-0.54788">
        <ele>48.400001525879</ele>
        <time>2026-03-24T13:08:14.000Z</time>
      </trkpt>
      <trkpt lat="49.31927" lon="-0.54787">
        <ele>48.200000762939</ele>
        <time>2026-03-24T13:08:15.000Z</time>
      </trkpt>
      <trkpt lat="49.31928" lon="-0.54787">
        <ele>48.200000762939</ele>
        <time>2026-03-24T13:08:16.000Z</time>
      </trkpt>
      <trkpt lat="49.31929" lon="-0.54787">
        <ele>48.200000762939</ele>
        <time>2026-03-24T13:08:17.000Z</time>
      </trkpt>
      <trkpt lat="49.31931" lon="-0.54787">
        <ele>48.200000762939</ele>
        <time>2026-03-24T13:08:18.000Z</time>
      </trkpt>
      <trkpt lat="49.31932" lon="-0.54786">
        <ele>48.200000762939</ele>
        <time>2026-03-24T13:08:19.000Z</time>
      </trkpt>
      <trkpt lat="49.31933" lon="-0.54785">
        <ele>48.200000762939</ele>
        <time>2026-03-24T13:08:20.000Z</time>
      </trkpt>
      <trkpt lat="49.31934" lon="-0.54783">
        <ele>48.200000762939</ele>
        <time>2026-03-24T13:08:21.000Z</time>
      </trkpt>
      <trkpt lat="49.31934" lon="-0.54782">
        <ele>48</ele>
        <time>2026-03-24T13:08:22.000Z</time>
      </trkpt>
      <trkpt lat="49.31935" lon="-0.5478">
        <ele>48</ele>
        <time>2026-03-24T13:08:23.000Z</time>
      </trkpt>
      <trkpt lat="49.31935" lon="-0.54778">
        <ele>48</ele>
        <time>2026-03-24T13:08:24.000Z</time>
      </trkpt>
      <trkpt lat="49.31935" lon="-0.54776">
        <ele>48</ele>
        <time>2026-03-24T13:08:25.000Z</time>
      </trkpt>
      <trkpt lat="49.31936" lon="-0.54774">
        <ele>48</ele>
        <time>2026-03-24T13:08:26.000Z</time>
      </trkpt>
      <trkpt lat="49.31936" lon="-0.54773">
        <ele>48</ele>
        <time>2026-03-24T13:08:27.000Z</time>
      </trkpt>
      <trkpt lat="49.31937" lon="-0.54771">
        <ele>48</ele>
        <time>2026-03-24T13:08:28.000Z</time>
      </trkpt>
      <trkpt lat="49.31937" lon="-0.54769">
        <ele>48</ele>
        <time>2026-03-24T13:08:29.000Z</time>
      </trkpt>
      <trkpt lat="49.31938" lon="-0.54768">
        <ele>48</ele>
        <time>2026-03-24T13:08:30.000Z</time>
      </trkpt>
      <trkpt lat="49.31938" lon="-0.54766">
        <ele>48</ele>
        <time>2026-03-24T13:08:31.000Z</time>
      </trkpt>
      <trkpt lat="49.31939" lon="-0.54765">
        <ele>48</ele>
        <time>2026-03-24T13:08:32.000Z</time>
      </trkpt>
      <trkpt lat="49.31939" lon="-0.54764">
        <ele>48</ele>
        <time>2026-03-24T13:08:33.000Z</time>
      </trkpt>
      <trkpt lat="49.3194" lon="-0.54762">
        <ele>48</ele>
        <time>2026-03-24T13:08:34.000Z</time>
      </trkpt>
      <trkpt lat="49.31941" lon="-0.54761">
        <ele>48</ele>
        <time>2026-03-24T13:08:35.000Z</time>
      </trkpt>
      <trkpt lat="49.31941" lon="-0.54759">
        <ele>48</ele>
        <time>2026-03-24T13:08:36.000Z</time>
      </trkpt>
      <trkpt lat="49.31942" lon="-0.54758">
        <ele>48</ele>
        <time>2026-03-24T13:08:37.000Z</time>
      </trkpt>
      <trkpt lat="49.31943" lon="-0.54756">
        <ele>48.200000762939</ele>
        <time>2026-03-24T13:08:38.000Z</time>
      </trkpt>
      <trkpt lat="49.31943" lon="-0.54755">
        <ele>48.200000762939</ele>
        <time>2026-03-24T13:08:39.000Z</time>
      </trkpt>
      <trkpt lat="49.31944" lon="-0.54753">
        <ele>48.200000762939</ele>
        <time>2026-03-24T13:08:40.000Z</time>
      </trkpt>
      <trkpt lat="49.31945" lon="-0.54752">
        <ele>48.200000762939</ele>
        <time>2026-03-24T13:08:41.000Z</time>
      </trkpt>
      <trkpt lat="49.31945" lon="-0.54751">
        <ele>48.200000762939</ele>
        <time>2026-03-24T13:08:42.000Z</time>
      </trkpt>
      <trkpt lat="49.31946" lon="-0.54749">
        <ele>48.200000762939</ele>
        <time>2026-03-24T13:08:43.000Z</time>
      </trkpt>
      <trkpt lat="49.31947" lon="-0.54748">
        <ele>48.200000762939</ele>
        <time>2026-03-24T13:08:44.000Z</time>
      </trkpt>
      <trkpt lat="49.31948" lon="-0.54747">
        <ele>48.200000762939</ele>
        <time>2026-03-24T13:08:45.000Z</time>
      </trkpt>
      <trkpt lat="49.31949" lon="-0.54746">
        <ele>48.200000762939</ele>
        <time>2026-03-24T13:08:46.000Z</time>
      </trkpt>
      <trkpt lat="49.31949" lon="-0.54744">
        <ele>48.200000762939</ele>
        <time>2026-03-24T13:08:47.000Z</time>
      </trkpt>
      <trkpt lat="49.3195" lon="-0.54743">
        <ele>48</ele>
        <time>2026-03-24T13:08:48.000Z</time>
      </trkpt>
      <trkpt lat="49.31951" lon="-0.54742">
        <ele>48</ele>
        <time>2026-03-24T13:08:49.000Z</time>
      </trkpt>
      <trkpt lat="49.31951" lon="-0.54741">
        <ele>48</ele>
        <time>2026-03-24T13:08:50.000Z</time>
      </trkpt>
      <trkpt lat="49.31952" lon="-0.5474">
        <ele>48</ele>
        <time>2026-03-24T13:08:51.000Z</time>
      </trkpt>
      <trkpt lat="49.31953" lon="-0.54739">
        <ele>48</ele>
        <time>2026-03-24T13:08:52.000Z</time>
      </trkpt>
      <trkpt lat="49.31954" lon="-0.54738">
        <ele>48</ele>
        <time>2026-03-24T13:08:53.000Z</time>
      </trkpt>
      <trkpt lat="49.31955" lon="-0.54737">
        <ele>48</ele>
        <time>2026-03-24T13:08:54.000Z</time>
      </trkpt>
      <trkpt lat="49.31955" lon="-0.54735">
        <ele>48</ele>
        <time>2026-03-24T13:08:55.000Z</time>
      </trkpt>
      <trkpt lat="49.31956" lon="-0.54734">
        <ele>48</ele>
        <time>2026-03-24T13:08:56.000Z</time>
      </trkpt>
      <trkpt lat="49.31957" lon="-0.54733">
        <ele>48</ele>
        <time>2026-03-24T13:08:57.000Z</time>
      </trkpt>
      <trkpt lat="49.31958" lon="-0.54732">
        <ele>48</ele>
        <time>2026-03-24T13:08:58.000Z</time>
      </trkpt>
      <trkpt lat="49.31959" lon="-0.5473">
        <ele>48</ele>
        <time>2026-03-24T13:08:59.000Z</time>
      </trkpt>
      <trkpt lat="49.3196" lon="-0.54729">
        <ele>48</ele>
        <time>2026-03-24T13:09:00.000Z</time>
      </trkpt>
      <trkpt lat="49.3196" lon="-0.54728">
        <ele>48</ele>
        <time>2026-03-24T13:09:01.000Z</time>
      </trkpt>
      <trkpt lat="49.31961" lon="-0.54727">
        <ele>48</ele>
        <time>2026-03-24T13:09:02.000Z</time>
      </trkpt>
      <trkpt lat="49.31962" lon="-0.54726">
        <ele>47.799999237061</ele>
        <time>2026-03-24T13:09:03.000Z</time>
      </trkpt>
      <trkpt lat="49.31963" lon="-0.54725">
        <ele>47.799999237061</ele>
        <time>2026-03-24T13:09:04.000Z</time>
      </trkpt>
      <trkpt lat="49.31964" lon="-0.54724">
        <ele>47.799999237061</ele>
        <time>2026-03-24T13:09:05.000Z</time>
      </trkpt>
      <trkpt lat="49.31964" lon="-0.54723">
        <ele>47.799999237061</ele>
        <time>2026-03-24T13:09:06.000Z</time>
      </trkpt>
      <trkpt lat="49.31965" lon="-0.54721">
        <ele>48</ele>
        <time>2026-03-24T13:09:07.000Z</time>
      </trkpt>
      <trkpt lat="49.31966" lon="-0.5472">
        <ele>48</ele>
        <time>2026-03-24T13:09:08.000Z</time>
      </trkpt>
      <trkpt lat="49.31967" lon="-0.54719">
        <ele>48</ele>
        <time>2026-03-24T13:09:09.000Z</time>
      </trkpt>
      <trkpt lat="49.31967" lon="-0.54717">
        <ele>48</ele>
        <time>2026-03-24T13:09:10.000Z</time>
      </trkpt>
      <trkpt lat="49.31968" lon="-0.54716">
        <ele>48</ele>
        <time>2026-03-24T13:09:11.000Z</time>
      </trkpt>
      <trkpt lat="49.31969" lon="-0.54715">
        <ele>48</ele>
        <time>2026-03-24T13:09:12.000Z</time>
      </trkpt>
      <trkpt lat="49.3197" lon="-0.54714">
        <ele>48</ele>
        <time>2026-03-24T13:09:13.000Z</time>
      </trkpt>
      <trkpt lat="49.31971" lon="-0.54713">
        <ele>48</ele>
        <time>2026-03-24T13:09:14.000Z</time>
      </trkpt>
      <trkpt lat="49.31972" lon="-0.54711">
        <ele>48</ele>
        <time>2026-03-24T13:09:15.000Z</time>
      </trkpt>
      <trkpt lat="49.31973" lon="-0.5471">
        <ele>48</ele>
        <time>2026-03-24T13:09:16.000Z</time>
      </trkpt>
      <trkpt lat="49.31973" lon="-0.54709">
        <ele>48</ele>
        <time>2026-03-24T13:09:17.000Z</time>
      </trkpt>
      <trkpt lat="49.31974" lon="-0.54708">
        <ele>48</ele>
        <time>2026-03-24T13:09:18.000Z</time>
      </trkpt>
      <trkpt lat="49.31975" lon="-0.54706">
        <ele>48</ele>
        <time>2026-03-24T13:09:19.000Z</time>
      </trkpt>
      <trkpt lat="49.31976" lon="-0.54705">
        <ele>48</ele>
        <time>2026-03-24T13:09:20.000Z</time>
      </trkpt>
      <trkpt lat="49.31977" lon="-0.54704">
        <ele>48</ele>
        <time>2026-03-24T13:09:21.000Z</time>
      </trkpt>
      <trkpt lat="49.31977" lon="-0.54703">
        <ele>48</ele>
        <time>2026-03-24T13:09:22.000Z</time>
      </trkpt>
      <trkpt lat="49.31978" lon="-0.54702">
        <ele>48</ele>
        <time>2026-03-24T13:09:23.000Z</time>
      </trkpt>
      <trkpt lat="49.31979" lon="-0.54701">
        <ele>48</ele>
        <time>2026-03-24T13:09:24.000Z</time>
      </trkpt>
      <trkpt lat="49.3198" lon="-0.547">
        <ele>48</ele>
        <time>2026-03-24T13:09:25.000Z</time>
      </trkpt>
      <trkpt lat="49.31981" lon="-0.54698">
        <ele>48</ele>
        <time>2026-03-24T13:09:26.000Z</time>
      </trkpt>
      <trkpt lat="49.31982" lon="-0.54697">
        <ele>48</ele>
        <time>2026-03-24T13:09:27.000Z</time>
      </trkpt>
      <trkpt lat="49.31982" lon="-0.54696">
        <ele>48</ele>
        <time>2026-03-24T13:09:28.000Z</time>
      </trkpt>
      <trkpt lat="49.31983" lon="-0.54695">
        <ele>48</ele>
        <time>2026-03-24T13:09:29.000Z</time>
      </trkpt>
      <trkpt lat="49.31984" lon="-0.54693">
        <ele>48</ele>
        <time>2026-03-24T13:09:30.000Z</time>
      </trkpt>
      <trkpt lat="49.31984" lon="-0.54692">
        <ele>48</ele>
        <time>2026-03-24T13:09:31.000Z</time>
      </trkpt>
      <trkpt lat="49.31985" lon="-0.54691">
        <ele>48</ele>
        <time>2026-03-24T13:09:32.000Z</time>
      </trkpt>
      <trkpt lat="49.31986" lon="-0.54689">
        <ele>48</ele>
        <time>2026-03-24T13:09:33.000Z</time>
      </trkpt>
      <trkpt lat="49.31986" lon="-0.54688">
        <ele>48</ele>
        <time>2026-03-24T13:09:34.000Z</time>
      </trkpt>
      <trkpt lat="49.31987" lon="-0.54687">
        <ele>48</ele>
        <time>2026-03-24T13:09:35.000Z</time>
      </trkpt>
      <trkpt lat="49.31988" lon="-0.54685">
        <ele>48</ele>
        <time>2026-03-24T13:09:36.000Z</time>
      </trkpt>
      <trkpt lat="49.31989" lon="-0.54684">
        <ele>48</ele>
        <time>2026-03-24T13:09:37.000Z</time>
      </trkpt>
      <trkpt lat="49.31989" lon="-0.54683">
        <ele>48</ele>
        <time>2026-03-24T13:09:38.000Z</time>
      </trkpt>
      <trkpt lat="49.3199" lon="-0.54682">
        <ele>48</ele>
        <time>2026-03-24T13:09:39.000Z</time>
      </trkpt>
      <trkpt lat="49.31991" lon="-0.54681">
        <ele>48</ele>
        <time>2026-03-24T13:09:40.000Z</time>
      </trkpt>
      <trkpt lat="49.31992" lon="-0.54679">
        <ele>48</ele>
        <time>2026-03-24T13:09:41.000Z</time>
      </trkpt>
      <trkpt lat="49.31993" lon="-0.54678">
        <ele>48</ele>
        <time>2026-03-24T13:09:42.000Z</time>
      </trkpt>
      <trkpt lat="49.31994" lon="-0.54677">
        <ele>48</ele>
        <time>2026-03-24T13:09:43.000Z</time>
      </trkpt>
      <trkpt lat="49.31995" lon="-0.54676">
        <ele>48</ele>
        <time>2026-03-24T13:09:44.000Z</time>
      </trkpt>
      <trkpt lat="49.31995" lon="-0.54674">
        <ele>48</ele>
        <time>2026-03-24T13:09:45.000Z</time>
      </trkpt>
      <trkpt lat="49.31996" lon="-0.54673">
        <ele>48</ele>
        <time>2026-03-24T13:09:46.000Z</time>
      </trkpt>
      <trkpt lat="49.31997" lon="-0.54672">
        <ele>48</ele>
        <time>2026-03-24T13:09:47.000Z</time>
      </trkpt>
      <trkpt lat="49.31998" lon="-0.5467">
        <ele>48</ele>
        <time>2026-03-24T13:09:48.000Z</time>
      </trkpt>
      <trkpt lat="49.31999" lon="-0.54669">
        <ele>48</ele>
        <time>2026-03-24T13:09:49.000Z</time>
      </trkpt>
      <trkpt lat="49.31999" lon="-0.54668">
        <ele>48</ele>
        <time>2026-03-24T13:09:50.000Z</time>
      </trkpt>
      <trkpt lat="49.32" lon="-0.54667">
        <ele>48</ele>
        <time>2026-03-24T13:09:51.000Z</time>
      </trkpt>
      <trkpt lat="49.32001" lon="-0.54665">
        <ele>48</ele>
        <time>2026-03-24T13:09:52.000Z</time>
      </trkpt>
      <trkpt lat="49.32002" lon="-0.54664">
        <ele>48</ele>
        <time>2026-03-24T13:09:53.000Z</time>
      </trkpt>
      <trkpt lat="49.32002" lon="-0.54663">
        <ele>48</ele>
        <time>2026-03-24T13:09:54.000Z</time>
      </trkpt>
      <trkpt lat="49.32003" lon="-0.54662">
        <ele>48</ele>
        <time>2026-03-24T13:09:55.000Z</time>
      </trkpt>
      <trkpt lat="49.32004" lon="-0.5466">
        <ele>48</ele>
        <time>2026-03-24T13:09:56.000Z</time>
      </trkpt>
      <trkpt lat="49.32005" lon="-0.54659">
        <ele>48</ele>
        <time>2026-03-24T13:09:57.000Z</time>
      </trkpt>
      <trkpt lat="49.32006" lon="-0.54658">
        <ele>48</ele>
        <time>2026-03-24T13:09:58.000Z</time>
      </trkpt>
      <trkpt lat="49.32006" lon="-0.54656">
        <ele>48</ele>
        <time>2026-03-24T13:09:59.000Z</time>
      </trkpt>
      <trkpt lat="49.32007" lon="-0.54655">
        <ele>48</ele>
        <time>2026-03-24T13:10:00.000Z</time>
      </trkpt>
      <trkpt lat="49.32008" lon="-0.54654">
        <ele>48</ele>
        <time>2026-03-24T13:10:01.000Z</time>
      </trkpt>
      <trkpt lat="49.32009" lon="-0.54652">
        <ele>48</ele>
        <time>2026-03-24T13:10:02.000Z</time>
      </trkpt>
      <trkpt lat="49.32009" lon="-0.54651">
        <ele>48</ele>
        <time>2026-03-24T13:10:03.000Z</time>
      </trkpt>
      <trkpt lat="49.3201" lon="-0.5465">
        <ele>48</ele>
        <time>2026-03-24T13:10:04.000Z</time>
      </trkpt>
      <trkpt lat="49.3201" lon="-0.54649">
        <ele>48</ele>
        <time>2026-03-24T13:10:05.000Z</time>
      </trkpt>
      <trkpt lat="49.32011" lon="-0.54647">
        <ele>48</ele>
        <time>2026-03-24T13:10:06.000Z</time>
      </trkpt>
      <trkpt lat="49.32012" lon="-0.54646">
        <ele>48</ele>
        <time>2026-03-24T13:10:07.000Z</time>
      </trkpt>
      <trkpt lat="49.32013" lon="-0.54645">
        <ele>48</ele>
        <time>2026-03-24T13:10:08.000Z</time>
      </trkpt>
      <trkpt lat="49.32014" lon="-0.54644">
        <ele>48</ele>
        <time>2026-03-24T13:10:09.000Z</time>
      </trkpt>
      <trkpt lat="49.32015" lon="-0.54643">
        <ele>48</ele>
        <time>2026-03-24T13:10:10.000Z</time>
      </trkpt>
      <trkpt lat="49.32015" lon="-0.54642">
        <ele>48</ele>
        <time>2026-03-24T13:10:11.000Z</time>
      </trkpt>
      <trkpt lat="49.32016" lon="-0.54641">
        <ele>48</ele>
        <time>2026-03-24T13:10:12.000Z</time>
      </trkpt>
      <trkpt lat="49.32017" lon="-0.54639">
        <ele>48</ele>
        <time>2026-03-24T13:10:13.000Z</time>
      </trkpt>
      <trkpt lat="49.32018" lon="-0.54638">
        <ele>48</ele>
        <time>2026-03-24T13:10:14.000Z</time>
      </trkpt>
      <trkpt lat="49.32019" lon="-0.54637">
        <ele>48.200000762939</ele>
        <time>2026-03-24T13:10:15.000Z</time>
      </trkpt>
      <trkpt lat="49.3202" lon="-0.54636">
        <ele>48.200000762939</ele>
        <time>2026-03-24T13:10:16.000Z</time>
      </trkpt>
      <trkpt lat="49.3202" lon="-0.54635">
        <ele>48.200000762939</ele>
        <time>2026-03-24T13:10:17.000Z</time>
      </trkpt>
      <trkpt lat="49.32021" lon="-0.54634">
        <ele>48.200000762939</ele>
        <time>2026-03-24T13:10:18.000Z</time>
      </trkpt>
      <trkpt lat="49.32022" lon="-0.54633">
        <ele>48.200000762939</ele>
        <time>2026-03-24T13:10:19.000Z</time>
      </trkpt>
      <trkpt lat="49.32023" lon="-0.54632">
        <ele>48.200000762939</ele>
        <time>2026-03-24T13:10:20.000Z</time>
      </trkpt>
      <trkpt lat="49.32023" lon="-0.54631">
        <ele>48.400001525879</ele>
        <time>2026-03-24T13:10:21.000Z</time>
      </trkpt>
      <trkpt lat="49.32024" lon="-0.5463">
        <ele>48.400001525879</ele>
        <time>2026-03-24T13:10:22.000Z</time>
      </trkpt>
      <trkpt lat="49.32025" lon="-0.54629">
        <ele>48.400001525879</ele>
        <time>2026-03-24T13:10:23.000Z</time>
      </trkpt>
      <trkpt lat="49.32026" lon="-0.54628">
        <ele>48.400001525879</ele>
        <time>2026-03-24T13:10:24.000Z</time>
      </trkpt>
      <trkpt lat="49.32026" lon="-0.54626">
        <ele>48.400001525879</ele>
        <time>2026-03-24T13:10:25.000Z</time>
      </trkpt>
      <trkpt lat="49.32027" lon="-0.54625">
        <ele>48.599998474121</ele>
        <time>2026-03-24T13:10:26.000Z</time>
      </trkpt>
      <trkpt lat="49.32028" lon="-0.54624">
        <ele>48.599998474121</ele>
        <time>2026-03-24T13:10:27.000Z</time>
      </trkpt>
      <trkpt lat="49.32029" lon="-0.54622">
        <ele>48.599998474121</ele>
        <time>2026-03-24T13:10:28.000Z</time>
      </trkpt>
      <trkpt lat="49.3203" lon="-0.54621">
        <ele>48.599998474121</ele>
        <time>2026-03-24T13:10:29.000Z</time>
      </trkpt>
      <trkpt lat="49.3203" lon="-0.5462">
        <ele>48.799999237061</ele>
        <time>2026-03-24T13:10:30.000Z</time>
      </trkpt>
      <trkpt lat="49.32031" lon="-0.54618">
        <ele>48.799999237061</ele>
        <time>2026-03-24T13:10:31.000Z</time>
      </trkpt>
      <trkpt lat="49.32032" lon="-0.54617">
        <ele>48.799999237061</ele>
        <time>2026-03-24T13:10:32.000Z</time>
      </trkpt>
      <trkpt lat="49.32033" lon="-0.54615">
        <ele>48.799999237061</ele>
        <time>2026-03-24T13:10:33.000Z</time>
      </trkpt>
      <trkpt lat="49.32033" lon="-0.54614">
        <ele>49</ele>
        <time>2026-03-24T13:10:34.000Z</time>
      </trkpt>
      <trkpt lat="49.32034" lon="-0.54613">
        <ele>49</ele>
        <time>2026-03-24T13:10:35.000Z</time>
      </trkpt>
      <trkpt lat="49.32035" lon="-0.54612">
        <ele>49</ele>
        <time>2026-03-24T13:10:36.000Z</time>
      </trkpt>
      <trkpt lat="49.32036" lon="-0.5461">
        <ele>49</ele>
        <time>2026-03-24T13:10:37.000Z</time>
      </trkpt>
      <trkpt lat="49.32037" lon="-0.54609">
        <ele>48.799999237061</ele>
        <time>2026-03-24T13:10:38.000Z</time>
      </trkpt>
      <trkpt lat="49.32038" lon="-0.54608">
        <ele>48.799999237061</ele>
        <time>2026-03-24T13:10:39.000Z</time>
      </trkpt>
      <trkpt lat="49.32038" lon="-0.54606">
        <ele>48.799999237061</ele>
        <time>2026-03-24T13:10:40.000Z</time>
      </trkpt>
      <trkpt lat="49.32039" lon="-0.54605">
        <ele>48.799999237061</ele>
        <time>2026-03-24T13:10:41.000Z</time>
      </trkpt>
      <trkpt lat="49.3204" lon="-0.54603">
        <ele>48.599998474121</ele>
        <time>2026-03-24T13:10:42.000Z</time>
      </trkpt>
      <trkpt lat="49.32041" lon="-0.54602">
        <ele>48.599998474121</ele>
        <time>2026-03-24T13:10:43.000Z</time>
      </trkpt>
      <trkpt lat="49.32041" lon="-0.54601">
        <ele>48.599998474121</ele>
        <time>2026-03-24T13:10:44.000Z</time>
      </trkpt>
      <trkpt lat="49.32042" lon="-0.54599">
        <ele>48.599998474121</ele>
        <time>2026-03-24T13:10:45.000Z</time>
      </trkpt>
      <trkpt lat="49.32043" lon="-0.54598">
        <ele>48.400001525879</ele>
        <time>2026-03-24T13:10:46.000Z</time>
      </trkpt>
      <trkpt lat="49.32044" lon="-0.54597">
        <ele>48.400001525879</ele>
        <time>2026-03-24T13:10:47.000Z</time>
      </trkpt>
      <trkpt lat="49.32045" lon="-0.54595">
        <ele>48.400001525879</ele>
        <time>2026-03-24T13:10:48.000Z</time>
      </trkpt>
      <trkpt lat="49.32045" lon="-0.54594">
        <ele>48.400001525879</ele>
        <time>2026-03-24T13:10:49.000Z</time>
      </trkpt>
      <trkpt lat="49.32046" lon="-0.54593">
        <ele>48.200000762939</ele>
        <time>2026-03-24T13:10:50.000Z</time>
      </trkpt>
      <trkpt lat="49.32047" lon="-0.54592">
        <ele>48.200000762939</ele>
        <time>2026-03-24T13:10:51.000Z</time>
      </trkpt>
      <trkpt lat="49.32048" lon="-0.54591">
        <ele>48.200000762939</ele>
        <time>2026-03-24T13:10:52.000Z</time>
      </trkpt>
      <trkpt lat="49.32049" lon="-0.54589">
        <ele>48.200000762939</ele>
        <time>2026-03-24T13:10:53.000Z</time>
      </trkpt>
      <trkpt lat="49.32049" lon="-0.54588">
        <ele>48.200000762939</ele>
        <time>2026-03-24T13:10:54.000Z</time>
      </trkpt>
      <trkpt lat="49.3205" lon="-0.54587">
        <ele>48</ele>
        <time>2026-03-24T13:10:55.000Z</time>
      </trkpt>
      <trkpt lat="49.32051" lon="-0.54586">
        <ele>48</ele>
        <time>2026-03-24T13:10:56.000Z</time>
      </trkpt>
      <trkpt lat="49.32052" lon="-0.54585">
        <ele>48</ele>
        <time>2026-03-24T13:10:57.000Z</time>
      </trkpt>
      <trkpt lat="49.32053" lon="-0.54584">
        <ele>48</ele>
        <time>2026-03-24T13:10:58.000Z</time>
      </trkpt>
      <trkpt lat="49.32054" lon="-0.54582">
        <ele>48</ele>
        <time>2026-03-24T13:10:59.000Z</time>
      </trkpt>
      <trkpt lat="49.32055" lon="-0.54581">
        <ele>47.799999237061</ele>
        <time>2026-03-24T13:11:00.000Z</time>
      </trkpt>
      <trkpt lat="49.32056" lon="-0.5458">
        <ele>47.799999237061</ele>
        <time>2026-03-24T13:11:01.000Z</time>
      </trkpt>
      <trkpt lat="49.32057" lon="-0.54579">
        <ele>47.799999237061</ele>
        <time>2026-03-24T13:11:02.000Z</time>
      </trkpt>
      <trkpt lat="49.32057" lon="-0.54577">
        <ele>47.799999237061</ele>
        <time>2026-03-24T13:11:03.000Z</time>
      </trkpt>
      <trkpt lat="49.32058" lon="-0.54576">
        <ele>47.799999237061</ele>
        <time>2026-03-24T13:11:04.000Z</time>
      </trkpt>
      <trkpt lat="49.32059" lon="-0.54575">
        <ele>47.599998474121</ele>
        <time>2026-03-24T13:11:05.000Z</time>
      </trkpt>
      <trkpt lat="49.3206" lon="-0.54574">
        <ele>47.599998474121</ele>
        <time>2026-03-24T13:11:06.000Z</time>
      </trkpt>
      <trkpt lat="49.32061" lon="-0.54573">
        <ele>47.599998474121</ele>
        <time>2026-03-24T13:11:07.000Z</time>
      </trkpt>
      <trkpt lat="49.32062" lon="-0.54572">
        <ele>47.599998474121</ele>
        <time>2026-03-24T13:11:08.000Z</time>
      </trkpt>
      <trkpt lat="49.32063" lon="-0.5457">
        <ele>47.599998474121</ele>
        <time>2026-03-24T13:11:09.000Z</time>
      </trkpt>
      <trkpt lat="49.32064" lon="-0.54569">
        <ele>47.599998474121</ele>
        <time>2026-03-24T13:11:10.000Z</time>
      </trkpt>
      <trkpt lat="49.32064" lon="-0.54568">
        <ele>47.599998474121</ele>
        <time>2026-03-24T13:11:11.000Z</time>
      </trkpt>
      <trkpt lat="49.32065" lon="-0.54567">
        <ele>47.400001525879</ele>
        <time>2026-03-24T13:11:12.000Z</time>
      </trkpt>
      <trkpt lat="49.32066" lon="-0.54565">
        <ele>47.400001525879</ele>
        <time>2026-03-24T13:11:13.000Z</time>
      </trkpt>
      <trkpt lat="49.32067" lon="-0.54564">
        <ele>47.400001525879</ele>
        <time>2026-03-24T13:11:14.000Z</time>
      </trkpt>
      <trkpt lat="49.32067" lon="-0.54562">
        <ele>47.400001525879</ele>
        <time>2026-03-24T13:11:15.000Z</time>
      </trkpt>
      <trkpt lat="49.32068" lon="-0.54561">
        <ele>47.400001525879</ele>
        <time>2026-03-24T13:11:16.000Z</time>
      </trkpt>
      <trkpt lat="49.32069" lon="-0.5456">
        <ele>47.400001525879</ele>
        <time>2026-03-24T13:11:17.000Z</time>
      </trkpt>
      <trkpt lat="49.3207" lon="-0.54558">
        <ele>47.400001525879</ele>
        <time>2026-03-24T13:11:18.000Z</time>
      </trkpt>
      <trkpt lat="49.32071" lon="-0.54557">
        <ele>47.200000762939</ele>
        <time>2026-03-24T13:11:19.000Z</time>
      </trkpt>
      <trkpt lat="49.32071" lon="-0.54556">
        <ele>47.200000762939</ele>
        <time>2026-03-24T13:11:20.000Z</time>
      </trkpt>
      <trkpt lat="49.32072" lon="-0.54555">
        <ele>47.200000762939</ele>
        <time>2026-03-24T13:11:21.000Z</time>
      </trkpt>
      <trkpt lat="49.32073" lon="-0.54554">
        <ele>47.200000762939</ele>
        <time>2026-03-24T13:11:22.000Z</time>
      </trkpt>
      <trkpt lat="49.32074" lon="-0.54553">
        <ele>47.200000762939</ele>
        <time>2026-03-24T13:11:23.000Z</time>
      </trkpt>
      <trkpt lat="49.32074" lon="-0.54552">
        <ele>47.200000762939</ele>
        <time>2026-03-24T13:11:24.000Z</time>
      </trkpt>
      <trkpt lat="49.32075" lon="-0.54551">
        <ele>47.200000762939</ele>
        <time>2026-03-24T13:11:25.000Z</time>
      </trkpt>
      <trkpt lat="49.32076" lon="-0.5455">
        <ele>47</ele>
        <time>2026-03-24T13:11:26.000Z</time>
      </trkpt>
      <trkpt lat="49.32077" lon="-0.54549">
        <ele>47</ele>
        <time>2026-03-24T13:11:27.000Z</time>
      </trkpt>
      <trkpt lat="49.32078" lon="-0.54547">
        <ele>47</ele>
        <time>2026-03-24T13:11:28.000Z</time>
      </trkpt>
      <trkpt lat="49.32078" lon="-0.54546">
        <ele>47</ele>
        <time>2026-03-24T13:11:29.000Z</time>
      </trkpt>
      <trkpt lat="49.32079" lon="-0.54545">
        <ele>47</ele>
        <time>2026-03-24T13:11:30.000Z</time>
      </trkpt>
      <trkpt lat="49.3208" lon="-0.54543">
        <ele>47</ele>
        <time>2026-03-24T13:11:31.000Z</time>
      </trkpt>
      <trkpt lat="49.32081" lon="-0.54542">
        <ele>47</ele>
        <time>2026-03-24T13:11:32.000Z</time>
      </trkpt>
      <trkpt lat="49.32082" lon="-0.54541">
        <ele>47</ele>
        <time>2026-03-24T13:11:33.000Z</time>
      </trkpt>
      <trkpt lat="49.32083" lon="-0.54539">
        <ele>47</ele>
        <time>2026-03-24T13:11:34.000Z</time>
      </trkpt>
      <trkpt lat="49.32083" lon="-0.54538">
        <ele>47</ele>
        <time>2026-03-24T13:11:35.000Z</time>
      </trkpt>
      <trkpt lat="49.32084" lon="-0.54537">
        <ele>47</ele>
        <time>2026-03-24T13:11:36.000Z</time>
      </trkpt>
      <trkpt lat="49.32085" lon="-0.54536">
        <ele>47</ele>
        <time>2026-03-24T13:11:37.000Z</time>
      </trkpt>
      <trkpt lat="49.32086" lon="-0.54534">
        <ele>47</ele>
        <time>2026-03-24T13:11:38.000Z</time>
      </trkpt>
      <trkpt lat="49.32087" lon="-0.54533">
        <ele>47</ele>
        <time>2026-03-24T13:11:39.000Z</time>
      </trkpt>
      <trkpt lat="49.32088" lon="-0.54532">
        <ele>47</ele>
        <time>2026-03-24T13:11:40.000Z</time>
      </trkpt>
      <trkpt lat="49.32088" lon="-0.54531">
        <ele>47</ele>
        <time>2026-03-24T13:11:41.000Z</time>
      </trkpt>
      <trkpt lat="49.32089" lon="-0.5453">
        <ele>47</ele>
        <time>2026-03-24T13:11:42.000Z</time>
      </trkpt>
      <trkpt lat="49.3209" lon="-0.54528">
        <ele>47</ele>
        <time>2026-03-24T13:11:43.000Z</time>
      </trkpt>
      <trkpt lat="49.32091" lon="-0.54527">
        <ele>47</ele>
        <time>2026-03-24T13:11:44.000Z</time>
      </trkpt>
      <trkpt lat="49.32092" lon="-0.54526">
        <ele>47</ele>
        <time>2026-03-24T13:11:45.000Z</time>
      </trkpt>
      <trkpt lat="49.32093" lon="-0.54524">
        <ele>47</ele>
        <time>2026-03-24T13:11:46.000Z</time>
      </trkpt>
      <trkpt lat="49.32094" lon="-0.54523">
        <ele>47</ele>
        <time>2026-03-24T13:11:47.000Z</time>
      </trkpt>
      <trkpt lat="49.32095" lon="-0.54522">
        <ele>47</ele>
        <time>2026-03-24T13:11:48.000Z</time>
      </trkpt>
      <trkpt lat="49.32095" lon="-0.5452">
        <ele>47</ele>
        <time>2026-03-24T13:11:49.000Z</time>
      </trkpt>
      <trkpt lat="49.32096" lon="-0.54518">
        <ele>47</ele>
        <time>2026-03-24T13:11:50.000Z</time>
      </trkpt>
      <trkpt lat="49.32097" lon="-0.54517">
        <ele>47</ele>
        <time>2026-03-24T13:11:51.000Z</time>
      </trkpt>
      <trkpt lat="49.32098" lon="-0.54516">
        <ele>47</ele>
        <time>2026-03-24T13:11:52.000Z</time>
      </trkpt>
      <trkpt lat="49.32099" lon="-0.54515">
        <ele>47</ele>
        <time>2026-03-24T13:11:53.000Z</time>
      </trkpt>
      <trkpt lat="49.321" lon="-0.54514">
        <ele>47</ele>
        <time>2026-03-24T13:11:54.000Z</time>
      </trkpt>
      <trkpt lat="49.32101" lon="-0.54513">
        <ele>47</ele>
        <time>2026-03-24T13:11:55.000Z</time>
      </trkpt>
      <trkpt lat="49.32101" lon="-0.54511">
        <ele>47</ele>
        <time>2026-03-24T13:11:56.000Z</time>
      </trkpt>
      <trkpt lat="49.32102" lon="-0.5451">
        <ele>47</ele>
        <time>2026-03-24T13:11:57.000Z</time>
      </trkpt>
      <trkpt lat="49.32103" lon="-0.54509">
        <ele>47</ele>
        <time>2026-03-24T13:11:58.000Z</time>
      </trkpt>
      <trkpt lat="49.32104" lon="-0.54507">
        <ele>47</ele>
        <time>2026-03-24T13:11:59.000Z</time>
      </trkpt>
      <trkpt lat="49.32105" lon="-0.54506">
        <ele>47</ele>
        <time>2026-03-24T13:12:00.000Z</time>
      </trkpt>
      <trkpt lat="49.32105" lon="-0.54504">
        <ele>47</ele>
        <time>2026-03-24T13:12:01.000Z</time>
      </trkpt>
      <trkpt lat="49.32106" lon="-0.54503">
        <ele>47</ele>
        <time>2026-03-24T13:12:02.000Z</time>
      </trkpt>
      <trkpt lat="49.32107" lon="-0.54502">
        <ele>47</ele>
        <time>2026-03-24T13:12:03.000Z</time>
      </trkpt>
      <trkpt lat="49.32107" lon="-0.545">
        <ele>47</ele>
        <time>2026-03-24T13:12:04.000Z</time>
      </trkpt>
      <trkpt lat="49.32108" lon="-0.54499">
        <ele>47</ele>
        <time>2026-03-24T13:12:05.000Z</time>
      </trkpt>
      <trkpt lat="49.32109" lon="-0.54498">
        <ele>47</ele>
        <time>2026-03-24T13:12:06.000Z</time>
      </trkpt>
      <trkpt lat="49.3211" lon="-0.54497">
        <ele>47.200000762939</ele>
        <time>2026-03-24T13:12:07.000Z</time>
      </trkpt>
      <trkpt lat="49.3211" lon="-0.54496">
        <ele>47.200000762939</ele>
        <time>2026-03-24T13:12:08.000Z</time>
      </trkpt>
      <trkpt lat="49.32111" lon="-0.54495">
        <ele>47.200000762939</ele>
        <time>2026-03-24T13:12:09.000Z</time>
      </trkpt>
      <trkpt lat="49.32112" lon="-0.54493">
        <ele>47.200000762939</ele>
        <time>2026-03-24T13:12:10.000Z</time>
      </trkpt>
      <trkpt lat="49.32112" lon="-0.54492">
        <ele>47.200000762939</ele>
        <time>2026-03-24T13:12:11.000Z</time>
      </trkpt>
      <trkpt lat="49.32113" lon="-0.5449">
        <ele>47.200000762939</ele>
        <time>2026-03-24T13:12:12.000Z</time>
      </trkpt>
      <trkpt lat="49.32114" lon="-0.54489">
        <ele>47.200000762939</ele>
        <time>2026-03-24T13:12:13.000Z</time>
      </trkpt>
      <trkpt lat="49.32114" lon="-0.54488">
        <ele>47.200000762939</ele>
        <time>2026-03-24T13:12:14.000Z</time>
      </trkpt>
      <trkpt lat="49.32115" lon="-0.54486">
        <ele>47.400001525879</ele>
        <time>2026-03-24T13:12:15.000Z</time>
      </trkpt>
      <trkpt lat="49.32116" lon="-0.54485">
        <ele>47.400001525879</ele>
        <time>2026-03-24T13:12:16.000Z</time>
      </trkpt>
      <trkpt lat="49.32117" lon="-0.54484">
        <ele>47.400001525879</ele>
        <time>2026-03-24T13:12:17.000Z</time>
      </trkpt>
      <trkpt lat="49.32118" lon="-0.54483">
        <ele>47.400001525879</ele>
        <time>2026-03-24T13:12:18.000Z</time>
      </trkpt>
      <trkpt lat="49.32118" lon="-0.54482">
        <ele>47.400001525879</ele>
        <time>2026-03-24T13:12:19.000Z</time>
      </trkpt>
      <trkpt lat="49.32119" lon="-0.54481">
        <ele>47.400001525879</ele>
        <time>2026-03-24T13:12:20.000Z</time>
      </trkpt>
      <trkpt lat="49.3212" lon="-0.54479">
        <ele>47.400001525879</ele>
        <time>2026-03-24T13:12:21.000Z</time>
      </trkpt>
      <trkpt lat="49.3212" lon="-0.54478">
        <ele>47.599998474121</ele>
        <time>2026-03-24T13:12:22.000Z</time>
      </trkpt>
      <trkpt lat="49.32121" lon="-0.54477">
        <ele>47.599998474121</ele>
        <time>2026-03-24T13:12:23.000Z</time>
      </trkpt>
      <trkpt lat="49.32122" lon="-0.54476">
        <ele>47.599998474121</ele>
        <time>2026-03-24T13:12:24.000Z</time>
      </trkpt>
      <trkpt lat="49.32123" lon="-0.54475">
        <ele>47.599998474121</ele>
        <time>2026-03-24T13:12:25.000Z</time>
      </trkpt>
      <trkpt lat="49.32123" lon="-0.54473">
        <ele>47.599998474121</ele>
        <time>2026-03-24T13:12:26.000Z</time>
      </trkpt>
      <trkpt lat="49.32124" lon="-0.54472">
        <ele>47.599998474121</ele>
        <time>2026-03-24T13:12:27.000Z</time>
      </trkpt>
      <trkpt lat="49.32125" lon="-0.54471">
        <ele>47.599998474121</ele>
        <time>2026-03-24T13:12:28.000Z</time>
      </trkpt>
      <trkpt lat="49.32126" lon="-0.5447">
        <ele>47.599998474121</ele>
        <time>2026-03-24T13:12:29.000Z</time>
      </trkpt>
      <trkpt lat="49.32126" lon="-0.54469">
        <ele>47.799999237061</ele>
        <time>2026-03-24T13:12:30.000Z</time>
      </trkpt>
      <trkpt lat="49.32127" lon="-0.54467">
        <ele>47.799999237061</ele>
        <time>2026-03-24T13:12:31.000Z</time>
      </trkpt>
      <trkpt lat="49.32128" lon="-0.54466">
        <ele>47.799999237061</ele>
        <time>2026-03-24T13:12:32.000Z</time>
      </trkpt>
      <trkpt lat="49.32129" lon="-0.54464">
        <ele>47.799999237061</ele>
        <time>2026-03-24T13:12:33.000Z</time>
      </trkpt>
      <trkpt lat="49.32129" lon="-0.54463">
        <ele>47.799999237061</ele>
        <time>2026-03-24T13:12:34.000Z</time>
      </trkpt>
      <trkpt lat="49.3213" lon="-0.54462">
        <ele>47.799999237061</ele>
        <time>2026-03-24T13:12:35.000Z</time>
      </trkpt>
      <trkpt lat="49.32131" lon="-0.54461">
        <ele>47.799999237061</ele>
        <time>2026-03-24T13:12:36.000Z</time>
      </trkpt>
      <trkpt lat="49.32132" lon="-0.5446">
        <ele>48</ele>
        <time>2026-03-24T13:12:37.000Z</time>
      </trkpt>
      <trkpt lat="49.32132" lon="-0.54459">
        <ele>48</ele>
        <time>2026-03-24T13:12:38.000Z</time>
      </trkpt>
      <trkpt lat="49.32133" lon="-0.54458">
        <ele>48</ele>
        <time>2026-03-24T13:12:39.000Z</time>
      </trkpt>
      <trkpt lat="49.32133" lon="-0.54457">
        <ele>48</ele>
        <time>2026-03-24T13:12:40.000Z</time>
      </trkpt>
      <trkpt lat="49.32134" lon="-0.54456">
        <ele>48</ele>
        <time>2026-03-24T13:12:41.000Z</time>
      </trkpt>
      <trkpt lat="49.32135" lon="-0.54455">
        <ele>48</ele>
        <time>2026-03-24T13:12:42.000Z</time>
      </trkpt>
      <trkpt lat="49.32135" lon="-0.54454">
        <ele>48</ele>
        <time>2026-03-24T13:12:43.000Z</time>
      </trkpt>
      <trkpt lat="49.32136" lon="-0.54454">
        <ele>48</ele>
        <time>2026-03-24T13:12:44.000Z</time>
      </trkpt>
      <trkpt lat="49.32137" lon="-0.54454">
        <ele>48.200000762939</ele>
        <time>2026-03-24T13:12:45.000Z</time>
      </trkpt>
      <trkpt lat="49.32138" lon="-0.54453">
        <ele>48.200000762939</ele>
        <time>2026-03-24T13:12:46.000Z</time>
      </trkpt>
      <trkpt lat="49.32139" lon="-0.54452">
        <ele>48.200000762939</ele>
        <time>2026-03-24T13:12:47.000Z</time>
      </trkpt>
      <trkpt lat="49.3214" lon="-0.54452">
        <ele>48.200000762939</ele>
        <time>2026-03-24T13:12:48.000Z</time>
      </trkpt>
      <trkpt lat="49.32141" lon="-0.54451">
        <ele>48.200000762939</ele>
        <time>2026-03-24T13:12:49.000Z</time>
      </trkpt>
      <trkpt lat="49.32142" lon="-0.54451">
        <ele>48.200000762939</ele>
        <time>2026-03-24T13:12:50.000Z</time>
      </trkpt>
      <trkpt lat="49.32143" lon="-0.54451">
        <ele>48.400001525879</ele>
        <time>2026-03-24T13:12:51.000Z</time>
      </trkpt>
      <trkpt lat="49.32144" lon="-0.54451">
        <ele>48.400001525879</ele>
        <time>2026-03-24T13:12:52.000Z</time>
      </trkpt>
      <trkpt lat="49.32145" lon="-0.54451">
        <ele>48.400001525879</ele>
        <time>2026-03-24T13:12:53.000Z</time>
      </trkpt>
      <trkpt lat="49.32146" lon="-0.54452">
        <ele>48.400001525879</ele>
        <time>2026-03-24T13:12:54.000Z</time>
      </trkpt>
      <trkpt lat="49.32147" lon="-0.54453">
        <ele>48.400001525879</ele>
        <time>2026-03-24T13:12:55.000Z</time>
      </trkpt>
      <trkpt lat="49.32148" lon="-0.54454">
        <ele>48.400001525879</ele>
        <time>2026-03-24T13:12:56.000Z</time>
      </trkpt>
      <trkpt lat="49.32148" lon="-0.54455">
        <ele>48.599998474121</ele>
        <time>2026-03-24T13:12:57.000Z</time>
      </trkpt>
      <trkpt lat="49.32149" lon="-0.54456">
        <ele>48.599998474121</ele>
        <time>2026-03-24T13:12:58.000Z</time>
      </trkpt>
      <trkpt lat="49.3215" lon="-0.54457">
        <ele>48.599998474121</ele>
        <time>2026-03-24T13:12:59.000Z</time>
      </trkpt>
      <trkpt lat="49.32151" lon="-0.54458">
        <ele>48.599998474121</ele>
        <time>2026-03-24T13:13:00.000Z</time>
      </trkpt>
      <trkpt lat="49.32152" lon="-0.54459">
        <ele>48.599998474121</ele>
        <time>2026-03-24T13:13:01.000Z</time>
      </trkpt>
      <trkpt lat="49.32152" lon="-0.5446">
        <ele>48.400001525879</ele>
        <time>2026-03-24T13:13:02.000Z</time>
      </trkpt>
      <trkpt lat="49.32153" lon="-0.54461">
        <ele>48.400001525879</ele>
        <time>2026-03-24T13:13:03.000Z</time>
      </trkpt>
      <trkpt lat="49.32154" lon="-0.54463">
        <ele>48.400001525879</ele>
        <time>2026-03-24T13:13:04.000Z</time>
      </trkpt>
      <trkpt lat="49.32155" lon="-0.54464">
        <ele>48.400001525879</ele>
        <time>2026-03-24T13:13:05.000Z</time>
      </trkpt>
      <trkpt lat="49.32156" lon="-0.54465">
        <ele>48.400001525879</ele>
        <time>2026-03-24T13:13:06.000Z</time>
      </trkpt>
      <trkpt lat="49.32156" lon="-0.54466">
        <ele>48.200000762939</ele>
        <time>2026-03-24T13:13:07.000Z</time>
      </trkpt>
      <trkpt lat="49.32157" lon="-0.54467">
        <ele>48.200000762939</ele>
        <time>2026-03-24T13:13:08.000Z</time>
      </trkpt>
      <trkpt lat="49.32158" lon="-0.54469">
        <ele>48.200000762939</ele>
        <time>2026-03-24T13:13:09.000Z</time>
      </trkpt>
      <trkpt lat="49.32158" lon="-0.5447">
        <ele>48.200000762939</ele>
        <time>2026-03-24T13:13:10.000Z</time>
      </trkpt>
      <trkpt lat="49.32159" lon="-0.54471">
        <ele>48</ele>
        <time>2026-03-24T13:13:11.000Z</time>
      </trkpt>
      <trkpt lat="49.32159" lon="-0.54472">
        <ele>48</ele>
        <time>2026-03-24T13:13:12.000Z</time>
      </trkpt>
      <trkpt lat="49.3216" lon="-0.54473">
        <ele>48</ele>
        <time>2026-03-24T13:13:13.000Z</time>
      </trkpt>
      <trkpt lat="49.3216" lon="-0.54474">
        <ele>48</ele>
        <time>2026-03-24T13:13:14.000Z</time>
      </trkpt>
      <trkpt lat="49.32161" lon="-0.54475">
        <ele>48</ele>
        <time>2026-03-24T13:13:15.000Z</time>
      </trkpt>
      <trkpt lat="49.32162" lon="-0.54476">
        <ele>48</ele>
        <time>2026-03-24T13:13:16.000Z</time>
      </trkpt>
      <trkpt lat="49.32163" lon="-0.54477">
        <ele>48</ele>
        <time>2026-03-24T13:13:17.000Z</time>
      </trkpt>
      <trkpt lat="49.32163" lon="-0.54478">
        <ele>48</ele>
        <time>2026-03-24T13:13:18.000Z</time>
      </trkpt>
      <trkpt lat="49.32164" lon="-0.5448">
        <ele>48</ele>
        <time>2026-03-24T13:13:19.000Z</time>
      </trkpt>
      <trkpt lat="49.32164" lon="-0.54481">
        <ele>48</ele>
        <time>2026-03-24T13:13:20.000Z</time>
      </trkpt>
      <trkpt lat="49.32165" lon="-0.54481">
        <ele>47.799999237061</ele>
        <time>2026-03-24T13:13:21.000Z</time>
      </trkpt>
      <trkpt lat="49.32166" lon="-0.54482">
        <ele>47.799999237061</ele>
        <time>2026-03-24T13:13:22.000Z</time>
      </trkpt>
      <trkpt lat="49.32166" lon="-0.54483">
        <ele>47.799999237061</ele>
        <time>2026-03-24T13:13:23.000Z</time>
      </trkpt>
      <trkpt lat="49.32167" lon="-0.54485">
        <ele>47.799999237061</ele>
        <time>2026-03-24T13:13:24.000Z</time>
      </trkpt>
      <trkpt lat="49.32167" lon="-0.54486">
        <ele>47.799999237061</ele>
        <time>2026-03-24T13:13:25.000Z</time>
      </trkpt>
      <trkpt lat="49.32168" lon="-0.54486">
        <ele>47.799999237061</ele>
        <time>2026-03-24T13:13:26.000Z</time>
      </trkpt>
      <trkpt lat="49.32168" lon="-0.54487">
        <ele>47.799999237061</ele>
        <time>2026-03-24T13:13:27.000Z</time>
      </trkpt>
      <trkpt lat="49.32168" lon="-0.54488">
        <ele>47.799999237061</ele>
        <time>2026-03-24T13:13:28.000Z</time>
      </trkpt>
      <trkpt lat="49.32168" lon="-0.5449">
        <ele>47.799999237061</ele>
        <time>2026-03-24T13:13:29.000Z</time>
      </trkpt>
      <trkpt lat="49.32169" lon="-0.54491">
        <ele>47.799999237061</ele>
        <time>2026-03-24T13:13:30.000Z</time>
      </trkpt>
      <trkpt lat="49.3217" lon="-0.54492">
        <ele>47.799999237061</ele>
        <time>2026-03-24T13:13:31.000Z</time>
      </trkpt>
      <trkpt lat="49.32171" lon="-0.54493">
        <ele>47.799999237061</ele>
        <time>2026-03-24T13:13:32.000Z</time>
      </trkpt>
      <trkpt lat="49.32172" lon="-0.54495">
        <ele>47.799999237061</ele>
        <time>2026-03-24T13:13:33.000Z</time>
      </trkpt>
      <trkpt lat="49.32172" lon="-0.54496">
        <ele>47.799999237061</ele>
        <time>2026-03-24T13:13:34.000Z</time>
      </trkpt>
      <trkpt lat="49.32174" lon="-0.54497">
        <ele>47.799999237061</ele>
        <time>2026-03-24T13:13:35.000Z</time>
      </trkpt>
      <trkpt lat="49.32174" lon="-0.54499">
        <ele>48</ele>
        <time>2026-03-24T13:13:36.000Z</time>
      </trkpt>
      <trkpt lat="49.32175" lon="-0.545">
        <ele>48</ele>
        <time>2026-03-24T13:13:37.000Z</time>
      </trkpt>
      <trkpt lat="49.32176" lon="-0.54501">
        <ele>48</ele>
        <time>2026-03-24T13:13:38.000Z</time>
      </trkpt>
      <trkpt lat="49.32176" lon="-0.54503">
        <ele>48</ele>
        <time>2026-03-24T13:13:39.000Z</time>
      </trkpt>
      <trkpt lat="49.32177" lon="-0.54504">
        <ele>48.200000762939</ele>
        <time>2026-03-24T13:13:40.000Z</time>
      </trkpt>
      <trkpt lat="49.32178" lon="-0.54506">
        <ele>48.200000762939</ele>
        <time>2026-03-24T13:13:41.000Z</time>
      </trkpt>
      <trkpt lat="49.32179" lon="-0.54507">
        <ele>48.200000762939</ele>
        <time>2026-03-24T13:13:42.000Z</time>
      </trkpt>
      <trkpt lat="49.3218" lon="-0.54509">
        <ele>48.200000762939</ele>
        <time>2026-03-24T13:13:43.000Z</time>
      </trkpt>
      <trkpt lat="49.3218" lon="-0.5451">
        <ele>48.400001525879</ele>
        <time>2026-03-24T13:13:44.000Z</time>
      </trkpt>
      <trkpt lat="49.32181" lon="-0.54512">
        <ele>48.400001525879</ele>
        <time>2026-03-24T13:13:45.000Z</time>
      </trkpt>
      <trkpt lat="49.32182" lon="-0.54513">
        <ele>48.200000762939</ele>
        <time>2026-03-24T13:13:46.000Z</time>
      </trkpt>
      <trkpt lat="49.32183" lon="-0.54514">
        <ele>48.200000762939</ele>
        <time>2026-03-24T13:13:47.000Z</time>
      </trkpt>
      <trkpt lat="49.32183" lon="-0.54516">
        <ele>48.200000762939</ele>
        <time>2026-03-24T13:13:48.000Z</time>
      </trkpt>
      <trkpt lat="49.32184" lon="-0.54517">
        <ele>48.200000762939</ele>
        <time>2026-03-24T13:13:49.000Z</time>
      </trkpt>
      <trkpt lat="49.32185" lon="-0.54519">
        <ele>48.200000762939</ele>
        <time>2026-03-24T13:13:50.000Z</time>
      </trkpt>
      <trkpt lat="49.32186" lon="-0.5452">
        <ele>48.200000762939</ele>
        <time>2026-03-24T13:13:51.000Z</time>
      </trkpt>
      <trkpt lat="49.32187" lon="-0.54521">
        <ele>48</ele>
        <time>2026-03-24T13:13:52.000Z</time>
      </trkpt>
      <trkpt lat="49.32188" lon="-0.54523">
        <ele>48</ele>
        <time>2026-03-24T13:13:53.000Z</time>
      </trkpt>
      <trkpt lat="49.32188" lon="-0.54524">
        <ele>48</ele>
        <time>2026-03-24T13:13:54.000Z</time>
      </trkpt>
      <trkpt lat="49.32189" lon="-0.54525">
        <ele>48</ele>
        <time>2026-03-24T13:13:55.000Z</time>
      </trkpt>
      <trkpt lat="49.3219" lon="-0.54526">
        <ele>48</ele>
        <time>2026-03-24T13:13:56.000Z</time>
      </trkpt>
      <trkpt lat="49.3219" lon="-0.54528">
        <ele>48</ele>
        <time>2026-03-24T13:13:57.000Z</time>
      </trkpt>
      <trkpt lat="49.32191" lon="-0.54529">
        <ele>48</ele>
        <time>2026-03-24T13:13:58.000Z</time>
      </trkpt>
      <trkpt lat="49.32191" lon="-0.54531">
        <ele>48</ele>
        <time>2026-03-24T13:13:59.000Z</time>
      </trkpt>
      <trkpt lat="49.32192" lon="-0.54532">
        <ele>48</ele>
        <time>2026-03-24T13:14:00.000Z</time>
      </trkpt>
      <trkpt lat="49.32193" lon="-0.54533">
        <ele>48</ele>
        <time>2026-03-24T13:14:01.000Z</time>
      </trkpt>
      <trkpt lat="49.32194" lon="-0.54535">
        <ele>48</ele>
        <time>2026-03-24T13:14:02.000Z</time>
      </trkpt>
      <trkpt lat="49.32195" lon="-0.54536">
        <ele>48</ele>
        <time>2026-03-24T13:14:03.000Z</time>
      </trkpt>
      <trkpt lat="49.32195" lon="-0.54537">
        <ele>48</ele>
        <time>2026-03-24T13:14:04.000Z</time>
      </trkpt>
      <trkpt lat="49.32196" lon="-0.54539">
        <ele>48.200000762939</ele>
        <time>2026-03-24T13:14:05.000Z</time>
      </trkpt>
      <trkpt lat="49.32197" lon="-0.5454">
        <ele>48.200000762939</ele>
        <time>2026-03-24T13:14:06.000Z</time>
      </trkpt>
      <trkpt lat="49.32198" lon="-0.54542">
        <ele>48.200000762939</ele>
        <time>2026-03-24T13:14:07.000Z</time>
      </trkpt>
      <trkpt lat="49.32198" lon="-0.54543">
        <ele>48.200000762939</ele>
        <time>2026-03-24T13:14:08.000Z</time>
      </trkpt>
      <trkpt lat="49.32199" lon="-0.54544">
        <ele>48.200000762939</ele>
        <time>2026-03-24T13:14:09.000Z</time>
      </trkpt>
      <trkpt lat="49.322" lon="-0.54545">
        <ele>48.200000762939</ele>
        <time>2026-03-24T13:14:10.000Z</time>
      </trkpt>
      <trkpt lat="49.322" lon="-0.54547">
        <ele>48.200000762939</ele>
        <time>2026-03-24T13:14:11.000Z</time>
      </trkpt>
      <trkpt lat="49.32201" lon="-0.54548">
        <ele>48.200000762939</ele>
        <time>2026-03-24T13:14:12.000Z</time>
      </trkpt>
      <trkpt lat="49.32202" lon="-0.54549">
        <ele>48.200000762939</ele>
        <time>2026-03-24T13:14:13.000Z</time>
      </trkpt>
      <trkpt lat="49.32202" lon="-0.5455">
        <ele>48.400001525879</ele>
        <time>2026-03-24T13:14:14.000Z</time>
      </trkpt>
      <trkpt lat="49.32203" lon="-0.54552">
        <ele>48.400001525879</ele>
        <time>2026-03-24T13:14:15.000Z</time>
      </trkpt>
      <trkpt lat="49.32204" lon="-0.54553">
        <ele>48.400001525879</ele>
        <time>2026-03-24T13:14:16.000Z</time>
      </trkpt>
      <trkpt lat="49.32205" lon="-0.54554">
        <ele>48.400001525879</ele>
        <time>2026-03-24T13:14:17.000Z</time>
      </trkpt>
      <trkpt lat="49.32206" lon="-0.54556">
        <ele>48.400001525879</ele>
        <time>2026-03-24T13:14:18.000Z</time>
      </trkpt>
      <trkpt lat="49.32207" lon="-0.54557">
        <ele>48.400001525879</ele>
        <time>2026-03-24T13:14:19.000Z</time>
      </trkpt>
      <trkpt lat="49.32207" lon="-0.54558">
        <ele>48.400001525879</ele>
        <time>2026-03-24T13:14:20.000Z</time>
      </trkpt>
      <trkpt lat="49.32208" lon="-0.54559">
        <ele>48.400001525879</ele>
        <time>2026-03-24T13:14:21.000Z</time>
      </trkpt>
      <trkpt lat="49.32209" lon="-0.54561">
        <ele>48.400001525879</ele>
        <time>2026-03-24T13:14:22.000Z</time>
      </trkpt>
      <trkpt lat="49.3221" lon="-0.54562">
        <ele>48.200000762939</ele>
        <time>2026-03-24T13:14:23.000Z</time>
      </trkpt>
      <trkpt lat="49.32211" lon="-0.54563">
        <ele>48.200000762939</ele>
        <time>2026-03-24T13:14:24.000Z</time>
      </trkpt>
      <trkpt lat="49.32211" lon="-0.54564">
        <ele>48.200000762939</ele>
        <time>2026-03-24T13:14:25.000Z</time>
      </trkpt>
      <trkpt lat="49.32212" lon="-0.54566">
        <ele>48.400001525879</ele>
        <time>2026-03-24T13:14:26.000Z</time>
      </trkpt>
      <trkpt lat="49.32213" lon="-0.54567">
        <ele>48.400001525879</ele>
        <time>2026-03-24T13:14:27.000Z</time>
      </trkpt>
      <trkpt lat="49.32214" lon="-0.54568">
        <ele>48.400001525879</ele>
        <time>2026-03-24T13:14:28.000Z</time>
      </trkpt>
      <trkpt lat="49.32214" lon="-0.54569">
        <ele>48.400001525879</ele>
        <time>2026-03-24T13:14:29.000Z</time>
      </trkpt>
      <trkpt lat="49.32215" lon="-0.5457">
        <ele>48.400001525879</ele>
        <time>2026-03-24T13:14:30.000Z</time>
      </trkpt>
      <trkpt lat="49.32215" lon="-0.54571">
        <ele>48.599998474121</ele>
        <time>2026-03-24T13:14:31.000Z</time>
      </trkpt>
      <trkpt lat="49.32216" lon="-0.54573">
        <ele>48.599998474121</ele>
        <time>2026-03-24T13:14:32.000Z</time>
      </trkpt>
      <trkpt lat="49.32217" lon="-0.54574">
        <ele>48.599998474121</ele>
        <time>2026-03-24T13:14:33.000Z</time>
      </trkpt>
      <trkpt lat="49.32217" lon="-0.54575">
        <ele>48.599998474121</ele>
        <time>2026-03-24T13:14:34.000Z</time>
      </trkpt>
      <trkpt lat="49.32218" lon="-0.54576">
        <ele>48.599998474121</ele>
        <time>2026-03-24T13:14:35.000Z</time>
      </trkpt>
      <trkpt lat="49.32219" lon="-0.54578">
        <ele>48.799999237061</ele>
        <time>2026-03-24T13:14:36.000Z</time>
      </trkpt>
      <trkpt lat="49.3222" lon="-0.54579">
        <ele>48.799999237061</ele>
        <time>2026-03-24T13:14:37.000Z</time>
      </trkpt>
      <trkpt lat="49.32221" lon="-0.5458">
        <ele>48.799999237061</ele>
        <time>2026-03-24T13:14:38.000Z</time>
      </trkpt>
      <trkpt lat="49.32221" lon="-0.54582">
        <ele>49</ele>
        <time>2026-03-24T13:14:39.000Z</time>
      </trkpt>
      <trkpt lat="49.32222" lon="-0.54583">
        <ele>49</ele>
        <time>2026-03-24T13:14:40.000Z</time>
      </trkpt>
      <trkpt lat="49.32223" lon="-0.54584">
        <ele>49</ele>
        <time>2026-03-24T13:14:41.000Z</time>
      </trkpt>
      <trkpt lat="49.32223" lon="-0.54586">
        <ele>49</ele>
        <time>2026-03-24T13:14:42.000Z</time>
      </trkpt>
      <trkpt lat="49.32224" lon="-0.54587">
        <ele>49</ele>
        <time>2026-03-24T13:14:43.000Z</time>
      </trkpt>
      <trkpt lat="49.32225" lon="-0.54588">
        <ele>49.200000762939</ele>
        <time>2026-03-24T13:14:44.000Z</time>
      </trkpt>
      <trkpt lat="49.32225" lon="-0.5459">
        <ele>49.200000762939</ele>
        <time>2026-03-24T13:14:45.000Z</time>
      </trkpt>
      <trkpt lat="49.32226" lon="-0.54591">
        <ele>49.200000762939</ele>
        <time>2026-03-24T13:14:46.000Z</time>
      </trkpt>
      <trkpt lat="49.32227" lon="-0.54592">
        <ele>49.200000762939</ele>
        <time>2026-03-24T13:14:47.000Z</time>
      </trkpt>
      <trkpt lat="49.32228" lon="-0.54594">
        <ele>49.400001525879</ele>
        <time>2026-03-24T13:14:48.000Z</time>
      </trkpt>
      <trkpt lat="49.32228" lon="-0.54595">
        <ele>49.400001525879</ele>
        <time>2026-03-24T13:14:49.000Z</time>
      </trkpt>
      <trkpt lat="49.32229" lon="-0.54596">
        <ele>49.400001525879</ele>
        <time>2026-03-24T13:14:50.000Z</time>
      </trkpt>
      <trkpt lat="49.3223" lon="-0.54597">
        <ele>49.400001525879</ele>
        <time>2026-03-24T13:14:51.000Z</time>
      </trkpt>
      <trkpt lat="49.32231" lon="-0.54598">
        <ele>49.400001525879</ele>
        <time>2026-03-24T13:14:52.000Z</time>
      </trkpt>
      <trkpt lat="49.32231" lon="-0.54599">
        <ele>49.599998474121</ele>
        <time>2026-03-24T13:14:53.000Z</time>
      </trkpt>
      <trkpt lat="49.32232" lon="-0.546">
        <ele>49.599998474121</ele>
        <time>2026-03-24T13:14:54.000Z</time>
      </trkpt>
      <trkpt lat="49.32233" lon="-0.54601">
        <ele>49.599998474121</ele>
        <time>2026-03-24T13:14:55.000Z</time>
      </trkpt>
      <trkpt lat="49.32234" lon="-0.54602">
        <ele>49.599998474121</ele>
        <time>2026-03-24T13:14:56.000Z</time>
      </trkpt>
      <trkpt lat="49.32235" lon="-0.54603">
        <ele>49.599998474121</ele>
        <time>2026-03-24T13:14:57.000Z</time>
      </trkpt>
      <trkpt lat="49.32236" lon="-0.54605">
        <ele>49.799999237061</ele>
        <time>2026-03-24T13:14:58.000Z</time>
      </trkpt>
      <trkpt lat="49.32237" lon="-0.54606">
        <ele>49.799999237061</ele>
        <time>2026-03-24T13:14:59.000Z</time>
      </trkpt>
      <trkpt lat="49.32237" lon="-0.54607">
        <ele>49.799999237061</ele>
        <time>2026-03-24T13:15:00.000Z</time>
      </trkpt>
      <trkpt lat="49.32238" lon="-0.54609">
        <ele>49.799999237061</ele>
        <time>2026-03-24T13:15:01.000Z</time>
      </trkpt>
      <trkpt lat="49.32239" lon="-0.5461">
        <ele>50</ele>
        <time>2026-03-24T13:15:02.000Z</time>
      </trkpt>
      <trkpt lat="49.3224" lon="-0.54612">
        <ele>50</ele>
        <time>2026-03-24T13:15:03.000Z</time>
      </trkpt>
      <trkpt lat="49.3224" lon="-0.54613">
        <ele>50</ele>
        <time>2026-03-24T13:15:04.000Z</time>
      </trkpt>
      <trkpt lat="49.32241" lon="-0.54615">
        <ele>50</ele>
        <time>2026-03-24T13:15:05.000Z</time>
      </trkpt>
      <trkpt lat="49.32242" lon="-0.54616">
        <ele>50</ele>
        <time>2026-03-24T13:15:06.000Z</time>
      </trkpt>
      <trkpt lat="49.32243" lon="-0.54617">
        <ele>50.200000762939</ele>
        <time>2026-03-24T13:15:07.000Z</time>
      </trkpt>
      <trkpt lat="49.32244" lon="-0.54618">
        <ele>50.200000762939</ele>
        <time>2026-03-24T13:15:08.000Z</time>
      </trkpt>
      <trkpt lat="49.32244" lon="-0.5462">
        <ele>50.200000762939</ele>
        <time>2026-03-24T13:15:09.000Z</time>
      </trkpt>
      <trkpt lat="49.32245" lon="-0.54621">
        <ele>50.400001525879</ele>
        <time>2026-03-24T13:15:10.000Z</time>
      </trkpt>
      <trkpt lat="49.32246" lon="-0.54622">
        <ele>50.400001525879</ele>
        <time>2026-03-24T13:15:11.000Z</time>
      </trkpt>
      <trkpt lat="49.32246" lon="-0.54623">
        <ele>50.400001525879</ele>
        <time>2026-03-24T13:15:12.000Z</time>
      </trkpt>
      <trkpt lat="49.32247" lon="-0.54624">
        <ele>50.400001525879</ele>
        <time>2026-03-24T13:15:13.000Z</time>
      </trkpt>
      <trkpt lat="49.32248" lon="-0.54626">
        <ele>50.400001525879</ele>
        <time>2026-03-24T13:15:14.000Z</time>
      </trkpt>
      <trkpt lat="49.32249" lon="-0.54627">
        <ele>50.400001525879</ele>
        <time>2026-03-24T13:15:15.000Z</time>
      </trkpt>
      <trkpt lat="49.3225" lon="-0.54628">
        <ele>50.400001525879</ele>
        <time>2026-03-24T13:15:16.000Z</time>
      </trkpt>
      <trkpt lat="49.3225" lon="-0.5463">
        <ele>50.400001525879</ele>
        <time>2026-03-24T13:15:17.000Z</time>
      </trkpt>
      <trkpt lat="49.32251" lon="-0.54631">
        <ele>50.400001525879</ele>
        <time>2026-03-24T13:15:18.000Z</time>
      </trkpt>
      <trkpt lat="49.32251" lon="-0.54632">
        <ele>50.400001525879</ele>
        <time>2026-03-24T13:15:19.000Z</time>
      </trkpt>
      <trkpt lat="49.32252" lon="-0.54633">
        <ele>50.599998474121</ele>
        <time>2026-03-24T13:15:20.000Z</time>
      </trkpt>
      <trkpt lat="49.32252" lon="-0.54635">
        <ele>50.599998474121</ele>
        <time>2026-03-24T13:15:21.000Z</time>
      </trkpt>
      <trkpt lat="49.32253" lon="-0.54636">
        <ele>50.599998474121</ele>
        <time>2026-03-24T13:15:22.000Z</time>
      </trkpt>
      <trkpt lat="49.32254" lon="-0.54638">
        <ele>50.599998474121</ele>
        <time>2026-03-24T13:15:23.000Z</time>
      </trkpt>
      <trkpt lat="49.32254" lon="-0.54639">
        <ele>50.599998474121</ele>
        <time>2026-03-24T13:15:24.000Z</time>
      </trkpt>
      <trkpt lat="49.32255" lon="-0.54641">
        <ele>50.599998474121</ele>
        <time>2026-03-24T13:15:25.000Z</time>
      </trkpt>
      <trkpt lat="49.32256" lon="-0.54642">
        <ele>50.599998474121</ele>
        <time>2026-03-24T13:15:26.000Z</time>
      </trkpt>
      <trkpt lat="49.32256" lon="-0.54644">
        <ele>50.400001525879</ele>
        <time>2026-03-24T13:15:27.000Z</time>
      </trkpt>
      <trkpt lat="49.32257" lon="-0.54645">
        <ele>50.400001525879</ele>
        <time>2026-03-24T13:15:28.000Z</time>
      </trkpt>
      <trkpt lat="49.32258" lon="-0.54646">
        <ele>50.400001525879</ele>
        <time>2026-03-24T13:15:29.000Z</time>
      </trkpt>
      <trkpt lat="49.32258" lon="-0.54648">
        <ele>50.200000762939</ele>
        <time>2026-03-24T13:15:30.000Z</time>
      </trkpt>
      <trkpt lat="49.32259" lon="-0.54649">
        <ele>50.200000762939</ele>
        <time>2026-03-24T13:15:31.000Z</time>
      </trkpt>
      <trkpt lat="49.3226" lon="-0.5465">
        <ele>50.200000762939</ele>
        <time>2026-03-24T13:15:32.000Z</time>
      </trkpt>
      <trkpt lat="49.32261" lon="-0.54651">
        <ele>50</ele>
        <time>2026-03-24T13:15:33.000Z</time>
      </trkpt>
      <trkpt lat="49.32261" lon="-0.54653">
        <ele>50</ele>
        <time>2026-03-24T13:15:34.000Z</time>
      </trkpt>
      <trkpt lat="49.32262" lon="-0.54654">
        <ele>50</ele>
        <time>2026-03-24T13:15:35.000Z</time>
      </trkpt>
      <trkpt lat="49.32263" lon="-0.54655">
        <ele>50</ele>
        <time>2026-03-24T13:15:36.000Z</time>
      </trkpt>
      <trkpt lat="49.32263" lon="-0.54656">
        <ele>50</ele>
        <time>2026-03-24T13:15:37.000Z</time>
      </trkpt>
      <trkpt lat="49.32264" lon="-0.54657">
        <ele>50</ele>
        <time>2026-03-24T13:15:38.000Z</time>
      </trkpt>
      <trkpt lat="49.32265" lon="-0.54658">
        <ele>50</ele>
        <time>2026-03-24T13:15:39.000Z</time>
      </trkpt>
      <trkpt lat="49.32265" lon="-0.54659">
        <ele>50</ele>
        <time>2026-03-24T13:15:40.000Z</time>
      </trkpt>
      <trkpt lat="49.32266" lon="-0.5466">
        <ele>50</ele>
        <time>2026-03-24T13:15:41.000Z</time>
      </trkpt>
      <trkpt lat="49.32266" lon="-0.54662">
        <ele>50</ele>
        <time>2026-03-24T13:15:42.000Z</time>
      </trkpt>
      <trkpt lat="49.32267" lon="-0.54663">
        <ele>50</ele>
        <time>2026-03-24T13:15:43.000Z</time>
      </trkpt>
      <trkpt lat="49.32267" lon="-0.54664">
        <ele>50</ele>
        <time>2026-03-24T13:15:44.000Z</time>
      </trkpt>
      <trkpt lat="49.32268" lon="-0.54665">
        <ele>50</ele>
        <time>2026-03-24T13:15:45.000Z</time>
      </trkpt>
      <trkpt lat="49.32269" lon="-0.54667">
        <ele>50</ele>
        <time>2026-03-24T13:15:46.000Z</time>
      </trkpt>
      <trkpt lat="49.3227" lon="-0.54668">
        <ele>50</ele>
        <time>2026-03-24T13:15:47.000Z</time>
      </trkpt>
      <trkpt lat="49.3227" lon="-0.54669">
        <ele>50</ele>
        <time>2026-03-24T13:15:48.000Z</time>
      </trkpt>
      <trkpt lat="49.32271" lon="-0.54671">
        <ele>50</ele>
        <time>2026-03-24T13:15:49.000Z</time>
      </trkpt>
      <trkpt lat="49.32271" lon="-0.54672">
        <ele>50</ele>
        <time>2026-03-24T13:15:50.000Z</time>
      </trkpt>
      <trkpt lat="49.32272" lon="-0.54674">
        <ele>50</ele>
        <time>2026-03-24T13:15:51.000Z</time>
      </trkpt>
      <trkpt lat="49.32272" lon="-0.54675">
        <ele>50</ele>
        <time>2026-03-24T13:15:52.000Z</time>
      </trkpt>
      <trkpt lat="49.32273" lon="-0.54677">
        <ele>50</ele>
        <time>2026-03-24T13:15:53.000Z</time>
      </trkpt>
      <trkpt lat="49.32274" lon="-0.54678">
        <ele>50</ele>
        <time>2026-03-24T13:15:54.000Z</time>
      </trkpt>
      <trkpt lat="49.32275" lon="-0.5468">
        <ele>50</ele>
        <time>2026-03-24T13:15:55.000Z</time>
      </trkpt>
      <trkpt lat="49.32275" lon="-0.54681">
        <ele>50</ele>
        <time>2026-03-24T13:15:56.000Z</time>
      </trkpt>
      <trkpt lat="49.32276" lon="-0.54683">
        <ele>50</ele>
        <time>2026-03-24T13:15:57.000Z</time>
      </trkpt>
      <trkpt lat="49.32277" lon="-0.54684">
        <ele>50</ele>
        <time>2026-03-24T13:15:58.000Z</time>
      </trkpt>
      <trkpt lat="49.32277" lon="-0.54686">
        <ele>50</ele>
        <time>2026-03-24T13:15:59.000Z</time>
      </trkpt>
      <trkpt lat="49.32278" lon="-0.54687">
        <ele>50</ele>
        <time>2026-03-24T13:16:00.000Z</time>
      </trkpt>
      <trkpt lat="49.32278" lon="-0.54689">
        <ele>50</ele>
        <time>2026-03-24T13:16:01.000Z</time>
      </trkpt>
      <trkpt lat="49.32278" lon="-0.5469">
        <ele>50</ele>
        <time>2026-03-24T13:16:02.000Z</time>
      </trkpt>
      <trkpt lat="49.32279" lon="-0.54692">
        <ele>50</ele>
        <time>2026-03-24T13:16:03.000Z</time>
      </trkpt>
      <trkpt lat="49.32279" lon="-0.54693">
        <ele>50</ele>
        <time>2026-03-24T13:16:04.000Z</time>
      </trkpt>
      <trkpt lat="49.32279" lon="-0.54695">
        <ele>50</ele>
        <time>2026-03-24T13:16:05.000Z</time>
      </trkpt>
      <trkpt lat="49.3228" lon="-0.54697">
        <ele>50</ele>
        <time>2026-03-24T13:16:06.000Z</time>
      </trkpt>
      <trkpt lat="49.3228" lon="-0.54698">
        <ele>50</ele>
        <time>2026-03-24T13:16:07.000Z</time>
      </trkpt>
      <trkpt lat="49.3228" lon="-0.54699">
        <ele>50.200000762939</ele>
        <time>2026-03-24T13:16:08.000Z</time>
      </trkpt>
      <trkpt lat="49.32281" lon="-0.547">
        <ele>50.200000762939</ele>
        <time>2026-03-24T13:16:09.000Z</time>
      </trkpt>
      <trkpt lat="49.32281" lon="-0.54702">
        <ele>50.200000762939</ele>
        <time>2026-03-24T13:16:10.000Z</time>
      </trkpt>
      <trkpt lat="49.32282" lon="-0.54705">
        <ele>50.400001525879</ele>
        <time>2026-03-24T13:16:11.000Z</time>
      </trkpt>
      <trkpt lat="49.32282" lon="-0.54706">
        <ele>50.400001525879</ele>
        <time>2026-03-24T13:16:12.000Z</time>
      </trkpt>
      <trkpt lat="49.32282" lon="-0.54708">
        <ele>50.400001525879</ele>
        <time>2026-03-24T13:16:13.000Z</time>
      </trkpt>
      <trkpt lat="49.32283" lon="-0.5471">
        <ele>50.599998474121</ele>
        <time>2026-03-24T13:16:14.000Z</time>
      </trkpt>
      <trkpt lat="49.32283" lon="-0.54711">
        <ele>50.599998474121</ele>
        <time>2026-03-24T13:16:15.000Z</time>
      </trkpt>
      <trkpt lat="49.32283" lon="-0.54713">
        <ele>50.599998474121</ele>
        <time>2026-03-24T13:16:16.000Z</time>
      </trkpt>
      <trkpt lat="49.32284" lon="-0.54715">
        <ele>50.599998474121</ele>
        <time>2026-03-24T13:16:17.000Z</time>
      </trkpt>
      <trkpt lat="49.32284" lon="-0.54716">
        <ele>50.599998474121</ele>
        <time>2026-03-24T13:16:18.000Z</time>
      </trkpt>
      <trkpt lat="49.32284" lon="-0.54717">
        <ele>50.599998474121</ele>
        <time>2026-03-24T13:16:19.000Z</time>
      </trkpt>
      <trkpt lat="49.32285" lon="-0.54719">
        <ele>50.599998474121</ele>
        <time>2026-03-24T13:16:20.000Z</time>
      </trkpt>
      <trkpt lat="49.32285" lon="-0.54721">
        <ele>50.599998474121</ele>
        <time>2026-03-24T13:16:21.000Z</time>
      </trkpt>
      <trkpt lat="49.32285" lon="-0.54723">
        <ele>50.599998474121</ele>
        <time>2026-03-24T13:16:22.000Z</time>
      </trkpt>
      <trkpt lat="49.32286" lon="-0.54724">
        <ele>50.599998474121</ele>
        <time>2026-03-24T13:16:23.000Z</time>
      </trkpt>
      <trkpt lat="49.32286" lon="-0.54726">
        <ele>50.599998474121</ele>
        <time>2026-03-24T13:16:24.000Z</time>
      </trkpt>
      <trkpt lat="49.32287" lon="-0.54728">
        <ele>50.599998474121</ele>
        <time>2026-03-24T13:16:25.000Z</time>
      </trkpt>
      <trkpt lat="49.32287" lon="-0.54729">
        <ele>50.400001525879</ele>
        <time>2026-03-24T13:16:26.000Z</time>
      </trkpt>
      <trkpt lat="49.32287" lon="-0.5473">
        <ele>50.400001525879</ele>
        <time>2026-03-24T13:16:27.000Z</time>
      </trkpt>
      <trkpt lat="49.32288" lon="-0.54732">
        <ele>50.400001525879</ele>
        <time>2026-03-24T13:16:28.000Z</time>
      </trkpt>
      <trkpt lat="49.32289" lon="-0.54733">
        <ele>50.400001525879</ele>
        <time>2026-03-24T13:16:29.000Z</time>
      </trkpt>
      <trkpt lat="49.32289" lon="-0.54734">
        <ele>50.400001525879</ele>
        <time>2026-03-24T13:16:30.000Z</time>
      </trkpt>
      <trkpt lat="49.3229" lon="-0.54736">
        <ele>50.400001525879</ele>
        <time>2026-03-24T13:16:31.000Z</time>
      </trkpt>
      <trkpt lat="49.3229" lon="-0.54737">
        <ele>50.400001525879</ele>
        <time>2026-03-24T13:16:32.000Z</time>
      </trkpt>
      <trkpt lat="49.32291" lon="-0.54739">
        <ele>50.599998474121</ele>
        <time>2026-03-24T13:16:33.000Z</time>
      </trkpt>
      <trkpt lat="49.32291" lon="-0.5474">
        <ele>50.599998474121</ele>
        <time>2026-03-24T13:16:34.000Z</time>
      </trkpt>
      <trkpt lat="49.32291" lon="-0.54742">
        <ele>50.599998474121</ele>
        <time>2026-03-24T13:16:35.000Z</time>
      </trkpt>
      <trkpt lat="49.32292" lon="-0.54743">
        <ele>50.799999237061</ele>
        <time>2026-03-24T13:16:36.000Z</time>
      </trkpt>
      <trkpt lat="49.32292" lon="-0.54745">
        <ele>50.799999237061</ele>
        <time>2026-03-24T13:16:37.000Z</time>
      </trkpt>
      <trkpt lat="49.32292" lon="-0.54746">
        <ele>50.799999237061</ele>
        <time>2026-03-24T13:16:38.000Z</time>
      </trkpt>
      <trkpt lat="49.32293" lon="-0.54748">
        <ele>50.799999237061</ele>
        <time>2026-03-24T13:16:39.000Z</time>
      </trkpt>
      <trkpt lat="49.32293" lon="-0.54749">
        <ele>51</ele>
        <time>2026-03-24T13:16:40.000Z</time>
      </trkpt>
      <trkpt lat="49.32294" lon="-0.54751">
        <ele>51</ele>
        <time>2026-03-24T13:16:41.000Z</time>
      </trkpt>
      <trkpt lat="49.32294" lon="-0.54753">
        <ele>51</ele>
        <time>2026-03-24T13:16:42.000Z</time>
      </trkpt>
      <trkpt lat="49.32294" lon="-0.54754">
        <ele>51</ele>
        <time>2026-03-24T13:16:43.000Z</time>
      </trkpt>
      <trkpt lat="49.32295" lon="-0.54755">
        <ele>51.200000762939</ele>
        <time>2026-03-24T13:16:44.000Z</time>
      </trkpt>
      <trkpt lat="49.32295" lon="-0.54757">
        <ele>51.200000762939</ele>
        <time>2026-03-24T13:16:45.000Z</time>
      </trkpt>
      <trkpt lat="49.32296" lon="-0.54758">
        <ele>51.200000762939</ele>
        <time>2026-03-24T13:16:46.000Z</time>
      </trkpt>
      <trkpt lat="49.32296" lon="-0.5476">
        <ele>51.200000762939</ele>
        <time>2026-03-24T13:16:47.000Z</time>
      </trkpt>
      <trkpt lat="49.32297" lon="-0.54761">
        <ele>51.400001525879</ele>
        <time>2026-03-24T13:16:48.000Z</time>
      </trkpt>
      <trkpt lat="49.32297" lon="-0.54763">
        <ele>51.400001525879</ele>
        <time>2026-03-24T13:16:49.000Z</time>
      </trkpt>
      <trkpt lat="49.32298" lon="-0.54764">
        <ele>51.400001525879</ele>
        <time>2026-03-24T13:16:50.000Z</time>
      </trkpt>
      <trkpt lat="49.32298" lon="-0.54765">
        <ele>51.599998474121</ele>
        <time>2026-03-24T13:16:51.000Z</time>
      </trkpt>
      <trkpt lat="49.32298" lon="-0.54767">
        <ele>51.599998474121</ele>
        <time>2026-03-24T13:16:52.000Z</time>
      </trkpt>
      <trkpt lat="49.32299" lon="-0.54769">
        <ele>51.599998474121</ele>
        <time>2026-03-24T13:16:53.000Z</time>
      </trkpt>
      <trkpt lat="49.32299" lon="-0.5477">
        <ele>51.599998474121</ele>
        <time>2026-03-24T13:16:54.000Z</time>
      </trkpt>
      <trkpt lat="49.323" lon="-0.54772">
        <ele>51.799999237061</ele>
        <time>2026-03-24T13:16:55.000Z</time>
      </trkpt>
      <trkpt lat="49.323" lon="-0.54774">
        <ele>51.799999237061</ele>
        <time>2026-03-24T13:16:56.000Z</time>
      </trkpt>
      <trkpt lat="49.32301" lon="-0.54775">
        <ele>51.799999237061</ele>
        <time>2026-03-24T13:16:57.000Z</time>
      </trkpt>
      <trkpt lat="49.32301" lon="-0.54776">
        <ele>51.799999237061</ele>
        <time>2026-03-24T13:16:58.000Z</time>
      </trkpt>
      <trkpt lat="49.32301" lon="-0.54778">
        <ele>52</ele>
        <time>2026-03-24T13:16:59.000Z</time>
      </trkpt>
      <trkpt lat="49.32302" lon="-0.54779">
        <ele>52</ele>
        <time>2026-03-24T13:17:00.000Z</time>
      </trkpt>
      <trkpt lat="49.32302" lon="-0.54781">
        <ele>51.799999237061</ele>
        <time>2026-03-24T13:17:01.000Z</time>
      </trkpt>
      <trkpt lat="49.32303" lon="-0.54782">
        <ele>51.799999237061</ele>
        <time>2026-03-24T13:17:02.000Z</time>
      </trkpt>
      <trkpt lat="49.32303" lon="-0.54783">
        <ele>51.799999237061</ele>
        <time>2026-03-24T13:17:03.000Z</time>
      </trkpt>
      <trkpt lat="49.32304" lon="-0.54784">
        <ele>51.799999237061</ele>
        <time>2026-03-24T13:17:04.000Z</time>
      </trkpt>
      <trkpt lat="49.32304" lon="-0.54786">
        <ele>51.799999237061</ele>
        <time>2026-03-24T13:17:05.000Z</time>
      </trkpt>
      <trkpt lat="49.32305" lon="-0.54787">
        <ele>51.799999237061</ele>
        <time>2026-03-24T13:17:06.000Z</time>
      </trkpt>
      <trkpt lat="49.32305" lon="-0.54789">
        <ele>51.599998474121</ele>
        <time>2026-03-24T13:17:07.000Z</time>
      </trkpt>
      <trkpt lat="49.32305" lon="-0.54791">
        <ele>51.599998474121</ele>
        <time>2026-03-24T13:17:08.000Z</time>
      </trkpt>
      <trkpt lat="49.32306" lon="-0.54793">
        <ele>51.599998474121</ele>
        <time>2026-03-24T13:17:09.000Z</time>
      </trkpt>
      <trkpt lat="49.32306" lon="-0.54794">
        <ele>51.599998474121</ele>
        <time>2026-03-24T13:17:10.000Z</time>
      </trkpt>
      <trkpt lat="49.32306" lon="-0.54795">
        <ele>51.599998474121</ele>
        <time>2026-03-24T13:17:11.000Z</time>
      </trkpt>
      <trkpt lat="49.32307" lon="-0.54797">
        <ele>51.599998474121</ele>
        <time>2026-03-24T13:17:12.000Z</time>
      </trkpt>
      <trkpt lat="49.32307" lon="-0.54798">
        <ele>51.599998474121</ele>
        <time>2026-03-24T13:17:13.000Z</time>
      </trkpt>
      <trkpt lat="49.32308" lon="-0.548">
        <ele>51.400001525879</ele>
        <time>2026-03-24T13:17:14.000Z</time>
      </trkpt>
      <trkpt lat="49.32308" lon="-0.54801">
        <ele>51.599998474121</ele>
        <time>2026-03-24T13:17:15.000Z</time>
      </trkpt>
      <trkpt lat="49.32308" lon="-0.54803">
        <ele>51.799999237061</ele>
        <time>2026-03-24T13:17:16.000Z</time>
      </trkpt>
      <trkpt lat="49.32309" lon="-0.54805">
        <ele>51.799999237061</ele>
        <time>2026-03-24T13:17:17.000Z</time>
      </trkpt>
      <trkpt lat="49.32309" lon="-0.54806">
        <ele>52</ele>
        <time>2026-03-24T13:17:18.000Z</time>
      </trkpt>
      <trkpt lat="49.32309" lon="-0.54808">
        <ele>52</ele>
        <time>2026-03-24T13:17:19.000Z</time>
      </trkpt>
      <trkpt lat="49.3231" lon="-0.54809">
        <ele>52</ele>
        <time>2026-03-24T13:17:20.000Z</time>
      </trkpt>
      <trkpt lat="49.3231" lon="-0.54811">
        <ele>52</ele>
        <time>2026-03-24T13:17:21.000Z</time>
      </trkpt>
      <trkpt lat="49.32311" lon="-0.54812">
        <ele>52</ele>
        <time>2026-03-24T13:17:22.000Z</time>
      </trkpt>
      <trkpt lat="49.32311" lon="-0.54814">
        <ele>52</ele>
        <time>2026-03-24T13:17:23.000Z</time>
      </trkpt>
      <trkpt lat="49.32312" lon="-0.54815">
        <ele>52</ele>
        <time>2026-03-24T13:17:24.000Z</time>
      </trkpt>
      <trkpt lat="49.32312" lon="-0.54816">
        <ele>52</ele>
        <time>2026-03-24T13:17:25.000Z</time>
      </trkpt>
      <trkpt lat="49.32312" lon="-0.54818">
        <ele>52</ele>
        <time>2026-03-24T13:17:26.000Z</time>
      </trkpt>
      <trkpt lat="49.32313" lon="-0.5482">
        <ele>52</ele>
        <time>2026-03-24T13:17:27.000Z</time>
      </trkpt>
      <trkpt lat="49.32313" lon="-0.54821">
        <ele>52</ele>
        <time>2026-03-24T13:17:28.000Z</time>
      </trkpt>
      <trkpt lat="49.32314" lon="-0.54823">
        <ele>52</ele>
        <time>2026-03-24T13:17:29.000Z</time>
      </trkpt>
      <trkpt lat="49.32314" lon="-0.54824">
        <ele>52</ele>
        <time>2026-03-24T13:17:30.000Z</time>
      </trkpt>
      <trkpt lat="49.32315" lon="-0.54826">
        <ele>52</ele>
        <time>2026-03-24T13:17:31.000Z</time>
      </trkpt>
      <trkpt lat="49.32315" lon="-0.54827">
        <ele>52</ele>
        <time>2026-03-24T13:17:32.000Z</time>
      </trkpt>
      <trkpt lat="49.32315" lon="-0.54829">
        <ele>52</ele>
        <time>2026-03-24T13:17:33.000Z</time>
      </trkpt>
      <trkpt lat="49.32316" lon="-0.5483">
        <ele>52</ele>
        <time>2026-03-24T13:17:34.000Z</time>
      </trkpt>
      <trkpt lat="49.32316" lon="-0.54832">
        <ele>52</ele>
        <time>2026-03-24T13:17:35.000Z</time>
      </trkpt>
      <trkpt lat="49.32316" lon="-0.54833">
        <ele>52</ele>
        <time>2026-03-24T13:17:36.000Z</time>
      </trkpt>
      <trkpt lat="49.32316" lon="-0.54835">
        <ele>52</ele>
        <time>2026-03-24T13:17:37.000Z</time>
      </trkpt>
      <trkpt lat="49.32317" lon="-0.54836">
        <ele>52</ele>
        <time>2026-03-24T13:17:38.000Z</time>
      </trkpt>
      <trkpt lat="49.32317" lon="-0.54837">
        <ele>52</ele>
        <time>2026-03-24T13:17:39.000Z</time>
      </trkpt>
      <trkpt lat="49.32318" lon="-0.54839">
        <ele>52</ele>
        <time>2026-03-24T13:17:40.000Z</time>
      </trkpt>
      <trkpt lat="49.32318" lon="-0.5484">
        <ele>52</ele>
        <time>2026-03-24T13:17:41.000Z</time>
      </trkpt>
      <trkpt lat="49.32319" lon="-0.54842">
        <ele>52</ele>
        <time>2026-03-24T13:17:42.000Z</time>
      </trkpt>
      <trkpt lat="49.32319" lon="-0.54844">
        <ele>52</ele>
        <time>2026-03-24T13:17:43.000Z</time>
      </trkpt>
      <trkpt lat="49.32319" lon="-0.54845">
        <ele>52</ele>
        <time>2026-03-24T13:17:44.000Z</time>
      </trkpt>
      <trkpt lat="49.3232" lon="-0.54846">
        <ele>52.200000762939</ele>
        <time>2026-03-24T13:17:45.000Z</time>
      </trkpt>
      <trkpt lat="49.3232" lon="-0.54848">
        <ele>52.200000762939</ele>
        <time>2026-03-24T13:17:46.000Z</time>
      </trkpt>
      <trkpt lat="49.32321" lon="-0.54849">
        <ele>52.200000762939</ele>
        <time>2026-03-24T13:17:47.000Z</time>
      </trkpt>
      <trkpt lat="49.32322" lon="-0.5485">
        <ele>52.400001525879</ele>
        <time>2026-03-24T13:17:48.000Z</time>
      </trkpt>
      <trkpt lat="49.32322" lon="-0.54852">
        <ele>52.400001525879</ele>
        <time>2026-03-24T13:17:49.000Z</time>
      </trkpt>
      <trkpt lat="49.32323" lon="-0.54853">
        <ele>52.400001525879</ele>
        <time>2026-03-24T13:17:50.000Z</time>
      </trkpt>
      <trkpt lat="49.32323" lon="-0.54855">
        <ele>52.599998474121</ele>
        <time>2026-03-24T13:17:51.000Z</time>
      </trkpt>
      <trkpt lat="49.32324" lon="-0.54856">
        <ele>52.599998474121</ele>
        <time>2026-03-24T13:17:52.000Z</time>
      </trkpt>
      <trkpt lat="49.32324" lon="-0.54858">
        <ele>52.599998474121</ele>
        <time>2026-03-24T13:17:53.000Z</time>
      </trkpt>
      <trkpt lat="49.32324" lon="-0.5486">
        <ele>52.799999237061</ele>
        <time>2026-03-24T13:17:54.000Z</time>
      </trkpt>
      <trkpt lat="49.32325" lon="-0.54861">
        <ele>52.799999237061</ele>
        <time>2026-03-24T13:17:55.000Z</time>
      </trkpt>
      <trkpt lat="49.32325" lon="-0.54863">
        <ele>52.799999237061</ele>
        <time>2026-03-24T13:17:56.000Z</time>
      </trkpt>
      <trkpt lat="49.32326" lon="-0.54864">
        <ele>53</ele>
        <time>2026-03-24T13:17:57.000Z</time>
      </trkpt>
      <trkpt lat="49.32326" lon="-0.54865">
        <ele>52.799999237061</ele>
        <time>2026-03-24T13:17:58.000Z</time>
      </trkpt>
      <trkpt lat="49.32326" lon="-0.54867">
        <ele>52.799999237061</ele>
        <time>2026-03-24T13:17:59.000Z</time>
      </trkpt>
      <trkpt lat="49.32327" lon="-0.54868">
        <ele>52.799999237061</ele>
        <time>2026-03-24T13:18:00.000Z</time>
      </trkpt>
      <trkpt lat="49.32327" lon="-0.5487">
        <ele>52.799999237061</ele>
        <time>2026-03-24T13:18:01.000Z</time>
      </trkpt>
      <trkpt lat="49.32327" lon="-0.54871">
        <ele>52.599998474121</ele>
        <time>2026-03-24T13:18:02.000Z</time>
      </trkpt>
      <trkpt lat="49.32328" lon="-0.54873">
        <ele>52.599998474121</ele>
        <time>2026-03-24T13:18:03.000Z</time>
      </trkpt>
      <trkpt lat="49.32328" lon="-0.54874">
        <ele>52.599998474121</ele>
        <time>2026-03-24T13:18:04.000Z</time>
      </trkpt>
      <trkpt lat="49.32328" lon="-0.54876">
        <ele>52.599998474121</ele>
        <time>2026-03-24T13:18:05.000Z</time>
      </trkpt>
      <trkpt lat="49.32329" lon="-0.54877">
        <ele>52.400001525879</ele>
        <time>2026-03-24T13:18:06.000Z</time>
      </trkpt>
      <trkpt lat="49.32329" lon="-0.54878">
        <ele>52.400001525879</ele>
        <time>2026-03-24T13:18:07.000Z</time>
      </trkpt>
      <trkpt lat="49.3233" lon="-0.5488">
        <ele>52.400001525879</ele>
        <time>2026-03-24T13:18:08.000Z</time>
      </trkpt>
      <trkpt lat="49.32331" lon="-0.54881">
        <ele>52.200000762939</ele>
        <time>2026-03-24T13:18:09.000Z</time>
      </trkpt>
      <trkpt lat="49.32331" lon="-0.54883">
        <ele>52.200000762939</ele>
        <time>2026-03-24T13:18:10.000Z</time>
      </trkpt>
      <trkpt lat="49.32332" lon="-0.54884">
        <ele>52.200000762939</ele>
        <time>2026-03-24T13:18:11.000Z</time>
      </trkpt>
      <trkpt lat="49.32332" lon="-0.54886">
        <ele>52</ele>
        <time>2026-03-24T13:18:12.000Z</time>
      </trkpt>
      <trkpt lat="49.32332" lon="-0.54888">
        <ele>52</ele>
        <time>2026-03-24T13:18:13.000Z</time>
      </trkpt>
      <trkpt lat="49.32333" lon="-0.54889">
        <ele>52</ele>
        <time>2026-03-24T13:18:14.000Z</time>
      </trkpt>
      <trkpt lat="49.32333" lon="-0.54891">
        <ele>52</ele>
        <time>2026-03-24T13:18:15.000Z</time>
      </trkpt>
      <trkpt lat="49.32333" lon="-0.54893">
        <ele>52</ele>
        <time>2026-03-24T13:18:16.000Z</time>
      </trkpt>
      <trkpt lat="49.32334" lon="-0.54894">
        <ele>52</ele>
        <time>2026-03-24T13:18:17.000Z</time>
      </trkpt>
      <trkpt lat="49.32334" lon="-0.54896">
        <ele>52</ele>
        <time>2026-03-24T13:18:18.000Z</time>
      </trkpt>
      <trkpt lat="49.32335" lon="-0.54897">
        <ele>52</ele>
        <time>2026-03-24T13:18:19.000Z</time>
      </trkpt>
      <trkpt lat="49.32335" lon="-0.54898">
        <ele>52</ele>
        <time>2026-03-24T13:18:20.000Z</time>
      </trkpt>
      <trkpt lat="49.32335" lon="-0.549">
        <ele>52</ele>
        <time>2026-03-24T13:18:21.000Z</time>
      </trkpt>
      <trkpt lat="49.32336" lon="-0.54901">
        <ele>52</ele>
        <time>2026-03-24T13:18:22.000Z</time>
      </trkpt>
      <trkpt lat="49.32336" lon="-0.54903">
        <ele>52</ele>
        <time>2026-03-24T13:18:23.000Z</time>
      </trkpt>
      <trkpt lat="49.32337" lon="-0.54904">
        <ele>52</ele>
        <time>2026-03-24T13:18:24.000Z</time>
      </trkpt>
      <trkpt lat="49.32337" lon="-0.54906">
        <ele>52</ele>
        <time>2026-03-24T13:18:25.000Z</time>
      </trkpt>
      <trkpt lat="49.32338" lon="-0.54907">
        <ele>52</ele>
        <time>2026-03-24T13:18:26.000Z</time>
      </trkpt>
      <trkpt lat="49.32338" lon="-0.54908">
        <ele>52</ele>
        <time>2026-03-24T13:18:27.000Z</time>
      </trkpt>
      <trkpt lat="49.32338" lon="-0.54909">
        <ele>52</ele>
        <time>2026-03-24T13:18:28.000Z</time>
      </trkpt>
      <trkpt lat="49.32339" lon="-0.5491">
        <ele>51.799999237061</ele>
        <time>2026-03-24T13:18:29.000Z</time>
      </trkpt>
      <trkpt lat="49.32339" lon="-0.54912">
        <ele>51.799999237061</ele>
        <time>2026-03-24T13:18:30.000Z</time>
      </trkpt>
      <trkpt lat="49.3234" lon="-0.54913">
        <ele>51.799999237061</ele>
        <time>2026-03-24T13:18:31.000Z</time>
      </trkpt>
      <trkpt lat="49.3234" lon="-0.54914">
        <ele>51.799999237061</ele>
        <time>2026-03-24T13:18:32.000Z</time>
      </trkpt>
      <trkpt lat="49.32341" lon="-0.54916">
        <ele>51.599998474121</ele>
        <time>2026-03-24T13:18:33.000Z</time>
      </trkpt>
      <trkpt lat="49.32341" lon="-0.54917">
        <ele>51.599998474121</ele>
        <time>2026-03-24T13:18:34.000Z</time>
      </trkpt>
      <trkpt lat="49.32341" lon="-0.54919">
        <ele>51.599998474121</ele>
        <time>2026-03-24T13:18:35.000Z</time>
      </trkpt>
      <trkpt lat="49.32342" lon="-0.5492">
        <ele>51.400001525879</ele>
        <time>2026-03-24T13:18:36.000Z</time>
      </trkpt>
      <trkpt lat="49.32342" lon="-0.54922">
        <ele>51.400001525879</ele>
        <time>2026-03-24T13:18:37.000Z</time>
      </trkpt>
      <trkpt lat="49.32342" lon="-0.54924">
        <ele>51.200000762939</ele>
        <time>2026-03-24T13:18:38.000Z</time>
      </trkpt>
      <trkpt lat="49.32343" lon="-0.54926">
        <ele>51.200000762939</ele>
        <time>2026-03-24T13:18:39.000Z</time>
      </trkpt>
      <trkpt lat="49.32343" lon="-0.54927">
        <ele>51.200000762939</ele>
        <time>2026-03-24T13:18:40.000Z</time>
      </trkpt>
      <trkpt lat="49.32343" lon="-0.54929">
        <ele>51</ele>
        <time>2026-03-24T13:18:41.000Z</time>
      </trkpt>
      <trkpt lat="49.32343" lon="-0.54931">
        <ele>51</ele>
        <time>2026-03-24T13:18:42.000Z</time>
      </trkpt>
      <trkpt lat="49.32344" lon="-0.54932">
        <ele>51</ele>
        <time>2026-03-24T13:18:43.000Z</time>
      </trkpt>
      <trkpt lat="49.32344" lon="-0.54933">
        <ele>51</ele>
        <time>2026-03-24T13:18:44.000Z</time>
      </trkpt>
      <trkpt lat="49.32344" lon="-0.54935">
        <ele>51</ele>
        <time>2026-03-24T13:18:45.000Z</time>
      </trkpt>
      <trkpt lat="49.32344" lon="-0.54936">
        <ele>51</ele>
        <time>2026-03-24T13:18:46.000Z</time>
      </trkpt>
      <trkpt lat="49.32345" lon="-0.54938">
        <ele>51</ele>
        <time>2026-03-24T13:18:47.000Z</time>
      </trkpt>
      <trkpt lat="49.32345" lon="-0.54939">
        <ele>51</ele>
        <time>2026-03-24T13:18:48.000Z</time>
      </trkpt>
      <trkpt lat="49.32346" lon="-0.54941">
        <ele>51</ele>
        <time>2026-03-24T13:18:49.000Z</time>
      </trkpt>
      <trkpt lat="49.32346" lon="-0.54943">
        <ele>51</ele>
        <time>2026-03-24T13:18:50.000Z</time>
      </trkpt>
      <trkpt lat="49.32346" lon="-0.54944">
        <ele>51</ele>
        <time>2026-03-24T13:18:51.000Z</time>
      </trkpt>
      <trkpt lat="49.32346" lon="-0.54946">
        <ele>51</ele>
        <time>2026-03-24T13:18:52.000Z</time>
      </trkpt>
      <trkpt lat="49.32347" lon="-0.54948">
        <ele>51</ele>
        <time>2026-03-24T13:18:53.000Z</time>
      </trkpt>
      <trkpt lat="49.32347" lon="-0.54949">
        <ele>51</ele>
        <time>2026-03-24T13:18:54.000Z</time>
      </trkpt>
      <trkpt lat="49.32347" lon="-0.5495">
        <ele>51</ele>
        <time>2026-03-24T13:18:55.000Z</time>
      </trkpt>
      <trkpt lat="49.32348" lon="-0.54952">
        <ele>51</ele>
        <time>2026-03-24T13:18:56.000Z</time>
      </trkpt>
      <trkpt lat="49.32348" lon="-0.54953">
        <ele>51</ele>
        <time>2026-03-24T13:18:57.000Z</time>
      </trkpt>
      <trkpt lat="49.32349" lon="-0.54955">
        <ele>51</ele>
        <time>2026-03-24T13:18:58.000Z</time>
      </trkpt>
      <trkpt lat="49.32349" lon="-0.54956">
        <ele>51.200000762939</ele>
        <time>2026-03-24T13:18:59.000Z</time>
      </trkpt>
      <trkpt lat="49.32349" lon="-0.54958">
        <ele>51.200000762939</ele>
        <time>2026-03-24T13:19:00.000Z</time>
      </trkpt>
      <trkpt lat="49.3235" lon="-0.5496">
        <ele>51.200000762939</ele>
        <time>2026-03-24T13:19:01.000Z</time>
      </trkpt>
      <trkpt lat="49.3235" lon="-0.54961">
        <ele>51.400001525879</ele>
        <time>2026-03-24T13:19:02.000Z</time>
      </trkpt>
      <trkpt lat="49.3235" lon="-0.54963">
        <ele>51.400001525879</ele>
        <time>2026-03-24T13:19:03.000Z</time>
      </trkpt>
      <trkpt lat="49.32351" lon="-0.54964">
        <ele>51.400001525879</ele>
        <time>2026-03-24T13:19:04.000Z</time>
      </trkpt>
      <trkpt lat="49.32351" lon="-0.54966">
        <ele>51.599998474121</ele>
        <time>2026-03-24T13:19:05.000Z</time>
      </trkpt>
      <trkpt lat="49.32352" lon="-0.54967">
        <ele>51.599998474121</ele>
        <time>2026-03-24T13:19:06.000Z</time>
      </trkpt>
      <trkpt lat="49.32352" lon="-0.54969">
        <ele>51.599998474121</ele>
        <time>2026-03-24T13:19:07.000Z</time>
      </trkpt>
      <trkpt lat="49.32353" lon="-0.54971">
        <ele>51.799999237061</ele>
        <time>2026-03-24T13:19:08.000Z</time>
      </trkpt>
      <trkpt lat="49.32353" lon="-0.54972">
        <ele>51.799999237061</ele>
        <time>2026-03-24T13:19:09.000Z</time>
      </trkpt>
      <trkpt lat="49.32354" lon="-0.54974">
        <ele>52</ele>
        <time>2026-03-24T13:19:10.000Z</time>
      </trkpt>
      <trkpt lat="49.32354" lon="-0.54976">
        <ele>52</ele>
        <time>2026-03-24T13:19:11.000Z</time>
      </trkpt>
      <trkpt lat="49.32355" lon="-0.54977">
        <ele>52</ele>
        <time>2026-03-24T13:19:12.000Z</time>
      </trkpt>
      <trkpt lat="49.32355" lon="-0.54979">
        <ele>52</ele>
        <time>2026-03-24T13:19:13.000Z</time>
      </trkpt>
      <trkpt lat="49.32356" lon="-0.54981">
        <ele>52</ele>
        <time>2026-03-24T13:19:14.000Z</time>
      </trkpt>
      <trkpt lat="49.32356" lon="-0.54983">
        <ele>52</ele>
        <time>2026-03-24T13:19:15.000Z</time>
      </trkpt>
      <trkpt lat="49.32357" lon="-0.54984">
        <ele>52</ele>
        <time>2026-03-24T13:19:16.000Z</time>
      </trkpt>
      <trkpt lat="49.32357" lon="-0.54986">
        <ele>52</ele>
        <time>2026-03-24T13:19:17.000Z</time>
      </trkpt>
      <trkpt lat="49.32358" lon="-0.54987">
        <ele>52</ele>
        <time>2026-03-24T13:19:18.000Z</time>
      </trkpt>
      <trkpt lat="49.32358" lon="-0.54988">
        <ele>52</ele>
        <time>2026-03-24T13:19:19.000Z</time>
      </trkpt>
      <trkpt lat="49.32359" lon="-0.5499">
        <ele>52</ele>
        <time>2026-03-24T13:19:20.000Z</time>
      </trkpt>
      <trkpt lat="49.32359" lon="-0.54992">
        <ele>52</ele>
        <time>2026-03-24T13:19:21.000Z</time>
      </trkpt>
      <trkpt lat="49.3236" lon="-0.54994">
        <ele>52</ele>
        <time>2026-03-24T13:19:22.000Z</time>
      </trkpt>
      <trkpt lat="49.3236" lon="-0.54995">
        <ele>52</ele>
        <time>2026-03-24T13:19:23.000Z</time>
      </trkpt>
      <trkpt lat="49.32361" lon="-0.54997">
        <ele>52</ele>
        <time>2026-03-24T13:19:24.000Z</time>
      </trkpt>
      <trkpt lat="49.32361" lon="-0.54998">
        <ele>52</ele>
        <time>2026-03-24T13:19:25.000Z</time>
      </trkpt>
      <trkpt lat="49.32361" lon="-0.55">
        <ele>52</ele>
        <time>2026-03-24T13:19:26.000Z</time>
      </trkpt>
      <trkpt lat="49.32362" lon="-0.55001">
        <ele>52</ele>
        <time>2026-03-24T13:19:27.000Z</time>
      </trkpt>
      <trkpt lat="49.32362" lon="-0.55003">
        <ele>52</ele>
        <time>2026-03-24T13:19:28.000Z</time>
      </trkpt>
      <trkpt lat="49.32363" lon="-0.55005">
        <ele>52.200000762939</ele>
        <time>2026-03-24T13:19:29.000Z</time>
      </trkpt>
      <trkpt lat="49.32363" lon="-0.55006">
        <ele>52.200000762939</ele>
        <time>2026-03-24T13:19:30.000Z</time>
      </trkpt>
      <trkpt lat="49.32363" lon="-0.55008">
        <ele>52.200000762939</ele>
        <time>2026-03-24T13:19:31.000Z</time>
      </trkpt>
      <trkpt lat="49.32364" lon="-0.5501">
        <ele>52.200000762939</ele>
        <time>2026-03-24T13:19:32.000Z</time>
      </trkpt>
      <trkpt lat="49.32364" lon="-0.55011">
        <ele>52.400001525879</ele>
        <time>2026-03-24T13:19:33.000Z</time>
      </trkpt>
      <trkpt lat="49.32364" lon="-0.55013">
        <ele>52.400001525879</ele>
        <time>2026-03-24T13:19:34.000Z</time>
      </trkpt>
      <trkpt lat="49.32365" lon="-0.55014">
        <ele>52.400001525879</ele>
        <time>2026-03-24T13:19:35.000Z</time>
      </trkpt>
      <trkpt lat="49.32366" lon="-0.55016">
        <ele>52.599998474121</ele>
        <time>2026-03-24T13:19:36.000Z</time>
      </trkpt>
      <trkpt lat="49.32366" lon="-0.55017">
        <ele>52.599998474121</ele>
        <time>2026-03-24T13:19:37.000Z</time>
      </trkpt>
      <trkpt lat="49.32366" lon="-0.55018">
        <ele>52.599998474121</ele>
        <time>2026-03-24T13:19:38.000Z</time>
      </trkpt>
      <trkpt lat="49.32367" lon="-0.5502">
        <ele>52.599998474121</ele>
        <time>2026-03-24T13:19:39.000Z</time>
      </trkpt>
      <trkpt lat="49.32367" lon="-0.55021">
        <ele>52.799999237061</ele>
        <time>2026-03-24T13:19:40.000Z</time>
      </trkpt>
      <trkpt lat="49.32368" lon="-0.55023">
        <ele>52.799999237061</ele>
        <time>2026-03-24T13:19:41.000Z</time>
      </trkpt>
      <trkpt lat="49.32368" lon="-0.55024">
        <ele>52.799999237061</ele>
        <time>2026-03-24T13:19:42.000Z</time>
      </trkpt>
      <trkpt lat="49.32368" lon="-0.55026">
        <ele>52.799999237061</ele>
        <time>2026-03-24T13:19:43.000Z</time>
      </trkpt>
      <trkpt lat="49.32368" lon="-0.55028">
        <ele>53</ele>
        <time>2026-03-24T13:19:44.000Z</time>
      </trkpt>
      <trkpt lat="49.32369" lon="-0.55029">
        <ele>53</ele>
        <time>2026-03-24T13:19:45.000Z</time>
      </trkpt>
      <trkpt lat="49.32369" lon="-0.55029">
        <ele>53</ele>
        <time>2026-03-24T13:19:46.000Z</time>
      </trkpt>
      <trkpt lat="49.32369" lon="-0.5503">
        <ele>53</ele>
        <time>2026-03-24T13:19:47.000Z</time>
      </trkpt>
      <trkpt lat="49.3237" lon="-0.55032">
        <ele>53</ele>
        <time>2026-03-24T13:19:48.000Z</time>
      </trkpt>
      <trkpt lat="49.3237" lon="-0.55034">
        <ele>53</ele>
        <time>2026-03-24T13:19:49.000Z</time>
      </trkpt>
      <trkpt lat="49.32371" lon="-0.55035">
        <ele>53</ele>
        <time>2026-03-24T13:19:50.000Z</time>
      </trkpt>
      <trkpt lat="49.32371" lon="-0.55036">
        <ele>53</ele>
        <time>2026-03-24T13:19:51.000Z</time>
      </trkpt>
      <trkpt lat="49.32372" lon="-0.55038">
        <ele>53</ele>
        <time>2026-03-24T13:19:52.000Z</time>
      </trkpt>
      <trkpt lat="49.32373" lon="-0.5504">
        <ele>53</ele>
        <time>2026-03-24T13:19:53.000Z</time>
      </trkpt>
      <trkpt lat="49.32373" lon="-0.55041">
        <ele>53</ele>
        <time>2026-03-24T13:19:54.000Z</time>
      </trkpt>
      <trkpt lat="49.32374" lon="-0.55043">
        <ele>53</ele>
        <time>2026-03-24T13:19:55.000Z</time>
      </trkpt>
      <trkpt lat="49.32374" lon="-0.55045">
        <ele>53</ele>
        <time>2026-03-24T13:19:56.000Z</time>
      </trkpt>
      <trkpt lat="49.32374" lon="-0.55046">
        <ele>53</ele>
        <time>2026-03-24T13:19:57.000Z</time>
      </trkpt>
      <trkpt lat="49.32375" lon="-0.55048">
        <ele>53</ele>
        <time>2026-03-24T13:19:58.000Z</time>
      </trkpt>
      <trkpt lat="49.32375" lon="-0.55049">
        <ele>53</ele>
        <time>2026-03-24T13:19:59.000Z</time>
      </trkpt>
      <trkpt lat="49.32375" lon="-0.55051">
        <ele>53</ele>
        <time>2026-03-24T13:20:00.000Z</time>
      </trkpt>
      <trkpt lat="49.32376" lon="-0.55053">
        <ele>53</ele>
        <time>2026-03-24T13:20:01.000Z</time>
      </trkpt>
      <trkpt lat="49.32376" lon="-0.55055">
        <ele>53</ele>
        <time>2026-03-24T13:20:02.000Z</time>
      </trkpt>
      <trkpt lat="49.32377" lon="-0.55056">
        <ele>53</ele>
        <time>2026-03-24T13:20:03.000Z</time>
      </trkpt>
      <trkpt lat="49.32377" lon="-0.55058">
        <ele>53</ele>
        <time>2026-03-24T13:20:04.000Z</time>
      </trkpt>
      <trkpt lat="49.32378" lon="-0.5506">
        <ele>53.200000762939</ele>
        <time>2026-03-24T13:20:05.000Z</time>
      </trkpt>
      <trkpt lat="49.32378" lon="-0.55061">
        <ele>53.200000762939</ele>
        <time>2026-03-24T13:20:06.000Z</time>
      </trkpt>
      <trkpt lat="49.32379" lon="-0.55063">
        <ele>53.200000762939</ele>
        <time>2026-03-24T13:20:07.000Z</time>
      </trkpt>
      <trkpt lat="49.32379" lon="-0.55065">
        <ele>53.200000762939</ele>
        <time>2026-03-24T13:20:08.000Z</time>
      </trkpt>
      <trkpt lat="49.3238" lon="-0.55066">
        <ele>53.200000762939</ele>
        <time>2026-03-24T13:20:09.000Z</time>
      </trkpt>
      <trkpt lat="49.3238" lon="-0.55068">
        <ele>53.200000762939</ele>
        <time>2026-03-24T13:20:10.000Z</time>
      </trkpt>
      <trkpt lat="49.32381" lon="-0.5507">
        <ele>53.200000762939</ele>
        <time>2026-03-24T13:20:11.000Z</time>
      </trkpt>
      <trkpt lat="49.32381" lon="-0.55071">
        <ele>53</ele>
        <time>2026-03-24T13:20:12.000Z</time>
      </trkpt>
      <trkpt lat="49.32382" lon="-0.55072">
        <ele>53</ele>
        <time>2026-03-24T13:20:13.000Z</time>
      </trkpt>
      <trkpt lat="49.32383" lon="-0.55074">
        <ele>53</ele>
        <time>2026-03-24T13:20:14.000Z</time>
      </trkpt>
      <trkpt lat="49.32383" lon="-0.55076">
        <ele>53</ele>
        <time>2026-03-24T13:20:15.000Z</time>
      </trkpt>
      <trkpt lat="49.32383" lon="-0.55078">
        <ele>53</ele>
        <time>2026-03-24T13:20:16.000Z</time>
      </trkpt>
      <trkpt lat="49.32384" lon="-0.55079">
        <ele>53</ele>
        <time>2026-03-24T13:20:17.000Z</time>
      </trkpt>
      <trkpt lat="49.32384" lon="-0.55081">
        <ele>53</ele>
        <time>2026-03-24T13:20:18.000Z</time>
      </trkpt>
      <trkpt lat="49.32385" lon="-0.55083">
        <ele>53</ele>
        <time>2026-03-24T13:20:19.000Z</time>
      </trkpt>
      <trkpt lat="49.32385" lon="-0.55084">
        <ele>53</ele>
        <time>2026-03-24T13:20:20.000Z</time>
      </trkpt>
      <trkpt lat="49.32385" lon="-0.55085">
        <ele>53</ele>
        <time>2026-03-24T13:20:21.000Z</time>
      </trkpt>
      <trkpt lat="49.32386" lon="-0.55087">
        <ele>53</ele>
        <time>2026-03-24T13:20:22.000Z</time>
      </trkpt>
      <trkpt lat="49.32386" lon="-0.55088">
        <ele>53</ele>
        <time>2026-03-24T13:20:23.000Z</time>
      </trkpt>
      <trkpt lat="49.32386" lon="-0.5509">
        <ele>53</ele>
        <time>2026-03-24T13:20:24.000Z</time>
      </trkpt>
      <trkpt lat="49.32386" lon="-0.55092">
        <ele>53</ele>
        <time>2026-03-24T13:20:25.000Z</time>
      </trkpt>
      <trkpt lat="49.32387" lon="-0.55094">
        <ele>53</ele>
        <time>2026-03-24T13:20:26.000Z</time>
      </trkpt>
      <trkpt lat="49.32387" lon="-0.55095">
        <ele>53</ele>
        <time>2026-03-24T13:20:27.000Z</time>
      </trkpt>
      <trkpt lat="49.32388" lon="-0.55096">
        <ele>53</ele>
        <time>2026-03-24T13:20:28.000Z</time>
      </trkpt>
      <trkpt lat="49.32388" lon="-0.55098">
        <ele>53</ele>
        <time>2026-03-24T13:20:29.000Z</time>
      </trkpt>
      <trkpt lat="49.32389" lon="-0.55099">
        <ele>53</ele>
        <time>2026-03-24T13:20:30.000Z</time>
      </trkpt>
      <trkpt lat="49.32389" lon="-0.55101">
        <ele>53</ele>
        <time>2026-03-24T13:20:31.000Z</time>
      </trkpt>
      <trkpt lat="49.3239" lon="-0.55102">
        <ele>53</ele>
        <time>2026-03-24T13:20:32.000Z</time>
      </trkpt>
      <trkpt lat="49.3239" lon="-0.55104">
        <ele>53</ele>
        <time>2026-03-24T13:20:33.000Z</time>
      </trkpt>
      <trkpt lat="49.3239" lon="-0.55105">
        <ele>53</ele>
        <time>2026-03-24T13:20:34.000Z</time>
      </trkpt>
      <trkpt lat="49.32391" lon="-0.55107">
        <ele>53</ele>
        <time>2026-03-24T13:20:35.000Z</time>
      </trkpt>
      <trkpt lat="49.32391" lon="-0.55109">
        <ele>53</ele>
        <time>2026-03-24T13:20:36.000Z</time>
      </trkpt>
      <trkpt lat="49.32391" lon="-0.5511">
        <ele>53</ele>
        <time>2026-03-24T13:20:37.000Z</time>
      </trkpt>
      <trkpt lat="49.32391" lon="-0.55111">
        <ele>53</ele>
        <time>2026-03-24T13:20:38.000Z</time>
      </trkpt>
      <trkpt lat="49.32391" lon="-0.55113">
        <ele>53</ele>
        <time>2026-03-24T13:20:39.000Z</time>
      </trkpt>
      <trkpt lat="49.32391" lon="-0.55114">
        <ele>53</ele>
        <time>2026-03-24T13:20:40.000Z</time>
      </trkpt>
      <trkpt lat="49.32391" lon="-0.55115">
        <ele>53</ele>
        <time>2026-03-24T13:20:41.000Z</time>
      </trkpt>
      <trkpt lat="49.32392" lon="-0.55117">
        <ele>53</ele>
        <time>2026-03-24T13:20:42.000Z</time>
      </trkpt>
      <trkpt lat="49.32392" lon="-0.55118">
        <ele>53</ele>
        <time>2026-03-24T13:20:43.000Z</time>
      </trkpt>
      <trkpt lat="49.32392" lon="-0.5512">
        <ele>53</ele>
        <time>2026-03-24T13:20:44.000Z</time>
      </trkpt>
      <trkpt lat="49.32392" lon="-0.55121">
        <ele>53</ele>
        <time>2026-03-24T13:20:45.000Z</time>
      </trkpt>
      <trkpt lat="49.32392" lon="-0.55122">
        <ele>53</ele>
        <time>2026-03-24T13:20:46.000Z</time>
      </trkpt>
      <trkpt lat="49.32392" lon="-0.55123">
        <ele>53</ele>
        <time>2026-03-24T13:20:47.000Z</time>
      </trkpt>
      <trkpt lat="49.32392" lon="-0.55124">
        <ele>53</ele>
        <time>2026-03-24T13:20:48.000Z</time>
      </trkpt>
      <trkpt lat="49.32393" lon="-0.55125">
        <ele>53</ele>
        <time>2026-03-24T13:20:49.000Z</time>
      </trkpt>
      <trkpt lat="49.32393" lon="-0.55126">
        <ele>53</ele>
        <time>2026-03-24T13:20:50.000Z</time>
      </trkpt>
      <trkpt lat="49.32394" lon="-0.55127">
        <ele>53</ele>
        <time>2026-03-24T13:20:51.000Z</time>
      </trkpt>
      <trkpt lat="49.32394" lon="-0.55127">
        <ele>53</ele>
        <time>2026-03-24T13:20:52.000Z</time>
      </trkpt>
      <trkpt lat="49.32394" lon="-0.55127">
        <ele>53</ele>
        <time>2026-03-24T13:20:53.000Z</time>
      </trkpt>
      <trkpt lat="49.32395" lon="-0.55127">
        <ele>53</ele>
        <time>2026-03-24T13:20:54.000Z</time>
      </trkpt>
      <trkpt lat="49.32396" lon="-0.55127">
        <ele>53</ele>
        <time>2026-03-24T13:20:55.000Z</time>
      </trkpt>
      <trkpt lat="49.32396" lon="-0.55128">
        <ele>53</ele>
        <time>2026-03-24T13:20:56.000Z</time>
      </trkpt>
      <trkpt lat="49.32397" lon="-0.55128">
        <ele>53</ele>
        <time>2026-03-24T13:20:57.000Z</time>
      </trkpt>
      <trkpt lat="49.32397" lon="-0.55129">
        <ele>53</ele>
        <time>2026-03-24T13:20:58.000Z</time>
      </trkpt>
      <trkpt lat="49.32397" lon="-0.55129">
        <ele>53</ele>
        <time>2026-03-24T13:20:59.000Z</time>
      </trkpt>
      <trkpt lat="49.32397" lon="-0.55129">
        <ele>53</ele>
        <time>2026-03-24T13:21:00.000Z</time>
      </trkpt>
      <trkpt lat="49.32397" lon="-0.55129">
        <ele>53</ele>
        <time>2026-03-24T13:21:01.000Z</time>
      </trkpt>
      <trkpt lat="49.32397" lon="-0.55129">
        <ele>53</ele>
        <time>2026-03-24T13:21:02.000Z</time>
      </trkpt>
      <trkpt lat="49.32397" lon="-0.55129">
        <ele>53</ele>
        <time>2026-03-24T13:21:03.000Z</time>
      </trkpt>
      <trkpt lat="49.32397" lon="-0.55129">
        <ele>53</ele>
        <time>2026-03-24T13:21:04.000Z</time>
      </trkpt>
      <trkpt lat="49.32397" lon="-0.55129">
        <ele>53</ele>
        <time>2026-03-24T13:21:05.000Z</time>
      </trkpt>
      <trkpt lat="49.32397" lon="-0.55129">
        <ele>53</ele>
        <time>2026-03-24T13:21:06.000Z</time>
      </trkpt>
      <trkpt lat="49.32397" lon="-0.55129">
        <ele>53</ele>
        <time>2026-03-24T13:21:07.000Z</time>
      </trkpt>
      <trkpt lat="49.32397" lon="-0.55129">
        <ele>53</ele>
        <time>2026-03-24T13:21:08.000Z</time>
      </trkpt>
      <trkpt lat="49.32397" lon="-0.55129">
        <ele>53</ele>
        <time>2026-03-24T13:21:09.000Z</time>
      </trkpt>
      <trkpt lat="49.32397" lon="-0.55129">
        <ele>53</ele>
        <time>2026-03-24T13:21:10.000Z</time>
      </trkpt>
      <trkpt lat="49.32397" lon="-0.5513">
        <ele>53</ele>
        <time>2026-03-24T13:21:11.000Z</time>
      </trkpt>
      <trkpt lat="49.32397" lon="-0.55131">
        <ele>53</ele>
        <time>2026-03-24T13:21:12.000Z</time>
      </trkpt>
      <trkpt lat="49.32398" lon="-0.55128">
        <ele>53</ele>
        <time>2026-03-24T13:21:13.000Z</time>
      </trkpt>
      <trkpt lat="49.32399" lon="-0.55128">
        <ele>53</ele>
        <time>2026-03-24T13:21:14.000Z</time>
      </trkpt>
      <trkpt lat="49.32399" lon="-0.55128">
        <ele>53</ele>
        <time>2026-03-24T13:21:15.000Z</time>
      </trkpt>
      <trkpt lat="49.324" lon="-0.55126">
        <ele>53</ele>
        <time>2026-03-24T13:21:16.000Z</time>
      </trkpt>
      <trkpt lat="49.32401" lon="-0.55124">
        <ele>53</ele>
        <time>2026-03-24T13:21:17.000Z</time>
      </trkpt>
      <trkpt lat="49.32401" lon="-0.55124">
        <ele>53</ele>
        <time>2026-03-24T13:21:18.000Z</time>
      </trkpt>
      <trkpt lat="49.32401" lon="-0.55124">
        <ele>53</ele>
        <time>2026-03-24T13:21:19.000Z</time>
      </trkpt>
      <trkpt lat="49.32401" lon="-0.55125">
        <ele>53</ele>
        <time>2026-03-24T13:21:20.000Z</time>
      </trkpt>
      <trkpt lat="49.32402" lon="-0.55125">
        <ele>53</ele>
        <time>2026-03-24T13:21:21.000Z</time>
      </trkpt>
      <trkpt lat="49.32402" lon="-0.55124">
        <ele>53</ele>
        <time>2026-03-24T13:21:22.000Z</time>
      </trkpt>
      <trkpt lat="49.32403" lon="-0.55124">
        <ele>53</ele>
        <time>2026-03-24T13:21:23.000Z</time>
      </trkpt>
      <trkpt lat="49.32403" lon="-0.55124">
        <ele>53</ele>
        <time>2026-03-24T13:21:24.000Z</time>
      </trkpt>
      <trkpt lat="49.32403" lon="-0.55124">
        <ele>53</ele>
        <time>2026-03-24T13:21:25.000Z</time>
      </trkpt>
      <trkpt lat="49.32403" lon="-0.55124">
        <ele>53</ele>
        <time>2026-03-24T13:21:26.000Z</time>
      </trkpt>
      <trkpt lat="49.32403" lon="-0.55124">
        <ele>53</ele>
        <time>2026-03-24T13:21:27.000Z</time>
      </trkpt>
      <trkpt lat="49.32404" lon="-0.55124">
        <ele>53</ele>
        <time>2026-03-24T13:21:28.000Z</time>
      </trkpt>
      <trkpt lat="49.32404" lon="-0.55125">
        <ele>53</ele>
        <time>2026-03-24T13:21:29.000Z</time>
      </trkpt>
      <trkpt lat="49.32405" lon="-0.55125">
        <ele>53</ele>
        <time>2026-03-24T13:21:30.000Z</time>
      </trkpt>
      <trkpt lat="49.32406" lon="-0.55125">
        <ele>53</ele>
        <time>2026-03-24T13:21:31.000Z</time>
      </trkpt>
      <trkpt lat="49.32407" lon="-0.55125">
        <ele>53</ele>
        <time>2026-03-24T13:21:32.000Z</time>
      </trkpt>
      <trkpt lat="49.32407" lon="-0.55124">
        <ele>53</ele>
        <time>2026-03-24T13:21:33.000Z</time>
      </trkpt>
      <trkpt lat="49.32408" lon="-0.55123">
        <ele>53</ele>
        <time>2026-03-24T13:21:34.000Z</time>
      </trkpt>
      <trkpt lat="49.32409" lon="-0.55123">
        <ele>53</ele>
        <time>2026-03-24T13:21:35.000Z</time>
      </trkpt>
      <trkpt lat="49.3241" lon="-0.55122">
        <ele>53</ele>
        <time>2026-03-24T13:21:36.000Z</time>
      </trkpt>
      <trkpt lat="49.32411" lon="-0.55121">
        <ele>53</ele>
        <time>2026-03-24T13:21:37.000Z</time>
      </trkpt>
      <trkpt lat="49.32411" lon="-0.55121">
        <ele>53</ele>
        <time>2026-03-24T13:21:38.000Z</time>
      </trkpt>
      <trkpt lat="49.32412" lon="-0.5512">
        <ele>53</ele>
        <time>2026-03-24T13:21:39.000Z</time>
      </trkpt>
      <trkpt lat="49.32413" lon="-0.5512">
        <ele>53</ele>
        <time>2026-03-24T13:21:40.000Z</time>
      </trkpt>
      <trkpt lat="49.32414" lon="-0.55119">
        <ele>53</ele>
        <time>2026-03-24T13:21:41.000Z</time>
      </trkpt>
      <trkpt lat="49.32415" lon="-0.55118">
        <ele>53</ele>
        <time>2026-03-24T13:21:42.000Z</time>
      </trkpt>
      <trkpt lat="49.32416" lon="-0.55117">
        <ele>53</ele>
        <time>2026-03-24T13:21:43.000Z</time>
      </trkpt>
      <trkpt lat="49.32417" lon="-0.55117">
        <ele>53</ele>
        <time>2026-03-24T13:21:44.000Z</time>
      </trkpt>
      <trkpt lat="49.32418" lon="-0.55116">
        <ele>53</ele>
        <time>2026-03-24T13:21:45.000Z</time>
      </trkpt>
      <trkpt lat="49.32419" lon="-0.55115">
        <ele>53</ele>
        <time>2026-03-24T13:21:46.000Z</time>
      </trkpt>
      <trkpt lat="49.32419" lon="-0.55115">
        <ele>53</ele>
        <time>2026-03-24T13:21:47.000Z</time>
      </trkpt>
      <trkpt lat="49.3242" lon="-0.55114">
        <ele>53</ele>
        <time>2026-03-24T13:21:48.000Z</time>
      </trkpt>
      <trkpt lat="49.32421" lon="-0.55114">
        <ele>53</ele>
        <time>2026-03-24T13:21:49.000Z</time>
      </trkpt>
      <trkpt lat="49.32422" lon="-0.55113">
        <ele>53</ele>
        <time>2026-03-24T13:21:50.000Z</time>
      </trkpt>
      <trkpt lat="49.32423" lon="-0.55112">
        <ele>53</ele>
        <time>2026-03-24T13:21:51.000Z</time>
      </trkpt>
      <trkpt lat="49.32424" lon="-0.55111">
        <ele>53</ele>
        <time>2026-03-24T13:21:52.000Z</time>
      </trkpt>
      <trkpt lat="49.32425" lon="-0.5511">
        <ele>53</ele>
        <time>2026-03-24T13:21:53.000Z</time>
      </trkpt>
      <trkpt lat="49.32426" lon="-0.55109">
        <ele>53</ele>
        <time>2026-03-24T13:21:54.000Z</time>
      </trkpt>
      <trkpt lat="49.32427" lon="-0.55109">
        <ele>53</ele>
        <time>2026-03-24T13:21:55.000Z</time>
      </trkpt>
      <trkpt lat="49.32427" lon="-0.55108">
        <ele>53</ele>
        <time>2026-03-24T13:21:56.000Z</time>
      </trkpt>
      <trkpt lat="49.32428" lon="-0.55108">
        <ele>53</ele>
        <time>2026-03-24T13:21:57.000Z</time>
      </trkpt>
      <trkpt lat="49.32429" lon="-0.55108">
        <ele>53</ele>
        <time>2026-03-24T13:21:58.000Z</time>
      </trkpt>
      <trkpt lat="49.3243" lon="-0.55107">
        <ele>53</ele>
        <time>2026-03-24T13:21:59.000Z</time>
      </trkpt>
      <trkpt lat="49.32431" lon="-0.55107">
        <ele>53</ele>
        <time>2026-03-24T13:22:00.000Z</time>
      </trkpt>
      <trkpt lat="49.32432" lon="-0.55106">
        <ele>53</ele>
        <time>2026-03-24T13:22:01.000Z</time>
      </trkpt>
      <trkpt lat="49.32433" lon="-0.55106">
        <ele>53</ele>
        <time>2026-03-24T13:22:02.000Z</time>
      </trkpt>
      <trkpt lat="49.32433" lon="-0.55105">
        <ele>53</ele>
        <time>2026-03-24T13:22:03.000Z</time>
      </trkpt>
      <trkpt lat="49.32434" lon="-0.55105">
        <ele>53</ele>
        <time>2026-03-24T13:22:04.000Z</time>
      </trkpt>
      <trkpt lat="49.32435" lon="-0.55104">
        <ele>53</ele>
        <time>2026-03-24T13:22:05.000Z</time>
      </trkpt>
      <trkpt lat="49.32436" lon="-0.55103">
        <ele>53</ele>
        <time>2026-03-24T13:22:06.000Z</time>
      </trkpt>
      <trkpt lat="49.32437" lon="-0.55102">
        <ele>53</ele>
        <time>2026-03-24T13:22:07.000Z</time>
      </trkpt>
      <trkpt lat="49.32438" lon="-0.55101">
        <ele>53</ele>
        <time>2026-03-24T13:22:08.000Z</time>
      </trkpt>
      <trkpt lat="49.32439" lon="-0.55101">
        <ele>53</ele>
        <time>2026-03-24T13:22:09.000Z</time>
      </trkpt>
      <trkpt lat="49.3244" lon="-0.551">
        <ele>53</ele>
        <time>2026-03-24T13:22:10.000Z</time>
      </trkpt>
      <trkpt lat="49.32441" lon="-0.55099">
        <ele>53</ele>
        <time>2026-03-24T13:22:11.000Z</time>
      </trkpt>
      <trkpt lat="49.32442" lon="-0.55099">
        <ele>53</ele>
        <time>2026-03-24T13:22:12.000Z</time>
      </trkpt>
      <trkpt lat="49.32443" lon="-0.55098">
        <ele>53</ele>
        <time>2026-03-24T13:22:13.000Z</time>
      </trkpt>
      <trkpt lat="49.32443" lon="-0.55097">
        <ele>53</ele>
        <time>2026-03-24T13:22:14.000Z</time>
      </trkpt>
      <trkpt lat="49.32444" lon="-0.55097">
        <ele>53</ele>
        <time>2026-03-24T13:22:15.000Z</time>
      </trkpt>
      <trkpt lat="49.32445" lon="-0.55096">
        <ele>53</ele>
        <time>2026-03-24T13:22:16.000Z</time>
      </trkpt>
      <trkpt lat="49.32447" lon="-0.55096">
        <ele>53</ele>
        <time>2026-03-24T13:22:17.000Z</time>
      </trkpt>
      <trkpt lat="49.32448" lon="-0.55095">
        <ele>53</ele>
        <time>2026-03-24T13:22:18.000Z</time>
      </trkpt>
      <trkpt lat="49.32449" lon="-0.55095">
        <ele>53</ele>
        <time>2026-03-24T13:22:19.000Z</time>
      </trkpt>
      <trkpt lat="49.3245" lon="-0.55094">
        <ele>53</ele>
        <time>2026-03-24T13:22:20.000Z</time>
      </trkpt>
      <trkpt lat="49.32451" lon="-0.55093">
        <ele>53</ele>
        <time>2026-03-24T13:22:21.000Z</time>
      </trkpt>
      <trkpt lat="49.32452" lon="-0.55092">
        <ele>53</ele>
        <time>2026-03-24T13:22:22.000Z</time>
      </trkpt>
      <trkpt lat="49.32453" lon="-0.55092">
        <ele>53</ele>
        <time>2026-03-24T13:22:23.000Z</time>
      </trkpt>
      <trkpt lat="49.32454" lon="-0.55091">
        <ele>53</ele>
        <time>2026-03-24T13:22:24.000Z</time>
      </trkpt>
      <trkpt lat="49.32455" lon="-0.5509">
        <ele>53</ele>
        <time>2026-03-24T13:22:25.000Z</time>
      </trkpt>
      <trkpt lat="49.32455" lon="-0.55089">
        <ele>53</ele>
        <time>2026-03-24T13:22:26.000Z</time>
      </trkpt>
      <trkpt lat="49.32456" lon="-0.55088">
        <ele>53</ele>
        <time>2026-03-24T13:22:27.000Z</time>
      </trkpt>
      <trkpt lat="49.32457" lon="-0.55088">
        <ele>53</ele>
        <time>2026-03-24T13:22:28.000Z</time>
      </trkpt>
      <trkpt lat="49.32458" lon="-0.55087">
        <ele>53</ele>
        <time>2026-03-24T13:22:29.000Z</time>
      </trkpt>
      <trkpt lat="49.32459" lon="-0.55086">
        <ele>53</ele>
        <time>2026-03-24T13:22:30.000Z</time>
      </trkpt>
      <trkpt lat="49.3246" lon="-0.55085">
        <ele>53</ele>
        <time>2026-03-24T13:22:31.000Z</time>
      </trkpt>
      <trkpt lat="49.32461" lon="-0.55084">
        <ele>53</ele>
        <time>2026-03-24T13:22:32.000Z</time>
      </trkpt>
      <trkpt lat="49.32462" lon="-0.55083">
        <ele>53</ele>
        <time>2026-03-24T13:22:33.000Z</time>
      </trkpt>
      <trkpt lat="49.32463" lon="-0.55083">
        <ele>53</ele>
        <time>2026-03-24T13:22:34.000Z</time>
      </trkpt>
      <trkpt lat="49.32464" lon="-0.55082">
        <ele>52.799999237061</ele>
        <time>2026-03-24T13:22:35.000Z</time>
      </trkpt>
      <trkpt lat="49.32465" lon="-0.55081">
        <ele>52.799999237061</ele>
        <time>2026-03-24T13:22:36.000Z</time>
      </trkpt>
      <trkpt lat="49.32466" lon="-0.5508">
        <ele>52.799999237061</ele>
        <time>2026-03-24T13:22:37.000Z</time>
      </trkpt>
      <trkpt lat="49.32467" lon="-0.5508">
        <ele>52.799999237061</ele>
        <time>2026-03-24T13:22:38.000Z</time>
      </trkpt>
      <trkpt lat="49.32468" lon="-0.55079">
        <ele>52.799999237061</ele>
        <time>2026-03-24T13:22:39.000Z</time>
      </trkpt>
      <trkpt lat="49.3247" lon="-0.55078">
        <ele>52.799999237061</ele>
        <time>2026-03-24T13:22:40.000Z</time>
      </trkpt>
      <trkpt lat="49.32471" lon="-0.55077">
        <ele>52.799999237061</ele>
        <time>2026-03-24T13:22:41.000Z</time>
      </trkpt>
      <trkpt lat="49.32472" lon="-0.55077">
        <ele>52.799999237061</ele>
        <time>2026-03-24T13:22:42.000Z</time>
      </trkpt>
      <trkpt lat="49.32473" lon="-0.55076">
        <ele>52.599998474121</ele>
        <time>2026-03-24T13:22:43.000Z</time>
      </trkpt>
      <trkpt lat="49.32474" lon="-0.55075">
        <ele>52.599998474121</ele>
        <time>2026-03-24T13:22:44.000Z</time>
      </trkpt>
      <trkpt lat="49.32475" lon="-0.55074">
        <ele>52.599998474121</ele>
        <time>2026-03-24T13:22:45.000Z</time>
      </trkpt>
      <trkpt lat="49.32476" lon="-0.55073">
        <ele>52.599998474121</ele>
        <time>2026-03-24T13:22:46.000Z</time>
      </trkpt>
      <trkpt lat="49.32477" lon="-0.55073">
        <ele>52.599998474121</ele>
        <time>2026-03-24T13:22:47.000Z</time>
      </trkpt>
      <trkpt lat="49.32478" lon="-0.55072">
        <ele>52.599998474121</ele>
        <time>2026-03-24T13:22:48.000Z</time>
      </trkpt>
      <trkpt lat="49.32479" lon="-0.55071">
        <ele>52.599998474121</ele>
        <time>2026-03-24T13:22:49.000Z</time>
      </trkpt>
      <trkpt lat="49.3248" lon="-0.5507">
        <ele>52.400001525879</ele>
        <time>2026-03-24T13:22:50.000Z</time>
      </trkpt>
      <trkpt lat="49.3248" lon="-0.55069">
        <ele>52.400001525879</ele>
        <time>2026-03-24T13:22:51.000Z</time>
      </trkpt>
      <trkpt lat="49.32481" lon="-0.55069">
        <ele>52.400001525879</ele>
        <time>2026-03-24T13:22:52.000Z</time>
      </trkpt>
      <trkpt lat="49.32482" lon="-0.55068">
        <ele>52.400001525879</ele>
        <time>2026-03-24T13:22:53.000Z</time>
      </trkpt>
      <trkpt lat="49.32483" lon="-0.55067">
        <ele>52.400001525879</ele>
        <time>2026-03-24T13:22:54.000Z</time>
      </trkpt>
      <trkpt lat="49.32484" lon="-0.55067">
        <ele>52.400001525879</ele>
        <time>2026-03-24T13:22:55.000Z</time>
      </trkpt>
      <trkpt lat="49.32485" lon="-0.55066">
        <ele>52.400001525879</ele>
        <time>2026-03-24T13:22:56.000Z</time>
      </trkpt>
      <trkpt lat="49.32486" lon="-0.55065">
        <ele>52.200000762939</ele>
        <time>2026-03-24T13:22:57.000Z</time>
      </trkpt>
      <trkpt lat="49.32487" lon="-0.55064">
        <ele>52.200000762939</ele>
        <time>2026-03-24T13:22:58.000Z</time>
      </trkpt>
      <trkpt lat="49.32488" lon="-0.55064">
        <ele>52.200000762939</ele>
        <time>2026-03-24T13:22:59.000Z</time>
      </trkpt>
      <trkpt lat="49.32489" lon="-0.55063">
        <ele>52.200000762939</ele>
        <time>2026-03-24T13:23:00.000Z</time>
      </trkpt>
      <trkpt lat="49.3249" lon="-0.55062">
        <ele>52.200000762939</ele>
        <time>2026-03-24T13:23:01.000Z</time>
      </trkpt>
      <trkpt lat="49.32491" lon="-0.55062">
        <ele>52.200000762939</ele>
        <time>2026-03-24T13:23:02.000Z</time>
      </trkpt>
      <trkpt lat="49.32492" lon="-0.55061">
        <ele>52.200000762939</ele>
        <time>2026-03-24T13:23:03.000Z</time>
      </trkpt>
      <trkpt lat="49.32493" lon="-0.5506">
        <ele>52.200000762939</ele>
        <time>2026-03-24T13:23:04.000Z</time>
      </trkpt>
      <trkpt lat="49.32495" lon="-0.5506">
        <ele>52</ele>
        <time>2026-03-24T13:23:05.000Z</time>
      </trkpt>
      <trkpt lat="49.32496" lon="-0.55059">
        <ele>52</ele>
        <time>2026-03-24T13:23:06.000Z</time>
      </trkpt>
      <trkpt lat="49.32497" lon="-0.55059">
        <ele>52</ele>
        <time>2026-03-24T13:23:07.000Z</time>
      </trkpt>
      <trkpt lat="49.32498" lon="-0.55058">
        <ele>52</ele>
        <time>2026-03-24T13:23:08.000Z</time>
      </trkpt>
      <trkpt lat="49.32498" lon="-0.55057">
        <ele>52</ele>
        <time>2026-03-24T13:23:09.000Z</time>
      </trkpt>
      <trkpt lat="49.32499" lon="-0.55057">
        <ele>52</ele>
        <time>2026-03-24T13:23:10.000Z</time>
      </trkpt>
      <trkpt lat="49.32501" lon="-0.55056">
        <ele>52</ele>
        <time>2026-03-24T13:23:11.000Z</time>
      </trkpt>
      <trkpt lat="49.32502" lon="-0.55056">
        <ele>52</ele>
        <time>2026-03-24T13:23:12.000Z</time>
      </trkpt>
      <trkpt lat="49.32503" lon="-0.55055">
        <ele>52</ele>
        <time>2026-03-24T13:23:13.000Z</time>
      </trkpt>
      <trkpt lat="49.32504" lon="-0.55055">
        <ele>52</ele>
        <time>2026-03-24T13:23:14.000Z</time>
      </trkpt>
      <trkpt lat="49.32505" lon="-0.55054">
        <ele>52</ele>
        <time>2026-03-24T13:23:15.000Z</time>
      </trkpt>
      <trkpt lat="49.32506" lon="-0.55053">
        <ele>52</ele>
        <time>2026-03-24T13:23:16.000Z</time>
      </trkpt>
      <trkpt lat="49.32507" lon="-0.55052">
        <ele>52</ele>
        <time>2026-03-24T13:23:17.000Z</time>
      </trkpt>
      <trkpt lat="49.32508" lon="-0.55052">
        <ele>52</ele>
        <time>2026-03-24T13:23:18.000Z</time>
      </trkpt>
      <trkpt lat="49.32509" lon="-0.55051">
        <ele>52</ele>
        <time>2026-03-24T13:23:19.000Z</time>
      </trkpt>
      <trkpt lat="49.3251" lon="-0.5505">
        <ele>52</ele>
        <time>2026-03-24T13:23:20.000Z</time>
      </trkpt>
      <trkpt lat="49.32511" lon="-0.55049">
        <ele>52</ele>
        <time>2026-03-24T13:23:21.000Z</time>
      </trkpt>
      <trkpt lat="49.32512" lon="-0.55048">
        <ele>52</ele>
        <time>2026-03-24T13:23:22.000Z</time>
      </trkpt>
      <trkpt lat="49.32513" lon="-0.55047">
        <ele>52</ele>
        <time>2026-03-24T13:23:23.000Z</time>
      </trkpt>
      <trkpt lat="49.32514" lon="-0.55047">
        <ele>52</ele>
        <time>2026-03-24T13:23:24.000Z</time>
      </trkpt>
      <trkpt lat="49.32515" lon="-0.55046">
        <ele>52</ele>
        <time>2026-03-24T13:23:25.000Z</time>
      </trkpt>
      <trkpt lat="49.32516" lon="-0.55045">
        <ele>52</ele>
        <time>2026-03-24T13:23:26.000Z</time>
      </trkpt>
      <trkpt lat="49.32517" lon="-0.55045">
        <ele>52</ele>
        <time>2026-03-24T13:23:27.000Z</time>
      </trkpt>
      <trkpt lat="49.32518" lon="-0.55044">
        <ele>52</ele>
        <time>2026-03-24T13:23:28.000Z</time>
      </trkpt>
      <trkpt lat="49.32519" lon="-0.55043">
        <ele>52</ele>
        <time>2026-03-24T13:23:29.000Z</time>
      </trkpt>
      <trkpt lat="49.3252" lon="-0.55042">
        <ele>52</ele>
        <time>2026-03-24T13:23:30.000Z</time>
      </trkpt>
      <trkpt lat="49.32521" lon="-0.55041">
        <ele>52</ele>
        <time>2026-03-24T13:23:31.000Z</time>
      </trkpt>
      <trkpt lat="49.32522" lon="-0.55041">
        <ele>52</ele>
        <time>2026-03-24T13:23:32.000Z</time>
      </trkpt>
      <trkpt lat="49.32523" lon="-0.55041">
        <ele>52</ele>
        <time>2026-03-24T13:23:33.000Z</time>
      </trkpt>
      <trkpt lat="49.32524" lon="-0.5504">
        <ele>52</ele>
        <time>2026-03-24T13:23:34.000Z</time>
      </trkpt>
      <trkpt lat="49.32525" lon="-0.55039">
        <ele>52</ele>
        <time>2026-03-24T13:23:35.000Z</time>
      </trkpt>
      <trkpt lat="49.32525" lon="-0.55039">
        <ele>52</ele>
        <time>2026-03-24T13:23:36.000Z</time>
      </trkpt>
      <trkpt lat="49.32526" lon="-0.55038">
        <ele>52.200000762939</ele>
        <time>2026-03-24T13:23:37.000Z</time>
      </trkpt>
      <trkpt lat="49.32528" lon="-0.55037">
        <ele>52.200000762939</ele>
        <time>2026-03-24T13:23:38.000Z</time>
      </trkpt>
      <trkpt lat="49.32529" lon="-0.55036">
        <ele>52.200000762939</ele>
        <time>2026-03-24T13:23:39.000Z</time>
      </trkpt>
      <trkpt lat="49.3253" lon="-0.55035">
        <ele>52.200000762939</ele>
        <time>2026-03-24T13:23:40.000Z</time>
      </trkpt>
      <trkpt lat="49.32531" lon="-0.55035">
        <ele>52.200000762939</ele>
        <time>2026-03-24T13:23:41.000Z</time>
      </trkpt>
      <trkpt lat="49.32532" lon="-0.55034">
        <ele>52.400001525879</ele>
        <time>2026-03-24T13:23:42.000Z</time>
      </trkpt>
      <trkpt lat="49.32533" lon="-0.55033">
        <ele>52.400001525879</ele>
        <time>2026-03-24T13:23:43.000Z</time>
      </trkpt>
      <trkpt lat="49.32534" lon="-0.55033">
        <ele>52.400001525879</ele>
        <time>2026-03-24T13:23:44.000Z</time>
      </trkpt>
      <trkpt lat="49.32535" lon="-0.55032">
        <ele>52.400001525879</ele>
        <time>2026-03-24T13:23:45.000Z</time>
      </trkpt>
      <trkpt lat="49.32536" lon="-0.55031">
        <ele>52.400001525879</ele>
        <time>2026-03-24T13:23:46.000Z</time>
      </trkpt>
      <trkpt lat="49.32537" lon="-0.55031">
        <ele>52.599998474121</ele>
        <time>2026-03-24T13:23:47.000Z</time>
      </trkpt>
      <trkpt lat="49.32539" lon="-0.5503">
        <ele>52.599998474121</ele>
        <time>2026-03-24T13:23:48.000Z</time>
      </trkpt>
      <trkpt lat="49.3254" lon="-0.55029">
        <ele>52.599998474121</ele>
        <time>2026-03-24T13:23:49.000Z</time>
      </trkpt>
      <trkpt lat="49.32542" lon="-0.55028">
        <ele>52.599998474121</ele>
        <time>2026-03-24T13:23:50.000Z</time>
      </trkpt>
      <trkpt lat="49.32543" lon="-0.55027">
        <ele>52.799999237061</ele>
        <time>2026-03-24T13:23:51.000Z</time>
      </trkpt>
      <trkpt lat="49.32545" lon="-0.55026">
        <ele>52.799999237061</ele>
        <time>2026-03-24T13:23:52.000Z</time>
      </trkpt>
      <trkpt lat="49.32547" lon="-0.55025">
        <ele>52.799999237061</ele>
        <time>2026-03-24T13:23:53.000Z</time>
      </trkpt>
      <trkpt lat="49.32548" lon="-0.55024">
        <ele>53</ele>
        <time>2026-03-24T13:23:54.000Z</time>
      </trkpt>
      <trkpt lat="49.3255" lon="-0.55023">
        <ele>53</ele>
        <time>2026-03-24T13:23:55.000Z</time>
      </trkpt>
      <trkpt lat="49.32552" lon="-0.55023">
        <ele>53</ele>
        <time>2026-03-24T13:23:56.000Z</time>
      </trkpt>
      <trkpt lat="49.32553" lon="-0.55022">
        <ele>53</ele>
        <time>2026-03-24T13:23:57.000Z</time>
      </trkpt>
      <trkpt lat="49.32554" lon="-0.55021">
        <ele>53.200000762939</ele>
        <time>2026-03-24T13:23:58.000Z</time>
      </trkpt>
      <trkpt lat="49.32555" lon="-0.55021">
        <ele>53.200000762939</ele>
        <time>2026-03-24T13:23:59.000Z</time>
      </trkpt>
      <trkpt lat="49.32555" lon="-0.55021">
        <ele>53.200000762939</ele>
        <time>2026-03-24T13:24:00.000Z</time>
      </trkpt>
      <trkpt lat="49.32556" lon="-0.55021">
        <ele>53.200000762939</ele>
        <time>2026-03-24T13:24:01.000Z</time>
      </trkpt>
      <trkpt lat="49.32557" lon="-0.5502">
        <ele>53.200000762939</ele>
        <time>2026-03-24T13:24:02.000Z</time>
      </trkpt>
      <trkpt lat="49.32558" lon="-0.55019">
        <ele>53.200000762939</ele>
        <time>2026-03-24T13:24:03.000Z</time>
      </trkpt>
      <trkpt lat="49.32559" lon="-0.55018">
        <ele>53.400001525879</ele>
        <time>2026-03-24T13:24:04.000Z</time>
      </trkpt>
      <trkpt lat="49.3256" lon="-0.55017">
        <ele>53.400001525879</ele>
        <time>2026-03-24T13:24:05.000Z</time>
      </trkpt>
      <trkpt lat="49.32561" lon="-0.55017">
        <ele>53.400001525879</ele>
        <time>2026-03-24T13:24:06.000Z</time>
      </trkpt>
      <trkpt lat="49.32562" lon="-0.55016">
        <ele>53.400001525879</ele>
        <time>2026-03-24T13:24:07.000Z</time>
      </trkpt>
      <trkpt lat="49.32563" lon="-0.55015">
        <ele>53.400001525879</ele>
        <time>2026-03-24T13:24:08.000Z</time>
      </trkpt>
      <trkpt lat="49.32564" lon="-0.55014">
        <ele>53.400001525879</ele>
        <time>2026-03-24T13:24:09.000Z</time>
      </trkpt>
      <trkpt lat="49.32565" lon="-0.55014">
        <ele>53.599998474121</ele>
        <time>2026-03-24T13:24:10.000Z</time>
      </trkpt>
      <trkpt lat="49.32566" lon="-0.55013">
        <ele>53.599998474121</ele>
        <time>2026-03-24T13:24:11.000Z</time>
      </trkpt>
      <trkpt lat="49.32566" lon="-0.55013">
        <ele>53.599998474121</ele>
        <time>2026-03-24T13:24:12.000Z</time>
      </trkpt>
      <trkpt lat="49.32567" lon="-0.55012">
        <ele>53.599998474121</ele>
        <time>2026-03-24T13:24:13.000Z</time>
      </trkpt>
      <trkpt lat="49.32568" lon="-0.55011">
        <ele>53.599998474121</ele>
        <time>2026-03-24T13:24:14.000Z</time>
      </trkpt>
      <trkpt lat="49.32569" lon="-0.5501">
        <ele>53.599998474121</ele>
        <time>2026-03-24T13:24:15.000Z</time>
      </trkpt>
      <trkpt lat="49.3257" lon="-0.55009">
        <ele>53.799999237061</ele>
        <time>2026-03-24T13:24:16.000Z</time>
      </trkpt>
      <trkpt lat="49.32571" lon="-0.55009">
        <ele>53.799999237061</ele>
        <time>2026-03-24T13:24:17.000Z</time>
      </trkpt>
      <trkpt lat="49.32572" lon="-0.55008">
        <ele>53.799999237061</ele>
        <time>2026-03-24T13:24:18.000Z</time>
      </trkpt>
      <trkpt lat="49.32572" lon="-0.55008">
        <ele>53.799999237061</ele>
        <time>2026-03-24T13:24:19.000Z</time>
      </trkpt>
      <trkpt lat="49.32573" lon="-0.55007">
        <ele>53.799999237061</ele>
        <time>2026-03-24T13:24:20.000Z</time>
      </trkpt>
      <trkpt lat="49.32573" lon="-0.55007">
        <ele>53.799999237061</ele>
        <time>2026-03-24T13:24:21.000Z</time>
      </trkpt>
      <trkpt lat="49.32574" lon="-0.55006">
        <ele>53.799999237061</ele>
        <time>2026-03-24T13:24:22.000Z</time>
      </trkpt>
      <trkpt lat="49.32575" lon="-0.55006">
        <ele>53.799999237061</ele>
        <time>2026-03-24T13:24:23.000Z</time>
      </trkpt>
      <trkpt lat="49.32576" lon="-0.55006">
        <ele>54</ele>
        <time>2026-03-24T13:24:24.000Z</time>
      </trkpt>
      <trkpt lat="49.32577" lon="-0.55005">
        <ele>54</ele>
        <time>2026-03-24T13:24:25.000Z</time>
      </trkpt>
      <trkpt lat="49.32578" lon="-0.55004">
        <ele>54</ele>
        <time>2026-03-24T13:24:26.000Z</time>
      </trkpt>
      <trkpt lat="49.32579" lon="-0.55003">
        <ele>54</ele>
        <time>2026-03-24T13:24:27.000Z</time>
      </trkpt>
      <trkpt lat="49.3258" lon="-0.55002">
        <ele>54</ele>
        <time>2026-03-24T13:24:28.000Z</time>
      </trkpt>
      <trkpt lat="49.32582" lon="-0.55001">
        <ele>54</ele>
        <time>2026-03-24T13:24:29.000Z</time>
      </trkpt>
      <trkpt lat="49.32584" lon="-0.55">
        <ele>54</ele>
        <time>2026-03-24T13:24:30.000Z</time>
      </trkpt>
      <trkpt lat="49.32585" lon="-0.54999">
        <ele>54</ele>
        <time>2026-03-24T13:24:31.000Z</time>
      </trkpt>
      <trkpt lat="49.32586" lon="-0.54998">
        <ele>54</ele>
        <time>2026-03-24T13:24:32.000Z</time>
      </trkpt>
      <trkpt lat="49.32587" lon="-0.54997">
        <ele>54</ele>
        <time>2026-03-24T13:24:33.000Z</time>
      </trkpt>
      <trkpt lat="49.32588" lon="-0.54996">
        <ele>54</ele>
        <time>2026-03-24T13:24:34.000Z</time>
      </trkpt>
      <trkpt lat="49.32589" lon="-0.54995">
        <ele>54</ele>
        <time>2026-03-24T13:24:35.000Z</time>
      </trkpt>
      <trkpt lat="49.3259" lon="-0.54995">
        <ele>54</ele>
        <time>2026-03-24T13:24:36.000Z</time>
      </trkpt>
      <trkpt lat="49.3259" lon="-0.54994">
        <ele>54</ele>
        <time>2026-03-24T13:24:37.000Z</time>
      </trkpt>
      <trkpt lat="49.32592" lon="-0.54993">
        <ele>54</ele>
        <time>2026-03-24T13:24:38.000Z</time>
      </trkpt>
      <trkpt lat="49.32593" lon="-0.54992">
        <ele>54</ele>
        <time>2026-03-24T13:24:39.000Z</time>
      </trkpt>
      <trkpt lat="49.32594" lon="-0.54992">
        <ele>54</ele>
        <time>2026-03-24T13:24:40.000Z</time>
      </trkpt>
      <trkpt lat="49.32595" lon="-0.54992">
        <ele>54</ele>
        <time>2026-03-24T13:24:41.000Z</time>
      </trkpt>
      <trkpt lat="49.32596" lon="-0.54991">
        <ele>54</ele>
        <time>2026-03-24T13:24:42.000Z</time>
      </trkpt>
      <trkpt lat="49.32597" lon="-0.54991">
        <ele>54</ele>
        <time>2026-03-24T13:24:43.000Z</time>
      </trkpt>
      <trkpt lat="49.32597" lon="-0.54991">
        <ele>54</ele>
        <time>2026-03-24T13:24:44.000Z</time>
      </trkpt>
      <trkpt lat="49.32598" lon="-0.5499">
        <ele>54</ele>
        <time>2026-03-24T13:24:45.000Z</time>
      </trkpt>
      <trkpt lat="49.32599" lon="-0.5499">
        <ele>54</ele>
        <time>2026-03-24T13:24:46.000Z</time>
      </trkpt>
      <trkpt lat="49.326" lon="-0.54989">
        <ele>54</ele>
        <time>2026-03-24T13:24:47.000Z</time>
      </trkpt>
      <trkpt lat="49.32602" lon="-0.54988">
        <ele>54</ele>
        <time>2026-03-24T13:24:48.000Z</time>
      </trkpt>
      <trkpt lat="49.32604" lon="-0.54986">
        <ele>54</ele>
        <time>2026-03-24T13:24:49.000Z</time>
      </trkpt>
      <trkpt lat="49.32604" lon="-0.54986">
        <ele>54</ele>
        <time>2026-03-24T13:24:50.000Z</time>
      </trkpt>
      <trkpt lat="49.32605" lon="-0.54985">
        <ele>54</ele>
        <time>2026-03-24T13:24:51.000Z</time>
      </trkpt>
      <trkpt lat="49.32606" lon="-0.54985">
        <ele>54</ele>
        <time>2026-03-24T13:24:52.000Z</time>
      </trkpt>
      <trkpt lat="49.32607" lon="-0.54984">
        <ele>54</ele>
        <time>2026-03-24T13:24:53.000Z</time>
      </trkpt>
      <trkpt lat="49.32607" lon="-0.54984">
        <ele>54</ele>
        <time>2026-03-24T13:24:54.000Z</time>
      </trkpt>
      <trkpt lat="49.32608" lon="-0.54983">
        <ele>54</ele>
        <time>2026-03-24T13:24:55.000Z</time>
      </trkpt>
      <trkpt lat="49.3261" lon="-0.54981">
        <ele>53.799999237061</ele>
        <time>2026-03-24T13:24:56.000Z</time>
      </trkpt>
      <trkpt lat="49.32611" lon="-0.54981">
        <ele>53.799999237061</ele>
        <time>2026-03-24T13:24:57.000Z</time>
      </trkpt>
      <trkpt lat="49.32612" lon="-0.5498">
        <ele>53.799999237061</ele>
        <time>2026-03-24T13:24:58.000Z</time>
      </trkpt>
      <trkpt lat="49.32613" lon="-0.54979">
        <ele>53.799999237061</ele>
        <time>2026-03-24T13:24:59.000Z</time>
      </trkpt>
      <trkpt lat="49.32614" lon="-0.54978">
        <ele>53.799999237061</ele>
        <time>2026-03-24T13:25:00.000Z</time>
      </trkpt>
      <trkpt lat="49.32615" lon="-0.54978">
        <ele>53.599998474121</ele>
        <time>2026-03-24T13:25:01.000Z</time>
      </trkpt>
      <trkpt lat="49.32616" lon="-0.54977">
        <ele>53.599998474121</ele>
        <time>2026-03-24T13:25:02.000Z</time>
      </trkpt>
      <trkpt lat="49.32616" lon="-0.54976">
        <ele>53.599998474121</ele>
        <time>2026-03-24T13:25:03.000Z</time>
      </trkpt>
      <trkpt lat="49.32617" lon="-0.54975">
        <ele>53.599998474121</ele>
        <time>2026-03-24T13:25:04.000Z</time>
      </trkpt>
      <trkpt lat="49.32618" lon="-0.54975">
        <ele>53.599998474121</ele>
        <time>2026-03-24T13:25:05.000Z</time>
      </trkpt>
      <trkpt lat="49.32619" lon="-0.54974">
        <ele>53.599998474121</ele>
        <time>2026-03-24T13:25:06.000Z</time>
      </trkpt>
      <trkpt lat="49.32619" lon="-0.54974">
        <ele>53.599998474121</ele>
        <time>2026-03-24T13:25:07.000Z</time>
      </trkpt>
      <trkpt lat="49.3262" lon="-0.54973">
        <ele>53.599998474121</ele>
        <time>2026-03-24T13:25:08.000Z</time>
      </trkpt>
      <trkpt lat="49.32621" lon="-0.54973">
        <ele>53.400001525879</ele>
        <time>2026-03-24T13:25:09.000Z</time>
      </trkpt>
      <trkpt lat="49.32622" lon="-0.54972">
        <ele>53.400001525879</ele>
        <time>2026-03-24T13:25:10.000Z</time>
      </trkpt>
      <trkpt lat="49.32623" lon="-0.54971">
        <ele>53.400001525879</ele>
        <time>2026-03-24T13:25:11.000Z</time>
      </trkpt>
      <trkpt lat="49.32624" lon="-0.5497">
        <ele>53.400001525879</ele>
        <time>2026-03-24T13:25:12.000Z</time>
      </trkpt>
      <trkpt lat="49.32625" lon="-0.54969">
        <ele>53.400001525879</ele>
        <time>2026-03-24T13:25:13.000Z</time>
      </trkpt>
      <trkpt lat="49.32626" lon="-0.54968">
        <ele>53.200000762939</ele>
        <time>2026-03-24T13:25:14.000Z</time>
      </trkpt>
      <trkpt lat="49.32627" lon="-0.54968">
        <ele>53.200000762939</ele>
        <time>2026-03-24T13:25:15.000Z</time>
      </trkpt>
      <trkpt lat="49.32628" lon="-0.54967">
        <ele>53.200000762939</ele>
        <time>2026-03-24T13:25:16.000Z</time>
      </trkpt>
      <trkpt lat="49.32629" lon="-0.54966">
        <ele>53.200000762939</ele>
        <time>2026-03-24T13:25:17.000Z</time>
      </trkpt>
      <trkpt lat="49.3263" lon="-0.54966">
        <ele>53.200000762939</ele>
        <time>2026-03-24T13:25:18.000Z</time>
      </trkpt>
      <trkpt lat="49.32631" lon="-0.54966">
        <ele>53.200000762939</ele>
        <time>2026-03-24T13:25:19.000Z</time>
      </trkpt>
      <trkpt lat="49.32632" lon="-0.54965">
        <ele>53</ele>
        <time>2026-03-24T13:25:20.000Z</time>
      </trkpt>
      <trkpt lat="49.32633" lon="-0.54964">
        <ele>53</ele>
        <time>2026-03-24T13:25:21.000Z</time>
      </trkpt>
      <trkpt lat="49.32634" lon="-0.54964">
        <ele>53</ele>
        <time>2026-03-24T13:25:22.000Z</time>
      </trkpt>
      <trkpt lat="49.32635" lon="-0.54963">
        <ele>53</ele>
        <time>2026-03-24T13:25:23.000Z</time>
      </trkpt>
      <trkpt lat="49.32636" lon="-0.54962">
        <ele>53</ele>
        <time>2026-03-24T13:25:24.000Z</time>
      </trkpt>
      <trkpt lat="49.32638" lon="-0.54961">
        <ele>53</ele>
        <time>2026-03-24T13:25:25.000Z</time>
      </trkpt>
      <trkpt lat="49.32639" lon="-0.54961">
        <ele>53</ele>
        <time>2026-03-24T13:25:26.000Z</time>
      </trkpt>
      <trkpt lat="49.3264" lon="-0.5496">
        <ele>53</ele>
        <time>2026-03-24T13:25:27.000Z</time>
      </trkpt>
      <trkpt lat="49.32641" lon="-0.54959">
        <ele>53</ele>
        <time>2026-03-24T13:25:28.000Z</time>
      </trkpt>
      <trkpt lat="49.32642" lon="-0.54958">
        <ele>53</ele>
        <time>2026-03-24T13:25:29.000Z</time>
      </trkpt>
      <trkpt lat="49.32643" lon="-0.54957">
        <ele>53</ele>
        <time>2026-03-24T13:25:30.000Z</time>
      </trkpt>
      <trkpt lat="49.32644" lon="-0.54956">
        <ele>53</ele>
        <time>2026-03-24T13:25:31.000Z</time>
      </trkpt>
      <trkpt lat="49.32645" lon="-0.54955">
        <ele>53</ele>
        <time>2026-03-24T13:25:32.000Z</time>
      </trkpt>
      <trkpt lat="49.32646" lon="-0.54954">
        <ele>53</ele>
        <time>2026-03-24T13:25:33.000Z</time>
      </trkpt>
      <trkpt lat="49.32647" lon="-0.54953">
        <ele>53</ele>
        <time>2026-03-24T13:25:34.000Z</time>
      </trkpt>
      <trkpt lat="49.32648" lon="-0.54952">
        <ele>53</ele>
        <time>2026-03-24T13:25:35.000Z</time>
      </trkpt>
      <trkpt lat="49.32649" lon="-0.54952">
        <ele>53</ele>
        <time>2026-03-24T13:25:36.000Z</time>
      </trkpt>
      <trkpt lat="49.3265" lon="-0.54951">
        <ele>53</ele>
        <time>2026-03-24T13:25:37.000Z</time>
      </trkpt>
      <trkpt lat="49.32651" lon="-0.54951">
        <ele>53</ele>
        <time>2026-03-24T13:25:38.000Z</time>
      </trkpt>
      <trkpt lat="49.32651" lon="-0.5495">
        <ele>53</ele>
        <time>2026-03-24T13:25:39.000Z</time>
      </trkpt>
      <trkpt lat="49.32652" lon="-0.54951">
        <ele>53</ele>
        <time>2026-03-24T13:25:40.000Z</time>
      </trkpt>
      <trkpt lat="49.32653" lon="-0.54951">
        <ele>53</ele>
        <time>2026-03-24T13:25:41.000Z</time>
      </trkpt>
      <trkpt lat="49.32654" lon="-0.54951">
        <ele>53</ele>
        <time>2026-03-24T13:25:42.000Z</time>
      </trkpt>
      <trkpt lat="49.32655" lon="-0.54951">
        <ele>53</ele>
        <time>2026-03-24T13:25:43.000Z</time>
      </trkpt>
      <trkpt lat="49.32656" lon="-0.5495">
        <ele>53</ele>
        <time>2026-03-24T13:25:44.000Z</time>
      </trkpt>
      <trkpt lat="49.32656" lon="-0.54951">
        <ele>53</ele>
        <time>2026-03-24T13:25:45.000Z</time>
      </trkpt>
      <trkpt lat="49.32657" lon="-0.5495">
        <ele>53</ele>
        <time>2026-03-24T13:25:46.000Z</time>
      </trkpt>
      <trkpt lat="49.32658" lon="-0.5495">
        <ele>53</ele>
        <time>2026-03-24T13:25:47.000Z</time>
      </trkpt>
      <trkpt lat="49.32659" lon="-0.5495">
        <ele>53</ele>
        <time>2026-03-24T13:25:48.000Z</time>
      </trkpt>
      <trkpt lat="49.3266" lon="-0.54949">
        <ele>53</ele>
        <time>2026-03-24T13:25:49.000Z</time>
      </trkpt>
      <trkpt lat="49.3266" lon="-0.54949">
        <ele>53</ele>
        <time>2026-03-24T13:25:50.000Z</time>
      </trkpt>
      <trkpt lat="49.32662" lon="-0.54948">
        <ele>53</ele>
        <time>2026-03-24T13:25:51.000Z</time>
      </trkpt>
      <trkpt lat="49.32663" lon="-0.54947">
        <ele>53</ele>
        <time>2026-03-24T13:25:52.000Z</time>
      </trkpt>
      <trkpt lat="49.32663" lon="-0.54946">
        <ele>53</ele>
        <time>2026-03-24T13:25:53.000Z</time>
      </trkpt>
      <trkpt lat="49.32665" lon="-0.54945">
        <ele>53</ele>
        <time>2026-03-24T13:25:54.000Z</time>
      </trkpt>
      <trkpt lat="49.32665" lon="-0.54944">
        <ele>53.200000762939</ele>
        <time>2026-03-24T13:25:55.000Z</time>
      </trkpt>
      <trkpt lat="49.32667" lon="-0.54943">
        <ele>53.200000762939</ele>
        <time>2026-03-24T13:25:56.000Z</time>
      </trkpt>
      <trkpt lat="49.32667" lon="-0.54943">
        <ele>53.200000762939</ele>
        <time>2026-03-24T13:25:57.000Z</time>
      </trkpt>
      <trkpt lat="49.32668" lon="-0.54943">
        <ele>53.200000762939</ele>
        <time>2026-03-24T13:25:58.000Z</time>
      </trkpt>
      <trkpt lat="49.32669" lon="-0.54942">
        <ele>53.200000762939</ele>
        <time>2026-03-24T13:25:59.000Z</time>
      </trkpt>
      <trkpt lat="49.3267" lon="-0.54942">
        <ele>53.200000762939</ele>
        <time>2026-03-24T13:26:00.000Z</time>
      </trkpt>
      <trkpt lat="49.3267" lon="-0.54941">
        <ele>53.400001525879</ele>
        <time>2026-03-24T13:26:01.000Z</time>
      </trkpt>
      <trkpt lat="49.32671" lon="-0.5494">
        <ele>53.400001525879</ele>
        <time>2026-03-24T13:26:02.000Z</time>
      </trkpt>
      <trkpt lat="49.32672" lon="-0.54939">
        <ele>53.400001525879</ele>
        <time>2026-03-24T13:26:03.000Z</time>
      </trkpt>
      <trkpt lat="49.32674" lon="-0.54938">
        <ele>53.400001525879</ele>
        <time>2026-03-24T13:26:04.000Z</time>
      </trkpt>
      <trkpt lat="49.32674" lon="-0.54937">
        <ele>53.400001525879</ele>
        <time>2026-03-24T13:26:05.000Z</time>
      </trkpt>
      <trkpt lat="49.32676" lon="-0.54936">
        <ele>53.400001525879</ele>
        <time>2026-03-24T13:26:06.000Z</time>
      </trkpt>
      <trkpt lat="49.32677" lon="-0.54935">
        <ele>53.599998474121</ele>
        <time>2026-03-24T13:26:07.000Z</time>
      </trkpt>
      <trkpt lat="49.32678" lon="-0.54935">
        <ele>53.599998474121</ele>
        <time>2026-03-24T13:26:08.000Z</time>
      </trkpt>
      <trkpt lat="49.32679" lon="-0.54934">
        <ele>53.599998474121</ele>
        <time>2026-03-24T13:26:09.000Z</time>
      </trkpt>
      <trkpt lat="49.3268" lon="-0.54934">
        <ele>53.599998474121</ele>
        <time>2026-03-24T13:26:10.000Z</time>
      </trkpt>
      <trkpt lat="49.32681" lon="-0.54933">
        <ele>53.599998474121</ele>
        <time>2026-03-24T13:26:11.000Z</time>
      </trkpt>
      <trkpt lat="49.32682" lon="-0.54932">
        <ele>53.799999237061</ele>
        <time>2026-03-24T13:26:12.000Z</time>
      </trkpt>
      <trkpt lat="49.32683" lon="-0.54931">
        <ele>53.799999237061</ele>
        <time>2026-03-24T13:26:13.000Z</time>
      </trkpt>
      <trkpt lat="49.32685" lon="-0.54929">
        <ele>53.799999237061</ele>
        <time>2026-03-24T13:26:14.000Z</time>
      </trkpt>
      <trkpt lat="49.32686" lon="-0.54928">
        <ele>53.799999237061</ele>
        <time>2026-03-24T13:26:15.000Z</time>
      </trkpt>
      <trkpt lat="49.32687" lon="-0.54926">
        <ele>54</ele>
        <time>2026-03-24T13:26:16.000Z</time>
      </trkpt>
      <trkpt lat="49.32689" lon="-0.54926">
        <ele>54</ele>
        <time>2026-03-24T13:26:17.000Z</time>
      </trkpt>
      <trkpt lat="49.3269" lon="-0.54925">
        <ele>54</ele>
        <time>2026-03-24T13:26:18.000Z</time>
      </trkpt>
      <trkpt lat="49.32691" lon="-0.54925">
        <ele>54</ele>
        <time>2026-03-24T13:26:19.000Z</time>
      </trkpt>
      <trkpt lat="49.32692" lon="-0.54924">
        <ele>54</ele>
        <time>2026-03-24T13:26:20.000Z</time>
      </trkpt>
      <trkpt lat="49.32693" lon="-0.54923">
        <ele>54</ele>
        <time>2026-03-24T13:26:21.000Z</time>
      </trkpt>
      <trkpt lat="49.32694" lon="-0.54922">
        <ele>54</ele>
        <time>2026-03-24T13:26:22.000Z</time>
      </trkpt>
      <trkpt lat="49.32695" lon="-0.54921">
        <ele>54</ele>
        <time>2026-03-24T13:26:23.000Z</time>
      </trkpt>
      <trkpt lat="49.32696" lon="-0.5492">
        <ele>54</ele>
        <time>2026-03-24T13:26:24.000Z</time>
      </trkpt>
      <trkpt lat="49.32697" lon="-0.54919">
        <ele>54</ele>
        <time>2026-03-24T13:26:25.000Z</time>
      </trkpt>
      <trkpt lat="49.32698" lon="-0.54918">
        <ele>54</ele>
        <time>2026-03-24T13:26:26.000Z</time>
      </trkpt>
      <trkpt lat="49.32698" lon="-0.54917">
        <ele>54</ele>
        <time>2026-03-24T13:26:27.000Z</time>
      </trkpt>
      <trkpt lat="49.32699" lon="-0.54917">
        <ele>54</ele>
        <time>2026-03-24T13:26:28.000Z</time>
      </trkpt>
      <trkpt lat="49.327" lon="-0.54916">
        <ele>54</ele>
        <time>2026-03-24T13:26:29.000Z</time>
      </trkpt>
      <trkpt lat="49.327" lon="-0.54915">
        <ele>54</ele>
        <time>2026-03-24T13:26:30.000Z</time>
      </trkpt>
      <trkpt lat="49.32701" lon="-0.54915">
        <ele>54</ele>
        <time>2026-03-24T13:26:31.000Z</time>
      </trkpt>
      <trkpt lat="49.32702" lon="-0.54914">
        <ele>54</ele>
        <time>2026-03-24T13:26:32.000Z</time>
      </trkpt>
      <trkpt lat="49.32703" lon="-0.54913">
        <ele>54</ele>
        <time>2026-03-24T13:26:33.000Z</time>
      </trkpt>
      <trkpt lat="49.32704" lon="-0.54913">
        <ele>54</ele>
        <time>2026-03-24T13:26:34.000Z</time>
      </trkpt>
      <trkpt lat="49.32705" lon="-0.54912">
        <ele>54</ele>
        <time>2026-03-24T13:26:35.000Z</time>
      </trkpt>
      <trkpt lat="49.32706" lon="-0.54912">
        <ele>54</ele>
        <time>2026-03-24T13:26:36.000Z</time>
      </trkpt>
      <trkpt lat="49.32707" lon="-0.54912">
        <ele>54</ele>
        <time>2026-03-24T13:26:37.000Z</time>
      </trkpt>
      <trkpt lat="49.32709" lon="-0.54909">
        <ele>54</ele>
        <time>2026-03-24T13:26:38.000Z</time>
      </trkpt>
      <trkpt lat="49.3271" lon="-0.54907">
        <ele>54</ele>
        <time>2026-03-24T13:26:39.000Z</time>
      </trkpt>
      <trkpt lat="49.3271" lon="-0.54907">
        <ele>54</ele>
        <time>2026-03-24T13:26:40.000Z</time>
      </trkpt>
      <trkpt lat="49.32711" lon="-0.54907">
        <ele>54</ele>
        <time>2026-03-24T13:26:41.000Z</time>
      </trkpt>
      <trkpt lat="49.32712" lon="-0.54907">
        <ele>54</ele>
        <time>2026-03-24T13:26:42.000Z</time>
      </trkpt>
      <trkpt lat="49.32713" lon="-0.54906">
        <ele>54</ele>
        <time>2026-03-24T13:26:43.000Z</time>
      </trkpt>
      <trkpt lat="49.32714" lon="-0.54906">
        <ele>54</ele>
        <time>2026-03-24T13:26:44.000Z</time>
      </trkpt>
      <trkpt lat="49.32715" lon="-0.54905">
        <ele>54</ele>
        <time>2026-03-24T13:26:45.000Z</time>
      </trkpt>
      <trkpt lat="49.32716" lon="-0.54905">
        <ele>54</ele>
        <time>2026-03-24T13:26:46.000Z</time>
      </trkpt>
      <trkpt lat="49.32717" lon="-0.54904">
        <ele>54</ele>
        <time>2026-03-24T13:26:47.000Z</time>
      </trkpt>
      <trkpt lat="49.32718" lon="-0.54904">
        <ele>54</ele>
        <time>2026-03-24T13:26:48.000Z</time>
      </trkpt>
      <trkpt lat="49.32719" lon="-0.54903">
        <ele>54</ele>
        <time>2026-03-24T13:26:49.000Z</time>
      </trkpt>
      <trkpt lat="49.32719" lon="-0.54902">
        <ele>54</ele>
        <time>2026-03-24T13:26:50.000Z</time>
      </trkpt>
      <trkpt lat="49.3272" lon="-0.54901">
        <ele>54</ele>
        <time>2026-03-24T13:26:51.000Z</time>
      </trkpt>
      <trkpt lat="49.32721" lon="-0.54901">
        <ele>54</ele>
        <time>2026-03-24T13:26:52.000Z</time>
      </trkpt>
      <trkpt lat="49.32722" lon="-0.549">
        <ele>54</ele>
        <time>2026-03-24T13:26:53.000Z</time>
      </trkpt>
      <trkpt lat="49.32723" lon="-0.549">
        <ele>54</ele>
        <time>2026-03-24T13:26:54.000Z</time>
      </trkpt>
      <trkpt lat="49.32724" lon="-0.54899">
        <ele>54</ele>
        <time>2026-03-24T13:26:55.000Z</time>
      </trkpt>
      <trkpt lat="49.32725" lon="-0.54898">
        <ele>54</ele>
        <time>2026-03-24T13:26:56.000Z</time>
      </trkpt>
      <trkpt lat="49.32726" lon="-0.54897">
        <ele>54</ele>
        <time>2026-03-24T13:26:57.000Z</time>
      </trkpt>
      <trkpt lat="49.32727" lon="-0.54896">
        <ele>54</ele>
        <time>2026-03-24T13:26:58.000Z</time>
      </trkpt>
      <trkpt lat="49.32728" lon="-0.54896">
        <ele>54</ele>
        <time>2026-03-24T13:26:59.000Z</time>
      </trkpt>
      <trkpt lat="49.3273" lon="-0.54895">
        <ele>54</ele>
        <time>2026-03-24T13:27:00.000Z</time>
      </trkpt>
      <trkpt lat="49.32731" lon="-0.54894">
        <ele>54</ele>
        <time>2026-03-24T13:27:01.000Z</time>
      </trkpt>
      <trkpt lat="49.32732" lon="-0.54894">
        <ele>54</ele>
        <time>2026-03-24T13:27:02.000Z</time>
      </trkpt>
      <trkpt lat="49.32733" lon="-0.54893">
        <ele>54</ele>
        <time>2026-03-24T13:27:03.000Z</time>
      </trkpt>
      <trkpt lat="49.32734" lon="-0.54892">
        <ele>54</ele>
        <time>2026-03-24T13:27:04.000Z</time>
      </trkpt>
      <trkpt lat="49.32735" lon="-0.54891">
        <ele>54</ele>
        <time>2026-03-24T13:27:05.000Z</time>
      </trkpt>
      <trkpt lat="49.32736" lon="-0.5489">
        <ele>54</ele>
        <time>2026-03-24T13:27:06.000Z</time>
      </trkpt>
      <trkpt lat="49.32737" lon="-0.54889">
        <ele>54</ele>
        <time>2026-03-24T13:27:07.000Z</time>
      </trkpt>
      <trkpt lat="49.32738" lon="-0.54889">
        <ele>54</ele>
        <time>2026-03-24T13:27:08.000Z</time>
      </trkpt>
      <trkpt lat="49.3274" lon="-0.54888">
        <ele>54</ele>
        <time>2026-03-24T13:27:09.000Z</time>
      </trkpt>
      <trkpt lat="49.32741" lon="-0.54887">
        <ele>54</ele>
        <time>2026-03-24T13:27:10.000Z</time>
      </trkpt>
      <trkpt lat="49.32742" lon="-0.54886">
        <ele>54</ele>
        <time>2026-03-24T13:27:11.000Z</time>
      </trkpt>
      <trkpt lat="49.32743" lon="-0.54886">
        <ele>54</ele>
        <time>2026-03-24T13:27:12.000Z</time>
      </trkpt>
      <trkpt lat="49.32744" lon="-0.54885">
        <ele>54</ele>
        <time>2026-03-24T13:27:13.000Z</time>
      </trkpt>
      <trkpt lat="49.32745" lon="-0.54884">
        <ele>54</ele>
        <time>2026-03-24T13:27:14.000Z</time>
      </trkpt>
      <trkpt lat="49.32745" lon="-0.54883">
        <ele>54</ele>
        <time>2026-03-24T13:27:15.000Z</time>
      </trkpt>
      <trkpt lat="49.32746" lon="-0.54882">
        <ele>54</ele>
        <time>2026-03-24T13:27:16.000Z</time>
      </trkpt>
      <trkpt lat="49.32747" lon="-0.54881">
        <ele>54</ele>
        <time>2026-03-24T13:27:17.000Z</time>
      </trkpt>
      <trkpt lat="49.32748" lon="-0.54881">
        <ele>54</ele>
        <time>2026-03-24T13:27:18.000Z</time>
      </trkpt>
      <trkpt lat="49.32749" lon="-0.5488">
        <ele>54</ele>
        <time>2026-03-24T13:27:19.000Z</time>
      </trkpt>
      <trkpt lat="49.3275" lon="-0.54879">
        <ele>54</ele>
        <time>2026-03-24T13:27:20.000Z</time>
      </trkpt>
      <trkpt lat="49.32751" lon="-0.54878">
        <ele>54</ele>
        <time>2026-03-24T13:27:21.000Z</time>
      </trkpt>
      <trkpt lat="49.32752" lon="-0.54877">
        <ele>54</ele>
        <time>2026-03-24T13:27:22.000Z</time>
      </trkpt>
      <trkpt lat="49.32753" lon="-0.54876">
        <ele>54</ele>
        <time>2026-03-24T13:27:23.000Z</time>
      </trkpt>
      <trkpt lat="49.32754" lon="-0.54876">
        <ele>54</ele>
        <time>2026-03-24T13:27:24.000Z</time>
      </trkpt>
      <trkpt lat="49.32755" lon="-0.54875">
        <ele>54</ele>
        <time>2026-03-24T13:27:25.000Z</time>
      </trkpt>
      <trkpt lat="49.32756" lon="-0.54874">
        <ele>54</ele>
        <time>2026-03-24T13:27:26.000Z</time>
      </trkpt>
      <trkpt lat="49.32757" lon="-0.54874">
        <ele>54</ele>
        <time>2026-03-24T13:27:27.000Z</time>
      </trkpt>
      <trkpt lat="49.32757" lon="-0.54873">
        <ele>54</ele>
        <time>2026-03-24T13:27:28.000Z</time>
      </trkpt>
      <trkpt lat="49.32758" lon="-0.54873">
        <ele>54</ele>
        <time>2026-03-24T13:27:29.000Z</time>
      </trkpt>
      <trkpt lat="49.32759" lon="-0.54872">
        <ele>54</ele>
        <time>2026-03-24T13:27:30.000Z</time>
      </trkpt>
      <trkpt lat="49.3276" lon="-0.54871">
        <ele>54</ele>
        <time>2026-03-24T13:27:31.000Z</time>
      </trkpt>
      <trkpt lat="49.32761" lon="-0.54871">
        <ele>54</ele>
        <time>2026-03-24T13:27:32.000Z</time>
      </trkpt>
      <trkpt lat="49.32762" lon="-0.5487">
        <ele>54</ele>
        <time>2026-03-24T13:27:33.000Z</time>
      </trkpt>
      <trkpt lat="49.32762" lon="-0.5487">
        <ele>54</ele>
        <time>2026-03-24T13:27:34.000Z</time>
      </trkpt>
      <trkpt lat="49.32763" lon="-0.54869">
        <ele>54</ele>
        <time>2026-03-24T13:27:35.000Z</time>
      </trkpt>
      <trkpt lat="49.32764" lon="-0.54868">
        <ele>54</ele>
        <time>2026-03-24T13:27:36.000Z</time>
      </trkpt>
      <trkpt lat="49.32765" lon="-0.54867">
        <ele>54</ele>
        <time>2026-03-24T13:27:37.000Z</time>
      </trkpt>
      <trkpt lat="49.32766" lon="-0.54866">
        <ele>54</ele>
        <time>2026-03-24T13:27:38.000Z</time>
      </trkpt>
      <trkpt lat="49.32767" lon="-0.54866">
        <ele>54</ele>
        <time>2026-03-24T13:27:39.000Z</time>
      </trkpt>
      <trkpt lat="49.32768" lon="-0.54865">
        <ele>54</ele>
        <time>2026-03-24T13:27:40.000Z</time>
      </trkpt>
      <trkpt lat="49.3277" lon="-0.54865">
        <ele>54</ele>
        <time>2026-03-24T13:27:41.000Z</time>
      </trkpt>
      <trkpt lat="49.3277" lon="-0.54864">
        <ele>54</ele>
        <time>2026-03-24T13:27:42.000Z</time>
      </trkpt>
      <trkpt lat="49.32771" lon="-0.54863">
        <ele>54</ele>
        <time>2026-03-24T13:27:43.000Z</time>
      </trkpt>
      <trkpt lat="49.32772" lon="-0.54862">
        <ele>54</ele>
        <time>2026-03-24T13:27:44.000Z</time>
      </trkpt>
      <trkpt lat="49.32773" lon="-0.54861">
        <ele>54</ele>
        <time>2026-03-24T13:27:45.000Z</time>
      </trkpt>
      <trkpt lat="49.32774" lon="-0.5486">
        <ele>54</ele>
        <time>2026-03-24T13:27:46.000Z</time>
      </trkpt>
      <trkpt lat="49.32775" lon="-0.54859">
        <ele>54</ele>
        <time>2026-03-24T13:27:47.000Z</time>
      </trkpt>
      <trkpt lat="49.32776" lon="-0.54859">
        <ele>53.799999237061</ele>
        <time>2026-03-24T13:27:48.000Z</time>
      </trkpt>
      <trkpt lat="49.32777" lon="-0.54858">
        <ele>53.799999237061</ele>
        <time>2026-03-24T13:27:49.000Z</time>
      </trkpt>
      <trkpt lat="49.32778" lon="-0.54857">
        <ele>53.799999237061</ele>
        <time>2026-03-24T13:27:50.000Z</time>
      </trkpt>
      <trkpt lat="49.32779" lon="-0.54856">
        <ele>53.799999237061</ele>
        <time>2026-03-24T13:27:51.000Z</time>
      </trkpt>
      <trkpt lat="49.3278" lon="-0.54856">
        <ele>53.799999237061</ele>
        <time>2026-03-24T13:27:52.000Z</time>
      </trkpt>
      <trkpt lat="49.32781" lon="-0.54855">
        <ele>53.799999237061</ele>
        <time>2026-03-24T13:27:53.000Z</time>
      </trkpt>
      <trkpt lat="49.32782" lon="-0.54854">
        <ele>53.599998474121</ele>
        <time>2026-03-24T13:27:54.000Z</time>
      </trkpt>
      <trkpt lat="49.32783" lon="-0.54853">
        <ele>53.599998474121</ele>
        <time>2026-03-24T13:27:55.000Z</time>
      </trkpt>
      <trkpt lat="49.32784" lon="-0.54852">
        <ele>53.599998474121</ele>
        <time>2026-03-24T13:27:56.000Z</time>
      </trkpt>
      <trkpt lat="49.32785" lon="-0.54852">
        <ele>53.599998474121</ele>
        <time>2026-03-24T13:27:57.000Z</time>
      </trkpt>
      <trkpt lat="49.32786" lon="-0.54851">
        <ele>53.599998474121</ele>
        <time>2026-03-24T13:27:58.000Z</time>
      </trkpt>
      <trkpt lat="49.32787" lon="-0.5485">
        <ele>53.599998474121</ele>
        <time>2026-03-24T13:27:59.000Z</time>
      </trkpt>
      <trkpt lat="49.32788" lon="-0.5485">
        <ele>53.400001525879</ele>
        <time>2026-03-24T13:28:00.000Z</time>
      </trkpt>
      <trkpt lat="49.32789" lon="-0.54849">
        <ele>53.400001525879</ele>
        <time>2026-03-24T13:28:01.000Z</time>
      </trkpt>
      <trkpt lat="49.3279" lon="-0.54848">
        <ele>53.400001525879</ele>
        <time>2026-03-24T13:28:02.000Z</time>
      </trkpt>
      <trkpt lat="49.32791" lon="-0.54847">
        <ele>53.400001525879</ele>
        <time>2026-03-24T13:28:03.000Z</time>
      </trkpt>
      <trkpt lat="49.32791" lon="-0.54847">
        <ele>53.400001525879</ele>
        <time>2026-03-24T13:28:04.000Z</time>
      </trkpt>
      <trkpt lat="49.32792" lon="-0.54846">
        <ele>53.400001525879</ele>
        <time>2026-03-24T13:28:05.000Z</time>
      </trkpt>
      <trkpt lat="49.32793" lon="-0.54845">
        <ele>53.200000762939</ele>
        <time>2026-03-24T13:28:06.000Z</time>
      </trkpt>
      <trkpt lat="49.32794" lon="-0.54845">
        <ele>53.200000762939</ele>
        <time>2026-03-24T13:28:07.000Z</time>
      </trkpt>
      <trkpt lat="49.32795" lon="-0.54844">
        <ele>53.200000762939</ele>
        <time>2026-03-24T13:28:08.000Z</time>
      </trkpt>
      <trkpt lat="49.32796" lon="-0.54843">
        <ele>53.200000762939</ele>
        <time>2026-03-24T13:28:09.000Z</time>
      </trkpt>
      <trkpt lat="49.32797" lon="-0.54842">
        <ele>53.200000762939</ele>
        <time>2026-03-24T13:28:10.000Z</time>
      </trkpt>
      <trkpt lat="49.32798" lon="-0.54842">
        <ele>53.200000762939</ele>
        <time>2026-03-24T13:28:11.000Z</time>
      </trkpt>
      <trkpt lat="49.32798" lon="-0.54842">
        <ele>53</ele>
        <time>2026-03-24T13:28:12.000Z</time>
      </trkpt>
      <trkpt lat="49.32799" lon="-0.54841">
        <ele>53</ele>
        <time>2026-03-24T13:28:13.000Z</time>
      </trkpt>
      <trkpt lat="49.32799" lon="-0.54841">
        <ele>53</ele>
        <time>2026-03-24T13:28:14.000Z</time>
      </trkpt>
      <trkpt lat="49.32799" lon="-0.5484">
        <ele>53</ele>
        <time>2026-03-24T13:28:15.000Z</time>
      </trkpt>
      <trkpt lat="49.32799" lon="-0.5484">
        <ele>53</ele>
        <time>2026-03-24T13:28:16.000Z</time>
      </trkpt>
      <trkpt lat="49.32799" lon="-0.5484">
        <ele>53</ele>
        <time>2026-03-24T13:28:17.000Z</time>
      </trkpt>
      <trkpt lat="49.32799" lon="-0.5484">
        <ele>53</ele>
        <time>2026-03-24T13:28:18.000Z</time>
      </trkpt>
      <trkpt lat="49.32799" lon="-0.5484">
        <ele>53</ele>
        <time>2026-03-24T13:28:19.000Z</time>
      </trkpt>
      <trkpt lat="49.32799" lon="-0.5484">
        <ele>53</ele>
        <time>2026-03-24T13:28:20.000Z</time>
      </trkpt>
      <trkpt lat="49.32799" lon="-0.5484">
        <ele>53</ele>
        <time>2026-03-24T13:28:21.000Z</time>
      </trkpt>
      <trkpt lat="49.32799" lon="-0.5484">
        <ele>53</ele>
        <time>2026-03-24T13:28:22.000Z</time>
      </trkpt>
      <trkpt lat="49.328" lon="-0.5484">
        <ele>53</ele>
        <time>2026-03-24T13:28:23.000Z</time>
      </trkpt>
      <trkpt lat="49.328" lon="-0.5484">
        <ele>53</ele>
        <time>2026-03-24T13:28:24.000Z</time>
      </trkpt>
      <trkpt lat="49.32799" lon="-0.5484">
        <ele>53</ele>
        <time>2026-03-24T13:28:25.000Z</time>
      </trkpt>
      <trkpt lat="49.328" lon="-0.5484">
        <ele>53</ele>
        <time>2026-03-24T13:28:26.000Z</time>
      </trkpt>
      <trkpt lat="49.328" lon="-0.54839">
        <ele>53</ele>
        <time>2026-03-24T13:28:27.000Z</time>
      </trkpt>
      <trkpt lat="49.328" lon="-0.54839">
        <ele>53</ele>
        <time>2026-03-24T13:28:28.000Z</time>
      </trkpt>
      <trkpt lat="49.32799" lon="-0.54839">
        <ele>53</ele>
        <time>2026-03-24T13:28:29.000Z</time>
      </trkpt>
      <trkpt lat="49.328" lon="-0.5484">
        <ele>53</ele>
        <time>2026-03-24T13:28:30.000Z</time>
      </trkpt>
      <trkpt lat="49.328" lon="-0.54841">
        <ele>53</ele>
        <time>2026-03-24T13:28:31.000Z</time>
      </trkpt>
      <trkpt lat="49.32801" lon="-0.54841">
        <ele>53</ele>
        <time>2026-03-24T13:28:32.000Z</time>
      </trkpt>
      <trkpt lat="49.32801" lon="-0.54841">
        <ele>53</ele>
        <time>2026-03-24T13:28:33.000Z</time>
      </trkpt>
      <trkpt lat="49.32801" lon="-0.54841">
        <ele>53</ele>
        <time>2026-03-24T13:28:34.000Z</time>
      </trkpt>
      <trkpt lat="49.32801" lon="-0.54841">
        <ele>53</ele>
        <time>2026-03-24T13:28:35.000Z</time>
      </trkpt>
      <trkpt lat="49.32801" lon="-0.54841">
        <ele>53</ele>
        <time>2026-03-24T13:28:36.000Z</time>
      </trkpt>
      <trkpt lat="49.32801" lon="-0.54841">
        <ele>53</ele>
        <time>2026-03-24T13:28:37.000Z</time>
      </trkpt>
      <trkpt lat="49.32801" lon="-0.54841">
        <ele>53</ele>
        <time>2026-03-24T13:28:38.000Z</time>
      </trkpt>
      <trkpt lat="49.32801" lon="-0.54841">
        <ele>53</ele>
        <time>2026-03-24T13:28:39.000Z</time>
      </trkpt>
      <trkpt lat="49.32801" lon="-0.54841">
        <ele>53</ele>
        <time>2026-03-24T13:28:40.000Z</time>
      </trkpt>
      <trkpt lat="49.32801" lon="-0.54841">
        <ele>53</ele>
        <time>2026-03-24T13:28:41.000Z</time>
      </trkpt>
      <trkpt lat="49.32801" lon="-0.5484">
        <ele>53</ele>
        <time>2026-03-24T13:28:42.000Z</time>
      </trkpt>
      <trkpt lat="49.32801" lon="-0.5484">
        <ele>53</ele>
        <time>2026-03-24T13:28:43.000Z</time>
      </trkpt>
      <trkpt lat="49.32802" lon="-0.5484">
        <ele>53</ele>
        <time>2026-03-24T13:28:44.000Z</time>
      </trkpt>
      <trkpt lat="49.32802" lon="-0.5484">
        <ele>53</ele>
        <time>2026-03-24T13:28:45.000Z</time>
      </trkpt>
      <trkpt lat="49.32803" lon="-0.54839">
        <ele>53</ele>
        <time>2026-03-24T13:28:46.000Z</time>
      </trkpt>
      <trkpt lat="49.32803" lon="-0.54839">
        <ele>53</ele>
        <time>2026-03-24T13:28:47.000Z</time>
      </trkpt>
      <trkpt lat="49.32804" lon="-0.54838">
        <ele>52.799999237061</ele>
        <time>2026-03-24T13:28:48.000Z</time>
      </trkpt>
      <trkpt lat="49.32804" lon="-0.54836">
        <ele>52.799999237061</ele>
        <time>2026-03-24T13:28:49.000Z</time>
      </trkpt>
      <trkpt lat="49.32804" lon="-0.54835">
        <ele>52.799999237061</ele>
        <time>2026-03-24T13:28:50.000Z</time>
      </trkpt>
      <trkpt lat="49.32804" lon="-0.54833">
        <ele>52.799999237061</ele>
        <time>2026-03-24T13:28:51.000Z</time>
      </trkpt>
      <trkpt lat="49.32804" lon="-0.54832">
        <ele>52.799999237061</ele>
        <time>2026-03-24T13:28:52.000Z</time>
      </trkpt>
      <trkpt lat="49.32805" lon="-0.5483">
        <ele>52.799999237061</ele>
        <time>2026-03-24T13:28:53.000Z</time>
      </trkpt>
      <trkpt lat="49.32805" lon="-0.54828">
        <ele>52.799999237061</ele>
        <time>2026-03-24T13:28:54.000Z</time>
      </trkpt>
      <trkpt lat="49.32805" lon="-0.54827">
        <ele>52.799999237061</ele>
        <time>2026-03-24T13:28:55.000Z</time>
      </trkpt>
      <trkpt lat="49.32805" lon="-0.54825">
        <ele>52.799999237061</ele>
        <time>2026-03-24T13:28:56.000Z</time>
      </trkpt>
      <trkpt lat="49.32805" lon="-0.54824">
        <ele>52.799999237061</ele>
        <time>2026-03-24T13:28:57.000Z</time>
      </trkpt>
      <trkpt lat="49.32805" lon="-0.54822">
        <ele>52.799999237061</ele>
        <time>2026-03-24T13:28:58.000Z</time>
      </trkpt>
      <trkpt lat="49.32806" lon="-0.54821">
        <ele>52.799999237061</ele>
        <time>2026-03-24T13:28:59.000Z</time>
      </trkpt>
      <trkpt lat="49.32806" lon="-0.54819">
        <ele>52.799999237061</ele>
        <time>2026-03-24T13:29:00.000Z</time>
      </trkpt>
      <trkpt lat="49.32806" lon="-0.54818">
        <ele>52.799999237061</ele>
        <time>2026-03-24T13:29:01.000Z</time>
      </trkpt>
      <trkpt lat="49.32806" lon="-0.54816">
        <ele>52.799999237061</ele>
        <time>2026-03-24T13:29:02.000Z</time>
      </trkpt>
      <trkpt lat="49.32806" lon="-0.54815">
        <ele>52.799999237061</ele>
        <time>2026-03-24T13:29:03.000Z</time>
      </trkpt>
      <trkpt lat="49.32805" lon="-0.54813">
        <ele>52.799999237061</ele>
        <time>2026-03-24T13:29:04.000Z</time>
      </trkpt>
      <trkpt lat="49.32805" lon="-0.54811">
        <ele>52.799999237061</ele>
        <time>2026-03-24T13:29:05.000Z</time>
      </trkpt>
      <trkpt lat="49.32805" lon="-0.5481">
        <ele>52.799999237061</ele>
        <time>2026-03-24T13:29:06.000Z</time>
      </trkpt>
      <trkpt lat="49.32805" lon="-0.54808">
        <ele>52.799999237061</ele>
        <time>2026-03-24T13:29:07.000Z</time>
      </trkpt>
      <trkpt lat="49.32805" lon="-0.54806">
        <ele>52.799999237061</ele>
        <time>2026-03-24T13:29:08.000Z</time>
      </trkpt>
      <trkpt lat="49.32805" lon="-0.54805">
        <ele>52.799999237061</ele>
        <time>2026-03-24T13:29:09.000Z</time>
      </trkpt>
      <trkpt lat="49.32805" lon="-0.54803">
        <ele>52.799999237061</ele>
        <time>2026-03-24T13:29:10.000Z</time>
      </trkpt>
      <trkpt lat="49.32805" lon="-0.54802">
        <ele>52.599998474121</ele>
        <time>2026-03-24T13:29:11.000Z</time>
      </trkpt>
      <trkpt lat="49.32805" lon="-0.548">
        <ele>52.599998474121</ele>
        <time>2026-03-24T13:29:12.000Z</time>
      </trkpt>
      <trkpt lat="49.32805" lon="-0.54798">
        <ele>52.599998474121</ele>
        <time>2026-03-24T13:29:13.000Z</time>
      </trkpt>
      <trkpt lat="49.32805" lon="-0.54797">
        <ele>52.400001525879</ele>
        <time>2026-03-24T13:29:14.000Z</time>
      </trkpt>
      <trkpt lat="49.32805" lon="-0.54795">
        <ele>52.400001525879</ele>
        <time>2026-03-24T13:29:15.000Z</time>
      </trkpt>
      <trkpt lat="49.32805" lon="-0.54793">
        <ele>52.400001525879</ele>
        <time>2026-03-24T13:29:16.000Z</time>
      </trkpt>
      <trkpt lat="49.32805" lon="-0.54791">
        <ele>52.200000762939</ele>
        <time>2026-03-24T13:29:17.000Z</time>
      </trkpt>
      <trkpt lat="49.32805" lon="-0.54789">
        <ele>52.200000762939</ele>
        <time>2026-03-24T13:29:18.000Z</time>
      </trkpt>
      <trkpt lat="49.32806" lon="-0.54786">
        <ele>52</ele>
        <time>2026-03-24T13:29:19.000Z</time>
      </trkpt>
      <trkpt lat="49.32806" lon="-0.54783">
        <ele>52</ele>
        <time>2026-03-24T13:29:20.000Z</time>
      </trkpt>
      <trkpt lat="49.32806" lon="-0.54781">
        <ele>51.799999237061</ele>
        <time>2026-03-24T13:29:21.000Z</time>
      </trkpt>
      <trkpt lat="49.32806" lon="-0.54779">
        <ele>51.799999237061</ele>
        <time>2026-03-24T13:29:22.000Z</time>
      </trkpt>
      <trkpt lat="49.32806" lon="-0.54778">
        <ele>51.799999237061</ele>
        <time>2026-03-24T13:29:23.000Z</time>
      </trkpt>
      <trkpt lat="49.32806" lon="-0.54776">
        <ele>51.799999237061</ele>
        <time>2026-03-24T13:29:24.000Z</time>
      </trkpt>
      <trkpt lat="49.32807" lon="-0.54775">
        <ele>51.799999237061</ele>
        <time>2026-03-24T13:29:25.000Z</time>
      </trkpt>
      <trkpt lat="49.32807" lon="-0.54773">
        <ele>51.799999237061</ele>
        <time>2026-03-24T13:29:26.000Z</time>
      </trkpt>
      <trkpt lat="49.32807" lon="-0.54772">
        <ele>51.799999237061</ele>
        <time>2026-03-24T13:29:27.000Z</time>
      </trkpt>
      <trkpt lat="49.32807" lon="-0.54771">
        <ele>51.799999237061</ele>
        <time>2026-03-24T13:29:28.000Z</time>
      </trkpt>
      <trkpt lat="49.32807" lon="-0.5477">
        <ele>51.799999237061</ele>
        <time>2026-03-24T13:29:29.000Z</time>
      </trkpt>
      <trkpt lat="49.32808" lon="-0.54768">
        <ele>51.799999237061</ele>
        <time>2026-03-24T13:29:30.000Z</time>
      </trkpt>
      <trkpt lat="49.32808" lon="-0.54767">
        <ele>51.799999237061</ele>
        <time>2026-03-24T13:29:31.000Z</time>
      </trkpt>
      <trkpt lat="49.32808" lon="-0.54765">
        <ele>51.799999237061</ele>
        <time>2026-03-24T13:29:32.000Z</time>
      </trkpt>
      <trkpt lat="49.32809" lon="-0.54763">
        <ele>51.799999237061</ele>
        <time>2026-03-24T13:29:33.000Z</time>
      </trkpt>
      <trkpt lat="49.32809" lon="-0.5476">
        <ele>51.599998474121</ele>
        <time>2026-03-24T13:29:34.000Z</time>
      </trkpt>
      <trkpt lat="49.32809" lon="-0.54758">
        <ele>51.599998474121</ele>
        <time>2026-03-24T13:29:35.000Z</time>
      </trkpt>
      <trkpt lat="49.32809" lon="-0.54757">
        <ele>51.599998474121</ele>
        <time>2026-03-24T13:29:36.000Z</time>
      </trkpt>
      <trkpt lat="49.32809" lon="-0.54755">
        <ele>51.599998474121</ele>
        <time>2026-03-24T13:29:37.000Z</time>
      </trkpt>
      <trkpt lat="49.3281" lon="-0.54753">
        <ele>51.599998474121</ele>
        <time>2026-03-24T13:29:38.000Z</time>
      </trkpt>
      <trkpt lat="49.3281" lon="-0.54751">
        <ele>51.599998474121</ele>
        <time>2026-03-24T13:29:39.000Z</time>
      </trkpt>
      <trkpt lat="49.32811" lon="-0.54749">
        <ele>51.599998474121</ele>
        <time>2026-03-24T13:29:40.000Z</time>
      </trkpt>
      <trkpt lat="49.32811" lon="-0.54746">
        <ele>51.599998474121</ele>
        <time>2026-03-24T13:29:41.000Z</time>
      </trkpt>
      <trkpt lat="49.32811" lon="-0.54744">
        <ele>51.599998474121</ele>
        <time>2026-03-24T13:29:42.000Z</time>
      </trkpt>
      <trkpt lat="49.32812" lon="-0.54742">
        <ele>51.599998474121</ele>
        <time>2026-03-24T13:29:43.000Z</time>
      </trkpt>
      <trkpt lat="49.32812" lon="-0.5474">
        <ele>51.599998474121</ele>
        <time>2026-03-24T13:29:44.000Z</time>
      </trkpt>
      <trkpt lat="49.32812" lon="-0.54738">
        <ele>51.599998474121</ele>
        <time>2026-03-24T13:29:45.000Z</time>
      </trkpt>
      <trkpt lat="49.32813" lon="-0.54736">
        <ele>51.400001525879</ele>
        <time>2026-03-24T13:29:46.000Z</time>
      </trkpt>
      <trkpt lat="49.32813" lon="-0.54734">
        <ele>51.400001525879</ele>
        <time>2026-03-24T13:29:47.000Z</time>
      </trkpt>
      <trkpt lat="49.32813" lon="-0.54732">
        <ele>51.400001525879</ele>
        <time>2026-03-24T13:29:48.000Z</time>
      </trkpt>
      <trkpt lat="49.32814" lon="-0.5473">
        <ele>51.200000762939</ele>
        <time>2026-03-24T13:29:49.000Z</time>
      </trkpt>
      <trkpt lat="49.32814" lon="-0.54728">
        <ele>51.200000762939</ele>
        <time>2026-03-24T13:29:50.000Z</time>
      </trkpt>
      <trkpt lat="49.32814" lon="-0.54726">
        <ele>51</ele>
        <time>2026-03-24T13:29:51.000Z</time>
      </trkpt>
      <trkpt lat="49.32814" lon="-0.54724">
        <ele>51</ele>
        <time>2026-03-24T13:29:52.000Z</time>
      </trkpt>
      <trkpt lat="49.32814" lon="-0.54722">
        <ele>51</ele>
        <time>2026-03-24T13:29:53.000Z</time>
      </trkpt>
      <trkpt lat="49.32815" lon="-0.5472">
        <ele>51</ele>
        <time>2026-03-24T13:29:54.000Z</time>
      </trkpt>
      <trkpt lat="49.32815" lon="-0.54719">
        <ele>51</ele>
        <time>2026-03-24T13:29:55.000Z</time>
      </trkpt>
      <trkpt lat="49.32814" lon="-0.54718">
        <ele>51</ele>
        <time>2026-03-24T13:29:56.000Z</time>
      </trkpt>
      <trkpt lat="49.32815" lon="-0.54717">
        <ele>51</ele>
        <time>2026-03-24T13:29:57.000Z</time>
      </trkpt>
      <trkpt lat="49.32815" lon="-0.54716">
        <ele>51</ele>
        <time>2026-03-24T13:29:58.000Z</time>
      </trkpt>
      <trkpt lat="49.32815" lon="-0.54714">
        <ele>51</ele>
        <time>2026-03-24T13:29:59.000Z</time>
      </trkpt>
      <trkpt lat="49.32816" lon="-0.54712">
        <ele>51</ele>
        <time>2026-03-24T13:30:00.000Z</time>
      </trkpt>
      <trkpt lat="49.32816" lon="-0.5471">
        <ele>51</ele>
        <time>2026-03-24T13:30:01.000Z</time>
      </trkpt>
      <trkpt lat="49.32816" lon="-0.54709">
        <ele>51</ele>
        <time>2026-03-24T13:30:02.000Z</time>
      </trkpt>
      <trkpt lat="49.32816" lon="-0.54708">
        <ele>51</ele>
        <time>2026-03-24T13:30:03.000Z</time>
      </trkpt>
      <trkpt lat="49.32816" lon="-0.54707">
        <ele>51</ele>
        <time>2026-03-24T13:30:04.000Z</time>
      </trkpt>
      <trkpt lat="49.32817" lon="-0.54705">
        <ele>51</ele>
        <time>2026-03-24T13:30:05.000Z</time>
      </trkpt>
      <trkpt lat="49.32817" lon="-0.54703">
        <ele>51</ele>
        <time>2026-03-24T13:30:06.000Z</time>
      </trkpt>
      <trkpt lat="49.32818" lon="-0.54701">
        <ele>51</ele>
        <time>2026-03-24T13:30:07.000Z</time>
      </trkpt>
      <trkpt lat="49.32818" lon="-0.547">
        <ele>51</ele>
        <time>2026-03-24T13:30:08.000Z</time>
      </trkpt>
      <trkpt lat="49.32818" lon="-0.54699">
        <ele>51</ele>
        <time>2026-03-24T13:30:09.000Z</time>
      </trkpt>
      <trkpt lat="49.32818" lon="-0.54697">
        <ele>51</ele>
        <time>2026-03-24T13:30:10.000Z</time>
      </trkpt>
      <trkpt lat="49.32818" lon="-0.54695">
        <ele>51</ele>
        <time>2026-03-24T13:30:11.000Z</time>
      </trkpt>
      <trkpt lat="49.32819" lon="-0.54693">
        <ele>51</ele>
        <time>2026-03-24T13:30:12.000Z</time>
      </trkpt>
      <trkpt lat="49.32819" lon="-0.54691">
        <ele>50.799999237061</ele>
        <time>2026-03-24T13:30:13.000Z</time>
      </trkpt>
      <trkpt lat="49.32819" lon="-0.54689">
        <ele>50.799999237061</ele>
        <time>2026-03-24T13:30:14.000Z</time>
      </trkpt>
      <trkpt lat="49.32819" lon="-0.54688">
        <ele>50.799999237061</ele>
        <time>2026-03-24T13:30:15.000Z</time>
      </trkpt>
      <trkpt lat="49.32819" lon="-0.54686">
        <ele>50.599998474121</ele>
        <time>2026-03-24T13:30:16.000Z</time>
      </trkpt>
      <trkpt lat="49.32819" lon="-0.54685">
        <ele>50.599998474121</ele>
        <time>2026-03-24T13:30:17.000Z</time>
      </trkpt>
      <trkpt lat="49.32819" lon="-0.54683">
        <ele>50.599998474121</ele>
        <time>2026-03-24T13:30:18.000Z</time>
      </trkpt>
      <trkpt lat="49.3282" lon="-0.54682">
        <ele>50.599998474121</ele>
        <time>2026-03-24T13:30:19.000Z</time>
      </trkpt>
      <trkpt lat="49.3282" lon="-0.54681">
        <ele>50.400001525879</ele>
        <time>2026-03-24T13:30:20.000Z</time>
      </trkpt>
      <trkpt lat="49.3282" lon="-0.54679">
        <ele>50.400001525879</ele>
        <time>2026-03-24T13:30:21.000Z</time>
      </trkpt>
      <trkpt lat="49.3282" lon="-0.54677">
        <ele>50.400001525879</ele>
        <time>2026-03-24T13:30:22.000Z</time>
      </trkpt>
      <trkpt lat="49.3282" lon="-0.54675">
        <ele>50.200000762939</ele>
        <time>2026-03-24T13:30:23.000Z</time>
      </trkpt>
      <trkpt lat="49.32821" lon="-0.54673">
        <ele>50.200000762939</ele>
        <time>2026-03-24T13:30:24.000Z</time>
      </trkpt>
      <trkpt lat="49.32822" lon="-0.54673">
        <ele>50.200000762939</ele>
        <time>2026-03-24T13:30:25.000Z</time>
      </trkpt>
      <trkpt lat="49.32823" lon="-0.54672">
        <ele>50.200000762939</ele>
        <time>2026-03-24T13:30:26.000Z</time>
      </trkpt>
      <trkpt lat="49.32824" lon="-0.54671">
        <ele>50.200000762939</ele>
        <time>2026-03-24T13:30:27.000Z</time>
      </trkpt>
      <trkpt lat="49.32824" lon="-0.5467">
        <ele>50.200000762939</ele>
        <time>2026-03-24T13:30:28.000Z</time>
      </trkpt>
      <trkpt lat="49.32824" lon="-0.54668">
        <ele>50.200000762939</ele>
        <time>2026-03-24T13:30:29.000Z</time>
      </trkpt>
      <trkpt lat="49.32824" lon="-0.54667">
        <ele>50.200000762939</ele>
        <time>2026-03-24T13:30:30.000Z</time>
      </trkpt>
      <trkpt lat="49.32824" lon="-0.54665">
        <ele>50.200000762939</ele>
        <time>2026-03-24T13:30:31.000Z</time>
      </trkpt>
      <trkpt lat="49.32824" lon="-0.54664">
        <ele>50.200000762939</ele>
        <time>2026-03-24T13:30:32.000Z</time>
      </trkpt>
      <trkpt lat="49.32824" lon="-0.54662">
        <ele>50.200000762939</ele>
        <time>2026-03-24T13:30:33.000Z</time>
      </trkpt>
      <trkpt lat="49.32824" lon="-0.54661">
        <ele>50.200000762939</ele>
        <time>2026-03-24T13:30:34.000Z</time>
      </trkpt>
      <trkpt lat="49.32824" lon="-0.54659">
        <ele>50.200000762939</ele>
        <time>2026-03-24T13:30:35.000Z</time>
      </trkpt>
      <trkpt lat="49.32824" lon="-0.54657">
        <ele>50.200000762939</ele>
        <time>2026-03-24T13:30:36.000Z</time>
      </trkpt>
      <trkpt lat="49.32825" lon="-0.54656">
        <ele>50.200000762939</ele>
        <time>2026-03-24T13:30:37.000Z</time>
      </trkpt>
      <trkpt lat="49.32825" lon="-0.54654">
        <ele>50.200000762939</ele>
        <time>2026-03-24T13:30:38.000Z</time>
      </trkpt>
      <trkpt lat="49.32825" lon="-0.54653">
        <ele>50.200000762939</ele>
        <time>2026-03-24T13:30:39.000Z</time>
      </trkpt>
      <trkpt lat="49.32825" lon="-0.54651">
        <ele>50.200000762939</ele>
        <time>2026-03-24T13:30:40.000Z</time>
      </trkpt>
      <trkpt lat="49.32826" lon="-0.54649">
        <ele>50.200000762939</ele>
        <time>2026-03-24T13:30:41.000Z</time>
      </trkpt>
      <trkpt lat="49.32826" lon="-0.54646">
        <ele>50</ele>
        <time>2026-03-24T13:30:42.000Z</time>
      </trkpt>
      <trkpt lat="49.32826" lon="-0.54645">
        <ele>50</ele>
        <time>2026-03-24T13:30:43.000Z</time>
      </trkpt>
      <trkpt lat="49.32826" lon="-0.54644">
        <ele>50</ele>
        <time>2026-03-24T13:30:44.000Z</time>
      </trkpt>
      <trkpt lat="49.32827" lon="-0.54642">
        <ele>50</ele>
        <time>2026-03-24T13:30:45.000Z</time>
      </trkpt>
      <trkpt lat="49.32828" lon="-0.5464">
        <ele>50</ele>
        <time>2026-03-24T13:30:46.000Z</time>
      </trkpt>
      <trkpt lat="49.32828" lon="-0.54638">
        <ele>50</ele>
        <time>2026-03-24T13:30:47.000Z</time>
      </trkpt>
      <trkpt lat="49.32829" lon="-0.54637">
        <ele>49.799999237061</ele>
        <time>2026-03-24T13:30:48.000Z</time>
      </trkpt>
      <trkpt lat="49.32829" lon="-0.54635">
        <ele>49.799999237061</ele>
        <time>2026-03-24T13:30:49.000Z</time>
      </trkpt>
      <trkpt lat="49.32829" lon="-0.54633">
        <ele>49.799999237061</ele>
        <time>2026-03-24T13:30:50.000Z</time>
      </trkpt>
      <trkpt lat="49.32829" lon="-0.54632">
        <ele>49.799999237061</ele>
        <time>2026-03-24T13:30:51.000Z</time>
      </trkpt>
      <trkpt lat="49.32829" lon="-0.54631">
        <ele>49.599998474121</ele>
        <time>2026-03-24T13:30:52.000Z</time>
      </trkpt>
      <trkpt lat="49.32829" lon="-0.54629">
        <ele>49.599998474121</ele>
        <time>2026-03-24T13:30:53.000Z</time>
      </trkpt>
      <trkpt lat="49.32829" lon="-0.54628">
        <ele>49.599998474121</ele>
        <time>2026-03-24T13:30:54.000Z</time>
      </trkpt>
      <trkpt lat="49.32829" lon="-0.54625">
        <ele>49.400001525879</ele>
        <time>2026-03-24T13:30:55.000Z</time>
      </trkpt>
      <trkpt lat="49.32829" lon="-0.54624">
        <ele>49.400001525879</ele>
        <time>2026-03-24T13:30:56.000Z</time>
      </trkpt>
      <trkpt lat="49.32829" lon="-0.54622">
        <ele>49.400001525879</ele>
        <time>2026-03-24T13:30:57.000Z</time>
      </trkpt>
      <trkpt lat="49.32829" lon="-0.54621">
        <ele>49.400001525879</ele>
        <time>2026-03-24T13:30:58.000Z</time>
      </trkpt>
      <trkpt lat="49.32828" lon="-0.54622">
        <ele>49.400001525879</ele>
        <time>2026-03-24T13:30:59.000Z</time>
      </trkpt>
      <trkpt lat="49.32829" lon="-0.5462">
        <ele>49.200000762939</ele>
        <time>2026-03-24T13:31:00.000Z</time>
      </trkpt>
      <trkpt lat="49.32829" lon="-0.54619">
        <ele>49.200000762939</ele>
        <time>2026-03-24T13:31:01.000Z</time>
      </trkpt>
      <trkpt lat="49.32828" lon="-0.54618">
        <ele>49.200000762939</ele>
        <time>2026-03-24T13:31:02.000Z</time>
      </trkpt>
      <trkpt lat="49.32829" lon="-0.54616">
        <ele>49.200000762939</ele>
        <time>2026-03-24T13:31:03.000Z</time>
      </trkpt>
      <trkpt lat="49.32829" lon="-0.54614">
        <ele>49</ele>
        <time>2026-03-24T13:31:04.000Z</time>
      </trkpt>
      <trkpt lat="49.3283" lon="-0.54613">
        <ele>49</ele>
        <time>2026-03-24T13:31:05.000Z</time>
      </trkpt>
      <trkpt lat="49.3283" lon="-0.54611">
        <ele>49</ele>
        <time>2026-03-24T13:31:06.000Z</time>
      </trkpt>
      <trkpt lat="49.3283" lon="-0.5461">
        <ele>49</ele>
        <time>2026-03-24T13:31:07.000Z</time>
      </trkpt>
      <trkpt lat="49.32831" lon="-0.54608">
        <ele>49</ele>
        <time>2026-03-24T13:31:08.000Z</time>
      </trkpt>
      <trkpt lat="49.32831" lon="-0.54607">
        <ele>49</ele>
        <time>2026-03-24T13:31:09.000Z</time>
      </trkpt>
      <trkpt lat="49.32832" lon="-0.54605">
        <ele>48.799999237061</ele>
        <time>2026-03-24T13:31:10.000Z</time>
      </trkpt>
      <trkpt lat="49.32833" lon="-0.54604">
        <ele>48.799999237061</ele>
        <time>2026-03-24T13:31:11.000Z</time>
      </trkpt>
      <trkpt lat="49.32833" lon="-0.54603">
        <ele>48.799999237061</ele>
        <time>2026-03-24T13:31:12.000Z</time>
      </trkpt>
      <trkpt lat="49.32834" lon="-0.54601">
        <ele>48.799999237061</ele>
        <time>2026-03-24T13:31:13.000Z</time>
      </trkpt>
      <trkpt lat="49.32834" lon="-0.546">
        <ele>48.799999237061</ele>
        <time>2026-03-24T13:31:14.000Z</time>
      </trkpt>
      <trkpt lat="49.32835" lon="-0.54598">
        <ele>48.799999237061</ele>
        <time>2026-03-24T13:31:15.000Z</time>
      </trkpt>
      <trkpt lat="49.32835" lon="-0.54596">
        <ele>48.799999237061</ele>
        <time>2026-03-24T13:31:16.000Z</time>
      </trkpt>
      <trkpt lat="49.32835" lon="-0.54595">
        <ele>48.799999237061</ele>
        <time>2026-03-24T13:31:17.000Z</time>
      </trkpt>
      <trkpt lat="49.32835" lon="-0.54593">
        <ele>48.799999237061</ele>
        <time>2026-03-24T13:31:18.000Z</time>
      </trkpt>
      <trkpt lat="49.32836" lon="-0.54591">
        <ele>48.799999237061</ele>
        <time>2026-03-24T13:31:19.000Z</time>
      </trkpt>
      <trkpt lat="49.32836" lon="-0.5459">
        <ele>48.799999237061</ele>
        <time>2026-03-24T13:31:20.000Z</time>
      </trkpt>
      <trkpt lat="49.32836" lon="-0.54588">
        <ele>48.799999237061</ele>
        <time>2026-03-24T13:31:21.000Z</time>
      </trkpt>
      <trkpt lat="49.32836" lon="-0.54587">
        <ele>48.799999237061</ele>
        <time>2026-03-24T13:31:22.000Z</time>
      </trkpt>
      <trkpt lat="49.32836" lon="-0.54585">
        <ele>48.799999237061</ele>
        <time>2026-03-24T13:31:23.000Z</time>
      </trkpt>
      <trkpt lat="49.32836" lon="-0.54584">
        <ele>48.799999237061</ele>
        <time>2026-03-24T13:31:24.000Z</time>
      </trkpt>
      <trkpt lat="49.32836" lon="-0.54583">
        <ele>48.799999237061</ele>
        <time>2026-03-24T13:31:25.000Z</time>
      </trkpt>
      <trkpt lat="49.32836" lon="-0.5458">
        <ele>48.799999237061</ele>
        <time>2026-03-24T13:31:26.000Z</time>
      </trkpt>
      <trkpt lat="49.32836" lon="-0.54578">
        <ele>48.799999237061</ele>
        <time>2026-03-24T13:31:27.000Z</time>
      </trkpt>
      <trkpt lat="49.32836" lon="-0.54576">
        <ele>48.799999237061</ele>
        <time>2026-03-24T13:31:28.000Z</time>
      </trkpt>
      <trkpt lat="49.32836" lon="-0.54574">
        <ele>48.599998474121</ele>
        <time>2026-03-24T13:31:29.000Z</time>
      </trkpt>
      <trkpt lat="49.32836" lon="-0.54572">
        <ele>48.599998474121</ele>
        <time>2026-03-24T13:31:30.000Z</time>
      </trkpt>
      <trkpt lat="49.32836" lon="-0.5457">
        <ele>48.400001525879</ele>
        <time>2026-03-24T13:31:31.000Z</time>
      </trkpt>
      <trkpt lat="49.32837" lon="-0.54568">
        <ele>48.400001525879</ele>
        <time>2026-03-24T13:31:32.000Z</time>
      </trkpt>
      <trkpt lat="49.32837" lon="-0.54566">
        <ele>48.400001525879</ele>
        <time>2026-03-24T13:31:33.000Z</time>
      </trkpt>
      <trkpt lat="49.32837" lon="-0.54564">
        <ele>48.200000762939</ele>
        <time>2026-03-24T13:31:34.000Z</time>
      </trkpt>
      <trkpt lat="49.32837" lon="-0.54562">
        <ele>48.200000762939</ele>
        <time>2026-03-24T13:31:35.000Z</time>
      </trkpt>
      <trkpt lat="49.32837" lon="-0.5456">
        <ele>48.200000762939</ele>
        <time>2026-03-24T13:31:36.000Z</time>
      </trkpt>
      <trkpt lat="49.32837" lon="-0.54559">
        <ele>48</ele>
        <time>2026-03-24T13:31:37.000Z</time>
      </trkpt>
      <trkpt lat="49.32838" lon="-0.54557">
        <ele>48</ele>
        <time>2026-03-24T13:31:38.000Z</time>
      </trkpt>
      <trkpt lat="49.32838" lon="-0.54556">
        <ele>48</ele>
        <time>2026-03-24T13:31:39.000Z</time>
      </trkpt>
      <trkpt lat="49.32838" lon="-0.54554">
        <ele>48</ele>
        <time>2026-03-24T13:31:40.000Z</time>
      </trkpt>
      <trkpt lat="49.32839" lon="-0.54553">
        <ele>48</ele>
        <time>2026-03-24T13:31:41.000Z</time>
      </trkpt>
      <trkpt lat="49.32839" lon="-0.54552">
        <ele>48</ele>
        <time>2026-03-24T13:31:42.000Z</time>
      </trkpt>
      <trkpt lat="49.32839" lon="-0.54552">
        <ele>48</ele>
        <time>2026-03-24T13:31:43.000Z</time>
      </trkpt>
      <trkpt lat="49.32838" lon="-0.54552">
        <ele>48</ele>
        <time>2026-03-24T13:31:44.000Z</time>
      </trkpt>
      <trkpt lat="49.32839" lon="-0.54551">
        <ele>48</ele>
        <time>2026-03-24T13:31:45.000Z</time>
      </trkpt>
      <trkpt lat="49.32839" lon="-0.5455">
        <ele>48</ele>
        <time>2026-03-24T13:31:46.000Z</time>
      </trkpt>
      <trkpt lat="49.3284" lon="-0.5455">
        <ele>48</ele>
        <time>2026-03-24T13:31:47.000Z</time>
      </trkpt>
      <trkpt lat="49.3284" lon="-0.5455">
        <ele>48</ele>
        <time>2026-03-24T13:31:48.000Z</time>
      </trkpt>
      <trkpt lat="49.32841" lon="-0.54549">
        <ele>48</ele>
        <time>2026-03-24T13:31:49.000Z</time>
      </trkpt>
      <trkpt lat="49.32842" lon="-0.54549">
        <ele>48</ele>
        <time>2026-03-24T13:31:50.000Z</time>
      </trkpt>
      <trkpt lat="49.32843" lon="-0.54548">
        <ele>48</ele>
        <time>2026-03-24T13:31:51.000Z</time>
      </trkpt>
      <trkpt lat="49.32844" lon="-0.54547">
        <ele>48</ele>
        <time>2026-03-24T13:31:52.000Z</time>
      </trkpt>
      <trkpt lat="49.32845" lon="-0.54547">
        <ele>48</ele>
        <time>2026-03-24T13:31:53.000Z</time>
      </trkpt>
      <trkpt lat="49.32846" lon="-0.54546">
        <ele>48</ele>
        <time>2026-03-24T13:31:54.000Z</time>
      </trkpt>
      <trkpt lat="49.32847" lon="-0.54546">
        <ele>48</ele>
        <time>2026-03-24T13:31:55.000Z</time>
      </trkpt>
      <trkpt lat="49.32847" lon="-0.54546">
        <ele>48</ele>
        <time>2026-03-24T13:31:56.000Z</time>
      </trkpt>
      <trkpt lat="49.32848" lon="-0.54545">
        <ele>48</ele>
        <time>2026-03-24T13:31:57.000Z</time>
      </trkpt>
      <trkpt lat="49.32849" lon="-0.54545">
        <ele>48</ele>
        <time>2026-03-24T13:31:58.000Z</time>
      </trkpt>
      <trkpt lat="49.3285" lon="-0.54544">
        <ele>48</ele>
        <time>2026-03-24T13:31:59.000Z</time>
      </trkpt>
      <trkpt lat="49.3285" lon="-0.54544">
        <ele>48</ele>
        <time>2026-03-24T13:32:00.000Z</time>
      </trkpt>
      <trkpt lat="49.3285" lon="-0.54544">
        <ele>48</ele>
        <time>2026-03-24T13:32:01.000Z</time>
      </trkpt>
      <trkpt lat="49.3285" lon="-0.54544">
        <ele>48</ele>
        <time>2026-03-24T13:32:02.000Z</time>
      </trkpt>
      <trkpt lat="49.32851" lon="-0.54544">
        <ele>48</ele>
        <time>2026-03-24T13:32:03.000Z</time>
      </trkpt>
      <trkpt lat="49.32851" lon="-0.54544">
        <ele>48</ele>
        <time>2026-03-24T13:32:04.000Z</time>
      </trkpt>
      <trkpt lat="49.32851" lon="-0.54544">
        <ele>48</ele>
        <time>2026-03-24T13:32:05.000Z</time>
      </trkpt>
      <trkpt lat="49.32852" lon="-0.54544">
        <ele>48</ele>
        <time>2026-03-24T13:32:06.000Z</time>
      </trkpt>
      <trkpt lat="49.32852" lon="-0.54544">
        <ele>48</ele>
        <time>2026-03-24T13:32:07.000Z</time>
      </trkpt>
      <trkpt lat="49.32853" lon="-0.54544">
        <ele>48</ele>
        <time>2026-03-24T13:32:08.000Z</time>
      </trkpt>
      <trkpt lat="49.32853" lon="-0.54545">
        <ele>48</ele>
        <time>2026-03-24T13:32:09.000Z</time>
      </trkpt>
      <trkpt lat="49.32854" lon="-0.54544">
        <ele>48</ele>
        <time>2026-03-24T13:32:10.000Z</time>
      </trkpt>
      <trkpt lat="49.32854" lon="-0.54544">
        <ele>48</ele>
        <time>2026-03-24T13:32:11.000Z</time>
      </trkpt>
      <trkpt lat="49.32854" lon="-0.54543">
        <ele>48</ele>
        <time>2026-03-24T13:32:12.000Z</time>
      </trkpt>
      <trkpt lat="49.32855" lon="-0.54543">
        <ele>48</ele>
        <time>2026-03-24T13:32:13.000Z</time>
      </trkpt>
      <trkpt lat="49.32855" lon="-0.54543">
        <ele>48</ele>
        <time>2026-03-24T13:32:14.000Z</time>
      </trkpt>
      <trkpt lat="49.32854" lon="-0.54542">
        <ele>48</ele>
        <time>2026-03-24T13:32:15.000Z</time>
      </trkpt>
      <trkpt lat="49.32854" lon="-0.54542">
        <ele>48</ele>
        <time>2026-03-24T13:32:16.000Z</time>
      </trkpt>
      <trkpt lat="49.32854" lon="-0.54541">
        <ele>48</ele>
        <time>2026-03-24T13:32:17.000Z</time>
      </trkpt>
      <trkpt lat="49.32853" lon="-0.54541">
        <ele>48</ele>
        <time>2026-03-24T13:32:18.000Z</time>
      </trkpt>
      <trkpt lat="49.32852" lon="-0.5454">
        <ele>48</ele>
        <time>2026-03-24T13:32:19.000Z</time>
      </trkpt>
      <trkpt lat="49.32852" lon="-0.5454">
        <ele>48</ele>
        <time>2026-03-24T13:32:20.000Z</time>
      </trkpt>
      <trkpt lat="49.32852" lon="-0.5454">
        <ele>48</ele>
        <time>2026-03-24T13:32:21.000Z</time>
      </trkpt>
      <trkpt lat="49.32851" lon="-0.5454">
        <ele>48</ele>
        <time>2026-03-24T13:32:22.000Z</time>
      </trkpt>
      <trkpt lat="49.32851" lon="-0.5454">
        <ele>48</ele>
        <time>2026-03-24T13:32:23.000Z</time>
      </trkpt>
      <trkpt lat="49.32851" lon="-0.5454">
        <ele>48</ele>
        <time>2026-03-24T13:32:24.000Z</time>
      </trkpt>
      <trkpt lat="49.32851" lon="-0.5454">
        <ele>48</ele>
        <time>2026-03-24T13:32:25.000Z</time>
      </trkpt>
      <trkpt lat="49.32851" lon="-0.54539">
        <ele>48</ele>
        <time>2026-03-24T13:32:26.000Z</time>
      </trkpt>
      <trkpt lat="49.32851" lon="-0.54539">
        <ele>48</ele>
        <time>2026-03-24T13:32:27.000Z</time>
      </trkpt>
      <trkpt lat="49.3285" lon="-0.54539">
        <ele>48</ele>
        <time>2026-03-24T13:32:28.000Z</time>
      </trkpt>
      <trkpt lat="49.3285" lon="-0.54539">
        <ele>48</ele>
        <time>2026-03-24T13:32:29.000Z</time>
      </trkpt>
      <trkpt lat="49.32849" lon="-0.54539">
        <ele>48</ele>
        <time>2026-03-24T13:32:30.000Z</time>
      </trkpt>
      <trkpt lat="49.32849" lon="-0.54539">
        <ele>48</ele>
        <time>2026-03-24T13:32:31.000Z</time>
      </trkpt>
      <trkpt lat="49.32848" lon="-0.54539">
        <ele>48</ele>
        <time>2026-03-24T13:32:32.000Z</time>
      </trkpt>
      <trkpt lat="49.32848" lon="-0.54539">
        <ele>48</ele>
        <time>2026-03-24T13:32:33.000Z</time>
      </trkpt>
      <trkpt lat="49.32847" lon="-0.54539">
        <ele>48</ele>
        <time>2026-03-24T13:32:34.000Z</time>
      </trkpt>
      <trkpt lat="49.32847" lon="-0.54539">
        <ele>48</ele>
        <time>2026-03-24T13:32:35.000Z</time>
      </trkpt>
      <trkpt lat="49.32847" lon="-0.54539">
        <ele>48</ele>
        <time>2026-03-24T13:32:36.000Z</time>
      </trkpt>
      <trkpt lat="49.32847" lon="-0.5454">
        <ele>48</ele>
        <time>2026-03-24T13:32:37.000Z</time>
      </trkpt>
      <trkpt lat="49.32847" lon="-0.5454">
        <ele>48</ele>
        <time>2026-03-24T13:32:38.000Z</time>
      </trkpt>
      <trkpt lat="49.32847" lon="-0.5454">
        <ele>48</ele>
        <time>2026-03-24T13:32:39.000Z</time>
      </trkpt>
      <trkpt lat="49.32847" lon="-0.5454">
        <ele>48</ele>
        <time>2026-03-24T13:32:40.000Z</time>
      </trkpt>
      <trkpt lat="49.32847" lon="-0.5454">
        <ele>48</ele>
        <time>2026-03-24T13:32:41.000Z</time>
      </trkpt>
      <trkpt lat="49.32847" lon="-0.54541">
        <ele>48</ele>
        <time>2026-03-24T13:32:42.000Z</time>
      </trkpt>
      <trkpt lat="49.32847" lon="-0.54541">
        <ele>48</ele>
        <time>2026-03-24T13:32:43.000Z</time>
      </trkpt>
      <trkpt lat="49.32847" lon="-0.54541">
        <ele>48</ele>
        <time>2026-03-24T13:32:44.000Z</time>
      </trkpt>
      <trkpt lat="49.32847" lon="-0.54541">
        <ele>48</ele>
        <time>2026-03-24T13:32:45.000Z</time>
      </trkpt>
      <trkpt lat="49.32847" lon="-0.54542">
        <ele>48</ele>
        <time>2026-03-24T13:32:46.000Z</time>
      </trkpt>
      <trkpt lat="49.32847" lon="-0.54542">
        <ele>48</ele>
        <time>2026-03-24T13:32:47.000Z</time>
      </trkpt>
      <trkpt lat="49.32847" lon="-0.54542">
        <ele>48</ele>
        <time>2026-03-24T13:32:48.000Z</time>
      </trkpt>
      <trkpt lat="49.32848" lon="-0.54543">
        <ele>48</ele>
        <time>2026-03-24T13:32:49.000Z</time>
      </trkpt>
      <trkpt lat="49.32848" lon="-0.54543">
        <ele>48</ele>
        <time>2026-03-24T13:32:50.000Z</time>
      </trkpt>
      <trkpt lat="49.32849" lon="-0.54544">
        <ele>48</ele>
        <time>2026-03-24T13:32:51.000Z</time>
      </trkpt>
      <trkpt lat="49.3285" lon="-0.54544">
        <ele>48</ele>
        <time>2026-03-24T13:32:52.000Z</time>
      </trkpt>
      <trkpt lat="49.3285" lon="-0.54544">
        <ele>48</ele>
        <time>2026-03-24T13:32:53.000Z</time>
      </trkpt>
      <trkpt lat="49.3285" lon="-0.54544">
        <ele>48</ele>
        <time>2026-03-24T13:32:54.000Z</time>
      </trkpt>
      <trkpt lat="49.3285" lon="-0.54545">
        <ele>48</ele>
        <time>2026-03-24T13:32:55.000Z</time>
      </trkpt>
      <trkpt lat="49.3285" lon="-0.54545">
        <ele>48</ele>
        <time>2026-03-24T13:32:56.000Z</time>
      </trkpt>
      <trkpt lat="49.3285" lon="-0.54545">
        <ele>48</ele>
        <time>2026-03-24T13:32:57.000Z</time>
      </trkpt>
      <trkpt lat="49.3285" lon="-0.54546">
        <ele>48</ele>
        <time>2026-03-24T13:32:58.000Z</time>
      </trkpt>
      <trkpt lat="49.32851" lon="-0.54546">
        <ele>48</ele>
        <time>2026-03-24T13:32:59.000Z</time>
      </trkpt>
      <trkpt lat="49.32852" lon="-0.54546">
        <ele>48</ele>
        <time>2026-03-24T13:33:00.000Z</time>
      </trkpt>
      <trkpt lat="49.32852" lon="-0.54546">
        <ele>48</ele>
        <time>2026-03-24T13:33:01.000Z</time>
      </trkpt>
      <trkpt lat="49.32853" lon="-0.54546">
        <ele>48</ele>
        <time>2026-03-24T13:33:02.000Z</time>
      </trkpt>
      <trkpt lat="49.32854" lon="-0.54546">
        <ele>48</ele>
        <time>2026-03-24T13:33:03.000Z</time>
      </trkpt>
      <trkpt lat="49.32856" lon="-0.54546">
        <ele>48</ele>
        <time>2026-03-24T13:33:04.000Z</time>
      </trkpt>
      <trkpt lat="49.32858" lon="-0.54545">
        <ele>48</ele>
        <time>2026-03-24T13:33:05.000Z</time>
      </trkpt>
      <trkpt lat="49.32859" lon="-0.54543">
        <ele>48</ele>
        <time>2026-03-24T13:33:06.000Z</time>
      </trkpt>
      <trkpt lat="49.3286" lon="-0.54542">
        <ele>48</ele>
        <time>2026-03-24T13:33:07.000Z</time>
      </trkpt>
      <trkpt lat="49.32861" lon="-0.54541">
        <ele>48</ele>
        <time>2026-03-24T13:33:08.000Z</time>
      </trkpt>
      <trkpt lat="49.32862" lon="-0.5454">
        <ele>48</ele>
        <time>2026-03-24T13:33:09.000Z</time>
      </trkpt>
      <trkpt lat="49.32863" lon="-0.54539">
        <ele>48</ele>
        <time>2026-03-24T13:33:10.000Z</time>
      </trkpt>
      <trkpt lat="49.32864" lon="-0.54538">
        <ele>48</ele>
        <time>2026-03-24T13:33:11.000Z</time>
      </trkpt>
      <trkpt lat="49.32865" lon="-0.54537">
        <ele>48</ele>
        <time>2026-03-24T13:33:12.000Z</time>
      </trkpt>
      <trkpt lat="49.32866" lon="-0.54537">
        <ele>48</ele>
        <time>2026-03-24T13:33:13.000Z</time>
      </trkpt>
      <trkpt lat="49.32867" lon="-0.54536">
        <ele>48</ele>
        <time>2026-03-24T13:33:14.000Z</time>
      </trkpt>
      <trkpt lat="49.32868" lon="-0.54536">
        <ele>48</ele>
        <time>2026-03-24T13:33:15.000Z</time>
      </trkpt>
      <trkpt lat="49.32869" lon="-0.54535">
        <ele>48</ele>
        <time>2026-03-24T13:33:16.000Z</time>
      </trkpt>
      <trkpt lat="49.3287" lon="-0.54535">
        <ele>48</ele>
        <time>2026-03-24T13:33:17.000Z</time>
      </trkpt>
      <trkpt lat="49.32871" lon="-0.54534">
        <ele>48</ele>
        <time>2026-03-24T13:33:18.000Z</time>
      </trkpt>
      <trkpt lat="49.32872" lon="-0.54534">
        <ele>48</ele>
        <time>2026-03-24T13:33:19.000Z</time>
      </trkpt>
      <trkpt lat="49.32874" lon="-0.54533">
        <ele>48</ele>
        <time>2026-03-24T13:33:20.000Z</time>
      </trkpt>
      <trkpt lat="49.32875" lon="-0.54533">
        <ele>48</ele>
        <time>2026-03-24T13:33:21.000Z</time>
      </trkpt>
      <trkpt lat="49.32875" lon="-0.54533">
        <ele>48</ele>
        <time>2026-03-24T13:33:22.000Z</time>
      </trkpt>
      <trkpt lat="49.32877" lon="-0.54532">
        <ele>48</ele>
        <time>2026-03-24T13:33:23.000Z</time>
      </trkpt>
      <trkpt lat="49.32878" lon="-0.54531">
        <ele>48</ele>
        <time>2026-03-24T13:33:24.000Z</time>
      </trkpt>
      <trkpt lat="49.32879" lon="-0.54531">
        <ele>48</ele>
        <time>2026-03-24T13:33:25.000Z</time>
      </trkpt>
      <trkpt lat="49.32879" lon="-0.54531">
        <ele>48</ele>
        <time>2026-03-24T13:33:26.000Z</time>
      </trkpt>
      <trkpt lat="49.3288" lon="-0.5453">
        <ele>48</ele>
        <time>2026-03-24T13:33:27.000Z</time>
      </trkpt>
      <trkpt lat="49.32881" lon="-0.54529">
        <ele>48</ele>
        <time>2026-03-24T13:33:28.000Z</time>
      </trkpt>
      <trkpt lat="49.32883" lon="-0.54528">
        <ele>48</ele>
        <time>2026-03-24T13:33:29.000Z</time>
      </trkpt>
      <trkpt lat="49.32884" lon="-0.54527">
        <ele>48</ele>
        <time>2026-03-24T13:33:30.000Z</time>
      </trkpt>
      <trkpt lat="49.32885" lon="-0.54527">
        <ele>48</ele>
        <time>2026-03-24T13:33:31.000Z</time>
      </trkpt>
      <trkpt lat="49.32886" lon="-0.54526">
        <ele>48</ele>
        <time>2026-03-24T13:33:32.000Z</time>
      </trkpt>
      <trkpt lat="49.32887" lon="-0.54525">
        <ele>48.200000762939</ele>
        <time>2026-03-24T13:33:33.000Z</time>
      </trkpt>
      <trkpt lat="49.32889" lon="-0.54525">
        <ele>48.200000762939</ele>
        <time>2026-03-24T13:33:34.000Z</time>
      </trkpt>
      <trkpt lat="49.32889" lon="-0.54524">
        <ele>48.200000762939</ele>
        <time>2026-03-24T13:33:35.000Z</time>
      </trkpt>
      <trkpt lat="49.32891" lon="-0.54524">
        <ele>48.200000762939</ele>
        <time>2026-03-24T13:33:36.000Z</time>
      </trkpt>
      <trkpt lat="49.32892" lon="-0.54523">
        <ele>48.200000762939</ele>
        <time>2026-03-24T13:33:37.000Z</time>
      </trkpt>
      <trkpt lat="49.32893" lon="-0.54523">
        <ele>48.400001525879</ele>
        <time>2026-03-24T13:33:38.000Z</time>
      </trkpt>
      <trkpt lat="49.32894" lon="-0.54522">
        <ele>48.400001525879</ele>
        <time>2026-03-24T13:33:39.000Z</time>
      </trkpt>
      <trkpt lat="49.32895" lon="-0.54521">
        <ele>48.400001525879</ele>
        <time>2026-03-24T13:33:40.000Z</time>
      </trkpt>
      <trkpt lat="49.32896" lon="-0.54521">
        <ele>48.400001525879</ele>
        <time>2026-03-24T13:33:41.000Z</time>
      </trkpt>
      <trkpt lat="49.32897" lon="-0.54521">
        <ele>48.400001525879</ele>
        <time>2026-03-24T13:33:42.000Z</time>
      </trkpt>
      <trkpt lat="49.32898" lon="-0.5452">
        <ele>48.599998474121</ele>
        <time>2026-03-24T13:33:43.000Z</time>
      </trkpt>
      <trkpt lat="49.32899" lon="-0.5452">
        <ele>48.599998474121</ele>
        <time>2026-03-24T13:33:44.000Z</time>
      </trkpt>
      <trkpt lat="49.329" lon="-0.5452">
        <ele>48.599998474121</ele>
        <time>2026-03-24T13:33:45.000Z</time>
      </trkpt>
      <trkpt lat="49.32901" lon="-0.54519">
        <ele>48.599998474121</ele>
        <time>2026-03-24T13:33:46.000Z</time>
      </trkpt>
      <trkpt lat="49.32902" lon="-0.54518">
        <ele>48.599998474121</ele>
        <time>2026-03-24T13:33:47.000Z</time>
      </trkpt>
      <trkpt lat="49.32903" lon="-0.54518">
        <ele>48.599998474121</ele>
        <time>2026-03-24T13:33:48.000Z</time>
      </trkpt>
      <trkpt lat="49.32904" lon="-0.54517">
        <ele>48.799999237061</ele>
        <time>2026-03-24T13:33:49.000Z</time>
      </trkpt>
      <trkpt lat="49.32905" lon="-0.54516">
        <ele>48.799999237061</ele>
        <time>2026-03-24T13:33:50.000Z</time>
      </trkpt>
      <trkpt lat="49.32906" lon="-0.54516">
        <ele>48.799999237061</ele>
        <time>2026-03-24T13:33:51.000Z</time>
      </trkpt>
      <trkpt lat="49.32907" lon="-0.54515">
        <ele>48.799999237061</ele>
        <time>2026-03-24T13:33:52.000Z</time>
      </trkpt>
      <trkpt lat="49.32908" lon="-0.54515">
        <ele>48.799999237061</ele>
        <time>2026-03-24T13:33:53.000Z</time>
      </trkpt>
      <trkpt lat="49.32909" lon="-0.54514">
        <ele>48.799999237061</ele>
        <time>2026-03-24T13:33:54.000Z</time>
      </trkpt>
      <trkpt lat="49.3291" lon="-0.54514">
        <ele>49</ele>
        <time>2026-03-24T13:33:55.000Z</time>
      </trkpt>
      <trkpt lat="49.32911" lon="-0.54513">
        <ele>49</ele>
        <time>2026-03-24T13:33:56.000Z</time>
      </trkpt>
      <trkpt lat="49.32912" lon="-0.54513">
        <ele>49</ele>
        <time>2026-03-24T13:33:57.000Z</time>
      </trkpt>
      <trkpt lat="49.32913" lon="-0.54512">
        <ele>49</ele>
        <time>2026-03-24T13:33:58.000Z</time>
      </trkpt>
      <trkpt lat="49.32914" lon="-0.54511">
        <ele>49</ele>
        <time>2026-03-24T13:33:59.000Z</time>
      </trkpt>
      <trkpt lat="49.32915" lon="-0.54511">
        <ele>49</ele>
        <time>2026-03-24T13:34:00.000Z</time>
      </trkpt>
      <trkpt lat="49.32916" lon="-0.5451">
        <ele>49</ele>
        <time>2026-03-24T13:34:01.000Z</time>
      </trkpt>
      <trkpt lat="49.32917" lon="-0.5451">
        <ele>49</ele>
        <time>2026-03-24T13:34:02.000Z</time>
      </trkpt>
      <trkpt lat="49.32918" lon="-0.54509">
        <ele>49</ele>
        <time>2026-03-24T13:34:03.000Z</time>
      </trkpt>
      <trkpt lat="49.32919" lon="-0.54508">
        <ele>49</ele>
        <time>2026-03-24T13:34:04.000Z</time>
      </trkpt>
      <trkpt lat="49.32921" lon="-0.54508">
        <ele>49</ele>
        <time>2026-03-24T13:34:05.000Z</time>
      </trkpt>
      <trkpt lat="49.32922" lon="-0.54507">
        <ele>49</ele>
        <time>2026-03-24T13:34:06.000Z</time>
      </trkpt>
      <trkpt lat="49.32923" lon="-0.54507">
        <ele>49</ele>
        <time>2026-03-24T13:34:07.000Z</time>
      </trkpt>
      <trkpt lat="49.32924" lon="-0.54506">
        <ele>49</ele>
        <time>2026-03-24T13:34:08.000Z</time>
      </trkpt>
      <trkpt lat="49.32925" lon="-0.54506">
        <ele>49</ele>
        <time>2026-03-24T13:34:09.000Z</time>
      </trkpt>
      <trkpt lat="49.32926" lon="-0.54505">
        <ele>49</ele>
        <time>2026-03-24T13:34:10.000Z</time>
      </trkpt>
      <trkpt lat="49.32927" lon="-0.54505">
        <ele>49</ele>
        <time>2026-03-24T13:34:11.000Z</time>
      </trkpt>
      <trkpt lat="49.32928" lon="-0.54504">
        <ele>49</ele>
        <time>2026-03-24T13:34:12.000Z</time>
      </trkpt>
      <trkpt lat="49.32929" lon="-0.54504">
        <ele>49</ele>
        <time>2026-03-24T13:34:13.000Z</time>
      </trkpt>
      <trkpt lat="49.3293" lon="-0.54503">
        <ele>49</ele>
        <time>2026-03-24T13:34:14.000Z</time>
      </trkpt>
      <trkpt lat="49.32931" lon="-0.54502">
        <ele>49</ele>
        <time>2026-03-24T13:34:15.000Z</time>
      </trkpt>
      <trkpt lat="49.32932" lon="-0.54502">
        <ele>49</ele>
        <time>2026-03-24T13:34:16.000Z</time>
      </trkpt>
      <trkpt lat="49.32933" lon="-0.54501">
        <ele>49</ele>
        <time>2026-03-24T13:34:17.000Z</time>
      </trkpt>
      <trkpt lat="49.32934" lon="-0.54501">
        <ele>49</ele>
        <time>2026-03-24T13:34:18.000Z</time>
      </trkpt>
      <trkpt lat="49.32935" lon="-0.54501">
        <ele>49</ele>
        <time>2026-03-24T13:34:19.000Z</time>
      </trkpt>
      <trkpt lat="49.32936" lon="-0.545">
        <ele>49</ele>
        <time>2026-03-24T13:34:20.000Z</time>
      </trkpt>
      <trkpt lat="49.32937" lon="-0.545">
        <ele>49</ele>
        <time>2026-03-24T13:34:21.000Z</time>
      </trkpt>
      <trkpt lat="49.32938" lon="-0.54499">
        <ele>49</ele>
        <time>2026-03-24T13:34:22.000Z</time>
      </trkpt>
      <trkpt lat="49.32939" lon="-0.54498">
        <ele>48.799999237061</ele>
        <time>2026-03-24T13:34:23.000Z</time>
      </trkpt>
      <trkpt lat="49.3294" lon="-0.54498">
        <ele>48.799999237061</ele>
        <time>2026-03-24T13:34:24.000Z</time>
      </trkpt>
      <trkpt lat="49.32941" lon="-0.54497">
        <ele>48.799999237061</ele>
        <time>2026-03-24T13:34:25.000Z</time>
      </trkpt>
      <trkpt lat="49.32942" lon="-0.54497">
        <ele>48.799999237061</ele>
        <time>2026-03-24T13:34:26.000Z</time>
      </trkpt>
      <trkpt lat="49.32943" lon="-0.54496">
        <ele>48.799999237061</ele>
        <time>2026-03-24T13:34:27.000Z</time>
      </trkpt>
      <trkpt lat="49.32944" lon="-0.54496">
        <ele>48.799999237061</ele>
        <time>2026-03-24T13:34:28.000Z</time>
      </trkpt>
      <trkpt lat="49.32945" lon="-0.54495">
        <ele>48.799999237061</ele>
        <time>2026-03-24T13:34:29.000Z</time>
      </trkpt>
      <trkpt lat="49.32946" lon="-0.54495">
        <ele>48.799999237061</ele>
        <time>2026-03-24T13:34:30.000Z</time>
      </trkpt>
      <trkpt lat="49.32947" lon="-0.54494">
        <ele>48.799999237061</ele>
        <time>2026-03-24T13:34:31.000Z</time>
      </trkpt>
      <trkpt lat="49.32948" lon="-0.54493">
        <ele>48.799999237061</ele>
        <time>2026-03-24T13:34:32.000Z</time>
      </trkpt>
      <trkpt lat="49.32949" lon="-0.54493">
        <ele>48.599998474121</ele>
        <time>2026-03-24T13:34:33.000Z</time>
      </trkpt>
      <trkpt lat="49.3295" lon="-0.54492">
        <ele>48.599998474121</ele>
        <time>2026-03-24T13:34:34.000Z</time>
      </trkpt>
      <trkpt lat="49.32951" lon="-0.54492">
        <ele>48.599998474121</ele>
        <time>2026-03-24T13:34:35.000Z</time>
      </trkpt>
      <trkpt lat="49.32952" lon="-0.54492">
        <ele>48.599998474121</ele>
        <time>2026-03-24T13:34:36.000Z</time>
      </trkpt>
      <trkpt lat="49.32953" lon="-0.54491">
        <ele>48.599998474121</ele>
        <time>2026-03-24T13:34:37.000Z</time>
      </trkpt>
      <trkpt lat="49.32955" lon="-0.54491">
        <ele>48.400001525879</ele>
        <time>2026-03-24T13:34:38.000Z</time>
      </trkpt>
      <trkpt lat="49.32956" lon="-0.54491">
        <ele>48.400001525879</ele>
        <time>2026-03-24T13:34:39.000Z</time>
      </trkpt>
      <trkpt lat="49.32957" lon="-0.54491">
        <ele>48.400001525879</ele>
        <time>2026-03-24T13:34:40.000Z</time>
      </trkpt>
      <trkpt lat="49.32958" lon="-0.5449">
        <ele>48.400001525879</ele>
        <time>2026-03-24T13:34:41.000Z</time>
      </trkpt>
      <trkpt lat="49.32959" lon="-0.54489">
        <ele>48.200000762939</ele>
        <time>2026-03-24T13:34:42.000Z</time>
      </trkpt>
      <trkpt lat="49.3296" lon="-0.54489">
        <ele>48.200000762939</ele>
        <time>2026-03-24T13:34:43.000Z</time>
      </trkpt>
      <trkpt lat="49.32961" lon="-0.54488">
        <ele>48.200000762939</ele>
        <time>2026-03-24T13:34:44.000Z</time>
      </trkpt>
      <trkpt lat="49.32963" lon="-0.54488">
        <ele>48.200000762939</ele>
        <time>2026-03-24T13:34:45.000Z</time>
      </trkpt>
      <trkpt lat="49.32963" lon="-0.54487">
        <ele>48.200000762939</ele>
        <time>2026-03-24T13:34:46.000Z</time>
      </trkpt>
      <trkpt lat="49.32964" lon="-0.54486">
        <ele>48.200000762939</ele>
        <time>2026-03-24T13:34:47.000Z</time>
      </trkpt>
      <trkpt lat="49.32965" lon="-0.54486">
        <ele>48</ele>
        <time>2026-03-24T13:34:48.000Z</time>
      </trkpt>
      <trkpt lat="49.32966" lon="-0.54485">
        <ele>48</ele>
        <time>2026-03-24T13:34:49.000Z</time>
      </trkpt>
      <trkpt lat="49.32967" lon="-0.54484">
        <ele>48</ele>
        <time>2026-03-24T13:34:50.000Z</time>
      </trkpt>
      <trkpt lat="49.32968" lon="-0.54484">
        <ele>48</ele>
        <time>2026-03-24T13:34:51.000Z</time>
      </trkpt>
      <trkpt lat="49.32969" lon="-0.54483">
        <ele>48</ele>
        <time>2026-03-24T13:34:52.000Z</time>
      </trkpt>
      <trkpt lat="49.32971" lon="-0.54483">
        <ele>48</ele>
        <time>2026-03-24T13:34:53.000Z</time>
      </trkpt>
      <trkpt lat="49.32972" lon="-0.54482">
        <ele>48</ele>
        <time>2026-03-24T13:34:54.000Z</time>
      </trkpt>
      <trkpt lat="49.32973" lon="-0.54482">
        <ele>48</ele>
        <time>2026-03-24T13:34:55.000Z</time>
      </trkpt>
      <trkpt lat="49.32974" lon="-0.54481">
        <ele>48</ele>
        <time>2026-03-24T13:34:56.000Z</time>
      </trkpt>
      <trkpt lat="49.32975" lon="-0.5448">
        <ele>48</ele>
        <time>2026-03-24T13:34:57.000Z</time>
      </trkpt>
      <trkpt lat="49.32976" lon="-0.5448">
        <ele>48</ele>
        <time>2026-03-24T13:34:58.000Z</time>
      </trkpt>
      <trkpt lat="49.32977" lon="-0.54479">
        <ele>48</ele>
        <time>2026-03-24T13:34:59.000Z</time>
      </trkpt>
      <trkpt lat="49.32978" lon="-0.54479">
        <ele>48</ele>
        <time>2026-03-24T13:35:00.000Z</time>
      </trkpt>
      <trkpt lat="49.32979" lon="-0.54478">
        <ele>48</ele>
        <time>2026-03-24T13:35:01.000Z</time>
      </trkpt>
      <trkpt lat="49.3298" lon="-0.54478">
        <ele>48</ele>
        <time>2026-03-24T13:35:02.000Z</time>
      </trkpt>
      <trkpt lat="49.32982" lon="-0.54477">
        <ele>48</ele>
        <time>2026-03-24T13:35:03.000Z</time>
      </trkpt>
      <trkpt lat="49.32983" lon="-0.54476">
        <ele>48</ele>
        <time>2026-03-24T13:35:04.000Z</time>
      </trkpt>
      <trkpt lat="49.32984" lon="-0.54475">
        <ele>48</ele>
        <time>2026-03-24T13:35:05.000Z</time>
      </trkpt>
      <trkpt lat="49.32985" lon="-0.54475">
        <ele>48</ele>
        <time>2026-03-24T13:35:06.000Z</time>
      </trkpt>
      <trkpt lat="49.32986" lon="-0.54474">
        <ele>48</ele>
        <time>2026-03-24T13:35:07.000Z</time>
      </trkpt>
      <trkpt lat="49.32987" lon="-0.54474">
        <ele>48</ele>
        <time>2026-03-24T13:35:08.000Z</time>
      </trkpt>
      <trkpt lat="49.32988" lon="-0.54473">
        <ele>48</ele>
        <time>2026-03-24T13:35:09.000Z</time>
      </trkpt>
      <trkpt lat="49.32989" lon="-0.54473">
        <ele>48</ele>
        <time>2026-03-24T13:35:10.000Z</time>
      </trkpt>
      <trkpt lat="49.3299" lon="-0.54472">
        <ele>48</ele>
        <time>2026-03-24T13:35:11.000Z</time>
      </trkpt>
      <trkpt lat="49.32991" lon="-0.54472">
        <ele>48</ele>
        <time>2026-03-24T13:35:12.000Z</time>
      </trkpt>
      <trkpt lat="49.32992" lon="-0.54471">
        <ele>48</ele>
        <time>2026-03-24T13:35:13.000Z</time>
      </trkpt>
      <trkpt lat="49.32993" lon="-0.54471">
        <ele>48</ele>
        <time>2026-03-24T13:35:14.000Z</time>
      </trkpt>
      <trkpt lat="49.32994" lon="-0.5447">
        <ele>47.799999237061</ele>
        <time>2026-03-24T13:35:15.000Z</time>
      </trkpt>
      <trkpt lat="49.32996" lon="-0.5447">
        <ele>47.799999237061</ele>
        <time>2026-03-24T13:35:16.000Z</time>
      </trkpt>
      <trkpt lat="49.32997" lon="-0.54469">
        <ele>47.799999237061</ele>
        <time>2026-03-24T13:35:17.000Z</time>
      </trkpt>
      <trkpt lat="49.32998" lon="-0.54469">
        <ele>47.799999237061</ele>
        <time>2026-03-24T13:35:18.000Z</time>
      </trkpt>
      <trkpt lat="49.32999" lon="-0.54468">
        <ele>47.799999237061</ele>
        <time>2026-03-24T13:35:19.000Z</time>
      </trkpt>
      <trkpt lat="49.33" lon="-0.54468">
        <ele>47.799999237061</ele>
        <time>2026-03-24T13:35:20.000Z</time>
      </trkpt>
      <trkpt lat="49.33001" lon="-0.54467">
        <ele>47.799999237061</ele>
        <time>2026-03-24T13:35:21.000Z</time>
      </trkpt>
      <trkpt lat="49.33002" lon="-0.54466">
        <ele>47.799999237061</ele>
        <time>2026-03-24T13:35:22.000Z</time>
      </trkpt>
      <trkpt lat="49.33003" lon="-0.54466">
        <ele>47.799999237061</ele>
        <time>2026-03-24T13:35:23.000Z</time>
      </trkpt>
      <trkpt lat="49.33004" lon="-0.54465">
        <ele>47.599998474121</ele>
        <time>2026-03-24T13:35:24.000Z</time>
      </trkpt>
      <trkpt lat="49.33005" lon="-0.54464">
        <ele>47.599998474121</ele>
        <time>2026-03-24T13:35:25.000Z</time>
      </trkpt>
      <trkpt lat="49.33006" lon="-0.54464">
        <ele>47.599998474121</ele>
        <time>2026-03-24T13:35:26.000Z</time>
      </trkpt>
      <trkpt lat="49.33007" lon="-0.54463">
        <ele>47.599998474121</ele>
        <time>2026-03-24T13:35:27.000Z</time>
      </trkpt>
      <trkpt lat="49.33008" lon="-0.54463">
        <ele>47.599998474121</ele>
        <time>2026-03-24T13:35:28.000Z</time>
      </trkpt>
      <trkpt lat="49.33009" lon="-0.54462">
        <ele>47.599998474121</ele>
        <time>2026-03-24T13:35:29.000Z</time>
      </trkpt>
      <trkpt lat="49.3301" lon="-0.54462">
        <ele>47.599998474121</ele>
        <time>2026-03-24T13:35:30.000Z</time>
      </trkpt>
      <trkpt lat="49.33011" lon="-0.54461">
        <ele>47.599998474121</ele>
        <time>2026-03-24T13:35:31.000Z</time>
      </trkpt>
      <trkpt lat="49.33012" lon="-0.54461">
        <ele>47.599998474121</ele>
        <time>2026-03-24T13:35:32.000Z</time>
      </trkpt>
      <trkpt lat="49.33013" lon="-0.54461">
        <ele>47.599998474121</ele>
        <time>2026-03-24T13:35:33.000Z</time>
      </trkpt>
      <trkpt lat="49.33014" lon="-0.5446">
        <ele>47.599998474121</ele>
        <time>2026-03-24T13:35:34.000Z</time>
      </trkpt>
      <trkpt lat="49.33015" lon="-0.54459">
        <ele>47.400001525879</ele>
        <time>2026-03-24T13:35:35.000Z</time>
      </trkpt>
      <trkpt lat="49.33016" lon="-0.54459">
        <ele>47.400001525879</ele>
        <time>2026-03-24T13:35:36.000Z</time>
      </trkpt>
      <trkpt lat="49.33017" lon="-0.54458">
        <ele>47.400001525879</ele>
        <time>2026-03-24T13:35:37.000Z</time>
      </trkpt>
      <trkpt lat="49.33018" lon="-0.54458">
        <ele>47.400001525879</ele>
        <time>2026-03-24T13:35:38.000Z</time>
      </trkpt>
      <trkpt lat="49.33019" lon="-0.54457">
        <ele>47.400001525879</ele>
        <time>2026-03-24T13:35:39.000Z</time>
      </trkpt>
      <trkpt lat="49.3302" lon="-0.54456">
        <ele>47.400001525879</ele>
        <time>2026-03-24T13:35:40.000Z</time>
      </trkpt>
      <trkpt lat="49.33021" lon="-0.54456">
        <ele>47.400001525879</ele>
        <time>2026-03-24T13:35:41.000Z</time>
      </trkpt>
      <trkpt lat="49.33022" lon="-0.54455">
        <ele>47.400001525879</ele>
        <time>2026-03-24T13:35:42.000Z</time>
      </trkpt>
      <trkpt lat="49.33023" lon="-0.54454">
        <ele>47.400001525879</ele>
        <time>2026-03-24T13:35:43.000Z</time>
      </trkpt>
      <trkpt lat="49.33025" lon="-0.54454">
        <ele>47.400001525879</ele>
        <time>2026-03-24T13:35:44.000Z</time>
      </trkpt>
      <trkpt lat="49.33026" lon="-0.54453">
        <ele>47.400001525879</ele>
        <time>2026-03-24T13:35:45.000Z</time>
      </trkpt>
      <trkpt lat="49.33027" lon="-0.54453">
        <ele>47.400001525879</ele>
        <time>2026-03-24T13:35:46.000Z</time>
      </trkpt>
      <trkpt lat="49.33028" lon="-0.54452">
        <ele>47.400001525879</ele>
        <time>2026-03-24T13:35:47.000Z</time>
      </trkpt>
      <trkpt lat="49.3303" lon="-0.54452">
        <ele>47.400001525879</ele>
        <time>2026-03-24T13:35:48.000Z</time>
      </trkpt>
      <trkpt lat="49.33031" lon="-0.54451">
        <ele>47.400001525879</ele>
        <time>2026-03-24T13:35:49.000Z</time>
      </trkpt>
      <trkpt lat="49.33032" lon="-0.54451">
        <ele>47.400001525879</ele>
        <time>2026-03-24T13:35:50.000Z</time>
      </trkpt>
      <trkpt lat="49.33033" lon="-0.5445">
        <ele>47.599998474121</ele>
        <time>2026-03-24T13:35:51.000Z</time>
      </trkpt>
      <trkpt lat="49.33034" lon="-0.5445">
        <ele>47.599998474121</ele>
        <time>2026-03-24T13:35:52.000Z</time>
      </trkpt>
      <trkpt lat="49.33035" lon="-0.54449">
        <ele>47.599998474121</ele>
        <time>2026-03-24T13:35:53.000Z</time>
      </trkpt>
      <trkpt lat="49.33036" lon="-0.54449">
        <ele>47.599998474121</ele>
        <time>2026-03-24T13:35:54.000Z</time>
      </trkpt>
      <trkpt lat="49.33037" lon="-0.54449">
        <ele>47.599998474121</ele>
        <time>2026-03-24T13:35:55.000Z</time>
      </trkpt>
      <trkpt lat="49.33038" lon="-0.54448">
        <ele>47.599998474121</ele>
        <time>2026-03-24T13:35:56.000Z</time>
      </trkpt>
      <trkpt lat="49.3304" lon="-0.54448">
        <ele>47.599998474121</ele>
        <time>2026-03-24T13:35:57.000Z</time>
      </trkpt>
      <trkpt lat="49.33041" lon="-0.54447">
        <ele>47.599998474121</ele>
        <time>2026-03-24T13:35:58.000Z</time>
      </trkpt>
      <trkpt lat="49.33042" lon="-0.54447">
        <ele>47.799999237061</ele>
        <time>2026-03-24T13:35:59.000Z</time>
      </trkpt>
      <trkpt lat="49.33043" lon="-0.54446">
        <ele>47.799999237061</ele>
        <time>2026-03-24T13:36:00.000Z</time>
      </trkpt>
      <trkpt lat="49.33043" lon="-0.54445">
        <ele>47.799999237061</ele>
        <time>2026-03-24T13:36:01.000Z</time>
      </trkpt>
      <trkpt lat="49.33044" lon="-0.54445">
        <ele>47.799999237061</ele>
        <time>2026-03-24T13:36:02.000Z</time>
      </trkpt>
      <trkpt lat="49.33045" lon="-0.54444">
        <ele>47.799999237061</ele>
        <time>2026-03-24T13:36:03.000Z</time>
      </trkpt>
      <trkpt lat="49.33046" lon="-0.54444">
        <ele>47.799999237061</ele>
        <time>2026-03-24T13:36:04.000Z</time>
      </trkpt>
      <trkpt lat="49.33047" lon="-0.54443">
        <ele>47.799999237061</ele>
        <time>2026-03-24T13:36:05.000Z</time>
      </trkpt>
      <trkpt lat="49.33049" lon="-0.54443">
        <ele>47.799999237061</ele>
        <time>2026-03-24T13:36:06.000Z</time>
      </trkpt>
      <trkpt lat="49.3305" lon="-0.54442">
        <ele>47.799999237061</ele>
        <time>2026-03-24T13:36:07.000Z</time>
      </trkpt>
      <trkpt lat="49.33051" lon="-0.54441">
        <ele>47.799999237061</ele>
        <time>2026-03-24T13:36:08.000Z</time>
      </trkpt>
      <trkpt lat="49.33052" lon="-0.54441">
        <ele>47.799999237061</ele>
        <time>2026-03-24T13:36:09.000Z</time>
      </trkpt>
      <trkpt lat="49.33053" lon="-0.5444">
        <ele>47.799999237061</ele>
        <time>2026-03-24T13:36:10.000Z</time>
      </trkpt>
      <trkpt lat="49.33054" lon="-0.5444">
        <ele>47.799999237061</ele>
        <time>2026-03-24T13:36:11.000Z</time>
      </trkpt>
      <trkpt lat="49.33055" lon="-0.54439">
        <ele>47.799999237061</ele>
        <time>2026-03-24T13:36:12.000Z</time>
      </trkpt>
      <trkpt lat="49.33056" lon="-0.54439">
        <ele>47.799999237061</ele>
        <time>2026-03-24T13:36:13.000Z</time>
      </trkpt>
      <trkpt lat="49.33057" lon="-0.54439">
        <ele>47.799999237061</ele>
        <time>2026-03-24T13:36:14.000Z</time>
      </trkpt>
      <trkpt lat="49.33059" lon="-0.54438">
        <ele>47.799999237061</ele>
        <time>2026-03-24T13:36:15.000Z</time>
      </trkpt>
      <trkpt lat="49.3306" lon="-0.54438">
        <ele>47.799999237061</ele>
        <time>2026-03-24T13:36:16.000Z</time>
      </trkpt>
      <trkpt lat="49.33061" lon="-0.54438">
        <ele>47.799999237061</ele>
        <time>2026-03-24T13:36:17.000Z</time>
      </trkpt>
      <trkpt lat="49.33062" lon="-0.54437">
        <ele>47.599998474121</ele>
        <time>2026-03-24T13:36:18.000Z</time>
      </trkpt>
      <trkpt lat="49.33063" lon="-0.54437">
        <ele>47.599998474121</ele>
        <time>2026-03-24T13:36:19.000Z</time>
      </trkpt>
      <trkpt lat="49.33064" lon="-0.54437">
        <ele>47.599998474121</ele>
        <time>2026-03-24T13:36:20.000Z</time>
      </trkpt>
      <trkpt lat="49.33065" lon="-0.54436">
        <ele>47.599998474121</ele>
        <time>2026-03-24T13:36:21.000Z</time>
      </trkpt>
      <trkpt lat="49.33066" lon="-0.54436">
        <ele>47.599998474121</ele>
        <time>2026-03-24T13:36:22.000Z</time>
      </trkpt>
      <trkpt lat="49.33067" lon="-0.54435">
        <ele>47.599998474121</ele>
        <time>2026-03-24T13:36:23.000Z</time>
      </trkpt>
      <trkpt lat="49.33068" lon="-0.54434">
        <ele>47.599998474121</ele>
        <time>2026-03-24T13:36:24.000Z</time>
      </trkpt>
      <trkpt lat="49.33069" lon="-0.54434">
        <ele>47.599998474121</ele>
        <time>2026-03-24T13:36:25.000Z</time>
      </trkpt>
      <trkpt lat="49.3307" lon="-0.54433">
        <ele>47.599998474121</ele>
        <time>2026-03-24T13:36:26.000Z</time>
      </trkpt>
      <trkpt lat="49.33071" lon="-0.54432">
        <ele>47.599998474121</ele>
        <time>2026-03-24T13:36:27.000Z</time>
      </trkpt>
      <trkpt lat="49.33072" lon="-0.54432">
        <ele>47.400001525879</ele>
        <time>2026-03-24T13:36:28.000Z</time>
      </trkpt>
      <trkpt lat="49.33073" lon="-0.54431">
        <ele>47.400001525879</ele>
        <time>2026-03-24T13:36:29.000Z</time>
      </trkpt>
      <trkpt lat="49.33074" lon="-0.54431">
        <ele>47.400001525879</ele>
        <time>2026-03-24T13:36:30.000Z</time>
      </trkpt>
      <trkpt lat="49.33075" lon="-0.5443">
        <ele>47.400001525879</ele>
        <time>2026-03-24T13:36:31.000Z</time>
      </trkpt>
      <trkpt lat="49.33076" lon="-0.54429">
        <ele>47.400001525879</ele>
        <time>2026-03-24T13:36:32.000Z</time>
      </trkpt>
      <trkpt lat="49.33077" lon="-0.54429">
        <ele>47.400001525879</ele>
        <time>2026-03-24T13:36:33.000Z</time>
      </trkpt>
      <trkpt lat="49.33078" lon="-0.54428">
        <ele>47.400001525879</ele>
        <time>2026-03-24T13:36:34.000Z</time>
      </trkpt>
      <trkpt lat="49.33079" lon="-0.54428">
        <ele>47.400001525879</ele>
        <time>2026-03-24T13:36:35.000Z</time>
      </trkpt>
      <trkpt lat="49.3308" lon="-0.54427">
        <ele>47.400001525879</ele>
        <time>2026-03-24T13:36:36.000Z</time>
      </trkpt>
      <trkpt lat="49.33081" lon="-0.54427">
        <ele>47.400001525879</ele>
        <time>2026-03-24T13:36:37.000Z</time>
      </trkpt>
      <trkpt lat="49.33082" lon="-0.54426">
        <ele>47.200000762939</ele>
        <time>2026-03-24T13:36:38.000Z</time>
      </trkpt>
      <trkpt lat="49.33083" lon="-0.54425">
        <ele>47.200000762939</ele>
        <time>2026-03-24T13:36:39.000Z</time>
      </trkpt>
      <trkpt lat="49.33084" lon="-0.54424">
        <ele>47.200000762939</ele>
        <time>2026-03-24T13:36:40.000Z</time>
      </trkpt>
      <trkpt lat="49.33085" lon="-0.54424">
        <ele>47.200000762939</ele>
        <time>2026-03-24T13:36:41.000Z</time>
      </trkpt>
      <trkpt lat="49.33086" lon="-0.54423">
        <ele>47.200000762939</ele>
        <time>2026-03-24T13:36:42.000Z</time>
      </trkpt>
      <trkpt lat="49.33087" lon="-0.54423">
        <ele>47.200000762939</ele>
        <time>2026-03-24T13:36:43.000Z</time>
      </trkpt>
      <trkpt lat="49.33088" lon="-0.54423">
        <ele>47.200000762939</ele>
        <time>2026-03-24T13:36:44.000Z</time>
      </trkpt>
      <trkpt lat="49.33089" lon="-0.54423">
        <ele>47.200000762939</ele>
        <time>2026-03-24T13:36:45.000Z</time>
      </trkpt>
      <trkpt lat="49.3309" lon="-0.54422">
        <ele>47.200000762939</ele>
        <time>2026-03-24T13:36:46.000Z</time>
      </trkpt>
      <trkpt lat="49.33091" lon="-0.54421">
        <ele>47.200000762939</ele>
        <time>2026-03-24T13:36:47.000Z</time>
      </trkpt>
      <trkpt lat="49.33092" lon="-0.54421">
        <ele>47.200000762939</ele>
        <time>2026-03-24T13:36:48.000Z</time>
      </trkpt>
      <trkpt lat="49.33093" lon="-0.5442">
        <ele>47</ele>
        <time>2026-03-24T13:36:49.000Z</time>
      </trkpt>
      <trkpt lat="49.33094" lon="-0.5442">
        <ele>47</ele>
        <time>2026-03-24T13:36:50.000Z</time>
      </trkpt>
      <trkpt lat="49.33096" lon="-0.5442">
        <ele>47</ele>
        <time>2026-03-24T13:36:51.000Z</time>
      </trkpt>
      <trkpt lat="49.33097" lon="-0.54419">
        <ele>47</ele>
        <time>2026-03-24T13:36:52.000Z</time>
      </trkpt>
      <trkpt lat="49.33098" lon="-0.54419">
        <ele>47</ele>
        <time>2026-03-24T13:36:53.000Z</time>
      </trkpt>
      <trkpt lat="49.33099" lon="-0.54419">
        <ele>47</ele>
        <time>2026-03-24T13:36:54.000Z</time>
      </trkpt>
      <trkpt lat="49.331" lon="-0.54419">
        <ele>47</ele>
        <time>2026-03-24T13:36:55.000Z</time>
      </trkpt>
      <trkpt lat="49.33101" lon="-0.54418">
        <ele>47</ele>
        <time>2026-03-24T13:36:56.000Z</time>
      </trkpt>
      <trkpt lat="49.33102" lon="-0.54417">
        <ele>47</ele>
        <time>2026-03-24T13:36:57.000Z</time>
      </trkpt>
      <trkpt lat="49.33104" lon="-0.54417">
        <ele>47</ele>
        <time>2026-03-24T13:36:58.000Z</time>
      </trkpt>
      <trkpt lat="49.33105" lon="-0.54416">
        <ele>47</ele>
        <time>2026-03-24T13:36:59.000Z</time>
      </trkpt>
      <trkpt lat="49.33106" lon="-0.54415">
        <ele>47</ele>
        <time>2026-03-24T13:37:00.000Z</time>
      </trkpt>
      <trkpt lat="49.33107" lon="-0.54415">
        <ele>47</ele>
        <time>2026-03-24T13:37:01.000Z</time>
      </trkpt>
      <trkpt lat="49.33108" lon="-0.54415">
        <ele>47</ele>
        <time>2026-03-24T13:37:02.000Z</time>
      </trkpt>
      <trkpt lat="49.3311" lon="-0.54415">
        <ele>47.200000762939</ele>
        <time>2026-03-24T13:37:03.000Z</time>
      </trkpt>
      <trkpt lat="49.33111" lon="-0.54414">
        <ele>47.200000762939</ele>
        <time>2026-03-24T13:37:04.000Z</time>
      </trkpt>
      <trkpt lat="49.33112" lon="-0.54413">
        <ele>47.200000762939</ele>
        <time>2026-03-24T13:37:05.000Z</time>
      </trkpt>
      <trkpt lat="49.33113" lon="-0.54413">
        <ele>47.200000762939</ele>
        <time>2026-03-24T13:37:06.000Z</time>
      </trkpt>
      <trkpt lat="49.33114" lon="-0.54412">
        <ele>47.200000762939</ele>
        <time>2026-03-24T13:37:07.000Z</time>
      </trkpt>
      <trkpt lat="49.33115" lon="-0.54412">
        <ele>47.200000762939</ele>
        <time>2026-03-24T13:37:08.000Z</time>
      </trkpt>
      <trkpt lat="49.33116" lon="-0.54411">
        <ele>47.200000762939</ele>
        <time>2026-03-24T13:37:09.000Z</time>
      </trkpt>
      <trkpt lat="49.33117" lon="-0.5441">
        <ele>47.200000762939</ele>
        <time>2026-03-24T13:37:10.000Z</time>
      </trkpt>
      <trkpt lat="49.33118" lon="-0.5441">
        <ele>47.200000762939</ele>
        <time>2026-03-24T13:37:11.000Z</time>
      </trkpt>
      <trkpt lat="49.33119" lon="-0.54409">
        <ele>47.400001525879</ele>
        <time>2026-03-24T13:37:12.000Z</time>
      </trkpt>
      <trkpt lat="49.3312" lon="-0.54408">
        <ele>47.400001525879</ele>
        <time>2026-03-24T13:37:13.000Z</time>
      </trkpt>
      <trkpt lat="49.33121" lon="-0.54408">
        <ele>47.400001525879</ele>
        <time>2026-03-24T13:37:14.000Z</time>
      </trkpt>
      <trkpt lat="49.33122" lon="-0.54407">
        <ele>47.400001525879</ele>
        <time>2026-03-24T13:37:15.000Z</time>
      </trkpt>
      <trkpt lat="49.33123" lon="-0.54406">
        <ele>47.400001525879</ele>
        <time>2026-03-24T13:37:16.000Z</time>
      </trkpt>
      <trkpt lat="49.33124" lon="-0.54406">
        <ele>47.400001525879</ele>
        <time>2026-03-24T13:37:17.000Z</time>
      </trkpt>
      <trkpt lat="49.33125" lon="-0.54405">
        <ele>47.400001525879</ele>
        <time>2026-03-24T13:37:18.000Z</time>
      </trkpt>
      <trkpt lat="49.33126" lon="-0.54404">
        <ele>47.400001525879</ele>
        <time>2026-03-24T13:37:19.000Z</time>
      </trkpt>
      <trkpt lat="49.33127" lon="-0.54404">
        <ele>47.599998474121</ele>
        <time>2026-03-24T13:37:20.000Z</time>
      </trkpt>
      <trkpt lat="49.33128" lon="-0.54403">
        <ele>47.599998474121</ele>
        <time>2026-03-24T13:37:21.000Z</time>
      </trkpt>
      <trkpt lat="49.33129" lon="-0.54402">
        <ele>47.599998474121</ele>
        <time>2026-03-24T13:37:22.000Z</time>
      </trkpt>
      <trkpt lat="49.3313" lon="-0.54402">
        <ele>47.599998474121</ele>
        <time>2026-03-24T13:37:23.000Z</time>
      </trkpt>
      <trkpt lat="49.33131" lon="-0.54401">
        <ele>47.599998474121</ele>
        <time>2026-03-24T13:37:24.000Z</time>
      </trkpt>
      <trkpt lat="49.33132" lon="-0.544">
        <ele>47.599998474121</ele>
        <time>2026-03-24T13:37:25.000Z</time>
      </trkpt>
      <trkpt lat="49.33133" lon="-0.544">
        <ele>47.599998474121</ele>
        <time>2026-03-24T13:37:26.000Z</time>
      </trkpt>
      <trkpt lat="49.33134" lon="-0.544">
        <ele>47.599998474121</ele>
        <time>2026-03-24T13:37:27.000Z</time>
      </trkpt>
      <trkpt lat="49.33136" lon="-0.54399">
        <ele>47.599998474121</ele>
        <time>2026-03-24T13:37:28.000Z</time>
      </trkpt>
      <trkpt lat="49.33137" lon="-0.54398">
        <ele>47.799999237061</ele>
        <time>2026-03-24T13:37:29.000Z</time>
      </trkpt>
      <trkpt lat="49.33138" lon="-0.54397">
        <ele>47.799999237061</ele>
        <time>2026-03-24T13:37:30.000Z</time>
      </trkpt>
      <trkpt lat="49.33139" lon="-0.54397">
        <ele>47.799999237061</ele>
        <time>2026-03-24T13:37:31.000Z</time>
      </trkpt>
      <trkpt lat="49.3314" lon="-0.54396">
        <ele>47.799999237061</ele>
        <time>2026-03-24T13:37:32.000Z</time>
      </trkpt>
      <trkpt lat="49.33141" lon="-0.54396">
        <ele>47.799999237061</ele>
        <time>2026-03-24T13:37:33.000Z</time>
      </trkpt>
      <trkpt lat="49.33142" lon="-0.54395">
        <ele>47.799999237061</ele>
        <time>2026-03-24T13:37:34.000Z</time>
      </trkpt>
      <trkpt lat="49.33143" lon="-0.54394">
        <ele>47.799999237061</ele>
        <time>2026-03-24T13:37:35.000Z</time>
      </trkpt>
      <trkpt lat="49.33144" lon="-0.54394">
        <ele>47.799999237061</ele>
        <time>2026-03-24T13:37:36.000Z</time>
      </trkpt>
      <trkpt lat="49.33145" lon="-0.54393">
        <ele>47.799999237061</ele>
        <time>2026-03-24T13:37:37.000Z</time>
      </trkpt>
      <trkpt lat="49.33146" lon="-0.54392">
        <ele>48</ele>
        <time>2026-03-24T13:37:38.000Z</time>
      </trkpt>
      <trkpt lat="49.33147" lon="-0.54392">
        <ele>48</ele>
        <time>2026-03-24T13:37:39.000Z</time>
      </trkpt>
      <trkpt lat="49.33148" lon="-0.54391">
        <ele>48</ele>
        <time>2026-03-24T13:37:40.000Z</time>
      </trkpt>
      <trkpt lat="49.33149" lon="-0.5439">
        <ele>48</ele>
        <time>2026-03-24T13:37:41.000Z</time>
      </trkpt>
      <trkpt lat="49.3315" lon="-0.5439">
        <ele>48</ele>
        <time>2026-03-24T13:37:42.000Z</time>
      </trkpt>
      <trkpt lat="49.33152" lon="-0.54389">
        <ele>48</ele>
        <time>2026-03-24T13:37:43.000Z</time>
      </trkpt>
      <trkpt lat="49.33153" lon="-0.54389">
        <ele>48</ele>
        <time>2026-03-24T13:37:44.000Z</time>
      </trkpt>
      <trkpt lat="49.33154" lon="-0.54388">
        <ele>48</ele>
        <time>2026-03-24T13:37:45.000Z</time>
      </trkpt>
      <trkpt lat="49.33155" lon="-0.54388">
        <ele>48</ele>
        <time>2026-03-24T13:37:46.000Z</time>
      </trkpt>
      <trkpt lat="49.33156" lon="-0.54387">
        <ele>48</ele>
        <time>2026-03-24T13:37:47.000Z</time>
      </trkpt>
      <trkpt lat="49.33158" lon="-0.54387">
        <ele>48</ele>
        <time>2026-03-24T13:37:48.000Z</time>
      </trkpt>
      <trkpt lat="49.33159" lon="-0.54386">
        <ele>48</ele>
        <time>2026-03-24T13:37:49.000Z</time>
      </trkpt>
      <trkpt lat="49.3316" lon="-0.54386">
        <ele>48</ele>
        <time>2026-03-24T13:37:50.000Z</time>
      </trkpt>
      <trkpt lat="49.33161" lon="-0.54385">
        <ele>48</ele>
        <time>2026-03-24T13:37:51.000Z</time>
      </trkpt>
      <trkpt lat="49.33162" lon="-0.54385">
        <ele>48</ele>
        <time>2026-03-24T13:37:52.000Z</time>
      </trkpt>
      <trkpt lat="49.33163" lon="-0.54385">
        <ele>48</ele>
        <time>2026-03-24T13:37:53.000Z</time>
      </trkpt>
      <trkpt lat="49.33164" lon="-0.54384">
        <ele>48</ele>
        <time>2026-03-24T13:37:54.000Z</time>
      </trkpt>
      <trkpt lat="49.33165" lon="-0.54383">
        <ele>47.799999237061</ele>
        <time>2026-03-24T13:37:55.000Z</time>
      </trkpt>
      <trkpt lat="49.33166" lon="-0.54383">
        <ele>47.799999237061</ele>
        <time>2026-03-24T13:37:56.000Z</time>
      </trkpt>
      <trkpt lat="49.33167" lon="-0.54382">
        <ele>47.799999237061</ele>
        <time>2026-03-24T13:37:57.000Z</time>
      </trkpt>
      <trkpt lat="49.33168" lon="-0.54381">
        <ele>47.799999237061</ele>
        <time>2026-03-24T13:37:58.000Z</time>
      </trkpt>
      <trkpt lat="49.3317" lon="-0.54381">
        <ele>47.799999237061</ele>
        <time>2026-03-24T13:37:59.000Z</time>
      </trkpt>
      <trkpt lat="49.33171" lon="-0.5438">
        <ele>47.599998474121</ele>
        <time>2026-03-24T13:38:00.000Z</time>
      </trkpt>
      <trkpt lat="49.33172" lon="-0.5438">
        <ele>47.599998474121</ele>
        <time>2026-03-24T13:38:01.000Z</time>
      </trkpt>
      <trkpt lat="49.33173" lon="-0.54379">
        <ele>47.599998474121</ele>
        <time>2026-03-24T13:38:02.000Z</time>
      </trkpt>
      <trkpt lat="49.33174" lon="-0.54379">
        <ele>47.599998474121</ele>
        <time>2026-03-24T13:38:03.000Z</time>
      </trkpt>
      <trkpt lat="49.33175" lon="-0.54378">
        <ele>47.599998474121</ele>
        <time>2026-03-24T13:38:04.000Z</time>
      </trkpt>
      <trkpt lat="49.33176" lon="-0.54378">
        <ele>47.599998474121</ele>
        <time>2026-03-24T13:38:05.000Z</time>
      </trkpt>
      <trkpt lat="49.33177" lon="-0.54377">
        <ele>47.599998474121</ele>
        <time>2026-03-24T13:38:06.000Z</time>
      </trkpt>
      <trkpt lat="49.33178" lon="-0.54377">
        <ele>47.599998474121</ele>
        <time>2026-03-24T13:38:07.000Z</time>
      </trkpt>
      <trkpt lat="49.33179" lon="-0.54377">
        <ele>47.599998474121</ele>
        <time>2026-03-24T13:38:08.000Z</time>
      </trkpt>
      <trkpt lat="49.3318" lon="-0.54376">
        <ele>47.400001525879</ele>
        <time>2026-03-24T13:38:09.000Z</time>
      </trkpt>
      <trkpt lat="49.33181" lon="-0.54376">
        <ele>47.400001525879</ele>
        <time>2026-03-24T13:38:10.000Z</time>
      </trkpt>
      <trkpt lat="49.33182" lon="-0.54375">
        <ele>47.400001525879</ele>
        <time>2026-03-24T13:38:11.000Z</time>
      </trkpt>
      <trkpt lat="49.33183" lon="-0.54375">
        <ele>47.400001525879</ele>
        <time>2026-03-24T13:38:12.000Z</time>
      </trkpt>
      <trkpt lat="49.33185" lon="-0.54375">
        <ele>47.400001525879</ele>
        <time>2026-03-24T13:38:13.000Z</time>
      </trkpt>
      <trkpt lat="49.33186" lon="-0.54374">
        <ele>47.400001525879</ele>
        <time>2026-03-24T13:38:14.000Z</time>
      </trkpt>
      <trkpt lat="49.33187" lon="-0.54373">
        <ele>47.400001525879</ele>
        <time>2026-03-24T13:38:15.000Z</time>
      </trkpt>
      <trkpt lat="49.33188" lon="-0.54373">
        <ele>47.400001525879</ele>
        <time>2026-03-24T13:38:16.000Z</time>
      </trkpt>
      <trkpt lat="49.33188" lon="-0.54372">
        <ele>47.400001525879</ele>
        <time>2026-03-24T13:38:17.000Z</time>
      </trkpt>
      <trkpt lat="49.3319" lon="-0.54371">
        <ele>47.400001525879</ele>
        <time>2026-03-24T13:38:18.000Z</time>
      </trkpt>
      <trkpt lat="49.33191" lon="-0.5437">
        <ele>47.200000762939</ele>
        <time>2026-03-24T13:38:19.000Z</time>
      </trkpt>
      <trkpt lat="49.33192" lon="-0.5437">
        <ele>47.200000762939</ele>
        <time>2026-03-24T13:38:20.000Z</time>
      </trkpt>
      <trkpt lat="49.33193" lon="-0.54369">
        <ele>47.200000762939</ele>
        <time>2026-03-24T13:38:21.000Z</time>
      </trkpt>
      <trkpt lat="49.33194" lon="-0.54368">
        <ele>47.200000762939</ele>
        <time>2026-03-24T13:38:22.000Z</time>
      </trkpt>
      <trkpt lat="49.33195" lon="-0.54368">
        <ele>47.200000762939</ele>
        <time>2026-03-24T13:38:23.000Z</time>
      </trkpt>
      <trkpt lat="49.33196" lon="-0.54367">
        <ele>47.200000762939</ele>
        <time>2026-03-24T13:38:24.000Z</time>
      </trkpt>
      <trkpt lat="49.33198" lon="-0.54367">
        <ele>47.200000762939</ele>
        <time>2026-03-24T13:38:25.000Z</time>
      </trkpt>
      <trkpt lat="49.33199" lon="-0.54367">
        <ele>47.200000762939</ele>
        <time>2026-03-24T13:38:26.000Z</time>
      </trkpt>
      <trkpt lat="49.33199" lon="-0.54366">
        <ele>47.200000762939</ele>
        <time>2026-03-24T13:38:27.000Z</time>
      </trkpt>
      <trkpt lat="49.33201" lon="-0.54365">
        <ele>47.200000762939</ele>
        <time>2026-03-24T13:38:28.000Z</time>
      </trkpt>
      <trkpt lat="49.33202" lon="-0.54365">
        <ele>47</ele>
        <time>2026-03-24T13:38:29.000Z</time>
      </trkpt>
      <trkpt lat="49.33203" lon="-0.54364">
        <ele>47</ele>
        <time>2026-03-24T13:38:30.000Z</time>
      </trkpt>
      <trkpt lat="49.33204" lon="-0.54363">
        <ele>47</ele>
        <time>2026-03-24T13:38:31.000Z</time>
      </trkpt>
      <trkpt lat="49.33205" lon="-0.54363">
        <ele>47</ele>
        <time>2026-03-24T13:38:32.000Z</time>
      </trkpt>
      <trkpt lat="49.33206" lon="-0.54362">
        <ele>47</ele>
        <time>2026-03-24T13:38:33.000Z</time>
      </trkpt>
      <trkpt lat="49.33207" lon="-0.54362">
        <ele>47</ele>
        <time>2026-03-24T13:38:34.000Z</time>
      </trkpt>
      <trkpt lat="49.33208" lon="-0.54362">
        <ele>47</ele>
        <time>2026-03-24T13:38:35.000Z</time>
      </trkpt>
      <trkpt lat="49.33209" lon="-0.54361">
        <ele>47</ele>
        <time>2026-03-24T13:38:36.000Z</time>
      </trkpt>
      <trkpt lat="49.3321" lon="-0.5436">
        <ele>47</ele>
        <time>2026-03-24T13:38:37.000Z</time>
      </trkpt>
      <trkpt lat="49.33211" lon="-0.54359">
        <ele>47</ele>
        <time>2026-03-24T13:38:38.000Z</time>
      </trkpt>
      <trkpt lat="49.33212" lon="-0.54358">
        <ele>47</ele>
        <time>2026-03-24T13:38:39.000Z</time>
      </trkpt>
      <trkpt lat="49.33213" lon="-0.54358">
        <ele>47</ele>
        <time>2026-03-24T13:38:40.000Z</time>
      </trkpt>
      <trkpt lat="49.33214" lon="-0.54357">
        <ele>47</ele>
        <time>2026-03-24T13:38:41.000Z</time>
      </trkpt>
      <trkpt lat="49.33215" lon="-0.54356">
        <ele>47</ele>
        <time>2026-03-24T13:38:42.000Z</time>
      </trkpt>
      <trkpt lat="49.33216" lon="-0.54356">
        <ele>47</ele>
        <time>2026-03-24T13:38:43.000Z</time>
      </trkpt>
      <trkpt lat="49.33217" lon="-0.54355">
        <ele>47</ele>
        <time>2026-03-24T13:38:44.000Z</time>
      </trkpt>
      <trkpt lat="49.33218" lon="-0.54354">
        <ele>47</ele>
        <time>2026-03-24T13:38:45.000Z</time>
      </trkpt>
      <trkpt lat="49.33219" lon="-0.54353">
        <ele>47</ele>
        <time>2026-03-24T13:38:46.000Z</time>
      </trkpt>
      <trkpt lat="49.3322" lon="-0.54353">
        <ele>47</ele>
        <time>2026-03-24T13:38:47.000Z</time>
      </trkpt>
      <trkpt lat="49.33221" lon="-0.54352">
        <ele>47</ele>
        <time>2026-03-24T13:38:48.000Z</time>
      </trkpt>
      <trkpt lat="49.33222" lon="-0.54352">
        <ele>47</ele>
        <time>2026-03-24T13:38:49.000Z</time>
      </trkpt>
      <trkpt lat="49.33223" lon="-0.54351">
        <ele>47</ele>
        <time>2026-03-24T13:38:50.000Z</time>
      </trkpt>
      <trkpt lat="49.33225" lon="-0.54351">
        <ele>47</ele>
        <time>2026-03-24T13:38:51.000Z</time>
      </trkpt>
      <trkpt lat="49.33226" lon="-0.5435">
        <ele>47</ele>
        <time>2026-03-24T13:38:52.000Z</time>
      </trkpt>
      <trkpt lat="49.33227" lon="-0.54349">
        <ele>47</ele>
        <time>2026-03-24T13:38:53.000Z</time>
      </trkpt>
      <trkpt lat="49.33228" lon="-0.54348">
        <ele>47</ele>
        <time>2026-03-24T13:38:54.000Z</time>
      </trkpt>
      <trkpt lat="49.33229" lon="-0.54348">
        <ele>47</ele>
        <time>2026-03-24T13:38:55.000Z</time>
      </trkpt>
      <trkpt lat="49.3323" lon="-0.54347">
        <ele>47</ele>
        <time>2026-03-24T13:38:56.000Z</time>
      </trkpt>
      <trkpt lat="49.33231" lon="-0.54347">
        <ele>47</ele>
        <time>2026-03-24T13:38:57.000Z</time>
      </trkpt>
      <trkpt lat="49.33232" lon="-0.54346">
        <ele>47</ele>
        <time>2026-03-24T13:38:58.000Z</time>
      </trkpt>
      <trkpt lat="49.33233" lon="-0.54345">
        <ele>47</ele>
        <time>2026-03-24T13:38:59.000Z</time>
      </trkpt>
      <trkpt lat="49.33234" lon="-0.54345">
        <ele>47</ele>
        <time>2026-03-24T13:39:00.000Z</time>
      </trkpt>
      <trkpt lat="49.33235" lon="-0.54344">
        <ele>47</ele>
        <time>2026-03-24T13:39:01.000Z</time>
      </trkpt>
      <trkpt lat="49.33236" lon="-0.54343">
        <ele>47</ele>
        <time>2026-03-24T13:39:02.000Z</time>
      </trkpt>
      <trkpt lat="49.33238" lon="-0.54343">
        <ele>47</ele>
        <time>2026-03-24T13:39:03.000Z</time>
      </trkpt>
      <trkpt lat="49.33239" lon="-0.54342">
        <ele>47</ele>
        <time>2026-03-24T13:39:04.000Z</time>
      </trkpt>
      <trkpt lat="49.3324" lon="-0.54342">
        <ele>47</ele>
        <time>2026-03-24T13:39:05.000Z</time>
      </trkpt>
      <trkpt lat="49.33241" lon="-0.54342">
        <ele>47</ele>
        <time>2026-03-24T13:39:06.000Z</time>
      </trkpt>
      <trkpt lat="49.33242" lon="-0.54341">
        <ele>47</ele>
        <time>2026-03-24T13:39:07.000Z</time>
      </trkpt>
      <trkpt lat="49.33244" lon="-0.54341">
        <ele>47</ele>
        <time>2026-03-24T13:39:08.000Z</time>
      </trkpt>
      <trkpt lat="49.33245" lon="-0.5434">
        <ele>47</ele>
        <time>2026-03-24T13:39:09.000Z</time>
      </trkpt>
      <trkpt lat="49.33246" lon="-0.5434">
        <ele>47</ele>
        <time>2026-03-24T13:39:10.000Z</time>
      </trkpt>
      <trkpt lat="49.33247" lon="-0.54339">
        <ele>47</ele>
        <time>2026-03-24T13:39:11.000Z</time>
      </trkpt>
      <trkpt lat="49.33249" lon="-0.54339">
        <ele>47.200000762939</ele>
        <time>2026-03-24T13:39:12.000Z</time>
      </trkpt>
      <trkpt lat="49.3325" lon="-0.54338">
        <ele>47.200000762939</ele>
        <time>2026-03-24T13:39:13.000Z</time>
      </trkpt>
      <trkpt lat="49.33251" lon="-0.54338">
        <ele>47.200000762939</ele>
        <time>2026-03-24T13:39:14.000Z</time>
      </trkpt>
      <trkpt lat="49.33252" lon="-0.54337">
        <ele>47.200000762939</ele>
        <time>2026-03-24T13:39:15.000Z</time>
      </trkpt>
      <trkpt lat="49.33254" lon="-0.54337">
        <ele>47.200000762939</ele>
        <time>2026-03-24T13:39:16.000Z</time>
      </trkpt>
      <trkpt lat="49.33255" lon="-0.54336">
        <ele>47.400001525879</ele>
        <time>2026-03-24T13:39:17.000Z</time>
      </trkpt>
      <trkpt lat="49.33256" lon="-0.54335">
        <ele>47.400001525879</ele>
        <time>2026-03-24T13:39:18.000Z</time>
      </trkpt>
      <trkpt lat="49.33257" lon="-0.54334">
        <ele>47.400001525879</ele>
        <time>2026-03-24T13:39:19.000Z</time>
      </trkpt>
      <trkpt lat="49.33258" lon="-0.54334">
        <ele>47.400001525879</ele>
        <time>2026-03-24T13:39:20.000Z</time>
      </trkpt>
      <trkpt lat="49.33259" lon="-0.54333">
        <ele>47.400001525879</ele>
        <time>2026-03-24T13:39:21.000Z</time>
      </trkpt>
      <trkpt lat="49.3326" lon="-0.54333">
        <ele>47.599998474121</ele>
        <time>2026-03-24T13:39:22.000Z</time>
      </trkpt>
      <trkpt lat="49.33261" lon="-0.54333">
        <ele>47.599998474121</ele>
        <time>2026-03-24T13:39:23.000Z</time>
      </trkpt>
      <trkpt lat="49.33262" lon="-0.54332">
        <ele>47.599998474121</ele>
        <time>2026-03-24T13:39:24.000Z</time>
      </trkpt>
      <trkpt lat="49.33264" lon="-0.54332">
        <ele>47.599998474121</ele>
        <time>2026-03-24T13:39:25.000Z</time>
      </trkpt>
      <trkpt lat="49.33265" lon="-0.54331">
        <ele>47.599998474121</ele>
        <time>2026-03-24T13:39:26.000Z</time>
      </trkpt>
      <trkpt lat="49.33266" lon="-0.5433">
        <ele>47.799999237061</ele>
        <time>2026-03-24T13:39:27.000Z</time>
      </trkpt>
      <trkpt lat="49.33266" lon="-0.5433">
        <ele>47.799999237061</ele>
        <time>2026-03-24T13:39:28.000Z</time>
      </trkpt>
      <trkpt lat="49.33267" lon="-0.54329">
        <ele>47.799999237061</ele>
        <time>2026-03-24T13:39:29.000Z</time>
      </trkpt>
      <trkpt lat="49.33268" lon="-0.54329">
        <ele>47.799999237061</ele>
        <time>2026-03-24T13:39:30.000Z</time>
      </trkpt>
      <trkpt lat="49.33269" lon="-0.54328">
        <ele>47.799999237061</ele>
        <time>2026-03-24T13:39:31.000Z</time>
      </trkpt>
      <trkpt lat="49.3327" lon="-0.54327">
        <ele>48</ele>
        <time>2026-03-24T13:39:32.000Z</time>
      </trkpt>
      <trkpt lat="49.33271" lon="-0.54326">
        <ele>48</ele>
        <time>2026-03-24T13:39:33.000Z</time>
      </trkpt>
      <trkpt lat="49.33272" lon="-0.54326">
        <ele>48</ele>
        <time>2026-03-24T13:39:34.000Z</time>
      </trkpt>
      <trkpt lat="49.33273" lon="-0.54325">
        <ele>48</ele>
        <time>2026-03-24T13:39:35.000Z</time>
      </trkpt>
      <trkpt lat="49.33274" lon="-0.54324">
        <ele>48</ele>
        <time>2026-03-24T13:39:36.000Z</time>
      </trkpt>
      <trkpt lat="49.33275" lon="-0.54323">
        <ele>48</ele>
        <time>2026-03-24T13:39:37.000Z</time>
      </trkpt>
      <trkpt lat="49.33276" lon="-0.54323">
        <ele>48</ele>
        <time>2026-03-24T13:39:38.000Z</time>
      </trkpt>
      <trkpt lat="49.33277" lon="-0.54323">
        <ele>48</ele>
        <time>2026-03-24T13:39:39.000Z</time>
      </trkpt>
      <trkpt lat="49.33278" lon="-0.54323">
        <ele>48</ele>
        <time>2026-03-24T13:39:40.000Z</time>
      </trkpt>
      <trkpt lat="49.33278" lon="-0.54323">
        <ele>48</ele>
        <time>2026-03-24T13:39:41.000Z</time>
      </trkpt>
      <trkpt lat="49.33279" lon="-0.54323">
        <ele>48</ele>
        <time>2026-03-24T13:39:42.000Z</time>
      </trkpt>
      <trkpt lat="49.3328" lon="-0.54322">
        <ele>48</ele>
        <time>2026-03-24T13:39:43.000Z</time>
      </trkpt>
      <trkpt lat="49.3328" lon="-0.54322">
        <ele>48</ele>
        <time>2026-03-24T13:39:44.000Z</time>
      </trkpt>
      <trkpt lat="49.33281" lon="-0.54322">
        <ele>48</ele>
        <time>2026-03-24T13:39:45.000Z</time>
      </trkpt>
      <trkpt lat="49.33281" lon="-0.54322">
        <ele>48</ele>
        <time>2026-03-24T13:39:46.000Z</time>
      </trkpt>
      <trkpt lat="49.33281" lon="-0.54322">
        <ele>48</ele>
        <time>2026-03-24T13:39:47.000Z</time>
      </trkpt>
      <trkpt lat="49.33281" lon="-0.54322">
        <ele>48</ele>
        <time>2026-03-24T13:39:48.000Z</time>
      </trkpt>
      <trkpt lat="49.33281" lon="-0.54323">
        <ele>48</ele>
        <time>2026-03-24T13:39:49.000Z</time>
      </trkpt>
      <trkpt lat="49.33282" lon="-0.54322">
        <ele>48</ele>
        <time>2026-03-24T13:39:50.000Z</time>
      </trkpt>
      <trkpt lat="49.33282" lon="-0.54323">
        <ele>48</ele>
        <time>2026-03-24T13:39:51.000Z</time>
      </trkpt>
      <trkpt lat="49.33282" lon="-0.54323">
        <ele>48</ele>
        <time>2026-03-24T13:39:52.000Z</time>
      </trkpt>
      <trkpt lat="49.33283" lon="-0.54324">
        <ele>48</ele>
        <time>2026-03-24T13:39:53.000Z</time>
      </trkpt>
      <trkpt lat="49.33283" lon="-0.54325">
        <ele>48</ele>
        <time>2026-03-24T13:39:54.000Z</time>
      </trkpt>
      <trkpt lat="49.33283" lon="-0.54327">
        <ele>48</ele>
        <time>2026-03-24T13:39:55.000Z</time>
      </trkpt>
      <trkpt lat="49.33283" lon="-0.54329">
        <ele>47.799999237061</ele>
        <time>2026-03-24T13:39:56.000Z</time>
      </trkpt>
      <trkpt lat="49.33283" lon="-0.54331">
        <ele>47.799999237061</ele>
        <time>2026-03-24T13:39:57.000Z</time>
      </trkpt>
      <trkpt lat="49.33283" lon="-0.54332">
        <ele>47.799999237061</ele>
        <time>2026-03-24T13:39:58.000Z</time>
      </trkpt>
      <trkpt lat="49.33283" lon="-0.54334">
        <ele>47.599998474121</ele>
        <time>2026-03-24T13:39:59.000Z</time>
      </trkpt>
      <trkpt lat="49.33283" lon="-0.54336">
        <ele>47.599998474121</ele>
        <time>2026-03-24T13:40:00.000Z</time>
      </trkpt>
      <trkpt lat="49.33284" lon="-0.54338">
        <ele>47.599998474121</ele>
        <time>2026-03-24T13:40:01.000Z</time>
      </trkpt>
      <trkpt lat="49.33284" lon="-0.5434">
        <ele>47.599998474121</ele>
        <time>2026-03-24T13:40:02.000Z</time>
      </trkpt>
      <trkpt lat="49.33284" lon="-0.54341">
        <ele>47.599998474121</ele>
        <time>2026-03-24T13:40:03.000Z</time>
      </trkpt>
      <trkpt lat="49.33284" lon="-0.54343">
        <ele>47.599998474121</ele>
        <time>2026-03-24T13:40:04.000Z</time>
      </trkpt>
      <trkpt lat="49.33284" lon="-0.54345">
        <ele>47.599998474121</ele>
        <time>2026-03-24T13:40:05.000Z</time>
      </trkpt>
      <trkpt lat="49.33284" lon="-0.54347">
        <ele>47.599998474121</ele>
        <time>2026-03-24T13:40:06.000Z</time>
      </trkpt>
      <trkpt lat="49.33285" lon="-0.54349">
        <ele>47.599998474121</ele>
        <time>2026-03-24T13:40:07.000Z</time>
      </trkpt>
      <trkpt lat="49.33285" lon="-0.5435">
        <ele>47.599998474121</ele>
        <time>2026-03-24T13:40:08.000Z</time>
      </trkpt>
      <trkpt lat="49.33285" lon="-0.54352">
        <ele>47.599998474121</ele>
        <time>2026-03-24T13:40:09.000Z</time>
      </trkpt>
      <trkpt lat="49.33285" lon="-0.54354">
        <ele>47.599998474121</ele>
        <time>2026-03-24T13:40:10.000Z</time>
      </trkpt>
      <trkpt lat="49.33285" lon="-0.54356">
        <ele>47.599998474121</ele>
        <time>2026-03-24T13:40:11.000Z</time>
      </trkpt>
      <trkpt lat="49.33285" lon="-0.54358">
        <ele>47.599998474121</ele>
        <time>2026-03-24T13:40:12.000Z</time>
      </trkpt>
      <trkpt lat="49.33285" lon="-0.5436">
        <ele>47.599998474121</ele>
        <time>2026-03-24T13:40:13.000Z</time>
      </trkpt>
      <trkpt lat="49.33285" lon="-0.54362">
        <ele>47.599998474121</ele>
        <time>2026-03-24T13:40:14.000Z</time>
      </trkpt>
      <trkpt lat="49.33285" lon="-0.54363">
        <ele>47.599998474121</ele>
        <time>2026-03-24T13:40:15.000Z</time>
      </trkpt>
      <trkpt lat="49.33285" lon="-0.54365">
        <ele>47.400001525879</ele>
        <time>2026-03-24T13:40:16.000Z</time>
      </trkpt>
      <trkpt lat="49.33285" lon="-0.54367">
        <ele>47.400001525879</ele>
        <time>2026-03-24T13:40:17.000Z</time>
      </trkpt>
      <trkpt lat="49.33285" lon="-0.54369">
        <ele>47.400001525879</ele>
        <time>2026-03-24T13:40:18.000Z</time>
      </trkpt>
      <trkpt lat="49.33286" lon="-0.54371">
        <ele>47.200000762939</ele>
        <time>2026-03-24T13:40:19.000Z</time>
      </trkpt>
      <trkpt lat="49.33286" lon="-0.54373">
        <ele>47.200000762939</ele>
        <time>2026-03-24T13:40:20.000Z</time>
      </trkpt>
      <trkpt lat="49.33286" lon="-0.54374">
        <ele>47.200000762939</ele>
        <time>2026-03-24T13:40:21.000Z</time>
      </trkpt>
      <trkpt lat="49.33286" lon="-0.54376">
        <ele>47</ele>
        <time>2026-03-24T13:40:22.000Z</time>
      </trkpt>
      <trkpt lat="49.33286" lon="-0.54378">
        <ele>47</ele>
        <time>2026-03-24T13:40:23.000Z</time>
      </trkpt>
      <trkpt lat="49.33286" lon="-0.5438">
        <ele>47</ele>
        <time>2026-03-24T13:40:24.000Z</time>
      </trkpt>
      <trkpt lat="49.33287" lon="-0.54382">
        <ele>47</ele>
        <time>2026-03-24T13:40:25.000Z</time>
      </trkpt>
      <trkpt lat="49.33287" lon="-0.54384">
        <ele>47</ele>
        <time>2026-03-24T13:40:26.000Z</time>
      </trkpt>
      <trkpt lat="49.33287" lon="-0.54386">
        <ele>47</ele>
        <time>2026-03-24T13:40:27.000Z</time>
      </trkpt>
      <trkpt lat="49.33287" lon="-0.54387">
        <ele>47</ele>
        <time>2026-03-24T13:40:28.000Z</time>
      </trkpt>
      <trkpt lat="49.33288" lon="-0.54389">
        <ele>47</ele>
        <time>2026-03-24T13:40:29.000Z</time>
      </trkpt>
      <trkpt lat="49.33288" lon="-0.54391">
        <ele>47</ele>
        <time>2026-03-24T13:40:30.000Z</time>
      </trkpt>
      <trkpt lat="49.33288" lon="-0.54393">
        <ele>47</ele>
        <time>2026-03-24T13:40:31.000Z</time>
      </trkpt>
      <trkpt lat="49.33288" lon="-0.54394">
        <ele>47.200000762939</ele>
        <time>2026-03-24T13:40:32.000Z</time>
      </trkpt>
      <trkpt lat="49.33288" lon="-0.54396">
        <ele>47.200000762939</ele>
        <time>2026-03-24T13:40:33.000Z</time>
      </trkpt>
      <trkpt lat="49.33288" lon="-0.54398">
        <ele>47.200000762939</ele>
        <time>2026-03-24T13:40:34.000Z</time>
      </trkpt>
      <trkpt lat="49.33288" lon="-0.54399">
        <ele>47.400001525879</ele>
        <time>2026-03-24T13:40:35.000Z</time>
      </trkpt>
      <trkpt lat="49.33289" lon="-0.54401">
        <ele>47.400001525879</ele>
        <time>2026-03-24T13:40:36.000Z</time>
      </trkpt>
      <trkpt lat="49.33289" lon="-0.54403">
        <ele>47.400001525879</ele>
        <time>2026-03-24T13:40:37.000Z</time>
      </trkpt>
      <trkpt lat="49.33289" lon="-0.54404">
        <ele>47.400001525879</ele>
        <time>2026-03-24T13:40:38.000Z</time>
      </trkpt>
      <trkpt lat="49.33289" lon="-0.54406">
        <ele>47.400001525879</ele>
        <time>2026-03-24T13:40:39.000Z</time>
      </trkpt>
      <trkpt lat="49.33289" lon="-0.54408">
        <ele>47.400001525879</ele>
        <time>2026-03-24T13:40:40.000Z</time>
      </trkpt>
      <trkpt lat="49.33289" lon="-0.54409">
        <ele>47.400001525879</ele>
        <time>2026-03-24T13:40:41.000Z</time>
      </trkpt>
      <trkpt lat="49.33289" lon="-0.54411">
        <ele>47.400001525879</ele>
        <time>2026-03-24T13:40:42.000Z</time>
      </trkpt>
      <trkpt lat="49.3329" lon="-0.54412">
        <ele>47.400001525879</ele>
        <time>2026-03-24T13:40:43.000Z</time>
      </trkpt>
      <trkpt lat="49.3329" lon="-0.54414">
        <ele>47.400001525879</ele>
        <time>2026-03-24T13:40:44.000Z</time>
      </trkpt>
      <trkpt lat="49.3329" lon="-0.54415">
        <ele>47.400001525879</ele>
        <time>2026-03-24T13:40:45.000Z</time>
      </trkpt>
      <trkpt lat="49.3329" lon="-0.54417">
        <ele>47.400001525879</ele>
        <time>2026-03-24T13:40:46.000Z</time>
      </trkpt>
      <trkpt lat="49.3329" lon="-0.54419">
        <ele>47.400001525879</ele>
        <time>2026-03-24T13:40:47.000Z</time>
      </trkpt>
      <trkpt lat="49.3329" lon="-0.5442">
        <ele>47.400001525879</ele>
        <time>2026-03-24T13:40:48.000Z</time>
      </trkpt>
      <trkpt lat="49.3329" lon="-0.54422">
        <ele>47.400001525879</ele>
        <time>2026-03-24T13:40:49.000Z</time>
      </trkpt>
      <trkpt lat="49.3329" lon="-0.54423">
        <ele>47.400001525879</ele>
        <time>2026-03-24T13:40:50.000Z</time>
      </trkpt>
      <trkpt lat="49.33291" lon="-0.54425">
        <ele>47.400001525879</ele>
        <time>2026-03-24T13:40:51.000Z</time>
      </trkpt>
      <trkpt lat="49.33291" lon="-0.54427">
        <ele>47.400001525879</ele>
        <time>2026-03-24T13:40:52.000Z</time>
      </trkpt>
      <trkpt lat="49.33291" lon="-0.54428">
        <ele>47.400001525879</ele>
        <time>2026-03-24T13:40:53.000Z</time>
      </trkpt>
      <trkpt lat="49.33291" lon="-0.5443">
        <ele>47.400001525879</ele>
        <time>2026-03-24T13:40:54.000Z</time>
      </trkpt>
      <trkpt lat="49.33292" lon="-0.54432">
        <ele>47.400001525879</ele>
        <time>2026-03-24T13:40:55.000Z</time>
      </trkpt>
      <trkpt lat="49.33292" lon="-0.54433">
        <ele>47.400001525879</ele>
        <time>2026-03-24T13:40:56.000Z</time>
      </trkpt>
      <trkpt lat="49.33292" lon="-0.54435">
        <ele>47.400001525879</ele>
        <time>2026-03-24T13:40:57.000Z</time>
      </trkpt>
      <trkpt lat="49.33292" lon="-0.54436">
        <ele>47.400001525879</ele>
        <time>2026-03-24T13:40:58.000Z</time>
      </trkpt>
      <trkpt lat="49.33292" lon="-0.54438">
        <ele>47.400001525879</ele>
        <time>2026-03-24T13:40:59.000Z</time>
      </trkpt>
      <trkpt lat="49.33292" lon="-0.54439">
        <ele>47.400001525879</ele>
        <time>2026-03-24T13:41:00.000Z</time>
      </trkpt>
      <trkpt lat="49.33292" lon="-0.54441">
        <ele>47.400001525879</ele>
        <time>2026-03-24T13:41:01.000Z</time>
      </trkpt>
      <trkpt lat="49.33292" lon="-0.54442">
        <ele>47.400001525879</ele>
        <time>2026-03-24T13:41:02.000Z</time>
      </trkpt>
      <trkpt lat="49.33293" lon="-0.54443">
        <ele>47.400001525879</ele>
        <time>2026-03-24T13:41:03.000Z</time>
      </trkpt>
      <trkpt lat="49.33293" lon="-0.54444">
        <ele>47.400001525879</ele>
        <time>2026-03-24T13:41:04.000Z</time>
      </trkpt>
      <trkpt lat="49.33293" lon="-0.54445">
        <ele>47.400001525879</ele>
        <time>2026-03-24T13:41:05.000Z</time>
      </trkpt>
      <trkpt lat="49.33292" lon="-0.54446">
        <ele>47.400001525879</ele>
        <time>2026-03-24T13:41:06.000Z</time>
      </trkpt>
      <trkpt lat="49.33293" lon="-0.54448">
        <ele>47.400001525879</ele>
        <time>2026-03-24T13:41:07.000Z</time>
      </trkpt>
      <trkpt lat="49.33293" lon="-0.54449">
        <ele>47.400001525879</ele>
        <time>2026-03-24T13:41:08.000Z</time>
      </trkpt>
      <trkpt lat="49.33293" lon="-0.5445">
        <ele>47.200000762939</ele>
        <time>2026-03-24T13:41:09.000Z</time>
      </trkpt>
      <trkpt lat="49.33293" lon="-0.54451">
        <ele>47.200000762939</ele>
        <time>2026-03-24T13:41:10.000Z</time>
      </trkpt>
      <trkpt lat="49.33293" lon="-0.54452">
        <ele>47.200000762939</ele>
        <time>2026-03-24T13:41:11.000Z</time>
      </trkpt>
      <trkpt lat="49.33293" lon="-0.54454">
        <ele>47.200000762939</ele>
        <time>2026-03-24T13:41:12.000Z</time>
      </trkpt>
      <trkpt lat="49.33293" lon="-0.54455">
        <ele>47.400001525879</ele>
        <time>2026-03-24T13:41:13.000Z</time>
      </trkpt>
      <trkpt lat="49.33293" lon="-0.54457">
        <ele>47.400001525879</ele>
        <time>2026-03-24T13:41:14.000Z</time>
      </trkpt>
      <trkpt lat="49.33293" lon="-0.54459">
        <ele>47.400001525879</ele>
        <time>2026-03-24T13:41:15.000Z</time>
      </trkpt>
      <trkpt lat="49.33293" lon="-0.5446">
        <ele>47.599998474121</ele>
        <time>2026-03-24T13:41:16.000Z</time>
      </trkpt>
      <trkpt lat="49.33294" lon="-0.54462">
        <ele>47.599998474121</ele>
        <time>2026-03-24T13:41:17.000Z</time>
      </trkpt>
      <trkpt lat="49.33294" lon="-0.54463">
        <ele>47.599998474121</ele>
        <time>2026-03-24T13:41:18.000Z</time>
      </trkpt>
      <trkpt lat="49.33294" lon="-0.54464">
        <ele>47.599998474121</ele>
        <time>2026-03-24T13:41:19.000Z</time>
      </trkpt>
      <trkpt lat="49.33294" lon="-0.54465">
        <ele>47.599998474121</ele>
        <time>2026-03-24T13:41:20.000Z</time>
      </trkpt>
      <trkpt lat="49.33294" lon="-0.54466">
        <ele>47.799999237061</ele>
        <time>2026-03-24T13:41:21.000Z</time>
      </trkpt>
      <trkpt lat="49.33294" lon="-0.54468">
        <ele>47.799999237061</ele>
        <time>2026-03-24T13:41:22.000Z</time>
      </trkpt>
      <trkpt lat="49.33295" lon="-0.54469">
        <ele>47.799999237061</ele>
        <time>2026-03-24T13:41:23.000Z</time>
      </trkpt>
      <trkpt lat="49.33295" lon="-0.5447">
        <ele>47.799999237061</ele>
        <time>2026-03-24T13:41:24.000Z</time>
      </trkpt>
      <trkpt lat="49.33295" lon="-0.54472">
        <ele>48</ele>
        <time>2026-03-24T13:41:25.000Z</time>
      </trkpt>
      <trkpt lat="49.33296" lon="-0.54471">
        <ele>48</ele>
        <time>2026-03-24T13:41:26.000Z</time>
      </trkpt>
      <trkpt lat="49.33296" lon="-0.54472">
        <ele>48</ele>
        <time>2026-03-24T13:41:27.000Z</time>
      </trkpt>
      <trkpt lat="49.33296" lon="-0.54473">
        <ele>48</ele>
        <time>2026-03-24T13:41:28.000Z</time>
      </trkpt>
      <trkpt lat="49.33297" lon="-0.54474">
        <ele>48</ele>
        <time>2026-03-24T13:41:29.000Z</time>
      </trkpt>
      <trkpt lat="49.33297" lon="-0.54476">
        <ele>48</ele>
        <time>2026-03-24T13:41:30.000Z</time>
      </trkpt>
      <trkpt lat="49.33298" lon="-0.54477">
        <ele>48.200000762939</ele>
        <time>2026-03-24T13:41:31.000Z</time>
      </trkpt>
      <trkpt lat="49.33298" lon="-0.54478">
        <ele>48.200000762939</ele>
        <time>2026-03-24T13:41:32.000Z</time>
      </trkpt>
      <trkpt lat="49.33299" lon="-0.5448">
        <ele>48</ele>
        <time>2026-03-24T13:41:33.000Z</time>
      </trkpt>
      <trkpt lat="49.33299" lon="-0.54481">
        <ele>48</ele>
        <time>2026-03-24T13:41:34.000Z</time>
      </trkpt>
      <trkpt lat="49.33299" lon="-0.54483">
        <ele>48</ele>
        <time>2026-03-24T13:41:35.000Z</time>
      </trkpt>
      <trkpt lat="49.333" lon="-0.54484">
        <ele>48</ele>
        <time>2026-03-24T13:41:36.000Z</time>
      </trkpt>
      <trkpt lat="49.33301" lon="-0.54485">
        <ele>48</ele>
        <time>2026-03-24T13:41:37.000Z</time>
      </trkpt>
      <trkpt lat="49.33302" lon="-0.54485">
        <ele>48</ele>
        <time>2026-03-24T13:41:38.000Z</time>
      </trkpt>
      <trkpt lat="49.33303" lon="-0.54486">
        <ele>48</ele>
        <time>2026-03-24T13:41:39.000Z</time>
      </trkpt>
      <trkpt lat="49.33303" lon="-0.54487">
        <ele>48</ele>
        <time>2026-03-24T13:41:40.000Z</time>
      </trkpt>
      <trkpt lat="49.33304" lon="-0.54487">
        <ele>47.799999237061</ele>
        <time>2026-03-24T13:41:41.000Z</time>
      </trkpt>
      <trkpt lat="49.33305" lon="-0.54488">
        <ele>47.799999237061</ele>
        <time>2026-03-24T13:41:42.000Z</time>
      </trkpt>
      <trkpt lat="49.33306" lon="-0.54489">
        <ele>47.799999237061</ele>
        <time>2026-03-24T13:41:43.000Z</time>
      </trkpt>
      <trkpt lat="49.33307" lon="-0.54489">
        <ele>47.799999237061</ele>
        <time>2026-03-24T13:41:44.000Z</time>
      </trkpt>
      <trkpt lat="49.33308" lon="-0.54489">
        <ele>47.799999237061</ele>
        <time>2026-03-24T13:41:45.000Z</time>
      </trkpt>
      <trkpt lat="49.33309" lon="-0.54488">
        <ele>47.799999237061</ele>
        <time>2026-03-24T13:41:46.000Z</time>
      </trkpt>
      <trkpt lat="49.3331" lon="-0.54488">
        <ele>47.599998474121</ele>
        <time>2026-03-24T13:41:47.000Z</time>
      </trkpt>
      <trkpt lat="49.33311" lon="-0.54488">
        <ele>47.599998474121</ele>
        <time>2026-03-24T13:41:48.000Z</time>
      </trkpt>
      <trkpt lat="49.33312" lon="-0.54488">
        <ele>47.599998474121</ele>
        <time>2026-03-24T13:41:49.000Z</time>
      </trkpt>
      <trkpt lat="49.33313" lon="-0.54487">
        <ele>47.599998474121</ele>
        <time>2026-03-24T13:41:50.000Z</time>
      </trkpt>
      <trkpt lat="49.33314" lon="-0.54487">
        <ele>47.599998474121</ele>
        <time>2026-03-24T13:41:51.000Z</time>
      </trkpt>
      <trkpt lat="49.33314" lon="-0.54488">
        <ele>47.599998474121</ele>
        <time>2026-03-24T13:41:52.000Z</time>
      </trkpt>
      <trkpt lat="49.33315" lon="-0.54487">
        <ele>47.400001525879</ele>
        <time>2026-03-24T13:41:53.000Z</time>
      </trkpt>
      <trkpt lat="49.33316" lon="-0.54487">
        <ele>47.400001525879</ele>
        <time>2026-03-24T13:41:54.000Z</time>
      </trkpt>
      <trkpt lat="49.33317" lon="-0.54487">
        <ele>47.400001525879</ele>
        <time>2026-03-24T13:41:55.000Z</time>
      </trkpt>
      <trkpt lat="49.33318" lon="-0.54488">
        <ele>47.400001525879</ele>
        <time>2026-03-24T13:41:56.000Z</time>
      </trkpt>
      <trkpt lat="49.33319" lon="-0.54488">
        <ele>47.400001525879</ele>
        <time>2026-03-24T13:41:57.000Z</time>
      </trkpt>
      <trkpt lat="49.3332" lon="-0.54488">
        <ele>47.400001525879</ele>
        <time>2026-03-24T13:41:58.000Z</time>
      </trkpt>
      <trkpt lat="49.33321" lon="-0.54487">
        <ele>47.200000762939</ele>
        <time>2026-03-24T13:41:59.000Z</time>
      </trkpt>
      <trkpt lat="49.33322" lon="-0.54487">
        <ele>47.200000762939</ele>
        <time>2026-03-24T13:42:00.000Z</time>
      </trkpt>
      <trkpt lat="49.33323" lon="-0.54487">
        <ele>47.200000762939</ele>
        <time>2026-03-24T13:42:01.000Z</time>
      </trkpt>
      <trkpt lat="49.33323" lon="-0.54486">
        <ele>47.200000762939</ele>
        <time>2026-03-24T13:42:02.000Z</time>
      </trkpt>
      <trkpt lat="49.33324" lon="-0.54486">
        <ele>47.200000762939</ele>
        <time>2026-03-24T13:42:03.000Z</time>
      </trkpt>
      <trkpt lat="49.33325" lon="-0.54487">
        <ele>47.200000762939</ele>
        <time>2026-03-24T13:42:04.000Z</time>
      </trkpt>
      <trkpt lat="49.33326" lon="-0.54487">
        <ele>47.200000762939</ele>
        <time>2026-03-24T13:42:05.000Z</time>
      </trkpt>
      <trkpt lat="49.33327" lon="-0.54487">
        <ele>47</ele>
        <time>2026-03-24T13:42:06.000Z</time>
      </trkpt>
      <trkpt lat="49.33328" lon="-0.54487">
        <ele>47</ele>
        <time>2026-03-24T13:42:07.000Z</time>
      </trkpt>
      <trkpt lat="49.33329" lon="-0.54487">
        <ele>47</ele>
        <time>2026-03-24T13:42:08.000Z</time>
      </trkpt>
      <trkpt lat="49.3333" lon="-0.54487">
        <ele>47</ele>
        <time>2026-03-24T13:42:09.000Z</time>
      </trkpt>
      <trkpt lat="49.33331" lon="-0.54487">
        <ele>47</ele>
        <time>2026-03-24T13:42:10.000Z</time>
      </trkpt>
      <trkpt lat="49.33332" lon="-0.54487">
        <ele>47</ele>
        <time>2026-03-24T13:42:11.000Z</time>
      </trkpt>
      <trkpt lat="49.33332" lon="-0.54487">
        <ele>47</ele>
        <time>2026-03-24T13:42:12.000Z</time>
      </trkpt>
      <trkpt lat="49.33333" lon="-0.54487">
        <ele>47</ele>
        <time>2026-03-24T13:42:13.000Z</time>
      </trkpt>
      <trkpt lat="49.33334" lon="-0.54487">
        <ele>47</ele>
        <time>2026-03-24T13:42:14.000Z</time>
      </trkpt>
      <trkpt lat="49.33335" lon="-0.54487">
        <ele>47</ele>
        <time>2026-03-24T13:42:15.000Z</time>
      </trkpt>
      <trkpt lat="49.33336" lon="-0.54487">
        <ele>47</ele>
        <time>2026-03-24T13:42:16.000Z</time>
      </trkpt>
      <trkpt lat="49.33337" lon="-0.54487">
        <ele>47</ele>
        <time>2026-03-24T13:42:17.000Z</time>
      </trkpt>
      <trkpt lat="49.33337" lon="-0.54487">
        <ele>47</ele>
        <time>2026-03-24T13:42:18.000Z</time>
      </trkpt>
      <trkpt lat="49.33338" lon="-0.54487">
        <ele>47</ele>
        <time>2026-03-24T13:42:19.000Z</time>
      </trkpt>
      <trkpt lat="49.33339" lon="-0.54487">
        <ele>47</ele>
        <time>2026-03-24T13:42:20.000Z</time>
      </trkpt>
      <trkpt lat="49.3334" lon="-0.54488">
        <ele>47</ele>
        <time>2026-03-24T13:42:21.000Z</time>
      </trkpt>
      <trkpt lat="49.33341" lon="-0.54488">
        <ele>47</ele>
        <time>2026-03-24T13:42:22.000Z</time>
      </trkpt>
      <trkpt lat="49.33343" lon="-0.54487">
        <ele>47</ele>
        <time>2026-03-24T13:42:23.000Z</time>
      </trkpt>
      <trkpt lat="49.33344" lon="-0.54487">
        <ele>47</ele>
        <time>2026-03-24T13:42:24.000Z</time>
      </trkpt>
      <trkpt lat="49.33345" lon="-0.54487">
        <ele>47</ele>
        <time>2026-03-24T13:42:25.000Z</time>
      </trkpt>
      <trkpt lat="49.33345" lon="-0.54487">
        <ele>47</ele>
        <time>2026-03-24T13:42:26.000Z</time>
      </trkpt>
      <trkpt lat="49.33346" lon="-0.54487">
        <ele>47</ele>
        <time>2026-03-24T13:42:27.000Z</time>
      </trkpt>
      <trkpt lat="49.33347" lon="-0.54487">
        <ele>47</ele>
        <time>2026-03-24T13:42:28.000Z</time>
      </trkpt>
      <trkpt lat="49.33347" lon="-0.54486">
        <ele>47</ele>
        <time>2026-03-24T13:42:29.000Z</time>
      </trkpt>
      <trkpt lat="49.33348" lon="-0.54486">
        <ele>47</ele>
        <time>2026-03-24T13:42:30.000Z</time>
      </trkpt>
      <trkpt lat="49.33349" lon="-0.54486">
        <ele>47</ele>
        <time>2026-03-24T13:42:31.000Z</time>
      </trkpt>
      <trkpt lat="49.3335" lon="-0.54487">
        <ele>47</ele>
        <time>2026-03-24T13:42:32.000Z</time>
      </trkpt>
      <trkpt lat="49.33351" lon="-0.54487">
        <ele>47</ele>
        <time>2026-03-24T13:42:33.000Z</time>
      </trkpt>
      <trkpt lat="49.33352" lon="-0.54487">
        <ele>47</ele>
        <time>2026-03-24T13:42:34.000Z</time>
      </trkpt>
      <trkpt lat="49.33353" lon="-0.54487">
        <ele>47</ele>
        <time>2026-03-24T13:42:35.000Z</time>
      </trkpt>
      <trkpt lat="49.33354" lon="-0.54487">
        <ele>47</ele>
        <time>2026-03-24T13:42:36.000Z</time>
      </trkpt>
      <trkpt lat="49.33355" lon="-0.54487">
        <ele>47</ele>
        <time>2026-03-24T13:42:37.000Z</time>
      </trkpt>
      <trkpt lat="49.33356" lon="-0.54488">
        <ele>47</ele>
        <time>2026-03-24T13:42:38.000Z</time>
      </trkpt>
      <trkpt lat="49.33357" lon="-0.54488">
        <ele>47</ele>
        <time>2026-03-24T13:42:39.000Z</time>
      </trkpt>
      <trkpt lat="49.33358" lon="-0.54488">
        <ele>47</ele>
        <time>2026-03-24T13:42:40.000Z</time>
      </trkpt>
      <trkpt lat="49.33359" lon="-0.54488">
        <ele>47</ele>
        <time>2026-03-24T13:42:41.000Z</time>
      </trkpt>
      <trkpt lat="49.3336" lon="-0.54488">
        <ele>46.799999237061</ele>
        <time>2026-03-24T13:42:42.000Z</time>
      </trkpt>
      <trkpt lat="49.33361" lon="-0.54487">
        <ele>46.799999237061</ele>
        <time>2026-03-24T13:42:43.000Z</time>
      </trkpt>
      <trkpt lat="49.33362" lon="-0.54488">
        <ele>46.799999237061</ele>
        <time>2026-03-24T13:42:44.000Z</time>
      </trkpt>
      <trkpt lat="49.33363" lon="-0.54488">
        <ele>46.799999237061</ele>
        <time>2026-03-24T13:42:45.000Z</time>
      </trkpt>
      <trkpt lat="49.33364" lon="-0.54488">
        <ele>46.799999237061</ele>
        <time>2026-03-24T13:42:46.000Z</time>
      </trkpt>
      <trkpt lat="49.33366" lon="-0.54488">
        <ele>46.599998474121</ele>
        <time>2026-03-24T13:42:47.000Z</time>
      </trkpt>
      <trkpt lat="49.33367" lon="-0.54488">
        <ele>46.599998474121</ele>
        <time>2026-03-24T13:42:48.000Z</time>
      </trkpt>
      <trkpt lat="49.33368" lon="-0.54489">
        <ele>46.599998474121</ele>
        <time>2026-03-24T13:42:49.000Z</time>
      </trkpt>
      <trkpt lat="49.33369" lon="-0.54489">
        <ele>46.599998474121</ele>
        <time>2026-03-24T13:42:50.000Z</time>
      </trkpt>
      <trkpt lat="49.3337" lon="-0.54489">
        <ele>46.599998474121</ele>
        <time>2026-03-24T13:42:51.000Z</time>
      </trkpt>
      <trkpt lat="49.33371" lon="-0.54489">
        <ele>46.599998474121</ele>
        <time>2026-03-24T13:42:52.000Z</time>
      </trkpt>
      <trkpt lat="49.33372" lon="-0.54489">
        <ele>46.599998474121</ele>
        <time>2026-03-24T13:42:53.000Z</time>
      </trkpt>
      <trkpt lat="49.33373" lon="-0.54489">
        <ele>46.599998474121</ele>
        <time>2026-03-24T13:42:54.000Z</time>
      </trkpt>
      <trkpt lat="49.33374" lon="-0.54489">
        <ele>46.599998474121</ele>
        <time>2026-03-24T13:42:55.000Z</time>
      </trkpt>
      <trkpt lat="49.33375" lon="-0.54489">
        <ele>46.599998474121</ele>
        <time>2026-03-24T13:42:56.000Z</time>
      </trkpt>
      <trkpt lat="49.33376" lon="-0.54489">
        <ele>46.599998474121</ele>
        <time>2026-03-24T13:42:57.000Z</time>
      </trkpt>
      <trkpt lat="49.33377" lon="-0.5449">
        <ele>46.599998474121</ele>
        <time>2026-03-24T13:42:58.000Z</time>
      </trkpt>
      <trkpt lat="49.33378" lon="-0.5449">
        <ele>46.599998474121</ele>
        <time>2026-03-24T13:42:59.000Z</time>
      </trkpt>
      <trkpt lat="49.33379" lon="-0.5449">
        <ele>46.599998474121</ele>
        <time>2026-03-24T13:43:00.000Z</time>
      </trkpt>
      <trkpt lat="49.3338" lon="-0.5449">
        <ele>46.599998474121</ele>
        <time>2026-03-24T13:43:01.000Z</time>
      </trkpt>
      <trkpt lat="49.33381" lon="-0.5449">
        <ele>46.599998474121</ele>
        <time>2026-03-24T13:43:02.000Z</time>
      </trkpt>
      <trkpt lat="49.33383" lon="-0.5449">
        <ele>46.599998474121</ele>
        <time>2026-03-24T13:43:03.000Z</time>
      </trkpt>
      <trkpt lat="49.33384" lon="-0.5449">
        <ele>46.599998474121</ele>
        <time>2026-03-24T13:43:04.000Z</time>
      </trkpt>
      <trkpt lat="49.33385" lon="-0.5449">
        <ele>46.599998474121</ele>
        <time>2026-03-24T13:43:05.000Z</time>
      </trkpt>
      <trkpt lat="49.33386" lon="-0.5449">
        <ele>46.599998474121</ele>
        <time>2026-03-24T13:43:06.000Z</time>
      </trkpt>
      <trkpt lat="49.33387" lon="-0.5449">
        <ele>46.599998474121</ele>
        <time>2026-03-24T13:43:07.000Z</time>
      </trkpt>
      <trkpt lat="49.33388" lon="-0.54491">
        <ele>46.599998474121</ele>
        <time>2026-03-24T13:43:08.000Z</time>
      </trkpt>
      <trkpt lat="49.33389" lon="-0.54491">
        <ele>46.599998474121</ele>
        <time>2026-03-24T13:43:09.000Z</time>
      </trkpt>
      <trkpt lat="49.3339" lon="-0.54491">
        <ele>46.599998474121</ele>
        <time>2026-03-24T13:43:10.000Z</time>
      </trkpt>
      <trkpt lat="49.33391" lon="-0.54491">
        <ele>46.599998474121</ele>
        <time>2026-03-24T13:43:11.000Z</time>
      </trkpt>
      <trkpt lat="49.33393" lon="-0.54491">
        <ele>46.599998474121</ele>
        <time>2026-03-24T13:43:12.000Z</time>
      </trkpt>
      <trkpt lat="49.33394" lon="-0.54491">
        <ele>46.599998474121</ele>
        <time>2026-03-24T13:43:13.000Z</time>
      </trkpt>
      <trkpt lat="49.33395" lon="-0.54491">
        <ele>46.599998474121</ele>
        <time>2026-03-24T13:43:14.000Z</time>
      </trkpt>
      <trkpt lat="49.33396" lon="-0.54491">
        <ele>46.599998474121</ele>
        <time>2026-03-24T13:43:15.000Z</time>
      </trkpt>
      <trkpt lat="49.33397" lon="-0.54491">
        <ele>46.599998474121</ele>
        <time>2026-03-24T13:43:16.000Z</time>
      </trkpt>
      <trkpt lat="49.33398" lon="-0.54491">
        <ele>46.599998474121</ele>
        <time>2026-03-24T13:43:17.000Z</time>
      </trkpt>
      <trkpt lat="49.33399" lon="-0.54492">
        <ele>46.599998474121</ele>
        <time>2026-03-24T13:43:18.000Z</time>
      </trkpt>
      <trkpt lat="49.334" lon="-0.54492">
        <ele>46.599998474121</ele>
        <time>2026-03-24T13:43:19.000Z</time>
      </trkpt>
      <trkpt lat="49.33401" lon="-0.54492">
        <ele>46.599998474121</ele>
        <time>2026-03-24T13:43:20.000Z</time>
      </trkpt>
      <trkpt lat="49.33402" lon="-0.54492">
        <ele>46.599998474121</ele>
        <time>2026-03-24T13:43:21.000Z</time>
      </trkpt>
      <trkpt lat="49.33404" lon="-0.54492">
        <ele>46.599998474121</ele>
        <time>2026-03-24T13:43:22.000Z</time>
      </trkpt>
      <trkpt lat="49.33405" lon="-0.54492">
        <ele>46.599998474121</ele>
        <time>2026-03-24T13:43:23.000Z</time>
      </trkpt>
      <trkpt lat="49.33406" lon="-0.54492">
        <ele>46.599998474121</ele>
        <time>2026-03-24T13:43:24.000Z</time>
      </trkpt>
      <trkpt lat="49.33407" lon="-0.54493">
        <ele>46.599998474121</ele>
        <time>2026-03-24T13:43:25.000Z</time>
      </trkpt>
      <trkpt lat="49.33408" lon="-0.54493">
        <ele>46.599998474121</ele>
        <time>2026-03-24T13:43:26.000Z</time>
      </trkpt>
      <trkpt lat="49.33409" lon="-0.54493">
        <ele>46.599998474121</ele>
        <time>2026-03-24T13:43:27.000Z</time>
      </trkpt>
      <trkpt lat="49.3341" lon="-0.54493">
        <ele>46.599998474121</ele>
        <time>2026-03-24T13:43:28.000Z</time>
      </trkpt>
      <trkpt lat="49.33411" lon="-0.54493">
        <ele>46.599998474121</ele>
        <time>2026-03-24T13:43:29.000Z</time>
      </trkpt>
      <trkpt lat="49.33412" lon="-0.54493">
        <ele>46.599998474121</ele>
        <time>2026-03-24T13:43:30.000Z</time>
      </trkpt>
      <trkpt lat="49.33413" lon="-0.54493">
        <ele>46.799999237061</ele>
        <time>2026-03-24T13:43:31.000Z</time>
      </trkpt>
      <trkpt lat="49.33414" lon="-0.54493">
        <ele>46.799999237061</ele>
        <time>2026-03-24T13:43:32.000Z</time>
      </trkpt>
      <trkpt lat="49.33415" lon="-0.54493">
        <ele>46.799999237061</ele>
        <time>2026-03-24T13:43:33.000Z</time>
      </trkpt>
      <trkpt lat="49.33416" lon="-0.54493">
        <ele>46.799999237061</ele>
        <time>2026-03-24T13:43:34.000Z</time>
      </trkpt>
      <trkpt lat="49.33417" lon="-0.54493">
        <ele>46.799999237061</ele>
        <time>2026-03-24T13:43:35.000Z</time>
      </trkpt>
      <trkpt lat="49.33418" lon="-0.54493">
        <ele>47</ele>
        <time>2026-03-24T13:43:36.000Z</time>
      </trkpt>
      <trkpt lat="49.33419" lon="-0.54493">
        <ele>47</ele>
        <time>2026-03-24T13:43:37.000Z</time>
      </trkpt>
      <trkpt lat="49.3342" lon="-0.54493">
        <ele>47</ele>
        <time>2026-03-24T13:43:38.000Z</time>
      </trkpt>
      <trkpt lat="49.33421" lon="-0.54493">
        <ele>47</ele>
        <time>2026-03-24T13:43:39.000Z</time>
      </trkpt>
      <trkpt lat="49.33421" lon="-0.54493">
        <ele>47</ele>
        <time>2026-03-24T13:43:40.000Z</time>
      </trkpt>
      <trkpt lat="49.33423" lon="-0.54493">
        <ele>47</ele>
        <time>2026-03-24T13:43:41.000Z</time>
      </trkpt>
      <trkpt lat="49.33424" lon="-0.54493">
        <ele>47</ele>
        <time>2026-03-24T13:43:42.000Z</time>
      </trkpt>
      <trkpt lat="49.33425" lon="-0.54493">
        <ele>47</ele>
        <time>2026-03-24T13:43:43.000Z</time>
      </trkpt>
      <trkpt lat="49.33426" lon="-0.54493">
        <ele>47</ele>
        <time>2026-03-24T13:43:44.000Z</time>
      </trkpt>
      <trkpt lat="49.33427" lon="-0.54493">
        <ele>47</ele>
        <time>2026-03-24T13:43:45.000Z</time>
      </trkpt>
      <trkpt lat="49.33428" lon="-0.54493">
        <ele>47</ele>
        <time>2026-03-24T13:43:46.000Z</time>
      </trkpt>
      <trkpt lat="49.33429" lon="-0.54493">
        <ele>47</ele>
        <time>2026-03-24T13:43:47.000Z</time>
      </trkpt>
      <trkpt lat="49.3343" lon="-0.54493">
        <ele>47</ele>
        <time>2026-03-24T13:43:48.000Z</time>
      </trkpt>
      <trkpt lat="49.33431" lon="-0.54493">
        <ele>47</ele>
        <time>2026-03-24T13:43:49.000Z</time>
      </trkpt>
      <trkpt lat="49.33432" lon="-0.54493">
        <ele>47</ele>
        <time>2026-03-24T13:43:50.000Z</time>
      </trkpt>
      <trkpt lat="49.33433" lon="-0.54493">
        <ele>47</ele>
        <time>2026-03-24T13:43:51.000Z</time>
      </trkpt>
      <trkpt lat="49.33434" lon="-0.54493">
        <ele>47</ele>
        <time>2026-03-24T13:43:52.000Z</time>
      </trkpt>
      <trkpt lat="49.33435" lon="-0.54494">
        <ele>47</ele>
        <time>2026-03-24T13:43:53.000Z</time>
      </trkpt>
      <trkpt lat="49.33436" lon="-0.54494">
        <ele>47</ele>
        <time>2026-03-24T13:43:54.000Z</time>
      </trkpt>
      <trkpt lat="49.33437" lon="-0.54494">
        <ele>47</ele>
        <time>2026-03-24T13:43:55.000Z</time>
      </trkpt>
      <trkpt lat="49.33438" lon="-0.54494">
        <ele>47</ele>
        <time>2026-03-24T13:43:56.000Z</time>
      </trkpt>
      <trkpt lat="49.33439" lon="-0.54494">
        <ele>47</ele>
        <time>2026-03-24T13:43:57.000Z</time>
      </trkpt>
      <trkpt lat="49.3344" lon="-0.54494">
        <ele>47</ele>
        <time>2026-03-24T13:43:58.000Z</time>
      </trkpt>
      <trkpt lat="49.33441" lon="-0.54494">
        <ele>47</ele>
        <time>2026-03-24T13:43:59.000Z</time>
      </trkpt>
      <trkpt lat="49.33442" lon="-0.54494">
        <ele>47</ele>
        <time>2026-03-24T13:44:00.000Z</time>
      </trkpt>
      <trkpt lat="49.33443" lon="-0.54494">
        <ele>47</ele>
        <time>2026-03-24T13:44:01.000Z</time>
      </trkpt>
      <trkpt lat="49.33444" lon="-0.54494">
        <ele>47</ele>
        <time>2026-03-24T13:44:02.000Z</time>
      </trkpt>
      <trkpt lat="49.33445" lon="-0.54494">
        <ele>47</ele>
        <time>2026-03-24T13:44:03.000Z</time>
      </trkpt>
      <trkpt lat="49.33446" lon="-0.54494">
        <ele>47</ele>
        <time>2026-03-24T13:44:04.000Z</time>
      </trkpt>
      <trkpt lat="49.33447" lon="-0.54494">
        <ele>47</ele>
        <time>2026-03-24T13:44:05.000Z</time>
      </trkpt>
      <trkpt lat="49.33448" lon="-0.54494">
        <ele>47</ele>
        <time>2026-03-24T13:44:06.000Z</time>
      </trkpt>
      <trkpt lat="49.3345" lon="-0.54494">
        <ele>47</ele>
        <time>2026-03-24T13:44:07.000Z</time>
      </trkpt>
      <trkpt lat="49.33451" lon="-0.54494">
        <ele>47</ele>
        <time>2026-03-24T13:44:08.000Z</time>
      </trkpt>
      <trkpt lat="49.33452" lon="-0.54494">
        <ele>47</ele>
        <time>2026-03-24T13:44:09.000Z</time>
      </trkpt>
      <trkpt lat="49.33453" lon="-0.54494">
        <ele>47</ele>
        <time>2026-03-24T13:44:10.000Z</time>
      </trkpt>
      <trkpt lat="49.33454" lon="-0.54495">
        <ele>47</ele>
        <time>2026-03-24T13:44:11.000Z</time>
      </trkpt>
      <trkpt lat="49.33455" lon="-0.54495">
        <ele>47</ele>
        <time>2026-03-24T13:44:12.000Z</time>
      </trkpt>
      <trkpt lat="49.33456" lon="-0.54495">
        <ele>47</ele>
        <time>2026-03-24T13:44:13.000Z</time>
      </trkpt>
      <trkpt lat="49.33457" lon="-0.54495">
        <ele>47</ele>
        <time>2026-03-24T13:44:14.000Z</time>
      </trkpt>
      <trkpt lat="49.33458" lon="-0.54495">
        <ele>47</ele>
        <time>2026-03-24T13:44:15.000Z</time>
      </trkpt>
      <trkpt lat="49.33459" lon="-0.54495">
        <ele>47</ele>
        <time>2026-03-24T13:44:16.000Z</time>
      </trkpt>
      <trkpt lat="49.3346" lon="-0.54495">
        <ele>47</ele>
        <time>2026-03-24T13:44:17.000Z</time>
      </trkpt>
      <trkpt lat="49.33461" lon="-0.54496">
        <ele>47</ele>
        <time>2026-03-24T13:44:18.000Z</time>
      </trkpt>
      <trkpt lat="49.33462" lon="-0.54496">
        <ele>47</ele>
        <time>2026-03-24T13:44:19.000Z</time>
      </trkpt>
      <trkpt lat="49.33464" lon="-0.54496">
        <ele>47</ele>
        <time>2026-03-24T13:44:20.000Z</time>
      </trkpt>
      <trkpt lat="49.33464" lon="-0.54496">
        <ele>47</ele>
        <time>2026-03-24T13:44:21.000Z</time>
      </trkpt>
      <trkpt lat="49.33465" lon="-0.54496">
        <ele>47</ele>
        <time>2026-03-24T13:44:22.000Z</time>
      </trkpt>
      <trkpt lat="49.33467" lon="-0.54496">
        <ele>47</ele>
        <time>2026-03-24T13:44:23.000Z</time>
      </trkpt>
      <trkpt lat="49.33467" lon="-0.54497">
        <ele>47</ele>
        <time>2026-03-24T13:44:24.000Z</time>
      </trkpt>
      <trkpt lat="49.33468" lon="-0.54497">
        <ele>47</ele>
        <time>2026-03-24T13:44:25.000Z</time>
      </trkpt>
      <trkpt lat="49.33469" lon="-0.54497">
        <ele>47</ele>
        <time>2026-03-24T13:44:26.000Z</time>
      </trkpt>
      <trkpt lat="49.3347" lon="-0.54497">
        <ele>46.799999237061</ele>
        <time>2026-03-24T13:44:27.000Z</time>
      </trkpt>
      <trkpt lat="49.33472" lon="-0.54497">
        <ele>46.799999237061</ele>
        <time>2026-03-24T13:44:28.000Z</time>
      </trkpt>
      <trkpt lat="49.33473" lon="-0.54497">
        <ele>46.799999237061</ele>
        <time>2026-03-24T13:44:29.000Z</time>
      </trkpt>
      <trkpt lat="49.33474" lon="-0.54497">
        <ele>46.799999237061</ele>
        <time>2026-03-24T13:44:30.000Z</time>
      </trkpt>
      <trkpt lat="49.33475" lon="-0.54497">
        <ele>46.799999237061</ele>
        <time>2026-03-24T13:44:31.000Z</time>
      </trkpt>
      <trkpt lat="49.33476" lon="-0.54497">
        <ele>46.799999237061</ele>
        <time>2026-03-24T13:44:32.000Z</time>
      </trkpt>
      <trkpt lat="49.33477" lon="-0.54497">
        <ele>46.799999237061</ele>
        <time>2026-03-24T13:44:33.000Z</time>
      </trkpt>
      <trkpt lat="49.33478" lon="-0.54497">
        <ele>46.799999237061</ele>
        <time>2026-03-24T13:44:34.000Z</time>
      </trkpt>
      <trkpt lat="49.33479" lon="-0.54497">
        <ele>46.799999237061</ele>
        <time>2026-03-24T13:44:35.000Z</time>
      </trkpt>
      <trkpt lat="49.3348" lon="-0.54497">
        <ele>46.799999237061</ele>
        <time>2026-03-24T13:44:36.000Z</time>
      </trkpt>
      <trkpt lat="49.33481" lon="-0.54497">
        <ele>46.799999237061</ele>
        <time>2026-03-24T13:44:37.000Z</time>
      </trkpt>
      <trkpt lat="49.33482" lon="-0.54497">
        <ele>46.799999237061</ele>
        <time>2026-03-24T13:44:38.000Z</time>
      </trkpt>
      <trkpt lat="49.33483" lon="-0.54497">
        <ele>46.799999237061</ele>
        <time>2026-03-24T13:44:39.000Z</time>
      </trkpt>
      <trkpt lat="49.33484" lon="-0.54497">
        <ele>46.799999237061</ele>
        <time>2026-03-24T13:44:40.000Z</time>
      </trkpt>
      <trkpt lat="49.33486" lon="-0.54497">
        <ele>46.799999237061</ele>
        <time>2026-03-24T13:44:41.000Z</time>
      </trkpt>
      <trkpt lat="49.33487" lon="-0.54498">
        <ele>46.799999237061</ele>
        <time>2026-03-24T13:44:42.000Z</time>
      </trkpt>
      <trkpt lat="49.33488" lon="-0.54498">
        <ele>46.799999237061</ele>
        <time>2026-03-24T13:44:43.000Z</time>
      </trkpt>
      <trkpt lat="49.33489" lon="-0.54498">
        <ele>46.799999237061</ele>
        <time>2026-03-24T13:44:44.000Z</time>
      </trkpt>
      <trkpt lat="49.3349" lon="-0.54498">
        <ele>46.799999237061</ele>
        <time>2026-03-24T13:44:45.000Z</time>
      </trkpt>
      <trkpt lat="49.33491" lon="-0.54498">
        <ele>46.799999237061</ele>
        <time>2026-03-24T13:44:46.000Z</time>
      </trkpt>
      <trkpt lat="49.33492" lon="-0.54498">
        <ele>46.799999237061</ele>
        <time>2026-03-24T13:44:47.000Z</time>
      </trkpt>
      <trkpt lat="49.33493" lon="-0.54498">
        <ele>46.799999237061</ele>
        <time>2026-03-24T13:44:48.000Z</time>
      </trkpt>
      <trkpt lat="49.33494" lon="-0.54499">
        <ele>47</ele>
        <time>2026-03-24T13:44:49.000Z</time>
      </trkpt>
      <trkpt lat="49.33495" lon="-0.54499">
        <ele>47</ele>
        <time>2026-03-24T13:44:50.000Z</time>
      </trkpt>
      <trkpt lat="49.33496" lon="-0.54499">
        <ele>47</ele>
        <time>2026-03-24T13:44:51.000Z</time>
      </trkpt>
      <trkpt lat="49.33497" lon="-0.54499">
        <ele>47</ele>
        <time>2026-03-24T13:44:52.000Z</time>
      </trkpt>
      <trkpt lat="49.33498" lon="-0.54499">
        <ele>47</ele>
        <time>2026-03-24T13:44:53.000Z</time>
      </trkpt>
      <trkpt lat="49.33499" lon="-0.54499">
        <ele>46.799999237061</ele>
        <time>2026-03-24T13:44:54.000Z</time>
      </trkpt>
      <trkpt lat="49.335" lon="-0.54499">
        <ele>46.799999237061</ele>
        <time>2026-03-24T13:44:55.000Z</time>
      </trkpt>
      <trkpt lat="49.33501" lon="-0.54499">
        <ele>46.799999237061</ele>
        <time>2026-03-24T13:44:56.000Z</time>
      </trkpt>
      <trkpt lat="49.33502" lon="-0.54499">
        <ele>46.799999237061</ele>
        <time>2026-03-24T13:44:57.000Z</time>
      </trkpt>
      <trkpt lat="49.33503" lon="-0.54499">
        <ele>46.799999237061</ele>
        <time>2026-03-24T13:44:58.000Z</time>
      </trkpt>
      <trkpt lat="49.33504" lon="-0.54499">
        <ele>46.599998474121</ele>
        <time>2026-03-24T13:44:59.000Z</time>
      </trkpt>
      <trkpt lat="49.33505" lon="-0.54499">
        <ele>46.599998474121</ele>
        <time>2026-03-24T13:45:00.000Z</time>
      </trkpt>
      <trkpt lat="49.33506" lon="-0.54499">
        <ele>46.599998474121</ele>
        <time>2026-03-24T13:45:01.000Z</time>
      </trkpt>
      <trkpt lat="49.33507" lon="-0.54499">
        <ele>46.599998474121</ele>
        <time>2026-03-24T13:45:02.000Z</time>
      </trkpt>
      <trkpt lat="49.33508" lon="-0.54499">
        <ele>46.599998474121</ele>
        <time>2026-03-24T13:45:03.000Z</time>
      </trkpt>
      <trkpt lat="49.33509" lon="-0.54499">
        <ele>46.599998474121</ele>
        <time>2026-03-24T13:45:04.000Z</time>
      </trkpt>
      <trkpt lat="49.3351" lon="-0.54499">
        <ele>46.400001525879</ele>
        <time>2026-03-24T13:45:05.000Z</time>
      </trkpt>
      <trkpt lat="49.33511" lon="-0.54499">
        <ele>46.400001525879</ele>
        <time>2026-03-24T13:45:06.000Z</time>
      </trkpt>
      <trkpt lat="49.33512" lon="-0.54499">
        <ele>46.400001525879</ele>
        <time>2026-03-24T13:45:07.000Z</time>
      </trkpt>
      <trkpt lat="49.33513" lon="-0.54499">
        <ele>46.400001525879</ele>
        <time>2026-03-24T13:45:08.000Z</time>
      </trkpt>
      <trkpt lat="49.33514" lon="-0.54499">
        <ele>46.400001525879</ele>
        <time>2026-03-24T13:45:09.000Z</time>
      </trkpt>
      <trkpt lat="49.33515" lon="-0.545">
        <ele>46.200000762939</ele>
        <time>2026-03-24T13:45:10.000Z</time>
      </trkpt>
      <trkpt lat="49.33516" lon="-0.545">
        <ele>46.200000762939</ele>
        <time>2026-03-24T13:45:11.000Z</time>
      </trkpt>
      <trkpt lat="49.33517" lon="-0.545">
        <ele>46.200000762939</ele>
        <time>2026-03-24T13:45:12.000Z</time>
      </trkpt>
      <trkpt lat="49.33518" lon="-0.545">
        <ele>46.200000762939</ele>
        <time>2026-03-24T13:45:13.000Z</time>
      </trkpt>
      <trkpt lat="49.33519" lon="-0.545">
        <ele>46.200000762939</ele>
        <time>2026-03-24T13:45:14.000Z</time>
      </trkpt>
      <trkpt lat="49.3352" lon="-0.545">
        <ele>46.200000762939</ele>
        <time>2026-03-24T13:45:15.000Z</time>
      </trkpt>
      <trkpt lat="49.33521" lon="-0.545">
        <ele>46</ele>
        <time>2026-03-24T13:45:16.000Z</time>
      </trkpt>
      <trkpt lat="49.33522" lon="-0.545">
        <ele>46</ele>
        <time>2026-03-24T13:45:17.000Z</time>
      </trkpt>
      <trkpt lat="49.33523" lon="-0.54501">
        <ele>46</ele>
        <time>2026-03-24T13:45:18.000Z</time>
      </trkpt>
      <trkpt lat="49.33525" lon="-0.54501">
        <ele>46</ele>
        <time>2026-03-24T13:45:19.000Z</time>
      </trkpt>
      <trkpt lat="49.33526" lon="-0.54501">
        <ele>46</ele>
        <time>2026-03-24T13:45:20.000Z</time>
      </trkpt>
      <trkpt lat="49.33527" lon="-0.54501">
        <ele>45.799999237061</ele>
        <time>2026-03-24T13:45:21.000Z</time>
      </trkpt>
      <trkpt lat="49.33528" lon="-0.54501">
        <ele>45.799999237061</ele>
        <time>2026-03-24T13:45:22.000Z</time>
      </trkpt>
      <trkpt lat="49.33529" lon="-0.54501">
        <ele>45.799999237061</ele>
        <time>2026-03-24T13:45:23.000Z</time>
      </trkpt>
      <trkpt lat="49.3353" lon="-0.54501">
        <ele>45.799999237061</ele>
        <time>2026-03-24T13:45:24.000Z</time>
      </trkpt>
      <trkpt lat="49.33531" lon="-0.54502">
        <ele>45.799999237061</ele>
        <time>2026-03-24T13:45:25.000Z</time>
      </trkpt>
      <trkpt lat="49.33532" lon="-0.54502">
        <ele>45.599998474121</ele>
        <time>2026-03-24T13:45:26.000Z</time>
      </trkpt>
      <trkpt lat="49.33533" lon="-0.54502">
        <ele>45.599998474121</ele>
        <time>2026-03-24T13:45:27.000Z</time>
      </trkpt>
      <trkpt lat="49.33534" lon="-0.54502">
        <ele>45.599998474121</ele>
        <time>2026-03-24T13:45:28.000Z</time>
      </trkpt>
      <trkpt lat="49.33535" lon="-0.54502">
        <ele>45.599998474121</ele>
        <time>2026-03-24T13:45:29.000Z</time>
      </trkpt>
      <trkpt lat="49.33536" lon="-0.54502">
        <ele>45.599998474121</ele>
        <time>2026-03-24T13:45:30.000Z</time>
      </trkpt>
      <trkpt lat="49.33537" lon="-0.54502">
        <ele>45.599998474121</ele>
        <time>2026-03-24T13:45:31.000Z</time>
      </trkpt>
      <trkpt lat="49.33538" lon="-0.54502">
        <ele>45.400001525879</ele>
        <time>2026-03-24T13:45:32.000Z</time>
      </trkpt>
      <trkpt lat="49.33539" lon="-0.54502">
        <ele>45.400001525879</ele>
        <time>2026-03-24T13:45:33.000Z</time>
      </trkpt>
      <trkpt lat="49.3354" lon="-0.54502">
        <ele>45.400001525879</ele>
        <time>2026-03-24T13:45:34.000Z</time>
      </trkpt>
      <trkpt lat="49.33541" lon="-0.54502">
        <ele>45.400001525879</ele>
        <time>2026-03-24T13:45:35.000Z</time>
      </trkpt>
      <trkpt lat="49.33542" lon="-0.54503">
        <ele>45.400001525879</ele>
        <time>2026-03-24T13:45:36.000Z</time>
      </trkpt>
      <trkpt lat="49.33543" lon="-0.54503">
        <ele>45.200000762939</ele>
        <time>2026-03-24T13:45:37.000Z</time>
      </trkpt>
      <trkpt lat="49.33544" lon="-0.54503">
        <ele>45.200000762939</ele>
        <time>2026-03-24T13:45:38.000Z</time>
      </trkpt>
      <trkpt lat="49.33545" lon="-0.54503">
        <ele>45.200000762939</ele>
        <time>2026-03-24T13:45:39.000Z</time>
      </trkpt>
      <trkpt lat="49.33546" lon="-0.54503">
        <ele>45.200000762939</ele>
        <time>2026-03-24T13:45:40.000Z</time>
      </trkpt>
      <trkpt lat="49.33548" lon="-0.54503">
        <ele>45.200000762939</ele>
        <time>2026-03-24T13:45:41.000Z</time>
      </trkpt>
      <trkpt lat="49.33549" lon="-0.54503">
        <ele>45</ele>
        <time>2026-03-24T13:45:42.000Z</time>
      </trkpt>
      <trkpt lat="49.3355" lon="-0.54503">
        <ele>45</ele>
        <time>2026-03-24T13:45:43.000Z</time>
      </trkpt>
      <trkpt lat="49.33551" lon="-0.54503">
        <ele>45</ele>
        <time>2026-03-24T13:45:44.000Z</time>
      </trkpt>
      <trkpt lat="49.33552" lon="-0.54503">
        <ele>45</ele>
        <time>2026-03-24T13:45:45.000Z</time>
      </trkpt>
      <trkpt lat="49.33553" lon="-0.54503">
        <ele>45</ele>
        <time>2026-03-24T13:45:46.000Z</time>
      </trkpt>
      <trkpt lat="49.33554" lon="-0.54503">
        <ele>45</ele>
        <time>2026-03-24T13:45:47.000Z</time>
      </trkpt>
      <trkpt lat="49.33556" lon="-0.54504">
        <ele>45</ele>
        <time>2026-03-24T13:45:48.000Z</time>
      </trkpt>
      <trkpt lat="49.33557" lon="-0.54504">
        <ele>45</ele>
        <time>2026-03-24T13:45:49.000Z</time>
      </trkpt>
      <trkpt lat="49.33558" lon="-0.54504">
        <ele>45</ele>
        <time>2026-03-24T13:45:50.000Z</time>
      </trkpt>
      <trkpt lat="49.33559" lon="-0.54504">
        <ele>45</ele>
        <time>2026-03-24T13:45:51.000Z</time>
      </trkpt>
      <trkpt lat="49.3356" lon="-0.54504">
        <ele>45</ele>
        <time>2026-03-24T13:45:52.000Z</time>
      </trkpt>
      <trkpt lat="49.33561" lon="-0.54504">
        <ele>45</ele>
        <time>2026-03-24T13:45:53.000Z</time>
      </trkpt>
      <trkpt lat="49.33563" lon="-0.54504">
        <ele>45.200000762939</ele>
        <time>2026-03-24T13:45:54.000Z</time>
      </trkpt>
      <trkpt lat="49.33564" lon="-0.54504">
        <ele>45.200000762939</ele>
        <time>2026-03-24T13:45:55.000Z</time>
      </trkpt>
      <trkpt lat="49.33565" lon="-0.54504">
        <ele>45.200000762939</ele>
        <time>2026-03-24T13:45:56.000Z</time>
      </trkpt>
      <trkpt lat="49.33566" lon="-0.54504">
        <ele>45.200000762939</ele>
        <time>2026-03-24T13:45:57.000Z</time>
      </trkpt>
      <trkpt lat="49.33567" lon="-0.54504">
        <ele>45.200000762939</ele>
        <time>2026-03-24T13:45:58.000Z</time>
      </trkpt>
      <trkpt lat="49.33568" lon="-0.54505">
        <ele>45.200000762939</ele>
        <time>2026-03-24T13:45:59.000Z</time>
      </trkpt>
      <trkpt lat="49.33569" lon="-0.54505">
        <ele>45.200000762939</ele>
        <time>2026-03-24T13:46:00.000Z</time>
      </trkpt>
      <trkpt lat="49.3357" lon="-0.54505">
        <ele>45.200000762939</ele>
        <time>2026-03-24T13:46:01.000Z</time>
      </trkpt>
      <trkpt lat="49.33571" lon="-0.54505">
        <ele>45.200000762939</ele>
        <time>2026-03-24T13:46:02.000Z</time>
      </trkpt>
      <trkpt lat="49.33572" lon="-0.54505">
        <ele>45.200000762939</ele>
        <time>2026-03-24T13:46:03.000Z</time>
      </trkpt>
      <trkpt lat="49.33573" lon="-0.54505">
        <ele>45.200000762939</ele>
        <time>2026-03-24T13:46:04.000Z</time>
      </trkpt>
      <trkpt lat="49.33575" lon="-0.54505">
        <ele>45.200000762939</ele>
        <time>2026-03-24T13:46:05.000Z</time>
      </trkpt>
      <trkpt lat="49.33576" lon="-0.54506">
        <ele>45.200000762939</ele>
        <time>2026-03-24T13:46:06.000Z</time>
      </trkpt>
      <trkpt lat="49.33577" lon="-0.54506">
        <ele>45</ele>
        <time>2026-03-24T13:46:07.000Z</time>
      </trkpt>
      <trkpt lat="49.33577" lon="-0.54506">
        <ele>45</ele>
        <time>2026-03-24T13:46:08.000Z</time>
      </trkpt>
      <trkpt lat="49.33578" lon="-0.54506">
        <ele>45</ele>
        <time>2026-03-24T13:46:09.000Z</time>
      </trkpt>
      <trkpt lat="49.33579" lon="-0.54506">
        <ele>45</ele>
        <time>2026-03-24T13:46:10.000Z</time>
      </trkpt>
      <trkpt lat="49.33581" lon="-0.54506">
        <ele>45</ele>
        <time>2026-03-24T13:46:11.000Z</time>
      </trkpt>
      <trkpt lat="49.33582" lon="-0.54506">
        <ele>44.799999237061</ele>
        <time>2026-03-24T13:46:12.000Z</time>
      </trkpt>
      <trkpt lat="49.33583" lon="-0.54507">
        <ele>44.799999237061</ele>
        <time>2026-03-24T13:46:13.000Z</time>
      </trkpt>
      <trkpt lat="49.33584" lon="-0.54507">
        <ele>44.799999237061</ele>
        <time>2026-03-24T13:46:14.000Z</time>
      </trkpt>
      <trkpt lat="49.33585" lon="-0.54507">
        <ele>44.799999237061</ele>
        <time>2026-03-24T13:46:15.000Z</time>
      </trkpt>
      <trkpt lat="49.33586" lon="-0.54507">
        <ele>44.799999237061</ele>
        <time>2026-03-24T13:46:16.000Z</time>
      </trkpt>
      <trkpt lat="49.33587" lon="-0.54507">
        <ele>44.799999237061</ele>
        <time>2026-03-24T13:46:17.000Z</time>
      </trkpt>
      <trkpt lat="49.33588" lon="-0.54507">
        <ele>44.599998474121</ele>
        <time>2026-03-24T13:46:18.000Z</time>
      </trkpt>
      <trkpt lat="49.33589" lon="-0.54507">
        <ele>44.599998474121</ele>
        <time>2026-03-24T13:46:19.000Z</time>
      </trkpt>
      <trkpt lat="49.3359" lon="-0.54507">
        <ele>44.599998474121</ele>
        <time>2026-03-24T13:46:20.000Z</time>
      </trkpt>
      <trkpt lat="49.33591" lon="-0.54507">
        <ele>44.599998474121</ele>
        <time>2026-03-24T13:46:21.000Z</time>
      </trkpt>
      <trkpt lat="49.33592" lon="-0.54507">
        <ele>44.599998474121</ele>
        <time>2026-03-24T13:46:22.000Z</time>
      </trkpt>
      <trkpt lat="49.33593" lon="-0.54508">
        <ele>44.400001525879</ele>
        <time>2026-03-24T13:46:23.000Z</time>
      </trkpt>
      <trkpt lat="49.33594" lon="-0.54508">
        <ele>44.400001525879</ele>
        <time>2026-03-24T13:46:24.000Z</time>
      </trkpt>
      <trkpt lat="49.33595" lon="-0.54508">
        <ele>44.400001525879</ele>
        <time>2026-03-24T13:46:25.000Z</time>
      </trkpt>
      <trkpt lat="49.33596" lon="-0.54508">
        <ele>44.400001525879</ele>
        <time>2026-03-24T13:46:26.000Z</time>
      </trkpt>
      <trkpt lat="49.33597" lon="-0.54508">
        <ele>44.400001525879</ele>
        <time>2026-03-24T13:46:27.000Z</time>
      </trkpt>
      <trkpt lat="49.33598" lon="-0.54508">
        <ele>44.400001525879</ele>
        <time>2026-03-24T13:46:28.000Z</time>
      </trkpt>
      <trkpt lat="49.33599" lon="-0.54508">
        <ele>44.200000762939</ele>
        <time>2026-03-24T13:46:29.000Z</time>
      </trkpt>
      <trkpt lat="49.336" lon="-0.54508">
        <ele>44.200000762939</ele>
        <time>2026-03-24T13:46:30.000Z</time>
      </trkpt>
      <trkpt lat="49.33602" lon="-0.54508">
        <ele>44.200000762939</ele>
        <time>2026-03-24T13:46:31.000Z</time>
      </trkpt>
      <trkpt lat="49.33603" lon="-0.54508">
        <ele>44.200000762939</ele>
        <time>2026-03-24T13:46:32.000Z</time>
      </trkpt>
      <trkpt lat="49.33604" lon="-0.54508">
        <ele>44.200000762939</ele>
        <time>2026-03-24T13:46:33.000Z</time>
      </trkpt>
      <trkpt lat="49.33605" lon="-0.54508">
        <ele>44</ele>
        <time>2026-03-24T13:46:34.000Z</time>
      </trkpt>
      <trkpt lat="49.33606" lon="-0.54508">
        <ele>44</ele>
        <time>2026-03-24T13:46:35.000Z</time>
      </trkpt>
      <trkpt lat="49.33607" lon="-0.54509">
        <ele>44</ele>
        <time>2026-03-24T13:46:36.000Z</time>
      </trkpt>
      <trkpt lat="49.33608" lon="-0.54509">
        <ele>44</ele>
        <time>2026-03-24T13:46:37.000Z</time>
      </trkpt>
      <trkpt lat="49.33609" lon="-0.54509">
        <ele>44</ele>
        <time>2026-03-24T13:46:38.000Z</time>
      </trkpt>
      <trkpt lat="49.3361" lon="-0.54509">
        <ele>43.799999237061</ele>
        <time>2026-03-24T13:46:39.000Z</time>
      </trkpt>
      <trkpt lat="49.33611" lon="-0.54509">
        <ele>43.799999237061</ele>
        <time>2026-03-24T13:46:40.000Z</time>
      </trkpt>
      <trkpt lat="49.33612" lon="-0.54509">
        <ele>43.799999237061</ele>
        <time>2026-03-24T13:46:41.000Z</time>
      </trkpt>
      <trkpt lat="49.33613" lon="-0.54509">
        <ele>43.799999237061</ele>
        <time>2026-03-24T13:46:42.000Z</time>
      </trkpt>
      <trkpt lat="49.33614" lon="-0.54509">
        <ele>43.799999237061</ele>
        <time>2026-03-24T13:46:43.000Z</time>
      </trkpt>
      <trkpt lat="49.33615" lon="-0.5451">
        <ele>43.599998474121</ele>
        <time>2026-03-24T13:46:44.000Z</time>
      </trkpt>
      <trkpt lat="49.33616" lon="-0.5451">
        <ele>43.599998474121</ele>
        <time>2026-03-24T13:46:45.000Z</time>
      </trkpt>
      <trkpt lat="49.33617" lon="-0.5451">
        <ele>43.599998474121</ele>
        <time>2026-03-24T13:46:46.000Z</time>
      </trkpt>
      <trkpt lat="49.33618" lon="-0.5451">
        <ele>43.599998474121</ele>
        <time>2026-03-24T13:46:47.000Z</time>
      </trkpt>
      <trkpt lat="49.33619" lon="-0.5451">
        <ele>43.599998474121</ele>
        <time>2026-03-24T13:46:48.000Z</time>
      </trkpt>
      <trkpt lat="49.3362" lon="-0.5451">
        <ele>43.599998474121</ele>
        <time>2026-03-24T13:46:49.000Z</time>
      </trkpt>
      <trkpt lat="49.33621" lon="-0.5451">
        <ele>43.400001525879</ele>
        <time>2026-03-24T13:46:50.000Z</time>
      </trkpt>
      <trkpt lat="49.33622" lon="-0.5451">
        <ele>43.400001525879</ele>
        <time>2026-03-24T13:46:51.000Z</time>
      </trkpt>
      <trkpt lat="49.33624" lon="-0.54511">
        <ele>43.400001525879</ele>
        <time>2026-03-24T13:46:52.000Z</time>
      </trkpt>
      <trkpt lat="49.33625" lon="-0.54511">
        <ele>43.400001525879</ele>
        <time>2026-03-24T13:46:53.000Z</time>
      </trkpt>
      <trkpt lat="49.33626" lon="-0.54511">
        <ele>43.400001525879</ele>
        <time>2026-03-24T13:46:54.000Z</time>
      </trkpt>
      <trkpt lat="49.33626" lon="-0.54511">
        <ele>43.200000762939</ele>
        <time>2026-03-24T13:46:55.000Z</time>
      </trkpt>
      <trkpt lat="49.33627" lon="-0.54511">
        <ele>43.200000762939</ele>
        <time>2026-03-24T13:46:56.000Z</time>
      </trkpt>
      <trkpt lat="49.33628" lon="-0.54511">
        <ele>43.200000762939</ele>
        <time>2026-03-24T13:46:57.000Z</time>
      </trkpt>
      <trkpt lat="49.33629" lon="-0.54511">
        <ele>43.200000762939</ele>
        <time>2026-03-24T13:46:58.000Z</time>
      </trkpt>
      <trkpt lat="49.33629" lon="-0.54511">
        <ele>43.200000762939</ele>
        <time>2026-03-24T13:46:59.000Z</time>
      </trkpt>
      <trkpt lat="49.3363" lon="-0.54511">
        <ele>43.200000762939</ele>
        <time>2026-03-24T13:47:00.000Z</time>
      </trkpt>
      <trkpt lat="49.33631" lon="-0.54511">
        <ele>43.200000762939</ele>
        <time>2026-03-24T13:47:01.000Z</time>
      </trkpt>
      <trkpt lat="49.33632" lon="-0.54511">
        <ele>43</ele>
        <time>2026-03-24T13:47:02.000Z</time>
      </trkpt>
      <trkpt lat="49.33633" lon="-0.54511">
        <ele>43</ele>
        <time>2026-03-24T13:47:03.000Z</time>
      </trkpt>
      <trkpt lat="49.33633" lon="-0.54511">
        <ele>43</ele>
        <time>2026-03-24T13:47:04.000Z</time>
      </trkpt>
      <trkpt lat="49.33634" lon="-0.54511">
        <ele>43</ele>
        <time>2026-03-24T13:47:05.000Z</time>
      </trkpt>
      <trkpt lat="49.33635" lon="-0.54511">
        <ele>43</ele>
        <time>2026-03-24T13:47:06.000Z</time>
      </trkpt>
      <trkpt lat="49.33636" lon="-0.5451">
        <ele>43</ele>
        <time>2026-03-24T13:47:07.000Z</time>
      </trkpt>
      <trkpt lat="49.33636" lon="-0.5451">
        <ele>43</ele>
        <time>2026-03-24T13:47:08.000Z</time>
      </trkpt>
      <trkpt lat="49.33637" lon="-0.5451">
        <ele>43.200000762939</ele>
        <time>2026-03-24T13:47:09.000Z</time>
      </trkpt>
      <trkpt lat="49.33638" lon="-0.54511">
        <ele>43.200000762939</ele>
        <time>2026-03-24T13:47:10.000Z</time>
      </trkpt>
      <trkpt lat="49.33638" lon="-0.54511">
        <ele>43.200000762939</ele>
        <time>2026-03-24T13:47:11.000Z</time>
      </trkpt>
      <trkpt lat="49.33639" lon="-0.54511">
        <ele>43.200000762939</ele>
        <time>2026-03-24T13:47:12.000Z</time>
      </trkpt>
      <trkpt lat="49.33639" lon="-0.54511">
        <ele>43.200000762939</ele>
        <time>2026-03-24T13:47:13.000Z</time>
      </trkpt>
      <trkpt lat="49.3364" lon="-0.54511">
        <ele>43.200000762939</ele>
        <time>2026-03-24T13:47:14.000Z</time>
      </trkpt>
      <trkpt lat="49.3364" lon="-0.54511">
        <ele>43.200000762939</ele>
        <time>2026-03-24T13:47:15.000Z</time>
      </trkpt>
      <trkpt lat="49.33641" lon="-0.54512">
        <ele>43.200000762939</ele>
        <time>2026-03-24T13:47:16.000Z</time>
      </trkpt>
      <trkpt lat="49.33642" lon="-0.54512">
        <ele>43.200000762939</ele>
        <time>2026-03-24T13:47:17.000Z</time>
      </trkpt>
      <trkpt lat="49.33643" lon="-0.54512">
        <ele>43.400001525879</ele>
        <time>2026-03-24T13:47:18.000Z</time>
      </trkpt>
      <trkpt lat="49.33643" lon="-0.54512">
        <ele>43.400001525879</ele>
        <time>2026-03-24T13:47:19.000Z</time>
      </trkpt>
      <trkpt lat="49.33644" lon="-0.54512">
        <ele>43.400001525879</ele>
        <time>2026-03-24T13:47:20.000Z</time>
      </trkpt>
      <trkpt lat="49.33645" lon="-0.54512">
        <ele>43.400001525879</ele>
        <time>2026-03-24T13:47:21.000Z</time>
      </trkpt>
      <trkpt lat="49.33645" lon="-0.54512">
        <ele>43.400001525879</ele>
        <time>2026-03-24T13:47:22.000Z</time>
      </trkpt>
      <trkpt lat="49.33645" lon="-0.54512">
        <ele>43.400001525879</ele>
        <time>2026-03-24T13:47:23.000Z</time>
      </trkpt>
      <trkpt lat="49.33646" lon="-0.54512">
        <ele>43.400001525879</ele>
        <time>2026-03-24T13:47:24.000Z</time>
      </trkpt>
      <trkpt lat="49.33647" lon="-0.54512">
        <ele>43.400001525879</ele>
        <time>2026-03-24T13:47:25.000Z</time>
      </trkpt>
      <trkpt lat="49.33648" lon="-0.54512">
        <ele>43.400001525879</ele>
        <time>2026-03-24T13:47:26.000Z</time>
      </trkpt>
      <trkpt lat="49.33648" lon="-0.54512">
        <ele>43.599998474121</ele>
        <time>2026-03-24T13:47:27.000Z</time>
      </trkpt>
      <trkpt lat="49.33649" lon="-0.54513">
        <ele>43.599998474121</ele>
        <time>2026-03-24T13:47:28.000Z</time>
      </trkpt>
      <trkpt lat="49.3365" lon="-0.54513">
        <ele>43.599998474121</ele>
        <time>2026-03-24T13:47:29.000Z</time>
      </trkpt>
      <trkpt lat="49.33651" lon="-0.54513">
        <ele>43.599998474121</ele>
        <time>2026-03-24T13:47:30.000Z</time>
      </trkpt>
      <trkpt lat="49.33652" lon="-0.54513">
        <ele>43.599998474121</ele>
        <time>2026-03-24T13:47:31.000Z</time>
      </trkpt>
      <trkpt lat="49.33653" lon="-0.54513">
        <ele>43.599998474121</ele>
        <time>2026-03-24T13:47:32.000Z</time>
      </trkpt>
      <trkpt lat="49.33654" lon="-0.54513">
        <ele>43.599998474121</ele>
        <time>2026-03-24T13:47:33.000Z</time>
      </trkpt>
      <trkpt lat="49.33655" lon="-0.54513">
        <ele>43.799999237061</ele>
        <time>2026-03-24T13:47:34.000Z</time>
      </trkpt>
      <trkpt lat="49.33656" lon="-0.54513">
        <ele>43.799999237061</ele>
        <time>2026-03-24T13:47:35.000Z</time>
      </trkpt>
      <trkpt lat="49.33656" lon="-0.54513">
        <ele>43.799999237061</ele>
        <time>2026-03-24T13:47:36.000Z</time>
      </trkpt>
      <trkpt lat="49.33657" lon="-0.54513">
        <ele>43.799999237061</ele>
        <time>2026-03-24T13:47:37.000Z</time>
      </trkpt>
      <trkpt lat="49.33658" lon="-0.54513">
        <ele>43.799999237061</ele>
        <time>2026-03-24T13:47:38.000Z</time>
      </trkpt>
      <trkpt lat="49.33659" lon="-0.54512">
        <ele>43.799999237061</ele>
        <time>2026-03-24T13:47:39.000Z</time>
      </trkpt>
      <trkpt lat="49.3366" lon="-0.54513">
        <ele>44</ele>
        <time>2026-03-24T13:47:40.000Z</time>
      </trkpt>
      <trkpt lat="49.33661" lon="-0.54512">
        <ele>44</ele>
        <time>2026-03-24T13:47:41.000Z</time>
      </trkpt>
      <trkpt lat="49.33662" lon="-0.54513">
        <ele>44</ele>
        <time>2026-03-24T13:47:42.000Z</time>
      </trkpt>
      <trkpt lat="49.33663" lon="-0.54513">
        <ele>44</ele>
        <time>2026-03-24T13:47:43.000Z</time>
      </trkpt>
      <trkpt lat="49.33664" lon="-0.54513">
        <ele>44</ele>
        <time>2026-03-24T13:47:44.000Z</time>
      </trkpt>
      <trkpt lat="49.33665" lon="-0.54513">
        <ele>44.200000762939</ele>
        <time>2026-03-24T13:47:45.000Z</time>
      </trkpt>
      <trkpt lat="49.33666" lon="-0.54513">
        <ele>44.200000762939</ele>
        <time>2026-03-24T13:47:46.000Z</time>
      </trkpt>
      <trkpt lat="49.33667" lon="-0.54513">
        <ele>44.200000762939</ele>
        <time>2026-03-24T13:47:47.000Z</time>
      </trkpt>
      <trkpt lat="49.33668" lon="-0.54513">
        <ele>44.200000762939</ele>
        <time>2026-03-24T13:47:48.000Z</time>
      </trkpt>
      <trkpt lat="49.33669" lon="-0.54513">
        <ele>44.200000762939</ele>
        <time>2026-03-24T13:47:49.000Z</time>
      </trkpt>
      <trkpt lat="49.3367" lon="-0.54514">
        <ele>44.200000762939</ele>
        <time>2026-03-24T13:47:50.000Z</time>
      </trkpt>
      <trkpt lat="49.33671" lon="-0.54514">
        <ele>44.400001525879</ele>
        <time>2026-03-24T13:47:51.000Z</time>
      </trkpt>
      <trkpt lat="49.33672" lon="-0.54514">
        <ele>44.400001525879</ele>
        <time>2026-03-24T13:47:52.000Z</time>
      </trkpt>
      <trkpt lat="49.33673" lon="-0.54514">
        <ele>44.400001525879</ele>
        <time>2026-03-24T13:47:53.000Z</time>
      </trkpt>
      <trkpt lat="49.33674" lon="-0.54514">
        <ele>44.400001525879</ele>
        <time>2026-03-24T13:47:54.000Z</time>
      </trkpt>
      <trkpt lat="49.33675" lon="-0.54515">
        <ele>44.400001525879</ele>
        <time>2026-03-24T13:47:55.000Z</time>
      </trkpt>
      <trkpt lat="49.33676" lon="-0.54515">
        <ele>44.400001525879</ele>
        <time>2026-03-24T13:47:56.000Z</time>
      </trkpt>
      <trkpt lat="49.33677" lon="-0.54515">
        <ele>44.599998474121</ele>
        <time>2026-03-24T13:47:57.000Z</time>
      </trkpt>
      <trkpt lat="49.33678" lon="-0.54515">
        <ele>44.400001525879</ele>
        <time>2026-03-24T13:47:58.000Z</time>
      </trkpt>
      <trkpt lat="49.33679" lon="-0.54516">
        <ele>44.400001525879</ele>
        <time>2026-03-24T13:47:59.000Z</time>
      </trkpt>
      <trkpt lat="49.3368" lon="-0.54516">
        <ele>44.400001525879</ele>
        <time>2026-03-24T13:48:00.000Z</time>
      </trkpt>
      <trkpt lat="49.33681" lon="-0.54516">
        <ele>44.400001525879</ele>
        <time>2026-03-24T13:48:01.000Z</time>
      </trkpt>
      <trkpt lat="49.33682" lon="-0.54517">
        <ele>44.400001525879</ele>
        <time>2026-03-24T13:48:02.000Z</time>
      </trkpt>
      <trkpt lat="49.33683" lon="-0.54517">
        <ele>44.400001525879</ele>
        <time>2026-03-24T13:48:03.000Z</time>
      </trkpt>
      <trkpt lat="49.33684" lon="-0.54517">
        <ele>44.400001525879</ele>
        <time>2026-03-24T13:48:04.000Z</time>
      </trkpt>
      <trkpt lat="49.33685" lon="-0.54517">
        <ele>44.400001525879</ele>
        <time>2026-03-24T13:48:05.000Z</time>
      </trkpt>
      <trkpt lat="49.33685" lon="-0.54517">
        <ele>44.400001525879</ele>
        <time>2026-03-24T13:48:06.000Z</time>
      </trkpt>
      <trkpt lat="49.33686" lon="-0.54518">
        <ele>44.400001525879</ele>
        <time>2026-03-24T13:48:07.000Z</time>
      </trkpt>
      <trkpt lat="49.33687" lon="-0.54518">
        <ele>44.400001525879</ele>
        <time>2026-03-24T13:48:08.000Z</time>
      </trkpt>
      <trkpt lat="49.33688" lon="-0.54518">
        <ele>44.400001525879</ele>
        <time>2026-03-24T13:48:09.000Z</time>
      </trkpt>
      <trkpt lat="49.33689" lon="-0.54518">
        <ele>44.400001525879</ele>
        <time>2026-03-24T13:48:10.000Z</time>
      </trkpt>
      <trkpt lat="49.3369" lon="-0.54518">
        <ele>44.400001525879</ele>
        <time>2026-03-24T13:48:11.000Z</time>
      </trkpt>
      <trkpt lat="49.33691" lon="-0.54519">
        <ele>44.200000762939</ele>
        <time>2026-03-24T13:48:12.000Z</time>
      </trkpt>
      <trkpt lat="49.33692" lon="-0.54519">
        <ele>44.200000762939</ele>
        <time>2026-03-24T13:48:13.000Z</time>
      </trkpt>
      <trkpt lat="49.33693" lon="-0.5452">
        <ele>44.200000762939</ele>
        <time>2026-03-24T13:48:14.000Z</time>
      </trkpt>
      <trkpt lat="49.33694" lon="-0.5452">
        <ele>44</ele>
        <time>2026-03-24T13:48:15.000Z</time>
      </trkpt>
      <trkpt lat="49.33695" lon="-0.5452">
        <ele>44</ele>
        <time>2026-03-24T13:48:16.000Z</time>
      </trkpt>
      <trkpt lat="49.33696" lon="-0.54521">
        <ele>43.799999237061</ele>
        <time>2026-03-24T13:48:17.000Z</time>
      </trkpt>
      <trkpt lat="49.33697" lon="-0.54521">
        <ele>43.799999237061</ele>
        <time>2026-03-24T13:48:18.000Z</time>
      </trkpt>
      <trkpt lat="49.33698" lon="-0.54521">
        <ele>43.799999237061</ele>
        <time>2026-03-24T13:48:19.000Z</time>
      </trkpt>
      <trkpt lat="49.33699" lon="-0.54522">
        <ele>43.599998474121</ele>
        <time>2026-03-24T13:48:20.000Z</time>
      </trkpt>
      <trkpt lat="49.337" lon="-0.54522">
        <ele>43.599998474121</ele>
        <time>2026-03-24T13:48:21.000Z</time>
      </trkpt>
      <trkpt lat="49.33701" lon="-0.54522">
        <ele>43.599998474121</ele>
        <time>2026-03-24T13:48:22.000Z</time>
      </trkpt>
      <trkpt lat="49.33702" lon="-0.54522">
        <ele>43.599998474121</ele>
        <time>2026-03-24T13:48:23.000Z</time>
      </trkpt>
      <trkpt lat="49.33702" lon="-0.54523">
        <ele>43.599998474121</ele>
        <time>2026-03-24T13:48:24.000Z</time>
      </trkpt>
      <trkpt lat="49.33703" lon="-0.54523">
        <ele>43.599998474121</ele>
        <time>2026-03-24T13:48:25.000Z</time>
      </trkpt>
      <trkpt lat="49.33704" lon="-0.54523">
        <ele>43.400001525879</ele>
        <time>2026-03-24T13:48:26.000Z</time>
      </trkpt>
      <trkpt lat="49.33706" lon="-0.54524">
        <ele>43.400001525879</ele>
        <time>2026-03-24T13:48:27.000Z</time>
      </trkpt>
      <trkpt lat="49.33707" lon="-0.54524">
        <ele>43.400001525879</ele>
        <time>2026-03-24T13:48:28.000Z</time>
      </trkpt>
      <trkpt lat="49.33708" lon="-0.54524">
        <ele>43.400001525879</ele>
        <time>2026-03-24T13:48:29.000Z</time>
      </trkpt>
      <trkpt lat="49.33709" lon="-0.54524">
        <ele>43.400001525879</ele>
        <time>2026-03-24T13:48:30.000Z</time>
      </trkpt>
      <trkpt lat="49.3371" lon="-0.54525">
        <ele>43.200000762939</ele>
        <time>2026-03-24T13:48:31.000Z</time>
      </trkpt>
      <trkpt lat="49.3371" lon="-0.54525">
        <ele>43.200000762939</ele>
        <time>2026-03-24T13:48:32.000Z</time>
      </trkpt>
      <trkpt lat="49.3371" lon="-0.54525">
        <ele>43.200000762939</ele>
        <time>2026-03-24T13:48:33.000Z</time>
      </trkpt>
      <trkpt lat="49.33711" lon="-0.54525">
        <ele>43.200000762939</ele>
        <time>2026-03-24T13:48:34.000Z</time>
      </trkpt>
      <trkpt lat="49.33711" lon="-0.54525">
        <ele>43.200000762939</ele>
        <time>2026-03-24T13:48:35.000Z</time>
      </trkpt>
      <trkpt lat="49.33711" lon="-0.54525">
        <ele>43.200000762939</ele>
        <time>2026-03-24T13:48:36.000Z</time>
      </trkpt>
      <trkpt lat="49.33711" lon="-0.54524">
        <ele>43.200000762939</ele>
        <time>2026-03-24T13:48:37.000Z</time>
      </trkpt>
      <trkpt lat="49.33711" lon="-0.54524">
        <ele>43.200000762939</ele>
        <time>2026-03-24T13:48:38.000Z</time>
      </trkpt>
      <trkpt lat="49.33711" lon="-0.54524">
        <ele>43.200000762939</ele>
        <time>2026-03-24T13:48:39.000Z</time>
      </trkpt>
      <trkpt lat="49.33711" lon="-0.54524">
        <ele>43.200000762939</ele>
        <time>2026-03-24T13:48:40.000Z</time>
      </trkpt>
      <trkpt lat="49.33712" lon="-0.54524">
        <ele>43.200000762939</ele>
        <time>2026-03-24T13:48:41.000Z</time>
      </trkpt>
      <trkpt lat="49.33712" lon="-0.54524">
        <ele>43.200000762939</ele>
        <time>2026-03-24T13:48:42.000Z</time>
      </trkpt>
      <trkpt lat="49.33712" lon="-0.54524">
        <ele>43.200000762939</ele>
        <time>2026-03-24T13:48:43.000Z</time>
      </trkpt>
      <trkpt lat="49.33713" lon="-0.54524">
        <ele>43.200000762939</ele>
        <time>2026-03-24T13:48:44.000Z</time>
      </trkpt>
      <trkpt lat="49.33713" lon="-0.54523">
        <ele>43.200000762939</ele>
        <time>2026-03-24T13:48:45.000Z</time>
      </trkpt>
      <trkpt lat="49.33713" lon="-0.54524">
        <ele>43.200000762939</ele>
        <time>2026-03-24T13:48:46.000Z</time>
      </trkpt>
      <trkpt lat="49.33713" lon="-0.54524">
        <ele>43.200000762939</ele>
        <time>2026-03-24T13:48:47.000Z</time>
      </trkpt>
      <trkpt lat="49.33714" lon="-0.54524">
        <ele>43.200000762939</ele>
        <time>2026-03-24T13:48:48.000Z</time>
      </trkpt>
      <trkpt lat="49.33715" lon="-0.54525">
        <ele>43.200000762939</ele>
        <time>2026-03-24T13:48:49.000Z</time>
      </trkpt>
      <trkpt lat="49.33715" lon="-0.54525">
        <ele>43</ele>
        <time>2026-03-24T13:48:50.000Z</time>
      </trkpt>
      <trkpt lat="49.33716" lon="-0.54525">
        <ele>43</ele>
        <time>2026-03-24T13:48:51.000Z</time>
      </trkpt>
      <trkpt lat="49.33716" lon="-0.54525">
        <ele>43</ele>
        <time>2026-03-24T13:48:52.000Z</time>
      </trkpt>
      <trkpt lat="49.33717" lon="-0.54526">
        <ele>43</ele>
        <time>2026-03-24T13:48:53.000Z</time>
      </trkpt>
      <trkpt lat="49.33718" lon="-0.54526">
        <ele>43</ele>
        <time>2026-03-24T13:48:54.000Z</time>
      </trkpt>
      <trkpt lat="49.33718" lon="-0.54526">
        <ele>43</ele>
        <time>2026-03-24T13:48:55.000Z</time>
      </trkpt>
      <trkpt lat="49.33719" lon="-0.54526">
        <ele>43</ele>
        <time>2026-03-24T13:48:56.000Z</time>
      </trkpt>
      <trkpt lat="49.33719" lon="-0.54526">
        <ele>42.799999237061</ele>
        <time>2026-03-24T13:48:57.000Z</time>
      </trkpt>
      <trkpt lat="49.3372" lon="-0.54526">
        <ele>42.799999237061</ele>
        <time>2026-03-24T13:48:58.000Z</time>
      </trkpt>
      <trkpt lat="49.3372" lon="-0.54526">
        <ele>42.799999237061</ele>
        <time>2026-03-24T13:48:59.000Z</time>
      </trkpt>
      <trkpt lat="49.3372" lon="-0.54526">
        <ele>42.799999237061</ele>
        <time>2026-03-24T13:49:00.000Z</time>
      </trkpt>
      <trkpt lat="49.33721" lon="-0.54526">
        <ele>42.599998474121</ele>
        <time>2026-03-24T13:49:01.000Z</time>
      </trkpt>
      <trkpt lat="49.33721" lon="-0.54525">
        <ele>42.599998474121</ele>
        <time>2026-03-24T13:49:02.000Z</time>
      </trkpt>
      <trkpt lat="49.33721" lon="-0.54524">
        <ele>42.599998474121</ele>
        <time>2026-03-24T13:49:03.000Z</time>
      </trkpt>
      <trkpt lat="49.33722" lon="-0.54523">
        <ele>42.599998474121</ele>
        <time>2026-03-24T13:49:04.000Z</time>
      </trkpt>
      <trkpt lat="49.33723" lon="-0.54523">
        <ele>42.400001525879</ele>
        <time>2026-03-24T13:49:05.000Z</time>
      </trkpt>
      <trkpt lat="49.33723" lon="-0.54523">
        <ele>42.400001525879</ele>
        <time>2026-03-24T13:49:06.000Z</time>
      </trkpt>
      <trkpt lat="49.33724" lon="-0.54523">
        <ele>42.400001525879</ele>
        <time>2026-03-24T13:49:07.000Z</time>
      </trkpt>
      <trkpt lat="49.33725" lon="-0.54522">
        <ele>42.200000762939</ele>
        <time>2026-03-24T13:49:08.000Z</time>
      </trkpt>
      <trkpt lat="49.33725" lon="-0.54522">
        <ele>42.200000762939</ele>
        <time>2026-03-24T13:49:09.000Z</time>
      </trkpt>
      <trkpt lat="49.33726" lon="-0.54522">
        <ele>42.200000762939</ele>
        <time>2026-03-24T13:49:10.000Z</time>
      </trkpt>
      <trkpt lat="49.33726" lon="-0.54523">
        <ele>42.200000762939</ele>
        <time>2026-03-24T13:49:11.000Z</time>
      </trkpt>
      <trkpt lat="49.33726" lon="-0.54522">
        <ele>42</ele>
        <time>2026-03-24T13:49:12.000Z</time>
      </trkpt>
      <trkpt lat="49.33726" lon="-0.54522">
        <ele>42</ele>
        <time>2026-03-24T13:49:13.000Z</time>
      </trkpt>
      <trkpt lat="49.33726" lon="-0.54523">
        <ele>42</ele>
        <time>2026-03-24T13:49:14.000Z</time>
      </trkpt>
      <trkpt lat="49.33727" lon="-0.54523">
        <ele>42</ele>
        <time>2026-03-24T13:49:15.000Z</time>
      </trkpt>
      <trkpt lat="49.33727" lon="-0.54523">
        <ele>42</ele>
        <time>2026-03-24T13:49:16.000Z</time>
      </trkpt>
      <trkpt lat="49.33727" lon="-0.54523">
        <ele>42</ele>
        <time>2026-03-24T13:49:17.000Z</time>
      </trkpt>
      <trkpt lat="49.33728" lon="-0.54523">
        <ele>42</ele>
        <time>2026-03-24T13:49:18.000Z</time>
      </trkpt>
      <trkpt lat="49.33727" lon="-0.54523">
        <ele>42</ele>
        <time>2026-03-24T13:49:19.000Z</time>
      </trkpt>
      <trkpt lat="49.33728" lon="-0.54523">
        <ele>42</ele>
        <time>2026-03-24T13:49:20.000Z</time>
      </trkpt>
      <trkpt lat="49.33728" lon="-0.54523">
        <ele>42</ele>
        <time>2026-03-24T13:49:21.000Z</time>
      </trkpt>
      <trkpt lat="49.33728" lon="-0.54523">
        <ele>42</ele>
        <time>2026-03-24T13:49:22.000Z</time>
      </trkpt>
      <trkpt lat="49.33728" lon="-0.54523">
        <ele>42</ele>
        <time>2026-03-24T13:49:23.000Z</time>
      </trkpt>
      <trkpt lat="49.33728" lon="-0.54523">
        <ele>42</ele>
        <time>2026-03-24T13:49:24.000Z</time>
      </trkpt>
      <trkpt lat="49.33728" lon="-0.54523">
        <ele>42</ele>
        <time>2026-03-24T13:49:25.000Z</time>
      </trkpt>
      <trkpt lat="49.33727" lon="-0.54523">
        <ele>42</ele>
        <time>2026-03-24T13:49:26.000Z</time>
      </trkpt>
      <trkpt lat="49.33727" lon="-0.54523">
        <ele>42</ele>
        <time>2026-03-24T13:49:27.000Z</time>
      </trkpt>
      <trkpt lat="49.33727" lon="-0.54523">
        <ele>42</ele>
        <time>2026-03-24T13:49:28.000Z</time>
      </trkpt>
      <trkpt lat="49.33728" lon="-0.54524">
        <ele>42</ele>
        <time>2026-03-24T13:49:29.000Z</time>
      </trkpt>
      <trkpt lat="49.33728" lon="-0.54523">
        <ele>42</ele>
        <time>2026-03-24T13:49:30.000Z</time>
      </trkpt>
      <trkpt lat="49.33728" lon="-0.54524">
        <ele>42</ele>
        <time>2026-03-24T13:49:31.000Z</time>
      </trkpt>
      <trkpt lat="49.33728" lon="-0.54524">
        <ele>42</ele>
        <time>2026-03-24T13:49:32.000Z</time>
      </trkpt>
      <trkpt lat="49.33728" lon="-0.54524">
        <ele>42</ele>
        <time>2026-03-24T13:49:33.000Z</time>
      </trkpt>
      <trkpt lat="49.33728" lon="-0.54524">
        <ele>42</ele>
        <time>2026-03-24T13:49:34.000Z</time>
      </trkpt>
      <trkpt lat="49.33728" lon="-0.54524">
        <ele>42</ele>
        <time>2026-03-24T13:49:35.000Z</time>
      </trkpt>
      <trkpt lat="49.33728" lon="-0.54523">
        <ele>42</ele>
        <time>2026-03-24T13:49:36.000Z</time>
      </trkpt>
      <trkpt lat="49.33728" lon="-0.54524">
        <ele>42</ele>
        <time>2026-03-24T13:49:37.000Z</time>
      </trkpt>
      <trkpt lat="49.33728" lon="-0.54524">
        <ele>42</ele>
        <time>2026-03-24T13:49:38.000Z</time>
      </trkpt>
      <trkpt lat="49.33728" lon="-0.54524">
        <ele>42</ele>
        <time>2026-03-24T13:49:39.000Z</time>
      </trkpt>
      <trkpt lat="49.33728" lon="-0.54524">
        <ele>42</ele>
        <time>2026-03-24T13:49:40.000Z</time>
      </trkpt>
      <trkpt lat="49.33727" lon="-0.54524">
        <ele>42</ele>
        <time>2026-03-24T13:49:41.000Z</time>
      </trkpt>
      <trkpt lat="49.33727" lon="-0.54524">
        <ele>42</ele>
        <time>2026-03-24T13:49:42.000Z</time>
      </trkpt>
      <trkpt lat="49.33727" lon="-0.54524">
        <ele>42</ele>
        <time>2026-03-24T13:49:43.000Z</time>
      </trkpt>
      <trkpt lat="49.33727" lon="-0.54524">
        <ele>42</ele>
        <time>2026-03-24T13:49:44.000Z</time>
      </trkpt>
      <trkpt lat="49.33727" lon="-0.54525">
        <ele>42</ele>
        <time>2026-03-24T13:49:45.000Z</time>
      </trkpt>
      <trkpt lat="49.33727" lon="-0.54524">
        <ele>42</ele>
        <time>2026-03-24T13:49:46.000Z</time>
      </trkpt>
      <trkpt lat="49.33727" lon="-0.54524">
        <ele>42</ele>
        <time>2026-03-24T13:49:47.000Z</time>
      </trkpt>
      <trkpt lat="49.33727" lon="-0.54525">
        <ele>42</ele>
        <time>2026-03-24T13:49:48.000Z</time>
      </trkpt>
      <trkpt lat="49.33727" lon="-0.54525">
        <ele>42</ele>
        <time>2026-03-24T13:49:49.000Z</time>
      </trkpt>
      <trkpt lat="49.33727" lon="-0.54525">
        <ele>42</ele>
        <time>2026-03-24T13:49:50.000Z</time>
      </trkpt>
      <trkpt lat="49.33727" lon="-0.54525">
        <ele>42</ele>
        <time>2026-03-24T13:49:51.000Z</time>
      </trkpt>
      <trkpt lat="49.33728" lon="-0.54525">
        <ele>42</ele>
        <time>2026-03-24T13:49:52.000Z</time>
      </trkpt>
      <trkpt lat="49.33728" lon="-0.54526">
        <ele>41.799999237061</ele>
        <time>2026-03-24T13:49:53.000Z</time>
      </trkpt>
      <trkpt lat="49.33729" lon="-0.54527">
        <ele>41.799999237061</ele>
        <time>2026-03-24T13:49:54.000Z</time>
      </trkpt>
      <trkpt lat="49.33729" lon="-0.54528">
        <ele>41.799999237061</ele>
        <time>2026-03-24T13:49:55.000Z</time>
      </trkpt>
      <trkpt lat="49.3373" lon="-0.54528">
        <ele>41.599998474121</ele>
        <time>2026-03-24T13:49:56.000Z</time>
      </trkpt>
      <trkpt lat="49.33731" lon="-0.54529">
        <ele>41.599998474121</ele>
        <time>2026-03-24T13:49:57.000Z</time>
      </trkpt>
      <trkpt lat="49.33731" lon="-0.54529">
        <ele>41.599998474121</ele>
        <time>2026-03-24T13:49:58.000Z</time>
      </trkpt>
      <trkpt lat="49.33731" lon="-0.54529">
        <ele>41.599998474121</ele>
        <time>2026-03-24T13:49:59.000Z</time>
      </trkpt>
      <trkpt lat="49.33731" lon="-0.54529">
        <ele>41.599998474121</ele>
        <time>2026-03-24T13:50:00.000Z</time>
      </trkpt>
      <trkpt lat="49.33731" lon="-0.54529">
        <ele>41.599998474121</ele>
        <time>2026-03-24T13:50:01.000Z</time>
      </trkpt>
      <trkpt lat="49.33731" lon="-0.54528">
        <ele>41.599998474121</ele>
        <time>2026-03-24T13:50:02.000Z</time>
      </trkpt>
      <trkpt lat="49.33731" lon="-0.54529">
        <ele>41.599998474121</ele>
        <time>2026-03-24T13:50:03.000Z</time>
      </trkpt>
      <trkpt lat="49.33732" lon="-0.54529">
        <ele>41.400001525879</ele>
        <time>2026-03-24T13:50:04.000Z</time>
      </trkpt>
      <trkpt lat="49.33732" lon="-0.5453">
        <ele>41.400001525879</ele>
        <time>2026-03-24T13:50:05.000Z</time>
      </trkpt>
      <trkpt lat="49.33733" lon="-0.5453">
        <ele>41.400001525879</ele>
        <time>2026-03-24T13:50:06.000Z</time>
      </trkpt>
      <trkpt lat="49.33733" lon="-0.5453">
        <ele>41.400001525879</ele>
        <time>2026-03-24T13:50:07.000Z</time>
      </trkpt>
      <trkpt lat="49.33733" lon="-0.5453">
        <ele>41.400001525879</ele>
        <time>2026-03-24T13:50:08.000Z</time>
      </trkpt>
      <trkpt lat="49.33733" lon="-0.5453">
        <ele>41.200000762939</ele>
        <time>2026-03-24T13:50:09.000Z</time>
      </trkpt>
      <trkpt lat="49.33734" lon="-0.5453">
        <ele>41.200000762939</ele>
        <time>2026-03-24T13:50:10.000Z</time>
      </trkpt>
      <trkpt lat="49.33734" lon="-0.5453">
        <ele>41.200000762939</ele>
        <time>2026-03-24T13:50:11.000Z</time>
      </trkpt>
      <trkpt lat="49.33734" lon="-0.5453">
        <ele>41.200000762939</ele>
        <time>2026-03-24T13:50:12.000Z</time>
      </trkpt>
      <trkpt lat="49.33734" lon="-0.5453">
        <ele>41.200000762939</ele>
        <time>2026-03-24T13:50:13.000Z</time>
      </trkpt>
      <trkpt lat="49.33734" lon="-0.54529">
        <ele>41.200000762939</ele>
        <time>2026-03-24T13:50:14.000Z</time>
      </trkpt>
      <trkpt lat="49.33734" lon="-0.54529">
        <ele>41.200000762939</ele>
        <time>2026-03-24T13:50:15.000Z</time>
      </trkpt>
      <trkpt lat="49.33734" lon="-0.54529">
        <ele>41.200000762939</ele>
        <time>2026-03-24T13:50:16.000Z</time>
      </trkpt>
      <trkpt lat="49.33734" lon="-0.54529">
        <ele>41.200000762939</ele>
        <time>2026-03-24T13:50:17.000Z</time>
      </trkpt>
      <trkpt lat="49.33734" lon="-0.54529">
        <ele>41.200000762939</ele>
        <time>2026-03-24T13:50:18.000Z</time>
      </trkpt>
      <trkpt lat="49.33734" lon="-0.54529">
        <ele>41.200000762939</ele>
        <time>2026-03-24T13:50:19.000Z</time>
      </trkpt>
      <trkpt lat="49.33734" lon="-0.54529">
        <ele>41.200000762939</ele>
        <time>2026-03-24T13:50:20.000Z</time>
      </trkpt>
      <trkpt lat="49.33734" lon="-0.54529">
        <ele>41.200000762939</ele>
        <time>2026-03-24T13:50:21.000Z</time>
      </trkpt>
      <trkpt lat="49.33734" lon="-0.54529">
        <ele>41.200000762939</ele>
        <time>2026-03-24T13:50:22.000Z</time>
      </trkpt>
      <trkpt lat="49.33734" lon="-0.54528">
        <ele>41.200000762939</ele>
        <time>2026-03-24T13:50:23.000Z</time>
      </trkpt>
      <trkpt lat="49.33734" lon="-0.54528">
        <ele>41.200000762939</ele>
        <time>2026-03-24T13:50:24.000Z</time>
      </trkpt>
      <trkpt lat="49.33734" lon="-0.54527">
        <ele>41.200000762939</ele>
        <time>2026-03-24T13:50:25.000Z</time>
      </trkpt>
      <trkpt lat="49.33734" lon="-0.54527">
        <ele>41.200000762939</ele>
        <time>2026-03-24T13:50:26.000Z</time>
      </trkpt>
      <trkpt lat="49.33734" lon="-0.54527">
        <ele>41.200000762939</ele>
        <time>2026-03-24T13:50:27.000Z</time>
      </trkpt>
      <trkpt lat="49.33734" lon="-0.54527">
        <ele>41.200000762939</ele>
        <time>2026-03-24T13:50:28.000Z</time>
      </trkpt>
      <trkpt lat="49.33733" lon="-0.54527">
        <ele>41.200000762939</ele>
        <time>2026-03-24T13:50:29.000Z</time>
      </trkpt>
      <trkpt lat="49.33734" lon="-0.54528">
        <ele>41.200000762939</ele>
        <time>2026-03-24T13:50:30.000Z</time>
      </trkpt>
      <trkpt lat="49.33734" lon="-0.54528">
        <ele>41.200000762939</ele>
        <time>2026-03-24T13:50:31.000Z</time>
      </trkpt>
      <trkpt lat="49.33734" lon="-0.54527">
        <ele>41.200000762939</ele>
        <time>2026-03-24T13:50:32.000Z</time>
      </trkpt>
      <trkpt lat="49.33734" lon="-0.54526">
        <ele>41.200000762939</ele>
        <time>2026-03-24T13:50:33.000Z</time>
      </trkpt>
      <trkpt lat="49.33733" lon="-0.54525">
        <ele>41.400001525879</ele>
        <time>2026-03-24T13:50:34.000Z</time>
      </trkpt>
      <trkpt lat="49.33733" lon="-0.54524">
        <ele>41.400001525879</ele>
        <time>2026-03-24T13:50:35.000Z</time>
      </trkpt>
      <trkpt lat="49.33733" lon="-0.54524">
        <ele>41.400001525879</ele>
        <time>2026-03-24T13:50:36.000Z</time>
      </trkpt>
      <trkpt lat="49.33732" lon="-0.54524">
        <ele>41.400001525879</ele>
        <time>2026-03-24T13:50:37.000Z</time>
      </trkpt>
      <trkpt lat="49.33732" lon="-0.54524">
        <ele>41.400001525879</ele>
        <time>2026-03-24T13:50:38.000Z</time>
      </trkpt>
      <trkpt lat="49.33731" lon="-0.54523">
        <ele>41.599998474121</ele>
        <time>2026-03-24T13:50:39.000Z</time>
      </trkpt>
      <trkpt lat="49.33731" lon="-0.54523">
        <ele>41.599998474121</ele>
        <time>2026-03-24T13:50:40.000Z</time>
      </trkpt>
      <trkpt lat="49.33731" lon="-0.54523">
        <ele>41.599998474121</ele>
        <time>2026-03-24T13:50:41.000Z</time>
      </trkpt>
      <trkpt lat="49.33731" lon="-0.54523">
        <ele>41.599998474121</ele>
        <time>2026-03-24T13:50:42.000Z</time>
      </trkpt>
      <trkpt lat="49.33731" lon="-0.54523">
        <ele>41.599998474121</ele>
        <time>2026-03-24T13:50:43.000Z</time>
      </trkpt>
      <trkpt lat="49.33731" lon="-0.54523">
        <ele>41.599998474121</ele>
        <time>2026-03-24T13:50:44.000Z</time>
      </trkpt>
      <trkpt lat="49.33731" lon="-0.54524">
        <ele>41.599998474121</ele>
        <time>2026-03-24T13:50:45.000Z</time>
      </trkpt>
      <trkpt lat="49.33731" lon="-0.54523">
        <ele>41.599998474121</ele>
        <time>2026-03-24T13:50:46.000Z</time>
      </trkpt>
      <trkpt lat="49.33731" lon="-0.54524">
        <ele>41.599998474121</ele>
        <time>2026-03-24T13:50:47.000Z</time>
      </trkpt>
      <trkpt lat="49.33731" lon="-0.54524">
        <ele>41.599998474121</ele>
        <time>2026-03-24T13:50:48.000Z</time>
      </trkpt>
      <trkpt lat="49.33731" lon="-0.54523">
        <ele>41.599998474121</ele>
        <time>2026-03-24T13:50:49.000Z</time>
      </trkpt>
      <trkpt lat="49.33732" lon="-0.54523">
        <ele>41.400001525879</ele>
        <time>2026-03-24T13:50:50.000Z</time>
      </trkpt>
      <trkpt lat="49.33732" lon="-0.54522">
        <ele>41.400001525879</ele>
        <time>2026-03-24T13:50:51.000Z</time>
      </trkpt>
      <trkpt lat="49.33733" lon="-0.5452">
        <ele>41.400001525879</ele>
        <time>2026-03-24T13:50:52.000Z</time>
      </trkpt>
      <trkpt lat="49.33733" lon="-0.54519">
        <ele>41.400001525879</ele>
        <time>2026-03-24T13:50:53.000Z</time>
      </trkpt>
      <trkpt lat="49.33733" lon="-0.54518">
        <ele>41.400001525879</ele>
        <time>2026-03-24T13:50:54.000Z</time>
      </trkpt>
      <trkpt lat="49.33733" lon="-0.54516">
        <ele>41.400001525879</ele>
        <time>2026-03-24T13:50:55.000Z</time>
      </trkpt>
      <trkpt lat="49.33733" lon="-0.54515">
        <ele>41.400001525879</ele>
        <time>2026-03-24T13:50:56.000Z</time>
      </trkpt>
      <trkpt lat="49.33733" lon="-0.54513">
        <ele>41.400001525879</ele>
        <time>2026-03-24T13:50:57.000Z</time>
      </trkpt>
      <trkpt lat="49.33734" lon="-0.54512">
        <ele>41.200000762939</ele>
        <time>2026-03-24T13:50:58.000Z</time>
      </trkpt>
      <trkpt lat="49.33734" lon="-0.5451">
        <ele>41.200000762939</ele>
        <time>2026-03-24T13:50:59.000Z</time>
      </trkpt>
      <trkpt lat="49.33734" lon="-0.54509">
        <ele>41.200000762939</ele>
        <time>2026-03-24T13:51:00.000Z</time>
      </trkpt>
      <trkpt lat="49.33734" lon="-0.54507">
        <ele>41.200000762939</ele>
        <time>2026-03-24T13:51:01.000Z</time>
      </trkpt>
      <trkpt lat="49.33734" lon="-0.54506">
        <ele>41.200000762939</ele>
        <time>2026-03-24T13:51:02.000Z</time>
      </trkpt>
      <trkpt lat="49.33733" lon="-0.54504">
        <ele>41.200000762939</ele>
        <time>2026-03-24T13:51:03.000Z</time>
      </trkpt>
      <trkpt lat="49.33734" lon="-0.54502">
        <ele>41.200000762939</ele>
        <time>2026-03-24T13:51:04.000Z</time>
      </trkpt>
      <trkpt lat="49.33734" lon="-0.545">
        <ele>41.200000762939</ele>
        <time>2026-03-24T13:51:05.000Z</time>
      </trkpt>
      <trkpt lat="49.33734" lon="-0.54499">
        <ele>41.200000762939</ele>
        <time>2026-03-24T13:51:06.000Z</time>
      </trkpt>
      <trkpt lat="49.33734" lon="-0.54497">
        <ele>41.200000762939</ele>
        <time>2026-03-24T13:51:07.000Z</time>
      </trkpt>
      <trkpt lat="49.33734" lon="-0.54496">
        <ele>41.200000762939</ele>
        <time>2026-03-24T13:51:08.000Z</time>
      </trkpt>
      <trkpt lat="49.33734" lon="-0.54494">
        <ele>41.200000762939</ele>
        <time>2026-03-24T13:51:09.000Z</time>
      </trkpt>
      <trkpt lat="49.33734" lon="-0.54493">
        <ele>41.200000762939</ele>
        <time>2026-03-24T13:51:10.000Z</time>
      </trkpt>
      <trkpt lat="49.33734" lon="-0.54491">
        <ele>41.200000762939</ele>
        <time>2026-03-24T13:51:11.000Z</time>
      </trkpt>
      <trkpt lat="49.33734" lon="-0.5449">
        <ele>41.200000762939</ele>
        <time>2026-03-24T13:51:12.000Z</time>
      </trkpt>
      <trkpt lat="49.33734" lon="-0.54489">
        <ele>41.200000762939</ele>
        <time>2026-03-24T13:51:13.000Z</time>
      </trkpt>
      <trkpt lat="49.33734" lon="-0.54487">
        <ele>41.200000762939</ele>
        <time>2026-03-24T13:51:14.000Z</time>
      </trkpt>
      <trkpt lat="49.33734" lon="-0.54486">
        <ele>41.200000762939</ele>
        <time>2026-03-24T13:51:15.000Z</time>
      </trkpt>
      <trkpt lat="49.33734" lon="-0.54485">
        <ele>41.200000762939</ele>
        <time>2026-03-24T13:51:16.000Z</time>
      </trkpt>
      <trkpt lat="49.33735" lon="-0.54484">
        <ele>41.200000762939</ele>
        <time>2026-03-24T13:51:17.000Z</time>
      </trkpt>
      <trkpt lat="49.33735" lon="-0.54482">
        <ele>41.200000762939</ele>
        <time>2026-03-24T13:51:18.000Z</time>
      </trkpt>
      <trkpt lat="49.33735" lon="-0.54481">
        <ele>41.200000762939</ele>
        <time>2026-03-24T13:51:19.000Z</time>
      </trkpt>
      <trkpt lat="49.33735" lon="-0.5448">
        <ele>41.200000762939</ele>
        <time>2026-03-24T13:51:20.000Z</time>
      </trkpt>
      <trkpt lat="49.33735" lon="-0.54478">
        <ele>41.200000762939</ele>
        <time>2026-03-24T13:51:21.000Z</time>
      </trkpt>
      <trkpt lat="49.33735" lon="-0.54477">
        <ele>41.200000762939</ele>
        <time>2026-03-24T13:51:22.000Z</time>
      </trkpt>
      <trkpt lat="49.33735" lon="-0.54475">
        <ele>41.200000762939</ele>
        <time>2026-03-24T13:51:23.000Z</time>
      </trkpt>
      <trkpt lat="49.33735" lon="-0.54474">
        <ele>41.200000762939</ele>
        <time>2026-03-24T13:51:24.000Z</time>
      </trkpt>
      <trkpt lat="49.33735" lon="-0.54473">
        <ele>41.200000762939</ele>
        <time>2026-03-24T13:51:25.000Z</time>
      </trkpt>
      <trkpt lat="49.33735" lon="-0.54472">
        <ele>41</ele>
        <time>2026-03-24T13:51:26.000Z</time>
      </trkpt>
      <trkpt lat="49.33735" lon="-0.5447">
        <ele>41</ele>
        <time>2026-03-24T13:51:27.000Z</time>
      </trkpt>
      <trkpt lat="49.33735" lon="-0.54469">
        <ele>41</ele>
        <time>2026-03-24T13:51:28.000Z</time>
      </trkpt>
      <trkpt lat="49.33735" lon="-0.54468">
        <ele>41</ele>
        <time>2026-03-24T13:51:29.000Z</time>
      </trkpt>
      <trkpt lat="49.33734" lon="-0.54467">
        <ele>41</ele>
        <time>2026-03-24T13:51:30.000Z</time>
      </trkpt>
      <trkpt lat="49.33735" lon="-0.54464">
        <ele>40.799999237061</ele>
        <time>2026-03-24T13:51:31.000Z</time>
      </trkpt>
      <trkpt lat="49.33735" lon="-0.54462">
        <ele>40.799999237061</ele>
        <time>2026-03-24T13:51:32.000Z</time>
      </trkpt>
      <trkpt lat="49.33736" lon="-0.54461">
        <ele>40.599998474121</ele>
        <time>2026-03-24T13:51:33.000Z</time>
      </trkpt>
      <trkpt lat="49.33736" lon="-0.54459">
        <ele>40.599998474121</ele>
        <time>2026-03-24T13:51:34.000Z</time>
      </trkpt>
      <trkpt lat="49.33736" lon="-0.54457">
        <ele>40.400001525879</ele>
        <time>2026-03-24T13:51:35.000Z</time>
      </trkpt>
      <trkpt lat="49.33736" lon="-0.54456">
        <ele>40.400001525879</ele>
        <time>2026-03-24T13:51:36.000Z</time>
      </trkpt>
      <trkpt lat="49.33736" lon="-0.54454">
        <ele>40.400001525879</ele>
        <time>2026-03-24T13:51:37.000Z</time>
      </trkpt>
      <trkpt lat="49.33736" lon="-0.54453">
        <ele>40.200000762939</ele>
        <time>2026-03-24T13:51:38.000Z</time>
      </trkpt>
      <trkpt lat="49.33736" lon="-0.54451">
        <ele>40.200000762939</ele>
        <time>2026-03-24T13:51:39.000Z</time>
      </trkpt>
      <trkpt lat="49.33736" lon="-0.54449">
        <ele>40.200000762939</ele>
        <time>2026-03-24T13:51:40.000Z</time>
      </trkpt>
      <trkpt lat="49.33736" lon="-0.54447">
        <ele>40</ele>
        <time>2026-03-24T13:51:41.000Z</time>
      </trkpt>
      <trkpt lat="49.33736" lon="-0.54446">
        <ele>40</ele>
        <time>2026-03-24T13:51:42.000Z</time>
      </trkpt>
      <trkpt lat="49.33737" lon="-0.54444">
        <ele>40</ele>
        <time>2026-03-24T13:51:43.000Z</time>
      </trkpt>
      <trkpt lat="49.33737" lon="-0.54442">
        <ele>40</ele>
        <time>2026-03-24T13:51:44.000Z</time>
      </trkpt>
      <trkpt lat="49.33737" lon="-0.54441">
        <ele>40</ele>
        <time>2026-03-24T13:51:45.000Z</time>
      </trkpt>
      <trkpt lat="49.33737" lon="-0.5444">
        <ele>39.799999237061</ele>
        <time>2026-03-24T13:51:46.000Z</time>
      </trkpt>
      <trkpt lat="49.33738" lon="-0.54438">
        <ele>39.799999237061</ele>
        <time>2026-03-24T13:51:47.000Z</time>
      </trkpt>
      <trkpt lat="49.33738" lon="-0.54437">
        <ele>39.799999237061</ele>
        <time>2026-03-24T13:51:48.000Z</time>
      </trkpt>
      <trkpt lat="49.33739" lon="-0.54436">
        <ele>39.799999237061</ele>
        <time>2026-03-24T13:51:49.000Z</time>
      </trkpt>
      <trkpt lat="49.33739" lon="-0.54435">
        <ele>39.799999237061</ele>
        <time>2026-03-24T13:51:50.000Z</time>
      </trkpt>
      <trkpt lat="49.33739" lon="-0.54433">
        <ele>39.599998474121</ele>
        <time>2026-03-24T13:51:51.000Z</time>
      </trkpt>
      <trkpt lat="49.33739" lon="-0.54432">
        <ele>39.599998474121</ele>
        <time>2026-03-24T13:51:52.000Z</time>
      </trkpt>
      <trkpt lat="49.3374" lon="-0.5443">
        <ele>39.599998474121</ele>
        <time>2026-03-24T13:51:53.000Z</time>
      </trkpt>
      <trkpt lat="49.3374" lon="-0.54428">
        <ele>39.599998474121</ele>
        <time>2026-03-24T13:51:54.000Z</time>
      </trkpt>
      <trkpt lat="49.3374" lon="-0.54427">
        <ele>39.599998474121</ele>
        <time>2026-03-24T13:51:55.000Z</time>
      </trkpt>
      <trkpt lat="49.3374" lon="-0.54425">
        <ele>39.599998474121</ele>
        <time>2026-03-24T13:51:56.000Z</time>
      </trkpt>
      <trkpt lat="49.3374" lon="-0.54423">
        <ele>39.599998474121</ele>
        <time>2026-03-24T13:51:57.000Z</time>
      </trkpt>
      <trkpt lat="49.3374" lon="-0.54421">
        <ele>39.599998474121</ele>
        <time>2026-03-24T13:51:58.000Z</time>
      </trkpt>
      <trkpt lat="49.3374" lon="-0.5442">
        <ele>39.599998474121</ele>
        <time>2026-03-24T13:51:59.000Z</time>
      </trkpt>
      <trkpt lat="49.3374" lon="-0.54418">
        <ele>39.599998474121</ele>
        <time>2026-03-24T13:52:00.000Z</time>
      </trkpt>
      <trkpt lat="49.3374" lon="-0.54416">
        <ele>39.599998474121</ele>
        <time>2026-03-24T13:52:01.000Z</time>
      </trkpt>
      <trkpt lat="49.3374" lon="-0.54415">
        <ele>39.599998474121</ele>
        <time>2026-03-24T13:52:02.000Z</time>
      </trkpt>
      <trkpt lat="49.3374" lon="-0.54413">
        <ele>39.599998474121</ele>
        <time>2026-03-24T13:52:03.000Z</time>
      </trkpt>
      <trkpt lat="49.3374" lon="-0.54411">
        <ele>39.599998474121</ele>
        <time>2026-03-24T13:52:04.000Z</time>
      </trkpt>
      <trkpt lat="49.3374" lon="-0.5441">
        <ele>39.599998474121</ele>
        <time>2026-03-24T13:52:05.000Z</time>
      </trkpt>
      <trkpt lat="49.33741" lon="-0.54409">
        <ele>39.599998474121</ele>
        <time>2026-03-24T13:52:06.000Z</time>
      </trkpt>
      <trkpt lat="49.3374" lon="-0.54407">
        <ele>39.599998474121</ele>
        <time>2026-03-24T13:52:07.000Z</time>
      </trkpt>
      <trkpt lat="49.3374" lon="-0.54405">
        <ele>39.599998474121</ele>
        <time>2026-03-24T13:52:08.000Z</time>
      </trkpt>
      <trkpt lat="49.3374" lon="-0.54403">
        <ele>39.599998474121</ele>
        <time>2026-03-24T13:52:09.000Z</time>
      </trkpt>
      <trkpt lat="49.3374" lon="-0.54401">
        <ele>39.599998474121</ele>
        <time>2026-03-24T13:52:10.000Z</time>
      </trkpt>
      <trkpt lat="49.33741" lon="-0.544">
        <ele>39.599998474121</ele>
        <time>2026-03-24T13:52:11.000Z</time>
      </trkpt>
      <trkpt lat="49.3374" lon="-0.54398">
        <ele>39.599998474121</ele>
        <time>2026-03-24T13:52:12.000Z</time>
      </trkpt>
      <trkpt lat="49.3374" lon="-0.54396">
        <ele>39.599998474121</ele>
        <time>2026-03-24T13:52:13.000Z</time>
      </trkpt>
      <trkpt lat="49.3374" lon="-0.54395">
        <ele>39.599998474121</ele>
        <time>2026-03-24T13:52:14.000Z</time>
      </trkpt>
      <trkpt lat="49.3374" lon="-0.54394">
        <ele>39.400001525879</ele>
        <time>2026-03-24T13:52:15.000Z</time>
      </trkpt>
      <trkpt lat="49.3374" lon="-0.54392">
        <ele>39.400001525879</ele>
        <time>2026-03-24T13:52:16.000Z</time>
      </trkpt>
      <trkpt lat="49.3374" lon="-0.54391">
        <ele>39.400001525879</ele>
        <time>2026-03-24T13:52:17.000Z</time>
      </trkpt>
      <trkpt lat="49.3374" lon="-0.54389">
        <ele>39.400001525879</ele>
        <time>2026-03-24T13:52:18.000Z</time>
      </trkpt>
      <trkpt lat="49.33741" lon="-0.54387">
        <ele>39.400001525879</ele>
        <time>2026-03-24T13:52:19.000Z</time>
      </trkpt>
      <trkpt lat="49.33741" lon="-0.54386">
        <ele>39.599998474121</ele>
        <time>2026-03-24T13:52:20.000Z</time>
      </trkpt>
      <trkpt lat="49.33741" lon="-0.54384">
        <ele>39.599998474121</ele>
        <time>2026-03-24T13:52:21.000Z</time>
      </trkpt>
      <trkpt lat="49.33741" lon="-0.54383">
        <ele>39.599998474121</ele>
        <time>2026-03-24T13:52:22.000Z</time>
      </trkpt>
      <trkpt lat="49.33741" lon="-0.54381">
        <ele>39.599998474121</ele>
        <time>2026-03-24T13:52:23.000Z</time>
      </trkpt>
      <trkpt lat="49.3374" lon="-0.5438">
        <ele>39.799999237061</ele>
        <time>2026-03-24T13:52:24.000Z</time>
      </trkpt>
      <trkpt lat="49.3374" lon="-0.54378">
        <ele>39.799999237061</ele>
        <time>2026-03-24T13:52:25.000Z</time>
      </trkpt>
      <trkpt lat="49.33741" lon="-0.54376">
        <ele>39.799999237061</ele>
        <time>2026-03-24T13:52:26.000Z</time>
      </trkpt>
      <trkpt lat="49.33741" lon="-0.54374">
        <ele>40</ele>
        <time>2026-03-24T13:52:27.000Z</time>
      </trkpt>
      <trkpt lat="49.3374" lon="-0.54373">
        <ele>40</ele>
        <time>2026-03-24T13:52:28.000Z</time>
      </trkpt>
      <trkpt lat="49.3374" lon="-0.54371">
        <ele>40</ele>
        <time>2026-03-24T13:52:29.000Z</time>
      </trkpt>
      <trkpt lat="49.3374" lon="-0.54369">
        <ele>40.200000762939</ele>
        <time>2026-03-24T13:52:30.000Z</time>
      </trkpt>
      <trkpt lat="49.3374" lon="-0.54368">
        <ele>40.200000762939</ele>
        <time>2026-03-24T13:52:31.000Z</time>
      </trkpt>
      <trkpt lat="49.3374" lon="-0.54366">
        <ele>40.200000762939</ele>
        <time>2026-03-24T13:52:32.000Z</time>
      </trkpt>
      <trkpt lat="49.3374" lon="-0.54365">
        <ele>40.200000762939</ele>
        <time>2026-03-24T13:52:33.000Z</time>
      </trkpt>
      <trkpt lat="49.3374" lon="-0.54363">
        <ele>40.200000762939</ele>
        <time>2026-03-24T13:52:34.000Z</time>
      </trkpt>
      <trkpt lat="49.3374" lon="-0.54362">
        <ele>40.200000762939</ele>
        <time>2026-03-24T13:52:35.000Z</time>
      </trkpt>
      <trkpt lat="49.3374" lon="-0.5436">
        <ele>40.200000762939</ele>
        <time>2026-03-24T13:52:36.000Z</time>
      </trkpt>
      <trkpt lat="49.3374" lon="-0.54359">
        <ele>40.200000762939</ele>
        <time>2026-03-24T13:52:37.000Z</time>
      </trkpt>
      <trkpt lat="49.33741" lon="-0.54358">
        <ele>40.200000762939</ele>
        <time>2026-03-24T13:52:38.000Z</time>
      </trkpt>
      <trkpt lat="49.33741" lon="-0.54356">
        <ele>40.200000762939</ele>
        <time>2026-03-24T13:52:39.000Z</time>
      </trkpt>
      <trkpt lat="49.33741" lon="-0.54355">
        <ele>40.200000762939</ele>
        <time>2026-03-24T13:52:40.000Z</time>
      </trkpt>
      <trkpt lat="49.33742" lon="-0.54353">
        <ele>40.200000762939</ele>
        <time>2026-03-24T13:52:41.000Z</time>
      </trkpt>
      <trkpt lat="49.33742" lon="-0.54352">
        <ele>40.200000762939</ele>
        <time>2026-03-24T13:52:42.000Z</time>
      </trkpt>
      <trkpt lat="49.33743" lon="-0.54351">
        <ele>40.200000762939</ele>
        <time>2026-03-24T13:52:43.000Z</time>
      </trkpt>
      <trkpt lat="49.33743" lon="-0.54349">
        <ele>40</ele>
        <time>2026-03-24T13:52:44.000Z</time>
      </trkpt>
      <trkpt lat="49.33743" lon="-0.54348">
        <ele>40</ele>
        <time>2026-03-24T13:52:45.000Z</time>
      </trkpt>
      <trkpt lat="49.33744" lon="-0.54346">
        <ele>40</ele>
        <time>2026-03-24T13:52:46.000Z</time>
      </trkpt>
      <trkpt lat="49.33744" lon="-0.54344">
        <ele>40</ele>
        <time>2026-03-24T13:52:47.000Z</time>
      </trkpt>
      <trkpt lat="49.33744" lon="-0.54342">
        <ele>40</ele>
        <time>2026-03-24T13:52:48.000Z</time>
      </trkpt>
      <trkpt lat="49.33744" lon="-0.5434">
        <ele>40</ele>
        <time>2026-03-24T13:52:49.000Z</time>
      </trkpt>
      <trkpt lat="49.33744" lon="-0.54339">
        <ele>40</ele>
        <time>2026-03-24T13:52:50.000Z</time>
      </trkpt>
      <trkpt lat="49.33744" lon="-0.54337">
        <ele>40</ele>
        <time>2026-03-24T13:52:51.000Z</time>
      </trkpt>
      <trkpt lat="49.33744" lon="-0.54335">
        <ele>40</ele>
        <time>2026-03-24T13:52:52.000Z</time>
      </trkpt>
      <trkpt lat="49.33745" lon="-0.54333">
        <ele>40</ele>
        <time>2026-03-24T13:52:53.000Z</time>
      </trkpt>
      <trkpt lat="49.33745" lon="-0.54332">
        <ele>40</ele>
        <time>2026-03-24T13:52:54.000Z</time>
      </trkpt>
      <trkpt lat="49.33745" lon="-0.5433">
        <ele>40</ele>
        <time>2026-03-24T13:52:55.000Z</time>
      </trkpt>
      <trkpt lat="49.33745" lon="-0.54329">
        <ele>40</ele>
        <time>2026-03-24T13:52:56.000Z</time>
      </trkpt>
      <trkpt lat="49.33745" lon="-0.54327">
        <ele>40</ele>
        <time>2026-03-24T13:52:57.000Z</time>
      </trkpt>
      <trkpt lat="49.33745" lon="-0.54325">
        <ele>40</ele>
        <time>2026-03-24T13:52:58.000Z</time>
      </trkpt>
      <trkpt lat="49.33745" lon="-0.54324">
        <ele>40</ele>
        <time>2026-03-24T13:52:59.000Z</time>
      </trkpt>
      <trkpt lat="49.33745" lon="-0.54322">
        <ele>40</ele>
        <time>2026-03-24T13:53:00.000Z</time>
      </trkpt>
      <trkpt lat="49.33746" lon="-0.5432">
        <ele>40</ele>
        <time>2026-03-24T13:53:01.000Z</time>
      </trkpt>
      <trkpt lat="49.33746" lon="-0.54319">
        <ele>40</ele>
        <time>2026-03-24T13:53:02.000Z</time>
      </trkpt>
      <trkpt lat="49.33746" lon="-0.54317">
        <ele>40</ele>
        <time>2026-03-24T13:53:03.000Z</time>
      </trkpt>
      <trkpt lat="49.33746" lon="-0.54315">
        <ele>40</ele>
        <time>2026-03-24T13:53:04.000Z</time>
      </trkpt>
      <trkpt lat="49.33746" lon="-0.54313">
        <ele>40</ele>
        <time>2026-03-24T13:53:05.000Z</time>
      </trkpt>
      <trkpt lat="49.33746" lon="-0.54311">
        <ele>40</ele>
        <time>2026-03-24T13:53:06.000Z</time>
      </trkpt>
      <trkpt lat="49.33746" lon="-0.5431">
        <ele>40</ele>
        <time>2026-03-24T13:53:07.000Z</time>
      </trkpt>
      <trkpt lat="49.33746" lon="-0.54308">
        <ele>40</ele>
        <time>2026-03-24T13:53:08.000Z</time>
      </trkpt>
      <trkpt lat="49.33746" lon="-0.54306">
        <ele>40</ele>
        <time>2026-03-24T13:53:09.000Z</time>
      </trkpt>
      <trkpt lat="49.33746" lon="-0.54305">
        <ele>40</ele>
        <time>2026-03-24T13:53:10.000Z</time>
      </trkpt>
      <trkpt lat="49.33746" lon="-0.54303">
        <ele>40</ele>
        <time>2026-03-24T13:53:11.000Z</time>
      </trkpt>
      <trkpt lat="49.33747" lon="-0.54302">
        <ele>40</ele>
        <time>2026-03-24T13:53:12.000Z</time>
      </trkpt>
      <trkpt lat="49.33747" lon="-0.543">
        <ele>40</ele>
        <time>2026-03-24T13:53:13.000Z</time>
      </trkpt>
      <trkpt lat="49.33747" lon="-0.54299">
        <ele>40</ele>
        <time>2026-03-24T13:53:14.000Z</time>
      </trkpt>
      <trkpt lat="49.33747" lon="-0.54297">
        <ele>40</ele>
        <time>2026-03-24T13:53:15.000Z</time>
      </trkpt>
      <trkpt lat="49.33747" lon="-0.54295">
        <ele>40</ele>
        <time>2026-03-24T13:53:16.000Z</time>
      </trkpt>
      <trkpt lat="49.33747" lon="-0.54294">
        <ele>40</ele>
        <time>2026-03-24T13:53:17.000Z</time>
      </trkpt>
      <trkpt lat="49.33748" lon="-0.54292">
        <ele>40</ele>
        <time>2026-03-24T13:53:18.000Z</time>
      </trkpt>
      <trkpt lat="49.33748" lon="-0.54291">
        <ele>40</ele>
        <time>2026-03-24T13:53:19.000Z</time>
      </trkpt>
      <trkpt lat="49.33748" lon="-0.54289">
        <ele>40</ele>
        <time>2026-03-24T13:53:20.000Z</time>
      </trkpt>
      <trkpt lat="49.33748" lon="-0.54287">
        <ele>39.799999237061</ele>
        <time>2026-03-24T13:53:21.000Z</time>
      </trkpt>
      <trkpt lat="49.33749" lon="-0.54285">
        <ele>39.799999237061</ele>
        <time>2026-03-24T13:53:22.000Z</time>
      </trkpt>
      <trkpt lat="49.33749" lon="-0.54283">
        <ele>39.799999237061</ele>
        <time>2026-03-24T13:53:23.000Z</time>
      </trkpt>
      <trkpt lat="49.33749" lon="-0.54282">
        <ele>39.799999237061</ele>
        <time>2026-03-24T13:53:24.000Z</time>
      </trkpt>
      <trkpt lat="49.33748" lon="-0.5428">
        <ele>39.799999237061</ele>
        <time>2026-03-24T13:53:25.000Z</time>
      </trkpt>
      <trkpt lat="49.33749" lon="-0.54278">
        <ele>39.799999237061</ele>
        <time>2026-03-24T13:53:26.000Z</time>
      </trkpt>
      <trkpt lat="49.33749" lon="-0.54276">
        <ele>39.799999237061</ele>
        <time>2026-03-24T13:53:27.000Z</time>
      </trkpt>
      <trkpt lat="49.33749" lon="-0.54275">
        <ele>39.799999237061</ele>
        <time>2026-03-24T13:53:28.000Z</time>
      </trkpt>
      <trkpt lat="49.33749" lon="-0.54273">
        <ele>40</ele>
        <time>2026-03-24T13:53:29.000Z</time>
      </trkpt>
      <trkpt lat="49.3375" lon="-0.54272">
        <ele>40</ele>
        <time>2026-03-24T13:53:30.000Z</time>
      </trkpt>
      <trkpt lat="49.3375" lon="-0.5427">
        <ele>40</ele>
        <time>2026-03-24T13:53:31.000Z</time>
      </trkpt>
      <trkpt lat="49.3375" lon="-0.54269">
        <ele>40</ele>
        <time>2026-03-24T13:53:32.000Z</time>
      </trkpt>
      <trkpt lat="49.3375" lon="-0.54267">
        <ele>40.200000762939</ele>
        <time>2026-03-24T13:53:33.000Z</time>
      </trkpt>
      <trkpt lat="49.3375" lon="-0.54265">
        <ele>40.200000762939</ele>
        <time>2026-03-24T13:53:34.000Z</time>
      </trkpt>
      <trkpt lat="49.3375" lon="-0.54264">
        <ele>40.200000762939</ele>
        <time>2026-03-24T13:53:35.000Z</time>
      </trkpt>
      <trkpt lat="49.33751" lon="-0.54262">
        <ele>40.200000762939</ele>
        <time>2026-03-24T13:53:36.000Z</time>
      </trkpt>
      <trkpt lat="49.33751" lon="-0.54261">
        <ele>40.200000762939</ele>
        <time>2026-03-24T13:53:37.000Z</time>
      </trkpt>
      <trkpt lat="49.33751" lon="-0.54259">
        <ele>40.200000762939</ele>
        <time>2026-03-24T13:53:38.000Z</time>
      </trkpt>
      <trkpt lat="49.33752" lon="-0.54257">
        <ele>40.400001525879</ele>
        <time>2026-03-24T13:53:39.000Z</time>
      </trkpt>
      <trkpt lat="49.33752" lon="-0.54256">
        <ele>40.400001525879</ele>
        <time>2026-03-24T13:53:40.000Z</time>
      </trkpt>
      <trkpt lat="49.33751" lon="-0.54254">
        <ele>40.400001525879</ele>
        <time>2026-03-24T13:53:41.000Z</time>
      </trkpt>
      <trkpt lat="49.33751" lon="-0.54252">
        <ele>40.599998474121</ele>
        <time>2026-03-24T13:53:42.000Z</time>
      </trkpt>
      <trkpt lat="49.33751" lon="-0.5425">
        <ele>40.599998474121</ele>
        <time>2026-03-24T13:53:43.000Z</time>
      </trkpt>
      <trkpt lat="49.33751" lon="-0.54249">
        <ele>40.599998474121</ele>
        <time>2026-03-24T13:53:44.000Z</time>
      </trkpt>
      <trkpt lat="49.33751" lon="-0.54247">
        <ele>40.799999237061</ele>
        <time>2026-03-24T13:53:45.000Z</time>
      </trkpt>
      <trkpt lat="49.33751" lon="-0.54245">
        <ele>40.799999237061</ele>
        <time>2026-03-24T13:53:46.000Z</time>
      </trkpt>
      <trkpt lat="49.33751" lon="-0.54243">
        <ele>40.799999237061</ele>
        <time>2026-03-24T13:53:47.000Z</time>
      </trkpt>
      <trkpt lat="49.33751" lon="-0.54241">
        <ele>40.799999237061</ele>
        <time>2026-03-24T13:53:48.000Z</time>
      </trkpt>
      <trkpt lat="49.33751" lon="-0.5424">
        <ele>40.799999237061</ele>
        <time>2026-03-24T13:53:49.000Z</time>
      </trkpt>
      <trkpt lat="49.33751" lon="-0.54238">
        <ele>40.799999237061</ele>
        <time>2026-03-24T13:53:50.000Z</time>
      </trkpt>
      <trkpt lat="49.33751" lon="-0.54237">
        <ele>40.799999237061</ele>
        <time>2026-03-24T13:53:51.000Z</time>
      </trkpt>
      <trkpt lat="49.33751" lon="-0.54235">
        <ele>40.799999237061</ele>
        <time>2026-03-24T13:53:52.000Z</time>
      </trkpt>
      <trkpt lat="49.33752" lon="-0.54233">
        <ele>40.799999237061</ele>
        <time>2026-03-24T13:53:53.000Z</time>
      </trkpt>
      <trkpt lat="49.33752" lon="-0.54231">
        <ele>40.799999237061</ele>
        <time>2026-03-24T13:53:54.000Z</time>
      </trkpt>
      <trkpt lat="49.33752" lon="-0.54229">
        <ele>40.799999237061</ele>
        <time>2026-03-24T13:53:55.000Z</time>
      </trkpt>
      <trkpt lat="49.33753" lon="-0.54228">
        <ele>40.799999237061</ele>
        <time>2026-03-24T13:53:56.000Z</time>
      </trkpt>
      <trkpt lat="49.33753" lon="-0.54226">
        <ele>40.799999237061</ele>
        <time>2026-03-24T13:53:57.000Z</time>
      </trkpt>
      <trkpt lat="49.33753" lon="-0.54225">
        <ele>40.799999237061</ele>
        <time>2026-03-24T13:53:58.000Z</time>
      </trkpt>
      <trkpt lat="49.33753" lon="-0.54223">
        <ele>40.799999237061</ele>
        <time>2026-03-24T13:53:59.000Z</time>
      </trkpt>
      <trkpt lat="49.33753" lon="-0.54221">
        <ele>40.799999237061</ele>
        <time>2026-03-24T13:54:00.000Z</time>
      </trkpt>
      <trkpt lat="49.33754" lon="-0.5422">
        <ele>40.799999237061</ele>
        <time>2026-03-24T13:54:01.000Z</time>
      </trkpt>
      <trkpt lat="49.33754" lon="-0.54218">
        <ele>40.799999237061</ele>
        <time>2026-03-24T13:54:02.000Z</time>
      </trkpt>
      <trkpt lat="49.33754" lon="-0.54216">
        <ele>40.599998474121</ele>
        <time>2026-03-24T13:54:03.000Z</time>
      </trkpt>
      <trkpt lat="49.33754" lon="-0.54215">
        <ele>40.599998474121</ele>
        <time>2026-03-24T13:54:04.000Z</time>
      </trkpt>
      <trkpt lat="49.33754" lon="-0.54213">
        <ele>40.599998474121</ele>
        <time>2026-03-24T13:54:05.000Z</time>
      </trkpt>
      <trkpt lat="49.33754" lon="-0.54211">
        <ele>40.599998474121</ele>
        <time>2026-03-24T13:54:06.000Z</time>
      </trkpt>
      <trkpt lat="49.33754" lon="-0.54209">
        <ele>40.599998474121</ele>
        <time>2026-03-24T13:54:07.000Z</time>
      </trkpt>
      <trkpt lat="49.33754" lon="-0.54208">
        <ele>40.599998474121</ele>
        <time>2026-03-24T13:54:08.000Z</time>
      </trkpt>
      <trkpt lat="49.33755" lon="-0.54206">
        <ele>40.599998474121</ele>
        <time>2026-03-24T13:54:09.000Z</time>
      </trkpt>
      <trkpt lat="49.33755" lon="-0.54205">
        <ele>40.599998474121</ele>
        <time>2026-03-24T13:54:10.000Z</time>
      </trkpt>
      <trkpt lat="49.33755" lon="-0.54204">
        <ele>40.599998474121</ele>
        <time>2026-03-24T13:54:11.000Z</time>
      </trkpt>
      <trkpt lat="49.33755" lon="-0.54202">
        <ele>40.599998474121</ele>
        <time>2026-03-24T13:54:12.000Z</time>
      </trkpt>
      <trkpt lat="49.33755" lon="-0.54201">
        <ele>40.599998474121</ele>
        <time>2026-03-24T13:54:13.000Z</time>
      </trkpt>
      <trkpt lat="49.33756" lon="-0.542">
        <ele>40.599998474121</ele>
        <time>2026-03-24T13:54:14.000Z</time>
      </trkpt>
      <trkpt lat="49.33756" lon="-0.54198">
        <ele>40.599998474121</ele>
        <time>2026-03-24T13:54:15.000Z</time>
      </trkpt>
      <trkpt lat="49.33757" lon="-0.54197">
        <ele>40.599998474121</ele>
        <time>2026-03-24T13:54:16.000Z</time>
      </trkpt>
      <trkpt lat="49.33757" lon="-0.54195">
        <ele>40.599998474121</ele>
        <time>2026-03-24T13:54:17.000Z</time>
      </trkpt>
      <trkpt lat="49.33757" lon="-0.54193">
        <ele>40.599998474121</ele>
        <time>2026-03-24T13:54:18.000Z</time>
      </trkpt>
      <trkpt lat="49.33757" lon="-0.54192">
        <ele>40.599998474121</ele>
        <time>2026-03-24T13:54:19.000Z</time>
      </trkpt>
      <trkpt lat="49.33757" lon="-0.5419">
        <ele>40.599998474121</ele>
        <time>2026-03-24T13:54:20.000Z</time>
      </trkpt>
      <trkpt lat="49.33757" lon="-0.54189">
        <ele>40.599998474121</ele>
        <time>2026-03-24T13:54:21.000Z</time>
      </trkpt>
      <trkpt lat="49.33757" lon="-0.54187">
        <ele>40.599998474121</ele>
        <time>2026-03-24T13:54:22.000Z</time>
      </trkpt>
      <trkpt lat="49.33757" lon="-0.54185">
        <ele>40.599998474121</ele>
        <time>2026-03-24T13:54:23.000Z</time>
      </trkpt>
      <trkpt lat="49.33758" lon="-0.54184">
        <ele>40.599998474121</ele>
        <time>2026-03-24T13:54:24.000Z</time>
      </trkpt>
      <trkpt lat="49.33758" lon="-0.54182">
        <ele>40.599998474121</ele>
        <time>2026-03-24T13:54:25.000Z</time>
      </trkpt>
      <trkpt lat="49.33758" lon="-0.5418">
        <ele>40.599998474121</ele>
        <time>2026-03-24T13:54:26.000Z</time>
      </trkpt>
      <trkpt lat="49.33758" lon="-0.54178">
        <ele>40.799999237061</ele>
        <time>2026-03-24T13:54:27.000Z</time>
      </trkpt>
      <trkpt lat="49.33758" lon="-0.54177">
        <ele>40.799999237061</ele>
        <time>2026-03-24T13:54:28.000Z</time>
      </trkpt>
      <trkpt lat="49.33758" lon="-0.54175">
        <ele>40.799999237061</ele>
        <time>2026-03-24T13:54:29.000Z</time>
      </trkpt>
      <trkpt lat="49.33758" lon="-0.54173">
        <ele>40.799999237061</ele>
        <time>2026-03-24T13:54:30.000Z</time>
      </trkpt>
      <trkpt lat="49.33758" lon="-0.54172">
        <ele>41</ele>
        <time>2026-03-24T13:54:31.000Z</time>
      </trkpt>
      <trkpt lat="49.33758" lon="-0.5417">
        <ele>41</ele>
        <time>2026-03-24T13:54:32.000Z</time>
      </trkpt>
      <trkpt lat="49.33759" lon="-0.54168">
        <ele>41</ele>
        <time>2026-03-24T13:54:33.000Z</time>
      </trkpt>
      <trkpt lat="49.33759" lon="-0.54167">
        <ele>41</ele>
        <time>2026-03-24T13:54:34.000Z</time>
      </trkpt>
      <trkpt lat="49.33759" lon="-0.54165">
        <ele>41</ele>
        <time>2026-03-24T13:54:35.000Z</time>
      </trkpt>
      <trkpt lat="49.33759" lon="-0.54163">
        <ele>41</ele>
        <time>2026-03-24T13:54:36.000Z</time>
      </trkpt>
      <trkpt lat="49.33759" lon="-0.54161">
        <ele>41</ele>
        <time>2026-03-24T13:54:37.000Z</time>
      </trkpt>
      <trkpt lat="49.3376" lon="-0.5416">
        <ele>41</ele>
        <time>2026-03-24T13:54:38.000Z</time>
      </trkpt>
      <trkpt lat="49.33759" lon="-0.54158">
        <ele>41</ele>
        <time>2026-03-24T13:54:39.000Z</time>
      </trkpt>
      <trkpt lat="49.33759" lon="-0.54156">
        <ele>41</ele>
        <time>2026-03-24T13:54:40.000Z</time>
      </trkpt>
      <trkpt lat="49.33759" lon="-0.54154">
        <ele>41</ele>
        <time>2026-03-24T13:54:41.000Z</time>
      </trkpt>
      <trkpt lat="49.3376" lon="-0.54152">
        <ele>41</ele>
        <time>2026-03-24T13:54:42.000Z</time>
      </trkpt>
      <trkpt lat="49.3376" lon="-0.54151">
        <ele>41</ele>
        <time>2026-03-24T13:54:43.000Z</time>
      </trkpt>
      <trkpt lat="49.3376" lon="-0.54149">
        <ele>41</ele>
        <time>2026-03-24T13:54:44.000Z</time>
      </trkpt>
      <trkpt lat="49.3376" lon="-0.54148">
        <ele>41</ele>
        <time>2026-03-24T13:54:45.000Z</time>
      </trkpt>
      <trkpt lat="49.3376" lon="-0.54146">
        <ele>41</ele>
        <time>2026-03-24T13:54:46.000Z</time>
      </trkpt>
      <trkpt lat="49.3376" lon="-0.54144">
        <ele>41</ele>
        <time>2026-03-24T13:54:47.000Z</time>
      </trkpt>
      <trkpt lat="49.3376" lon="-0.54142">
        <ele>41</ele>
        <time>2026-03-24T13:54:48.000Z</time>
      </trkpt>
      <trkpt lat="49.33761" lon="-0.5414">
        <ele>41</ele>
        <time>2026-03-24T13:54:49.000Z</time>
      </trkpt>
      <trkpt lat="49.33761" lon="-0.54138">
        <ele>41</ele>
        <time>2026-03-24T13:54:50.000Z</time>
      </trkpt>
      <trkpt lat="49.33761" lon="-0.54137">
        <ele>41</ele>
        <time>2026-03-24T13:54:51.000Z</time>
      </trkpt>
      <trkpt lat="49.33761" lon="-0.54135">
        <ele>41</ele>
        <time>2026-03-24T13:54:52.000Z</time>
      </trkpt>
      <trkpt lat="49.33761" lon="-0.54133">
        <ele>41.200000762939</ele>
        <time>2026-03-24T13:54:53.000Z</time>
      </trkpt>
      <trkpt lat="49.33761" lon="-0.54132">
        <ele>41.200000762939</ele>
        <time>2026-03-24T13:54:54.000Z</time>
      </trkpt>
      <trkpt lat="49.33761" lon="-0.5413">
        <ele>41.200000762939</ele>
        <time>2026-03-24T13:54:55.000Z</time>
      </trkpt>
      <trkpt lat="49.33762" lon="-0.54129">
        <ele>41.200000762939</ele>
        <time>2026-03-24T13:54:56.000Z</time>
      </trkpt>
      <trkpt lat="49.33762" lon="-0.54127">
        <ele>41.200000762939</ele>
        <time>2026-03-24T13:54:57.000Z</time>
      </trkpt>
      <trkpt lat="49.33762" lon="-0.54125">
        <ele>41.400001525879</ele>
        <time>2026-03-24T13:54:58.000Z</time>
      </trkpt>
      <trkpt lat="49.33762" lon="-0.54124">
        <ele>41.400001525879</ele>
        <time>2026-03-24T13:54:59.000Z</time>
      </trkpt>
      <trkpt lat="49.33762" lon="-0.54122">
        <ele>41.400001525879</ele>
        <time>2026-03-24T13:55:00.000Z</time>
      </trkpt>
      <trkpt lat="49.33762" lon="-0.5412">
        <ele>41.400001525879</ele>
        <time>2026-03-24T13:55:01.000Z</time>
      </trkpt>
      <trkpt lat="49.33762" lon="-0.54118">
        <ele>41.400001525879</ele>
        <time>2026-03-24T13:55:02.000Z</time>
      </trkpt>
      <trkpt lat="49.33762" lon="-0.54117">
        <ele>41.400001525879</ele>
        <time>2026-03-24T13:55:03.000Z</time>
      </trkpt>
      <trkpt lat="49.33763" lon="-0.54115">
        <ele>41.400001525879</ele>
        <time>2026-03-24T13:55:04.000Z</time>
      </trkpt>
      <trkpt lat="49.33763" lon="-0.54114">
        <ele>41.400001525879</ele>
        <time>2026-03-24T13:55:05.000Z</time>
      </trkpt>
      <trkpt lat="49.33763" lon="-0.54112">
        <ele>41.400001525879</ele>
        <time>2026-03-24T13:55:06.000Z</time>
      </trkpt>
      <trkpt lat="49.33763" lon="-0.5411">
        <ele>41.400001525879</ele>
        <time>2026-03-24T13:55:07.000Z</time>
      </trkpt>
      <trkpt lat="49.33763" lon="-0.54109">
        <ele>41.400001525879</ele>
        <time>2026-03-24T13:55:08.000Z</time>
      </trkpt>
      <trkpt lat="49.33763" lon="-0.54107">
        <ele>41.400001525879</ele>
        <time>2026-03-24T13:55:09.000Z</time>
      </trkpt>
      <trkpt lat="49.33763" lon="-0.54105">
        <ele>41.400001525879</ele>
        <time>2026-03-24T13:55:10.000Z</time>
      </trkpt>
      <trkpt lat="49.33763" lon="-0.54103">
        <ele>41.400001525879</ele>
        <time>2026-03-24T13:55:11.000Z</time>
      </trkpt>
      <trkpt lat="49.33763" lon="-0.54101">
        <ele>41.400001525879</ele>
        <time>2026-03-24T13:55:12.000Z</time>
      </trkpt>
      <trkpt lat="49.33763" lon="-0.541">
        <ele>41.400001525879</ele>
        <time>2026-03-24T13:55:13.000Z</time>
      </trkpt>
      <trkpt lat="49.33763" lon="-0.54098">
        <ele>41.400001525879</ele>
        <time>2026-03-24T13:55:14.000Z</time>
      </trkpt>
      <trkpt lat="49.33763" lon="-0.54096">
        <ele>41.400001525879</ele>
        <time>2026-03-24T13:55:15.000Z</time>
      </trkpt>
      <trkpt lat="49.33763" lon="-0.54094">
        <ele>41.400001525879</ele>
        <time>2026-03-24T13:55:16.000Z</time>
      </trkpt>
      <trkpt lat="49.33764" lon="-0.54092">
        <ele>41.400001525879</ele>
        <time>2026-03-24T13:55:17.000Z</time>
      </trkpt>
      <trkpt lat="49.33764" lon="-0.54091">
        <ele>41.400001525879</ele>
        <time>2026-03-24T13:55:18.000Z</time>
      </trkpt>
      <trkpt lat="49.33764" lon="-0.54089">
        <ele>41.400001525879</ele>
        <time>2026-03-24T13:55:19.000Z</time>
      </trkpt>
      <trkpt lat="49.33764" lon="-0.54087">
        <ele>41.599998474121</ele>
        <time>2026-03-24T13:55:20.000Z</time>
      </trkpt>
      <trkpt lat="49.33764" lon="-0.54086">
        <ele>41.599998474121</ele>
        <time>2026-03-24T13:55:21.000Z</time>
      </trkpt>
      <trkpt lat="49.33765" lon="-0.54084">
        <ele>41.599998474121</ele>
        <time>2026-03-24T13:55:22.000Z</time>
      </trkpt>
      <trkpt lat="49.33765" lon="-0.54082">
        <ele>41.599998474121</ele>
        <time>2026-03-24T13:55:23.000Z</time>
      </trkpt>
      <trkpt lat="49.33765" lon="-0.54081">
        <ele>41.799999237061</ele>
        <time>2026-03-24T13:55:24.000Z</time>
      </trkpt>
      <trkpt lat="49.33765" lon="-0.5408">
        <ele>41.799999237061</ele>
        <time>2026-03-24T13:55:25.000Z</time>
      </trkpt>
      <trkpt lat="49.33765" lon="-0.54078">
        <ele>41.799999237061</ele>
        <time>2026-03-24T13:55:26.000Z</time>
      </trkpt>
      <trkpt lat="49.33766" lon="-0.54077">
        <ele>41.799999237061</ele>
        <time>2026-03-24T13:55:27.000Z</time>
      </trkpt>
      <trkpt lat="49.33766" lon="-0.54076">
        <ele>41.799999237061</ele>
        <time>2026-03-24T13:55:28.000Z</time>
      </trkpt>
      <trkpt lat="49.33766" lon="-0.54074">
        <ele>42</ele>
        <time>2026-03-24T13:55:29.000Z</time>
      </trkpt>
      <trkpt lat="49.33766" lon="-0.54073">
        <ele>42</ele>
        <time>2026-03-24T13:55:30.000Z</time>
      </trkpt>
      <trkpt lat="49.33766" lon="-0.54071">
        <ele>42</ele>
        <time>2026-03-24T13:55:31.000Z</time>
      </trkpt>
      <trkpt lat="49.33766" lon="-0.5407">
        <ele>42</ele>
        <time>2026-03-24T13:55:32.000Z</time>
      </trkpt>
      <trkpt lat="49.33766" lon="-0.54068">
        <ele>42.200000762939</ele>
        <time>2026-03-24T13:55:33.000Z</time>
      </trkpt>
      <trkpt lat="49.33766" lon="-0.54067">
        <ele>42.200000762939</ele>
        <time>2026-03-24T13:55:34.000Z</time>
      </trkpt>
      <trkpt lat="49.33766" lon="-0.54066">
        <ele>42.200000762939</ele>
        <time>2026-03-24T13:55:35.000Z</time>
      </trkpt>
      <trkpt lat="49.33766" lon="-0.54064">
        <ele>42.200000762939</ele>
        <time>2026-03-24T13:55:36.000Z</time>
      </trkpt>
      <trkpt lat="49.33766" lon="-0.54063">
        <ele>42.200000762939</ele>
        <time>2026-03-24T13:55:37.000Z</time>
      </trkpt>
      <trkpt lat="49.33767" lon="-0.54061">
        <ele>42.200000762939</ele>
        <time>2026-03-24T13:55:38.000Z</time>
      </trkpt>
      <trkpt lat="49.33767" lon="-0.5406">
        <ele>42.200000762939</ele>
        <time>2026-03-24T13:55:39.000Z</time>
      </trkpt>
      <trkpt lat="49.33767" lon="-0.54058">
        <ele>42.200000762939</ele>
        <time>2026-03-24T13:55:40.000Z</time>
      </trkpt>
      <trkpt lat="49.33768" lon="-0.54057">
        <ele>42.200000762939</ele>
        <time>2026-03-24T13:55:41.000Z</time>
      </trkpt>
      <trkpt lat="49.33768" lon="-0.54055">
        <ele>42.200000762939</ele>
        <time>2026-03-24T13:55:42.000Z</time>
      </trkpt>
      <trkpt lat="49.33768" lon="-0.54054">
        <ele>42.200000762939</ele>
        <time>2026-03-24T13:55:43.000Z</time>
      </trkpt>
      <trkpt lat="49.33768" lon="-0.54053">
        <ele>42.200000762939</ele>
        <time>2026-03-24T13:55:44.000Z</time>
      </trkpt>
      <trkpt lat="49.33768" lon="-0.54052">
        <ele>42.200000762939</ele>
        <time>2026-03-24T13:55:45.000Z</time>
      </trkpt>
      <trkpt lat="49.33769" lon="-0.5405">
        <ele>42.200000762939</ele>
        <time>2026-03-24T13:55:46.000Z</time>
      </trkpt>
      <trkpt lat="49.33769" lon="-0.54049">
        <ele>42.200000762939</ele>
        <time>2026-03-24T13:55:47.000Z</time>
      </trkpt>
      <trkpt lat="49.33769" lon="-0.54047">
        <ele>42.200000762939</ele>
        <time>2026-03-24T13:55:48.000Z</time>
      </trkpt>
      <trkpt lat="49.33769" lon="-0.54046">
        <ele>42.200000762939</ele>
        <time>2026-03-24T13:55:49.000Z</time>
      </trkpt>
      <trkpt lat="49.33769" lon="-0.54044">
        <ele>42.200000762939</ele>
        <time>2026-03-24T13:55:50.000Z</time>
      </trkpt>
      <trkpt lat="49.33769" lon="-0.54043">
        <ele>42.200000762939</ele>
        <time>2026-03-24T13:55:51.000Z</time>
      </trkpt>
      <trkpt lat="49.33769" lon="-0.54042">
        <ele>42.200000762939</ele>
        <time>2026-03-24T13:55:52.000Z</time>
      </trkpt>
      <trkpt lat="49.33769" lon="-0.5404">
        <ele>42.200000762939</ele>
        <time>2026-03-24T13:55:53.000Z</time>
      </trkpt>
      <trkpt lat="49.33769" lon="-0.54039">
        <ele>42.200000762939</ele>
        <time>2026-03-24T13:55:54.000Z</time>
      </trkpt>
      <trkpt lat="49.33769" lon="-0.54037">
        <ele>42.200000762939</ele>
        <time>2026-03-24T13:55:55.000Z</time>
      </trkpt>
      <trkpt lat="49.33769" lon="-0.54036">
        <ele>42.200000762939</ele>
        <time>2026-03-24T13:55:56.000Z</time>
      </trkpt>
      <trkpt lat="49.33769" lon="-0.54035">
        <ele>42.200000762939</ele>
        <time>2026-03-24T13:55:57.000Z</time>
      </trkpt>
      <trkpt lat="49.33769" lon="-0.54033">
        <ele>42.200000762939</ele>
        <time>2026-03-24T13:55:58.000Z</time>
      </trkpt>
      <trkpt lat="49.33769" lon="-0.54031">
        <ele>42.200000762939</ele>
        <time>2026-03-24T13:55:59.000Z</time>
      </trkpt>
      <trkpt lat="49.33769" lon="-0.54029">
        <ele>42.200000762939</ele>
        <time>2026-03-24T13:56:00.000Z</time>
      </trkpt>
      <trkpt lat="49.33769" lon="-0.54028">
        <ele>42.200000762939</ele>
        <time>2026-03-24T13:56:01.000Z</time>
      </trkpt>
      <trkpt lat="49.33769" lon="-0.54026">
        <ele>42.200000762939</ele>
        <time>2026-03-24T13:56:02.000Z</time>
      </trkpt>
      <trkpt lat="49.33769" lon="-0.54024">
        <ele>42.400001525879</ele>
        <time>2026-03-24T13:56:03.000Z</time>
      </trkpt>
      <trkpt lat="49.33769" lon="-0.54022">
        <ele>42.400001525879</ele>
        <time>2026-03-24T13:56:04.000Z</time>
      </trkpt>
      <trkpt lat="49.3377" lon="-0.54021">
        <ele>42.400001525879</ele>
        <time>2026-03-24T13:56:05.000Z</time>
      </trkpt>
      <trkpt lat="49.3377" lon="-0.54019">
        <ele>42.400001525879</ele>
        <time>2026-03-24T13:56:06.000Z</time>
      </trkpt>
      <trkpt lat="49.33771" lon="-0.54018">
        <ele>42.400001525879</ele>
        <time>2026-03-24T13:56:07.000Z</time>
      </trkpt>
      <trkpt lat="49.33771" lon="-0.54016">
        <ele>42.599998474121</ele>
        <time>2026-03-24T13:56:08.000Z</time>
      </trkpt>
      <trkpt lat="49.33771" lon="-0.54014">
        <ele>42.599998474121</ele>
        <time>2026-03-24T13:56:09.000Z</time>
      </trkpt>
      <trkpt lat="49.33771" lon="-0.54012">
        <ele>42.599998474121</ele>
        <time>2026-03-24T13:56:10.000Z</time>
      </trkpt>
      <trkpt lat="49.33772" lon="-0.5401">
        <ele>42.799999237061</ele>
        <time>2026-03-24T13:56:11.000Z</time>
      </trkpt>
      <trkpt lat="49.33772" lon="-0.54009">
        <ele>42.799999237061</ele>
        <time>2026-03-24T13:56:12.000Z</time>
      </trkpt>
      <trkpt lat="49.33772" lon="-0.54007">
        <ele>42.799999237061</ele>
        <time>2026-03-24T13:56:13.000Z</time>
      </trkpt>
      <trkpt lat="49.33772" lon="-0.54006">
        <ele>42.799999237061</ele>
        <time>2026-03-24T13:56:14.000Z</time>
      </trkpt>
      <trkpt lat="49.33773" lon="-0.54004">
        <ele>43</ele>
        <time>2026-03-24T13:56:15.000Z</time>
      </trkpt>
      <trkpt lat="49.33773" lon="-0.54002">
        <ele>43</ele>
        <time>2026-03-24T13:56:16.000Z</time>
      </trkpt>
      <trkpt lat="49.33773" lon="-0.54001">
        <ele>43</ele>
        <time>2026-03-24T13:56:17.000Z</time>
      </trkpt>
      <trkpt lat="49.33774" lon="-0.53999">
        <ele>43</ele>
        <time>2026-03-24T13:56:18.000Z</time>
      </trkpt>
      <trkpt lat="49.33774" lon="-0.53997">
        <ele>43</ele>
        <time>2026-03-24T13:56:19.000Z</time>
      </trkpt>
      <trkpt lat="49.33774" lon="-0.53995">
        <ele>43</ele>
        <time>2026-03-24T13:56:20.000Z</time>
      </trkpt>
      <trkpt lat="49.33774" lon="-0.53994">
        <ele>43</ele>
        <time>2026-03-24T13:56:21.000Z</time>
      </trkpt>
      <trkpt lat="49.33774" lon="-0.53992">
        <ele>43</ele>
        <time>2026-03-24T13:56:22.000Z</time>
      </trkpt>
      <trkpt lat="49.33774" lon="-0.5399">
        <ele>43</ele>
        <time>2026-03-24T13:56:23.000Z</time>
      </trkpt>
      <trkpt lat="49.33774" lon="-0.53988">
        <ele>43</ele>
        <time>2026-03-24T13:56:24.000Z</time>
      </trkpt>
      <trkpt lat="49.33775" lon="-0.53987">
        <ele>43</ele>
        <time>2026-03-24T13:56:25.000Z</time>
      </trkpt>
      <trkpt lat="49.33774" lon="-0.53985">
        <ele>43</ele>
        <time>2026-03-24T13:56:26.000Z</time>
      </trkpt>
      <trkpt lat="49.33774" lon="-0.53983">
        <ele>43</ele>
        <time>2026-03-24T13:56:27.000Z</time>
      </trkpt>
      <trkpt lat="49.33775" lon="-0.53981">
        <ele>42.799999237061</ele>
        <time>2026-03-24T13:56:28.000Z</time>
      </trkpt>
      <trkpt lat="49.33775" lon="-0.53979">
        <ele>42.799999237061</ele>
        <time>2026-03-24T13:56:29.000Z</time>
      </trkpt>
      <trkpt lat="49.33775" lon="-0.53978">
        <ele>42.799999237061</ele>
        <time>2026-03-24T13:56:30.000Z</time>
      </trkpt>
      <trkpt lat="49.33775" lon="-0.53976">
        <ele>42.799999237061</ele>
        <time>2026-03-24T13:56:31.000Z</time>
      </trkpt>
      <trkpt lat="49.33775" lon="-0.53975">
        <ele>42.799999237061</ele>
        <time>2026-03-24T13:56:32.000Z</time>
      </trkpt>
      <trkpt lat="49.33775" lon="-0.53973">
        <ele>42.799999237061</ele>
        <time>2026-03-24T13:56:33.000Z</time>
      </trkpt>
      <trkpt lat="49.33776" lon="-0.53972">
        <ele>42.799999237061</ele>
        <time>2026-03-24T13:56:34.000Z</time>
      </trkpt>
      <trkpt lat="49.33776" lon="-0.5397">
        <ele>42.799999237061</ele>
        <time>2026-03-24T13:56:35.000Z</time>
      </trkpt>
      <trkpt lat="49.33776" lon="-0.53969">
        <ele>42.799999237061</ele>
        <time>2026-03-24T13:56:36.000Z</time>
      </trkpt>
      <trkpt lat="49.33775" lon="-0.53967">
        <ele>42.799999237061</ele>
        <time>2026-03-24T13:56:37.000Z</time>
      </trkpt>
      <trkpt lat="49.33776" lon="-0.53966">
        <ele>42.599998474121</ele>
        <time>2026-03-24T13:56:38.000Z</time>
      </trkpt>
      <trkpt lat="49.33776" lon="-0.53965">
        <ele>42.599998474121</ele>
        <time>2026-03-24T13:56:39.000Z</time>
      </trkpt>
      <trkpt lat="49.33776" lon="-0.53964">
        <ele>42.599998474121</ele>
        <time>2026-03-24T13:56:40.000Z</time>
      </trkpt>
      <trkpt lat="49.33776" lon="-0.53964">
        <ele>42.599998474121</ele>
        <time>2026-03-24T13:56:41.000Z</time>
      </trkpt>
      <trkpt lat="49.33776" lon="-0.53964">
        <ele>42.599998474121</ele>
        <time>2026-03-24T13:56:42.000Z</time>
      </trkpt>
      <trkpt lat="49.33775" lon="-0.53964">
        <ele>42.599998474121</ele>
        <time>2026-03-24T13:56:43.000Z</time>
      </trkpt>
      <trkpt lat="49.33774" lon="-0.53964">
        <ele>42.599998474121</ele>
        <time>2026-03-24T13:56:44.000Z</time>
      </trkpt>
      <trkpt lat="49.33774" lon="-0.53963">
        <ele>42.599998474121</ele>
        <time>2026-03-24T13:56:45.000Z</time>
      </trkpt>
      <trkpt lat="49.33774" lon="-0.53963">
        <ele>42.599998474121</ele>
        <time>2026-03-24T13:56:46.000Z</time>
      </trkpt>
      <trkpt lat="49.33774" lon="-0.53963">
        <ele>42.599998474121</ele>
        <time>2026-03-24T13:56:47.000Z</time>
      </trkpt>
      <trkpt lat="49.33774" lon="-0.53963">
        <ele>42.599998474121</ele>
        <time>2026-03-24T13:56:48.000Z</time>
      </trkpt>
      <trkpt lat="49.33774" lon="-0.53962">
        <ele>42.599998474121</ele>
        <time>2026-03-24T13:56:49.000Z</time>
      </trkpt>
      <trkpt lat="49.33774" lon="-0.53962">
        <ele>42.599998474121</ele>
        <time>2026-03-24T13:56:50.000Z</time>
      </trkpt>
      <trkpt lat="49.33774" lon="-0.53961">
        <ele>42.599998474121</ele>
        <time>2026-03-24T13:56:51.000Z</time>
      </trkpt>
      <trkpt lat="49.33774" lon="-0.53961">
        <ele>42.599998474121</ele>
        <time>2026-03-24T13:56:52.000Z</time>
      </trkpt>
      <trkpt lat="49.33774" lon="-0.53961">
        <ele>42.599998474121</ele>
        <time>2026-03-24T13:56:53.000Z</time>
      </trkpt>
      <trkpt lat="49.33774" lon="-0.53961">
        <ele>42.599998474121</ele>
        <time>2026-03-24T13:56:54.000Z</time>
      </trkpt>
      <trkpt lat="49.33774" lon="-0.53961">
        <ele>42.599998474121</ele>
        <time>2026-03-24T13:56:55.000Z</time>
      </trkpt>
      <trkpt lat="49.33774" lon="-0.53961">
        <ele>42.599998474121</ele>
        <time>2026-03-24T13:56:56.000Z</time>
      </trkpt>
      <trkpt lat="49.33774" lon="-0.53961">
        <ele>42.599998474121</ele>
        <time>2026-03-24T13:56:57.000Z</time>
      </trkpt>
      <trkpt lat="49.33774" lon="-0.53961">
        <ele>42.599998474121</ele>
        <time>2026-03-24T13:56:58.000Z</time>
      </trkpt>
      <trkpt lat="49.33774" lon="-0.53961">
        <ele>42.599998474121</ele>
        <time>2026-03-24T13:56:59.000Z</time>
      </trkpt>
      <trkpt lat="49.33774" lon="-0.53961">
        <ele>42.599998474121</ele>
        <time>2026-03-24T13:57:00.000Z</time>
      </trkpt>
      <trkpt lat="49.33774" lon="-0.53961">
        <ele>42.599998474121</ele>
        <time>2026-03-24T13:57:01.000Z</time>
      </trkpt>
      <trkpt lat="49.33774" lon="-0.53961">
        <ele>42.599998474121</ele>
        <time>2026-03-24T13:57:02.000Z</time>
      </trkpt>
      <trkpt lat="49.33774" lon="-0.53961">
        <ele>42.599998474121</ele>
        <time>2026-03-24T13:57:03.000Z</time>
      </trkpt>
      <trkpt lat="49.33774" lon="-0.53961">
        <ele>42.599998474121</ele>
        <time>2026-03-24T13:57:04.000Z</time>
      </trkpt>
      <trkpt lat="49.33774" lon="-0.5396">
        <ele>42.599998474121</ele>
        <time>2026-03-24T13:57:05.000Z</time>
      </trkpt>
      <trkpt lat="49.33774" lon="-0.5396">
        <ele>42.599998474121</ele>
        <time>2026-03-24T13:57:06.000Z</time>
      </trkpt>
      <trkpt lat="49.33774" lon="-0.5396">
        <ele>42.599998474121</ele>
        <time>2026-03-24T13:57:07.000Z</time>
      </trkpt>
      <trkpt lat="49.33774" lon="-0.5396">
        <ele>42.599998474121</ele>
        <time>2026-03-24T13:57:08.000Z</time>
      </trkpt>
      <trkpt lat="49.33774" lon="-0.5396">
        <ele>42.400001525879</ele>
        <time>2026-03-24T13:57:09.000Z</time>
      </trkpt>
      <trkpt lat="49.33774" lon="-0.5396">
        <ele>42.599998474121</ele>
        <time>2026-03-24T13:57:10.000Z</time>
      </trkpt>
      <trkpt lat="49.33774" lon="-0.53961">
        <ele>42.599998474121</ele>
        <time>2026-03-24T13:57:11.000Z</time>
      </trkpt>
      <trkpt lat="49.33774" lon="-0.53961">
        <ele>42.599998474121</ele>
        <time>2026-03-24T13:57:12.000Z</time>
      </trkpt>
      <trkpt lat="49.33774" lon="-0.53961">
        <ele>42.599998474121</ele>
        <time>2026-03-24T13:57:13.000Z</time>
      </trkpt>
      <trkpt lat="49.33774" lon="-0.53961">
        <ele>42.599998474121</ele>
        <time>2026-03-24T13:57:14.000Z</time>
      </trkpt>
      <trkpt lat="49.33775" lon="-0.53961">
        <ele>42.599998474121</ele>
        <time>2026-03-24T13:57:15.000Z</time>
      </trkpt>
      <trkpt lat="49.33775" lon="-0.53961">
        <ele>42.599998474121</ele>
        <time>2026-03-24T13:57:16.000Z</time>
      </trkpt>
      <trkpt lat="49.33775" lon="-0.53961">
        <ele>42.400001525879</ele>
        <time>2026-03-24T13:57:17.000Z</time>
      </trkpt>
      <trkpt lat="49.33776" lon="-0.53961">
        <ele>42.400001525879</ele>
        <time>2026-03-24T13:57:18.000Z</time>
      </trkpt>
      <trkpt lat="49.33776" lon="-0.53961">
        <ele>42.400001525879</ele>
        <time>2026-03-24T13:57:19.000Z</time>
      </trkpt>
      <trkpt lat="49.33776" lon="-0.53962">
        <ele>42.400001525879</ele>
        <time>2026-03-24T13:57:20.000Z</time>
      </trkpt>
      <trkpt lat="49.33776" lon="-0.53962">
        <ele>42.400001525879</ele>
        <time>2026-03-24T13:57:21.000Z</time>
      </trkpt>
      <trkpt lat="49.33776" lon="-0.53962">
        <ele>42.400001525879</ele>
        <time>2026-03-24T13:57:22.000Z</time>
      </trkpt>
      <trkpt lat="49.33776" lon="-0.53962">
        <ele>42.400001525879</ele>
        <time>2026-03-24T13:57:23.000Z</time>
      </trkpt>
      <trkpt lat="49.33777" lon="-0.53963">
        <ele>42.400001525879</ele>
        <time>2026-03-24T13:57:24.000Z</time>
      </trkpt>
      <trkpt lat="49.33776" lon="-0.53963">
        <ele>42.599998474121</ele>
        <time>2026-03-24T13:57:25.000Z</time>
      </trkpt>
      <trkpt lat="49.33776" lon="-0.53964">
        <ele>42.599998474121</ele>
        <time>2026-03-24T13:57:26.000Z</time>
      </trkpt>
      <trkpt lat="49.33776" lon="-0.53964">
        <ele>42.599998474121</ele>
        <time>2026-03-24T13:57:27.000Z</time>
      </trkpt>
      <trkpt lat="49.33776" lon="-0.53964">
        <ele>42.599998474121</ele>
        <time>2026-03-24T13:57:28.000Z</time>
      </trkpt>
      <trkpt lat="49.33776" lon="-0.53964">
        <ele>42.599998474121</ele>
        <time>2026-03-24T13:57:29.000Z</time>
      </trkpt>
      <trkpt lat="49.33776" lon="-0.53964">
        <ele>42.599998474121</ele>
        <time>2026-03-24T13:57:30.000Z</time>
      </trkpt>
      <trkpt lat="49.33776" lon="-0.53963">
        <ele>42.599998474121</ele>
        <time>2026-03-24T13:57:31.000Z</time>
      </trkpt>
      <trkpt lat="49.33776" lon="-0.53963">
        <ele>42.599998474121</ele>
        <time>2026-03-24T13:57:32.000Z</time>
      </trkpt>
      <trkpt lat="49.33777" lon="-0.53963">
        <ele>42.400001525879</ele>
        <time>2026-03-24T13:57:33.000Z</time>
      </trkpt>
      <trkpt lat="49.33777" lon="-0.53962">
        <ele>42.400001525879</ele>
        <time>2026-03-24T13:57:34.000Z</time>
      </trkpt>
      <trkpt lat="49.33777" lon="-0.53962">
        <ele>42.400001525879</ele>
        <time>2026-03-24T13:57:35.000Z</time>
      </trkpt>
      <trkpt lat="49.33777" lon="-0.53961">
        <ele>42.400001525879</ele>
        <time>2026-03-24T13:57:36.000Z</time>
      </trkpt>
      <trkpt lat="49.33777" lon="-0.53961">
        <ele>42.400001525879</ele>
        <time>2026-03-24T13:57:37.000Z</time>
      </trkpt>
      <trkpt lat="49.33777" lon="-0.53961">
        <ele>42.400001525879</ele>
        <time>2026-03-24T13:57:38.000Z</time>
      </trkpt>
      <trkpt lat="49.33778" lon="-0.5396">
        <ele>42.400001525879</ele>
        <time>2026-03-24T13:57:39.000Z</time>
      </trkpt>
      <trkpt lat="49.33777" lon="-0.5396">
        <ele>42.400001525879</ele>
        <time>2026-03-24T13:57:40.000Z</time>
      </trkpt>
      <trkpt lat="49.33777" lon="-0.53959">
        <ele>42.400001525879</ele>
        <time>2026-03-24T13:57:41.000Z</time>
      </trkpt>
      <trkpt lat="49.33777" lon="-0.53959">
        <ele>42.400001525879</ele>
        <time>2026-03-24T13:57:42.000Z</time>
      </trkpt>
      <trkpt lat="49.33777" lon="-0.53959">
        <ele>42.400001525879</ele>
        <time>2026-03-24T13:57:43.000Z</time>
      </trkpt>
      <trkpt lat="49.33777" lon="-0.53959">
        <ele>42.400001525879</ele>
        <time>2026-03-24T13:57:44.000Z</time>
      </trkpt>
      <trkpt lat="49.33777" lon="-0.53958">
        <ele>42.400001525879</ele>
        <time>2026-03-24T13:57:45.000Z</time>
      </trkpt>
      <trkpt lat="49.33776" lon="-0.53957">
        <ele>42.400001525879</ele>
        <time>2026-03-24T13:57:46.000Z</time>
      </trkpt>
      <trkpt lat="49.33775" lon="-0.53957">
        <ele>42.400001525879</ele>
        <time>2026-03-24T13:57:47.000Z</time>
      </trkpt>
      <trkpt lat="49.33775" lon="-0.53957">
        <ele>42.400001525879</ele>
        <time>2026-03-24T13:57:48.000Z</time>
      </trkpt>
      <trkpt lat="49.33774" lon="-0.53958">
        <ele>42.400001525879</ele>
        <time>2026-03-24T13:57:49.000Z</time>
      </trkpt>
      <trkpt lat="49.33774" lon="-0.53957">
        <ele>42.400001525879</ele>
        <time>2026-03-24T13:57:50.000Z</time>
      </trkpt>
      <trkpt lat="49.33773" lon="-0.53957">
        <ele>42.400001525879</ele>
        <time>2026-03-24T13:57:51.000Z</time>
      </trkpt>
      <trkpt lat="49.33773" lon="-0.53957">
        <ele>42.400001525879</ele>
        <time>2026-03-24T13:57:52.000Z</time>
      </trkpt>
      <trkpt lat="49.33772" lon="-0.53956">
        <ele>42.400001525879</ele>
        <time>2026-03-24T13:57:53.000Z</time>
      </trkpt>
      <trkpt lat="49.33771" lon="-0.53956">
        <ele>42.400001525879</ele>
        <time>2026-03-24T13:57:54.000Z</time>
      </trkpt>
      <trkpt lat="49.3377" lon="-0.53956">
        <ele>42.400001525879</ele>
        <time>2026-03-24T13:57:55.000Z</time>
      </trkpt>
      <trkpt lat="49.3377" lon="-0.53956">
        <ele>42.400001525879</ele>
        <time>2026-03-24T13:57:56.000Z</time>
      </trkpt>
      <trkpt lat="49.33769" lon="-0.53956">
        <ele>42.400001525879</ele>
        <time>2026-03-24T13:57:57.000Z</time>
      </trkpt>
      <trkpt lat="49.33768" lon="-0.53955">
        <ele>42.400001525879</ele>
        <time>2026-03-24T13:57:58.000Z</time>
      </trkpt>
      <trkpt lat="49.33767" lon="-0.53955">
        <ele>42.400001525879</ele>
        <time>2026-03-24T13:57:59.000Z</time>
      </trkpt>
      <trkpt lat="49.33766" lon="-0.53954">
        <ele>42.400001525879</ele>
        <time>2026-03-24T13:58:00.000Z</time>
      </trkpt>
      <trkpt lat="49.33764" lon="-0.53953">
        <ele>42.200000762939</ele>
        <time>2026-03-24T13:58:01.000Z</time>
      </trkpt>
      <trkpt lat="49.33761" lon="-0.53952">
        <ele>42.200000762939</ele>
        <time>2026-03-24T13:58:02.000Z</time>
      </trkpt>
      <trkpt lat="49.3376" lon="-0.53952">
        <ele>42.200000762939</ele>
        <time>2026-03-24T13:58:03.000Z</time>
      </trkpt>
      <trkpt lat="49.33759" lon="-0.53951">
        <ele>42.200000762939</ele>
        <time>2026-03-24T13:58:04.000Z</time>
      </trkpt>
      <trkpt lat="49.33759" lon="-0.53952">
        <ele>42.200000762939</ele>
        <time>2026-03-24T13:58:05.000Z</time>
      </trkpt>
      <trkpt lat="49.33758" lon="-0.53951">
        <ele>42.200000762939</ele>
        <time>2026-03-24T13:58:06.000Z</time>
      </trkpt>
      <trkpt lat="49.33757" lon="-0.5395">
        <ele>42.200000762939</ele>
        <time>2026-03-24T13:58:07.000Z</time>
      </trkpt>
      <trkpt lat="49.33756" lon="-0.5395">
        <ele>42.200000762939</ele>
        <time>2026-03-24T13:58:08.000Z</time>
      </trkpt>
      <trkpt lat="49.33755" lon="-0.53949">
        <ele>42.200000762939</ele>
        <time>2026-03-24T13:58:09.000Z</time>
      </trkpt>
      <trkpt lat="49.33754" lon="-0.53948">
        <ele>42.200000762939</ele>
        <time>2026-03-24T13:58:10.000Z</time>
      </trkpt>
      <trkpt lat="49.33753" lon="-0.53948">
        <ele>42</ele>
        <time>2026-03-24T13:58:11.000Z</time>
      </trkpt>
      <trkpt lat="49.33752" lon="-0.53947">
        <ele>42</ele>
        <time>2026-03-24T13:58:12.000Z</time>
      </trkpt>
      <trkpt lat="49.33751" lon="-0.53946">
        <ele>42</ele>
        <time>2026-03-24T13:58:13.000Z</time>
      </trkpt>
      <trkpt lat="49.3375" lon="-0.53945">
        <ele>42</ele>
        <time>2026-03-24T13:58:14.000Z</time>
      </trkpt>
      <trkpt lat="49.33749" lon="-0.53945">
        <ele>42</ele>
        <time>2026-03-24T13:58:15.000Z</time>
      </trkpt>
      <trkpt lat="49.33748" lon="-0.53944">
        <ele>42</ele>
        <time>2026-03-24T13:58:16.000Z</time>
      </trkpt>
      <trkpt lat="49.33747" lon="-0.53944">
        <ele>42</ele>
        <time>2026-03-24T13:58:17.000Z</time>
      </trkpt>
      <trkpt lat="49.33746" lon="-0.53943">
        <ele>41.799999237061</ele>
        <time>2026-03-24T13:58:18.000Z</time>
      </trkpt>
      <trkpt lat="49.33745" lon="-0.53943">
        <ele>41.799999237061</ele>
        <time>2026-03-24T13:58:19.000Z</time>
      </trkpt>
      <trkpt lat="49.33745" lon="-0.53942">
        <ele>41.799999237061</ele>
        <time>2026-03-24T13:58:20.000Z</time>
      </trkpt>
      <trkpt lat="49.33744" lon="-0.53941">
        <ele>41.599998474121</ele>
        <time>2026-03-24T13:58:21.000Z</time>
      </trkpt>
      <trkpt lat="49.33743" lon="-0.5394">
        <ele>41.599998474121</ele>
        <time>2026-03-24T13:58:22.000Z</time>
      </trkpt>
      <trkpt lat="49.33743" lon="-0.53939">
        <ele>41.400001525879</ele>
        <time>2026-03-24T13:58:23.000Z</time>
      </trkpt>
      <trkpt lat="49.33743" lon="-0.53938">
        <ele>41.400001525879</ele>
        <time>2026-03-24T13:58:24.000Z</time>
      </trkpt>
      <trkpt lat="49.33742" lon="-0.53937">
        <ele>41.200000762939</ele>
        <time>2026-03-24T13:58:25.000Z</time>
      </trkpt>
      <trkpt lat="49.33742" lon="-0.53936">
        <ele>41.200000762939</ele>
        <time>2026-03-24T13:58:26.000Z</time>
      </trkpt>
      <trkpt lat="49.33742" lon="-0.53936">
        <ele>41.200000762939</ele>
        <time>2026-03-24T13:58:27.000Z</time>
      </trkpt>
      <trkpt lat="49.33741" lon="-0.53935">
        <ele>41</ele>
        <time>2026-03-24T13:58:28.000Z</time>
      </trkpt>
      <trkpt lat="49.33741" lon="-0.53934">
        <ele>41</ele>
        <time>2026-03-24T13:58:29.000Z</time>
      </trkpt>
      <trkpt lat="49.33741" lon="-0.53934">
        <ele>41</ele>
        <time>2026-03-24T13:58:30.000Z</time>
      </trkpt>
      <trkpt lat="49.33741" lon="-0.53933">
        <ele>41</ele>
        <time>2026-03-24T13:58:31.000Z</time>
      </trkpt>
      <trkpt lat="49.33741" lon="-0.53933">
        <ele>41</ele>
        <time>2026-03-24T13:58:32.000Z</time>
      </trkpt>
      <trkpt lat="49.33741" lon="-0.53933">
        <ele>41</ele>
        <time>2026-03-24T13:58:33.000Z</time>
      </trkpt>
      <trkpt lat="49.33741" lon="-0.53933">
        <ele>41</ele>
        <time>2026-03-24T13:58:34.000Z</time>
      </trkpt>
      <trkpt lat="49.3374" lon="-0.53933">
        <ele>41</ele>
        <time>2026-03-24T13:58:35.000Z</time>
      </trkpt>
      <trkpt lat="49.3374" lon="-0.53933">
        <ele>41</ele>
        <time>2026-03-24T13:58:36.000Z</time>
      </trkpt>
      <trkpt lat="49.3374" lon="-0.53932">
        <ele>40.799999237061</ele>
        <time>2026-03-24T13:58:37.000Z</time>
      </trkpt>
      <trkpt lat="49.3374" lon="-0.53933">
        <ele>40.799999237061</ele>
        <time>2026-03-24T13:58:38.000Z</time>
      </trkpt>
      <trkpt lat="49.3374" lon="-0.53933">
        <ele>40.799999237061</ele>
        <time>2026-03-24T13:58:39.000Z</time>
      </trkpt>
      <trkpt lat="49.33739" lon="-0.53933">
        <ele>40.799999237061</ele>
        <time>2026-03-24T13:58:40.000Z</time>
      </trkpt>
      <trkpt lat="49.33739" lon="-0.53932">
        <ele>40.799999237061</ele>
        <time>2026-03-24T13:58:41.000Z</time>
      </trkpt>
      <trkpt lat="49.33738" lon="-0.53932">
        <ele>40.799999237061</ele>
        <time>2026-03-24T13:58:42.000Z</time>
      </trkpt>
      <trkpt lat="49.33737" lon="-0.53933">
        <ele>40.799999237061</ele>
        <time>2026-03-24T13:58:43.000Z</time>
      </trkpt>
      <trkpt lat="49.33737" lon="-0.53932">
        <ele>40.799999237061</ele>
        <time>2026-03-24T13:58:44.000Z</time>
      </trkpt>
      <trkpt lat="49.33736" lon="-0.53932">
        <ele>40.599998474121</ele>
        <time>2026-03-24T13:58:45.000Z</time>
      </trkpt>
      <trkpt lat="49.33736" lon="-0.53931">
        <ele>40.599998474121</ele>
        <time>2026-03-24T13:58:46.000Z</time>
      </trkpt>
      <trkpt lat="49.33735" lon="-0.53931">
        <ele>40.599998474121</ele>
        <time>2026-03-24T13:58:47.000Z</time>
      </trkpt>
      <trkpt lat="49.33735" lon="-0.53931">
        <ele>40.599998474121</ele>
        <time>2026-03-24T13:58:48.000Z</time>
      </trkpt>
      <trkpt lat="49.33734" lon="-0.53931">
        <ele>40.599998474121</ele>
        <time>2026-03-24T13:58:49.000Z</time>
      </trkpt>
      <trkpt lat="49.33733" lon="-0.53931">
        <ele>40.599998474121</ele>
        <time>2026-03-24T13:58:50.000Z</time>
      </trkpt>
      <trkpt lat="49.33732" lon="-0.5393">
        <ele>40.400001525879</ele>
        <time>2026-03-24T13:58:51.000Z</time>
      </trkpt>
      <trkpt lat="49.33731" lon="-0.53929">
        <ele>40.599998474121</ele>
        <time>2026-03-24T13:58:52.000Z</time>
      </trkpt>
      <trkpt lat="49.3373" lon="-0.53929">
        <ele>40.599998474121</ele>
        <time>2026-03-24T13:58:53.000Z</time>
      </trkpt>
      <trkpt lat="49.3373" lon="-0.53928">
        <ele>40.599998474121</ele>
        <time>2026-03-24T13:58:54.000Z</time>
      </trkpt>
      <trkpt lat="49.33729" lon="-0.53929">
        <ele>40.599998474121</ele>
        <time>2026-03-24T13:58:55.000Z</time>
      </trkpt>
      <trkpt lat="49.33728" lon="-0.53929">
        <ele>40.599998474121</ele>
        <time>2026-03-24T13:58:56.000Z</time>
      </trkpt>
      <trkpt lat="49.33728" lon="-0.53928">
        <ele>40.599998474121</ele>
        <time>2026-03-24T13:58:57.000Z</time>
      </trkpt>
      <trkpt lat="49.33727" lon="-0.53928">
        <ele>40.599998474121</ele>
        <time>2026-03-24T13:58:58.000Z</time>
      </trkpt>
      <trkpt lat="49.33726" lon="-0.53928">
        <ele>40.799999237061</ele>
        <time>2026-03-24T13:58:59.000Z</time>
      </trkpt>
      <trkpt lat="49.33724" lon="-0.53928">
        <ele>40.799999237061</ele>
        <time>2026-03-24T13:59:00.000Z</time>
      </trkpt>
      <trkpt lat="49.33723" lon="-0.53928">
        <ele>40.799999237061</ele>
        <time>2026-03-24T13:59:01.000Z</time>
      </trkpt>
      <trkpt lat="49.33721" lon="-0.53927">
        <ele>40.799999237061</ele>
        <time>2026-03-24T13:59:02.000Z</time>
      </trkpt>
      <trkpt lat="49.33719" lon="-0.53927">
        <ele>41</ele>
        <time>2026-03-24T13:59:03.000Z</time>
      </trkpt>
      <trkpt lat="49.33718" lon="-0.53926">
        <ele>41</ele>
        <time>2026-03-24T13:59:04.000Z</time>
      </trkpt>
      <trkpt lat="49.33717" lon="-0.53925">
        <ele>41</ele>
        <time>2026-03-24T13:59:05.000Z</time>
      </trkpt>
      <trkpt lat="49.33715" lon="-0.53925">
        <ele>41</ele>
        <time>2026-03-24T13:59:06.000Z</time>
      </trkpt>
      <trkpt lat="49.33714" lon="-0.53925">
        <ele>41.200000762939</ele>
        <time>2026-03-24T13:59:07.000Z</time>
      </trkpt>
      <trkpt lat="49.33713" lon="-0.53924">
        <ele>41.200000762939</ele>
        <time>2026-03-24T13:59:08.000Z</time>
      </trkpt>
      <trkpt lat="49.33712" lon="-0.53924">
        <ele>41.200000762939</ele>
        <time>2026-03-24T13:59:09.000Z</time>
      </trkpt>
      <trkpt lat="49.33711" lon="-0.53923">
        <ele>41.200000762939</ele>
        <time>2026-03-24T13:59:10.000Z</time>
      </trkpt>
      <trkpt lat="49.3371" lon="-0.53923">
        <ele>41.200000762939</ele>
        <time>2026-03-24T13:59:11.000Z</time>
      </trkpt>
      <trkpt lat="49.33709" lon="-0.53922">
        <ele>41.400001525879</ele>
        <time>2026-03-24T13:59:12.000Z</time>
      </trkpt>
      <trkpt lat="49.33708" lon="-0.53922">
        <ele>41.400001525879</ele>
        <time>2026-03-24T13:59:13.000Z</time>
      </trkpt>
      <trkpt lat="49.33707" lon="-0.53922">
        <ele>41.400001525879</ele>
        <time>2026-03-24T13:59:14.000Z</time>
      </trkpt>
      <trkpt lat="49.33706" lon="-0.53921">
        <ele>41.400001525879</ele>
        <time>2026-03-24T13:59:15.000Z</time>
      </trkpt>
      <trkpt lat="49.33705" lon="-0.53921">
        <ele>41.400001525879</ele>
        <time>2026-03-24T13:59:16.000Z</time>
      </trkpt>
      <trkpt lat="49.33704" lon="-0.53921">
        <ele>41.400001525879</ele>
        <time>2026-03-24T13:59:17.000Z</time>
      </trkpt>
      <trkpt lat="49.33704" lon="-0.5392">
        <ele>41.599998474121</ele>
        <time>2026-03-24T13:59:18.000Z</time>
      </trkpt>
      <trkpt lat="49.33703" lon="-0.5392">
        <ele>41.599998474121</ele>
        <time>2026-03-24T13:59:19.000Z</time>
      </trkpt>
      <trkpt lat="49.33702" lon="-0.53919">
        <ele>41.599998474121</ele>
        <time>2026-03-24T13:59:20.000Z</time>
      </trkpt>
      <trkpt lat="49.33702" lon="-0.53919">
        <ele>41.599998474121</ele>
        <time>2026-03-24T13:59:21.000Z</time>
      </trkpt>
      <trkpt lat="49.33701" lon="-0.53918">
        <ele>41.599998474121</ele>
        <time>2026-03-24T13:59:22.000Z</time>
      </trkpt>
      <trkpt lat="49.337" lon="-0.53918">
        <ele>41.599998474121</ele>
        <time>2026-03-24T13:59:23.000Z</time>
      </trkpt>
      <trkpt lat="49.33699" lon="-0.53917">
        <ele>41.599998474121</ele>
        <time>2026-03-24T13:59:24.000Z</time>
      </trkpt>
      <trkpt lat="49.33699" lon="-0.53917">
        <ele>41.599998474121</ele>
        <time>2026-03-24T13:59:25.000Z</time>
      </trkpt>
      <trkpt lat="49.33698" lon="-0.53917">
        <ele>41.599998474121</ele>
        <time>2026-03-24T13:59:26.000Z</time>
      </trkpt>
      <trkpt lat="49.33697" lon="-0.53916">
        <ele>41.599998474121</ele>
        <time>2026-03-24T13:59:27.000Z</time>
      </trkpt>
      <trkpt lat="49.33697" lon="-0.53916">
        <ele>41.599998474121</ele>
        <time>2026-03-24T13:59:28.000Z</time>
      </trkpt>
      <trkpt lat="49.33696" lon="-0.53915">
        <ele>41.599998474121</ele>
        <time>2026-03-24T13:59:29.000Z</time>
      </trkpt>
      <trkpt lat="49.33695" lon="-0.53915">
        <ele>41.599998474121</ele>
        <time>2026-03-24T13:59:30.000Z</time>
      </trkpt>
      <trkpt lat="49.33695" lon="-0.53914">
        <ele>41.599998474121</ele>
        <time>2026-03-24T13:59:31.000Z</time>
      </trkpt>
      <trkpt lat="49.33694" lon="-0.53913">
        <ele>41.799999237061</ele>
        <time>2026-03-24T13:59:32.000Z</time>
      </trkpt>
      <trkpt lat="49.33693" lon="-0.53913">
        <ele>41.799999237061</ele>
        <time>2026-03-24T13:59:33.000Z</time>
      </trkpt>
      <trkpt lat="49.33692" lon="-0.53913">
        <ele>41.799999237061</ele>
        <time>2026-03-24T13:59:34.000Z</time>
      </trkpt>
      <trkpt lat="49.33691" lon="-0.53912">
        <ele>42</ele>
        <time>2026-03-24T13:59:35.000Z</time>
      </trkpt>
      <trkpt lat="49.33688" lon="-0.53911">
        <ele>42</ele>
        <time>2026-03-24T13:59:36.000Z</time>
      </trkpt>
      <trkpt lat="49.33687" lon="-0.5391">
        <ele>42.200000762939</ele>
        <time>2026-03-24T13:59:37.000Z</time>
      </trkpt>
      <trkpt lat="49.33686" lon="-0.53909">
        <ele>42.200000762939</ele>
        <time>2026-03-24T13:59:38.000Z</time>
      </trkpt>
      <trkpt lat="49.33684" lon="-0.53909">
        <ele>42.200000762939</ele>
        <time>2026-03-24T13:59:39.000Z</time>
      </trkpt>
      <trkpt lat="49.33683" lon="-0.53908">
        <ele>42.200000762939</ele>
        <time>2026-03-24T13:59:40.000Z</time>
      </trkpt>
      <trkpt lat="49.33682" lon="-0.53907">
        <ele>42.200000762939</ele>
        <time>2026-03-24T13:59:41.000Z</time>
      </trkpt>
      <trkpt lat="49.3368" lon="-0.53907">
        <ele>42.400001525879</ele>
        <time>2026-03-24T13:59:42.000Z</time>
      </trkpt>
      <trkpt lat="49.33679" lon="-0.53906">
        <ele>42.400001525879</ele>
        <time>2026-03-24T13:59:43.000Z</time>
      </trkpt>
      <trkpt lat="49.33678" lon="-0.53905">
        <ele>42.400001525879</ele>
        <time>2026-03-24T13:59:44.000Z</time>
      </trkpt>
      <trkpt lat="49.33678" lon="-0.53905">
        <ele>42.400001525879</ele>
        <time>2026-03-24T13:59:45.000Z</time>
      </trkpt>
      <trkpt lat="49.33677" lon="-0.53904">
        <ele>42.400001525879</ele>
        <time>2026-03-24T13:59:46.000Z</time>
      </trkpt>
      <trkpt lat="49.33676" lon="-0.53903">
        <ele>42.599998474121</ele>
        <time>2026-03-24T13:59:47.000Z</time>
      </trkpt>
      <trkpt lat="49.33675" lon="-0.53903">
        <ele>42.599998474121</ele>
        <time>2026-03-24T13:59:48.000Z</time>
      </trkpt>
      <trkpt lat="49.33674" lon="-0.53902">
        <ele>42.599998474121</ele>
        <time>2026-03-24T13:59:49.000Z</time>
      </trkpt>
      <trkpt lat="49.33673" lon="-0.53902">
        <ele>42.599998474121</ele>
        <time>2026-03-24T13:59:50.000Z</time>
      </trkpt>
      <trkpt lat="49.33672" lon="-0.53901">
        <ele>42.599998474121</ele>
        <time>2026-03-24T13:59:51.000Z</time>
      </trkpt>
      <trkpt lat="49.33671" lon="-0.539">
        <ele>42.599998474121</ele>
        <time>2026-03-24T13:59:52.000Z</time>
      </trkpt>
      <trkpt lat="49.3367" lon="-0.53899">
        <ele>42.799999237061</ele>
        <time>2026-03-24T13:59:53.000Z</time>
      </trkpt>
      <trkpt lat="49.33669" lon="-0.53899">
        <ele>42.799999237061</ele>
        <time>2026-03-24T13:59:54.000Z</time>
      </trkpt>
      <trkpt lat="49.33668" lon="-0.53898">
        <ele>42.799999237061</ele>
        <time>2026-03-24T13:59:55.000Z</time>
      </trkpt>
      <trkpt lat="49.33667" lon="-0.53897">
        <ele>42.799999237061</ele>
        <time>2026-03-24T13:59:56.000Z</time>
      </trkpt>
      <trkpt lat="49.33666" lon="-0.53896">
        <ele>42.799999237061</ele>
        <time>2026-03-24T13:59:57.000Z</time>
      </trkpt>
      <trkpt lat="49.33664" lon="-0.53896">
        <ele>43</ele>
        <time>2026-03-24T13:59:58.000Z</time>
      </trkpt>
      <trkpt lat="49.33663" lon="-0.53895">
        <ele>43</ele>
        <time>2026-03-24T13:59:59.000Z</time>
      </trkpt>
      <trkpt lat="49.33662" lon="-0.53895">
        <ele>43</ele>
        <time>2026-03-24T14:00:00.000Z</time>
      </trkpt>
      <trkpt lat="49.33662" lon="-0.53894">
        <ele>43</ele>
        <time>2026-03-24T14:00:01.000Z</time>
      </trkpt>
      <trkpt lat="49.33661" lon="-0.53894">
        <ele>43</ele>
        <time>2026-03-24T14:00:02.000Z</time>
      </trkpt>
      <trkpt lat="49.3366" lon="-0.53893">
        <ele>43</ele>
        <time>2026-03-24T14:00:03.000Z</time>
      </trkpt>
      <trkpt lat="49.33659" lon="-0.53893">
        <ele>43</ele>
        <time>2026-03-24T14:00:04.000Z</time>
      </trkpt>
      <trkpt lat="49.33658" lon="-0.53892">
        <ele>43</ele>
        <time>2026-03-24T14:00:05.000Z</time>
      </trkpt>
      <trkpt lat="49.33657" lon="-0.53893">
        <ele>43</ele>
        <time>2026-03-24T14:00:06.000Z</time>
      </trkpt>
      <trkpt lat="49.33656" lon="-0.53892">
        <ele>43</ele>
        <time>2026-03-24T14:00:07.000Z</time>
      </trkpt>
      <trkpt lat="49.33655" lon="-0.53891">
        <ele>43</ele>
        <time>2026-03-24T14:00:08.000Z</time>
      </trkpt>
      <trkpt lat="49.33654" lon="-0.53891">
        <ele>43</ele>
        <time>2026-03-24T14:00:09.000Z</time>
      </trkpt>
      <trkpt lat="49.33653" lon="-0.5389">
        <ele>43</ele>
        <time>2026-03-24T14:00:10.000Z</time>
      </trkpt>
      <trkpt lat="49.33652" lon="-0.5389">
        <ele>43</ele>
        <time>2026-03-24T14:00:11.000Z</time>
      </trkpt>
      <trkpt lat="49.33651" lon="-0.53889">
        <ele>43</ele>
        <time>2026-03-24T14:00:12.000Z</time>
      </trkpt>
      <trkpt lat="49.3365" lon="-0.53888">
        <ele>43</ele>
        <time>2026-03-24T14:00:13.000Z</time>
      </trkpt>
      <trkpt lat="49.33649" lon="-0.53888">
        <ele>43</ele>
        <time>2026-03-24T14:00:14.000Z</time>
      </trkpt>
      <trkpt lat="49.33648" lon="-0.53887">
        <ele>43</ele>
        <time>2026-03-24T14:00:15.000Z</time>
      </trkpt>
      <trkpt lat="49.33647" lon="-0.53886">
        <ele>43</ele>
        <time>2026-03-24T14:00:16.000Z</time>
      </trkpt>
      <trkpt lat="49.33646" lon="-0.53886">
        <ele>43</ele>
        <time>2026-03-24T14:00:17.000Z</time>
      </trkpt>
      <trkpt lat="49.33645" lon="-0.53885">
        <ele>43</ele>
        <time>2026-03-24T14:00:18.000Z</time>
      </trkpt>
      <trkpt lat="49.33644" lon="-0.53885">
        <ele>43</ele>
        <time>2026-03-24T14:00:19.000Z</time>
      </trkpt>
      <trkpt lat="49.33643" lon="-0.53884">
        <ele>43</ele>
        <time>2026-03-24T14:00:20.000Z</time>
      </trkpt>
      <trkpt lat="49.33642" lon="-0.53884">
        <ele>43</ele>
        <time>2026-03-24T14:00:21.000Z</time>
      </trkpt>
      <trkpt lat="49.33641" lon="-0.53883">
        <ele>43</ele>
        <time>2026-03-24T14:00:22.000Z</time>
      </trkpt>
      <trkpt lat="49.3364" lon="-0.53882">
        <ele>43</ele>
        <time>2026-03-24T14:00:23.000Z</time>
      </trkpt>
      <trkpt lat="49.33639" lon="-0.53881">
        <ele>43</ele>
        <time>2026-03-24T14:00:24.000Z</time>
      </trkpt>
      <trkpt lat="49.33638" lon="-0.53881">
        <ele>43</ele>
        <time>2026-03-24T14:00:25.000Z</time>
      </trkpt>
      <trkpt lat="49.33637" lon="-0.5388">
        <ele>43</ele>
        <time>2026-03-24T14:00:26.000Z</time>
      </trkpt>
      <trkpt lat="49.33636" lon="-0.53879">
        <ele>43</ele>
        <time>2026-03-24T14:00:27.000Z</time>
      </trkpt>
      <trkpt lat="49.33636" lon="-0.53879">
        <ele>43</ele>
        <time>2026-03-24T14:00:28.000Z</time>
      </trkpt>
      <trkpt lat="49.33635" lon="-0.53878">
        <ele>43</ele>
        <time>2026-03-24T14:00:29.000Z</time>
      </trkpt>
      <trkpt lat="49.33634" lon="-0.53877">
        <ele>43</ele>
        <time>2026-03-24T14:00:30.000Z</time>
      </trkpt>
      <trkpt lat="49.33633" lon="-0.53876">
        <ele>43</ele>
        <time>2026-03-24T14:00:31.000Z</time>
      </trkpt>
      <trkpt lat="49.33632" lon="-0.53876">
        <ele>43</ele>
        <time>2026-03-24T14:00:32.000Z</time>
      </trkpt>
      <trkpt lat="49.3363" lon="-0.53875">
        <ele>43</ele>
        <time>2026-03-24T14:00:33.000Z</time>
      </trkpt>
      <trkpt lat="49.33629" lon="-0.53874">
        <ele>43</ele>
        <time>2026-03-24T14:00:34.000Z</time>
      </trkpt>
      <trkpt lat="49.33628" lon="-0.53873">
        <ele>43</ele>
        <time>2026-03-24T14:00:35.000Z</time>
      </trkpt>
      <trkpt lat="49.33627" lon="-0.53873">
        <ele>43</ele>
        <time>2026-03-24T14:00:36.000Z</time>
      </trkpt>
      <trkpt lat="49.33626" lon="-0.53872">
        <ele>43</ele>
        <time>2026-03-24T14:00:37.000Z</time>
      </trkpt>
      <trkpt lat="49.33625" lon="-0.53871">
        <ele>43</ele>
        <time>2026-03-24T14:00:38.000Z</time>
      </trkpt>
      <trkpt lat="49.33625" lon="-0.5387">
        <ele>43</ele>
        <time>2026-03-24T14:00:39.000Z</time>
      </trkpt>
      <trkpt lat="49.33624" lon="-0.53869">
        <ele>43</ele>
        <time>2026-03-24T14:00:40.000Z</time>
      </trkpt>
      <trkpt lat="49.33623" lon="-0.53868">
        <ele>43</ele>
        <time>2026-03-24T14:00:41.000Z</time>
      </trkpt>
      <trkpt lat="49.33622" lon="-0.53867">
        <ele>43</ele>
        <time>2026-03-24T14:00:42.000Z</time>
      </trkpt>
      <trkpt lat="49.3362" lon="-0.53867">
        <ele>43</ele>
        <time>2026-03-24T14:00:43.000Z</time>
      </trkpt>
      <trkpt lat="49.33619" lon="-0.53866">
        <ele>43</ele>
        <time>2026-03-24T14:00:44.000Z</time>
      </trkpt>
      <trkpt lat="49.33618" lon="-0.53865">
        <ele>43</ele>
        <time>2026-03-24T14:00:45.000Z</time>
      </trkpt>
      <trkpt lat="49.33617" lon="-0.53864">
        <ele>43</ele>
        <time>2026-03-24T14:00:46.000Z</time>
      </trkpt>
      <trkpt lat="49.33616" lon="-0.53864">
        <ele>43</ele>
        <time>2026-03-24T14:00:47.000Z</time>
      </trkpt>
      <trkpt lat="49.33615" lon="-0.53863">
        <ele>43</ele>
        <time>2026-03-24T14:00:48.000Z</time>
      </trkpt>
      <trkpt lat="49.33615" lon="-0.53862">
        <ele>43</ele>
        <time>2026-03-24T14:00:49.000Z</time>
      </trkpt>
      <trkpt lat="49.33614" lon="-0.53861">
        <ele>43</ele>
        <time>2026-03-24T14:00:50.000Z</time>
      </trkpt>
      <trkpt lat="49.33613" lon="-0.5386">
        <ele>43</ele>
        <time>2026-03-24T14:00:51.000Z</time>
      </trkpt>
      <trkpt lat="49.33612" lon="-0.53859">
        <ele>43</ele>
        <time>2026-03-24T14:00:52.000Z</time>
      </trkpt>
      <trkpt lat="49.33611" lon="-0.53859">
        <ele>43</ele>
        <time>2026-03-24T14:00:53.000Z</time>
      </trkpt>
      <trkpt lat="49.3361" lon="-0.53858">
        <ele>43</ele>
        <time>2026-03-24T14:00:54.000Z</time>
      </trkpt>
      <trkpt lat="49.33609" lon="-0.53857">
        <ele>43</ele>
        <time>2026-03-24T14:00:55.000Z</time>
      </trkpt>
      <trkpt lat="49.33608" lon="-0.53856">
        <ele>43</ele>
        <time>2026-03-24T14:00:56.000Z</time>
      </trkpt>
      <trkpt lat="49.33607" lon="-0.53855">
        <ele>43</ele>
        <time>2026-03-24T14:00:57.000Z</time>
      </trkpt>
      <trkpt lat="49.33606" lon="-0.53854">
        <ele>43</ele>
        <time>2026-03-24T14:00:58.000Z</time>
      </trkpt>
      <trkpt lat="49.33605" lon="-0.53853">
        <ele>43</ele>
        <time>2026-03-24T14:00:59.000Z</time>
      </trkpt>
      <trkpt lat="49.33604" lon="-0.53853">
        <ele>43</ele>
        <time>2026-03-24T14:01:00.000Z</time>
      </trkpt>
      <trkpt lat="49.33603" lon="-0.53852">
        <ele>43</ele>
        <time>2026-03-24T14:01:01.000Z</time>
      </trkpt>
      <trkpt lat="49.33602" lon="-0.53851">
        <ele>43</ele>
        <time>2026-03-24T14:01:02.000Z</time>
      </trkpt>
      <trkpt lat="49.33601" lon="-0.5385">
        <ele>43</ele>
        <time>2026-03-24T14:01:03.000Z</time>
      </trkpt>
      <trkpt lat="49.336" lon="-0.53849">
        <ele>43</ele>
        <time>2026-03-24T14:01:04.000Z</time>
      </trkpt>
      <trkpt lat="49.33599" lon="-0.53848">
        <ele>43</ele>
        <time>2026-03-24T14:01:05.000Z</time>
      </trkpt>
      <trkpt lat="49.33598" lon="-0.53847">
        <ele>43</ele>
        <time>2026-03-24T14:01:06.000Z</time>
      </trkpt>
      <trkpt lat="49.33597" lon="-0.53846">
        <ele>43</ele>
        <time>2026-03-24T14:01:07.000Z</time>
      </trkpt>
      <trkpt lat="49.33596" lon="-0.53845">
        <ele>43</ele>
        <time>2026-03-24T14:01:08.000Z</time>
      </trkpt>
      <trkpt lat="49.33595" lon="-0.53845">
        <ele>43</ele>
        <time>2026-03-24T14:01:09.000Z</time>
      </trkpt>
      <trkpt lat="49.33595" lon="-0.53844">
        <ele>43</ele>
        <time>2026-03-24T14:01:10.000Z</time>
      </trkpt>
      <trkpt lat="49.33594" lon="-0.53843">
        <ele>42.799999237061</ele>
        <time>2026-03-24T14:01:11.000Z</time>
      </trkpt>
      <trkpt lat="49.33593" lon="-0.53842">
        <ele>42.799999237061</ele>
        <time>2026-03-24T14:01:12.000Z</time>
      </trkpt>
      <trkpt lat="49.33592" lon="-0.53841">
        <ele>42.799999237061</ele>
        <time>2026-03-24T14:01:13.000Z</time>
      </trkpt>
      <trkpt lat="49.33591" lon="-0.5384">
        <ele>42.599998474121</ele>
        <time>2026-03-24T14:01:14.000Z</time>
      </trkpt>
      <trkpt lat="49.3359" lon="-0.53839">
        <ele>42.599998474121</ele>
        <time>2026-03-24T14:01:15.000Z</time>
      </trkpt>
      <trkpt lat="49.33589" lon="-0.53838">
        <ele>42.400001525879</ele>
        <time>2026-03-24T14:01:16.000Z</time>
      </trkpt>
      <trkpt lat="49.33588" lon="-0.53837">
        <ele>42.400001525879</ele>
        <time>2026-03-24T14:01:17.000Z</time>
      </trkpt>
      <trkpt lat="49.33587" lon="-0.53836">
        <ele>42.400001525879</ele>
        <time>2026-03-24T14:01:18.000Z</time>
      </trkpt>
      <trkpt lat="49.33586" lon="-0.53835">
        <ele>42.200000762939</ele>
        <time>2026-03-24T14:01:19.000Z</time>
      </trkpt>
      <trkpt lat="49.33585" lon="-0.53834">
        <ele>42.200000762939</ele>
        <time>2026-03-24T14:01:20.000Z</time>
      </trkpt>
      <trkpt lat="49.33585" lon="-0.53833">
        <ele>42.200000762939</ele>
        <time>2026-03-24T14:01:21.000Z</time>
      </trkpt>
      <trkpt lat="49.33584" lon="-0.53832">
        <ele>42</ele>
        <time>2026-03-24T14:01:22.000Z</time>
      </trkpt>
      <trkpt lat="49.33583" lon="-0.53831">
        <ele>42</ele>
        <time>2026-03-24T14:01:23.000Z</time>
      </trkpt>
      <trkpt lat="49.33582" lon="-0.53831">
        <ele>42</ele>
        <time>2026-03-24T14:01:24.000Z</time>
      </trkpt>
      <trkpt lat="49.33581" lon="-0.5383">
        <ele>42</ele>
        <time>2026-03-24T14:01:25.000Z</time>
      </trkpt>
      <trkpt lat="49.3358" lon="-0.53829">
        <ele>42</ele>
        <time>2026-03-24T14:01:26.000Z</time>
      </trkpt>
      <trkpt lat="49.3358" lon="-0.53827">
        <ele>42</ele>
        <time>2026-03-24T14:01:27.000Z</time>
      </trkpt>
      <trkpt lat="49.33579" lon="-0.53826">
        <ele>42</ele>
        <time>2026-03-24T14:01:28.000Z</time>
      </trkpt>
      <trkpt lat="49.33578" lon="-0.53825">
        <ele>42</ele>
        <time>2026-03-24T14:01:29.000Z</time>
      </trkpt>
      <trkpt lat="49.33577" lon="-0.53824">
        <ele>42</ele>
        <time>2026-03-24T14:01:30.000Z</time>
      </trkpt>
      <trkpt lat="49.33576" lon="-0.53823">
        <ele>42</ele>
        <time>2026-03-24T14:01:31.000Z</time>
      </trkpt>
      <trkpt lat="49.33575" lon="-0.53822">
        <ele>42.200000762939</ele>
        <time>2026-03-24T14:01:32.000Z</time>
      </trkpt>
      <trkpt lat="49.33574" lon="-0.53821">
        <ele>42.200000762939</ele>
        <time>2026-03-24T14:01:33.000Z</time>
      </trkpt>
      <trkpt lat="49.33574" lon="-0.5382">
        <ele>42.200000762939</ele>
        <time>2026-03-24T14:01:34.000Z</time>
      </trkpt>
      <trkpt lat="49.33573" lon="-0.53819">
        <ele>42.200000762939</ele>
        <time>2026-03-24T14:01:35.000Z</time>
      </trkpt>
      <trkpt lat="49.33572" lon="-0.53818">
        <ele>42.200000762939</ele>
        <time>2026-03-24T14:01:36.000Z</time>
      </trkpt>
      <trkpt lat="49.33571" lon="-0.53817">
        <ele>42.200000762939</ele>
        <time>2026-03-24T14:01:37.000Z</time>
      </trkpt>
      <trkpt lat="49.3357" lon="-0.53816">
        <ele>42.400001525879</ele>
        <time>2026-03-24T14:01:38.000Z</time>
      </trkpt>
      <trkpt lat="49.3357" lon="-0.53815">
        <ele>42.400001525879</ele>
        <time>2026-03-24T14:01:39.000Z</time>
      </trkpt>
      <trkpt lat="49.33569" lon="-0.53814">
        <ele>42.400001525879</ele>
        <time>2026-03-24T14:01:40.000Z</time>
      </trkpt>
      <trkpt lat="49.33568" lon="-0.53813">
        <ele>42.400001525879</ele>
        <time>2026-03-24T14:01:41.000Z</time>
      </trkpt>
      <trkpt lat="49.33567" lon="-0.53812">
        <ele>42.400001525879</ele>
        <time>2026-03-24T14:01:42.000Z</time>
      </trkpt>
      <trkpt lat="49.33567" lon="-0.53811">
        <ele>42.400001525879</ele>
        <time>2026-03-24T14:01:43.000Z</time>
      </trkpt>
      <trkpt lat="49.33566" lon="-0.53809">
        <ele>42.400001525879</ele>
        <time>2026-03-24T14:01:44.000Z</time>
      </trkpt>
      <trkpt lat="49.33565" lon="-0.53808">
        <ele>42.400001525879</ele>
        <time>2026-03-24T14:01:45.000Z</time>
      </trkpt>
      <trkpt lat="49.33564" lon="-0.53807">
        <ele>42.599998474121</ele>
        <time>2026-03-24T14:01:46.000Z</time>
      </trkpt>
      <trkpt lat="49.33564" lon="-0.53806">
        <ele>42.599998474121</ele>
        <time>2026-03-24T14:01:47.000Z</time>
      </trkpt>
      <trkpt lat="49.33563" lon="-0.53804">
        <ele>42.599998474121</ele>
        <time>2026-03-24T14:01:48.000Z</time>
      </trkpt>
      <trkpt lat="49.33563" lon="-0.53803">
        <ele>42.599998474121</ele>
        <time>2026-03-24T14:01:49.000Z</time>
      </trkpt>
      <trkpt lat="49.33562" lon="-0.53802">
        <ele>42.599998474121</ele>
        <time>2026-03-24T14:01:50.000Z</time>
      </trkpt>
      <trkpt lat="49.33562" lon="-0.53801">
        <ele>42.599998474121</ele>
        <time>2026-03-24T14:01:51.000Z</time>
      </trkpt>
      <trkpt lat="49.33561" lon="-0.53799">
        <ele>42.599998474121</ele>
        <time>2026-03-24T14:01:52.000Z</time>
      </trkpt>
      <trkpt lat="49.33561" lon="-0.53798">
        <ele>42.599998474121</ele>
        <time>2026-03-24T14:01:53.000Z</time>
      </trkpt>
      <trkpt lat="49.3356" lon="-0.53796">
        <ele>42.599998474121</ele>
        <time>2026-03-24T14:01:54.000Z</time>
      </trkpt>
      <trkpt lat="49.33559" lon="-0.53795">
        <ele>42.599998474121</ele>
        <time>2026-03-24T14:01:55.000Z</time>
      </trkpt>
      <trkpt lat="49.33559" lon="-0.53794">
        <ele>42.599998474121</ele>
        <time>2026-03-24T14:01:56.000Z</time>
      </trkpt>
      <trkpt lat="49.33558" lon="-0.53793">
        <ele>42.400001525879</ele>
        <time>2026-03-24T14:01:57.000Z</time>
      </trkpt>
      <trkpt lat="49.33557" lon="-0.53791">
        <ele>42.400001525879</ele>
        <time>2026-03-24T14:01:58.000Z</time>
      </trkpt>
      <trkpt lat="49.33557" lon="-0.5379">
        <ele>42.400001525879</ele>
        <time>2026-03-24T14:01:59.000Z</time>
      </trkpt>
      <trkpt lat="49.33556" lon="-0.53788">
        <ele>42.400001525879</ele>
        <time>2026-03-24T14:02:00.000Z</time>
      </trkpt>
      <trkpt lat="49.33556" lon="-0.53787">
        <ele>42.200000762939</ele>
        <time>2026-03-24T14:02:01.000Z</time>
      </trkpt>
      <trkpt lat="49.33555" lon="-0.53785">
        <ele>42.200000762939</ele>
        <time>2026-03-24T14:02:02.000Z</time>
      </trkpt>
      <trkpt lat="49.33555" lon="-0.53784">
        <ele>42.200000762939</ele>
        <time>2026-03-24T14:02:03.000Z</time>
      </trkpt>
      <trkpt lat="49.33554" lon="-0.53782">
        <ele>42.200000762939</ele>
        <time>2026-03-24T14:02:04.000Z</time>
      </trkpt>
      <trkpt lat="49.33553" lon="-0.5378">
        <ele>42</ele>
        <time>2026-03-24T14:02:05.000Z</time>
      </trkpt>
      <trkpt lat="49.33553" lon="-0.53779">
        <ele>42</ele>
        <time>2026-03-24T14:02:06.000Z</time>
      </trkpt>
      <trkpt lat="49.33552" lon="-0.53777">
        <ele>42</ele>
        <time>2026-03-24T14:02:07.000Z</time>
      </trkpt>
      <trkpt lat="49.33551" lon="-0.53776">
        <ele>42.200000762939</ele>
        <time>2026-03-24T14:02:08.000Z</time>
      </trkpt>
      <trkpt lat="49.3355" lon="-0.53774">
        <ele>42.200000762939</ele>
        <time>2026-03-24T14:02:09.000Z</time>
      </trkpt>
      <trkpt lat="49.3355" lon="-0.53772">
        <ele>42.400001525879</ele>
        <time>2026-03-24T14:02:10.000Z</time>
      </trkpt>
      <trkpt lat="49.33549" lon="-0.53771">
        <ele>42.400001525879</ele>
        <time>2026-03-24T14:02:11.000Z</time>
      </trkpt>
      <trkpt lat="49.33549" lon="-0.53769">
        <ele>42.599998474121</ele>
        <time>2026-03-24T14:02:12.000Z</time>
      </trkpt>
      <trkpt lat="49.33548" lon="-0.53768">
        <ele>42.599998474121</ele>
        <time>2026-03-24T14:02:13.000Z</time>
      </trkpt>
      <trkpt lat="49.33548" lon="-0.53767">
        <ele>42.599998474121</ele>
        <time>2026-03-24T14:02:14.000Z</time>
      </trkpt>
      <trkpt lat="49.33547" lon="-0.53765">
        <ele>42.799999237061</ele>
        <time>2026-03-24T14:02:15.000Z</time>
      </trkpt>
      <trkpt lat="49.33547" lon="-0.53764">
        <ele>42.799999237061</ele>
        <time>2026-03-24T14:02:16.000Z</time>
      </trkpt>
      <trkpt lat="49.33546" lon="-0.53762">
        <ele>43</ele>
        <time>2026-03-24T14:02:17.000Z</time>
      </trkpt>
      <trkpt lat="49.33546" lon="-0.53761">
        <ele>43</ele>
        <time>2026-03-24T14:02:18.000Z</time>
      </trkpt>
      <trkpt lat="49.33545" lon="-0.53759">
        <ele>43.200000762939</ele>
        <time>2026-03-24T14:02:19.000Z</time>
      </trkpt>
      <trkpt lat="49.33544" lon="-0.53758">
        <ele>43.200000762939</ele>
        <time>2026-03-24T14:02:20.000Z</time>
      </trkpt>
      <trkpt lat="49.33544" lon="-0.53756">
        <ele>43.200000762939</ele>
        <time>2026-03-24T14:02:21.000Z</time>
      </trkpt>
      <trkpt lat="49.33543" lon="-0.53754">
        <ele>43.200000762939</ele>
        <time>2026-03-24T14:02:22.000Z</time>
      </trkpt>
      <trkpt lat="49.33543" lon="-0.53753">
        <ele>43</ele>
        <time>2026-03-24T14:02:23.000Z</time>
      </trkpt>
      <trkpt lat="49.33542" lon="-0.53752">
        <ele>43</ele>
        <time>2026-03-24T14:02:24.000Z</time>
      </trkpt>
      <trkpt lat="49.33541" lon="-0.5375">
        <ele>43</ele>
        <time>2026-03-24T14:02:25.000Z</time>
      </trkpt>
      <trkpt lat="49.33541" lon="-0.53749">
        <ele>43</ele>
        <time>2026-03-24T14:02:26.000Z</time>
      </trkpt>
      <trkpt lat="49.3354" lon="-0.53748">
        <ele>43</ele>
        <time>2026-03-24T14:02:27.000Z</time>
      </trkpt>
      <trkpt lat="49.3354" lon="-0.53746">
        <ele>43</ele>
        <time>2026-03-24T14:02:28.000Z</time>
      </trkpt>
      <trkpt lat="49.33539" lon="-0.53745">
        <ele>43</ele>
        <time>2026-03-24T14:02:29.000Z</time>
      </trkpt>
      <trkpt lat="49.33539" lon="-0.53743">
        <ele>43</ele>
        <time>2026-03-24T14:02:30.000Z</time>
      </trkpt>
      <trkpt lat="49.33538" lon="-0.53742">
        <ele>43</ele>
        <time>2026-03-24T14:02:31.000Z</time>
      </trkpt>
      <trkpt lat="49.33537" lon="-0.5374">
        <ele>43</ele>
        <time>2026-03-24T14:02:32.000Z</time>
      </trkpt>
      <trkpt lat="49.33537" lon="-0.53739">
        <ele>43</ele>
        <time>2026-03-24T14:02:33.000Z</time>
      </trkpt>
      <trkpt lat="49.33536" lon="-0.53737">
        <ele>43</ele>
        <time>2026-03-24T14:02:34.000Z</time>
      </trkpt>
      <trkpt lat="49.33536" lon="-0.53736">
        <ele>43</ele>
        <time>2026-03-24T14:02:35.000Z</time>
      </trkpt>
      <trkpt lat="49.33536" lon="-0.53734">
        <ele>43</ele>
        <time>2026-03-24T14:02:36.000Z</time>
      </trkpt>
      <trkpt lat="49.33535" lon="-0.53733">
        <ele>43</ele>
        <time>2026-03-24T14:02:37.000Z</time>
      </trkpt>
      <trkpt lat="49.33535" lon="-0.53733">
        <ele>43</ele>
        <time>2026-03-24T14:02:38.000Z</time>
      </trkpt>
      <trkpt lat="49.33534" lon="-0.53733">
        <ele>43</ele>
        <time>2026-03-24T14:02:39.000Z</time>
      </trkpt>
      <trkpt lat="49.33534" lon="-0.53733">
        <ele>43</ele>
        <time>2026-03-24T14:02:40.000Z</time>
      </trkpt>
      <trkpt lat="49.33533" lon="-0.53732">
        <ele>43</ele>
        <time>2026-03-24T14:02:41.000Z</time>
      </trkpt>
      <trkpt lat="49.33533" lon="-0.53732">
        <ele>43</ele>
        <time>2026-03-24T14:02:42.000Z</time>
      </trkpt>
      <trkpt lat="49.33533" lon="-0.53731">
        <ele>43</ele>
        <time>2026-03-24T14:02:43.000Z</time>
      </trkpt>
      <trkpt lat="49.33532" lon="-0.5373">
        <ele>43</ele>
        <time>2026-03-24T14:02:44.000Z</time>
      </trkpt>
      <trkpt lat="49.33532" lon="-0.53729">
        <ele>43</ele>
        <time>2026-03-24T14:02:45.000Z</time>
      </trkpt>
      <trkpt lat="49.33531" lon="-0.53728">
        <ele>43</ele>
        <time>2026-03-24T14:02:46.000Z</time>
      </trkpt>
      <trkpt lat="49.33531" lon="-0.53727">
        <ele>43</ele>
        <time>2026-03-24T14:02:47.000Z</time>
      </trkpt>
      <trkpt lat="49.3353" lon="-0.53726">
        <ele>43</ele>
        <time>2026-03-24T14:02:48.000Z</time>
      </trkpt>
      <trkpt lat="49.3353" lon="-0.53725">
        <ele>43</ele>
        <time>2026-03-24T14:02:49.000Z</time>
      </trkpt>
      <trkpt lat="49.3353" lon="-0.53724">
        <ele>43</ele>
        <time>2026-03-24T14:02:50.000Z</time>
      </trkpt>
      <trkpt lat="49.33529" lon="-0.53723">
        <ele>43</ele>
        <time>2026-03-24T14:02:51.000Z</time>
      </trkpt>
      <trkpt lat="49.33528" lon="-0.53721">
        <ele>43</ele>
        <time>2026-03-24T14:02:52.000Z</time>
      </trkpt>
      <trkpt lat="49.33528" lon="-0.53719">
        <ele>42.799999237061</ele>
        <time>2026-03-24T14:02:53.000Z</time>
      </trkpt>
      <trkpt lat="49.33527" lon="-0.53718">
        <ele>42.799999237061</ele>
        <time>2026-03-24T14:02:54.000Z</time>
      </trkpt>
      <trkpt lat="49.33527" lon="-0.53716">
        <ele>42.799999237061</ele>
        <time>2026-03-24T14:02:55.000Z</time>
      </trkpt>
      <trkpt lat="49.33527" lon="-0.53715">
        <ele>42.599998474121</ele>
        <time>2026-03-24T14:02:56.000Z</time>
      </trkpt>
      <trkpt lat="49.33527" lon="-0.53713">
        <ele>42.599998474121</ele>
        <time>2026-03-24T14:02:57.000Z</time>
      </trkpt>
      <trkpt lat="49.33526" lon="-0.53712">
        <ele>42.599998474121</ele>
        <time>2026-03-24T14:02:58.000Z</time>
      </trkpt>
      <trkpt lat="49.33526" lon="-0.53711">
        <ele>42.599998474121</ele>
        <time>2026-03-24T14:02:59.000Z</time>
      </trkpt>
      <trkpt lat="49.33526" lon="-0.5371">
        <ele>42.599998474121</ele>
        <time>2026-03-24T14:03:00.000Z</time>
      </trkpt>
      <trkpt lat="49.33525" lon="-0.53709">
        <ele>42.400001525879</ele>
        <time>2026-03-24T14:03:01.000Z</time>
      </trkpt>
      <trkpt lat="49.33525" lon="-0.53707">
        <ele>42.400001525879</ele>
        <time>2026-03-24T14:03:02.000Z</time>
      </trkpt>
      <trkpt lat="49.33524" lon="-0.53706">
        <ele>42.400001525879</ele>
        <time>2026-03-24T14:03:03.000Z</time>
      </trkpt>
      <trkpt lat="49.33524" lon="-0.53705">
        <ele>42.400001525879</ele>
        <time>2026-03-24T14:03:04.000Z</time>
      </trkpt>
      <trkpt lat="49.33523" lon="-0.53703">
        <ele>42.200000762939</ele>
        <time>2026-03-24T14:03:05.000Z</time>
      </trkpt>
      <trkpt lat="49.33523" lon="-0.53702">
        <ele>42.200000762939</ele>
        <time>2026-03-24T14:03:06.000Z</time>
      </trkpt>
      <trkpt lat="49.33522" lon="-0.53701">
        <ele>42.200000762939</ele>
        <time>2026-03-24T14:03:07.000Z</time>
      </trkpt>
      <trkpt lat="49.33522" lon="-0.53699">
        <ele>42.200000762939</ele>
        <time>2026-03-24T14:03:08.000Z</time>
      </trkpt>
      <trkpt lat="49.33522" lon="-0.53698">
        <ele>42.200000762939</ele>
        <time>2026-03-24T14:03:09.000Z</time>
      </trkpt>
      <trkpt lat="49.33521" lon="-0.53696">
        <ele>42</ele>
        <time>2026-03-24T14:03:10.000Z</time>
      </trkpt>
      <trkpt lat="49.33521" lon="-0.53695">
        <ele>42</ele>
        <time>2026-03-24T14:03:11.000Z</time>
      </trkpt>
      <trkpt lat="49.33521" lon="-0.53693">
        <ele>42</ele>
        <time>2026-03-24T14:03:12.000Z</time>
      </trkpt>
      <trkpt lat="49.33521" lon="-0.53692">
        <ele>42</ele>
        <time>2026-03-24T14:03:13.000Z</time>
      </trkpt>
      <trkpt lat="49.33521" lon="-0.5369">
        <ele>42</ele>
        <time>2026-03-24T14:03:14.000Z</time>
      </trkpt>
      <trkpt lat="49.3352" lon="-0.53689">
        <ele>42.200000762939</ele>
        <time>2026-03-24T14:03:15.000Z</time>
      </trkpt>
      <trkpt lat="49.3352" lon="-0.53688">
        <ele>42.200000762939</ele>
        <time>2026-03-24T14:03:16.000Z</time>
      </trkpt>
      <trkpt lat="49.3352" lon="-0.53686">
        <ele>42.200000762939</ele>
        <time>2026-03-24T14:03:17.000Z</time>
      </trkpt>
      <trkpt lat="49.33519" lon="-0.53685">
        <ele>42.200000762939</ele>
        <time>2026-03-24T14:03:18.000Z</time>
      </trkpt>
      <trkpt lat="49.33519" lon="-0.53683">
        <ele>42.200000762939</ele>
        <time>2026-03-24T14:03:19.000Z</time>
      </trkpt>
      <trkpt lat="49.33518" lon="-0.53682">
        <ele>42.200000762939</ele>
        <time>2026-03-24T14:03:20.000Z</time>
      </trkpt>
      <trkpt lat="49.33517" lon="-0.5368">
        <ele>42.200000762939</ele>
        <time>2026-03-24T14:03:21.000Z</time>
      </trkpt>
      <trkpt lat="49.33517" lon="-0.53679">
        <ele>42.200000762939</ele>
        <time>2026-03-24T14:03:22.000Z</time>
      </trkpt>
      <trkpt lat="49.33516" lon="-0.53677">
        <ele>42.200000762939</ele>
        <time>2026-03-24T14:03:23.000Z</time>
      </trkpt>
      <trkpt lat="49.33515" lon="-0.53676">
        <ele>42.200000762939</ele>
        <time>2026-03-24T14:03:24.000Z</time>
      </trkpt>
      <trkpt lat="49.33515" lon="-0.53674">
        <ele>42.200000762939</ele>
        <time>2026-03-24T14:03:25.000Z</time>
      </trkpt>
      <trkpt lat="49.33515" lon="-0.53673">
        <ele>42.400001525879</ele>
        <time>2026-03-24T14:03:26.000Z</time>
      </trkpt>
      <trkpt lat="49.33514" lon="-0.53671">
        <ele>42.400001525879</ele>
        <time>2026-03-24T14:03:27.000Z</time>
      </trkpt>
      <trkpt lat="49.33513" lon="-0.5367">
        <ele>42.400001525879</ele>
        <time>2026-03-24T14:03:28.000Z</time>
      </trkpt>
      <trkpt lat="49.33513" lon="-0.53668">
        <ele>42.400001525879</ele>
        <time>2026-03-24T14:03:29.000Z</time>
      </trkpt>
      <trkpt lat="49.33512" lon="-0.53667">
        <ele>42.400001525879</ele>
        <time>2026-03-24T14:03:30.000Z</time>
      </trkpt>
      <trkpt lat="49.33512" lon="-0.53665">
        <ele>42.400001525879</ele>
        <time>2026-03-24T14:03:31.000Z</time>
      </trkpt>
      <trkpt lat="49.33511" lon="-0.53663">
        <ele>42.400001525879</ele>
        <time>2026-03-24T14:03:32.000Z</time>
      </trkpt>
      <trkpt lat="49.33511" lon="-0.53662">
        <ele>42.400001525879</ele>
        <time>2026-03-24T14:03:33.000Z</time>
      </trkpt>
      <trkpt lat="49.3351" lon="-0.5366">
        <ele>42.400001525879</ele>
        <time>2026-03-24T14:03:34.000Z</time>
      </trkpt>
      <trkpt lat="49.33509" lon="-0.53659">
        <ele>42.599998474121</ele>
        <time>2026-03-24T14:03:35.000Z</time>
      </trkpt>
      <trkpt lat="49.33509" lon="-0.53657">
        <ele>42.599998474121</ele>
        <time>2026-03-24T14:03:36.000Z</time>
      </trkpt>
      <trkpt lat="49.33508" lon="-0.53656">
        <ele>42.599998474121</ele>
        <time>2026-03-24T14:03:37.000Z</time>
      </trkpt>
      <trkpt lat="49.33507" lon="-0.53654">
        <ele>42.599998474121</ele>
        <time>2026-03-24T14:03:38.000Z</time>
      </trkpt>
      <trkpt lat="49.33506" lon="-0.53652">
        <ele>42.599998474121</ele>
        <time>2026-03-24T14:03:39.000Z</time>
      </trkpt>
      <trkpt lat="49.33506" lon="-0.53651">
        <ele>42.599998474121</ele>
        <time>2026-03-24T14:03:40.000Z</time>
      </trkpt>
      <trkpt lat="49.33505" lon="-0.53649">
        <ele>42.599998474121</ele>
        <time>2026-03-24T14:03:41.000Z</time>
      </trkpt>
      <trkpt lat="49.33505" lon="-0.53648">
        <ele>42.599998474121</ele>
        <time>2026-03-24T14:03:42.000Z</time>
      </trkpt>
      <trkpt lat="49.33505" lon="-0.53646">
        <ele>42.599998474121</ele>
        <time>2026-03-24T14:03:43.000Z</time>
      </trkpt>
      <trkpt lat="49.33504" lon="-0.53644">
        <ele>42.599998474121</ele>
        <time>2026-03-24T14:03:44.000Z</time>
      </trkpt>
      <trkpt lat="49.33504" lon="-0.53643">
        <ele>42.599998474121</ele>
        <time>2026-03-24T14:03:45.000Z</time>
      </trkpt>
      <trkpt lat="49.33504" lon="-0.53642">
        <ele>42.799999237061</ele>
        <time>2026-03-24T14:03:46.000Z</time>
      </trkpt>
      <trkpt lat="49.33503" lon="-0.5364">
        <ele>42.799999237061</ele>
        <time>2026-03-24T14:03:47.000Z</time>
      </trkpt>
      <trkpt lat="49.33503" lon="-0.53639">
        <ele>42.799999237061</ele>
        <time>2026-03-24T14:03:48.000Z</time>
      </trkpt>
      <trkpt lat="49.33502" lon="-0.53638">
        <ele>42.799999237061</ele>
        <time>2026-03-24T14:03:49.000Z</time>
      </trkpt>
      <trkpt lat="49.33502" lon="-0.53636">
        <ele>42.799999237061</ele>
        <time>2026-03-24T14:03:50.000Z</time>
      </trkpt>
      <trkpt lat="49.33502" lon="-0.53635">
        <ele>42.799999237061</ele>
        <time>2026-03-24T14:03:51.000Z</time>
      </trkpt>
      <trkpt lat="49.33502" lon="-0.53633">
        <ele>42.799999237061</ele>
        <time>2026-03-24T14:03:52.000Z</time>
      </trkpt>
      <trkpt lat="49.33501" lon="-0.53632">
        <ele>42.799999237061</ele>
        <time>2026-03-24T14:03:53.000Z</time>
      </trkpt>
      <trkpt lat="49.33501" lon="-0.5363">
        <ele>42.799999237061</ele>
        <time>2026-03-24T14:03:54.000Z</time>
      </trkpt>
      <trkpt lat="49.33501" lon="-0.53629">
        <ele>42.799999237061</ele>
        <time>2026-03-24T14:03:55.000Z</time>
      </trkpt>
      <trkpt lat="49.335" lon="-0.53628">
        <ele>42.799999237061</ele>
        <time>2026-03-24T14:03:56.000Z</time>
      </trkpt>
      <trkpt lat="49.335" lon="-0.53627">
        <ele>42.799999237061</ele>
        <time>2026-03-24T14:03:57.000Z</time>
      </trkpt>
      <trkpt lat="49.33499" lon="-0.53626">
        <ele>42.799999237061</ele>
        <time>2026-03-24T14:03:58.000Z</time>
      </trkpt>
      <trkpt lat="49.33499" lon="-0.53624">
        <ele>42.799999237061</ele>
        <time>2026-03-24T14:03:59.000Z</time>
      </trkpt>
      <trkpt lat="49.33498" lon="-0.53623">
        <ele>42.799999237061</ele>
        <time>2026-03-24T14:04:00.000Z</time>
      </trkpt>
      <trkpt lat="49.33498" lon="-0.53621">
        <ele>43</ele>
        <time>2026-03-24T14:04:01.000Z</time>
      </trkpt>
      <trkpt lat="49.33497" lon="-0.5362">
        <ele>43</ele>
        <time>2026-03-24T14:04:02.000Z</time>
      </trkpt>
      <trkpt lat="49.33497" lon="-0.53619">
        <ele>43</ele>
        <time>2026-03-24T14:04:03.000Z</time>
      </trkpt>
      <trkpt lat="49.33496" lon="-0.53617">
        <ele>43</ele>
        <time>2026-03-24T14:04:04.000Z</time>
      </trkpt>
      <trkpt lat="49.33496" lon="-0.53616">
        <ele>43</ele>
        <time>2026-03-24T14:04:05.000Z</time>
      </trkpt>
      <trkpt lat="49.33495" lon="-0.53614">
        <ele>43</ele>
        <time>2026-03-24T14:04:06.000Z</time>
      </trkpt>
      <trkpt lat="49.33495" lon="-0.53613">
        <ele>43</ele>
        <time>2026-03-24T14:04:07.000Z</time>
      </trkpt>
      <trkpt lat="49.33494" lon="-0.53611">
        <ele>43</ele>
        <time>2026-03-24T14:04:08.000Z</time>
      </trkpt>
      <trkpt lat="49.33493" lon="-0.5361">
        <ele>43</ele>
        <time>2026-03-24T14:04:09.000Z</time>
      </trkpt>
      <trkpt lat="49.33493" lon="-0.53608">
        <ele>43.200000762939</ele>
        <time>2026-03-24T14:04:10.000Z</time>
      </trkpt>
      <trkpt lat="49.33492" lon="-0.53607">
        <ele>43.200000762939</ele>
        <time>2026-03-24T14:04:11.000Z</time>
      </trkpt>
      <trkpt lat="49.33491" lon="-0.53605">
        <ele>43.200000762939</ele>
        <time>2026-03-24T14:04:12.000Z</time>
      </trkpt>
      <trkpt lat="49.3349" lon="-0.53603">
        <ele>43.200000762939</ele>
        <time>2026-03-24T14:04:13.000Z</time>
      </trkpt>
      <trkpt lat="49.33489" lon="-0.53602">
        <ele>43.200000762939</ele>
        <time>2026-03-24T14:04:14.000Z</time>
      </trkpt>
      <trkpt lat="49.33489" lon="-0.53601">
        <ele>43.200000762939</ele>
        <time>2026-03-24T14:04:15.000Z</time>
      </trkpt>
      <trkpt lat="49.33488" lon="-0.53599">
        <ele>43.200000762939</ele>
        <time>2026-03-24T14:04:16.000Z</time>
      </trkpt>
      <trkpt lat="49.33487" lon="-0.53598">
        <ele>43.200000762939</ele>
        <time>2026-03-24T14:04:17.000Z</time>
      </trkpt>
      <trkpt lat="49.33487" lon="-0.53597">
        <ele>43.400001525879</ele>
        <time>2026-03-24T14:04:18.000Z</time>
      </trkpt>
      <trkpt lat="49.33486" lon="-0.53595">
        <ele>43.400001525879</ele>
        <time>2026-03-24T14:04:19.000Z</time>
      </trkpt>
      <trkpt lat="49.33485" lon="-0.53594">
        <ele>43.400001525879</ele>
        <time>2026-03-24T14:04:20.000Z</time>
      </trkpt>
      <trkpt lat="49.33485" lon="-0.53593">
        <ele>43.200000762939</ele>
        <time>2026-03-24T14:04:21.000Z</time>
      </trkpt>
      <trkpt lat="49.33484" lon="-0.53591">
        <ele>43.200000762939</ele>
        <time>2026-03-24T14:04:22.000Z</time>
      </trkpt>
      <trkpt lat="49.33483" lon="-0.5359">
        <ele>43.200000762939</ele>
        <time>2026-03-24T14:04:23.000Z</time>
      </trkpt>
      <trkpt lat="49.33482" lon="-0.53589">
        <ele>43.200000762939</ele>
        <time>2026-03-24T14:04:24.000Z</time>
      </trkpt>
      <trkpt lat="49.33482" lon="-0.53588">
        <ele>43.200000762939</ele>
        <time>2026-03-24T14:04:25.000Z</time>
      </trkpt>
      <trkpt lat="49.33481" lon="-0.53587">
        <ele>43</ele>
        <time>2026-03-24T14:04:26.000Z</time>
      </trkpt>
      <trkpt lat="49.33481" lon="-0.53586">
        <ele>43</ele>
        <time>2026-03-24T14:04:27.000Z</time>
      </trkpt>
      <trkpt lat="49.3348" lon="-0.53584">
        <ele>43</ele>
        <time>2026-03-24T14:04:28.000Z</time>
      </trkpt>
      <trkpt lat="49.33479" lon="-0.53583">
        <ele>43</ele>
        <time>2026-03-24T14:04:29.000Z</time>
      </trkpt>
      <trkpt lat="49.33479" lon="-0.53582">
        <ele>43</ele>
        <time>2026-03-24T14:04:30.000Z</time>
      </trkpt>
      <trkpt lat="49.33478" lon="-0.53581">
        <ele>42.799999237061</ele>
        <time>2026-03-24T14:04:31.000Z</time>
      </trkpt>
      <trkpt lat="49.33477" lon="-0.53579">
        <ele>42.799999237061</ele>
        <time>2026-03-24T14:04:32.000Z</time>
      </trkpt>
      <trkpt lat="49.33477" lon="-0.53577">
        <ele>42.799999237061</ele>
        <time>2026-03-24T14:04:33.000Z</time>
      </trkpt>
      <trkpt lat="49.33476" lon="-0.53576">
        <ele>42.599998474121</ele>
        <time>2026-03-24T14:04:34.000Z</time>
      </trkpt>
      <trkpt lat="49.33476" lon="-0.53574">
        <ele>42.799999237061</ele>
        <time>2026-03-24T14:04:35.000Z</time>
      </trkpt>
      <trkpt lat="49.33475" lon="-0.53573">
        <ele>42.799999237061</ele>
        <time>2026-03-24T14:04:36.000Z</time>
      </trkpt>
      <trkpt lat="49.33475" lon="-0.53572">
        <ele>42.799999237061</ele>
        <time>2026-03-24T14:04:37.000Z</time>
      </trkpt>
      <trkpt lat="49.33474" lon="-0.5357">
        <ele>42.799999237061</ele>
        <time>2026-03-24T14:04:38.000Z</time>
      </trkpt>
      <trkpt lat="49.33473" lon="-0.53569">
        <ele>42.799999237061</ele>
        <time>2026-03-24T14:04:39.000Z</time>
      </trkpt>
      <trkpt lat="49.33473" lon="-0.53568">
        <ele>42.799999237061</ele>
        <time>2026-03-24T14:04:40.000Z</time>
      </trkpt>
      <trkpt lat="49.33472" lon="-0.53566">
        <ele>42.799999237061</ele>
        <time>2026-03-24T14:04:41.000Z</time>
      </trkpt>
      <trkpt lat="49.33471" lon="-0.53565">
        <ele>42.799999237061</ele>
        <time>2026-03-24T14:04:42.000Z</time>
      </trkpt>
      <trkpt lat="49.3347" lon="-0.53564">
        <ele>43</ele>
        <time>2026-03-24T14:04:43.000Z</time>
      </trkpt>
      <trkpt lat="49.33469" lon="-0.53562">
        <ele>43</ele>
        <time>2026-03-24T14:04:44.000Z</time>
      </trkpt>
      <trkpt lat="49.33469" lon="-0.53561">
        <ele>43</ele>
        <time>2026-03-24T14:04:45.000Z</time>
      </trkpt>
      <trkpt lat="49.33468" lon="-0.5356">
        <ele>43</ele>
        <time>2026-03-24T14:04:46.000Z</time>
      </trkpt>
      <trkpt lat="49.33467" lon="-0.53559">
        <ele>43</ele>
        <time>2026-03-24T14:04:47.000Z</time>
      </trkpt>
      <trkpt lat="49.33465" lon="-0.53559">
        <ele>43</ele>
        <time>2026-03-24T14:04:48.000Z</time>
      </trkpt>
      <trkpt lat="49.33465" lon="-0.53558">
        <ele>43</ele>
        <time>2026-03-24T14:04:49.000Z</time>
      </trkpt>
      <trkpt lat="49.33464" lon="-0.53557">
        <ele>42.799999237061</ele>
        <time>2026-03-24T14:04:50.000Z</time>
      </trkpt>
      <trkpt lat="49.33464" lon="-0.53556">
        <ele>42.799999237061</ele>
        <time>2026-03-24T14:04:51.000Z</time>
      </trkpt>
      <trkpt lat="49.33463" lon="-0.53554">
        <ele>42.799999237061</ele>
        <time>2026-03-24T14:04:52.000Z</time>
      </trkpt>
      <trkpt lat="49.33463" lon="-0.53553">
        <ele>42.599998474121</ele>
        <time>2026-03-24T14:04:53.000Z</time>
      </trkpt>
      <trkpt lat="49.33462" lon="-0.53552">
        <ele>42.599998474121</ele>
        <time>2026-03-24T14:04:54.000Z</time>
      </trkpt>
      <trkpt lat="49.33461" lon="-0.5355">
        <ele>42.599998474121</ele>
        <time>2026-03-24T14:04:55.000Z</time>
      </trkpt>
      <trkpt lat="49.3346" lon="-0.53549">
        <ele>42.400001525879</ele>
        <time>2026-03-24T14:04:56.000Z</time>
      </trkpt>
      <trkpt lat="49.33459" lon="-0.53547">
        <ele>42.400001525879</ele>
        <time>2026-03-24T14:04:57.000Z</time>
      </trkpt>
      <trkpt lat="49.33459" lon="-0.53546">
        <ele>42.400001525879</ele>
        <time>2026-03-24T14:04:58.000Z</time>
      </trkpt>
      <trkpt lat="49.33458" lon="-0.53545">
        <ele>42.200000762939</ele>
        <time>2026-03-24T14:04:59.000Z</time>
      </trkpt>
      <trkpt lat="49.33457" lon="-0.53543">
        <ele>42.200000762939</ele>
        <time>2026-03-24T14:05:00.000Z</time>
      </trkpt>
      <trkpt lat="49.33456" lon="-0.53542">
        <ele>42</ele>
        <time>2026-03-24T14:05:01.000Z</time>
      </trkpt>
      <trkpt lat="49.33455" lon="-0.5354">
        <ele>42</ele>
        <time>2026-03-24T14:05:02.000Z</time>
      </trkpt>
      <trkpt lat="49.33454" lon="-0.53539">
        <ele>41.799999237061</ele>
        <time>2026-03-24T14:05:03.000Z</time>
      </trkpt>
      <trkpt lat="49.33453" lon="-0.53537">
        <ele>41.799999237061</ele>
        <time>2026-03-24T14:05:04.000Z</time>
      </trkpt>
      <trkpt lat="49.33453" lon="-0.53536">
        <ele>41.799999237061</ele>
        <time>2026-03-24T14:05:05.000Z</time>
      </trkpt>
      <trkpt lat="49.33452" lon="-0.53535">
        <ele>41.599998474121</ele>
        <time>2026-03-24T14:05:06.000Z</time>
      </trkpt>
      <trkpt lat="49.33451" lon="-0.53533">
        <ele>41.599998474121</ele>
        <time>2026-03-24T14:05:07.000Z</time>
      </trkpt>
      <trkpt lat="49.3345" lon="-0.53532">
        <ele>41.599998474121</ele>
        <time>2026-03-24T14:05:08.000Z</time>
      </trkpt>
      <trkpt lat="49.33449" lon="-0.53531">
        <ele>41.400001525879</ele>
        <time>2026-03-24T14:05:09.000Z</time>
      </trkpt>
      <trkpt lat="49.33449" lon="-0.5353">
        <ele>41.400001525879</ele>
        <time>2026-03-24T14:05:10.000Z</time>
      </trkpt>
      <trkpt lat="49.33448" lon="-0.53529">
        <ele>41.400001525879</ele>
        <time>2026-03-24T14:05:11.000Z</time>
      </trkpt>
      <trkpt lat="49.33447" lon="-0.53528">
        <ele>41.200000762939</ele>
        <time>2026-03-24T14:05:12.000Z</time>
      </trkpt>
      <trkpt lat="49.33447" lon="-0.53527">
        <ele>41.200000762939</ele>
        <time>2026-03-24T14:05:13.000Z</time>
      </trkpt>
      <trkpt lat="49.33446" lon="-0.53526">
        <ele>41.200000762939</ele>
        <time>2026-03-24T14:05:14.000Z</time>
      </trkpt>
      <trkpt lat="49.33445" lon="-0.53525">
        <ele>41</ele>
        <time>2026-03-24T14:05:15.000Z</time>
      </trkpt>
      <trkpt lat="49.33445" lon="-0.53524">
        <ele>41</ele>
        <time>2026-03-24T14:05:16.000Z</time>
      </trkpt>
      <trkpt lat="49.33444" lon="-0.53523">
        <ele>41</ele>
        <time>2026-03-24T14:05:17.000Z</time>
      </trkpt>
      <trkpt lat="49.33444" lon="-0.53522">
        <ele>40.799999237061</ele>
        <time>2026-03-24T14:05:18.000Z</time>
      </trkpt>
      <trkpt lat="49.33443" lon="-0.53521">
        <ele>40.799999237061</ele>
        <time>2026-03-24T14:05:19.000Z</time>
      </trkpt>
      <trkpt lat="49.33443" lon="-0.5352">
        <ele>40.799999237061</ele>
        <time>2026-03-24T14:05:20.000Z</time>
      </trkpt>
      <trkpt lat="49.33442" lon="-0.53518">
        <ele>40.599998474121</ele>
        <time>2026-03-24T14:05:21.000Z</time>
      </trkpt>
      <trkpt lat="49.33441" lon="-0.53517">
        <ele>40.599998474121</ele>
        <time>2026-03-24T14:05:22.000Z</time>
      </trkpt>
      <trkpt lat="49.3344" lon="-0.53516">
        <ele>40.599998474121</ele>
        <time>2026-03-24T14:05:23.000Z</time>
      </trkpt>
      <trkpt lat="49.33439" lon="-0.53515">
        <ele>40.400001525879</ele>
        <time>2026-03-24T14:05:24.000Z</time>
      </trkpt>
      <trkpt lat="49.33438" lon="-0.53514">
        <ele>40.400001525879</ele>
        <time>2026-03-24T14:05:25.000Z</time>
      </trkpt>
      <trkpt lat="49.33437" lon="-0.53512">
        <ele>40.400001525879</ele>
        <time>2026-03-24T14:05:26.000Z</time>
      </trkpt>
      <trkpt lat="49.33437" lon="-0.53511">
        <ele>40.200000762939</ele>
        <time>2026-03-24T14:05:27.000Z</time>
      </trkpt>
      <trkpt lat="49.33436" lon="-0.5351">
        <ele>40.200000762939</ele>
        <time>2026-03-24T14:05:28.000Z</time>
      </trkpt>
      <trkpt lat="49.33435" lon="-0.53509">
        <ele>40.200000762939</ele>
        <time>2026-03-24T14:05:29.000Z</time>
      </trkpt>
      <trkpt lat="49.33434" lon="-0.53508">
        <ele>40</ele>
        <time>2026-03-24T14:05:30.000Z</time>
      </trkpt>
      <trkpt lat="49.33433" lon="-0.53507">
        <ele>40</ele>
        <time>2026-03-24T14:05:31.000Z</time>
      </trkpt>
      <trkpt lat="49.33432" lon="-0.53506">
        <ele>39.799999237061</ele>
        <time>2026-03-24T14:05:32.000Z</time>
      </trkpt>
      <trkpt lat="49.33431" lon="-0.53505">
        <ele>39.799999237061</ele>
        <time>2026-03-24T14:05:33.000Z</time>
      </trkpt>
      <trkpt lat="49.3343" lon="-0.53504">
        <ele>39.799999237061</ele>
        <time>2026-03-24T14:05:34.000Z</time>
      </trkpt>
      <trkpt lat="49.33429" lon="-0.53502">
        <ele>39.599998474121</ele>
        <time>2026-03-24T14:05:35.000Z</time>
      </trkpt>
      <trkpt lat="49.33428" lon="-0.53501">
        <ele>39.599998474121</ele>
        <time>2026-03-24T14:05:36.000Z</time>
      </trkpt>
      <trkpt lat="49.33428" lon="-0.535">
        <ele>39.599998474121</ele>
        <time>2026-03-24T14:05:37.000Z</time>
      </trkpt>
      <trkpt lat="49.33427" lon="-0.53499">
        <ele>39.599998474121</ele>
        <time>2026-03-24T14:05:38.000Z</time>
      </trkpt>
      <trkpt lat="49.33426" lon="-0.53498">
        <ele>39.400001525879</ele>
        <time>2026-03-24T14:05:39.000Z</time>
      </trkpt>
      <trkpt lat="49.33425" lon="-0.53496">
        <ele>39.400001525879</ele>
        <time>2026-03-24T14:05:40.000Z</time>
      </trkpt>
      <trkpt lat="49.33424" lon="-0.53495">
        <ele>39.400001525879</ele>
        <time>2026-03-24T14:05:41.000Z</time>
      </trkpt>
      <trkpt lat="49.33424" lon="-0.53494">
        <ele>39.400001525879</ele>
        <time>2026-03-24T14:05:42.000Z</time>
      </trkpt>
      <trkpt lat="49.33423" lon="-0.53493">
        <ele>39.400001525879</ele>
        <time>2026-03-24T14:05:43.000Z</time>
      </trkpt>
      <trkpt lat="49.33422" lon="-0.53492">
        <ele>39.400001525879</ele>
        <time>2026-03-24T14:05:44.000Z</time>
      </trkpt>
      <trkpt lat="49.33422" lon="-0.53491">
        <ele>39.400001525879</ele>
        <time>2026-03-24T14:05:45.000Z</time>
      </trkpt>
      <trkpt lat="49.33421" lon="-0.5349">
        <ele>39.400001525879</ele>
        <time>2026-03-24T14:05:46.000Z</time>
      </trkpt>
      <trkpt lat="49.3342" lon="-0.53489">
        <ele>39.200000762939</ele>
        <time>2026-03-24T14:05:47.000Z</time>
      </trkpt>
      <trkpt lat="49.33419" lon="-0.53488">
        <ele>39.200000762939</ele>
        <time>2026-03-24T14:05:48.000Z</time>
      </trkpt>
      <trkpt lat="49.33418" lon="-0.53487">
        <ele>39.200000762939</ele>
        <time>2026-03-24T14:05:49.000Z</time>
      </trkpt>
      <trkpt lat="49.33418" lon="-0.53486">
        <ele>39.200000762939</ele>
        <time>2026-03-24T14:05:50.000Z</time>
      </trkpt>
      <trkpt lat="49.33417" lon="-0.53485">
        <ele>39.200000762939</ele>
        <time>2026-03-24T14:05:51.000Z</time>
      </trkpt>
      <trkpt lat="49.33416" lon="-0.53483">
        <ele>39.200000762939</ele>
        <time>2026-03-24T14:05:52.000Z</time>
      </trkpt>
      <trkpt lat="49.33415" lon="-0.53482">
        <ele>39.200000762939</ele>
        <time>2026-03-24T14:05:53.000Z</time>
      </trkpt>
      <trkpt lat="49.33414" lon="-0.53481">
        <ele>39</ele>
        <time>2026-03-24T14:05:54.000Z</time>
      </trkpt>
      <trkpt lat="49.33413" lon="-0.5348">
        <ele>39</ele>
        <time>2026-03-24T14:05:55.000Z</time>
      </trkpt>
      <trkpt lat="49.33413" lon="-0.5348">
        <ele>39</ele>
        <time>2026-03-24T14:05:56.000Z</time>
      </trkpt>
      <trkpt lat="49.33412" lon="-0.53479">
        <ele>39</ele>
        <time>2026-03-24T14:05:57.000Z</time>
      </trkpt>
      <trkpt lat="49.33411" lon="-0.53477">
        <ele>39</ele>
        <time>2026-03-24T14:05:58.000Z</time>
      </trkpt>
      <trkpt lat="49.3341" lon="-0.53476">
        <ele>39</ele>
        <time>2026-03-24T14:05:59.000Z</time>
      </trkpt>
      <trkpt lat="49.33409" lon="-0.53475">
        <ele>39</ele>
        <time>2026-03-24T14:06:00.000Z</time>
      </trkpt>
      <trkpt lat="49.33407" lon="-0.53473">
        <ele>38.799999237061</ele>
        <time>2026-03-24T14:06:01.000Z</time>
      </trkpt>
      <trkpt lat="49.33407" lon="-0.53472">
        <ele>38.799999237061</ele>
        <time>2026-03-24T14:06:02.000Z</time>
      </trkpt>
      <trkpt lat="49.33406" lon="-0.5347">
        <ele>38.599998474121</ele>
        <time>2026-03-24T14:06:03.000Z</time>
      </trkpt>
      <trkpt lat="49.33405" lon="-0.53469">
        <ele>38.599998474121</ele>
        <time>2026-03-24T14:06:04.000Z</time>
      </trkpt>
      <trkpt lat="49.33404" lon="-0.53468">
        <ele>38.599998474121</ele>
        <time>2026-03-24T14:06:05.000Z</time>
      </trkpt>
      <trkpt lat="49.33403" lon="-0.53467">
        <ele>38.400001525879</ele>
        <time>2026-03-24T14:06:06.000Z</time>
      </trkpt>
      <trkpt lat="49.33403" lon="-0.53466">
        <ele>38.400001525879</ele>
        <time>2026-03-24T14:06:07.000Z</time>
      </trkpt>
      <trkpt lat="49.33402" lon="-0.53465">
        <ele>38.400001525879</ele>
        <time>2026-03-24T14:06:08.000Z</time>
      </trkpt>
      <trkpt lat="49.33401" lon="-0.53463">
        <ele>38.200000762939</ele>
        <time>2026-03-24T14:06:09.000Z</time>
      </trkpt>
      <trkpt lat="49.33401" lon="-0.53462">
        <ele>38.200000762939</ele>
        <time>2026-03-24T14:06:10.000Z</time>
      </trkpt>
      <trkpt lat="49.334" lon="-0.53461">
        <ele>38.200000762939</ele>
        <time>2026-03-24T14:06:11.000Z</time>
      </trkpt>
      <trkpt lat="49.33399" lon="-0.5346">
        <ele>38</ele>
        <time>2026-03-24T14:06:12.000Z</time>
      </trkpt>
      <trkpt lat="49.33398" lon="-0.53459">
        <ele>38</ele>
        <time>2026-03-24T14:06:13.000Z</time>
      </trkpt>
      <trkpt lat="49.33397" lon="-0.53458">
        <ele>38</ele>
        <time>2026-03-24T14:06:14.000Z</time>
      </trkpt>
      <trkpt lat="49.33396" lon="-0.53456">
        <ele>37.799999237061</ele>
        <time>2026-03-24T14:06:15.000Z</time>
      </trkpt>
      <trkpt lat="49.33395" lon="-0.53455">
        <ele>37.799999237061</ele>
        <time>2026-03-24T14:06:16.000Z</time>
      </trkpt>
      <trkpt lat="49.33394" lon="-0.53454">
        <ele>37.599998474121</ele>
        <time>2026-03-24T14:06:17.000Z</time>
      </trkpt>
      <trkpt lat="49.33394" lon="-0.53452">
        <ele>37.599998474121</ele>
        <time>2026-03-24T14:06:18.000Z</time>
      </trkpt>
      <trkpt lat="49.33393" lon="-0.53451">
        <ele>37.599998474121</ele>
        <time>2026-03-24T14:06:19.000Z</time>
      </trkpt>
      <trkpt lat="49.33392" lon="-0.53449">
        <ele>37.400001525879</ele>
        <time>2026-03-24T14:06:20.000Z</time>
      </trkpt>
      <trkpt lat="49.33391" lon="-0.53448">
        <ele>37.400001525879</ele>
        <time>2026-03-24T14:06:21.000Z</time>
      </trkpt>
      <trkpt lat="49.33391" lon="-0.53446">
        <ele>37.200000762939</ele>
        <time>2026-03-24T14:06:22.000Z</time>
      </trkpt>
      <trkpt lat="49.3339" lon="-0.53445">
        <ele>37.200000762939</ele>
        <time>2026-03-24T14:06:23.000Z</time>
      </trkpt>
      <trkpt lat="49.33389" lon="-0.53444">
        <ele>37.200000762939</ele>
        <time>2026-03-24T14:06:24.000Z</time>
      </trkpt>
      <trkpt lat="49.33388" lon="-0.53443">
        <ele>37</ele>
        <time>2026-03-24T14:06:25.000Z</time>
      </trkpt>
      <trkpt lat="49.33388" lon="-0.53442">
        <ele>37</ele>
        <time>2026-03-24T14:06:26.000Z</time>
      </trkpt>
      <trkpt lat="49.33387" lon="-0.53441">
        <ele>37</ele>
        <time>2026-03-24T14:06:27.000Z</time>
      </trkpt>
      <trkpt lat="49.33386" lon="-0.5344">
        <ele>37</ele>
        <time>2026-03-24T14:06:28.000Z</time>
      </trkpt>
      <trkpt lat="49.33385" lon="-0.53439">
        <ele>37</ele>
        <time>2026-03-24T14:06:29.000Z</time>
      </trkpt>
      <trkpt lat="49.33384" lon="-0.53438">
        <ele>37</ele>
        <time>2026-03-24T14:06:30.000Z</time>
      </trkpt>
      <trkpt lat="49.33383" lon="-0.53437">
        <ele>37</ele>
        <time>2026-03-24T14:06:31.000Z</time>
      </trkpt>
      <trkpt lat="49.33382" lon="-0.53436">
        <ele>37</ele>
        <time>2026-03-24T14:06:32.000Z</time>
      </trkpt>
      <trkpt lat="49.33382" lon="-0.53435">
        <ele>37</ele>
        <time>2026-03-24T14:06:33.000Z</time>
      </trkpt>
      <trkpt lat="49.33381" lon="-0.53434">
        <ele>37</ele>
        <time>2026-03-24T14:06:34.000Z</time>
      </trkpt>
      <trkpt lat="49.33381" lon="-0.53433">
        <ele>37</ele>
        <time>2026-03-24T14:06:35.000Z</time>
      </trkpt>
      <trkpt lat="49.3338" lon="-0.53432">
        <ele>37</ele>
        <time>2026-03-24T14:06:36.000Z</time>
      </trkpt>
      <trkpt lat="49.33379" lon="-0.53431">
        <ele>37</ele>
        <time>2026-03-24T14:06:37.000Z</time>
      </trkpt>
      <trkpt lat="49.33379" lon="-0.5343">
        <ele>37</ele>
        <time>2026-03-24T14:06:38.000Z</time>
      </trkpt>
      <trkpt lat="49.33378" lon="-0.5343">
        <ele>37</ele>
        <time>2026-03-24T14:06:39.000Z</time>
      </trkpt>
      <trkpt lat="49.33377" lon="-0.53428">
        <ele>37</ele>
        <time>2026-03-24T14:06:40.000Z</time>
      </trkpt>
      <trkpt lat="49.33376" lon="-0.53427">
        <ele>37</ele>
        <time>2026-03-24T14:06:41.000Z</time>
      </trkpt>
      <trkpt lat="49.33376" lon="-0.53426">
        <ele>37</ele>
        <time>2026-03-24T14:06:42.000Z</time>
      </trkpt>
      <trkpt lat="49.33375" lon="-0.53425">
        <ele>37</ele>
        <time>2026-03-24T14:06:43.000Z</time>
      </trkpt>
      <trkpt lat="49.33374" lon="-0.53424">
        <ele>37</ele>
        <time>2026-03-24T14:06:44.000Z</time>
      </trkpt>
      <trkpt lat="49.33373" lon="-0.53423">
        <ele>37</ele>
        <time>2026-03-24T14:06:45.000Z</time>
      </trkpt>
      <trkpt lat="49.33373" lon="-0.53422">
        <ele>37</ele>
        <time>2026-03-24T14:06:46.000Z</time>
      </trkpt>
      <trkpt lat="49.33372" lon="-0.53421">
        <ele>37</ele>
        <time>2026-03-24T14:06:47.000Z</time>
      </trkpt>
      <trkpt lat="49.33371" lon="-0.5342">
        <ele>37</ele>
        <time>2026-03-24T14:06:48.000Z</time>
      </trkpt>
      <trkpt lat="49.33371" lon="-0.53419">
        <ele>37</ele>
        <time>2026-03-24T14:06:49.000Z</time>
      </trkpt>
      <trkpt lat="49.3337" lon="-0.53418">
        <ele>37</ele>
        <time>2026-03-24T14:06:50.000Z</time>
      </trkpt>
      <trkpt lat="49.33369" lon="-0.53417">
        <ele>37</ele>
        <time>2026-03-24T14:06:51.000Z</time>
      </trkpt>
      <trkpt lat="49.33368" lon="-0.53415">
        <ele>37</ele>
        <time>2026-03-24T14:06:52.000Z</time>
      </trkpt>
      <trkpt lat="49.33367" lon="-0.53414">
        <ele>36.799999237061</ele>
        <time>2026-03-24T14:06:53.000Z</time>
      </trkpt>
      <trkpt lat="49.33366" lon="-0.53412">
        <ele>36.799999237061</ele>
        <time>2026-03-24T14:06:54.000Z</time>
      </trkpt>
      <trkpt lat="49.33365" lon="-0.53411">
        <ele>36.799999237061</ele>
        <time>2026-03-24T14:06:55.000Z</time>
      </trkpt>
      <trkpt lat="49.33364" lon="-0.5341">
        <ele>36.799999237061</ele>
        <time>2026-03-24T14:06:56.000Z</time>
      </trkpt>
      <trkpt lat="49.33363" lon="-0.53409">
        <ele>36.599998474121</ele>
        <time>2026-03-24T14:06:57.000Z</time>
      </trkpt>
      <trkpt lat="49.33362" lon="-0.53408">
        <ele>36.599998474121</ele>
        <time>2026-03-24T14:06:58.000Z</time>
      </trkpt>
      <trkpt lat="49.33361" lon="-0.53407">
        <ele>36.599998474121</ele>
        <time>2026-03-24T14:06:59.000Z</time>
      </trkpt>
      <trkpt lat="49.33361" lon="-0.53406">
        <ele>36.599998474121</ele>
        <time>2026-03-24T14:07:00.000Z</time>
      </trkpt>
      <trkpt lat="49.3336" lon="-0.53405">
        <ele>36.599998474121</ele>
        <time>2026-03-24T14:07:01.000Z</time>
      </trkpt>
      <trkpt lat="49.33358" lon="-0.53404">
        <ele>36.599998474121</ele>
        <time>2026-03-24T14:07:02.000Z</time>
      </trkpt>
      <trkpt lat="49.33358" lon="-0.53403">
        <ele>36.400001525879</ele>
        <time>2026-03-24T14:07:03.000Z</time>
      </trkpt>
      <trkpt lat="49.33357" lon="-0.53402">
        <ele>36.400001525879</ele>
        <time>2026-03-24T14:07:04.000Z</time>
      </trkpt>
      <trkpt lat="49.33356" lon="-0.53401">
        <ele>36.400001525879</ele>
        <time>2026-03-24T14:07:05.000Z</time>
      </trkpt>
      <trkpt lat="49.33354" lon="-0.53399">
        <ele>36.400001525879</ele>
        <time>2026-03-24T14:07:06.000Z</time>
      </trkpt>
      <trkpt lat="49.33353" lon="-0.53398">
        <ele>36.200000762939</ele>
        <time>2026-03-24T14:07:07.000Z</time>
      </trkpt>
      <trkpt lat="49.33353" lon="-0.53397">
        <ele>36.200000762939</ele>
        <time>2026-03-24T14:07:08.000Z</time>
      </trkpt>
      <trkpt lat="49.33352" lon="-0.53395">
        <ele>36.200000762939</ele>
        <time>2026-03-24T14:07:09.000Z</time>
      </trkpt>
      <trkpt lat="49.33351" lon="-0.53394">
        <ele>36.200000762939</ele>
        <time>2026-03-24T14:07:10.000Z</time>
      </trkpt>
      <trkpt lat="49.3335" lon="-0.53393">
        <ele>36.200000762939</ele>
        <time>2026-03-24T14:07:11.000Z</time>
      </trkpt>
      <trkpt lat="49.33349" lon="-0.53392">
        <ele>36.200000762939</ele>
        <time>2026-03-24T14:07:12.000Z</time>
      </trkpt>
      <trkpt lat="49.33348" lon="-0.53392">
        <ele>36.400001525879</ele>
        <time>2026-03-24T14:07:13.000Z</time>
      </trkpt>
      <trkpt lat="49.33347" lon="-0.53391">
        <ele>36.400001525879</ele>
        <time>2026-03-24T14:07:14.000Z</time>
      </trkpt>
      <trkpt lat="49.33346" lon="-0.5339">
        <ele>36.400001525879</ele>
        <time>2026-03-24T14:07:15.000Z</time>
      </trkpt>
      <trkpt lat="49.33345" lon="-0.53389">
        <ele>36.400001525879</ele>
        <time>2026-03-24T14:07:16.000Z</time>
      </trkpt>
      <trkpt lat="49.33345" lon="-0.53388">
        <ele>36.400001525879</ele>
        <time>2026-03-24T14:07:17.000Z</time>
      </trkpt>
      <trkpt lat="49.33344" lon="-0.53387">
        <ele>36.400001525879</ele>
        <time>2026-03-24T14:07:18.000Z</time>
      </trkpt>
      <trkpt lat="49.33343" lon="-0.53385">
        <ele>36.400001525879</ele>
        <time>2026-03-24T14:07:19.000Z</time>
      </trkpt>
      <trkpt lat="49.33342" lon="-0.53384">
        <ele>36.599998474121</ele>
        <time>2026-03-24T14:07:20.000Z</time>
      </trkpt>
      <trkpt lat="49.33341" lon="-0.53383">
        <ele>36.599998474121</ele>
        <time>2026-03-24T14:07:21.000Z</time>
      </trkpt>
      <trkpt lat="49.33341" lon="-0.53382">
        <ele>36.599998474121</ele>
        <time>2026-03-24T14:07:22.000Z</time>
      </trkpt>
      <trkpt lat="49.3334" lon="-0.53381">
        <ele>36.599998474121</ele>
        <time>2026-03-24T14:07:23.000Z</time>
      </trkpt>
      <trkpt lat="49.33339" lon="-0.53379">
        <ele>36.599998474121</ele>
        <time>2026-03-24T14:07:24.000Z</time>
      </trkpt>
      <trkpt lat="49.33339" lon="-0.53378">
        <ele>36.599998474121</ele>
        <time>2026-03-24T14:07:25.000Z</time>
      </trkpt>
      <trkpt lat="49.33338" lon="-0.53377">
        <ele>36.599998474121</ele>
        <time>2026-03-24T14:07:26.000Z</time>
      </trkpt>
      <trkpt lat="49.33337" lon="-0.53376">
        <ele>36.599998474121</ele>
        <time>2026-03-24T14:07:27.000Z</time>
      </trkpt>
      <trkpt lat="49.33336" lon="-0.53375">
        <ele>36.799999237061</ele>
        <time>2026-03-24T14:07:28.000Z</time>
      </trkpt>
      <trkpt lat="49.33335" lon="-0.53373">
        <ele>36.799999237061</ele>
        <time>2026-03-24T14:07:29.000Z</time>
      </trkpt>
      <trkpt lat="49.33335" lon="-0.53372">
        <ele>36.799999237061</ele>
        <time>2026-03-24T14:07:30.000Z</time>
      </trkpt>
      <trkpt lat="49.33334" lon="-0.5337">
        <ele>36.799999237061</ele>
        <time>2026-03-24T14:07:31.000Z</time>
      </trkpt>
      <trkpt lat="49.33333" lon="-0.53369">
        <ele>36.799999237061</ele>
        <time>2026-03-24T14:07:32.000Z</time>
      </trkpt>
      <trkpt lat="49.33332" lon="-0.53368">
        <ele>36.799999237061</ele>
        <time>2026-03-24T14:07:33.000Z</time>
      </trkpt>
      <trkpt lat="49.33331" lon="-0.53367">
        <ele>37</ele>
        <time>2026-03-24T14:07:34.000Z</time>
      </trkpt>
      <trkpt lat="49.3333" lon="-0.53366">
        <ele>37</ele>
        <time>2026-03-24T14:07:35.000Z</time>
      </trkpt>
      <trkpt lat="49.33329" lon="-0.53365">
        <ele>37</ele>
        <time>2026-03-24T14:07:36.000Z</time>
      </trkpt>
      <trkpt lat="49.33328" lon="-0.53364">
        <ele>37</ele>
        <time>2026-03-24T14:07:37.000Z</time>
      </trkpt>
      <trkpt lat="49.33327" lon="-0.53364">
        <ele>37</ele>
        <time>2026-03-24T14:07:38.000Z</time>
      </trkpt>
      <trkpt lat="49.33326" lon="-0.53363">
        <ele>37</ele>
        <time>2026-03-24T14:07:39.000Z</time>
      </trkpt>
      <trkpt lat="49.33325" lon="-0.53362">
        <ele>36.799999237061</ele>
        <time>2026-03-24T14:07:40.000Z</time>
      </trkpt>
      <trkpt lat="49.33325" lon="-0.53361">
        <ele>36.799999237061</ele>
        <time>2026-03-24T14:07:41.000Z</time>
      </trkpt>
      <trkpt lat="49.33324" lon="-0.5336">
        <ele>36.799999237061</ele>
        <time>2026-03-24T14:07:42.000Z</time>
      </trkpt>
      <trkpt lat="49.33323" lon="-0.5336">
        <ele>36.799999237061</ele>
        <time>2026-03-24T14:07:43.000Z</time>
      </trkpt>
      <trkpt lat="49.33323" lon="-0.53359">
        <ele>36.599998474121</ele>
        <time>2026-03-24T14:07:44.000Z</time>
      </trkpt>
      <trkpt lat="49.33322" lon="-0.53358">
        <ele>36.599998474121</ele>
        <time>2026-03-24T14:07:45.000Z</time>
      </trkpt>
      <trkpt lat="49.33321" lon="-0.53357">
        <ele>36.599998474121</ele>
        <time>2026-03-24T14:07:46.000Z</time>
      </trkpt>
      <trkpt lat="49.33321" lon="-0.53356">
        <ele>36.400001525879</ele>
        <time>2026-03-24T14:07:47.000Z</time>
      </trkpt>
      <trkpt lat="49.3332" lon="-0.53355">
        <ele>36.400001525879</ele>
        <time>2026-03-24T14:07:48.000Z</time>
      </trkpt>
      <trkpt lat="49.33319" lon="-0.53353">
        <ele>36.400001525879</ele>
        <time>2026-03-24T14:07:49.000Z</time>
      </trkpt>
      <trkpt lat="49.33318" lon="-0.53352">
        <ele>36.200000762939</ele>
        <time>2026-03-24T14:07:50.000Z</time>
      </trkpt>
      <trkpt lat="49.33317" lon="-0.53351">
        <ele>36.200000762939</ele>
        <time>2026-03-24T14:07:51.000Z</time>
      </trkpt>
      <trkpt lat="49.33317" lon="-0.5335">
        <ele>36.200000762939</ele>
        <time>2026-03-24T14:07:52.000Z</time>
      </trkpt>
      <trkpt lat="49.33315" lon="-0.53349">
        <ele>36</ele>
        <time>2026-03-24T14:07:53.000Z</time>
      </trkpt>
      <trkpt lat="49.33314" lon="-0.53347">
        <ele>36</ele>
        <time>2026-03-24T14:07:54.000Z</time>
      </trkpt>
      <trkpt lat="49.33313" lon="-0.53347">
        <ele>36</ele>
        <time>2026-03-24T14:07:55.000Z</time>
      </trkpt>
      <trkpt lat="49.33312" lon="-0.53345">
        <ele>36</ele>
        <time>2026-03-24T14:07:56.000Z</time>
      </trkpt>
      <trkpt lat="49.33312" lon="-0.53345">
        <ele>36</ele>
        <time>2026-03-24T14:07:57.000Z</time>
      </trkpt>
      <trkpt lat="49.33311" lon="-0.53344">
        <ele>36</ele>
        <time>2026-03-24T14:07:58.000Z</time>
      </trkpt>
      <trkpt lat="49.33311" lon="-0.53343">
        <ele>36</ele>
        <time>2026-03-24T14:07:59.000Z</time>
      </trkpt>
      <trkpt lat="49.3331" lon="-0.53343">
        <ele>36</ele>
        <time>2026-03-24T14:08:00.000Z</time>
      </trkpt>
      <trkpt lat="49.33309" lon="-0.53341">
        <ele>36</ele>
        <time>2026-03-24T14:08:01.000Z</time>
      </trkpt>
      <trkpt lat="49.33309" lon="-0.5334">
        <ele>36</ele>
        <time>2026-03-24T14:08:02.000Z</time>
      </trkpt>
      <trkpt lat="49.33309" lon="-0.5334">
        <ele>36</ele>
        <time>2026-03-24T14:08:03.000Z</time>
      </trkpt>
      <trkpt lat="49.33308" lon="-0.53339">
        <ele>36</ele>
        <time>2026-03-24T14:08:04.000Z</time>
      </trkpt>
      <trkpt lat="49.33308" lon="-0.5334">
        <ele>36</ele>
        <time>2026-03-24T14:08:05.000Z</time>
      </trkpt>
      <trkpt lat="49.33308" lon="-0.53339">
        <ele>36</ele>
        <time>2026-03-24T14:08:06.000Z</time>
      </trkpt>
      <trkpt lat="49.33308" lon="-0.53339">
        <ele>36</ele>
        <time>2026-03-24T14:08:07.000Z</time>
      </trkpt>
      <trkpt lat="49.33308" lon="-0.53338">
        <ele>36</ele>
        <time>2026-03-24T14:08:08.000Z</time>
      </trkpt>
      <trkpt lat="49.33308" lon="-0.53337">
        <ele>36</ele>
        <time>2026-03-24T14:08:09.000Z</time>
      </trkpt>
      <trkpt lat="49.33308" lon="-0.53337">
        <ele>36</ele>
        <time>2026-03-24T14:08:10.000Z</time>
      </trkpt>
      <trkpt lat="49.33307" lon="-0.53336">
        <ele>36</ele>
        <time>2026-03-24T14:08:11.000Z</time>
      </trkpt>
      <trkpt lat="49.33307" lon="-0.53335">
        <ele>36</ele>
        <time>2026-03-24T14:08:12.000Z</time>
      </trkpt>
      <trkpt lat="49.33306" lon="-0.53335">
        <ele>36</ele>
        <time>2026-03-24T14:08:13.000Z</time>
      </trkpt>
      <trkpt lat="49.33306" lon="-0.53335">
        <ele>36</ele>
        <time>2026-03-24T14:08:14.000Z</time>
      </trkpt>
      <trkpt lat="49.33306" lon="-0.53335">
        <ele>36</ele>
        <time>2026-03-24T14:08:15.000Z</time>
      </trkpt>
      <trkpt lat="49.33306" lon="-0.53335">
        <ele>36</ele>
        <time>2026-03-24T14:08:16.000Z</time>
      </trkpt>
      <trkpt lat="49.33306" lon="-0.53335">
        <ele>36</ele>
        <time>2026-03-24T14:08:17.000Z</time>
      </trkpt>
      <trkpt lat="49.33306" lon="-0.53335">
        <ele>36</ele>
        <time>2026-03-24T14:08:18.000Z</time>
      </trkpt>
      <trkpt lat="49.33305" lon="-0.53335">
        <ele>36</ele>
        <time>2026-03-24T14:08:19.000Z</time>
      </trkpt>
      <trkpt lat="49.33305" lon="-0.53335">
        <ele>36</ele>
        <time>2026-03-24T14:08:20.000Z</time>
      </trkpt>
      <trkpt lat="49.33305" lon="-0.53335">
        <ele>36</ele>
        <time>2026-03-24T14:08:21.000Z</time>
      </trkpt>
      <trkpt lat="49.33305" lon="-0.53335">
        <ele>36</ele>
        <time>2026-03-24T14:08:22.000Z</time>
      </trkpt>
      <trkpt lat="49.33305" lon="-0.53336">
        <ele>36</ele>
        <time>2026-03-24T14:08:23.000Z</time>
      </trkpt>
      <trkpt lat="49.33305" lon="-0.53336">
        <ele>36</ele>
        <time>2026-03-24T14:08:24.000Z</time>
      </trkpt>
      <trkpt lat="49.33305" lon="-0.53336">
        <ele>36</ele>
        <time>2026-03-24T14:08:25.000Z</time>
      </trkpt>
      <trkpt lat="49.33304" lon="-0.53336">
        <ele>36</ele>
        <time>2026-03-24T14:08:26.000Z</time>
      </trkpt>
      <trkpt lat="49.33304" lon="-0.53336">
        <ele>36</ele>
        <time>2026-03-24T14:08:27.000Z</time>
      </trkpt>
      <trkpt lat="49.33304" lon="-0.53337">
        <ele>36</ele>
        <time>2026-03-24T14:08:28.000Z</time>
      </trkpt>
      <trkpt lat="49.33304" lon="-0.53337">
        <ele>36</ele>
        <time>2026-03-24T14:08:29.000Z</time>
      </trkpt>
      <trkpt lat="49.33304" lon="-0.53337">
        <ele>36</ele>
        <time>2026-03-24T14:08:30.000Z</time>
      </trkpt>
      <trkpt lat="49.33304" lon="-0.53337">
        <ele>36</ele>
        <time>2026-03-24T14:08:31.000Z</time>
      </trkpt>
      <trkpt lat="49.33304" lon="-0.53337">
        <ele>36</ele>
        <time>2026-03-24T14:08:32.000Z</time>
      </trkpt>
      <trkpt lat="49.33304" lon="-0.53337">
        <ele>36</ele>
        <time>2026-03-24T14:08:33.000Z</time>
      </trkpt>
      <trkpt lat="49.33304" lon="-0.53338">
        <ele>36</ele>
        <time>2026-03-24T14:08:34.000Z</time>
      </trkpt>
      <trkpt lat="49.33304" lon="-0.53338">
        <ele>36</ele>
        <time>2026-03-24T14:08:35.000Z</time>
      </trkpt>
      <trkpt lat="49.33304" lon="-0.53338">
        <ele>36</ele>
        <time>2026-03-24T14:08:36.000Z</time>
      </trkpt>
      <trkpt lat="49.33304" lon="-0.53338">
        <ele>36</ele>
        <time>2026-03-24T14:08:37.000Z</time>
      </trkpt>
      <trkpt lat="49.33304" lon="-0.53337">
        <ele>36</ele>
        <time>2026-03-24T14:08:38.000Z</time>
      </trkpt>
      <trkpt lat="49.33304" lon="-0.53337">
        <ele>36</ele>
        <time>2026-03-24T14:08:39.000Z</time>
      </trkpt>
      <trkpt lat="49.33304" lon="-0.53337">
        <ele>36</ele>
        <time>2026-03-24T14:08:40.000Z</time>
      </trkpt>
      <trkpt lat="49.33304" lon="-0.53336">
        <ele>36</ele>
        <time>2026-03-24T14:08:41.000Z</time>
      </trkpt>
      <trkpt lat="49.33304" lon="-0.53336">
        <ele>36</ele>
        <time>2026-03-24T14:08:42.000Z</time>
      </trkpt>
      <trkpt lat="49.33303" lon="-0.53336">
        <ele>36</ele>
        <time>2026-03-24T14:08:43.000Z</time>
      </trkpt>
      <trkpt lat="49.33303" lon="-0.53335">
        <ele>36</ele>
        <time>2026-03-24T14:08:44.000Z</time>
      </trkpt>
      <trkpt lat="49.33303" lon="-0.53335">
        <ele>36</ele>
        <time>2026-03-24T14:08:45.000Z</time>
      </trkpt>
      <trkpt lat="49.33303" lon="-0.53334">
        <ele>36</ele>
        <time>2026-03-24T14:08:46.000Z</time>
      </trkpt>
      <trkpt lat="49.33303" lon="-0.53334">
        <ele>36</ele>
        <time>2026-03-24T14:08:47.000Z</time>
      </trkpt>
      <trkpt lat="49.33303" lon="-0.53333">
        <ele>36</ele>
        <time>2026-03-24T14:08:48.000Z</time>
      </trkpt>
      <trkpt lat="49.33302" lon="-0.53331">
        <ele>36</ele>
        <time>2026-03-24T14:08:49.000Z</time>
      </trkpt>
      <trkpt lat="49.33302" lon="-0.5333">
        <ele>35.799999237061</ele>
        <time>2026-03-24T14:08:50.000Z</time>
      </trkpt>
      <trkpt lat="49.33301" lon="-0.53329">
        <ele>35.799999237061</ele>
        <time>2026-03-24T14:08:51.000Z</time>
      </trkpt>
      <trkpt lat="49.33301" lon="-0.53329">
        <ele>35.799999237061</ele>
        <time>2026-03-24T14:08:52.000Z</time>
      </trkpt>
      <trkpt lat="49.33299" lon="-0.53328">
        <ele>35.799999237061</ele>
        <time>2026-03-24T14:08:53.000Z</time>
      </trkpt>
      <trkpt lat="49.33298" lon="-0.53328">
        <ele>35.599998474121</ele>
        <time>2026-03-24T14:08:54.000Z</time>
      </trkpt>
      <trkpt lat="49.33297" lon="-0.53327">
        <ele>35.599998474121</ele>
        <time>2026-03-24T14:08:55.000Z</time>
      </trkpt>
      <trkpt lat="49.33296" lon="-0.53327">
        <ele>35.599998474121</ele>
        <time>2026-03-24T14:08:56.000Z</time>
      </trkpt>
      <trkpt lat="49.33295" lon="-0.53327">
        <ele>35.599998474121</ele>
        <time>2026-03-24T14:08:57.000Z</time>
      </trkpt>
      <trkpt lat="49.33293" lon="-0.53327">
        <ele>35.400001525879</ele>
        <time>2026-03-24T14:08:58.000Z</time>
      </trkpt>
      <trkpt lat="49.33292" lon="-0.53327">
        <ele>35.400001525879</ele>
        <time>2026-03-24T14:08:59.000Z</time>
      </trkpt>
      <trkpt lat="49.33291" lon="-0.53326">
        <ele>35.400001525879</ele>
        <time>2026-03-24T14:09:00.000Z</time>
      </trkpt>
      <trkpt lat="49.3329" lon="-0.53326">
        <ele>35.400001525879</ele>
        <time>2026-03-24T14:09:01.000Z</time>
      </trkpt>
      <trkpt lat="49.3329" lon="-0.53326">
        <ele>35.400001525879</ele>
        <time>2026-03-24T14:09:02.000Z</time>
      </trkpt>
      <trkpt lat="49.33289" lon="-0.53326">
        <ele>35.200000762939</ele>
        <time>2026-03-24T14:09:03.000Z</time>
      </trkpt>
      <trkpt lat="49.33288" lon="-0.53326">
        <ele>35.200000762939</ele>
        <time>2026-03-24T14:09:04.000Z</time>
      </trkpt>
      <trkpt lat="49.33287" lon="-0.53326">
        <ele>35.200000762939</ele>
        <time>2026-03-24T14:09:05.000Z</time>
      </trkpt>
      <trkpt lat="49.33286" lon="-0.53326">
        <ele>35.200000762939</ele>
        <time>2026-03-24T14:09:06.000Z</time>
      </trkpt>
      <trkpt lat="49.33285" lon="-0.53326">
        <ele>35.200000762939</ele>
        <time>2026-03-24T14:09:07.000Z</time>
      </trkpt>
      <trkpt lat="49.33284" lon="-0.53326">
        <ele>35</ele>
        <time>2026-03-24T14:09:08.000Z</time>
      </trkpt>
      <trkpt lat="49.33283" lon="-0.53326">
        <ele>35</ele>
        <time>2026-03-24T14:09:09.000Z</time>
      </trkpt>
      <trkpt lat="49.33282" lon="-0.53326">
        <ele>35</ele>
        <time>2026-03-24T14:09:10.000Z</time>
      </trkpt>
      <trkpt lat="49.33281" lon="-0.53326">
        <ele>35</ele>
        <time>2026-03-24T14:09:11.000Z</time>
      </trkpt>
      <trkpt lat="49.3328" lon="-0.53327">
        <ele>35</ele>
        <time>2026-03-24T14:09:12.000Z</time>
      </trkpt>
      <trkpt lat="49.3328" lon="-0.53327">
        <ele>35</ele>
        <time>2026-03-24T14:09:13.000Z</time>
      </trkpt>
      <trkpt lat="49.33279" lon="-0.53327">
        <ele>35</ele>
        <time>2026-03-24T14:09:14.000Z</time>
      </trkpt>
      <trkpt lat="49.33278" lon="-0.53327">
        <ele>35</ele>
        <time>2026-03-24T14:09:15.000Z</time>
      </trkpt>
      <trkpt lat="49.33277" lon="-0.53326">
        <ele>35</ele>
        <time>2026-03-24T14:09:16.000Z</time>
      </trkpt>
      <trkpt lat="49.33276" lon="-0.53326">
        <ele>35</ele>
        <time>2026-03-24T14:09:17.000Z</time>
      </trkpt>
      <trkpt lat="49.33276" lon="-0.53326">
        <ele>35</ele>
        <time>2026-03-24T14:09:18.000Z</time>
      </trkpt>
      <trkpt lat="49.33275" lon="-0.53325">
        <ele>35</ele>
        <time>2026-03-24T14:09:19.000Z</time>
      </trkpt>
      <trkpt lat="49.33274" lon="-0.53325">
        <ele>35</ele>
        <time>2026-03-24T14:09:20.000Z</time>
      </trkpt>
      <trkpt lat="49.33273" lon="-0.53325">
        <ele>35</ele>
        <time>2026-03-24T14:09:21.000Z</time>
      </trkpt>
      <trkpt lat="49.33272" lon="-0.53325">
        <ele>35</ele>
        <time>2026-03-24T14:09:22.000Z</time>
      </trkpt>
      <trkpt lat="49.33271" lon="-0.53324">
        <ele>35</ele>
        <time>2026-03-24T14:09:23.000Z</time>
      </trkpt>
      <trkpt lat="49.3327" lon="-0.53323">
        <ele>35.200000762939</ele>
        <time>2026-03-24T14:09:24.000Z</time>
      </trkpt>
      <trkpt lat="49.33269" lon="-0.53323">
        <ele>35.200000762939</ele>
        <time>2026-03-24T14:09:25.000Z</time>
      </trkpt>
      <trkpt lat="49.33267" lon="-0.53322">
        <ele>35.200000762939</ele>
        <time>2026-03-24T14:09:26.000Z</time>
      </trkpt>
      <trkpt lat="49.33266" lon="-0.53322">
        <ele>35.200000762939</ele>
        <time>2026-03-24T14:09:27.000Z</time>
      </trkpt>
      <trkpt lat="49.33265" lon="-0.53321">
        <ele>35.200000762939</ele>
        <time>2026-03-24T14:09:28.000Z</time>
      </trkpt>
      <trkpt lat="49.33264" lon="-0.53321">
        <ele>35.400001525879</ele>
        <time>2026-03-24T14:09:29.000Z</time>
      </trkpt>
      <trkpt lat="49.33263" lon="-0.5332">
        <ele>35.400001525879</ele>
        <time>2026-03-24T14:09:30.000Z</time>
      </trkpt>
      <trkpt lat="49.33261" lon="-0.5332">
        <ele>35.400001525879</ele>
        <time>2026-03-24T14:09:31.000Z</time>
      </trkpt>
      <trkpt lat="49.3326" lon="-0.5332">
        <ele>35.400001525879</ele>
        <time>2026-03-24T14:09:32.000Z</time>
      </trkpt>
      <trkpt lat="49.33259" lon="-0.53319">
        <ele>35.400001525879</ele>
        <time>2026-03-24T14:09:33.000Z</time>
      </trkpt>
      <trkpt lat="49.33257" lon="-0.53319">
        <ele>35.400001525879</ele>
        <time>2026-03-24T14:09:34.000Z</time>
      </trkpt>
      <trkpt lat="49.33256" lon="-0.53319">
        <ele>35.400001525879</ele>
        <time>2026-03-24T14:09:35.000Z</time>
      </trkpt>
      <trkpt lat="49.33255" lon="-0.53319">
        <ele>35.400001525879</ele>
        <time>2026-03-24T14:09:36.000Z</time>
      </trkpt>
      <trkpt lat="49.33254" lon="-0.53318">
        <ele>35.400001525879</ele>
        <time>2026-03-24T14:09:37.000Z</time>
      </trkpt>
      <trkpt lat="49.33252" lon="-0.53318">
        <ele>35.400001525879</ele>
        <time>2026-03-24T14:09:38.000Z</time>
      </trkpt>
      <trkpt lat="49.33251" lon="-0.53318">
        <ele>35.400001525879</ele>
        <time>2026-03-24T14:09:39.000Z</time>
      </trkpt>
      <trkpt lat="49.3325" lon="-0.53318">
        <ele>35.400001525879</ele>
        <time>2026-03-24T14:09:40.000Z</time>
      </trkpt>
      <trkpt lat="49.33249" lon="-0.53317">
        <ele>35.400001525879</ele>
        <time>2026-03-24T14:09:41.000Z</time>
      </trkpt>
      <trkpt lat="49.33248" lon="-0.53318">
        <ele>35.400001525879</ele>
        <time>2026-03-24T14:09:42.000Z</time>
      </trkpt>
      <trkpt lat="49.33247" lon="-0.53318">
        <ele>35.400001525879</ele>
        <time>2026-03-24T14:09:43.000Z</time>
      </trkpt>
      <trkpt lat="49.33246" lon="-0.53317">
        <ele>35.400001525879</ele>
        <time>2026-03-24T14:09:44.000Z</time>
      </trkpt>
      <trkpt lat="49.33245" lon="-0.53317">
        <ele>35.400001525879</ele>
        <time>2026-03-24T14:09:45.000Z</time>
      </trkpt>
      <trkpt lat="49.33244" lon="-0.53317">
        <ele>35.400001525879</ele>
        <time>2026-03-24T14:09:46.000Z</time>
      </trkpt>
      <trkpt lat="49.33243" lon="-0.53317">
        <ele>35.400001525879</ele>
        <time>2026-03-24T14:09:47.000Z</time>
      </trkpt>
      <trkpt lat="49.33242" lon="-0.53316">
        <ele>35.400001525879</ele>
        <time>2026-03-24T14:09:48.000Z</time>
      </trkpt>
      <trkpt lat="49.33241" lon="-0.53316">
        <ele>35.599998474121</ele>
        <time>2026-03-24T14:09:49.000Z</time>
      </trkpt>
      <trkpt lat="49.33241" lon="-0.53315">
        <ele>35.400001525879</ele>
        <time>2026-03-24T14:09:50.000Z</time>
      </trkpt>
      <trkpt lat="49.3324" lon="-0.53315">
        <ele>35.400001525879</ele>
        <time>2026-03-24T14:09:51.000Z</time>
      </trkpt>
      <trkpt lat="49.3324" lon="-0.53314">
        <ele>35.400001525879</ele>
        <time>2026-03-24T14:09:52.000Z</time>
      </trkpt>
      <trkpt lat="49.3324" lon="-0.53314">
        <ele>35.400001525879</ele>
        <time>2026-03-24T14:09:53.000Z</time>
      </trkpt>
      <trkpt lat="49.3324" lon="-0.53313">
        <ele>35.400001525879</ele>
        <time>2026-03-24T14:09:54.000Z</time>
      </trkpt>
      <trkpt lat="49.3324" lon="-0.53313">
        <ele>35.400001525879</ele>
        <time>2026-03-24T14:09:55.000Z</time>
      </trkpt>
      <trkpt lat="49.33239" lon="-0.53313">
        <ele>35.400001525879</ele>
        <time>2026-03-24T14:09:56.000Z</time>
      </trkpt>
      <trkpt lat="49.33239" lon="-0.53311">
        <ele>35.400001525879</ele>
        <time>2026-03-24T14:09:57.000Z</time>
      </trkpt>
      <trkpt lat="49.33239" lon="-0.53311">
        <ele>35.400001525879</ele>
        <time>2026-03-24T14:09:58.000Z</time>
      </trkpt>
      <trkpt lat="49.33238" lon="-0.53309">
        <ele>35.400001525879</ele>
        <time>2026-03-24T14:09:59.000Z</time>
      </trkpt>
      <trkpt lat="49.33238" lon="-0.53308">
        <ele>35.400001525879</ele>
        <time>2026-03-24T14:10:00.000Z</time>
      </trkpt>
      <trkpt lat="49.33238" lon="-0.53306">
        <ele>35.200000762939</ele>
        <time>2026-03-24T14:10:01.000Z</time>
      </trkpt>
      <trkpt lat="49.33238" lon="-0.53305">
        <ele>35.200000762939</ele>
        <time>2026-03-24T14:10:02.000Z</time>
      </trkpt>
      <trkpt lat="49.33238" lon="-0.53303">
        <ele>35.200000762939</ele>
        <time>2026-03-24T14:10:03.000Z</time>
      </trkpt>
      <trkpt lat="49.33238" lon="-0.53301">
        <ele>35</ele>
        <time>2026-03-24T14:10:04.000Z</time>
      </trkpt>
      <trkpt lat="49.33238" lon="-0.533">
        <ele>35</ele>
        <time>2026-03-24T14:10:05.000Z</time>
      </trkpt>
      <trkpt lat="49.33238" lon="-0.53298">
        <ele>35</ele>
        <time>2026-03-24T14:10:06.000Z</time>
      </trkpt>
      <trkpt lat="49.33238" lon="-0.53296">
        <ele>34.799999237061</ele>
        <time>2026-03-24T14:10:07.000Z</time>
      </trkpt>
      <trkpt lat="49.33238" lon="-0.53295">
        <ele>34.799999237061</ele>
        <time>2026-03-24T14:10:08.000Z</time>
      </trkpt>
      <trkpt lat="49.33239" lon="-0.53293">
        <ele>34.799999237061</ele>
        <time>2026-03-24T14:10:09.000Z</time>
      </trkpt>
      <trkpt lat="49.33239" lon="-0.53292">
        <ele>34.799999237061</ele>
        <time>2026-03-24T14:10:10.000Z</time>
      </trkpt>
      <trkpt lat="49.33239" lon="-0.53291">
        <ele>34.599998474121</ele>
        <time>2026-03-24T14:10:11.000Z</time>
      </trkpt>
      <trkpt lat="49.33239" lon="-0.53289">
        <ele>34.599998474121</ele>
        <time>2026-03-24T14:10:12.000Z</time>
      </trkpt>
      <trkpt lat="49.33239" lon="-0.53288">
        <ele>34.599998474121</ele>
        <time>2026-03-24T14:10:13.000Z</time>
      </trkpt>
      <trkpt lat="49.33239" lon="-0.53286">
        <ele>34.400001525879</ele>
        <time>2026-03-24T14:10:14.000Z</time>
      </trkpt>
      <trkpt lat="49.33239" lon="-0.53285">
        <ele>34.400001525879</ele>
        <time>2026-03-24T14:10:15.000Z</time>
      </trkpt>
      <trkpt lat="49.33239" lon="-0.53283">
        <ele>34.400001525879</ele>
        <time>2026-03-24T14:10:16.000Z</time>
      </trkpt>
      <trkpt lat="49.33239" lon="-0.53281">
        <ele>34.400001525879</ele>
        <time>2026-03-24T14:10:17.000Z</time>
      </trkpt>
      <trkpt lat="49.33239" lon="-0.5328">
        <ele>34.200000762939</ele>
        <time>2026-03-24T14:10:18.000Z</time>
      </trkpt>
      <trkpt lat="49.33238" lon="-0.53278">
        <ele>34.200000762939</ele>
        <time>2026-03-24T14:10:19.000Z</time>
      </trkpt>
      <trkpt lat="49.33238" lon="-0.53276">
        <ele>34.200000762939</ele>
        <time>2026-03-24T14:10:20.000Z</time>
      </trkpt>
      <trkpt lat="49.33239" lon="-0.53274">
        <ele>34</ele>
        <time>2026-03-24T14:10:21.000Z</time>
      </trkpt>
      <trkpt lat="49.33238" lon="-0.53272">
        <ele>34</ele>
        <time>2026-03-24T14:10:22.000Z</time>
      </trkpt>
      <trkpt lat="49.33238" lon="-0.5327">
        <ele>34</ele>
        <time>2026-03-24T14:10:23.000Z</time>
      </trkpt>
      <trkpt lat="49.33238" lon="-0.53268">
        <ele>33.799999237061</ele>
        <time>2026-03-24T14:10:24.000Z</time>
      </trkpt>
      <trkpt lat="49.33238" lon="-0.53266">
        <ele>33.799999237061</ele>
        <time>2026-03-24T14:10:25.000Z</time>
      </trkpt>
      <trkpt lat="49.33238" lon="-0.53264">
        <ele>33.799999237061</ele>
        <time>2026-03-24T14:10:26.000Z</time>
      </trkpt>
      <trkpt lat="49.33238" lon="-0.53262">
        <ele>33.599998474121</ele>
        <time>2026-03-24T14:10:27.000Z</time>
      </trkpt>
      <trkpt lat="49.33238" lon="-0.5326">
        <ele>33.599998474121</ele>
        <time>2026-03-24T14:10:28.000Z</time>
      </trkpt>
      <trkpt lat="49.33238" lon="-0.53258">
        <ele>33.599998474121</ele>
        <time>2026-03-24T14:10:29.000Z</time>
      </trkpt>
      <trkpt lat="49.33237" lon="-0.53256">
        <ele>33.400001525879</ele>
        <time>2026-03-24T14:10:30.000Z</time>
      </trkpt>
      <trkpt lat="49.33237" lon="-0.53255">
        <ele>33.400001525879</ele>
        <time>2026-03-24T14:10:31.000Z</time>
      </trkpt>
      <trkpt lat="49.33237" lon="-0.53253">
        <ele>33.400001525879</ele>
        <time>2026-03-24T14:10:32.000Z</time>
      </trkpt>
      <trkpt lat="49.33236" lon="-0.53251">
        <ele>33.400001525879</ele>
        <time>2026-03-24T14:10:33.000Z</time>
      </trkpt>
      <trkpt lat="49.33236" lon="-0.53249">
        <ele>33.400001525879</ele>
        <time>2026-03-24T14:10:34.000Z</time>
      </trkpt>
      <trkpt lat="49.33235" lon="-0.53247">
        <ele>33.400001525879</ele>
        <time>2026-03-24T14:10:35.000Z</time>
      </trkpt>
      <trkpt lat="49.33235" lon="-0.53245">
        <ele>33.400001525879</ele>
        <time>2026-03-24T14:10:36.000Z</time>
      </trkpt>
      <trkpt lat="49.33235" lon="-0.53244">
        <ele>33.400001525879</ele>
        <time>2026-03-24T14:10:37.000Z</time>
      </trkpt>
      <trkpt lat="49.33235" lon="-0.53243">
        <ele>33.400001525879</ele>
        <time>2026-03-24T14:10:38.000Z</time>
      </trkpt>
      <trkpt lat="49.33235" lon="-0.53242">
        <ele>33.400001525879</ele>
        <time>2026-03-24T14:10:39.000Z</time>
      </trkpt>
      <trkpt lat="49.33235" lon="-0.5324">
        <ele>33.400001525879</ele>
        <time>2026-03-24T14:10:40.000Z</time>
      </trkpt>
      <trkpt lat="49.33235" lon="-0.53239">
        <ele>33.400001525879</ele>
        <time>2026-03-24T14:10:41.000Z</time>
      </trkpt>
      <trkpt lat="49.33235" lon="-0.53238">
        <ele>33.400001525879</ele>
        <time>2026-03-24T14:10:42.000Z</time>
      </trkpt>
      <trkpt lat="49.33235" lon="-0.53236">
        <ele>33.400001525879</ele>
        <time>2026-03-24T14:10:43.000Z</time>
      </trkpt>
      <trkpt lat="49.33235" lon="-0.53234">
        <ele>33.400001525879</ele>
        <time>2026-03-24T14:10:44.000Z</time>
      </trkpt>
      <trkpt lat="49.33234" lon="-0.53233">
        <ele>33.400001525879</ele>
        <time>2026-03-24T14:10:45.000Z</time>
      </trkpt>
      <trkpt lat="49.33234" lon="-0.53231">
        <ele>33.200000762939</ele>
        <time>2026-03-24T14:10:46.000Z</time>
      </trkpt>
      <trkpt lat="49.33234" lon="-0.5323">
        <ele>33.200000762939</ele>
        <time>2026-03-24T14:10:47.000Z</time>
      </trkpt>
      <trkpt lat="49.33233" lon="-0.53229">
        <ele>33.200000762939</ele>
        <time>2026-03-24T14:10:48.000Z</time>
      </trkpt>
      <trkpt lat="49.33233" lon="-0.53227">
        <ele>33.200000762939</ele>
        <time>2026-03-24T14:10:49.000Z</time>
      </trkpt>
      <trkpt lat="49.33233" lon="-0.53226">
        <ele>33</ele>
        <time>2026-03-24T14:10:50.000Z</time>
      </trkpt>
      <trkpt lat="49.33233" lon="-0.53225">
        <ele>33</ele>
        <time>2026-03-24T14:10:51.000Z</time>
      </trkpt>
      <trkpt lat="49.33233" lon="-0.53223">
        <ele>33</ele>
        <time>2026-03-24T14:10:52.000Z</time>
      </trkpt>
      <trkpt lat="49.33232" lon="-0.53222">
        <ele>33</ele>
        <time>2026-03-24T14:10:53.000Z</time>
      </trkpt>
      <trkpt lat="49.33232" lon="-0.5322">
        <ele>33</ele>
        <time>2026-03-24T14:10:54.000Z</time>
      </trkpt>
      <trkpt lat="49.33232" lon="-0.53219">
        <ele>32.799999237061</ele>
        <time>2026-03-24T14:10:55.000Z</time>
      </trkpt>
      <trkpt lat="49.33231" lon="-0.53218">
        <ele>32.799999237061</ele>
        <time>2026-03-24T14:10:56.000Z</time>
      </trkpt>
      <trkpt lat="49.33231" lon="-0.53217">
        <ele>32.799999237061</ele>
        <time>2026-03-24T14:10:57.000Z</time>
      </trkpt>
      <trkpt lat="49.33231" lon="-0.53217">
        <ele>32.799999237061</ele>
        <time>2026-03-24T14:10:58.000Z</time>
      </trkpt>
      <trkpt lat="49.3323" lon="-0.53217">
        <ele>32.799999237061</ele>
        <time>2026-03-24T14:10:59.000Z</time>
      </trkpt>
      <trkpt lat="49.3323" lon="-0.53217">
        <ele>32.799999237061</ele>
        <time>2026-03-24T14:11:00.000Z</time>
      </trkpt>
      <trkpt lat="49.3323" lon="-0.53218">
        <ele>32.799999237061</ele>
        <time>2026-03-24T14:11:01.000Z</time>
      </trkpt>
      <trkpt lat="49.3323" lon="-0.53218">
        <ele>32.799999237061</ele>
        <time>2026-03-24T14:11:02.000Z</time>
      </trkpt>
      <trkpt lat="49.33229" lon="-0.53218">
        <ele>32.799999237061</ele>
        <time>2026-03-24T14:11:03.000Z</time>
      </trkpt>
      <trkpt lat="49.33229" lon="-0.53219">
        <ele>32.799999237061</ele>
        <time>2026-03-24T14:11:04.000Z</time>
      </trkpt>
      <trkpt lat="49.33229" lon="-0.5322">
        <ele>32.799999237061</ele>
        <time>2026-03-24T14:11:05.000Z</time>
      </trkpt>
      <trkpt lat="49.33229" lon="-0.5322">
        <ele>32.799999237061</ele>
        <time>2026-03-24T14:11:06.000Z</time>
      </trkpt>
      <trkpt lat="49.33229" lon="-0.5322">
        <ele>32.799999237061</ele>
        <time>2026-03-24T14:11:07.000Z</time>
      </trkpt>
      <trkpt lat="49.33229" lon="-0.5322">
        <ele>32.799999237061</ele>
        <time>2026-03-24T14:11:08.000Z</time>
      </trkpt>
      <trkpt lat="49.3323" lon="-0.53219">
        <ele>32.799999237061</ele>
        <time>2026-03-24T14:11:09.000Z</time>
      </trkpt>
      <trkpt lat="49.33231" lon="-0.53218">
        <ele>32.799999237061</ele>
        <time>2026-03-24T14:11:10.000Z</time>
      </trkpt>
      <trkpt lat="49.3323" lon="-0.53218">
        <ele>32.799999237061</ele>
        <time>2026-03-24T14:11:11.000Z</time>
      </trkpt>
      <trkpt lat="49.3323" lon="-0.53217">
        <ele>32.799999237061</ele>
        <time>2026-03-24T14:11:12.000Z</time>
      </trkpt>
      <trkpt lat="49.3323" lon="-0.53217">
        <ele>32.799999237061</ele>
        <time>2026-03-24T14:11:13.000Z</time>
      </trkpt>
      <trkpt lat="49.3323" lon="-0.53215">
        <ele>32.799999237061</ele>
        <time>2026-03-24T14:11:14.000Z</time>
      </trkpt>
      <trkpt lat="49.3323" lon="-0.53214">
        <ele>32.599998474121</ele>
        <time>2026-03-24T14:11:15.000Z</time>
      </trkpt>
      <trkpt lat="49.33228" lon="-0.53211">
        <ele>32.599998474121</ele>
        <time>2026-03-24T14:11:16.000Z</time>
      </trkpt>
      <trkpt lat="49.33228" lon="-0.5321">
        <ele>32.599998474121</ele>
        <time>2026-03-24T14:11:17.000Z</time>
      </trkpt>
      <trkpt lat="49.33228" lon="-0.53208">
        <ele>32.599998474121</ele>
        <time>2026-03-24T14:11:18.000Z</time>
      </trkpt>
      <trkpt lat="49.33228" lon="-0.53206">
        <ele>32.599998474121</ele>
        <time>2026-03-24T14:11:19.000Z</time>
      </trkpt>
      <trkpt lat="49.33228" lon="-0.53204">
        <ele>32.599998474121</ele>
        <time>2026-03-24T14:11:20.000Z</time>
      </trkpt>
      <trkpt lat="49.33228" lon="-0.53203">
        <ele>32.599998474121</ele>
        <time>2026-03-24T14:11:21.000Z</time>
      </trkpt>
      <trkpt lat="49.33228" lon="-0.53201">
        <ele>32.599998474121</ele>
        <time>2026-03-24T14:11:22.000Z</time>
      </trkpt>
      <trkpt lat="49.33227" lon="-0.532">
        <ele>32.599998474121</ele>
        <time>2026-03-24T14:11:23.000Z</time>
      </trkpt>
      <trkpt lat="49.33227" lon="-0.53199">
        <ele>32.599998474121</ele>
        <time>2026-03-24T14:11:24.000Z</time>
      </trkpt>
      <trkpt lat="49.33227" lon="-0.53197">
        <ele>32.599998474121</ele>
        <time>2026-03-24T14:11:25.000Z</time>
      </trkpt>
      <trkpt lat="49.33227" lon="-0.53196">
        <ele>32.599998474121</ele>
        <time>2026-03-24T14:11:26.000Z</time>
      </trkpt>
      <trkpt lat="49.33227" lon="-0.53194">
        <ele>32.799999237061</ele>
        <time>2026-03-24T14:11:27.000Z</time>
      </trkpt>
      <trkpt lat="49.33226" lon="-0.53193">
        <ele>32.799999237061</ele>
        <time>2026-03-24T14:11:28.000Z</time>
      </trkpt>
      <trkpt lat="49.33226" lon="-0.53191">
        <ele>32.799999237061</ele>
        <time>2026-03-24T14:11:29.000Z</time>
      </trkpt>
      <trkpt lat="49.33225" lon="-0.5319">
        <ele>33</ele>
        <time>2026-03-24T14:11:30.000Z</time>
      </trkpt>
      <trkpt lat="49.33225" lon="-0.53188">
        <ele>33</ele>
        <time>2026-03-24T14:11:31.000Z</time>
      </trkpt>
      <trkpt lat="49.33224" lon="-0.53186">
        <ele>33</ele>
        <time>2026-03-24T14:11:32.000Z</time>
      </trkpt>
      <trkpt lat="49.33224" lon="-0.53185">
        <ele>33</ele>
        <time>2026-03-24T14:11:33.000Z</time>
      </trkpt>
      <trkpt lat="49.33224" lon="-0.53183">
        <ele>33</ele>
        <time>2026-03-24T14:11:34.000Z</time>
      </trkpt>
      <trkpt lat="49.33223" lon="-0.53181">
        <ele>33</ele>
        <time>2026-03-24T14:11:35.000Z</time>
      </trkpt>
      <trkpt lat="49.33223" lon="-0.53179">
        <ele>33</ele>
        <time>2026-03-24T14:11:36.000Z</time>
      </trkpt>
      <trkpt lat="49.33222" lon="-0.53178">
        <ele>33</ele>
        <time>2026-03-24T14:11:37.000Z</time>
      </trkpt>
      <trkpt lat="49.33222" lon="-0.53176">
        <ele>33</ele>
        <time>2026-03-24T14:11:38.000Z</time>
      </trkpt>
      <trkpt lat="49.33221" lon="-0.53174">
        <ele>33</ele>
        <time>2026-03-24T14:11:39.000Z</time>
      </trkpt>
      <trkpt lat="49.3322" lon="-0.53173">
        <ele>33</ele>
        <time>2026-03-24T14:11:40.000Z</time>
      </trkpt>
      <trkpt lat="49.3322" lon="-0.53171">
        <ele>33</ele>
        <time>2026-03-24T14:11:41.000Z</time>
      </trkpt>
      <trkpt lat="49.33219" lon="-0.5317">
        <ele>33</ele>
        <time>2026-03-24T14:11:42.000Z</time>
      </trkpt>
      <trkpt lat="49.33218" lon="-0.53168">
        <ele>33</ele>
        <time>2026-03-24T14:11:43.000Z</time>
      </trkpt>
      <trkpt lat="49.33218" lon="-0.53167">
        <ele>33</ele>
        <time>2026-03-24T14:11:44.000Z</time>
      </trkpt>
      <trkpt lat="49.33217" lon="-0.53166">
        <ele>33</ele>
        <time>2026-03-24T14:11:45.000Z</time>
      </trkpt>
      <trkpt lat="49.33217" lon="-0.53164">
        <ele>33</ele>
        <time>2026-03-24T14:11:46.000Z</time>
      </trkpt>
      <trkpt lat="49.33216" lon="-0.53163">
        <ele>33</ele>
        <time>2026-03-24T14:11:47.000Z</time>
      </trkpt>
      <trkpt lat="49.33215" lon="-0.53162">
        <ele>33</ele>
        <time>2026-03-24T14:11:48.000Z</time>
      </trkpt>
      <trkpt lat="49.33215" lon="-0.5316">
        <ele>33</ele>
        <time>2026-03-24T14:11:49.000Z</time>
      </trkpt>
      <trkpt lat="49.33214" lon="-0.53159">
        <ele>33</ele>
        <time>2026-03-24T14:11:50.000Z</time>
      </trkpt>
      <trkpt lat="49.33213" lon="-0.53158">
        <ele>33</ele>
        <time>2026-03-24T14:11:51.000Z</time>
      </trkpt>
      <trkpt lat="49.33213" lon="-0.53156">
        <ele>33</ele>
        <time>2026-03-24T14:11:52.000Z</time>
      </trkpt>
      <trkpt lat="49.33212" lon="-0.53155">
        <ele>33</ele>
        <time>2026-03-24T14:11:53.000Z</time>
      </trkpt>
      <trkpt lat="49.33211" lon="-0.53154">
        <ele>33</ele>
        <time>2026-03-24T14:11:54.000Z</time>
      </trkpt>
      <trkpt lat="49.3321" lon="-0.53152">
        <ele>33</ele>
        <time>2026-03-24T14:11:55.000Z</time>
      </trkpt>
      <trkpt lat="49.33209" lon="-0.53151">
        <ele>33</ele>
        <time>2026-03-24T14:11:56.000Z</time>
      </trkpt>
      <trkpt lat="49.33208" lon="-0.5315">
        <ele>33</ele>
        <time>2026-03-24T14:11:57.000Z</time>
      </trkpt>
      <trkpt lat="49.33207" lon="-0.53149">
        <ele>33</ele>
        <time>2026-03-24T14:11:58.000Z</time>
      </trkpt>
      <trkpt lat="49.33206" lon="-0.53148">
        <ele>32.799999237061</ele>
        <time>2026-03-24T14:11:59.000Z</time>
      </trkpt>
      <trkpt lat="49.33206" lon="-0.53146">
        <ele>32.799999237061</ele>
        <time>2026-03-24T14:12:00.000Z</time>
      </trkpt>
      <trkpt lat="49.33205" lon="-0.53145">
        <ele>32.799999237061</ele>
        <time>2026-03-24T14:12:01.000Z</time>
      </trkpt>
      <trkpt lat="49.33204" lon="-0.53144">
        <ele>32.599998474121</ele>
        <time>2026-03-24T14:12:02.000Z</time>
      </trkpt>
      <trkpt lat="49.33203" lon="-0.53142">
        <ele>32.599998474121</ele>
        <time>2026-03-24T14:12:03.000Z</time>
      </trkpt>
      <trkpt lat="49.33202" lon="-0.5314">
        <ele>32.400001525879</ele>
        <time>2026-03-24T14:12:04.000Z</time>
      </trkpt>
      <trkpt lat="49.33201" lon="-0.53139">
        <ele>32.400001525879</ele>
        <time>2026-03-24T14:12:05.000Z</time>
      </trkpt>
      <trkpt lat="49.33201" lon="-0.53137">
        <ele>32.200000762939</ele>
        <time>2026-03-24T14:12:06.000Z</time>
      </trkpt>
      <trkpt lat="49.332" lon="-0.53136">
        <ele>32.200000762939</ele>
        <time>2026-03-24T14:12:07.000Z</time>
      </trkpt>
      <trkpt lat="49.33199" lon="-0.53134">
        <ele>32.200000762939</ele>
        <time>2026-03-24T14:12:08.000Z</time>
      </trkpt>
      <trkpt lat="49.33198" lon="-0.53132">
        <ele>32</ele>
        <time>2026-03-24T14:12:09.000Z</time>
      </trkpt>
      <trkpt lat="49.33198" lon="-0.53131">
        <ele>32</ele>
        <time>2026-03-24T14:12:10.000Z</time>
      </trkpt>
      <trkpt lat="49.33197" lon="-0.53129">
        <ele>32</ele>
        <time>2026-03-24T14:12:11.000Z</time>
      </trkpt>
      <trkpt lat="49.33195" lon="-0.53128">
        <ele>32</ele>
        <time>2026-03-24T14:12:12.000Z</time>
      </trkpt>
      <trkpt lat="49.33194" lon="-0.53126">
        <ele>32</ele>
        <time>2026-03-24T14:12:13.000Z</time>
      </trkpt>
      <trkpt lat="49.33193" lon="-0.53125">
        <ele>32</ele>
        <time>2026-03-24T14:12:14.000Z</time>
      </trkpt>
      <trkpt lat="49.33193" lon="-0.53124">
        <ele>32</ele>
        <time>2026-03-24T14:12:15.000Z</time>
      </trkpt>
      <trkpt lat="49.33192" lon="-0.53122">
        <ele>32</ele>
        <time>2026-03-24T14:12:16.000Z</time>
      </trkpt>
      <trkpt lat="49.33192" lon="-0.53121">
        <ele>32</ele>
        <time>2026-03-24T14:12:17.000Z</time>
      </trkpt>
      <trkpt lat="49.33191" lon="-0.53119">
        <ele>32</ele>
        <time>2026-03-24T14:12:18.000Z</time>
      </trkpt>
      <trkpt lat="49.33191" lon="-0.53118">
        <ele>32</ele>
        <time>2026-03-24T14:12:19.000Z</time>
      </trkpt>
      <trkpt lat="49.3319" lon="-0.53117">
        <ele>32</ele>
        <time>2026-03-24T14:12:20.000Z</time>
      </trkpt>
      <trkpt lat="49.3319" lon="-0.53116">
        <ele>32</ele>
        <time>2026-03-24T14:12:21.000Z</time>
      </trkpt>
      <trkpt lat="49.3319" lon="-0.53115">
        <ele>32</ele>
        <time>2026-03-24T14:12:22.000Z</time>
      </trkpt>
      <trkpt lat="49.33189" lon="-0.53114">
        <ele>32</ele>
        <time>2026-03-24T14:12:23.000Z</time>
      </trkpt>
      <trkpt lat="49.33188" lon="-0.53113">
        <ele>32</ele>
        <time>2026-03-24T14:12:24.000Z</time>
      </trkpt>
      <trkpt lat="49.33188" lon="-0.53112">
        <ele>32</ele>
        <time>2026-03-24T14:12:25.000Z</time>
      </trkpt>
      <trkpt lat="49.33187" lon="-0.5311">
        <ele>32</ele>
        <time>2026-03-24T14:12:26.000Z</time>
      </trkpt>
      <trkpt lat="49.33187" lon="-0.53109">
        <ele>32</ele>
        <time>2026-03-24T14:12:27.000Z</time>
      </trkpt>
      <trkpt lat="49.33186" lon="-0.53107">
        <ele>32</ele>
        <time>2026-03-24T14:12:28.000Z</time>
      </trkpt>
      <trkpt lat="49.33186" lon="-0.53106">
        <ele>32</ele>
        <time>2026-03-24T14:12:29.000Z</time>
      </trkpt>
      <trkpt lat="49.33185" lon="-0.53105">
        <ele>32</ele>
        <time>2026-03-24T14:12:30.000Z</time>
      </trkpt>
      <trkpt lat="49.33185" lon="-0.53103">
        <ele>32</ele>
        <time>2026-03-24T14:12:31.000Z</time>
      </trkpt>
      <trkpt lat="49.33184" lon="-0.53101">
        <ele>32</ele>
        <time>2026-03-24T14:12:32.000Z</time>
      </trkpt>
      <trkpt lat="49.33184" lon="-0.531">
        <ele>32</ele>
        <time>2026-03-24T14:12:33.000Z</time>
      </trkpt>
      <trkpt lat="49.33183" lon="-0.53099">
        <ele>32</ele>
        <time>2026-03-24T14:12:34.000Z</time>
      </trkpt>
      <trkpt lat="49.33183" lon="-0.53097">
        <ele>32</ele>
        <time>2026-03-24T14:12:35.000Z</time>
      </trkpt>
      <trkpt lat="49.33182" lon="-0.53096">
        <ele>32</ele>
        <time>2026-03-24T14:12:36.000Z</time>
      </trkpt>
      <trkpt lat="49.33182" lon="-0.53095">
        <ele>32</ele>
        <time>2026-03-24T14:12:37.000Z</time>
      </trkpt>
      <trkpt lat="49.33181" lon="-0.53094">
        <ele>32</ele>
        <time>2026-03-24T14:12:38.000Z</time>
      </trkpt>
      <trkpt lat="49.3318" lon="-0.53093">
        <ele>32</ele>
        <time>2026-03-24T14:12:39.000Z</time>
      </trkpt>
      <trkpt lat="49.3318" lon="-0.53092">
        <ele>32</ele>
        <time>2026-03-24T14:12:40.000Z</time>
      </trkpt>
      <trkpt lat="49.3318" lon="-0.5309">
        <ele>31.799999237061</ele>
        <time>2026-03-24T14:12:41.000Z</time>
      </trkpt>
      <trkpt lat="49.33179" lon="-0.53089">
        <ele>31.799999237061</ele>
        <time>2026-03-24T14:12:42.000Z</time>
      </trkpt>
      <trkpt lat="49.33178" lon="-0.53087">
        <ele>31.799999237061</ele>
        <time>2026-03-24T14:12:43.000Z</time>
      </trkpt>
      <trkpt lat="49.33178" lon="-0.53086">
        <ele>31.60000038147</ele>
        <time>2026-03-24T14:12:44.000Z</time>
      </trkpt>
      <trkpt lat="49.33177" lon="-0.53084">
        <ele>31.60000038147</ele>
        <time>2026-03-24T14:12:45.000Z</time>
      </trkpt>
      <trkpt lat="49.33177" lon="-0.53083">
        <ele>31.39999961853</ele>
        <time>2026-03-24T14:12:46.000Z</time>
      </trkpt>
      <trkpt lat="49.33176" lon="-0.53081">
        <ele>31.39999961853</ele>
        <time>2026-03-24T14:12:47.000Z</time>
      </trkpt>
      <trkpt lat="49.33176" lon="-0.53079">
        <ele>31.200000762939</ele>
        <time>2026-03-24T14:12:48.000Z</time>
      </trkpt>
      <trkpt lat="49.33175" lon="-0.53077">
        <ele>31.200000762939</ele>
        <time>2026-03-24T14:12:49.000Z</time>
      </trkpt>
      <trkpt lat="49.33174" lon="-0.53075">
        <ele>31.200000762939</ele>
        <time>2026-03-24T14:12:50.000Z</time>
      </trkpt>
      <trkpt lat="49.33173" lon="-0.53073">
        <ele>31</ele>
        <time>2026-03-24T14:12:51.000Z</time>
      </trkpt>
      <trkpt lat="49.33173" lon="-0.53071">
        <ele>31</ele>
        <time>2026-03-24T14:12:52.000Z</time>
      </trkpt>
      <trkpt lat="49.33172" lon="-0.53069">
        <ele>31</ele>
        <time>2026-03-24T14:12:53.000Z</time>
      </trkpt>
      <trkpt lat="49.33171" lon="-0.53067">
        <ele>31</ele>
        <time>2026-03-24T14:12:54.000Z</time>
      </trkpt>
      <trkpt lat="49.33171" lon="-0.53065">
        <ele>31</ele>
        <time>2026-03-24T14:12:55.000Z</time>
      </trkpt>
      <trkpt lat="49.3317" lon="-0.53064">
        <ele>31</ele>
        <time>2026-03-24T14:12:56.000Z</time>
      </trkpt>
      <trkpt lat="49.3317" lon="-0.53062">
        <ele>31</ele>
        <time>2026-03-24T14:12:57.000Z</time>
      </trkpt>
      <trkpt lat="49.33169" lon="-0.53061">
        <ele>31</ele>
        <time>2026-03-24T14:12:58.000Z</time>
      </trkpt>
      <trkpt lat="49.33168" lon="-0.53059">
        <ele>31</ele>
        <time>2026-03-24T14:12:59.000Z</time>
      </trkpt>
      <trkpt lat="49.33168" lon="-0.53058">
        <ele>31</ele>
        <time>2026-03-24T14:13:00.000Z</time>
      </trkpt>
      <trkpt lat="49.33167" lon="-0.53056">
        <ele>31</ele>
        <time>2026-03-24T14:13:01.000Z</time>
      </trkpt>
      <trkpt lat="49.33167" lon="-0.53055">
        <ele>31</ele>
        <time>2026-03-24T14:13:02.000Z</time>
      </trkpt>
      <trkpt lat="49.33166" lon="-0.53054">
        <ele>31</ele>
        <time>2026-03-24T14:13:03.000Z</time>
      </trkpt>
      <trkpt lat="49.33166" lon="-0.53052">
        <ele>31.200000762939</ele>
        <time>2026-03-24T14:13:04.000Z</time>
      </trkpt>
      <trkpt lat="49.33166" lon="-0.53051">
        <ele>31.200000762939</ele>
        <time>2026-03-24T14:13:05.000Z</time>
      </trkpt>
      <trkpt lat="49.33165" lon="-0.5305">
        <ele>31.200000762939</ele>
        <time>2026-03-24T14:13:06.000Z</time>
      </trkpt>
      <trkpt lat="49.33165" lon="-0.53048">
        <ele>31.39999961853</ele>
        <time>2026-03-24T14:13:07.000Z</time>
      </trkpt>
      <trkpt lat="49.33165" lon="-0.53046">
        <ele>31.39999961853</ele>
        <time>2026-03-24T14:13:08.000Z</time>
      </trkpt>
      <trkpt lat="49.33164" lon="-0.53044">
        <ele>31.39999961853</ele>
        <time>2026-03-24T14:13:09.000Z</time>
      </trkpt>
      <trkpt lat="49.33164" lon="-0.53043">
        <ele>31.39999961853</ele>
        <time>2026-03-24T14:13:10.000Z</time>
      </trkpt>
      <trkpt lat="49.33164" lon="-0.53041">
        <ele>31.60000038147</ele>
        <time>2026-03-24T14:13:11.000Z</time>
      </trkpt>
      <trkpt lat="49.33163" lon="-0.53039">
        <ele>31.60000038147</ele>
        <time>2026-03-24T14:13:12.000Z</time>
      </trkpt>
      <trkpt lat="49.33163" lon="-0.53037">
        <ele>31.60000038147</ele>
        <time>2026-03-24T14:13:13.000Z</time>
      </trkpt>
      <trkpt lat="49.33162" lon="-0.53036">
        <ele>31.799999237061</ele>
        <time>2026-03-24T14:13:14.000Z</time>
      </trkpt>
      <trkpt lat="49.33161" lon="-0.53034">
        <ele>31.799999237061</ele>
        <time>2026-03-24T14:13:15.000Z</time>
      </trkpt>
      <trkpt lat="49.33161" lon="-0.53033">
        <ele>31.799999237061</ele>
        <time>2026-03-24T14:13:16.000Z</time>
      </trkpt>
      <trkpt lat="49.3316" lon="-0.53031">
        <ele>32</ele>
        <time>2026-03-24T14:13:17.000Z</time>
      </trkpt>
      <trkpt lat="49.3316" lon="-0.5303">
        <ele>32</ele>
        <time>2026-03-24T14:13:18.000Z</time>
      </trkpt>
      <trkpt lat="49.33159" lon="-0.53028">
        <ele>32</ele>
        <time>2026-03-24T14:13:19.000Z</time>
      </trkpt>
      <trkpt lat="49.33159" lon="-0.53027">
        <ele>32.200000762939</ele>
        <time>2026-03-24T14:13:20.000Z</time>
      </trkpt>
      <trkpt lat="49.33159" lon="-0.53025">
        <ele>32.200000762939</ele>
        <time>2026-03-24T14:13:21.000Z</time>
      </trkpt>
      <trkpt lat="49.33158" lon="-0.53024">
        <ele>32.200000762939</ele>
        <time>2026-03-24T14:13:22.000Z</time>
      </trkpt>
      <trkpt lat="49.33157" lon="-0.53022">
        <ele>32.200000762939</ele>
        <time>2026-03-24T14:13:23.000Z</time>
      </trkpt>
      <trkpt lat="49.33157" lon="-0.53021">
        <ele>32.200000762939</ele>
        <time>2026-03-24T14:13:24.000Z</time>
      </trkpt>
      <trkpt lat="49.33156" lon="-0.5302">
        <ele>32.200000762939</ele>
        <time>2026-03-24T14:13:25.000Z</time>
      </trkpt>
      <trkpt lat="49.33156" lon="-0.53019">
        <ele>32.200000762939</ele>
        <time>2026-03-24T14:13:26.000Z</time>
      </trkpt>
      <trkpt lat="49.33155" lon="-0.53018">
        <ele>32.200000762939</ele>
        <time>2026-03-24T14:13:27.000Z</time>
      </trkpt>
      <trkpt lat="49.33155" lon="-0.53017">
        <ele>32.200000762939</ele>
        <time>2026-03-24T14:13:28.000Z</time>
      </trkpt>
      <trkpt lat="49.33155" lon="-0.53017">
        <ele>32.200000762939</ele>
        <time>2026-03-24T14:13:29.000Z</time>
      </trkpt>
      <trkpt lat="49.33154" lon="-0.53016">
        <ele>32.200000762939</ele>
        <time>2026-03-24T14:13:30.000Z</time>
      </trkpt>
      <trkpt lat="49.33154" lon="-0.53014">
        <ele>32.200000762939</ele>
        <time>2026-03-24T14:13:31.000Z</time>
      </trkpt>
      <trkpt lat="49.33154" lon="-0.53013">
        <ele>32.200000762939</ele>
        <time>2026-03-24T14:13:32.000Z</time>
      </trkpt>
      <trkpt lat="49.33154" lon="-0.53012">
        <ele>32.400001525879</ele>
        <time>2026-03-24T14:13:33.000Z</time>
      </trkpt>
      <trkpt lat="49.33153" lon="-0.53011">
        <ele>32.400001525879</ele>
        <time>2026-03-24T14:13:34.000Z</time>
      </trkpt>
      <trkpt lat="49.33153" lon="-0.53009">
        <ele>32.400001525879</ele>
        <time>2026-03-24T14:13:35.000Z</time>
      </trkpt>
      <trkpt lat="49.33152" lon="-0.53008">
        <ele>32.400001525879</ele>
        <time>2026-03-24T14:13:36.000Z</time>
      </trkpt>
      <trkpt lat="49.33152" lon="-0.53006">
        <ele>32.400001525879</ele>
        <time>2026-03-24T14:13:37.000Z</time>
      </trkpt>
      <trkpt lat="49.33151" lon="-0.53005">
        <ele>32.400001525879</ele>
        <time>2026-03-24T14:13:38.000Z</time>
      </trkpt>
      <trkpt lat="49.3315" lon="-0.53003">
        <ele>32.400001525879</ele>
        <time>2026-03-24T14:13:39.000Z</time>
      </trkpt>
      <trkpt lat="49.3315" lon="-0.53002">
        <ele>32.400001525879</ele>
        <time>2026-03-24T14:13:40.000Z</time>
      </trkpt>
      <trkpt lat="49.33149" lon="-0.53001">
        <ele>32.400001525879</ele>
        <time>2026-03-24T14:13:41.000Z</time>
      </trkpt>
      <trkpt lat="49.33149" lon="-0.53">
        <ele>32.400001525879</ele>
        <time>2026-03-24T14:13:42.000Z</time>
      </trkpt>
      <trkpt lat="49.33148" lon="-0.52999">
        <ele>32.400001525879</ele>
        <time>2026-03-24T14:13:43.000Z</time>
      </trkpt>
      <trkpt lat="49.33148" lon="-0.52997">
        <ele>32.400001525879</ele>
        <time>2026-03-24T14:13:44.000Z</time>
      </trkpt>
      <trkpt lat="49.33148" lon="-0.52996">
        <ele>32.599998474121</ele>
        <time>2026-03-24T14:13:45.000Z</time>
      </trkpt>
      <trkpt lat="49.33147" lon="-0.52995">
        <ele>32.599998474121</ele>
        <time>2026-03-24T14:13:46.000Z</time>
      </trkpt>
      <trkpt lat="49.33146" lon="-0.52994">
        <ele>32.599998474121</ele>
        <time>2026-03-24T14:13:47.000Z</time>
      </trkpt>
      <trkpt lat="49.33145" lon="-0.52993">
        <ele>32.599998474121</ele>
        <time>2026-03-24T14:13:48.000Z</time>
      </trkpt>
      <trkpt lat="49.33145" lon="-0.52991">
        <ele>32.599998474121</ele>
        <time>2026-03-24T14:13:49.000Z</time>
      </trkpt>
      <trkpt lat="49.33144" lon="-0.5299">
        <ele>32.599998474121</ele>
        <time>2026-03-24T14:13:50.000Z</time>
      </trkpt>
      <trkpt lat="49.33144" lon="-0.52988">
        <ele>32.599998474121</ele>
        <time>2026-03-24T14:13:51.000Z</time>
      </trkpt>
      <trkpt lat="49.33143" lon="-0.52987">
        <ele>32.599998474121</ele>
        <time>2026-03-24T14:13:52.000Z</time>
      </trkpt>
      <trkpt lat="49.33142" lon="-0.52986">
        <ele>32.799999237061</ele>
        <time>2026-03-24T14:13:53.000Z</time>
      </trkpt>
      <trkpt lat="49.33142" lon="-0.52985">
        <ele>32.799999237061</ele>
        <time>2026-03-24T14:13:54.000Z</time>
      </trkpt>
      <trkpt lat="49.33141" lon="-0.52984">
        <ele>32.799999237061</ele>
        <time>2026-03-24T14:13:55.000Z</time>
      </trkpt>
      <trkpt lat="49.3314" lon="-0.52983">
        <ele>32.799999237061</ele>
        <time>2026-03-24T14:13:56.000Z</time>
      </trkpt>
      <trkpt lat="49.3314" lon="-0.52982">
        <ele>32.799999237061</ele>
        <time>2026-03-24T14:13:57.000Z</time>
      </trkpt>
      <trkpt lat="49.3314" lon="-0.52981">
        <ele>32.799999237061</ele>
        <time>2026-03-24T14:13:58.000Z</time>
      </trkpt>
      <trkpt lat="49.33139" lon="-0.5298">
        <ele>32.799999237061</ele>
        <time>2026-03-24T14:13:59.000Z</time>
      </trkpt>
      <trkpt lat="49.33139" lon="-0.52979">
        <ele>32.799999237061</ele>
        <time>2026-03-24T14:14:00.000Z</time>
      </trkpt>
      <trkpt lat="49.33139" lon="-0.52978">
        <ele>32.799999237061</ele>
        <time>2026-03-24T14:14:01.000Z</time>
      </trkpt>
      <trkpt lat="49.33138" lon="-0.52977">
        <ele>32.799999237061</ele>
        <time>2026-03-24T14:14:02.000Z</time>
      </trkpt>
      <trkpt lat="49.33138" lon="-0.52975">
        <ele>32.799999237061</ele>
        <time>2026-03-24T14:14:03.000Z</time>
      </trkpt>
      <trkpt lat="49.33138" lon="-0.52974">
        <ele>32.799999237061</ele>
        <time>2026-03-24T14:14:04.000Z</time>
      </trkpt>
      <trkpt lat="49.33137" lon="-0.52973">
        <ele>32.799999237061</ele>
        <time>2026-03-24T14:14:05.000Z</time>
      </trkpt>
      <trkpt lat="49.33137" lon="-0.52972">
        <ele>33</ele>
        <time>2026-03-24T14:14:06.000Z</time>
      </trkpt>
      <trkpt lat="49.33136" lon="-0.52971">
        <ele>33</ele>
        <time>2026-03-24T14:14:07.000Z</time>
      </trkpt>
      <trkpt lat="49.33136" lon="-0.5297">
        <ele>33</ele>
        <time>2026-03-24T14:14:08.000Z</time>
      </trkpt>
      <trkpt lat="49.33135" lon="-0.52969">
        <ele>33.200000762939</ele>
        <time>2026-03-24T14:14:09.000Z</time>
      </trkpt>
      <trkpt lat="49.33134" lon="-0.52968">
        <ele>33.200000762939</ele>
        <time>2026-03-24T14:14:10.000Z</time>
      </trkpt>
      <trkpt lat="49.33133" lon="-0.52967">
        <ele>33.200000762939</ele>
        <time>2026-03-24T14:14:11.000Z</time>
      </trkpt>
      <trkpt lat="49.33133" lon="-0.52967">
        <ele>33.200000762939</ele>
        <time>2026-03-24T14:14:12.000Z</time>
      </trkpt>
      <trkpt lat="49.33132" lon="-0.52966">
        <ele>33.400001525879</ele>
        <time>2026-03-24T14:14:13.000Z</time>
      </trkpt>
      <trkpt lat="49.33132" lon="-0.52967">
        <ele>33.400001525879</ele>
        <time>2026-03-24T14:14:14.000Z</time>
      </trkpt>
      <trkpt lat="49.33132" lon="-0.52967">
        <ele>33.400001525879</ele>
        <time>2026-03-24T14:14:15.000Z</time>
      </trkpt>
      <trkpt lat="49.33132" lon="-0.52967">
        <ele>33.400001525879</ele>
        <time>2026-03-24T14:14:16.000Z</time>
      </trkpt>
      <trkpt lat="49.33131" lon="-0.52966">
        <ele>33.400001525879</ele>
        <time>2026-03-24T14:14:17.000Z</time>
      </trkpt>
      <trkpt lat="49.33131" lon="-0.52966">
        <ele>33.400001525879</ele>
        <time>2026-03-24T14:14:18.000Z</time>
      </trkpt>
      <trkpt lat="49.33131" lon="-0.52965">
        <ele>33.400001525879</ele>
        <time>2026-03-24T14:14:19.000Z</time>
      </trkpt>
      <trkpt lat="49.33131" lon="-0.52965">
        <ele>33.400001525879</ele>
        <time>2026-03-24T14:14:20.000Z</time>
      </trkpt>
      <trkpt lat="49.33131" lon="-0.52965">
        <ele>33.400001525879</ele>
        <time>2026-03-24T14:14:21.000Z</time>
      </trkpt>
      <trkpt lat="49.33131" lon="-0.52965">
        <ele>33.400001525879</ele>
        <time>2026-03-24T14:14:22.000Z</time>
      </trkpt>
      <trkpt lat="49.33131" lon="-0.52964">
        <ele>33.400001525879</ele>
        <time>2026-03-24T14:14:23.000Z</time>
      </trkpt>
      <trkpt lat="49.33131" lon="-0.52964">
        <ele>33.400001525879</ele>
        <time>2026-03-24T14:14:24.000Z</time>
      </trkpt>
      <trkpt lat="49.33131" lon="-0.52964">
        <ele>33.400001525879</ele>
        <time>2026-03-24T14:14:25.000Z</time>
      </trkpt>
      <trkpt lat="49.3313" lon="-0.52964">
        <ele>33.400001525879</ele>
        <time>2026-03-24T14:14:26.000Z</time>
      </trkpt>
      <trkpt lat="49.3313" lon="-0.52964">
        <ele>33.400001525879</ele>
        <time>2026-03-24T14:14:27.000Z</time>
      </trkpt>
      <trkpt lat="49.33129" lon="-0.52964">
        <ele>33.599998474121</ele>
        <time>2026-03-24T14:14:28.000Z</time>
      </trkpt>
      <trkpt lat="49.33128" lon="-0.52964">
        <ele>33.599998474121</ele>
        <time>2026-03-24T14:14:29.000Z</time>
      </trkpt>
      <trkpt lat="49.33127" lon="-0.52964">
        <ele>33.599998474121</ele>
        <time>2026-03-24T14:14:30.000Z</time>
      </trkpt>
      <trkpt lat="49.33127" lon="-0.52965">
        <ele>33.599998474121</ele>
        <time>2026-03-24T14:14:31.000Z</time>
      </trkpt>
      <trkpt lat="49.33126" lon="-0.52964">
        <ele>33.599998474121</ele>
        <time>2026-03-24T14:14:32.000Z</time>
      </trkpt>
      <trkpt lat="49.33125" lon="-0.52964">
        <ele>33.599998474121</ele>
        <time>2026-03-24T14:14:33.000Z</time>
      </trkpt>
      <trkpt lat="49.33124" lon="-0.52964">
        <ele>33.599998474121</ele>
        <time>2026-03-24T14:14:34.000Z</time>
      </trkpt>
      <trkpt lat="49.33123" lon="-0.52964">
        <ele>33.799999237061</ele>
        <time>2026-03-24T14:14:35.000Z</time>
      </trkpt>
      <trkpt lat="49.33121" lon="-0.52964">
        <ele>33.799999237061</ele>
        <time>2026-03-24T14:14:36.000Z</time>
      </trkpt>
      <trkpt lat="49.3312" lon="-0.52964">
        <ele>33.799999237061</ele>
        <time>2026-03-24T14:14:37.000Z</time>
      </trkpt>
      <trkpt lat="49.33119" lon="-0.52964">
        <ele>33.799999237061</ele>
        <time>2026-03-24T14:14:38.000Z</time>
      </trkpt>
      <trkpt lat="49.33118" lon="-0.52964">
        <ele>34</ele>
        <time>2026-03-24T14:14:39.000Z</time>
      </trkpt>
      <trkpt lat="49.33117" lon="-0.52965">
        <ele>34</ele>
        <time>2026-03-24T14:14:40.000Z</time>
      </trkpt>
      <trkpt lat="49.33116" lon="-0.52965">
        <ele>34</ele>
        <time>2026-03-24T14:14:41.000Z</time>
      </trkpt>
      <trkpt lat="49.33115" lon="-0.52966">
        <ele>34</ele>
        <time>2026-03-24T14:14:42.000Z</time>
      </trkpt>
      <trkpt lat="49.33114" lon="-0.52966">
        <ele>34</ele>
        <time>2026-03-24T14:14:43.000Z</time>
      </trkpt>
      <trkpt lat="49.33113" lon="-0.52965">
        <ele>34</ele>
        <time>2026-03-24T14:14:44.000Z</time>
      </trkpt>
      <trkpt lat="49.33112" lon="-0.52966">
        <ele>34</ele>
        <time>2026-03-24T14:14:45.000Z</time>
      </trkpt>
      <trkpt lat="49.33111" lon="-0.52966">
        <ele>34</ele>
        <time>2026-03-24T14:14:46.000Z</time>
      </trkpt>
      <trkpt lat="49.3311" lon="-0.52966">
        <ele>34.200000762939</ele>
        <time>2026-03-24T14:14:47.000Z</time>
      </trkpt>
      <trkpt lat="49.33109" lon="-0.52966">
        <ele>34.200000762939</ele>
        <time>2026-03-24T14:14:48.000Z</time>
      </trkpt>
      <trkpt lat="49.33109" lon="-0.52966">
        <ele>34.200000762939</ele>
        <time>2026-03-24T14:14:49.000Z</time>
      </trkpt>
      <trkpt lat="49.33108" lon="-0.52966">
        <ele>34.200000762939</ele>
        <time>2026-03-24T14:14:50.000Z</time>
      </trkpt>
      <trkpt lat="49.33107" lon="-0.52965">
        <ele>34.200000762939</ele>
        <time>2026-03-24T14:14:51.000Z</time>
      </trkpt>
      <trkpt lat="49.33107" lon="-0.52965">
        <ele>34.200000762939</ele>
        <time>2026-03-24T14:14:52.000Z</time>
      </trkpt>
      <trkpt lat="49.33106" lon="-0.52965">
        <ele>34.400001525879</ele>
        <time>2026-03-24T14:14:53.000Z</time>
      </trkpt>
      <trkpt lat="49.33105" lon="-0.52964">
        <ele>34.400001525879</ele>
        <time>2026-03-24T14:14:54.000Z</time>
      </trkpt>
      <trkpt lat="49.33105" lon="-0.52964">
        <ele>34.400001525879</ele>
        <time>2026-03-24T14:14:55.000Z</time>
      </trkpt>
      <trkpt lat="49.33104" lon="-0.52963">
        <ele>34.400001525879</ele>
        <time>2026-03-24T14:14:56.000Z</time>
      </trkpt>
      <trkpt lat="49.33103" lon="-0.52963">
        <ele>34.400001525879</ele>
        <time>2026-03-24T14:14:57.000Z</time>
      </trkpt>
      <trkpt lat="49.33102" lon="-0.52962">
        <ele>34.599998474121</ele>
        <time>2026-03-24T14:14:58.000Z</time>
      </trkpt>
      <trkpt lat="49.33102" lon="-0.52961">
        <ele>34.599998474121</ele>
        <time>2026-03-24T14:14:59.000Z</time>
      </trkpt>
      <trkpt lat="49.33101" lon="-0.52961">
        <ele>34.599998474121</ele>
        <time>2026-03-24T14:15:00.000Z</time>
      </trkpt>
      <trkpt lat="49.331" lon="-0.5296">
        <ele>34.799999237061</ele>
        <time>2026-03-24T14:15:01.000Z</time>
      </trkpt>
      <trkpt lat="49.33099" lon="-0.52959">
        <ele>34.799999237061</ele>
        <time>2026-03-24T14:15:02.000Z</time>
      </trkpt>
      <trkpt lat="49.33098" lon="-0.52959">
        <ele>34.799999237061</ele>
        <time>2026-03-24T14:15:03.000Z</time>
      </trkpt>
      <trkpt lat="49.33096" lon="-0.52957">
        <ele>35</ele>
        <time>2026-03-24T14:15:04.000Z</time>
      </trkpt>
      <trkpt lat="49.33095" lon="-0.52957">
        <ele>35</ele>
        <time>2026-03-24T14:15:05.000Z</time>
      </trkpt>
      <trkpt lat="49.33094" lon="-0.52956">
        <ele>35</ele>
        <time>2026-03-24T14:15:06.000Z</time>
      </trkpt>
      <trkpt lat="49.33093" lon="-0.52955">
        <ele>35.200000762939</ele>
        <time>2026-03-24T14:15:07.000Z</time>
      </trkpt>
      <trkpt lat="49.33092" lon="-0.52955">
        <ele>35.200000762939</ele>
        <time>2026-03-24T14:15:08.000Z</time>
      </trkpt>
      <trkpt lat="49.33091" lon="-0.52953">
        <ele>35.200000762939</ele>
        <time>2026-03-24T14:15:09.000Z</time>
      </trkpt>
      <trkpt lat="49.3309" lon="-0.52953">
        <ele>35.400001525879</ele>
        <time>2026-03-24T14:15:10.000Z</time>
      </trkpt>
      <trkpt lat="49.33089" lon="-0.52953">
        <ele>35.400001525879</ele>
        <time>2026-03-24T14:15:11.000Z</time>
      </trkpt>
      <trkpt lat="49.33089" lon="-0.52952">
        <ele>35.400001525879</ele>
        <time>2026-03-24T14:15:12.000Z</time>
      </trkpt>
      <trkpt lat="49.33088" lon="-0.52951">
        <ele>35.400001525879</ele>
        <time>2026-03-24T14:15:13.000Z</time>
      </trkpt>
      <trkpt lat="49.33087" lon="-0.5295">
        <ele>35.599998474121</ele>
        <time>2026-03-24T14:15:14.000Z</time>
      </trkpt>
      <trkpt lat="49.33086" lon="-0.52949">
        <ele>35.599998474121</ele>
        <time>2026-03-24T14:15:15.000Z</time>
      </trkpt>
      <trkpt lat="49.33085" lon="-0.52948">
        <ele>35.599998474121</ele>
        <time>2026-03-24T14:15:16.000Z</time>
      </trkpt>
      <trkpt lat="49.33084" lon="-0.52947">
        <ele>35.799999237061</ele>
        <time>2026-03-24T14:15:17.000Z</time>
      </trkpt>
      <trkpt lat="49.33084" lon="-0.52945">
        <ele>35.799999237061</ele>
        <time>2026-03-24T14:15:18.000Z</time>
      </trkpt>
      <trkpt lat="49.33083" lon="-0.52944">
        <ele>35.799999237061</ele>
        <time>2026-03-24T14:15:19.000Z</time>
      </trkpt>
      <trkpt lat="49.33082" lon="-0.52944">
        <ele>36</ele>
        <time>2026-03-24T14:15:20.000Z</time>
      </trkpt>
      <trkpt lat="49.33081" lon="-0.52941">
        <ele>36</ele>
        <time>2026-03-24T14:15:21.000Z</time>
      </trkpt>
      <trkpt lat="49.3308" lon="-0.5294">
        <ele>36.200000762939</ele>
        <time>2026-03-24T14:15:22.000Z</time>
      </trkpt>
      <trkpt lat="49.33079" lon="-0.52939">
        <ele>36.200000762939</ele>
        <time>2026-03-24T14:15:23.000Z</time>
      </trkpt>
      <trkpt lat="49.33078" lon="-0.52937">
        <ele>36.400001525879</ele>
        <time>2026-03-24T14:15:24.000Z</time>
      </trkpt>
      <trkpt lat="49.33078" lon="-0.52935">
        <ele>36.400001525879</ele>
        <time>2026-03-24T14:15:25.000Z</time>
      </trkpt>
      <trkpt lat="49.33078" lon="-0.52933">
        <ele>36.400001525879</ele>
        <time>2026-03-24T14:15:26.000Z</time>
      </trkpt>
      <trkpt lat="49.33078" lon="-0.52931">
        <ele>36.599998474121</ele>
        <time>2026-03-24T14:15:27.000Z</time>
      </trkpt>
      <trkpt lat="49.33077" lon="-0.5293">
        <ele>36.599998474121</ele>
        <time>2026-03-24T14:15:28.000Z</time>
      </trkpt>
      <trkpt lat="49.33077" lon="-0.52929">
        <ele>36.599998474121</ele>
        <time>2026-03-24T14:15:29.000Z</time>
      </trkpt>
      <trkpt lat="49.33077" lon="-0.52927">
        <ele>36.799999237061</ele>
        <time>2026-03-24T14:15:30.000Z</time>
      </trkpt>
      <trkpt lat="49.33077" lon="-0.52925">
        <ele>36.799999237061</ele>
        <time>2026-03-24T14:15:31.000Z</time>
      </trkpt>
      <trkpt lat="49.33076" lon="-0.52925">
        <ele>36.799999237061</ele>
        <time>2026-03-24T14:15:32.000Z</time>
      </trkpt>
      <trkpt lat="49.33076" lon="-0.52924">
        <ele>36.799999237061</ele>
        <time>2026-03-24T14:15:33.000Z</time>
      </trkpt>
      <trkpt lat="49.33076" lon="-0.52923">
        <ele>37</ele>
        <time>2026-03-24T14:15:34.000Z</time>
      </trkpt>
      <trkpt lat="49.33075" lon="-0.52922">
        <ele>37</ele>
        <time>2026-03-24T14:15:35.000Z</time>
      </trkpt>
      <trkpt lat="49.33075" lon="-0.5292">
        <ele>37</ele>
        <time>2026-03-24T14:15:36.000Z</time>
      </trkpt>
      <trkpt lat="49.33075" lon="-0.52918">
        <ele>37.200000762939</ele>
        <time>2026-03-24T14:15:37.000Z</time>
      </trkpt>
      <trkpt lat="49.33074" lon="-0.52917">
        <ele>37.200000762939</ele>
        <time>2026-03-24T14:15:38.000Z</time>
      </trkpt>
      <trkpt lat="49.33074" lon="-0.52915">
        <ele>37.200000762939</ele>
        <time>2026-03-24T14:15:39.000Z</time>
      </trkpt>
      <trkpt lat="49.33074" lon="-0.52913">
        <ele>37.200000762939</ele>
        <time>2026-03-24T14:15:40.000Z</time>
      </trkpt>
      <trkpt lat="49.33073" lon="-0.52911">
        <ele>37.200000762939</ele>
        <time>2026-03-24T14:15:41.000Z</time>
      </trkpt>
      <trkpt lat="49.33073" lon="-0.52909">
        <ele>37.200000762939</ele>
        <time>2026-03-24T14:15:42.000Z</time>
      </trkpt>
      <trkpt lat="49.33072" lon="-0.52907">
        <ele>37.200000762939</ele>
        <time>2026-03-24T14:15:43.000Z</time>
      </trkpt>
      <trkpt lat="49.33072" lon="-0.52906">
        <ele>37.200000762939</ele>
        <time>2026-03-24T14:15:44.000Z</time>
      </trkpt>
      <trkpt lat="49.33072" lon="-0.52904">
        <ele>37.200000762939</ele>
        <time>2026-03-24T14:15:45.000Z</time>
      </trkpt>
      <trkpt lat="49.33071" lon="-0.52902">
        <ele>37.200000762939</ele>
        <time>2026-03-24T14:15:46.000Z</time>
      </trkpt>
      <trkpt lat="49.3307" lon="-0.529">
        <ele>37.400001525879</ele>
        <time>2026-03-24T14:15:47.000Z</time>
      </trkpt>
      <trkpt lat="49.3307" lon="-0.52897">
        <ele>37.400001525879</ele>
        <time>2026-03-24T14:15:48.000Z</time>
      </trkpt>
      <trkpt lat="49.33069" lon="-0.52895">
        <ele>37.400001525879</ele>
        <time>2026-03-24T14:15:49.000Z</time>
      </trkpt>
      <trkpt lat="49.33068" lon="-0.52893">
        <ele>37.400001525879</ele>
        <time>2026-03-24T14:15:50.000Z</time>
      </trkpt>
      <trkpt lat="49.33067" lon="-0.52891">
        <ele>37.400001525879</ele>
        <time>2026-03-24T14:15:51.000Z</time>
      </trkpt>
      <trkpt lat="49.33067" lon="-0.52889">
        <ele>37.400001525879</ele>
        <time>2026-03-24T14:15:52.000Z</time>
      </trkpt>
      <trkpt lat="49.33066" lon="-0.52888">
        <ele>37.599998474121</ele>
        <time>2026-03-24T14:15:53.000Z</time>
      </trkpt>
      <trkpt lat="49.33067" lon="-0.52886">
        <ele>37.599998474121</ele>
        <time>2026-03-24T14:15:54.000Z</time>
      </trkpt>
      <trkpt lat="49.33065" lon="-0.52884">
        <ele>37.599998474121</ele>
        <time>2026-03-24T14:15:55.000Z</time>
      </trkpt>
      <trkpt lat="49.33065" lon="-0.52883">
        <ele>37.799999237061</ele>
        <time>2026-03-24T14:15:56.000Z</time>
      </trkpt>
      <trkpt lat="49.33064" lon="-0.52881">
        <ele>37.799999237061</ele>
        <time>2026-03-24T14:15:57.000Z</time>
      </trkpt>
      <trkpt lat="49.33064" lon="-0.5288">
        <ele>37.799999237061</ele>
        <time>2026-03-24T14:15:58.000Z</time>
      </trkpt>
      <trkpt lat="49.33064" lon="-0.52878">
        <ele>38</ele>
        <time>2026-03-24T14:15:59.000Z</time>
      </trkpt>
      <trkpt lat="49.33063" lon="-0.52877">
        <ele>38</ele>
        <time>2026-03-24T14:16:00.000Z</time>
      </trkpt>
      <trkpt lat="49.33063" lon="-0.52875">
        <ele>38</ele>
        <time>2026-03-24T14:16:01.000Z</time>
      </trkpt>
      <trkpt lat="49.33063" lon="-0.52873">
        <ele>38</ele>
        <time>2026-03-24T14:16:02.000Z</time>
      </trkpt>
      <trkpt lat="49.33062" lon="-0.52871">
        <ele>38</ele>
        <time>2026-03-24T14:16:03.000Z</time>
      </trkpt>
      <trkpt lat="49.33062" lon="-0.5287">
        <ele>38</ele>
        <time>2026-03-24T14:16:04.000Z</time>
      </trkpt>
      <trkpt lat="49.33062" lon="-0.52868">
        <ele>38</ele>
        <time>2026-03-24T14:16:05.000Z</time>
      </trkpt>
      <trkpt lat="49.33062" lon="-0.52866">
        <ele>38</ele>
        <time>2026-03-24T14:16:06.000Z</time>
      </trkpt>
      <trkpt lat="49.33062" lon="-0.52865">
        <ele>38</ele>
        <time>2026-03-24T14:16:07.000Z</time>
      </trkpt>
      <trkpt lat="49.33063" lon="-0.52863">
        <ele>38</ele>
        <time>2026-03-24T14:16:08.000Z</time>
      </trkpt>
      <trkpt lat="49.33063" lon="-0.52862">
        <ele>38</ele>
        <time>2026-03-24T14:16:09.000Z</time>
      </trkpt>
      <trkpt lat="49.33063" lon="-0.52861">
        <ele>38</ele>
        <time>2026-03-24T14:16:10.000Z</time>
      </trkpt>
      <trkpt lat="49.33063" lon="-0.5286">
        <ele>38</ele>
        <time>2026-03-24T14:16:11.000Z</time>
      </trkpt>
      <trkpt lat="49.33063" lon="-0.52858">
        <ele>38</ele>
        <time>2026-03-24T14:16:12.000Z</time>
      </trkpt>
      <trkpt lat="49.33063" lon="-0.52857">
        <ele>38</ele>
        <time>2026-03-24T14:16:13.000Z</time>
      </trkpt>
      <trkpt lat="49.33062" lon="-0.52855">
        <ele>38</ele>
        <time>2026-03-24T14:16:14.000Z</time>
      </trkpt>
      <trkpt lat="49.33063" lon="-0.52853">
        <ele>38</ele>
        <time>2026-03-24T14:16:15.000Z</time>
      </trkpt>
      <trkpt lat="49.33064" lon="-0.52852">
        <ele>38</ele>
        <time>2026-03-24T14:16:16.000Z</time>
      </trkpt>
      <trkpt lat="49.33063" lon="-0.5285">
        <ele>38</ele>
        <time>2026-03-24T14:16:17.000Z</time>
      </trkpt>
      <trkpt lat="49.33063" lon="-0.52849">
        <ele>38</ele>
        <time>2026-03-24T14:16:18.000Z</time>
      </trkpt>
      <trkpt lat="49.33062" lon="-0.52847">
        <ele>38.200000762939</ele>
        <time>2026-03-24T14:16:19.000Z</time>
      </trkpt>
      <trkpt lat="49.33063" lon="-0.52845">
        <ele>38.200000762939</ele>
        <time>2026-03-24T14:16:20.000Z</time>
      </trkpt>
      <trkpt lat="49.33064" lon="-0.52842">
        <ele>38.200000762939</ele>
        <time>2026-03-24T14:16:21.000Z</time>
      </trkpt>
      <trkpt lat="49.33064" lon="-0.5284">
        <ele>38.200000762939</ele>
        <time>2026-03-24T14:16:22.000Z</time>
      </trkpt>
      <trkpt lat="49.33064" lon="-0.52838">
        <ele>38.400001525879</ele>
        <time>2026-03-24T14:16:23.000Z</time>
      </trkpt>
      <trkpt lat="49.33064" lon="-0.52837">
        <ele>38.400001525879</ele>
        <time>2026-03-24T14:16:24.000Z</time>
      </trkpt>
      <trkpt lat="49.33064" lon="-0.52836">
        <ele>38.400001525879</ele>
        <time>2026-03-24T14:16:25.000Z</time>
      </trkpt>
      <trkpt lat="49.33063" lon="-0.52835">
        <ele>38.599998474121</ele>
        <time>2026-03-24T14:16:26.000Z</time>
      </trkpt>
      <trkpt lat="49.33063" lon="-0.52833">
        <ele>38.599998474121</ele>
        <time>2026-03-24T14:16:27.000Z</time>
      </trkpt>
      <trkpt lat="49.33063" lon="-0.52832">
        <ele>38.599998474121</ele>
        <time>2026-03-24T14:16:28.000Z</time>
      </trkpt>
      <trkpt lat="49.33062" lon="-0.52831">
        <ele>38.599998474121</ele>
        <time>2026-03-24T14:16:29.000Z</time>
      </trkpt>
      <trkpt lat="49.33062" lon="-0.52829">
        <ele>38.599998474121</ele>
        <time>2026-03-24T14:16:30.000Z</time>
      </trkpt>
      <trkpt lat="49.33062" lon="-0.52828">
        <ele>38.599998474121</ele>
        <time>2026-03-24T14:16:31.000Z</time>
      </trkpt>
      <trkpt lat="49.33061" lon="-0.52826">
        <ele>38.599998474121</ele>
        <time>2026-03-24T14:16:32.000Z</time>
      </trkpt>
      <trkpt lat="49.33061" lon="-0.52824">
        <ele>38.599998474121</ele>
        <time>2026-03-24T14:16:33.000Z</time>
      </trkpt>
      <trkpt lat="49.3306" lon="-0.52822">
        <ele>38.599998474121</ele>
        <time>2026-03-24T14:16:34.000Z</time>
      </trkpt>
      <trkpt lat="49.3306" lon="-0.52821">
        <ele>38.599998474121</ele>
        <time>2026-03-24T14:16:35.000Z</time>
      </trkpt>
      <trkpt lat="49.3306" lon="-0.52819">
        <ele>38.599998474121</ele>
        <time>2026-03-24T14:16:36.000Z</time>
      </trkpt>
      <trkpt lat="49.3306" lon="-0.52817">
        <ele>38.599998474121</ele>
        <time>2026-03-24T14:16:37.000Z</time>
      </trkpt>
      <trkpt lat="49.3306" lon="-0.52816">
        <ele>38.599998474121</ele>
        <time>2026-03-24T14:16:38.000Z</time>
      </trkpt>
      <trkpt lat="49.3306" lon="-0.52815">
        <ele>38.599998474121</ele>
        <time>2026-03-24T14:16:39.000Z</time>
      </trkpt>
      <trkpt lat="49.3306" lon="-0.52813">
        <ele>38.599998474121</ele>
        <time>2026-03-24T14:16:40.000Z</time>
      </trkpt>
      <trkpt lat="49.3306" lon="-0.5281">
        <ele>38.599998474121</ele>
        <time>2026-03-24T14:16:41.000Z</time>
      </trkpt>
      <trkpt lat="49.33061" lon="-0.52809">
        <ele>38.599998474121</ele>
        <time>2026-03-24T14:16:42.000Z</time>
      </trkpt>
      <trkpt lat="49.33061" lon="-0.52807">
        <ele>38.599998474121</ele>
        <time>2026-03-24T14:16:43.000Z</time>
      </trkpt>
      <trkpt lat="49.3306" lon="-0.52805">
        <ele>38.599998474121</ele>
        <time>2026-03-24T14:16:44.000Z</time>
      </trkpt>
      <trkpt lat="49.33059" lon="-0.52804">
        <ele>38.799999237061</ele>
        <time>2026-03-24T14:16:45.000Z</time>
      </trkpt>
      <trkpt lat="49.33058" lon="-0.52803">
        <ele>38.799999237061</ele>
        <time>2026-03-24T14:16:46.000Z</time>
      </trkpt>
      <trkpt lat="49.33058" lon="-0.52801">
        <ele>38.799999237061</ele>
        <time>2026-03-24T14:16:47.000Z</time>
      </trkpt>
      <trkpt lat="49.33057" lon="-0.52799">
        <ele>38.799999237061</ele>
        <time>2026-03-24T14:16:48.000Z</time>
      </trkpt>
      <trkpt lat="49.33057" lon="-0.52797">
        <ele>38.599998474121</ele>
        <time>2026-03-24T14:16:49.000Z</time>
      </trkpt>
      <trkpt lat="49.33056" lon="-0.52795">
        <ele>38.599998474121</ele>
        <time>2026-03-24T14:16:50.000Z</time>
      </trkpt>
      <trkpt lat="49.33056" lon="-0.52793">
        <ele>38.599998474121</ele>
        <time>2026-03-24T14:16:51.000Z</time>
      </trkpt>
      <trkpt lat="49.33056" lon="-0.52792">
        <ele>38.400001525879</ele>
        <time>2026-03-24T14:16:52.000Z</time>
      </trkpt>
      <trkpt lat="49.33055" lon="-0.5279">
        <ele>38.400001525879</ele>
        <time>2026-03-24T14:16:53.000Z</time>
      </trkpt>
      <trkpt lat="49.33054" lon="-0.52789">
        <ele>38.400001525879</ele>
        <time>2026-03-24T14:16:54.000Z</time>
      </trkpt>
      <trkpt lat="49.33054" lon="-0.52787">
        <ele>38.400001525879</ele>
        <time>2026-03-24T14:16:55.000Z</time>
      </trkpt>
      <trkpt lat="49.33053" lon="-0.52785">
        <ele>38.200000762939</ele>
        <time>2026-03-24T14:16:56.000Z</time>
      </trkpt>
      <trkpt lat="49.33053" lon="-0.52783">
        <ele>38.200000762939</ele>
        <time>2026-03-24T14:16:57.000Z</time>
      </trkpt>
      <trkpt lat="49.33053" lon="-0.52782">
        <ele>38.200000762939</ele>
        <time>2026-03-24T14:16:58.000Z</time>
      </trkpt>
      <trkpt lat="49.33052" lon="-0.5278">
        <ele>38</ele>
        <time>2026-03-24T14:16:59.000Z</time>
      </trkpt>
      <trkpt lat="49.33052" lon="-0.52779">
        <ele>38</ele>
        <time>2026-03-24T14:17:00.000Z</time>
      </trkpt>
      <trkpt lat="49.33052" lon="-0.52777">
        <ele>38</ele>
        <time>2026-03-24T14:17:01.000Z</time>
      </trkpt>
      <trkpt lat="49.33051" lon="-0.52775">
        <ele>38</ele>
        <time>2026-03-24T14:17:02.000Z</time>
      </trkpt>
      <trkpt lat="49.3305" lon="-0.52774">
        <ele>38</ele>
        <time>2026-03-24T14:17:03.000Z</time>
      </trkpt>
      <trkpt lat="49.33049" lon="-0.52772">
        <ele>38</ele>
        <time>2026-03-24T14:17:04.000Z</time>
      </trkpt>
      <trkpt lat="49.33049" lon="-0.5277">
        <ele>38</ele>
        <time>2026-03-24T14:17:05.000Z</time>
      </trkpt>
      <trkpt lat="49.33048" lon="-0.52768">
        <ele>38</ele>
        <time>2026-03-24T14:17:06.000Z</time>
      </trkpt>
      <trkpt lat="49.33048" lon="-0.52767">
        <ele>38</ele>
        <time>2026-03-24T14:17:07.000Z</time>
      </trkpt>
      <trkpt lat="49.33048" lon="-0.52765">
        <ele>38</ele>
        <time>2026-03-24T14:17:08.000Z</time>
      </trkpt>
      <trkpt lat="49.33048" lon="-0.52764">
        <ele>38</ele>
        <time>2026-03-24T14:17:09.000Z</time>
      </trkpt>
      <trkpt lat="49.33047" lon="-0.52762">
        <ele>38</ele>
        <time>2026-03-24T14:17:10.000Z</time>
      </trkpt>
      <trkpt lat="49.33047" lon="-0.52761">
        <ele>38</ele>
        <time>2026-03-24T14:17:11.000Z</time>
      </trkpt>
      <trkpt lat="49.33046" lon="-0.52759">
        <ele>38</ele>
        <time>2026-03-24T14:17:12.000Z</time>
      </trkpt>
      <trkpt lat="49.33045" lon="-0.52757">
        <ele>38</ele>
        <time>2026-03-24T14:17:13.000Z</time>
      </trkpt>
      <trkpt lat="49.33045" lon="-0.52755">
        <ele>38</ele>
        <time>2026-03-24T14:17:14.000Z</time>
      </trkpt>
      <trkpt lat="49.33044" lon="-0.52754">
        <ele>38</ele>
        <time>2026-03-24T14:17:15.000Z</time>
      </trkpt>
      <trkpt lat="49.33044" lon="-0.52752">
        <ele>38</ele>
        <time>2026-03-24T14:17:16.000Z</time>
      </trkpt>
      <trkpt lat="49.33044" lon="-0.5275">
        <ele>38</ele>
        <time>2026-03-24T14:17:17.000Z</time>
      </trkpt>
      <trkpt lat="49.33043" lon="-0.52749">
        <ele>38</ele>
        <time>2026-03-24T14:17:18.000Z</time>
      </trkpt>
      <trkpt lat="49.33043" lon="-0.52747">
        <ele>38</ele>
        <time>2026-03-24T14:17:19.000Z</time>
      </trkpt>
      <trkpt lat="49.33043" lon="-0.52745">
        <ele>38</ele>
        <time>2026-03-24T14:17:20.000Z</time>
      </trkpt>
      <trkpt lat="49.33043" lon="-0.52743">
        <ele>38</ele>
        <time>2026-03-24T14:17:21.000Z</time>
      </trkpt>
      <trkpt lat="49.33042" lon="-0.52741">
        <ele>38</ele>
        <time>2026-03-24T14:17:22.000Z</time>
      </trkpt>
      <trkpt lat="49.33042" lon="-0.5274">
        <ele>38</ele>
        <time>2026-03-24T14:17:23.000Z</time>
      </trkpt>
      <trkpt lat="49.33043" lon="-0.52739">
        <ele>38</ele>
        <time>2026-03-24T14:17:24.000Z</time>
      </trkpt>
      <trkpt lat="49.33043" lon="-0.52737">
        <ele>38</ele>
        <time>2026-03-24T14:17:25.000Z</time>
      </trkpt>
      <trkpt lat="49.33043" lon="-0.52736">
        <ele>38</ele>
        <time>2026-03-24T14:17:26.000Z</time>
      </trkpt>
      <trkpt lat="49.33043" lon="-0.52734">
        <ele>38</ele>
        <time>2026-03-24T14:17:27.000Z</time>
      </trkpt>
      <trkpt lat="49.33043" lon="-0.52733">
        <ele>38</ele>
        <time>2026-03-24T14:17:28.000Z</time>
      </trkpt>
      <trkpt lat="49.33042" lon="-0.52731">
        <ele>38</ele>
        <time>2026-03-24T14:17:29.000Z</time>
      </trkpt>
      <trkpt lat="49.33042" lon="-0.5273">
        <ele>38</ele>
        <time>2026-03-24T14:17:30.000Z</time>
      </trkpt>
      <trkpt lat="49.33042" lon="-0.52729">
        <ele>38</ele>
        <time>2026-03-24T14:17:31.000Z</time>
      </trkpt>
      <trkpt lat="49.33042" lon="-0.52728">
        <ele>38</ele>
        <time>2026-03-24T14:17:32.000Z</time>
      </trkpt>
      <trkpt lat="49.33042" lon="-0.52726">
        <ele>38</ele>
        <time>2026-03-24T14:17:33.000Z</time>
      </trkpt>
      <trkpt lat="49.33042" lon="-0.52726">
        <ele>38</ele>
        <time>2026-03-24T14:17:34.000Z</time>
      </trkpt>
      <trkpt lat="49.33041" lon="-0.52725">
        <ele>38</ele>
        <time>2026-03-24T14:17:35.000Z</time>
      </trkpt>
      <trkpt lat="49.33041" lon="-0.52724">
        <ele>38</ele>
        <time>2026-03-24T14:17:36.000Z</time>
      </trkpt>
      <trkpt lat="49.33041" lon="-0.52724">
        <ele>38</ele>
        <time>2026-03-24T14:17:37.000Z</time>
      </trkpt>
      <trkpt lat="49.33041" lon="-0.52724">
        <ele>38</ele>
        <time>2026-03-24T14:17:38.000Z</time>
      </trkpt>
      <trkpt lat="49.33041" lon="-0.52724">
        <ele>38</ele>
        <time>2026-03-24T14:17:39.000Z</time>
      </trkpt>
      <trkpt lat="49.33041" lon="-0.52724">
        <ele>38</ele>
        <time>2026-03-24T14:17:40.000Z</time>
      </trkpt>
      <trkpt lat="49.33041" lon="-0.52724">
        <ele>38</ele>
        <time>2026-03-24T14:17:41.000Z</time>
      </trkpt>
      <trkpt lat="49.33041" lon="-0.52723">
        <ele>38</ele>
        <time>2026-03-24T14:17:42.000Z</time>
      </trkpt>
      <trkpt lat="49.33041" lon="-0.52724">
        <ele>38</ele>
        <time>2026-03-24T14:17:43.000Z</time>
      </trkpt>
      <trkpt lat="49.3304" lon="-0.52724">
        <ele>38</ele>
        <time>2026-03-24T14:17:44.000Z</time>
      </trkpt>
      <trkpt lat="49.3304" lon="-0.52724">
        <ele>38</ele>
        <time>2026-03-24T14:17:45.000Z</time>
      </trkpt>
      <trkpt lat="49.33039" lon="-0.52724">
        <ele>38</ele>
        <time>2026-03-24T14:17:46.000Z</time>
      </trkpt>
      <trkpt lat="49.33038" lon="-0.52724">
        <ele>38</ele>
        <time>2026-03-24T14:17:47.000Z</time>
      </trkpt>
      <trkpt lat="49.33038" lon="-0.52723">
        <ele>38</ele>
        <time>2026-03-24T14:17:48.000Z</time>
      </trkpt>
      <trkpt lat="49.33037" lon="-0.52723">
        <ele>38</ele>
        <time>2026-03-24T14:17:49.000Z</time>
      </trkpt>
      <trkpt lat="49.33036" lon="-0.52723">
        <ele>38</ele>
        <time>2026-03-24T14:17:50.000Z</time>
      </trkpt>
      <trkpt lat="49.33035" lon="-0.52723">
        <ele>38</ele>
        <time>2026-03-24T14:17:51.000Z</time>
      </trkpt>
      <trkpt lat="49.33034" lon="-0.52723">
        <ele>38</ele>
        <time>2026-03-24T14:17:52.000Z</time>
      </trkpt>
      <trkpt lat="49.33033" lon="-0.52723">
        <ele>38</ele>
        <time>2026-03-24T14:17:53.000Z</time>
      </trkpt>
      <trkpt lat="49.33032" lon="-0.52723">
        <ele>38</ele>
        <time>2026-03-24T14:17:54.000Z</time>
      </trkpt>
      <trkpt lat="49.33031" lon="-0.52723">
        <ele>38</ele>
        <time>2026-03-24T14:17:55.000Z</time>
      </trkpt>
      <trkpt lat="49.3303" lon="-0.52723">
        <ele>38</ele>
        <time>2026-03-24T14:17:56.000Z</time>
      </trkpt>
      <trkpt lat="49.33029" lon="-0.52723">
        <ele>38</ele>
        <time>2026-03-24T14:17:57.000Z</time>
      </trkpt>
      <trkpt lat="49.33028" lon="-0.52723">
        <ele>38</ele>
        <time>2026-03-24T14:17:58.000Z</time>
      </trkpt>
      <trkpt lat="49.33027" lon="-0.52723">
        <ele>38</ele>
        <time>2026-03-24T14:17:59.000Z</time>
      </trkpt>
      <trkpt lat="49.33026" lon="-0.52723">
        <ele>38</ele>
        <time>2026-03-24T14:18:00.000Z</time>
      </trkpt>
      <trkpt lat="49.33025" lon="-0.52723">
        <ele>38</ele>
        <time>2026-03-24T14:18:01.000Z</time>
      </trkpt>
      <trkpt lat="49.33024" lon="-0.52723">
        <ele>38</ele>
        <time>2026-03-24T14:18:02.000Z</time>
      </trkpt>
      <trkpt lat="49.33023" lon="-0.52723">
        <ele>38</ele>
        <time>2026-03-24T14:18:03.000Z</time>
      </trkpt>
      <trkpt lat="49.33023" lon="-0.52723">
        <ele>38</ele>
        <time>2026-03-24T14:18:04.000Z</time>
      </trkpt>
      <trkpt lat="49.33022" lon="-0.52723">
        <ele>38</ele>
        <time>2026-03-24T14:18:05.000Z</time>
      </trkpt>
      <trkpt lat="49.33021" lon="-0.52722">
        <ele>38</ele>
        <time>2026-03-24T14:18:06.000Z</time>
      </trkpt>
      <trkpt lat="49.3302" lon="-0.52722">
        <ele>38.200000762939</ele>
        <time>2026-03-24T14:18:07.000Z</time>
      </trkpt>
      <trkpt lat="49.33019" lon="-0.52722">
        <ele>38.200000762939</ele>
        <time>2026-03-24T14:18:08.000Z</time>
      </trkpt>
      <trkpt lat="49.33018" lon="-0.52722">
        <ele>38.200000762939</ele>
        <time>2026-03-24T14:18:09.000Z</time>
      </trkpt>
      <trkpt lat="49.33017" lon="-0.52722">
        <ele>38.200000762939</ele>
        <time>2026-03-24T14:18:10.000Z</time>
      </trkpt>
      <trkpt lat="49.33016" lon="-0.52722">
        <ele>38.200000762939</ele>
        <time>2026-03-24T14:18:11.000Z</time>
      </trkpt>
      <trkpt lat="49.33015" lon="-0.52723">
        <ele>38.200000762939</ele>
        <time>2026-03-24T14:18:12.000Z</time>
      </trkpt>
      <trkpt lat="49.33014" lon="-0.52723">
        <ele>38.400001525879</ele>
        <time>2026-03-24T14:18:13.000Z</time>
      </trkpt>
      <trkpt lat="49.33013" lon="-0.52724">
        <ele>38.400001525879</ele>
        <time>2026-03-24T14:18:14.000Z</time>
      </trkpt>
      <trkpt lat="49.33012" lon="-0.52724">
        <ele>38.400001525879</ele>
        <time>2026-03-24T14:18:15.000Z</time>
      </trkpt>
      <trkpt lat="49.33011" lon="-0.52724">
        <ele>38.400001525879</ele>
        <time>2026-03-24T14:18:16.000Z</time>
      </trkpt>
      <trkpt lat="49.3301" lon="-0.52724">
        <ele>38.400001525879</ele>
        <time>2026-03-24T14:18:17.000Z</time>
      </trkpt>
      <trkpt lat="49.33009" lon="-0.52724">
        <ele>38.599998474121</ele>
        <time>2026-03-24T14:18:18.000Z</time>
      </trkpt>
      <trkpt lat="49.33008" lon="-0.52724">
        <ele>38.599998474121</ele>
        <time>2026-03-24T14:18:19.000Z</time>
      </trkpt>
      <trkpt lat="49.33007" lon="-0.52724">
        <ele>38.599998474121</ele>
        <time>2026-03-24T14:18:20.000Z</time>
      </trkpt>
      <trkpt lat="49.33006" lon="-0.52724">
        <ele>38.599998474121</ele>
        <time>2026-03-24T14:18:21.000Z</time>
      </trkpt>
      <trkpt lat="49.33005" lon="-0.52725">
        <ele>38.599998474121</ele>
        <time>2026-03-24T14:18:22.000Z</time>
      </trkpt>
      <trkpt lat="49.33004" lon="-0.52725">
        <ele>38.599998474121</ele>
        <time>2026-03-24T14:18:23.000Z</time>
      </trkpt>
      <trkpt lat="49.33003" lon="-0.52725">
        <ele>38.799999237061</ele>
        <time>2026-03-24T14:18:24.000Z</time>
      </trkpt>
      <trkpt lat="49.33002" lon="-0.52725">
        <ele>38.799999237061</ele>
        <time>2026-03-24T14:18:25.000Z</time>
      </trkpt>
      <trkpt lat="49.33001" lon="-0.52725">
        <ele>38.799999237061</ele>
        <time>2026-03-24T14:18:26.000Z</time>
      </trkpt>
      <trkpt lat="49.33" lon="-0.52725">
        <ele>38.799999237061</ele>
        <time>2026-03-24T14:18:27.000Z</time>
      </trkpt>
      <trkpt lat="49.32999" lon="-0.52725">
        <ele>38.799999237061</ele>
        <time>2026-03-24T14:18:28.000Z</time>
      </trkpt>
      <trkpt lat="49.32999" lon="-0.52725">
        <ele>38.799999237061</ele>
        <time>2026-03-24T14:18:29.000Z</time>
      </trkpt>
      <trkpt lat="49.32998" lon="-0.52725">
        <ele>39</ele>
        <time>2026-03-24T14:18:30.000Z</time>
      </trkpt>
      <trkpt lat="49.32996" lon="-0.52725">
        <ele>39</ele>
        <time>2026-03-24T14:18:31.000Z</time>
      </trkpt>
      <trkpt lat="49.32995" lon="-0.52725">
        <ele>39</ele>
        <time>2026-03-24T14:18:32.000Z</time>
      </trkpt>
      <trkpt lat="49.32993" lon="-0.52725">
        <ele>39</ele>
        <time>2026-03-24T14:18:33.000Z</time>
      </trkpt>
      <trkpt lat="49.32992" lon="-0.52725">
        <ele>39</ele>
        <time>2026-03-24T14:18:34.000Z</time>
      </trkpt>
      <trkpt lat="49.32991" lon="-0.52725">
        <ele>39</ele>
        <time>2026-03-24T14:18:35.000Z</time>
      </trkpt>
      <trkpt lat="49.3299" lon="-0.52725">
        <ele>39</ele>
        <time>2026-03-24T14:18:36.000Z</time>
      </trkpt>
      <trkpt lat="49.32989" lon="-0.52725">
        <ele>39</ele>
        <time>2026-03-24T14:18:37.000Z</time>
      </trkpt>
      <trkpt lat="49.32988" lon="-0.52726">
        <ele>39</ele>
        <time>2026-03-24T14:18:38.000Z</time>
      </trkpt>
      <trkpt lat="49.32987" lon="-0.52726">
        <ele>39</ele>
        <time>2026-03-24T14:18:39.000Z</time>
      </trkpt>
      <trkpt lat="49.32987" lon="-0.52726">
        <ele>39</ele>
        <time>2026-03-24T14:18:40.000Z</time>
      </trkpt>
      <trkpt lat="49.32985" lon="-0.52726">
        <ele>39</ele>
        <time>2026-03-24T14:18:41.000Z</time>
      </trkpt>
      <trkpt lat="49.32984" lon="-0.52727">
        <ele>39</ele>
        <time>2026-03-24T14:18:42.000Z</time>
      </trkpt>
      <trkpt lat="49.32983" lon="-0.52727">
        <ele>39</ele>
        <time>2026-03-24T14:18:43.000Z</time>
      </trkpt>
      <trkpt lat="49.32982" lon="-0.52727">
        <ele>39</ele>
        <time>2026-03-24T14:18:44.000Z</time>
      </trkpt>
      <trkpt lat="49.32981" lon="-0.52727">
        <ele>39</ele>
        <time>2026-03-24T14:18:45.000Z</time>
      </trkpt>
      <trkpt lat="49.3298" lon="-0.52727">
        <ele>39</ele>
        <time>2026-03-24T14:18:46.000Z</time>
      </trkpt>
      <trkpt lat="49.32979" lon="-0.52728">
        <ele>39</ele>
        <time>2026-03-24T14:18:47.000Z</time>
      </trkpt>
      <trkpt lat="49.32978" lon="-0.52728">
        <ele>39</ele>
        <time>2026-03-24T14:18:48.000Z</time>
      </trkpt>
      <trkpt lat="49.32977" lon="-0.52728">
        <ele>39</ele>
        <time>2026-03-24T14:18:49.000Z</time>
      </trkpt>
      <trkpt lat="49.32975" lon="-0.52728">
        <ele>39</ele>
        <time>2026-03-24T14:18:50.000Z</time>
      </trkpt>
      <trkpt lat="49.32974" lon="-0.52728">
        <ele>39</ele>
        <time>2026-03-24T14:18:51.000Z</time>
      </trkpt>
      <trkpt lat="49.32973" lon="-0.52729">
        <ele>39</ele>
        <time>2026-03-24T14:18:52.000Z</time>
      </trkpt>
      <trkpt lat="49.32972" lon="-0.52729">
        <ele>39</ele>
        <time>2026-03-24T14:18:53.000Z</time>
      </trkpt>
      <trkpt lat="49.3297" lon="-0.52728">
        <ele>39</ele>
        <time>2026-03-24T14:18:54.000Z</time>
      </trkpt>
      <trkpt lat="49.32969" lon="-0.52728">
        <ele>39</ele>
        <time>2026-03-24T14:18:55.000Z</time>
      </trkpt>
      <trkpt lat="49.32968" lon="-0.52728">
        <ele>39</ele>
        <time>2026-03-24T14:18:56.000Z</time>
      </trkpt>
      <trkpt lat="49.32967" lon="-0.52729">
        <ele>39</ele>
        <time>2026-03-24T14:18:57.000Z</time>
      </trkpt>
      <trkpt lat="49.32966" lon="-0.52729">
        <ele>39</ele>
        <time>2026-03-24T14:18:58.000Z</time>
      </trkpt>
      <trkpt lat="49.32965" lon="-0.52729">
        <ele>39</ele>
        <time>2026-03-24T14:18:59.000Z</time>
      </trkpt>
      <trkpt lat="49.32964" lon="-0.52729">
        <ele>39</ele>
        <time>2026-03-24T14:19:00.000Z</time>
      </trkpt>
      <trkpt lat="49.32963" lon="-0.5273">
        <ele>39</ele>
        <time>2026-03-24T14:19:01.000Z</time>
      </trkpt>
      <trkpt lat="49.32962" lon="-0.5273">
        <ele>39</ele>
        <time>2026-03-24T14:19:02.000Z</time>
      </trkpt>
      <trkpt lat="49.32961" lon="-0.5273">
        <ele>39</ele>
        <time>2026-03-24T14:19:03.000Z</time>
      </trkpt>
      <trkpt lat="49.3296" lon="-0.5273">
        <ele>39</ele>
        <time>2026-03-24T14:19:04.000Z</time>
      </trkpt>
      <trkpt lat="49.32959" lon="-0.5273">
        <ele>39</ele>
        <time>2026-03-24T14:19:05.000Z</time>
      </trkpt>
      <trkpt lat="49.32958" lon="-0.5273">
        <ele>39</ele>
        <time>2026-03-24T14:19:06.000Z</time>
      </trkpt>
      <trkpt lat="49.32957" lon="-0.5273">
        <ele>38.799999237061</ele>
        <time>2026-03-24T14:19:07.000Z</time>
      </trkpt>
      <trkpt lat="49.32956" lon="-0.5273">
        <ele>38.799999237061</ele>
        <time>2026-03-24T14:19:08.000Z</time>
      </trkpt>
      <trkpt lat="49.32955" lon="-0.52729">
        <ele>38.799999237061</ele>
        <time>2026-03-24T14:19:09.000Z</time>
      </trkpt>
      <trkpt lat="49.32954" lon="-0.52729">
        <ele>38.799999237061</ele>
        <time>2026-03-24T14:19:10.000Z</time>
      </trkpt>
      <trkpt lat="49.32953" lon="-0.52729">
        <ele>38.799999237061</ele>
        <time>2026-03-24T14:19:11.000Z</time>
      </trkpt>
      <trkpt lat="49.32952" lon="-0.52731">
        <ele>38.799999237061</ele>
        <time>2026-03-24T14:19:12.000Z</time>
      </trkpt>
      <trkpt lat="49.32951" lon="-0.52732">
        <ele>38.799999237061</ele>
        <time>2026-03-24T14:19:13.000Z</time>
      </trkpt>
      <trkpt lat="49.32951" lon="-0.52732">
        <ele>38.799999237061</ele>
        <time>2026-03-24T14:19:14.000Z</time>
      </trkpt>
      <trkpt lat="49.32949" lon="-0.52732">
        <ele>38.599998474121</ele>
        <time>2026-03-24T14:19:15.000Z</time>
      </trkpt>
      <trkpt lat="49.32948" lon="-0.52733">
        <ele>38.599998474121</ele>
        <time>2026-03-24T14:19:16.000Z</time>
      </trkpt>
      <trkpt lat="49.32947" lon="-0.52733">
        <ele>38.599998474121</ele>
        <time>2026-03-24T14:19:17.000Z</time>
      </trkpt>
      <trkpt lat="49.32946" lon="-0.52734">
        <ele>38.599998474121</ele>
        <time>2026-03-24T14:19:18.000Z</time>
      </trkpt>
      <trkpt lat="49.32945" lon="-0.52734">
        <ele>38.599998474121</ele>
        <time>2026-03-24T14:19:19.000Z</time>
      </trkpt>
      <trkpt lat="49.32944" lon="-0.52735">
        <ele>38.599998474121</ele>
        <time>2026-03-24T14:19:20.000Z</time>
      </trkpt>
      <trkpt lat="49.32943" lon="-0.52735">
        <ele>38.599998474121</ele>
        <time>2026-03-24T14:19:21.000Z</time>
      </trkpt>
      <trkpt lat="49.32942" lon="-0.52735">
        <ele>38.599998474121</ele>
        <time>2026-03-24T14:19:22.000Z</time>
      </trkpt>
      <trkpt lat="49.32941" lon="-0.52736">
        <ele>38.599998474121</ele>
        <time>2026-03-24T14:19:23.000Z</time>
      </trkpt>
      <trkpt lat="49.3294" lon="-0.52737">
        <ele>38.599998474121</ele>
        <time>2026-03-24T14:19:24.000Z</time>
      </trkpt>
      <trkpt lat="49.32939" lon="-0.52737">
        <ele>38.599998474121</ele>
        <time>2026-03-24T14:19:25.000Z</time>
      </trkpt>
      <trkpt lat="49.32939" lon="-0.52738">
        <ele>38.599998474121</ele>
        <time>2026-03-24T14:19:26.000Z</time>
      </trkpt>
      <trkpt lat="49.32937" lon="-0.52738">
        <ele>38.599998474121</ele>
        <time>2026-03-24T14:19:27.000Z</time>
      </trkpt>
      <trkpt lat="49.32937" lon="-0.52739">
        <ele>38.599998474121</ele>
        <time>2026-03-24T14:19:28.000Z</time>
      </trkpt>
      <trkpt lat="49.32935" lon="-0.5274">
        <ele>38.799999237061</ele>
        <time>2026-03-24T14:19:29.000Z</time>
      </trkpt>
      <trkpt lat="49.32934" lon="-0.5274">
        <ele>38.799999237061</ele>
        <time>2026-03-24T14:19:30.000Z</time>
      </trkpt>
      <trkpt lat="49.32933" lon="-0.52741">
        <ele>38.799999237061</ele>
        <time>2026-03-24T14:19:31.000Z</time>
      </trkpt>
      <trkpt lat="49.32932" lon="-0.52741">
        <ele>39</ele>
        <time>2026-03-24T14:19:32.000Z</time>
      </trkpt>
      <trkpt lat="49.32931" lon="-0.52741">
        <ele>39</ele>
        <time>2026-03-24T14:19:33.000Z</time>
      </trkpt>
      <trkpt lat="49.3293" lon="-0.52742">
        <ele>39</ele>
        <time>2026-03-24T14:19:34.000Z</time>
      </trkpt>
      <trkpt lat="49.32928" lon="-0.52742">
        <ele>39</ele>
        <time>2026-03-24T14:19:35.000Z</time>
      </trkpt>
      <trkpt lat="49.32927" lon="-0.52742">
        <ele>39.200000762939</ele>
        <time>2026-03-24T14:19:36.000Z</time>
      </trkpt>
      <trkpt lat="49.32926" lon="-0.52743">
        <ele>39.200000762939</ele>
        <time>2026-03-24T14:19:37.000Z</time>
      </trkpt>
      <trkpt lat="49.32925" lon="-0.52743">
        <ele>39.200000762939</ele>
        <time>2026-03-24T14:19:38.000Z</time>
      </trkpt>
      <trkpt lat="49.32924" lon="-0.52744">
        <ele>39.400001525879</ele>
        <time>2026-03-24T14:19:39.000Z</time>
      </trkpt>
      <trkpt lat="49.32923" lon="-0.52744">
        <ele>39.400001525879</ele>
        <time>2026-03-24T14:19:40.000Z</time>
      </trkpt>
      <trkpt lat="49.32922" lon="-0.52744">
        <ele>39.400001525879</ele>
        <time>2026-03-24T14:19:41.000Z</time>
      </trkpt>
      <trkpt lat="49.32921" lon="-0.52744">
        <ele>39.400001525879</ele>
        <time>2026-03-24T14:19:42.000Z</time>
      </trkpt>
      <trkpt lat="49.3292" lon="-0.52745">
        <ele>39.599998474121</ele>
        <time>2026-03-24T14:19:43.000Z</time>
      </trkpt>
      <trkpt lat="49.32918" lon="-0.52746">
        <ele>39.599998474121</ele>
        <time>2026-03-24T14:19:44.000Z</time>
      </trkpt>
      <trkpt lat="49.32917" lon="-0.52746">
        <ele>39.599998474121</ele>
        <time>2026-03-24T14:19:45.000Z</time>
      </trkpt>
      <trkpt lat="49.32916" lon="-0.52747">
        <ele>39.799999237061</ele>
        <time>2026-03-24T14:19:46.000Z</time>
      </trkpt>
      <trkpt lat="49.32915" lon="-0.52748">
        <ele>39.799999237061</ele>
        <time>2026-03-24T14:19:47.000Z</time>
      </trkpt>
      <trkpt lat="49.32914" lon="-0.52748">
        <ele>39.799999237061</ele>
        <time>2026-03-24T14:19:48.000Z</time>
      </trkpt>
      <trkpt lat="49.32913" lon="-0.52749">
        <ele>40</ele>
        <time>2026-03-24T14:19:49.000Z</time>
      </trkpt>
      <trkpt lat="49.32912" lon="-0.52749">
        <ele>40</ele>
        <time>2026-03-24T14:19:50.000Z</time>
      </trkpt>
      <trkpt lat="49.32911" lon="-0.52749">
        <ele>40</ele>
        <time>2026-03-24T14:19:51.000Z</time>
      </trkpt>
      <trkpt lat="49.3291" lon="-0.5275">
        <ele>40.200000762939</ele>
        <time>2026-03-24T14:19:52.000Z</time>
      </trkpt>
      <trkpt lat="49.32908" lon="-0.5275">
        <ele>40.200000762939</ele>
        <time>2026-03-24T14:19:53.000Z</time>
      </trkpt>
      <trkpt lat="49.32907" lon="-0.5275">
        <ele>40.400001525879</ele>
        <time>2026-03-24T14:19:54.000Z</time>
      </trkpt>
      <trkpt lat="49.32906" lon="-0.52751">
        <ele>40.400001525879</ele>
        <time>2026-03-24T14:19:55.000Z</time>
      </trkpt>
      <trkpt lat="49.32905" lon="-0.52751">
        <ele>40.400001525879</ele>
        <time>2026-03-24T14:19:56.000Z</time>
      </trkpt>
      <trkpt lat="49.32905" lon="-0.52752">
        <ele>40.599998474121</ele>
        <time>2026-03-24T14:19:57.000Z</time>
      </trkpt>
      <trkpt lat="49.32903" lon="-0.52752">
        <ele>40.599998474121</ele>
        <time>2026-03-24T14:19:58.000Z</time>
      </trkpt>
      <trkpt lat="49.32902" lon="-0.52752">
        <ele>40.599998474121</ele>
        <time>2026-03-24T14:19:59.000Z</time>
      </trkpt>
      <trkpt lat="49.32901" lon="-0.52752">
        <ele>40.799999237061</ele>
        <time>2026-03-24T14:20:00.000Z</time>
      </trkpt>
      <trkpt lat="49.329" lon="-0.52752">
        <ele>40.799999237061</ele>
        <time>2026-03-24T14:20:01.000Z</time>
      </trkpt>
      <trkpt lat="49.32899" lon="-0.52752">
        <ele>40.799999237061</ele>
        <time>2026-03-24T14:20:02.000Z</time>
      </trkpt>
      <trkpt lat="49.32898" lon="-0.52753">
        <ele>41</ele>
        <time>2026-03-24T14:20:03.000Z</time>
      </trkpt>
      <trkpt lat="49.32897" lon="-0.52753">
        <ele>41</ele>
        <time>2026-03-24T14:20:04.000Z</time>
      </trkpt>
      <trkpt lat="49.32896" lon="-0.52753">
        <ele>41</ele>
        <time>2026-03-24T14:20:05.000Z</time>
      </trkpt>
      <trkpt lat="49.32895" lon="-0.52754">
        <ele>41.200000762939</ele>
        <time>2026-03-24T14:20:06.000Z</time>
      </trkpt>
      <trkpt lat="49.32894" lon="-0.52754">
        <ele>41.200000762939</ele>
        <time>2026-03-24T14:20:07.000Z</time>
      </trkpt>
      <trkpt lat="49.32893" lon="-0.52755">
        <ele>41.200000762939</ele>
        <time>2026-03-24T14:20:08.000Z</time>
      </trkpt>
      <trkpt lat="49.32891" lon="-0.52756">
        <ele>41.400001525879</ele>
        <time>2026-03-24T14:20:09.000Z</time>
      </trkpt>
      <trkpt lat="49.3289" lon="-0.52756">
        <ele>41.400001525879</ele>
        <time>2026-03-24T14:20:10.000Z</time>
      </trkpt>
      <trkpt lat="49.32889" lon="-0.52756">
        <ele>41.400001525879</ele>
        <time>2026-03-24T14:20:11.000Z</time>
      </trkpt>
      <trkpt lat="49.32888" lon="-0.52757">
        <ele>41.599998474121</ele>
        <time>2026-03-24T14:20:12.000Z</time>
      </trkpt>
      <trkpt lat="49.32887" lon="-0.52757">
        <ele>41.599998474121</ele>
        <time>2026-03-24T14:20:13.000Z</time>
      </trkpt>
      <trkpt lat="49.32885" lon="-0.52758">
        <ele>41.599998474121</ele>
        <time>2026-03-24T14:20:14.000Z</time>
      </trkpt>
      <trkpt lat="49.32884" lon="-0.52758">
        <ele>41.799999237061</ele>
        <time>2026-03-24T14:20:15.000Z</time>
      </trkpt>
      <trkpt lat="49.32883" lon="-0.52758">
        <ele>41.799999237061</ele>
        <time>2026-03-24T14:20:16.000Z</time>
      </trkpt>
      <trkpt lat="49.32882" lon="-0.52758">
        <ele>41.799999237061</ele>
        <time>2026-03-24T14:20:17.000Z</time>
      </trkpt>
      <trkpt lat="49.32881" lon="-0.52759">
        <ele>41.799999237061</ele>
        <time>2026-03-24T14:20:18.000Z</time>
      </trkpt>
      <trkpt lat="49.3288" lon="-0.52759">
        <ele>41.799999237061</ele>
        <time>2026-03-24T14:20:19.000Z</time>
      </trkpt>
      <trkpt lat="49.32879" lon="-0.5276">
        <ele>41.599998474121</ele>
        <time>2026-03-24T14:20:20.000Z</time>
      </trkpt>
      <trkpt lat="49.32879" lon="-0.52761">
        <ele>41.599998474121</ele>
        <time>2026-03-24T14:20:21.000Z</time>
      </trkpt>
      <trkpt lat="49.32878" lon="-0.52762">
        <ele>41.599998474121</ele>
        <time>2026-03-24T14:20:22.000Z</time>
      </trkpt>
      <trkpt lat="49.32877" lon="-0.52762">
        <ele>41.599998474121</ele>
        <time>2026-03-24T14:20:23.000Z</time>
      </trkpt>
      <trkpt lat="49.32876" lon="-0.52762">
        <ele>41.599998474121</ele>
        <time>2026-03-24T14:20:24.000Z</time>
      </trkpt>
      <trkpt lat="49.32875" lon="-0.52762">
        <ele>41.599998474121</ele>
        <time>2026-03-24T14:20:25.000Z</time>
      </trkpt>
      <trkpt lat="49.32874" lon="-0.52761">
        <ele>41.599998474121</ele>
        <time>2026-03-24T14:20:26.000Z</time>
      </trkpt>
      <trkpt lat="49.32873" lon="-0.52762">
        <ele>41.599998474121</ele>
        <time>2026-03-24T14:20:27.000Z</time>
      </trkpt>
      <trkpt lat="49.32872" lon="-0.52761">
        <ele>41.599998474121</ele>
        <time>2026-03-24T14:20:28.000Z</time>
      </trkpt>
      <trkpt lat="49.32871" lon="-0.52761">
        <ele>41.799999237061</ele>
        <time>2026-03-24T14:20:29.000Z</time>
      </trkpt>
      <trkpt lat="49.3287" lon="-0.52761">
        <ele>41.799999237061</ele>
        <time>2026-03-24T14:20:30.000Z</time>
      </trkpt>
      <trkpt lat="49.32869" lon="-0.52761">
        <ele>41.799999237061</ele>
        <time>2026-03-24T14:20:31.000Z</time>
      </trkpt>
      <trkpt lat="49.32868" lon="-0.52761">
        <ele>41.799999237061</ele>
        <time>2026-03-24T14:20:32.000Z</time>
      </trkpt>
      <trkpt lat="49.32867" lon="-0.52761">
        <ele>41.799999237061</ele>
        <time>2026-03-24T14:20:33.000Z</time>
      </trkpt>
      <trkpt lat="49.32866" lon="-0.52762">
        <ele>41.799999237061</ele>
        <time>2026-03-24T14:20:34.000Z</time>
      </trkpt>
      <trkpt lat="49.32865" lon="-0.52762">
        <ele>41.799999237061</ele>
        <time>2026-03-24T14:20:35.000Z</time>
      </trkpt>
      <trkpt lat="49.32864" lon="-0.52762">
        <ele>42</ele>
        <time>2026-03-24T14:20:36.000Z</time>
      </trkpt>
      <trkpt lat="49.32863" lon="-0.52762">
        <ele>42</ele>
        <time>2026-03-24T14:20:37.000Z</time>
      </trkpt>
      <trkpt lat="49.32862" lon="-0.52762">
        <ele>42</ele>
        <time>2026-03-24T14:20:38.000Z</time>
      </trkpt>
      <trkpt lat="49.32861" lon="-0.52762">
        <ele>42</ele>
        <time>2026-03-24T14:20:39.000Z</time>
      </trkpt>
      <trkpt lat="49.3286" lon="-0.52762">
        <ele>42</ele>
        <time>2026-03-24T14:20:40.000Z</time>
      </trkpt>
      <trkpt lat="49.32859" lon="-0.52762">
        <ele>42</ele>
        <time>2026-03-24T14:20:41.000Z</time>
      </trkpt>
      <trkpt lat="49.32858" lon="-0.52762">
        <ele>42.200000762939</ele>
        <time>2026-03-24T14:20:42.000Z</time>
      </trkpt>
      <trkpt lat="49.32857" lon="-0.52762">
        <ele>42.200000762939</ele>
        <time>2026-03-24T14:20:43.000Z</time>
      </trkpt>
      <trkpt lat="49.32856" lon="-0.52762">
        <ele>42.200000762939</ele>
        <time>2026-03-24T14:20:44.000Z</time>
      </trkpt>
      <trkpt lat="49.32855" lon="-0.52761">
        <ele>42.400001525879</ele>
        <time>2026-03-24T14:20:45.000Z</time>
      </trkpt>
      <trkpt lat="49.32854" lon="-0.52761">
        <ele>42.400001525879</ele>
        <time>2026-03-24T14:20:46.000Z</time>
      </trkpt>
      <trkpt lat="49.32852" lon="-0.52761">
        <ele>42.400001525879</ele>
        <time>2026-03-24T14:20:47.000Z</time>
      </trkpt>
      <trkpt lat="49.32851" lon="-0.52761">
        <ele>42.400001525879</ele>
        <time>2026-03-24T14:20:48.000Z</time>
      </trkpt>
      <trkpt lat="49.3285" lon="-0.52761">
        <ele>42.599998474121</ele>
        <time>2026-03-24T14:20:49.000Z</time>
      </trkpt>
      <trkpt lat="49.32849" lon="-0.52761">
        <ele>42.599998474121</ele>
        <time>2026-03-24T14:20:50.000Z</time>
      </trkpt>
      <trkpt lat="49.32848" lon="-0.52761">
        <ele>42.599998474121</ele>
        <time>2026-03-24T14:20:51.000Z</time>
      </trkpt>
      <trkpt lat="49.32847" lon="-0.52761">
        <ele>42.599998474121</ele>
        <time>2026-03-24T14:20:52.000Z</time>
      </trkpt>
      <trkpt lat="49.32846" lon="-0.52762">
        <ele>42.599998474121</ele>
        <time>2026-03-24T14:20:53.000Z</time>
      </trkpt>
      <trkpt lat="49.32845" lon="-0.52762">
        <ele>42.599998474121</ele>
        <time>2026-03-24T14:20:54.000Z</time>
      </trkpt>
      <trkpt lat="49.32844" lon="-0.52762">
        <ele>42.599998474121</ele>
        <time>2026-03-24T14:20:55.000Z</time>
      </trkpt>
      <trkpt lat="49.32843" lon="-0.52763">
        <ele>42.599998474121</ele>
        <time>2026-03-24T14:20:56.000Z</time>
      </trkpt>
      <trkpt lat="49.32842" lon="-0.52763">
        <ele>42.599998474121</ele>
        <time>2026-03-24T14:20:57.000Z</time>
      </trkpt>
      <trkpt lat="49.32841" lon="-0.52763">
        <ele>42.599998474121</ele>
        <time>2026-03-24T14:20:58.000Z</time>
      </trkpt>
      <trkpt lat="49.32839" lon="-0.52763">
        <ele>42.599998474121</ele>
        <time>2026-03-24T14:20:59.000Z</time>
      </trkpt>
      <trkpt lat="49.32838" lon="-0.52764">
        <ele>42.599998474121</ele>
        <time>2026-03-24T14:21:00.000Z</time>
      </trkpt>
      <trkpt lat="49.32837" lon="-0.52764">
        <ele>42.599998474121</ele>
        <time>2026-03-24T14:21:01.000Z</time>
      </trkpt>
      <trkpt lat="49.32837" lon="-0.52765">
        <ele>42.599998474121</ele>
        <time>2026-03-24T14:21:02.000Z</time>
      </trkpt>
      <trkpt lat="49.32836" lon="-0.52765">
        <ele>42.400001525879</ele>
        <time>2026-03-24T14:21:03.000Z</time>
      </trkpt>
      <trkpt lat="49.32835" lon="-0.52765">
        <ele>42.400001525879</ele>
        <time>2026-03-24T14:21:04.000Z</time>
      </trkpt>
      <trkpt lat="49.32834" lon="-0.52765">
        <ele>42.400001525879</ele>
        <time>2026-03-24T14:21:05.000Z</time>
      </trkpt>
      <trkpt lat="49.32833" lon="-0.52765">
        <ele>42.400001525879</ele>
        <time>2026-03-24T14:21:06.000Z</time>
      </trkpt>
      <trkpt lat="49.32832" lon="-0.52766">
        <ele>42.400001525879</ele>
        <time>2026-03-24T14:21:07.000Z</time>
      </trkpt>
      <trkpt lat="49.32831" lon="-0.52766">
        <ele>42.400001525879</ele>
        <time>2026-03-24T14:21:08.000Z</time>
      </trkpt>
      <trkpt lat="49.32829" lon="-0.52766">
        <ele>42.400001525879</ele>
        <time>2026-03-24T14:21:09.000Z</time>
      </trkpt>
      <trkpt lat="49.32828" lon="-0.52767">
        <ele>42.400001525879</ele>
        <time>2026-03-24T14:21:10.000Z</time>
      </trkpt>
      <trkpt lat="49.32827" lon="-0.52767">
        <ele>42.400001525879</ele>
        <time>2026-03-24T14:21:11.000Z</time>
      </trkpt>
      <trkpt lat="49.32826" lon="-0.52767">
        <ele>42.400001525879</ele>
        <time>2026-03-24T14:21:12.000Z</time>
      </trkpt>
      <trkpt lat="49.32825" lon="-0.52768">
        <ele>42.400001525879</ele>
        <time>2026-03-24T14:21:13.000Z</time>
      </trkpt>
      <trkpt lat="49.32824" lon="-0.52768">
        <ele>42.400001525879</ele>
        <time>2026-03-24T14:21:14.000Z</time>
      </trkpt>
      <trkpt lat="49.32822" lon="-0.52768">
        <ele>42.400001525879</ele>
        <time>2026-03-24T14:21:15.000Z</time>
      </trkpt>
      <trkpt lat="49.32821" lon="-0.52768">
        <ele>42.400001525879</ele>
        <time>2026-03-24T14:21:16.000Z</time>
      </trkpt>
      <trkpt lat="49.3282" lon="-0.52768">
        <ele>42.400001525879</ele>
        <time>2026-03-24T14:21:17.000Z</time>
      </trkpt>
      <trkpt lat="49.32819" lon="-0.52768">
        <ele>42.400001525879</ele>
        <time>2026-03-24T14:21:18.000Z</time>
      </trkpt>
      <trkpt lat="49.32818" lon="-0.52769">
        <ele>42.400001525879</ele>
        <time>2026-03-24T14:21:19.000Z</time>
      </trkpt>
      <trkpt lat="49.32817" lon="-0.52769">
        <ele>42.400001525879</ele>
        <time>2026-03-24T14:21:20.000Z</time>
      </trkpt>
      <trkpt lat="49.32816" lon="-0.52769">
        <ele>42.400001525879</ele>
        <time>2026-03-24T14:21:21.000Z</time>
      </trkpt>
      <trkpt lat="49.32815" lon="-0.5277">
        <ele>42.400001525879</ele>
        <time>2026-03-24T14:21:22.000Z</time>
      </trkpt>
      <trkpt lat="49.32814" lon="-0.5277">
        <ele>42.200000762939</ele>
        <time>2026-03-24T14:21:23.000Z</time>
      </trkpt>
      <trkpt lat="49.32813" lon="-0.52771">
        <ele>42.200000762939</ele>
        <time>2026-03-24T14:21:24.000Z</time>
      </trkpt>
      <trkpt lat="49.32812" lon="-0.52772">
        <ele>42.200000762939</ele>
        <time>2026-03-24T14:21:25.000Z</time>
      </trkpt>
      <trkpt lat="49.32811" lon="-0.52772">
        <ele>42.200000762939</ele>
        <time>2026-03-24T14:21:26.000Z</time>
      </trkpt>
      <trkpt lat="49.3281" lon="-0.52772">
        <ele>42.200000762939</ele>
        <time>2026-03-24T14:21:27.000Z</time>
      </trkpt>
      <trkpt lat="49.32809" lon="-0.52773">
        <ele>42.200000762939</ele>
        <time>2026-03-24T14:21:28.000Z</time>
      </trkpt>
      <trkpt lat="49.32808" lon="-0.52774">
        <ele>42.200000762939</ele>
        <time>2026-03-24T14:21:29.000Z</time>
      </trkpt>
      <trkpt lat="49.32807" lon="-0.52774">
        <ele>42.200000762939</ele>
        <time>2026-03-24T14:21:30.000Z</time>
      </trkpt>
      <trkpt lat="49.32805" lon="-0.52774">
        <ele>42.200000762939</ele>
        <time>2026-03-24T14:21:31.000Z</time>
      </trkpt>
      <trkpt lat="49.32804" lon="-0.52774">
        <ele>42.200000762939</ele>
        <time>2026-03-24T14:21:32.000Z</time>
      </trkpt>
      <trkpt lat="49.32803" lon="-0.52775">
        <ele>42.200000762939</ele>
        <time>2026-03-24T14:21:33.000Z</time>
      </trkpt>
      <trkpt lat="49.32802" lon="-0.52775">
        <ele>42.200000762939</ele>
        <time>2026-03-24T14:21:34.000Z</time>
      </trkpt>
      <trkpt lat="49.32801" lon="-0.52775">
        <ele>42.200000762939</ele>
        <time>2026-03-24T14:21:35.000Z</time>
      </trkpt>
      <trkpt lat="49.328" lon="-0.52775">
        <ele>42.200000762939</ele>
        <time>2026-03-24T14:21:36.000Z</time>
      </trkpt>
      <trkpt lat="49.32798" lon="-0.52776">
        <ele>42.200000762939</ele>
        <time>2026-03-24T14:21:37.000Z</time>
      </trkpt>
      <trkpt lat="49.32797" lon="-0.52776">
        <ele>42.200000762939</ele>
        <time>2026-03-24T14:21:38.000Z</time>
      </trkpt>
      <trkpt lat="49.32797" lon="-0.52776">
        <ele>42.200000762939</ele>
        <time>2026-03-24T14:21:39.000Z</time>
      </trkpt>
      <trkpt lat="49.32795" lon="-0.52777">
        <ele>42.200000762939</ele>
        <time>2026-03-24T14:21:40.000Z</time>
      </trkpt>
      <trkpt lat="49.32794" lon="-0.52777">
        <ele>42.200000762939</ele>
        <time>2026-03-24T14:21:41.000Z</time>
      </trkpt>
      <trkpt lat="49.32793" lon="-0.52778">
        <ele>42.200000762939</ele>
        <time>2026-03-24T14:21:42.000Z</time>
      </trkpt>
      <trkpt lat="49.32792" lon="-0.52779">
        <ele>42.200000762939</ele>
        <time>2026-03-24T14:21:43.000Z</time>
      </trkpt>
      <trkpt lat="49.32791" lon="-0.52779">
        <ele>42.400001525879</ele>
        <time>2026-03-24T14:21:44.000Z</time>
      </trkpt>
      <trkpt lat="49.3279" lon="-0.52779">
        <ele>42.400001525879</ele>
        <time>2026-03-24T14:21:45.000Z</time>
      </trkpt>
      <trkpt lat="49.32788" lon="-0.52779">
        <ele>42.400001525879</ele>
        <time>2026-03-24T14:21:46.000Z</time>
      </trkpt>
      <trkpt lat="49.32787" lon="-0.52779">
        <ele>42.400001525879</ele>
        <time>2026-03-24T14:21:47.000Z</time>
      </trkpt>
      <trkpt lat="49.32786" lon="-0.52779">
        <ele>42.599998474121</ele>
        <time>2026-03-24T14:21:48.000Z</time>
      </trkpt>
      <trkpt lat="49.32785" lon="-0.52779">
        <ele>42.599998474121</ele>
        <time>2026-03-24T14:21:49.000Z</time>
      </trkpt>
      <trkpt lat="49.32784" lon="-0.52779">
        <ele>42.599998474121</ele>
        <time>2026-03-24T14:21:50.000Z</time>
      </trkpt>
      <trkpt lat="49.32783" lon="-0.52779">
        <ele>42.599998474121</ele>
        <time>2026-03-24T14:21:51.000Z</time>
      </trkpt>
      <trkpt lat="49.32782" lon="-0.52779">
        <ele>42.599998474121</ele>
        <time>2026-03-24T14:21:52.000Z</time>
      </trkpt>
      <trkpt lat="49.32781" lon="-0.5278">
        <ele>42.599998474121</ele>
        <time>2026-03-24T14:21:53.000Z</time>
      </trkpt>
      <trkpt lat="49.32779" lon="-0.5278">
        <ele>42.799999237061</ele>
        <time>2026-03-24T14:21:54.000Z</time>
      </trkpt>
      <trkpt lat="49.32778" lon="-0.5278">
        <ele>42.799999237061</ele>
        <time>2026-03-24T14:21:55.000Z</time>
      </trkpt>
      <trkpt lat="49.32777" lon="-0.5278">
        <ele>42.799999237061</ele>
        <time>2026-03-24T14:21:56.000Z</time>
      </trkpt>
      <trkpt lat="49.32776" lon="-0.52781">
        <ele>42.799999237061</ele>
        <time>2026-03-24T14:21:57.000Z</time>
      </trkpt>
      <trkpt lat="49.32775" lon="-0.52781">
        <ele>42.799999237061</ele>
        <time>2026-03-24T14:21:58.000Z</time>
      </trkpt>
      <trkpt lat="49.32774" lon="-0.52781">
        <ele>42.799999237061</ele>
        <time>2026-03-24T14:21:59.000Z</time>
      </trkpt>
      <trkpt lat="49.32773" lon="-0.52782">
        <ele>42.799999237061</ele>
        <time>2026-03-24T14:22:00.000Z</time>
      </trkpt>
      <trkpt lat="49.32772" lon="-0.52782">
        <ele>42.799999237061</ele>
        <time>2026-03-24T14:22:01.000Z</time>
      </trkpt>
      <trkpt lat="49.32771" lon="-0.52783">
        <ele>42.799999237061</ele>
        <time>2026-03-24T14:22:02.000Z</time>
      </trkpt>
      <trkpt lat="49.3277" lon="-0.52783">
        <ele>42.799999237061</ele>
        <time>2026-03-24T14:22:03.000Z</time>
      </trkpt>
      <trkpt lat="49.32769" lon="-0.52784">
        <ele>42.599998474121</ele>
        <time>2026-03-24T14:22:04.000Z</time>
      </trkpt>
      <trkpt lat="49.32768" lon="-0.52784">
        <ele>42.599998474121</ele>
        <time>2026-03-24T14:22:05.000Z</time>
      </trkpt>
      <trkpt lat="49.32767" lon="-0.52785">
        <ele>42.599998474121</ele>
        <time>2026-03-24T14:22:06.000Z</time>
      </trkpt>
      <trkpt lat="49.32766" lon="-0.52785">
        <ele>42.599998474121</ele>
        <time>2026-03-24T14:22:07.000Z</time>
      </trkpt>
      <trkpt lat="49.32765" lon="-0.52786">
        <ele>42.400001525879</ele>
        <time>2026-03-24T14:22:08.000Z</time>
      </trkpt>
      <trkpt lat="49.32764" lon="-0.52786">
        <ele>42.400001525879</ele>
        <time>2026-03-24T14:22:09.000Z</time>
      </trkpt>
      <trkpt lat="49.32762" lon="-0.52787">
        <ele>42.400001525879</ele>
        <time>2026-03-24T14:22:10.000Z</time>
      </trkpt>
      <trkpt lat="49.32761" lon="-0.52788">
        <ele>42.200000762939</ele>
        <time>2026-03-24T14:22:11.000Z</time>
      </trkpt>
      <trkpt lat="49.3276" lon="-0.52788">
        <ele>42.200000762939</ele>
        <time>2026-03-24T14:22:12.000Z</time>
      </trkpt>
      <trkpt lat="49.32759" lon="-0.52788">
        <ele>42.200000762939</ele>
        <time>2026-03-24T14:22:13.000Z</time>
      </trkpt>
      <trkpt lat="49.32758" lon="-0.52788">
        <ele>42.200000762939</ele>
        <time>2026-03-24T14:22:14.000Z</time>
      </trkpt>
      <trkpt lat="49.32757" lon="-0.52789">
        <ele>42</ele>
        <time>2026-03-24T14:22:15.000Z</time>
      </trkpt>
      <trkpt lat="49.32756" lon="-0.5279">
        <ele>42</ele>
        <time>2026-03-24T14:22:16.000Z</time>
      </trkpt>
      <trkpt lat="49.32755" lon="-0.5279">
        <ele>42</ele>
        <time>2026-03-24T14:22:17.000Z</time>
      </trkpt>
      <trkpt lat="49.32753" lon="-0.52791">
        <ele>41.799999237061</ele>
        <time>2026-03-24T14:22:18.000Z</time>
      </trkpt>
      <trkpt lat="49.32752" lon="-0.52791">
        <ele>41.799999237061</ele>
        <time>2026-03-24T14:22:19.000Z</time>
      </trkpt>
      <trkpt lat="49.32751" lon="-0.52792">
        <ele>41.799999237061</ele>
        <time>2026-03-24T14:22:20.000Z</time>
      </trkpt>
      <trkpt lat="49.3275" lon="-0.52792">
        <ele>41.599998474121</ele>
        <time>2026-03-24T14:22:21.000Z</time>
      </trkpt>
      <trkpt lat="49.32748" lon="-0.52793">
        <ele>41.599998474121</ele>
        <time>2026-03-24T14:22:22.000Z</time>
      </trkpt>
      <trkpt lat="49.32747" lon="-0.52793">
        <ele>41.599998474121</ele>
        <time>2026-03-24T14:22:23.000Z</time>
      </trkpt>
      <trkpt lat="49.32746" lon="-0.52794">
        <ele>41.400001525879</ele>
        <time>2026-03-24T14:22:24.000Z</time>
      </trkpt>
      <trkpt lat="49.32745" lon="-0.52794">
        <ele>41.400001525879</ele>
        <time>2026-03-24T14:22:25.000Z</time>
      </trkpt>
      <trkpt lat="49.32744" lon="-0.52794">
        <ele>41.400001525879</ele>
        <time>2026-03-24T14:22:26.000Z</time>
      </trkpt>
      <trkpt lat="49.32743" lon="-0.52795">
        <ele>41.599998474121</ele>
        <time>2026-03-24T14:22:27.000Z</time>
      </trkpt>
      <trkpt lat="49.32741" lon="-0.52795">
        <ele>41.599998474121</ele>
        <time>2026-03-24T14:22:28.000Z</time>
      </trkpt>
      <trkpt lat="49.3274" lon="-0.52796">
        <ele>41.599998474121</ele>
        <time>2026-03-24T14:22:29.000Z</time>
      </trkpt>
      <trkpt lat="49.32739" lon="-0.52797">
        <ele>41.599998474121</ele>
        <time>2026-03-24T14:22:30.000Z</time>
      </trkpt>
      <trkpt lat="49.32738" lon="-0.52797">
        <ele>41.599998474121</ele>
        <time>2026-03-24T14:22:31.000Z</time>
      </trkpt>
      <trkpt lat="49.32737" lon="-0.52798">
        <ele>41.599998474121</ele>
        <time>2026-03-24T14:22:32.000Z</time>
      </trkpt>
      <trkpt lat="49.32736" lon="-0.52798">
        <ele>41.599998474121</ele>
        <time>2026-03-24T14:22:33.000Z</time>
      </trkpt>
      <trkpt lat="49.32736" lon="-0.52799">
        <ele>41.599998474121</ele>
        <time>2026-03-24T14:22:34.000Z</time>
      </trkpt>
      <trkpt lat="49.32735" lon="-0.528">
        <ele>41.599998474121</ele>
        <time>2026-03-24T14:22:35.000Z</time>
      </trkpt>
      <trkpt lat="49.32734" lon="-0.52801">
        <ele>41.599998474121</ele>
        <time>2026-03-24T14:22:36.000Z</time>
      </trkpt>
      <trkpt lat="49.32733" lon="-0.52802">
        <ele>41.599998474121</ele>
        <time>2026-03-24T14:22:37.000Z</time>
      </trkpt>
      <trkpt lat="49.32732" lon="-0.52802">
        <ele>41.599998474121</ele>
        <time>2026-03-24T14:22:38.000Z</time>
      </trkpt>
      <trkpt lat="49.32731" lon="-0.52803">
        <ele>41.599998474121</ele>
        <time>2026-03-24T14:22:39.000Z</time>
      </trkpt>
      <trkpt lat="49.3273" lon="-0.52804">
        <ele>41.599998474121</ele>
        <time>2026-03-24T14:22:40.000Z</time>
      </trkpt>
      <trkpt lat="49.32729" lon="-0.52804">
        <ele>41.599998474121</ele>
        <time>2026-03-24T14:22:41.000Z</time>
      </trkpt>
      <trkpt lat="49.32728" lon="-0.52805">
        <ele>41.599998474121</ele>
        <time>2026-03-24T14:22:42.000Z</time>
      </trkpt>
      <trkpt lat="49.32727" lon="-0.52805">
        <ele>41.799999237061</ele>
        <time>2026-03-24T14:22:43.000Z</time>
      </trkpt>
      <trkpt lat="49.32726" lon="-0.52806">
        <ele>41.799999237061</ele>
        <time>2026-03-24T14:22:44.000Z</time>
      </trkpt>
      <trkpt lat="49.32725" lon="-0.52806">
        <ele>41.799999237061</ele>
        <time>2026-03-24T14:22:45.000Z</time>
      </trkpt>
      <trkpt lat="49.32724" lon="-0.52807">
        <ele>41.799999237061</ele>
        <time>2026-03-24T14:22:46.000Z</time>
      </trkpt>
      <trkpt lat="49.32723" lon="-0.52808">
        <ele>41.799999237061</ele>
        <time>2026-03-24T14:22:47.000Z</time>
      </trkpt>
      <trkpt lat="49.32721" lon="-0.52808">
        <ele>41.799999237061</ele>
        <time>2026-03-24T14:22:48.000Z</time>
      </trkpt>
      <trkpt lat="49.3272" lon="-0.52809">
        <ele>41.799999237061</ele>
        <time>2026-03-24T14:22:49.000Z</time>
      </trkpt>
      <trkpt lat="49.32719" lon="-0.5281">
        <ele>42</ele>
        <time>2026-03-24T14:22:50.000Z</time>
      </trkpt>
      <trkpt lat="49.32718" lon="-0.52811">
        <ele>42</ele>
        <time>2026-03-24T14:22:51.000Z</time>
      </trkpt>
      <trkpt lat="49.32717" lon="-0.52811">
        <ele>42</ele>
        <time>2026-03-24T14:22:52.000Z</time>
      </trkpt>
      <trkpt lat="49.32716" lon="-0.52812">
        <ele>42.200000762939</ele>
        <time>2026-03-24T14:22:53.000Z</time>
      </trkpt>
      <trkpt lat="49.32715" lon="-0.52812">
        <ele>42.200000762939</ele>
        <time>2026-03-24T14:22:54.000Z</time>
      </trkpt>
      <trkpt lat="49.32714" lon="-0.52813">
        <ele>42.400001525879</ele>
        <time>2026-03-24T14:22:55.000Z</time>
      </trkpt>
      <trkpt lat="49.32713" lon="-0.52813">
        <ele>42.400001525879</ele>
        <time>2026-03-24T14:22:56.000Z</time>
      </trkpt>
      <trkpt lat="49.32712" lon="-0.52814">
        <ele>42.599998474121</ele>
        <time>2026-03-24T14:22:57.000Z</time>
      </trkpt>
      <trkpt lat="49.32711" lon="-0.52814">
        <ele>42.799999237061</ele>
        <time>2026-03-24T14:22:58.000Z</time>
      </trkpt>
      <trkpt lat="49.3271" lon="-0.52815">
        <ele>42.799999237061</ele>
        <time>2026-03-24T14:22:59.000Z</time>
      </trkpt>
      <trkpt lat="49.32709" lon="-0.52816">
        <ele>43</ele>
        <time>2026-03-24T14:23:00.000Z</time>
      </trkpt>
      <trkpt lat="49.32708" lon="-0.52817">
        <ele>43</ele>
        <time>2026-03-24T14:23:01.000Z</time>
      </trkpt>
      <trkpt lat="49.32707" lon="-0.52817">
        <ele>43.200000762939</ele>
        <time>2026-03-24T14:23:02.000Z</time>
      </trkpt>
      <trkpt lat="49.32706" lon="-0.52818">
        <ele>43.200000762939</ele>
        <time>2026-03-24T14:23:03.000Z</time>
      </trkpt>
      <trkpt lat="49.32705" lon="-0.52818">
        <ele>43.400001525879</ele>
        <time>2026-03-24T14:23:04.000Z</time>
      </trkpt>
      <trkpt lat="49.32704" lon="-0.52819">
        <ele>43.400001525879</ele>
        <time>2026-03-24T14:23:05.000Z</time>
      </trkpt>
      <trkpt lat="49.32703" lon="-0.52819">
        <ele>43.599998474121</ele>
        <time>2026-03-24T14:23:06.000Z</time>
      </trkpt>
      <trkpt lat="49.32702" lon="-0.5282">
        <ele>43.599998474121</ele>
        <time>2026-03-24T14:23:07.000Z</time>
      </trkpt>
      <trkpt lat="49.32701" lon="-0.5282">
        <ele>43.599998474121</ele>
        <time>2026-03-24T14:23:08.000Z</time>
      </trkpt>
      <trkpt lat="49.327" lon="-0.52821">
        <ele>43.799999237061</ele>
        <time>2026-03-24T14:23:09.000Z</time>
      </trkpt>
      <trkpt lat="49.32699" lon="-0.52821">
        <ele>43.799999237061</ele>
        <time>2026-03-24T14:23:10.000Z</time>
      </trkpt>
      <trkpt lat="49.32698" lon="-0.52821">
        <ele>44</ele>
        <time>2026-03-24T14:23:11.000Z</time>
      </trkpt>
      <trkpt lat="49.32697" lon="-0.52822">
        <ele>44</ele>
        <time>2026-03-24T14:23:12.000Z</time>
      </trkpt>
      <trkpt lat="49.32696" lon="-0.52822">
        <ele>44</ele>
        <time>2026-03-24T14:23:13.000Z</time>
      </trkpt>
      <trkpt lat="49.32695" lon="-0.52823">
        <ele>44.200000762939</ele>
        <time>2026-03-24T14:23:14.000Z</time>
      </trkpt>
      <trkpt lat="49.32694" lon="-0.52823">
        <ele>44.200000762939</ele>
        <time>2026-03-24T14:23:15.000Z</time>
      </trkpt>
      <trkpt lat="49.32693" lon="-0.52823">
        <ele>44.400001525879</ele>
        <time>2026-03-24T14:23:16.000Z</time>
      </trkpt>
      <trkpt lat="49.32692" lon="-0.52824">
        <ele>44.400001525879</ele>
        <time>2026-03-24T14:23:17.000Z</time>
      </trkpt>
      <trkpt lat="49.32691" lon="-0.52825">
        <ele>44.599998474121</ele>
        <time>2026-03-24T14:23:18.000Z</time>
      </trkpt>
      <trkpt lat="49.3269" lon="-0.52826">
        <ele>44.599998474121</ele>
        <time>2026-03-24T14:23:19.000Z</time>
      </trkpt>
      <trkpt lat="49.32689" lon="-0.52826">
        <ele>44.799999237061</ele>
        <time>2026-03-24T14:23:20.000Z</time>
      </trkpt>
      <trkpt lat="49.32688" lon="-0.52828">
        <ele>44.799999237061</ele>
        <time>2026-03-24T14:23:21.000Z</time>
      </trkpt>
      <trkpt lat="49.32687" lon="-0.52828">
        <ele>44.799999237061</ele>
        <time>2026-03-24T14:23:22.000Z</time>
      </trkpt>
      <trkpt lat="49.32686" lon="-0.52829">
        <ele>45</ele>
        <time>2026-03-24T14:23:23.000Z</time>
      </trkpt>
      <trkpt lat="49.32684" lon="-0.5283">
        <ele>45</ele>
        <time>2026-03-24T14:23:24.000Z</time>
      </trkpt>
      <trkpt lat="49.32683" lon="-0.5283">
        <ele>45</ele>
        <time>2026-03-24T14:23:25.000Z</time>
      </trkpt>
      <trkpt lat="49.32682" lon="-0.5283">
        <ele>45.200000762939</ele>
        <time>2026-03-24T14:23:26.000Z</time>
      </trkpt>
      <trkpt lat="49.32681" lon="-0.52831">
        <ele>45.200000762939</ele>
        <time>2026-03-24T14:23:27.000Z</time>
      </trkpt>
      <trkpt lat="49.3268" lon="-0.52831">
        <ele>45.200000762939</ele>
        <time>2026-03-24T14:23:28.000Z</time>
      </trkpt>
      <trkpt lat="49.32678" lon="-0.52831">
        <ele>45.400001525879</ele>
        <time>2026-03-24T14:23:29.000Z</time>
      </trkpt>
      <trkpt lat="49.32677" lon="-0.52831">
        <ele>45.400001525879</ele>
        <time>2026-03-24T14:23:30.000Z</time>
      </trkpt>
      <trkpt lat="49.32676" lon="-0.52832">
        <ele>45.400001525879</ele>
        <time>2026-03-24T14:23:31.000Z</time>
      </trkpt>
      <trkpt lat="49.32675" lon="-0.52832">
        <ele>45.400001525879</ele>
        <time>2026-03-24T14:23:32.000Z</time>
      </trkpt>
      <trkpt lat="49.32674" lon="-0.52832">
        <ele>45.400001525879</ele>
        <time>2026-03-24T14:23:33.000Z</time>
      </trkpt>
      <trkpt lat="49.32673" lon="-0.52832">
        <ele>45.599998474121</ele>
        <time>2026-03-24T14:23:34.000Z</time>
      </trkpt>
      <trkpt lat="49.32672" lon="-0.52831">
        <ele>45.599998474121</ele>
        <time>2026-03-24T14:23:35.000Z</time>
      </trkpt>
      <trkpt lat="49.32671" lon="-0.52831">
        <ele>45.599998474121</ele>
        <time>2026-03-24T14:23:36.000Z</time>
      </trkpt>
      <trkpt lat="49.3267" lon="-0.52831">
        <ele>45.599998474121</ele>
        <time>2026-03-24T14:23:37.000Z</time>
      </trkpt>
      <trkpt lat="49.32669" lon="-0.52831">
        <ele>45.599998474121</ele>
        <time>2026-03-24T14:23:38.000Z</time>
      </trkpt>
      <trkpt lat="49.32668" lon="-0.52831">
        <ele>45.599998474121</ele>
        <time>2026-03-24T14:23:39.000Z</time>
      </trkpt>
      <trkpt lat="49.32667" lon="-0.52831">
        <ele>45.799999237061</ele>
        <time>2026-03-24T14:23:40.000Z</time>
      </trkpt>
      <trkpt lat="49.32666" lon="-0.52831">
        <ele>45.799999237061</ele>
        <time>2026-03-24T14:23:41.000Z</time>
      </trkpt>
      <trkpt lat="49.32664" lon="-0.52831">
        <ele>45.799999237061</ele>
        <time>2026-03-24T14:23:42.000Z</time>
      </trkpt>
      <trkpt lat="49.32663" lon="-0.52831">
        <ele>45.799999237061</ele>
        <time>2026-03-24T14:23:43.000Z</time>
      </trkpt>
      <trkpt lat="49.32662" lon="-0.52831">
        <ele>45.799999237061</ele>
        <time>2026-03-24T14:23:44.000Z</time>
      </trkpt>
      <trkpt lat="49.32661" lon="-0.52831">
        <ele>45.799999237061</ele>
        <time>2026-03-24T14:23:45.000Z</time>
      </trkpt>
      <trkpt lat="49.32659" lon="-0.52831">
        <ele>45.599998474121</ele>
        <time>2026-03-24T14:23:46.000Z</time>
      </trkpt>
      <trkpt lat="49.32658" lon="-0.52831">
        <ele>45.599998474121</ele>
        <time>2026-03-24T14:23:47.000Z</time>
      </trkpt>
      <trkpt lat="49.32657" lon="-0.52831">
        <ele>45.599998474121</ele>
        <time>2026-03-24T14:23:48.000Z</time>
      </trkpt>
      <trkpt lat="49.32656" lon="-0.52831">
        <ele>45.400001525879</ele>
        <time>2026-03-24T14:23:49.000Z</time>
      </trkpt>
      <trkpt lat="49.32655" lon="-0.52831">
        <ele>45.400001525879</ele>
        <time>2026-03-24T14:23:50.000Z</time>
      </trkpt>
      <trkpt lat="49.32654" lon="-0.52831">
        <ele>45.200000762939</ele>
        <time>2026-03-24T14:23:51.000Z</time>
      </trkpt>
      <trkpt lat="49.32652" lon="-0.52831">
        <ele>45.200000762939</ele>
        <time>2026-03-24T14:23:52.000Z</time>
      </trkpt>
      <trkpt lat="49.32651" lon="-0.52831">
        <ele>45.200000762939</ele>
        <time>2026-03-24T14:23:53.000Z</time>
      </trkpt>
      <trkpt lat="49.3265" lon="-0.52831">
        <ele>45</ele>
        <time>2026-03-24T14:23:54.000Z</time>
      </trkpt>
      <trkpt lat="49.32649" lon="-0.52831">
        <ele>45</ele>
        <time>2026-03-24T14:23:55.000Z</time>
      </trkpt>
      <trkpt lat="49.32647" lon="-0.52831">
        <ele>44.799999237061</ele>
        <time>2026-03-24T14:23:56.000Z</time>
      </trkpt>
      <trkpt lat="49.32646" lon="-0.52831">
        <ele>44.799999237061</ele>
        <time>2026-03-24T14:23:57.000Z</time>
      </trkpt>
      <trkpt lat="49.32645" lon="-0.52831">
        <ele>44.599998474121</ele>
        <time>2026-03-24T14:23:58.000Z</time>
      </trkpt>
      <trkpt lat="49.32644" lon="-0.52831">
        <ele>44.599998474121</ele>
        <time>2026-03-24T14:23:59.000Z</time>
      </trkpt>
      <trkpt lat="49.32643" lon="-0.52831">
        <ele>44.599998474121</ele>
        <time>2026-03-24T14:24:00.000Z</time>
      </trkpt>
      <trkpt lat="49.32642" lon="-0.52831">
        <ele>44.400001525879</ele>
        <time>2026-03-24T14:24:01.000Z</time>
      </trkpt>
      <trkpt lat="49.32641" lon="-0.52831">
        <ele>44.400001525879</ele>
        <time>2026-03-24T14:24:02.000Z</time>
      </trkpt>
      <trkpt lat="49.3264" lon="-0.52831">
        <ele>44.200000762939</ele>
        <time>2026-03-24T14:24:03.000Z</time>
      </trkpt>
      <trkpt lat="49.32639" lon="-0.5283">
        <ele>44.200000762939</ele>
        <time>2026-03-24T14:24:04.000Z</time>
      </trkpt>
      <trkpt lat="49.32638" lon="-0.5283">
        <ele>44.200000762939</ele>
        <time>2026-03-24T14:24:05.000Z</time>
      </trkpt>
      <trkpt lat="49.32636" lon="-0.5283">
        <ele>44</ele>
        <time>2026-03-24T14:24:06.000Z</time>
      </trkpt>
      <trkpt lat="49.32635" lon="-0.5283">
        <ele>44</ele>
        <time>2026-03-24T14:24:07.000Z</time>
      </trkpt>
      <trkpt lat="49.32634" lon="-0.5283">
        <ele>44</ele>
        <time>2026-03-24T14:24:08.000Z</time>
      </trkpt>
      <trkpt lat="49.32633" lon="-0.5283">
        <ele>44</ele>
        <time>2026-03-24T14:24:09.000Z</time>
      </trkpt>
      <trkpt lat="49.32632" lon="-0.5283">
        <ele>44</ele>
        <time>2026-03-24T14:24:10.000Z</time>
      </trkpt>
      <trkpt lat="49.32631" lon="-0.52829">
        <ele>43.799999237061</ele>
        <time>2026-03-24T14:24:11.000Z</time>
      </trkpt>
      <trkpt lat="49.3263" lon="-0.52829">
        <ele>43.799999237061</ele>
        <time>2026-03-24T14:24:12.000Z</time>
      </trkpt>
      <trkpt lat="49.32629" lon="-0.52829">
        <ele>43.799999237061</ele>
        <time>2026-03-24T14:24:13.000Z</time>
      </trkpt>
      <trkpt lat="49.32628" lon="-0.52829">
        <ele>43.799999237061</ele>
        <time>2026-03-24T14:24:14.000Z</time>
      </trkpt>
      <trkpt lat="49.32627" lon="-0.52829">
        <ele>43.799999237061</ele>
        <time>2026-03-24T14:24:15.000Z</time>
      </trkpt>
      <trkpt lat="49.32626" lon="-0.52829">
        <ele>43.799999237061</ele>
        <time>2026-03-24T14:24:16.000Z</time>
      </trkpt>
      <trkpt lat="49.32625" lon="-0.52829">
        <ele>43.599998474121</ele>
        <time>2026-03-24T14:24:17.000Z</time>
      </trkpt>
      <trkpt lat="49.32624" lon="-0.5283">
        <ele>43.599998474121</ele>
        <time>2026-03-24T14:24:18.000Z</time>
      </trkpt>
      <trkpt lat="49.32622" lon="-0.5283">
        <ele>43.599998474121</ele>
        <time>2026-03-24T14:24:19.000Z</time>
      </trkpt>
      <trkpt lat="49.32621" lon="-0.5283">
        <ele>43.599998474121</ele>
        <time>2026-03-24T14:24:20.000Z</time>
      </trkpt>
      <trkpt lat="49.3262" lon="-0.52829">
        <ele>43.599998474121</ele>
        <time>2026-03-24T14:24:21.000Z</time>
      </trkpt>
      <trkpt lat="49.32619" lon="-0.52829">
        <ele>43.400001525879</ele>
        <time>2026-03-24T14:24:22.000Z</time>
      </trkpt>
      <trkpt lat="49.32618" lon="-0.52829">
        <ele>43.400001525879</ele>
        <time>2026-03-24T14:24:23.000Z</time>
      </trkpt>
      <trkpt lat="49.32617" lon="-0.52829">
        <ele>43.400001525879</ele>
        <time>2026-03-24T14:24:24.000Z</time>
      </trkpt>
      <trkpt lat="49.32615" lon="-0.52829">
        <ele>43.400001525879</ele>
        <time>2026-03-24T14:24:25.000Z</time>
      </trkpt>
      <trkpt lat="49.32614" lon="-0.52829">
        <ele>43.200000762939</ele>
        <time>2026-03-24T14:24:26.000Z</time>
      </trkpt>
      <trkpt lat="49.32613" lon="-0.52829">
        <ele>43.200000762939</ele>
        <time>2026-03-24T14:24:27.000Z</time>
      </trkpt>
      <trkpt lat="49.32612" lon="-0.52828">
        <ele>43.200000762939</ele>
        <time>2026-03-24T14:24:28.000Z</time>
      </trkpt>
      <trkpt lat="49.32611" lon="-0.52828">
        <ele>43.200000762939</ele>
        <time>2026-03-24T14:24:29.000Z</time>
      </trkpt>
      <trkpt lat="49.3261" lon="-0.52828">
        <ele>43.200000762939</ele>
        <time>2026-03-24T14:24:30.000Z</time>
      </trkpt>
      <trkpt lat="49.32609" lon="-0.52828">
        <ele>43.200000762939</ele>
        <time>2026-03-24T14:24:31.000Z</time>
      </trkpt>
      <trkpt lat="49.32608" lon="-0.52827">
        <ele>43.200000762939</ele>
        <time>2026-03-24T14:24:32.000Z</time>
      </trkpt>
      <trkpt lat="49.32607" lon="-0.52827">
        <ele>43.200000762939</ele>
        <time>2026-03-24T14:24:33.000Z</time>
      </trkpt>
      <trkpt lat="49.32606" lon="-0.52827">
        <ele>43.200000762939</ele>
        <time>2026-03-24T14:24:34.000Z</time>
      </trkpt>
      <trkpt lat="49.32604" lon="-0.52827">
        <ele>43.200000762939</ele>
        <time>2026-03-24T14:24:35.000Z</time>
      </trkpt>
      <trkpt lat="49.32603" lon="-0.52827">
        <ele>43.200000762939</ele>
        <time>2026-03-24T14:24:36.000Z</time>
      </trkpt>
      <trkpt lat="49.32602" lon="-0.52827">
        <ele>43.200000762939</ele>
        <time>2026-03-24T14:24:37.000Z</time>
      </trkpt>
      <trkpt lat="49.32601" lon="-0.52826">
        <ele>43.200000762939</ele>
        <time>2026-03-24T14:24:38.000Z</time>
      </trkpt>
      <trkpt lat="49.326" lon="-0.52826">
        <ele>43.200000762939</ele>
        <time>2026-03-24T14:24:39.000Z</time>
      </trkpt>
      <trkpt lat="49.32599" lon="-0.52826">
        <ele>43.200000762939</ele>
        <time>2026-03-24T14:24:40.000Z</time>
      </trkpt>
      <trkpt lat="49.32598" lon="-0.52827">
        <ele>43.200000762939</ele>
        <time>2026-03-24T14:24:41.000Z</time>
      </trkpt>
      <trkpt lat="49.32597" lon="-0.52826">
        <ele>43.200000762939</ele>
        <time>2026-03-24T14:24:42.000Z</time>
      </trkpt>
      <trkpt lat="49.32596" lon="-0.52826">
        <ele>43.200000762939</ele>
        <time>2026-03-24T14:24:43.000Z</time>
      </trkpt>
      <trkpt lat="49.32595" lon="-0.52826">
        <ele>43.200000762939</ele>
        <time>2026-03-24T14:24:44.000Z</time>
      </trkpt>
      <trkpt lat="49.32594" lon="-0.52826">
        <ele>43.200000762939</ele>
        <time>2026-03-24T14:24:45.000Z</time>
      </trkpt>
      <trkpt lat="49.32593" lon="-0.52826">
        <ele>43.200000762939</ele>
        <time>2026-03-24T14:24:46.000Z</time>
      </trkpt>
      <trkpt lat="49.32592" lon="-0.52826">
        <ele>43.400001525879</ele>
        <time>2026-03-24T14:24:47.000Z</time>
      </trkpt>
      <trkpt lat="49.3259" lon="-0.52825">
        <ele>43.400001525879</ele>
        <time>2026-03-24T14:24:48.000Z</time>
      </trkpt>
      <trkpt lat="49.32589" lon="-0.52824">
        <ele>43.400001525879</ele>
        <time>2026-03-24T14:24:49.000Z</time>
      </trkpt>
      <trkpt lat="49.32588" lon="-0.52824">
        <ele>43.400001525879</ele>
        <time>2026-03-24T14:24:50.000Z</time>
      </trkpt>
      <trkpt lat="49.32587" lon="-0.52823">
        <ele>43.400001525879</ele>
        <time>2026-03-24T14:24:51.000Z</time>
      </trkpt>
      <trkpt lat="49.32586" lon="-0.52823">
        <ele>43.400001525879</ele>
        <time>2026-03-24T14:24:52.000Z</time>
      </trkpt>
      <trkpt lat="49.32584" lon="-0.52823">
        <ele>43.400001525879</ele>
        <time>2026-03-24T14:24:53.000Z</time>
      </trkpt>
      <trkpt lat="49.32583" lon="-0.52822">
        <ele>43.400001525879</ele>
        <time>2026-03-24T14:24:54.000Z</time>
      </trkpt>
      <trkpt lat="49.32582" lon="-0.52822">
        <ele>43.400001525879</ele>
        <time>2026-03-24T14:24:55.000Z</time>
      </trkpt>
      <trkpt lat="49.32581" lon="-0.52822">
        <ele>43.400001525879</ele>
        <time>2026-03-24T14:24:56.000Z</time>
      </trkpt>
      <trkpt lat="49.3258" lon="-0.52821">
        <ele>43.400001525879</ele>
        <time>2026-03-24T14:24:57.000Z</time>
      </trkpt>
      <trkpt lat="49.32579" lon="-0.52821">
        <ele>43.400001525879</ele>
        <time>2026-03-24T14:24:58.000Z</time>
      </trkpt>
      <trkpt lat="49.32578" lon="-0.52821">
        <ele>43.599998474121</ele>
        <time>2026-03-24T14:24:59.000Z</time>
      </trkpt>
      <trkpt lat="49.32577" lon="-0.5282">
        <ele>43.599998474121</ele>
        <time>2026-03-24T14:25:00.000Z</time>
      </trkpt>
      <trkpt lat="49.32575" lon="-0.5282">
        <ele>43.599998474121</ele>
        <time>2026-03-24T14:25:01.000Z</time>
      </trkpt>
      <trkpt lat="49.32574" lon="-0.5282">
        <ele>43.599998474121</ele>
        <time>2026-03-24T14:25:02.000Z</time>
      </trkpt>
      <trkpt lat="49.32573" lon="-0.52819">
        <ele>43.799999237061</ele>
        <time>2026-03-24T14:25:03.000Z</time>
      </trkpt>
      <trkpt lat="49.32572" lon="-0.52819">
        <ele>43.799999237061</ele>
        <time>2026-03-24T14:25:04.000Z</time>
      </trkpt>
      <trkpt lat="49.3257" lon="-0.52818">
        <ele>43.799999237061</ele>
        <time>2026-03-24T14:25:05.000Z</time>
      </trkpt>
      <trkpt lat="49.32569" lon="-0.52818">
        <ele>44</ele>
        <time>2026-03-24T14:25:06.000Z</time>
      </trkpt>
      <trkpt lat="49.32568" lon="-0.52819">
        <ele>44</ele>
        <time>2026-03-24T14:25:07.000Z</time>
      </trkpt>
      <trkpt lat="49.32567" lon="-0.52818">
        <ele>44</ele>
        <time>2026-03-24T14:25:08.000Z</time>
      </trkpt>
      <trkpt lat="49.32566" lon="-0.52818">
        <ele>44</ele>
        <time>2026-03-24T14:25:09.000Z</time>
      </trkpt>
      <trkpt lat="49.32564" lon="-0.52818">
        <ele>44</ele>
        <time>2026-03-24T14:25:10.000Z</time>
      </trkpt>
      <trkpt lat="49.32563" lon="-0.52818">
        <ele>44.200000762939</ele>
        <time>2026-03-24T14:25:11.000Z</time>
      </trkpt>
      <trkpt lat="49.32562" lon="-0.52818">
        <ele>44.200000762939</ele>
        <time>2026-03-24T14:25:12.000Z</time>
      </trkpt>
      <trkpt lat="49.3256" lon="-0.52817">
        <ele>44.200000762939</ele>
        <time>2026-03-24T14:25:13.000Z</time>
      </trkpt>
      <trkpt lat="49.32559" lon="-0.52817">
        <ele>44.400001525879</ele>
        <time>2026-03-24T14:25:14.000Z</time>
      </trkpt>
      <trkpt lat="49.32558" lon="-0.52817">
        <ele>44.400001525879</ele>
        <time>2026-03-24T14:25:15.000Z</time>
      </trkpt>
      <trkpt lat="49.32557" lon="-0.52816">
        <ele>44.400001525879</ele>
        <time>2026-03-24T14:25:16.000Z</time>
      </trkpt>
      <trkpt lat="49.32556" lon="-0.52816">
        <ele>44.400001525879</ele>
        <time>2026-03-24T14:25:17.000Z</time>
      </trkpt>
      <trkpt lat="49.32554" lon="-0.52816">
        <ele>44.599998474121</ele>
        <time>2026-03-24T14:25:18.000Z</time>
      </trkpt>
      <trkpt lat="49.32553" lon="-0.52816">
        <ele>44.599998474121</ele>
        <time>2026-03-24T14:25:19.000Z</time>
      </trkpt>
      <trkpt lat="49.32552" lon="-0.52816">
        <ele>44.599998474121</ele>
        <time>2026-03-24T14:25:20.000Z</time>
      </trkpt>
      <trkpt lat="49.32551" lon="-0.52816">
        <ele>44.599998474121</ele>
        <time>2026-03-24T14:25:21.000Z</time>
      </trkpt>
      <trkpt lat="49.3255" lon="-0.52816">
        <ele>44.799999237061</ele>
        <time>2026-03-24T14:25:22.000Z</time>
      </trkpt>
      <trkpt lat="49.32548" lon="-0.52815">
        <ele>44.799999237061</ele>
        <time>2026-03-24T14:25:23.000Z</time>
      </trkpt>
      <trkpt lat="49.32548" lon="-0.52815">
        <ele>44.799999237061</ele>
        <time>2026-03-24T14:25:24.000Z</time>
      </trkpt>
      <trkpt lat="49.32547" lon="-0.52815">
        <ele>44.799999237061</ele>
        <time>2026-03-24T14:25:25.000Z</time>
      </trkpt>
      <trkpt lat="49.32546" lon="-0.52815">
        <ele>44.799999237061</ele>
        <time>2026-03-24T14:25:26.000Z</time>
      </trkpt>
      <trkpt lat="49.32545" lon="-0.52816">
        <ele>44.799999237061</ele>
        <time>2026-03-24T14:25:27.000Z</time>
      </trkpt>
      <trkpt lat="49.32544" lon="-0.52816">
        <ele>45</ele>
        <time>2026-03-24T14:25:28.000Z</time>
      </trkpt>
      <trkpt lat="49.32543" lon="-0.52816">
        <ele>45</ele>
        <time>2026-03-24T14:25:29.000Z</time>
      </trkpt>
      <trkpt lat="49.32541" lon="-0.52816">
        <ele>45</ele>
        <time>2026-03-24T14:25:30.000Z</time>
      </trkpt>
      <trkpt lat="49.32541" lon="-0.52816">
        <ele>45</ele>
        <time>2026-03-24T14:25:31.000Z</time>
      </trkpt>
      <trkpt lat="49.3254" lon="-0.52816">
        <ele>45</ele>
        <time>2026-03-24T14:25:32.000Z</time>
      </trkpt>
      <trkpt lat="49.32539" lon="-0.52816">
        <ele>45</ele>
        <time>2026-03-24T14:25:33.000Z</time>
      </trkpt>
      <trkpt lat="49.32538" lon="-0.52816">
        <ele>45</ele>
        <time>2026-03-24T14:25:34.000Z</time>
      </trkpt>
      <trkpt lat="49.32536" lon="-0.52816">
        <ele>45</ele>
        <time>2026-03-24T14:25:35.000Z</time>
      </trkpt>
      <trkpt lat="49.32535" lon="-0.52815">
        <ele>45</ele>
        <time>2026-03-24T14:25:36.000Z</time>
      </trkpt>
      <trkpt lat="49.32534" lon="-0.52815">
        <ele>45</ele>
        <time>2026-03-24T14:25:37.000Z</time>
      </trkpt>
      <trkpt lat="49.32533" lon="-0.52815">
        <ele>45</ele>
        <time>2026-03-24T14:25:38.000Z</time>
      </trkpt>
      <trkpt lat="49.32532" lon="-0.52814">
        <ele>45</ele>
        <time>2026-03-24T14:25:39.000Z</time>
      </trkpt>
      <trkpt lat="49.3253" lon="-0.52814">
        <ele>45</ele>
        <time>2026-03-24T14:25:40.000Z</time>
      </trkpt>
      <trkpt lat="49.32529" lon="-0.52814">
        <ele>45</ele>
        <time>2026-03-24T14:25:41.000Z</time>
      </trkpt>
      <trkpt lat="49.32528" lon="-0.52814">
        <ele>45</ele>
        <time>2026-03-24T14:25:42.000Z</time>
      </trkpt>
      <trkpt lat="49.32527" lon="-0.52814">
        <ele>45</ele>
        <time>2026-03-24T14:25:43.000Z</time>
      </trkpt>
      <trkpt lat="49.32526" lon="-0.52814">
        <ele>45</ele>
        <time>2026-03-24T14:25:44.000Z</time>
      </trkpt>
      <trkpt lat="49.32525" lon="-0.52814">
        <ele>45</ele>
        <time>2026-03-24T14:25:45.000Z</time>
      </trkpt>
      <trkpt lat="49.32524" lon="-0.52815">
        <ele>45</ele>
        <time>2026-03-24T14:25:46.000Z</time>
      </trkpt>
      <trkpt lat="49.32523" lon="-0.52814">
        <ele>45</ele>
        <time>2026-03-24T14:25:47.000Z</time>
      </trkpt>
      <trkpt lat="49.32522" lon="-0.52814">
        <ele>45</ele>
        <time>2026-03-24T14:25:48.000Z</time>
      </trkpt>
      <trkpt lat="49.32521" lon="-0.52814">
        <ele>45</ele>
        <time>2026-03-24T14:25:49.000Z</time>
      </trkpt>
      <trkpt lat="49.32519" lon="-0.52814">
        <ele>45</ele>
        <time>2026-03-24T14:25:50.000Z</time>
      </trkpt>
      <trkpt lat="49.32518" lon="-0.52815">
        <ele>45</ele>
        <time>2026-03-24T14:25:51.000Z</time>
      </trkpt>
      <trkpt lat="49.32517" lon="-0.52815">
        <ele>45</ele>
        <time>2026-03-24T14:25:52.000Z</time>
      </trkpt>
      <trkpt lat="49.32516" lon="-0.52814">
        <ele>45</ele>
        <time>2026-03-24T14:25:53.000Z</time>
      </trkpt>
      <trkpt lat="49.32515" lon="-0.52814">
        <ele>45</ele>
        <time>2026-03-24T14:25:54.000Z</time>
      </trkpt>
      <trkpt lat="49.32514" lon="-0.52813">
        <ele>45</ele>
        <time>2026-03-24T14:25:55.000Z</time>
      </trkpt>
      <trkpt lat="49.32513" lon="-0.52813">
        <ele>45</ele>
        <time>2026-03-24T14:25:56.000Z</time>
      </trkpt>
      <trkpt lat="49.32512" lon="-0.52813">
        <ele>45</ele>
        <time>2026-03-24T14:25:57.000Z</time>
      </trkpt>
      <trkpt lat="49.32511" lon="-0.52813">
        <ele>45</ele>
        <time>2026-03-24T14:25:58.000Z</time>
      </trkpt>
      <trkpt lat="49.32509" lon="-0.52813">
        <ele>45</ele>
        <time>2026-03-24T14:25:59.000Z</time>
      </trkpt>
      <trkpt lat="49.32508" lon="-0.52813">
        <ele>45</ele>
        <time>2026-03-24T14:26:00.000Z</time>
      </trkpt>
      <trkpt lat="49.32508" lon="-0.52813">
        <ele>45</ele>
        <time>2026-03-24T14:26:01.000Z</time>
      </trkpt>
      <trkpt lat="49.32507" lon="-0.52812">
        <ele>45</ele>
        <time>2026-03-24T14:26:02.000Z</time>
      </trkpt>
      <trkpt lat="49.32505" lon="-0.52812">
        <ele>45</ele>
        <time>2026-03-24T14:26:03.000Z</time>
      </trkpt>
      <trkpt lat="49.32504" lon="-0.52812">
        <ele>45</ele>
        <time>2026-03-24T14:26:04.000Z</time>
      </trkpt>
      <trkpt lat="49.32504" lon="-0.52812">
        <ele>45</ele>
        <time>2026-03-24T14:26:05.000Z</time>
      </trkpt>
      <trkpt lat="49.32503" lon="-0.52812">
        <ele>45</ele>
        <time>2026-03-24T14:26:06.000Z</time>
      </trkpt>
      <trkpt lat="49.32502" lon="-0.52812">
        <ele>45</ele>
        <time>2026-03-24T14:26:07.000Z</time>
      </trkpt>
      <trkpt lat="49.325" lon="-0.52812">
        <ele>45</ele>
        <time>2026-03-24T14:26:08.000Z</time>
      </trkpt>
      <trkpt lat="49.32499" lon="-0.52812">
        <ele>45</ele>
        <time>2026-03-24T14:26:09.000Z</time>
      </trkpt>
      <trkpt lat="49.32498" lon="-0.52811">
        <ele>45</ele>
        <time>2026-03-24T14:26:10.000Z</time>
      </trkpt>
      <trkpt lat="49.32497" lon="-0.52811">
        <ele>45</ele>
        <time>2026-03-24T14:26:11.000Z</time>
      </trkpt>
      <trkpt lat="49.32495" lon="-0.52811">
        <ele>45</ele>
        <time>2026-03-24T14:26:12.000Z</time>
      </trkpt>
      <trkpt lat="49.32494" lon="-0.52811">
        <ele>45</ele>
        <time>2026-03-24T14:26:13.000Z</time>
      </trkpt>
      <trkpt lat="49.32492" lon="-0.52811">
        <ele>45</ele>
        <time>2026-03-24T14:26:14.000Z</time>
      </trkpt>
      <trkpt lat="49.32491" lon="-0.52811">
        <ele>45</ele>
        <time>2026-03-24T14:26:15.000Z</time>
      </trkpt>
      <trkpt lat="49.3249" lon="-0.52811">
        <ele>45</ele>
        <time>2026-03-24T14:26:16.000Z</time>
      </trkpt>
      <trkpt lat="49.32489" lon="-0.52811">
        <ele>45</ele>
        <time>2026-03-24T14:26:17.000Z</time>
      </trkpt>
      <trkpt lat="49.32488" lon="-0.52811">
        <ele>45</ele>
        <time>2026-03-24T14:26:18.000Z</time>
      </trkpt>
      <trkpt lat="49.32486" lon="-0.52811">
        <ele>45</ele>
        <time>2026-03-24T14:26:19.000Z</time>
      </trkpt>
      <trkpt lat="49.32485" lon="-0.52811">
        <ele>45</ele>
        <time>2026-03-24T14:26:20.000Z</time>
      </trkpt>
      <trkpt lat="49.32484" lon="-0.52811">
        <ele>45</ele>
        <time>2026-03-24T14:26:21.000Z</time>
      </trkpt>
      <trkpt lat="49.32483" lon="-0.5281">
        <ele>45</ele>
        <time>2026-03-24T14:26:22.000Z</time>
      </trkpt>
      <trkpt lat="49.32482" lon="-0.5281">
        <ele>45</ele>
        <time>2026-03-24T14:26:23.000Z</time>
      </trkpt>
      <trkpt lat="49.32481" lon="-0.5281">
        <ele>45</ele>
        <time>2026-03-24T14:26:24.000Z</time>
      </trkpt>
      <trkpt lat="49.32479" lon="-0.5281">
        <ele>45</ele>
        <time>2026-03-24T14:26:25.000Z</time>
      </trkpt>
      <trkpt lat="49.32478" lon="-0.5281">
        <ele>45</ele>
        <time>2026-03-24T14:26:26.000Z</time>
      </trkpt>
      <trkpt lat="49.32477" lon="-0.5281">
        <ele>45</ele>
        <time>2026-03-24T14:26:27.000Z</time>
      </trkpt>
      <trkpt lat="49.32476" lon="-0.5281">
        <ele>45</ele>
        <time>2026-03-24T14:26:28.000Z</time>
      </trkpt>
      <trkpt lat="49.32474" lon="-0.52809">
        <ele>45</ele>
        <time>2026-03-24T14:26:29.000Z</time>
      </trkpt>
      <trkpt lat="49.32473" lon="-0.52809">
        <ele>45</ele>
        <time>2026-03-24T14:26:30.000Z</time>
      </trkpt>
      <trkpt lat="49.32472" lon="-0.52809">
        <ele>45</ele>
        <time>2026-03-24T14:26:31.000Z</time>
      </trkpt>
      <trkpt lat="49.32471" lon="-0.52809">
        <ele>45</ele>
        <time>2026-03-24T14:26:32.000Z</time>
      </trkpt>
      <trkpt lat="49.3247" lon="-0.5281">
        <ele>45</ele>
        <time>2026-03-24T14:26:33.000Z</time>
      </trkpt>
      <trkpt lat="49.32469" lon="-0.5281">
        <ele>45</ele>
        <time>2026-03-24T14:26:34.000Z</time>
      </trkpt>
      <trkpt lat="49.32468" lon="-0.5281">
        <ele>45</ele>
        <time>2026-03-24T14:26:35.000Z</time>
      </trkpt>
      <trkpt lat="49.32467" lon="-0.5281">
        <ele>45</ele>
        <time>2026-03-24T14:26:36.000Z</time>
      </trkpt>
      <trkpt lat="49.32466" lon="-0.5281">
        <ele>45</ele>
        <time>2026-03-24T14:26:37.000Z</time>
      </trkpt>
      <trkpt lat="49.32464" lon="-0.5281">
        <ele>45</ele>
        <time>2026-03-24T14:26:38.000Z</time>
      </trkpt>
      <trkpt lat="49.32464" lon="-0.5281">
        <ele>45</ele>
        <time>2026-03-24T14:26:39.000Z</time>
      </trkpt>
      <trkpt lat="49.32463" lon="-0.5281">
        <ele>45</ele>
        <time>2026-03-24T14:26:40.000Z</time>
      </trkpt>
      <trkpt lat="49.32462" lon="-0.52809">
        <ele>45</ele>
        <time>2026-03-24T14:26:41.000Z</time>
      </trkpt>
      <trkpt lat="49.32461" lon="-0.5281">
        <ele>45</ele>
        <time>2026-03-24T14:26:42.000Z</time>
      </trkpt>
      <trkpt lat="49.3246" lon="-0.5281">
        <ele>45</ele>
        <time>2026-03-24T14:26:43.000Z</time>
      </trkpt>
      <trkpt lat="49.32459" lon="-0.5281">
        <ele>45</ele>
        <time>2026-03-24T14:26:44.000Z</time>
      </trkpt>
      <trkpt lat="49.32458" lon="-0.5281">
        <ele>45</ele>
        <time>2026-03-24T14:26:45.000Z</time>
      </trkpt>
      <trkpt lat="49.32457" lon="-0.5281">
        <ele>45</ele>
        <time>2026-03-24T14:26:46.000Z</time>
      </trkpt>
      <trkpt lat="49.32456" lon="-0.52809">
        <ele>45</ele>
        <time>2026-03-24T14:26:47.000Z</time>
      </trkpt>
      <trkpt lat="49.32454" lon="-0.52809">
        <ele>45</ele>
        <time>2026-03-24T14:26:48.000Z</time>
      </trkpt>
      <trkpt lat="49.32453" lon="-0.52809">
        <ele>45</ele>
        <time>2026-03-24T14:26:49.000Z</time>
      </trkpt>
      <trkpt lat="49.32452" lon="-0.52809">
        <ele>45</ele>
        <time>2026-03-24T14:26:50.000Z</time>
      </trkpt>
      <trkpt lat="49.32451" lon="-0.52809">
        <ele>45</ele>
        <time>2026-03-24T14:26:51.000Z</time>
      </trkpt>
      <trkpt lat="49.3245" lon="-0.52809">
        <ele>45</ele>
        <time>2026-03-24T14:26:52.000Z</time>
      </trkpt>
      <trkpt lat="49.32449" lon="-0.52809">
        <ele>45</ele>
        <time>2026-03-24T14:26:53.000Z</time>
      </trkpt>
      <trkpt lat="49.32447" lon="-0.52809">
        <ele>45</ele>
        <time>2026-03-24T14:26:54.000Z</time>
      </trkpt>
      <trkpt lat="49.32446" lon="-0.52809">
        <ele>45</ele>
        <time>2026-03-24T14:26:55.000Z</time>
      </trkpt>
      <trkpt lat="49.32445" lon="-0.52809">
        <ele>45</ele>
        <time>2026-03-24T14:26:56.000Z</time>
      </trkpt>
      <trkpt lat="49.32444" lon="-0.52809">
        <ele>45</ele>
        <time>2026-03-24T14:26:57.000Z</time>
      </trkpt>
      <trkpt lat="49.32443" lon="-0.52809">
        <ele>45</ele>
        <time>2026-03-24T14:26:58.000Z</time>
      </trkpt>
      <trkpt lat="49.32441" lon="-0.52809">
        <ele>45</ele>
        <time>2026-03-24T14:26:59.000Z</time>
      </trkpt>
      <trkpt lat="49.3244" lon="-0.52809">
        <ele>45</ele>
        <time>2026-03-24T14:27:00.000Z</time>
      </trkpt>
      <trkpt lat="49.32439" lon="-0.52809">
        <ele>45</ele>
        <time>2026-03-24T14:27:01.000Z</time>
      </trkpt>
      <trkpt lat="49.32438" lon="-0.52809">
        <ele>45</ele>
        <time>2026-03-24T14:27:02.000Z</time>
      </trkpt>
      <trkpt lat="49.32436" lon="-0.52809">
        <ele>45</ele>
        <time>2026-03-24T14:27:03.000Z</time>
      </trkpt>
      <trkpt lat="49.32435" lon="-0.52809">
        <ele>45</ele>
        <time>2026-03-24T14:27:04.000Z</time>
      </trkpt>
      <trkpt lat="49.32434" lon="-0.52809">
        <ele>45</ele>
        <time>2026-03-24T14:27:05.000Z</time>
      </trkpt>
      <trkpt lat="49.32433" lon="-0.5281">
        <ele>45</ele>
        <time>2026-03-24T14:27:06.000Z</time>
      </trkpt>
      <trkpt lat="49.32432" lon="-0.5281">
        <ele>45</ele>
        <time>2026-03-24T14:27:07.000Z</time>
      </trkpt>
      <trkpt lat="49.32431" lon="-0.5281">
        <ele>45</ele>
        <time>2026-03-24T14:27:08.000Z</time>
      </trkpt>
      <trkpt lat="49.3243" lon="-0.5281">
        <ele>45</ele>
        <time>2026-03-24T14:27:09.000Z</time>
      </trkpt>
      <trkpt lat="49.32428" lon="-0.5281">
        <ele>45</ele>
        <time>2026-03-24T14:27:10.000Z</time>
      </trkpt>
      <trkpt lat="49.32427" lon="-0.5281">
        <ele>45</ele>
        <time>2026-03-24T14:27:11.000Z</time>
      </trkpt>
      <trkpt lat="49.32426" lon="-0.5281">
        <ele>45</ele>
        <time>2026-03-24T14:27:12.000Z</time>
      </trkpt>
      <trkpt lat="49.32425" lon="-0.5281">
        <ele>45</ele>
        <time>2026-03-24T14:27:13.000Z</time>
      </trkpt>
      <trkpt lat="49.32424" lon="-0.5281">
        <ele>45</ele>
        <time>2026-03-24T14:27:14.000Z</time>
      </trkpt>
      <trkpt lat="49.32422" lon="-0.5281">
        <ele>45</ele>
        <time>2026-03-24T14:27:15.000Z</time>
      </trkpt>
      <trkpt lat="49.32421" lon="-0.5281">
        <ele>45</ele>
        <time>2026-03-24T14:27:16.000Z</time>
      </trkpt>
      <trkpt lat="49.3242" lon="-0.5281">
        <ele>45</ele>
        <time>2026-03-24T14:27:17.000Z</time>
      </trkpt>
      <trkpt lat="49.32419" lon="-0.5281">
        <ele>45</ele>
        <time>2026-03-24T14:27:18.000Z</time>
      </trkpt>
      <trkpt lat="49.32417" lon="-0.5281">
        <ele>45</ele>
        <time>2026-03-24T14:27:19.000Z</time>
      </trkpt>
      <trkpt lat="49.32416" lon="-0.5281">
        <ele>45</ele>
        <time>2026-03-24T14:27:20.000Z</time>
      </trkpt>
      <trkpt lat="49.32415" lon="-0.5281">
        <ele>45</ele>
        <time>2026-03-24T14:27:21.000Z</time>
      </trkpt>
      <trkpt lat="49.32414" lon="-0.52809">
        <ele>45</ele>
        <time>2026-03-24T14:27:22.000Z</time>
      </trkpt>
      <trkpt lat="49.32413" lon="-0.52809">
        <ele>45</ele>
        <time>2026-03-24T14:27:23.000Z</time>
      </trkpt>
      <trkpt lat="49.32411" lon="-0.52809">
        <ele>45</ele>
        <time>2026-03-24T14:27:24.000Z</time>
      </trkpt>
      <trkpt lat="49.3241" lon="-0.52809">
        <ele>45</ele>
        <time>2026-03-24T14:27:25.000Z</time>
      </trkpt>
      <trkpt lat="49.32409" lon="-0.52808">
        <ele>45</ele>
        <time>2026-03-24T14:27:26.000Z</time>
      </trkpt>
      <trkpt lat="49.32407" lon="-0.52808">
        <ele>45</ele>
        <time>2026-03-24T14:27:27.000Z</time>
      </trkpt>
      <trkpt lat="49.32406" lon="-0.52808">
        <ele>45</ele>
        <time>2026-03-24T14:27:28.000Z</time>
      </trkpt>
      <trkpt lat="49.32405" lon="-0.52808">
        <ele>45</ele>
        <time>2026-03-24T14:27:29.000Z</time>
      </trkpt>
      <trkpt lat="49.32404" lon="-0.52808">
        <ele>45</ele>
        <time>2026-03-24T14:27:30.000Z</time>
      </trkpt>
      <trkpt lat="49.32403" lon="-0.52808">
        <ele>45</ele>
        <time>2026-03-24T14:27:31.000Z</time>
      </trkpt>
      <trkpt lat="49.32402" lon="-0.52808">
        <ele>45</ele>
        <time>2026-03-24T14:27:32.000Z</time>
      </trkpt>
      <trkpt lat="49.32401" lon="-0.52808">
        <ele>45</ele>
        <time>2026-03-24T14:27:33.000Z</time>
      </trkpt>
      <trkpt lat="49.324" lon="-0.52808">
        <ele>45</ele>
        <time>2026-03-24T14:27:34.000Z</time>
      </trkpt>
      <trkpt lat="49.32399" lon="-0.52807">
        <ele>45</ele>
        <time>2026-03-24T14:27:35.000Z</time>
      </trkpt>
      <trkpt lat="49.32398" lon="-0.52807">
        <ele>45</ele>
        <time>2026-03-24T14:27:36.000Z</time>
      </trkpt>
      <trkpt lat="49.32396" lon="-0.52807">
        <ele>45</ele>
        <time>2026-03-24T14:27:37.000Z</time>
      </trkpt>
      <trkpt lat="49.32395" lon="-0.52807">
        <ele>45</ele>
        <time>2026-03-24T14:27:38.000Z</time>
      </trkpt>
      <trkpt lat="49.32394" lon="-0.52807">
        <ele>45</ele>
        <time>2026-03-24T14:27:39.000Z</time>
      </trkpt>
      <trkpt lat="49.32393" lon="-0.52807">
        <ele>45</ele>
        <time>2026-03-24T14:27:40.000Z</time>
      </trkpt>
      <trkpt lat="49.32392" lon="-0.52807">
        <ele>45</ele>
        <time>2026-03-24T14:27:41.000Z</time>
      </trkpt>
      <trkpt lat="49.32391" lon="-0.52807">
        <ele>45</ele>
        <time>2026-03-24T14:27:42.000Z</time>
      </trkpt>
      <trkpt lat="49.3239" lon="-0.52807">
        <ele>45</ele>
        <time>2026-03-24T14:27:43.000Z</time>
      </trkpt>
      <trkpt lat="49.32389" lon="-0.52808">
        <ele>45</ele>
        <time>2026-03-24T14:27:44.000Z</time>
      </trkpt>
      <trkpt lat="49.32388" lon="-0.52808">
        <ele>45</ele>
        <time>2026-03-24T14:27:45.000Z</time>
      </trkpt>
      <trkpt lat="49.32387" lon="-0.52808">
        <ele>45</ele>
        <time>2026-03-24T14:27:46.000Z</time>
      </trkpt>
      <trkpt lat="49.32386" lon="-0.52808">
        <ele>45</ele>
        <time>2026-03-24T14:27:47.000Z</time>
      </trkpt>
      <trkpt lat="49.32385" lon="-0.52808">
        <ele>45</ele>
        <time>2026-03-24T14:27:48.000Z</time>
      </trkpt>
      <trkpt lat="49.32383" lon="-0.52808">
        <ele>45</ele>
        <time>2026-03-24T14:27:49.000Z</time>
      </trkpt>
      <trkpt lat="49.32382" lon="-0.52808">
        <ele>45</ele>
        <time>2026-03-24T14:27:50.000Z</time>
      </trkpt>
      <trkpt lat="49.32381" lon="-0.52808">
        <ele>44.799999237061</ele>
        <time>2026-03-24T14:27:51.000Z</time>
      </trkpt>
      <trkpt lat="49.3238" lon="-0.52807">
        <ele>44.799999237061</ele>
        <time>2026-03-24T14:27:52.000Z</time>
      </trkpt>
      <trkpt lat="49.32379" lon="-0.52807">
        <ele>44.799999237061</ele>
        <time>2026-03-24T14:27:53.000Z</time>
      </trkpt>
      <trkpt lat="49.32377" lon="-0.52806">
        <ele>44.799999237061</ele>
        <time>2026-03-24T14:27:54.000Z</time>
      </trkpt>
      <trkpt lat="49.32376" lon="-0.52806">
        <ele>44.799999237061</ele>
        <time>2026-03-24T14:27:55.000Z</time>
      </trkpt>
      <trkpt lat="49.32375" lon="-0.52806">
        <ele>44.599998474121</ele>
        <time>2026-03-24T14:27:56.000Z</time>
      </trkpt>
      <trkpt lat="49.32373" lon="-0.52806">
        <ele>44.599998474121</ele>
        <time>2026-03-24T14:27:57.000Z</time>
      </trkpt>
      <trkpt lat="49.32372" lon="-0.52806">
        <ele>44.599998474121</ele>
        <time>2026-03-24T14:27:58.000Z</time>
      </trkpt>
      <trkpt lat="49.32371" lon="-0.52806">
        <ele>44.599998474121</ele>
        <time>2026-03-24T14:27:59.000Z</time>
      </trkpt>
      <trkpt lat="49.3237" lon="-0.52806">
        <ele>44.400001525879</ele>
        <time>2026-03-24T14:28:00.000Z</time>
      </trkpt>
      <trkpt lat="49.32369" lon="-0.52806">
        <ele>44.400001525879</ele>
        <time>2026-03-24T14:28:01.000Z</time>
      </trkpt>
      <trkpt lat="49.32368" lon="-0.52807">
        <ele>44.400001525879</ele>
        <time>2026-03-24T14:28:02.000Z</time>
      </trkpt>
      <trkpt lat="49.32367" lon="-0.52807">
        <ele>44.400001525879</ele>
        <time>2026-03-24T14:28:03.000Z</time>
      </trkpt>
      <trkpt lat="49.32366" lon="-0.52806">
        <ele>44.400001525879</ele>
        <time>2026-03-24T14:28:04.000Z</time>
      </trkpt>
      <trkpt lat="49.32365" lon="-0.52806">
        <ele>44.400001525879</ele>
        <time>2026-03-24T14:28:05.000Z</time>
      </trkpt>
      <trkpt lat="49.32364" lon="-0.52806">
        <ele>44.200000762939</ele>
        <time>2026-03-24T14:28:06.000Z</time>
      </trkpt>
      <trkpt lat="49.32363" lon="-0.52806">
        <ele>44.200000762939</ele>
        <time>2026-03-24T14:28:07.000Z</time>
      </trkpt>
      <trkpt lat="49.32362" lon="-0.52806">
        <ele>44.200000762939</ele>
        <time>2026-03-24T14:28:08.000Z</time>
      </trkpt>
      <trkpt lat="49.32361" lon="-0.52806">
        <ele>44.200000762939</ele>
        <time>2026-03-24T14:28:09.000Z</time>
      </trkpt>
      <trkpt lat="49.3236" lon="-0.52806">
        <ele>44.200000762939</ele>
        <time>2026-03-24T14:28:10.000Z</time>
      </trkpt>
      <trkpt lat="49.32358" lon="-0.52806">
        <ele>44</ele>
        <time>2026-03-24T14:28:11.000Z</time>
      </trkpt>
      <trkpt lat="49.32357" lon="-0.52805">
        <ele>44</ele>
        <time>2026-03-24T14:28:12.000Z</time>
      </trkpt>
      <trkpt lat="49.32356" lon="-0.52805">
        <ele>44</ele>
        <time>2026-03-24T14:28:13.000Z</time>
      </trkpt>
      <trkpt lat="49.32355" lon="-0.52806">
        <ele>44</ele>
        <time>2026-03-24T14:28:14.000Z</time>
      </trkpt>
      <trkpt lat="49.32354" lon="-0.52806">
        <ele>44</ele>
        <time>2026-03-24T14:28:15.000Z</time>
      </trkpt>
      <trkpt lat="49.32353" lon="-0.52806">
        <ele>44</ele>
        <time>2026-03-24T14:28:16.000Z</time>
      </trkpt>
      <trkpt lat="49.32351" lon="-0.52806">
        <ele>44</ele>
        <time>2026-03-24T14:28:17.000Z</time>
      </trkpt>
      <trkpt lat="49.3235" lon="-0.52807">
        <ele>44</ele>
        <time>2026-03-24T14:28:18.000Z</time>
      </trkpt>
      <trkpt lat="49.32349" lon="-0.52807">
        <ele>44</ele>
        <time>2026-03-24T14:28:19.000Z</time>
      </trkpt>
      <trkpt lat="49.32348" lon="-0.52807">
        <ele>44</ele>
        <time>2026-03-24T14:28:20.000Z</time>
      </trkpt>
      <trkpt lat="49.32347" lon="-0.52807">
        <ele>44</ele>
        <time>2026-03-24T14:28:21.000Z</time>
      </trkpt>
      <trkpt lat="49.32346" lon="-0.52807">
        <ele>44</ele>
        <time>2026-03-24T14:28:22.000Z</time>
      </trkpt>
      <trkpt lat="49.32345" lon="-0.52806">
        <ele>44</ele>
        <time>2026-03-24T14:28:23.000Z</time>
      </trkpt>
      <trkpt lat="49.32344" lon="-0.52806">
        <ele>44</ele>
        <time>2026-03-24T14:28:24.000Z</time>
      </trkpt>
      <trkpt lat="49.32343" lon="-0.52806">
        <ele>44</ele>
        <time>2026-03-24T14:28:25.000Z</time>
      </trkpt>
      <trkpt lat="49.32341" lon="-0.52806">
        <ele>44</ele>
        <time>2026-03-24T14:28:26.000Z</time>
      </trkpt>
      <trkpt lat="49.3234" lon="-0.52806">
        <ele>44</ele>
        <time>2026-03-24T14:28:27.000Z</time>
      </trkpt>
      <trkpt lat="49.32339" lon="-0.52806">
        <ele>44</ele>
        <time>2026-03-24T14:28:28.000Z</time>
      </trkpt>
      <trkpt lat="49.32338" lon="-0.52806">
        <ele>44</ele>
        <time>2026-03-24T14:28:29.000Z</time>
      </trkpt>
      <trkpt lat="49.32336" lon="-0.52806">
        <ele>44</ele>
        <time>2026-03-24T14:28:30.000Z</time>
      </trkpt>
      <trkpt lat="49.32335" lon="-0.52806">
        <ele>44</ele>
        <time>2026-03-24T14:28:31.000Z</time>
      </trkpt>
      <trkpt lat="49.32334" lon="-0.52806">
        <ele>44</ele>
        <time>2026-03-24T14:28:32.000Z</time>
      </trkpt>
      <trkpt lat="49.32334" lon="-0.52806">
        <ele>44</ele>
        <time>2026-03-24T14:28:33.000Z</time>
      </trkpt>
      <trkpt lat="49.32332" lon="-0.52805">
        <ele>44</ele>
        <time>2026-03-24T14:28:34.000Z</time>
      </trkpt>
      <trkpt lat="49.32331" lon="-0.52805">
        <ele>44</ele>
        <time>2026-03-24T14:28:35.000Z</time>
      </trkpt>
      <trkpt lat="49.3233" lon="-0.52805">
        <ele>44</ele>
        <time>2026-03-24T14:28:36.000Z</time>
      </trkpt>
      <trkpt lat="49.32329" lon="-0.52805">
        <ele>44</ele>
        <time>2026-03-24T14:28:37.000Z</time>
      </trkpt>
      <trkpt lat="49.32328" lon="-0.52805">
        <ele>44</ele>
        <time>2026-03-24T14:28:38.000Z</time>
      </trkpt>
      <trkpt lat="49.32326" lon="-0.52805">
        <ele>44</ele>
        <time>2026-03-24T14:28:39.000Z</time>
      </trkpt>
      <trkpt lat="49.32325" lon="-0.52805">
        <ele>44</ele>
        <time>2026-03-24T14:28:40.000Z</time>
      </trkpt>
      <trkpt lat="49.32324" lon="-0.52805">
        <ele>44</ele>
        <time>2026-03-24T14:28:41.000Z</time>
      </trkpt>
      <trkpt lat="49.32322" lon="-0.52804">
        <ele>44</ele>
        <time>2026-03-24T14:28:42.000Z</time>
      </trkpt>
      <trkpt lat="49.32321" lon="-0.52804">
        <ele>44</ele>
        <time>2026-03-24T14:28:43.000Z</time>
      </trkpt>
      <trkpt lat="49.3232" lon="-0.52804">
        <ele>44</ele>
        <time>2026-03-24T14:28:44.000Z</time>
      </trkpt>
      <trkpt lat="49.32319" lon="-0.52804">
        <ele>44</ele>
        <time>2026-03-24T14:28:45.000Z</time>
      </trkpt>
      <trkpt lat="49.32318" lon="-0.52804">
        <ele>44</ele>
        <time>2026-03-24T14:28:46.000Z</time>
      </trkpt>
      <trkpt lat="49.32318" lon="-0.52804">
        <ele>44</ele>
        <time>2026-03-24T14:28:47.000Z</time>
      </trkpt>
      <trkpt lat="49.32317" lon="-0.52803">
        <ele>44</ele>
        <time>2026-03-24T14:28:48.000Z</time>
      </trkpt>
      <trkpt lat="49.32316" lon="-0.52802">
        <ele>44</ele>
        <time>2026-03-24T14:28:49.000Z</time>
      </trkpt>
      <trkpt lat="49.32314" lon="-0.52802">
        <ele>44</ele>
        <time>2026-03-24T14:28:50.000Z</time>
      </trkpt>
      <trkpt lat="49.32313" lon="-0.52801">
        <ele>44</ele>
        <time>2026-03-24T14:28:51.000Z</time>
      </trkpt>
      <trkpt lat="49.32312" lon="-0.52801">
        <ele>44</ele>
        <time>2026-03-24T14:28:52.000Z</time>
      </trkpt>
      <trkpt lat="49.32311" lon="-0.528">
        <ele>44</ele>
        <time>2026-03-24T14:28:53.000Z</time>
      </trkpt>
      <trkpt lat="49.3231" lon="-0.528">
        <ele>44</ele>
        <time>2026-03-24T14:28:54.000Z</time>
      </trkpt>
      <trkpt lat="49.32309" lon="-0.528">
        <ele>44</ele>
        <time>2026-03-24T14:28:55.000Z</time>
      </trkpt>
      <trkpt lat="49.32308" lon="-0.528">
        <ele>44</ele>
        <time>2026-03-24T14:28:56.000Z</time>
      </trkpt>
      <trkpt lat="49.32307" lon="-0.528">
        <ele>44</ele>
        <time>2026-03-24T14:28:57.000Z</time>
      </trkpt>
      <trkpt lat="49.32306" lon="-0.528">
        <ele>44</ele>
        <time>2026-03-24T14:28:58.000Z</time>
      </trkpt>
      <trkpt lat="49.32305" lon="-0.528">
        <ele>44</ele>
        <time>2026-03-24T14:28:59.000Z</time>
      </trkpt>
      <trkpt lat="49.32303" lon="-0.528">
        <ele>44</ele>
        <time>2026-03-24T14:29:00.000Z</time>
      </trkpt>
      <trkpt lat="49.32302" lon="-0.528">
        <ele>44</ele>
        <time>2026-03-24T14:29:01.000Z</time>
      </trkpt>
      <trkpt lat="49.32301" lon="-0.528">
        <ele>44</ele>
        <time>2026-03-24T14:29:02.000Z</time>
      </trkpt>
      <trkpt lat="49.323" lon="-0.528">
        <ele>44</ele>
        <time>2026-03-24T14:29:03.000Z</time>
      </trkpt>
      <trkpt lat="49.32299" lon="-0.528">
        <ele>44</ele>
        <time>2026-03-24T14:29:04.000Z</time>
      </trkpt>
      <trkpt lat="49.32298" lon="-0.528">
        <ele>44</ele>
        <time>2026-03-24T14:29:05.000Z</time>
      </trkpt>
      <trkpt lat="49.32297" lon="-0.52799">
        <ele>44</ele>
        <time>2026-03-24T14:29:06.000Z</time>
      </trkpt>
      <trkpt lat="49.32295" lon="-0.52799">
        <ele>44</ele>
        <time>2026-03-24T14:29:07.000Z</time>
      </trkpt>
      <trkpt lat="49.32294" lon="-0.52799">
        <ele>44</ele>
        <time>2026-03-24T14:29:08.000Z</time>
      </trkpt>
      <trkpt lat="49.32293" lon="-0.52798">
        <ele>44</ele>
        <time>2026-03-24T14:29:09.000Z</time>
      </trkpt>
      <trkpt lat="49.32292" lon="-0.52798">
        <ele>44</ele>
        <time>2026-03-24T14:29:10.000Z</time>
      </trkpt>
      <trkpt lat="49.32291" lon="-0.52798">
        <ele>44</ele>
        <time>2026-03-24T14:29:11.000Z</time>
      </trkpt>
      <trkpt lat="49.3229" lon="-0.52798">
        <ele>44</ele>
        <time>2026-03-24T14:29:12.000Z</time>
      </trkpt>
      <trkpt lat="49.32289" lon="-0.52798">
        <ele>44</ele>
        <time>2026-03-24T14:29:13.000Z</time>
      </trkpt>
      <trkpt lat="49.32288" lon="-0.52798">
        <ele>44</ele>
        <time>2026-03-24T14:29:14.000Z</time>
      </trkpt>
      <trkpt lat="49.32287" lon="-0.52798">
        <ele>44</ele>
        <time>2026-03-24T14:29:15.000Z</time>
      </trkpt>
      <trkpt lat="49.32286" lon="-0.52798">
        <ele>44</ele>
        <time>2026-03-24T14:29:16.000Z</time>
      </trkpt>
      <trkpt lat="49.32285" lon="-0.52798">
        <ele>44</ele>
        <time>2026-03-24T14:29:17.000Z</time>
      </trkpt>
      <trkpt lat="49.32283" lon="-0.52797">
        <ele>44</ele>
        <time>2026-03-24T14:29:18.000Z</time>
      </trkpt>
      <trkpt lat="49.32282" lon="-0.52797">
        <ele>44</ele>
        <time>2026-03-24T14:29:19.000Z</time>
      </trkpt>
      <trkpt lat="49.32281" lon="-0.52797">
        <ele>44</ele>
        <time>2026-03-24T14:29:20.000Z</time>
      </trkpt>
      <trkpt lat="49.3228" lon="-0.52797">
        <ele>44</ele>
        <time>2026-03-24T14:29:21.000Z</time>
      </trkpt>
      <trkpt lat="49.32279" lon="-0.52797">
        <ele>44</ele>
        <time>2026-03-24T14:29:22.000Z</time>
      </trkpt>
      <trkpt lat="49.32278" lon="-0.52797">
        <ele>44</ele>
        <time>2026-03-24T14:29:23.000Z</time>
      </trkpt>
      <trkpt lat="49.32277" lon="-0.52797">
        <ele>44</ele>
        <time>2026-03-24T14:29:24.000Z</time>
      </trkpt>
      <trkpt lat="49.32276" lon="-0.52797">
        <ele>44</ele>
        <time>2026-03-24T14:29:25.000Z</time>
      </trkpt>
      <trkpt lat="49.32275" lon="-0.52797">
        <ele>44</ele>
        <time>2026-03-24T14:29:26.000Z</time>
      </trkpt>
      <trkpt lat="49.32274" lon="-0.52797">
        <ele>44</ele>
        <time>2026-03-24T14:29:27.000Z</time>
      </trkpt>
      <trkpt lat="49.32273" lon="-0.52797">
        <ele>44</ele>
        <time>2026-03-24T14:29:28.000Z</time>
      </trkpt>
      <trkpt lat="49.32272" lon="-0.52796">
        <ele>44</ele>
        <time>2026-03-24T14:29:29.000Z</time>
      </trkpt>
      <trkpt lat="49.32271" lon="-0.52797">
        <ele>44</ele>
        <time>2026-03-24T14:29:30.000Z</time>
      </trkpt>
      <trkpt lat="49.3227" lon="-0.52797">
        <ele>44.200000762939</ele>
        <time>2026-03-24T14:29:31.000Z</time>
      </trkpt>
      <trkpt lat="49.32269" lon="-0.52797">
        <ele>44.200000762939</ele>
        <time>2026-03-24T14:29:32.000Z</time>
      </trkpt>
      <trkpt lat="49.32268" lon="-0.52797">
        <ele>44.200000762939</ele>
        <time>2026-03-24T14:29:33.000Z</time>
      </trkpt>
      <trkpt lat="49.32267" lon="-0.52797">
        <ele>44.200000762939</ele>
        <time>2026-03-24T14:29:34.000Z</time>
      </trkpt>
      <trkpt lat="49.32266" lon="-0.52796">
        <ele>44.200000762939</ele>
        <time>2026-03-24T14:29:35.000Z</time>
      </trkpt>
      <trkpt lat="49.32265" lon="-0.52796">
        <ele>44.200000762939</ele>
        <time>2026-03-24T14:29:36.000Z</time>
      </trkpt>
      <trkpt lat="49.32265" lon="-0.52796">
        <ele>44.200000762939</ele>
        <time>2026-03-24T14:29:37.000Z</time>
      </trkpt>
      <trkpt lat="49.32264" lon="-0.52796">
        <ele>44.400001525879</ele>
        <time>2026-03-24T14:29:38.000Z</time>
      </trkpt>
      <trkpt lat="49.32263" lon="-0.52796">
        <ele>44.400001525879</ele>
        <time>2026-03-24T14:29:39.000Z</time>
      </trkpt>
      <trkpt lat="49.32263" lon="-0.52796">
        <ele>44.400001525879</ele>
        <time>2026-03-24T14:29:40.000Z</time>
      </trkpt>
      <trkpt lat="49.32262" lon="-0.52797">
        <ele>44.400001525879</ele>
        <time>2026-03-24T14:29:41.000Z</time>
      </trkpt>
      <trkpt lat="49.32261" lon="-0.52797">
        <ele>44.400001525879</ele>
        <time>2026-03-24T14:29:42.000Z</time>
      </trkpt>
      <trkpt lat="49.32261" lon="-0.52797">
        <ele>44.400001525879</ele>
        <time>2026-03-24T14:29:43.000Z</time>
      </trkpt>
      <trkpt lat="49.3226" lon="-0.52798">
        <ele>44.400001525879</ele>
        <time>2026-03-24T14:29:44.000Z</time>
      </trkpt>
      <trkpt lat="49.3226" lon="-0.52798">
        <ele>44.400001525879</ele>
        <time>2026-03-24T14:29:45.000Z</time>
      </trkpt>
      <trkpt lat="49.32259" lon="-0.52799">
        <ele>44.400001525879</ele>
        <time>2026-03-24T14:29:46.000Z</time>
      </trkpt>
      <trkpt lat="49.32259" lon="-0.52799">
        <ele>44.599998474121</ele>
        <time>2026-03-24T14:29:47.000Z</time>
      </trkpt>
      <trkpt lat="49.32258" lon="-0.52799">
        <ele>44.599998474121</ele>
        <time>2026-03-24T14:29:48.000Z</time>
      </trkpt>
      <trkpt lat="49.32257" lon="-0.52799">
        <ele>44.599998474121</ele>
        <time>2026-03-24T14:29:49.000Z</time>
      </trkpt>
      <trkpt lat="49.32257" lon="-0.528">
        <ele>44.599998474121</ele>
        <time>2026-03-24T14:29:50.000Z</time>
      </trkpt>
      <trkpt lat="49.32257" lon="-0.52801">
        <ele>44.599998474121</ele>
        <time>2026-03-24T14:29:51.000Z</time>
      </trkpt>
      <trkpt lat="49.32257" lon="-0.52801">
        <ele>44.599998474121</ele>
        <time>2026-03-24T14:29:52.000Z</time>
      </trkpt>
      <trkpt lat="49.32256" lon="-0.52801">
        <ele>44.599998474121</ele>
        <time>2026-03-24T14:29:53.000Z</time>
      </trkpt>
      <trkpt lat="49.32257" lon="-0.52801">
        <ele>44.599998474121</ele>
        <time>2026-03-24T14:29:54.000Z</time>
      </trkpt>
      <trkpt lat="49.32256" lon="-0.52801">
        <ele>44.599998474121</ele>
        <time>2026-03-24T14:29:55.000Z</time>
      </trkpt>
      <trkpt lat="49.32256" lon="-0.52801">
        <ele>44.599998474121</ele>
        <time>2026-03-24T14:29:56.000Z</time>
      </trkpt>
      <trkpt lat="49.32256" lon="-0.52801">
        <ele>44.599998474121</ele>
        <time>2026-03-24T14:29:57.000Z</time>
      </trkpt>
      <trkpt lat="49.32256" lon="-0.52801">
        <ele>44.599998474121</ele>
        <time>2026-03-24T14:29:58.000Z</time>
      </trkpt>
      <trkpt lat="49.32256" lon="-0.52801">
        <ele>44.599998474121</ele>
        <time>2026-03-24T14:29:59.000Z</time>
      </trkpt>
      <trkpt lat="49.32256" lon="-0.52801">
        <ele>44.599998474121</ele>
        <time>2026-03-24T14:30:00.000Z</time>
      </trkpt>
      <trkpt lat="49.32256" lon="-0.528">
        <ele>44.599998474121</ele>
        <time>2026-03-24T14:30:01.000Z</time>
      </trkpt>
      <trkpt lat="49.32256" lon="-0.528">
        <ele>44.599998474121</ele>
        <time>2026-03-24T14:30:02.000Z</time>
      </trkpt>
      <trkpt lat="49.32256" lon="-0.528">
        <ele>44.599998474121</ele>
        <time>2026-03-24T14:30:03.000Z</time>
      </trkpt>
      <trkpt lat="49.32256" lon="-0.52801">
        <ele>44.599998474121</ele>
        <time>2026-03-24T14:30:04.000Z</time>
      </trkpt>
      <trkpt lat="49.32256" lon="-0.52801">
        <ele>44.599998474121</ele>
        <time>2026-03-24T14:30:05.000Z</time>
      </trkpt>
      <trkpt lat="49.32256" lon="-0.52802">
        <ele>44.599998474121</ele>
        <time>2026-03-24T14:30:06.000Z</time>
      </trkpt>
      <trkpt lat="49.32256" lon="-0.52803">
        <ele>44.599998474121</ele>
        <time>2026-03-24T14:30:07.000Z</time>
      </trkpt>
      <trkpt lat="49.32256" lon="-0.52805">
        <ele>44.599998474121</ele>
        <time>2026-03-24T14:30:08.000Z</time>
      </trkpt>
      <trkpt lat="49.32257" lon="-0.52806">
        <ele>44.599998474121</ele>
        <time>2026-03-24T14:30:09.000Z</time>
      </trkpt>
      <trkpt lat="49.32257" lon="-0.52807">
        <ele>44.599998474121</ele>
        <time>2026-03-24T14:30:10.000Z</time>
      </trkpt>
      <trkpt lat="49.32257" lon="-0.52809">
        <ele>44.599998474121</ele>
        <time>2026-03-24T14:30:11.000Z</time>
      </trkpt>
      <trkpt lat="49.32258" lon="-0.5281">
        <ele>44.599998474121</ele>
        <time>2026-03-24T14:30:12.000Z</time>
      </trkpt>
      <trkpt lat="49.32258" lon="-0.52811">
        <ele>44.599998474121</ele>
        <time>2026-03-24T14:30:13.000Z</time>
      </trkpt>
      <trkpt lat="49.32259" lon="-0.52812">
        <ele>44.599998474121</ele>
        <time>2026-03-24T14:30:14.000Z</time>
      </trkpt>
      <trkpt lat="49.32259" lon="-0.52814">
        <ele>44.599998474121</ele>
        <time>2026-03-24T14:30:15.000Z</time>
      </trkpt>
      <trkpt lat="49.32259" lon="-0.52815">
        <ele>44.599998474121</ele>
        <time>2026-03-24T14:30:16.000Z</time>
      </trkpt>
      <trkpt lat="49.32258" lon="-0.52817">
        <ele>44.599998474121</ele>
        <time>2026-03-24T14:30:17.000Z</time>
      </trkpt>
      <trkpt lat="49.32259" lon="-0.52816">
        <ele>44.400001525879</ele>
        <time>2026-03-24T14:30:18.000Z</time>
      </trkpt>
      <trkpt lat="49.3226" lon="-0.52816">
        <ele>44.400001525879</ele>
        <time>2026-03-24T14:30:19.000Z</time>
      </trkpt>
      <trkpt lat="49.3226" lon="-0.52817">
        <ele>44.400001525879</ele>
        <time>2026-03-24T14:30:20.000Z</time>
      </trkpt>
      <trkpt lat="49.32262" lon="-0.52818">
        <ele>44.400001525879</ele>
        <time>2026-03-24T14:30:21.000Z</time>
      </trkpt>
      <trkpt lat="49.32263" lon="-0.52819">
        <ele>44.400001525879</ele>
        <time>2026-03-24T14:30:22.000Z</time>
      </trkpt>
      <trkpt lat="49.32263" lon="-0.5282">
        <ele>44.599998474121</ele>
        <time>2026-03-24T14:30:23.000Z</time>
      </trkpt>
      <trkpt lat="49.32264" lon="-0.52822">
        <ele>44.599998474121</ele>
        <time>2026-03-24T14:30:24.000Z</time>
      </trkpt>
      <trkpt lat="49.32265" lon="-0.52823">
        <ele>44.599998474121</ele>
        <time>2026-03-24T14:30:25.000Z</time>
      </trkpt>
      <trkpt lat="49.32265" lon="-0.52824">
        <ele>44.599998474121</ele>
        <time>2026-03-24T14:30:26.000Z</time>
      </trkpt>
      <trkpt lat="49.32265" lon="-0.52825">
        <ele>44.599998474121</ele>
        <time>2026-03-24T14:30:27.000Z</time>
      </trkpt>
      <trkpt lat="49.32265" lon="-0.52826">
        <ele>44.799999237061</ele>
        <time>2026-03-24T14:30:28.000Z</time>
      </trkpt>
      <trkpt lat="49.32267" lon="-0.52831">
        <ele>44.799999237061</ele>
        <time>2026-03-24T14:30:29.000Z</time>
      </trkpt>
      <trkpt lat="49.32267" lon="-0.52832">
        <ele>45</ele>
        <time>2026-03-24T14:30:30.000Z</time>
      </trkpt>
      <trkpt lat="49.32267" lon="-0.52834">
        <ele>45</ele>
        <time>2026-03-24T14:30:31.000Z</time>
      </trkpt>
      <trkpt lat="49.32268" lon="-0.52836">
        <ele>45</ele>
        <time>2026-03-24T14:30:32.000Z</time>
      </trkpt>
      <trkpt lat="49.32268" lon="-0.52837">
        <ele>45</ele>
        <time>2026-03-24T14:30:33.000Z</time>
      </trkpt>
      <trkpt lat="49.32268" lon="-0.52839">
        <ele>45</ele>
        <time>2026-03-24T14:30:34.000Z</time>
      </trkpt>
      <trkpt lat="49.32269" lon="-0.5284">
        <ele>45</ele>
        <time>2026-03-24T14:30:35.000Z</time>
      </trkpt>
      <trkpt lat="49.32269" lon="-0.52842">
        <ele>45</ele>
        <time>2026-03-24T14:30:36.000Z</time>
      </trkpt>
      <trkpt lat="49.3227" lon="-0.52843">
        <ele>45</ele>
        <time>2026-03-24T14:30:37.000Z</time>
      </trkpt>
      <trkpt lat="49.3227" lon="-0.52845">
        <ele>45</ele>
        <time>2026-03-24T14:30:38.000Z</time>
      </trkpt>
      <trkpt lat="49.32271" lon="-0.52847">
        <ele>45</ele>
        <time>2026-03-24T14:30:39.000Z</time>
      </trkpt>
      <trkpt lat="49.32272" lon="-0.52848">
        <ele>45</ele>
        <time>2026-03-24T14:30:40.000Z</time>
      </trkpt>
      <trkpt lat="49.32272" lon="-0.5285">
        <ele>45</ele>
        <time>2026-03-24T14:30:41.000Z</time>
      </trkpt>
      <trkpt lat="49.32273" lon="-0.52851">
        <ele>45</ele>
        <time>2026-03-24T14:30:42.000Z</time>
      </trkpt>
      <trkpt lat="49.32274" lon="-0.52853">
        <ele>45</ele>
        <time>2026-03-24T14:30:43.000Z</time>
      </trkpt>
      <trkpt lat="49.32275" lon="-0.52855">
        <ele>45</ele>
        <time>2026-03-24T14:30:44.000Z</time>
      </trkpt>
      <trkpt lat="49.32276" lon="-0.52856">
        <ele>44.799999237061</ele>
        <time>2026-03-24T14:30:45.000Z</time>
      </trkpt>
      <trkpt lat="49.32277" lon="-0.52857">
        <ele>44.799999237061</ele>
        <time>2026-03-24T14:30:46.000Z</time>
      </trkpt>
      <trkpt lat="49.32277" lon="-0.52859">
        <ele>44.799999237061</ele>
        <time>2026-03-24T14:30:47.000Z</time>
      </trkpt>
      <trkpt lat="49.32278" lon="-0.5286">
        <ele>44.799999237061</ele>
        <time>2026-03-24T14:30:48.000Z</time>
      </trkpt>
      <trkpt lat="49.32278" lon="-0.52861">
        <ele>44.799999237061</ele>
        <time>2026-03-24T14:30:49.000Z</time>
      </trkpt>
      <trkpt lat="49.32279" lon="-0.52861">
        <ele>44.799999237061</ele>
        <time>2026-03-24T14:30:50.000Z</time>
      </trkpt>
      <trkpt lat="49.3228" lon="-0.52862">
        <ele>44.799999237061</ele>
        <time>2026-03-24T14:30:51.000Z</time>
      </trkpt>
      <trkpt lat="49.3228" lon="-0.52863">
        <ele>44.799999237061</ele>
        <time>2026-03-24T14:30:52.000Z</time>
      </trkpt>
      <trkpt lat="49.3228" lon="-0.52864">
        <ele>44.599998474121</ele>
        <time>2026-03-24T14:30:53.000Z</time>
      </trkpt>
      <trkpt lat="49.32281" lon="-0.52864">
        <ele>44.599998474121</ele>
        <time>2026-03-24T14:30:54.000Z</time>
      </trkpt>
      <trkpt lat="49.32281" lon="-0.52864">
        <ele>44.599998474121</ele>
        <time>2026-03-24T14:30:55.000Z</time>
      </trkpt>
      <trkpt lat="49.32281" lon="-0.52864">
        <ele>44.599998474121</ele>
        <time>2026-03-24T14:30:56.000Z</time>
      </trkpt>
      <trkpt lat="49.32281" lon="-0.52865">
        <ele>44.599998474121</ele>
        <time>2026-03-24T14:30:57.000Z</time>
      </trkpt>
      <trkpt lat="49.32282" lon="-0.52865">
        <ele>44.599998474121</ele>
        <time>2026-03-24T14:30:58.000Z</time>
      </trkpt>
      <trkpt lat="49.32282" lon="-0.52864">
        <ele>44.599998474121</ele>
        <time>2026-03-24T14:30:59.000Z</time>
      </trkpt>
      <trkpt lat="49.32282" lon="-0.52864">
        <ele>44.599998474121</ele>
        <time>2026-03-24T14:31:00.000Z</time>
      </trkpt>
      <trkpt lat="49.32282" lon="-0.52864">
        <ele>44.599998474121</ele>
        <time>2026-03-24T14:31:01.000Z</time>
      </trkpt>
      <trkpt lat="49.32282" lon="-0.52864">
        <ele>44.599998474121</ele>
        <time>2026-03-24T14:31:02.000Z</time>
      </trkpt>
      <trkpt lat="49.32282" lon="-0.52864">
        <ele>44.599998474121</ele>
        <time>2026-03-24T14:31:03.000Z</time>
      </trkpt>
      <trkpt lat="49.32282" lon="-0.52864">
        <ele>44.599998474121</ele>
        <time>2026-03-24T14:31:04.000Z</time>
      </trkpt>
      <trkpt lat="49.32282" lon="-0.52864">
        <ele>44.599998474121</ele>
        <time>2026-03-24T14:31:05.000Z</time>
      </trkpt>
      <trkpt lat="49.32282" lon="-0.52865">
        <ele>44.599998474121</ele>
        <time>2026-03-24T14:31:06.000Z</time>
      </trkpt>
      <trkpt lat="49.32282" lon="-0.52865">
        <ele>44.599998474121</ele>
        <time>2026-03-24T14:31:07.000Z</time>
      </trkpt>
      <trkpt lat="49.32282" lon="-0.52865">
        <ele>44.599998474121</ele>
        <time>2026-03-24T14:31:08.000Z</time>
      </trkpt>
      <trkpt lat="49.32282" lon="-0.52865">
        <ele>44.599998474121</ele>
        <time>2026-03-24T14:31:09.000Z</time>
      </trkpt>
      <trkpt lat="49.32282" lon="-0.52865">
        <ele>44.599998474121</ele>
        <time>2026-03-24T14:31:10.000Z</time>
      </trkpt>
      <trkpt lat="49.32282" lon="-0.52865">
        <ele>44.599998474121</ele>
        <time>2026-03-24T14:31:11.000Z</time>
      </trkpt>
      <trkpt lat="49.32282" lon="-0.52865">
        <ele>44.599998474121</ele>
        <time>2026-03-24T14:31:12.000Z</time>
      </trkpt>
      <trkpt lat="49.32282" lon="-0.52865">
        <ele>44.599998474121</ele>
        <time>2026-03-24T14:31:13.000Z</time>
      </trkpt>
      <trkpt lat="49.32282" lon="-0.52865">
        <ele>44.599998474121</ele>
        <time>2026-03-24T14:31:14.000Z</time>
      </trkpt>
      <trkpt lat="49.32281" lon="-0.52865">
        <ele>44.599998474121</ele>
        <time>2026-03-24T14:31:15.000Z</time>
      </trkpt>
      <trkpt lat="49.32281" lon="-0.52865">
        <ele>44.599998474121</ele>
        <time>2026-03-24T14:31:16.000Z</time>
      </trkpt>
      <trkpt lat="49.32281" lon="-0.52865">
        <ele>44.599998474121</ele>
        <time>2026-03-24T14:31:17.000Z</time>
      </trkpt>
      <trkpt lat="49.32281" lon="-0.52865">
        <ele>44.599998474121</ele>
        <time>2026-03-24T14:31:18.000Z</time>
      </trkpt>
      <trkpt lat="49.32281" lon="-0.52865">
        <ele>44.599998474121</ele>
        <time>2026-03-24T14:31:19.000Z</time>
      </trkpt>
      <trkpt lat="49.32281" lon="-0.52865">
        <ele>44.599998474121</ele>
        <time>2026-03-24T14:31:20.000Z</time>
      </trkpt>
      <trkpt lat="49.32281" lon="-0.52865">
        <ele>44.599998474121</ele>
        <time>2026-03-24T14:31:21.000Z</time>
      </trkpt>
      <trkpt lat="49.32281" lon="-0.52865">
        <ele>44.599998474121</ele>
        <time>2026-03-24T14:31:22.000Z</time>
      </trkpt>
      <trkpt lat="49.32281" lon="-0.52864">
        <ele>44.599998474121</ele>
        <time>2026-03-24T14:31:23.000Z</time>
      </trkpt>
      <trkpt lat="49.32281" lon="-0.52864">
        <ele>44.599998474121</ele>
        <time>2026-03-24T14:31:24.000Z</time>
      </trkpt>
      <trkpt lat="49.32281" lon="-0.52864">
        <ele>44.599998474121</ele>
        <time>2026-03-24T14:31:25.000Z</time>
      </trkpt>
      <trkpt lat="49.32281" lon="-0.52864">
        <ele>44.599998474121</ele>
        <time>2026-03-24T14:31:26.000Z</time>
      </trkpt>
      <trkpt lat="49.32281" lon="-0.52864">
        <ele>44.599998474121</ele>
        <time>2026-03-24T14:31:27.000Z</time>
      </trkpt>
      <trkpt lat="49.32281" lon="-0.52864">
        <ele>44.599998474121</ele>
        <time>2026-03-24T14:31:28.000Z</time>
      </trkpt>
      <trkpt lat="49.3228" lon="-0.52864">
        <ele>44.599998474121</ele>
        <time>2026-03-24T14:31:29.000Z</time>
      </trkpt>
      <trkpt lat="49.3228" lon="-0.52864">
        <ele>44.599998474121</ele>
        <time>2026-03-24T14:31:30.000Z</time>
      </trkpt>
      <trkpt lat="49.32281" lon="-0.52864">
        <ele>44.599998474121</ele>
        <time>2026-03-24T14:31:31.000Z</time>
      </trkpt>
      <trkpt lat="49.32281" lon="-0.52864">
        <ele>44.599998474121</ele>
        <time>2026-03-24T14:31:32.000Z</time>
      </trkpt>
      <trkpt lat="49.3228" lon="-0.52864">
        <ele>44.599998474121</ele>
        <time>2026-03-24T14:31:33.000Z</time>
      </trkpt>
      <trkpt lat="49.3228" lon="-0.52864">
        <ele>44.599998474121</ele>
        <time>2026-03-24T14:31:34.000Z</time>
      </trkpt>
      <trkpt lat="49.3228" lon="-0.52865">
        <ele>44.599998474121</ele>
        <time>2026-03-24T14:31:35.000Z</time>
      </trkpt>
      <trkpt lat="49.3228" lon="-0.52865">
        <ele>44.599998474121</ele>
        <time>2026-03-24T14:31:36.000Z</time>
      </trkpt>
      <trkpt lat="49.3228" lon="-0.52865">
        <ele>44.599998474121</ele>
        <time>2026-03-24T14:31:37.000Z</time>
      </trkpt>
      <trkpt lat="49.3228" lon="-0.52865">
        <ele>44.599998474121</ele>
        <time>2026-03-24T14:31:38.000Z</time>
      </trkpt>
      <trkpt lat="49.3228" lon="-0.52865">
        <ele>44.599998474121</ele>
        <time>2026-03-24T14:31:39.000Z</time>
      </trkpt>
      <trkpt lat="49.3228" lon="-0.52866">
        <ele>44.599998474121</ele>
        <time>2026-03-24T14:31:40.000Z</time>
      </trkpt>
      <trkpt lat="49.3228" lon="-0.52866">
        <ele>44.599998474121</ele>
        <time>2026-03-24T14:31:41.000Z</time>
      </trkpt>
      <trkpt lat="49.32281" lon="-0.52867">
        <ele>44.599998474121</ele>
        <time>2026-03-24T14:31:42.000Z</time>
      </trkpt>
      <trkpt lat="49.32281" lon="-0.52867">
        <ele>44.599998474121</ele>
        <time>2026-03-24T14:31:43.000Z</time>
      </trkpt>
      <trkpt lat="49.32281" lon="-0.52868">
        <ele>44.400001525879</ele>
        <time>2026-03-24T14:31:44.000Z</time>
      </trkpt>
      <trkpt lat="49.32282" lon="-0.52869">
        <ele>44.400001525879</ele>
        <time>2026-03-24T14:31:45.000Z</time>
      </trkpt>
      <trkpt lat="49.32283" lon="-0.5287">
        <ele>44.400001525879</ele>
        <time>2026-03-24T14:31:46.000Z</time>
      </trkpt>
      <trkpt lat="49.32284" lon="-0.5287">
        <ele>44.200000762939</ele>
        <time>2026-03-24T14:31:47.000Z</time>
      </trkpt>
      <trkpt lat="49.32284" lon="-0.52871">
        <ele>44.200000762939</ele>
        <time>2026-03-24T14:31:48.000Z</time>
      </trkpt>
      <trkpt lat="49.32285" lon="-0.52871">
        <ele>44.200000762939</ele>
        <time>2026-03-24T14:31:49.000Z</time>
      </trkpt>
      <trkpt lat="49.32286" lon="-0.52872">
        <ele>44.200000762939</ele>
        <time>2026-03-24T14:31:50.000Z</time>
      </trkpt>
      <trkpt lat="49.32286" lon="-0.52873">
        <ele>44.200000762939</ele>
        <time>2026-03-24T14:31:51.000Z</time>
      </trkpt>
      <trkpt lat="49.32286" lon="-0.52874">
        <ele>44</ele>
        <time>2026-03-24T14:31:52.000Z</time>
      </trkpt>
      <trkpt lat="49.32287" lon="-0.52874">
        <ele>44</ele>
        <time>2026-03-24T14:31:53.000Z</time>
      </trkpt>
      <trkpt lat="49.32287" lon="-0.52875">
        <ele>44</ele>
        <time>2026-03-24T14:31:54.000Z</time>
      </trkpt>
      <trkpt lat="49.32288" lon="-0.52876">
        <ele>44</ele>
        <time>2026-03-24T14:31:55.000Z</time>
      </trkpt>
      <trkpt lat="49.32289" lon="-0.52877">
        <ele>44</ele>
        <time>2026-03-24T14:31:56.000Z</time>
      </trkpt>
      <trkpt lat="49.32289" lon="-0.52879">
        <ele>44</ele>
        <time>2026-03-24T14:31:57.000Z</time>
      </trkpt>
      <trkpt lat="49.3229" lon="-0.5288">
        <ele>44</ele>
        <time>2026-03-24T14:31:58.000Z</time>
      </trkpt>
      <trkpt lat="49.32291" lon="-0.52881">
        <ele>44</ele>
        <time>2026-03-24T14:31:59.000Z</time>
      </trkpt>
      <trkpt lat="49.32291" lon="-0.52882">
        <ele>44</ele>
        <time>2026-03-24T14:32:00.000Z</time>
      </trkpt>
      <trkpt lat="49.32292" lon="-0.52884">
        <ele>44</ele>
        <time>2026-03-24T14:32:01.000Z</time>
      </trkpt>
      <trkpt lat="49.32292" lon="-0.52884">
        <ele>44</ele>
        <time>2026-03-24T14:32:02.000Z</time>
      </trkpt>
      <trkpt lat="49.32293" lon="-0.52886">
        <ele>44</ele>
        <time>2026-03-24T14:32:03.000Z</time>
      </trkpt>
      <trkpt lat="49.32293" lon="-0.52887">
        <ele>44</ele>
        <time>2026-03-24T14:32:04.000Z</time>
      </trkpt>
      <trkpt lat="49.32293" lon="-0.52888">
        <ele>44</ele>
        <time>2026-03-24T14:32:05.000Z</time>
      </trkpt>
      <trkpt lat="49.32294" lon="-0.52889">
        <ele>44</ele>
        <time>2026-03-24T14:32:06.000Z</time>
      </trkpt>
      <trkpt lat="49.32294" lon="-0.52891">
        <ele>44</ele>
        <time>2026-03-24T14:32:07.000Z</time>
      </trkpt>
      <trkpt lat="49.32294" lon="-0.52892">
        <ele>44</ele>
        <time>2026-03-24T14:32:08.000Z</time>
      </trkpt>
      <trkpt lat="49.32295" lon="-0.52893">
        <ele>44</ele>
        <time>2026-03-24T14:32:09.000Z</time>
      </trkpt>
      <trkpt lat="49.32295" lon="-0.52896">
        <ele>44</ele>
        <time>2026-03-24T14:32:10.000Z</time>
      </trkpt>
      <trkpt lat="49.32296" lon="-0.52898">
        <ele>43.799999237061</ele>
        <time>2026-03-24T14:32:11.000Z</time>
      </trkpt>
      <trkpt lat="49.32297" lon="-0.529">
        <ele>43.799999237061</ele>
        <time>2026-03-24T14:32:12.000Z</time>
      </trkpt>
      <trkpt lat="49.32297" lon="-0.52901">
        <ele>43.799999237061</ele>
        <time>2026-03-24T14:32:13.000Z</time>
      </trkpt>
      <trkpt lat="49.32297" lon="-0.52902">
        <ele>43.599998474121</ele>
        <time>2026-03-24T14:32:14.000Z</time>
      </trkpt>
      <trkpt lat="49.32297" lon="-0.52903">
        <ele>43.599998474121</ele>
        <time>2026-03-24T14:32:15.000Z</time>
      </trkpt>
      <trkpt lat="49.32297" lon="-0.52903">
        <ele>43.599998474121</ele>
        <time>2026-03-24T14:32:16.000Z</time>
      </trkpt>
      <trkpt lat="49.32297" lon="-0.52905">
        <ele>43.599998474121</ele>
        <time>2026-03-24T14:32:17.000Z</time>
      </trkpt>
      <trkpt lat="49.32297" lon="-0.52907">
        <ele>43.400001525879</ele>
        <time>2026-03-24T14:32:18.000Z</time>
      </trkpt>
      <trkpt lat="49.32297" lon="-0.52907">
        <ele>43.400001525879</ele>
        <time>2026-03-24T14:32:19.000Z</time>
      </trkpt>
      <trkpt lat="49.32298" lon="-0.52908">
        <ele>43.400001525879</ele>
        <time>2026-03-24T14:32:20.000Z</time>
      </trkpt>
      <trkpt lat="49.32298" lon="-0.52909">
        <ele>43.400001525879</ele>
        <time>2026-03-24T14:32:21.000Z</time>
      </trkpt>
      <trkpt lat="49.32299" lon="-0.52911">
        <ele>43.400001525879</ele>
        <time>2026-03-24T14:32:22.000Z</time>
      </trkpt>
      <trkpt lat="49.323" lon="-0.52913">
        <ele>43.200000762939</ele>
        <time>2026-03-24T14:32:23.000Z</time>
      </trkpt>
      <trkpt lat="49.323" lon="-0.52915">
        <ele>43.200000762939</ele>
        <time>2026-03-24T14:32:24.000Z</time>
      </trkpt>
      <trkpt lat="49.323" lon="-0.52917">
        <ele>43</ele>
        <time>2026-03-24T14:32:25.000Z</time>
      </trkpt>
      <trkpt lat="49.32301" lon="-0.52918">
        <ele>43</ele>
        <time>2026-03-24T14:32:26.000Z</time>
      </trkpt>
      <trkpt lat="49.32301" lon="-0.5292">
        <ele>43</ele>
        <time>2026-03-24T14:32:27.000Z</time>
      </trkpt>
      <trkpt lat="49.32301" lon="-0.52921">
        <ele>42.799999237061</ele>
        <time>2026-03-24T14:32:28.000Z</time>
      </trkpt>
      <trkpt lat="49.32302" lon="-0.52922">
        <ele>42.799999237061</ele>
        <time>2026-03-24T14:32:29.000Z</time>
      </trkpt>
      <trkpt lat="49.32302" lon="-0.52924">
        <ele>42.799999237061</ele>
        <time>2026-03-24T14:32:30.000Z</time>
      </trkpt>
      <trkpt lat="49.32302" lon="-0.52925">
        <ele>42.799999237061</ele>
        <time>2026-03-24T14:32:31.000Z</time>
      </trkpt>
      <trkpt lat="49.32303" lon="-0.52927">
        <ele>42.799999237061</ele>
        <time>2026-03-24T14:32:32.000Z</time>
      </trkpt>
      <trkpt lat="49.32304" lon="-0.52928">
        <ele>42.799999237061</ele>
        <time>2026-03-24T14:32:33.000Z</time>
      </trkpt>
      <trkpt lat="49.32304" lon="-0.52929">
        <ele>42.799999237061</ele>
        <time>2026-03-24T14:32:34.000Z</time>
      </trkpt>
      <trkpt lat="49.32304" lon="-0.52931">
        <ele>42.599998474121</ele>
        <time>2026-03-24T14:32:35.000Z</time>
      </trkpt>
      <trkpt lat="49.32305" lon="-0.52932">
        <ele>42.599998474121</ele>
        <time>2026-03-24T14:32:36.000Z</time>
      </trkpt>
      <trkpt lat="49.32305" lon="-0.52934">
        <ele>42.599998474121</ele>
        <time>2026-03-24T14:32:37.000Z</time>
      </trkpt>
      <trkpt lat="49.32305" lon="-0.52935">
        <ele>42.599998474121</ele>
        <time>2026-03-24T14:32:38.000Z</time>
      </trkpt>
      <trkpt lat="49.32306" lon="-0.52937">
        <ele>42.400001525879</ele>
        <time>2026-03-24T14:32:39.000Z</time>
      </trkpt>
      <trkpt lat="49.32306" lon="-0.52938">
        <ele>42.400001525879</ele>
        <time>2026-03-24T14:32:40.000Z</time>
      </trkpt>
      <trkpt lat="49.32307" lon="-0.52939">
        <ele>42.400001525879</ele>
        <time>2026-03-24T14:32:41.000Z</time>
      </trkpt>
      <trkpt lat="49.32307" lon="-0.52941">
        <ele>42.400001525879</ele>
        <time>2026-03-24T14:32:42.000Z</time>
      </trkpt>
      <trkpt lat="49.32307" lon="-0.52942">
        <ele>42.400001525879</ele>
        <time>2026-03-24T14:32:43.000Z</time>
      </trkpt>
      <trkpt lat="49.32307" lon="-0.52944">
        <ele>42.200000762939</ele>
        <time>2026-03-24T14:32:44.000Z</time>
      </trkpt>
      <trkpt lat="49.32308" lon="-0.52945">
        <ele>42.200000762939</ele>
        <time>2026-03-24T14:32:45.000Z</time>
      </trkpt>
      <trkpt lat="49.32308" lon="-0.52946">
        <ele>42.200000762939</ele>
        <time>2026-03-24T14:32:46.000Z</time>
      </trkpt>
      <trkpt lat="49.32308" lon="-0.52948">
        <ele>42.200000762939</ele>
        <time>2026-03-24T14:32:47.000Z</time>
      </trkpt>
      <trkpt lat="49.32308" lon="-0.52949">
        <ele>42.200000762939</ele>
        <time>2026-03-24T14:32:48.000Z</time>
      </trkpt>
      <trkpt lat="49.32309" lon="-0.52951">
        <ele>42.200000762939</ele>
        <time>2026-03-24T14:32:49.000Z</time>
      </trkpt>
      <trkpt lat="49.32309" lon="-0.52952">
        <ele>42.400001525879</ele>
        <time>2026-03-24T14:32:50.000Z</time>
      </trkpt>
      <trkpt lat="49.32309" lon="-0.52954">
        <ele>42.400001525879</ele>
        <time>2026-03-24T14:32:51.000Z</time>
      </trkpt>
      <trkpt lat="49.3231" lon="-0.52956">
        <ele>42.400001525879</ele>
        <time>2026-03-24T14:32:52.000Z</time>
      </trkpt>
      <trkpt lat="49.3231" lon="-0.52957">
        <ele>42.400001525879</ele>
        <time>2026-03-24T14:32:53.000Z</time>
      </trkpt>
      <trkpt lat="49.3231" lon="-0.52959">
        <ele>42.400001525879</ele>
        <time>2026-03-24T14:32:54.000Z</time>
      </trkpt>
      <trkpt lat="49.32311" lon="-0.52961">
        <ele>42.400001525879</ele>
        <time>2026-03-24T14:32:55.000Z</time>
      </trkpt>
      <trkpt lat="49.32311" lon="-0.52963">
        <ele>42.400001525879</ele>
        <time>2026-03-24T14:32:56.000Z</time>
      </trkpt>
      <trkpt lat="49.32311" lon="-0.52964">
        <ele>42.400001525879</ele>
        <time>2026-03-24T14:32:57.000Z</time>
      </trkpt>
      <trkpt lat="49.32311" lon="-0.52966">
        <ele>42.200000762939</ele>
        <time>2026-03-24T14:32:58.000Z</time>
      </trkpt>
      <trkpt lat="49.32311" lon="-0.52968">
        <ele>42.200000762939</ele>
        <time>2026-03-24T14:32:59.000Z</time>
      </trkpt>
      <trkpt lat="49.32312" lon="-0.52969">
        <ele>42.200000762939</ele>
        <time>2026-03-24T14:33:00.000Z</time>
      </trkpt>
      <trkpt lat="49.32312" lon="-0.5297">
        <ele>42</ele>
        <time>2026-03-24T14:33:01.000Z</time>
      </trkpt>
      <trkpt lat="49.32312" lon="-0.52972">
        <ele>42</ele>
        <time>2026-03-24T14:33:02.000Z</time>
      </trkpt>
      <trkpt lat="49.32313" lon="-0.52974">
        <ele>42</ele>
        <time>2026-03-24T14:33:03.000Z</time>
      </trkpt>
      <trkpt lat="49.32313" lon="-0.52975">
        <ele>42</ele>
        <time>2026-03-24T14:33:04.000Z</time>
      </trkpt>
      <trkpt lat="49.32313" lon="-0.52977">
        <ele>41.799999237061</ele>
        <time>2026-03-24T14:33:05.000Z</time>
      </trkpt>
      <trkpt lat="49.32313" lon="-0.52978">
        <ele>41.799999237061</ele>
        <time>2026-03-24T14:33:06.000Z</time>
      </trkpt>
      <trkpt lat="49.32313" lon="-0.5298">
        <ele>41.799999237061</ele>
        <time>2026-03-24T14:33:07.000Z</time>
      </trkpt>
      <trkpt lat="49.32313" lon="-0.52981">
        <ele>41.599998474121</ele>
        <time>2026-03-24T14:33:08.000Z</time>
      </trkpt>
      <trkpt lat="49.32314" lon="-0.52983">
        <ele>41.599998474121</ele>
        <time>2026-03-24T14:33:09.000Z</time>
      </trkpt>
      <trkpt lat="49.32314" lon="-0.52984">
        <ele>41.599998474121</ele>
        <time>2026-03-24T14:33:10.000Z</time>
      </trkpt>
      <trkpt lat="49.32315" lon="-0.52986">
        <ele>41.599998474121</ele>
        <time>2026-03-24T14:33:11.000Z</time>
      </trkpt>
      <trkpt lat="49.32315" lon="-0.52988">
        <ele>41.599998474121</ele>
        <time>2026-03-24T14:33:12.000Z</time>
      </trkpt>
      <trkpt lat="49.32315" lon="-0.52989">
        <ele>41.599998474121</ele>
        <time>2026-03-24T14:33:13.000Z</time>
      </trkpt>
      <trkpt lat="49.32315" lon="-0.52991">
        <ele>41.599998474121</ele>
        <time>2026-03-24T14:33:14.000Z</time>
      </trkpt>
      <trkpt lat="49.32316" lon="-0.52992">
        <ele>41.799999237061</ele>
        <time>2026-03-24T14:33:15.000Z</time>
      </trkpt>
      <trkpt lat="49.32316" lon="-0.52994">
        <ele>41.799999237061</ele>
        <time>2026-03-24T14:33:16.000Z</time>
      </trkpt>
      <trkpt lat="49.32316" lon="-0.52996">
        <ele>42</ele>
        <time>2026-03-24T14:33:17.000Z</time>
      </trkpt>
      <trkpt lat="49.32317" lon="-0.52997">
        <ele>42</ele>
        <time>2026-03-24T14:33:18.000Z</time>
      </trkpt>
      <trkpt lat="49.32317" lon="-0.52999">
        <ele>42.200000762939</ele>
        <time>2026-03-24T14:33:19.000Z</time>
      </trkpt>
      <trkpt lat="49.32317" lon="-0.53">
        <ele>42.200000762939</ele>
        <time>2026-03-24T14:33:20.000Z</time>
      </trkpt>
      <trkpt lat="49.32318" lon="-0.53002">
        <ele>42.200000762939</ele>
        <time>2026-03-24T14:33:21.000Z</time>
      </trkpt>
      <trkpt lat="49.32318" lon="-0.53003">
        <ele>42.400001525879</ele>
        <time>2026-03-24T14:33:22.000Z</time>
      </trkpt>
      <trkpt lat="49.32319" lon="-0.53005">
        <ele>42.400001525879</ele>
        <time>2026-03-24T14:33:23.000Z</time>
      </trkpt>
      <trkpt lat="49.32319" lon="-0.53006">
        <ele>42.599998474121</ele>
        <time>2026-03-24T14:33:24.000Z</time>
      </trkpt>
      <trkpt lat="49.32319" lon="-0.53008">
        <ele>42.599998474121</ele>
        <time>2026-03-24T14:33:25.000Z</time>
      </trkpt>
      <trkpt lat="49.3232" lon="-0.53009">
        <ele>42.599998474121</ele>
        <time>2026-03-24T14:33:26.000Z</time>
      </trkpt>
      <trkpt lat="49.3232" lon="-0.53011">
        <ele>42.799999237061</ele>
        <time>2026-03-24T14:33:27.000Z</time>
      </trkpt>
      <trkpt lat="49.32321" lon="-0.53012">
        <ele>42.799999237061</ele>
        <time>2026-03-24T14:33:28.000Z</time>
      </trkpt>
      <trkpt lat="49.32321" lon="-0.53014">
        <ele>42.799999237061</ele>
        <time>2026-03-24T14:33:29.000Z</time>
      </trkpt>
      <trkpt lat="49.32322" lon="-0.53015">
        <ele>42.799999237061</ele>
        <time>2026-03-24T14:33:30.000Z</time>
      </trkpt>
      <trkpt lat="49.32322" lon="-0.53017">
        <ele>42.799999237061</ele>
        <time>2026-03-24T14:33:31.000Z</time>
      </trkpt>
      <trkpt lat="49.32323" lon="-0.53018">
        <ele>42.799999237061</ele>
        <time>2026-03-24T14:33:32.000Z</time>
      </trkpt>
      <trkpt lat="49.32323" lon="-0.5302">
        <ele>42.799999237061</ele>
        <time>2026-03-24T14:33:33.000Z</time>
      </trkpt>
      <trkpt lat="49.32323" lon="-0.53021">
        <ele>42.799999237061</ele>
        <time>2026-03-24T14:33:34.000Z</time>
      </trkpt>
      <trkpt lat="49.32324" lon="-0.53023">
        <ele>42.799999237061</ele>
        <time>2026-03-24T14:33:35.000Z</time>
      </trkpt>
      <trkpt lat="49.32324" lon="-0.53025">
        <ele>42.799999237061</ele>
        <time>2026-03-24T14:33:36.000Z</time>
      </trkpt>
      <trkpt lat="49.32324" lon="-0.53026">
        <ele>42.799999237061</ele>
        <time>2026-03-24T14:33:37.000Z</time>
      </trkpt>
      <trkpt lat="49.32325" lon="-0.53028">
        <ele>42.799999237061</ele>
        <time>2026-03-24T14:33:38.000Z</time>
      </trkpt>
      <trkpt lat="49.32325" lon="-0.53029">
        <ele>43</ele>
        <time>2026-03-24T14:33:39.000Z</time>
      </trkpt>
      <trkpt lat="49.32325" lon="-0.53031">
        <ele>43</ele>
        <time>2026-03-24T14:33:40.000Z</time>
      </trkpt>
      <trkpt lat="49.32326" lon="-0.53032">
        <ele>43</ele>
        <time>2026-03-24T14:33:41.000Z</time>
      </trkpt>
      <trkpt lat="49.32326" lon="-0.53034">
        <ele>43</ele>
        <time>2026-03-24T14:33:42.000Z</time>
      </trkpt>
      <trkpt lat="49.32326" lon="-0.53035">
        <ele>43</ele>
        <time>2026-03-24T14:33:43.000Z</time>
      </trkpt>
      <trkpt lat="49.32326" lon="-0.53037">
        <ele>43</ele>
        <time>2026-03-24T14:33:44.000Z</time>
      </trkpt>
      <trkpt lat="49.32327" lon="-0.53038">
        <ele>43</ele>
        <time>2026-03-24T14:33:45.000Z</time>
      </trkpt>
      <trkpt lat="49.32327" lon="-0.5304">
        <ele>43</ele>
        <time>2026-03-24T14:33:46.000Z</time>
      </trkpt>
      <trkpt lat="49.32328" lon="-0.53041">
        <ele>43</ele>
        <time>2026-03-24T14:33:47.000Z</time>
      </trkpt>
      <trkpt lat="49.32328" lon="-0.53043">
        <ele>43</ele>
        <time>2026-03-24T14:33:48.000Z</time>
      </trkpt>
      <trkpt lat="49.32329" lon="-0.53044">
        <ele>43</ele>
        <time>2026-03-24T14:33:49.000Z</time>
      </trkpt>
      <trkpt lat="49.32329" lon="-0.53045">
        <ele>43</ele>
        <time>2026-03-24T14:33:50.000Z</time>
      </trkpt>
      <trkpt lat="49.3233" lon="-0.53047">
        <ele>43</ele>
        <time>2026-03-24T14:33:51.000Z</time>
      </trkpt>
      <trkpt lat="49.3233" lon="-0.53049">
        <ele>43</ele>
        <time>2026-03-24T14:33:52.000Z</time>
      </trkpt>
      <trkpt lat="49.3233" lon="-0.5305">
        <ele>43</ele>
        <time>2026-03-24T14:33:53.000Z</time>
      </trkpt>
      <trkpt lat="49.32331" lon="-0.53052">
        <ele>43</ele>
        <time>2026-03-24T14:33:54.000Z</time>
      </trkpt>
      <trkpt lat="49.32331" lon="-0.53054">
        <ele>43.200000762939</ele>
        <time>2026-03-24T14:33:55.000Z</time>
      </trkpt>
      <trkpt lat="49.32332" lon="-0.53055">
        <ele>43.200000762939</ele>
        <time>2026-03-24T14:33:56.000Z</time>
      </trkpt>
      <trkpt lat="49.32332" lon="-0.53057">
        <ele>43.200000762939</ele>
        <time>2026-03-24T14:33:57.000Z</time>
      </trkpt>
      <trkpt lat="49.32333" lon="-0.53058">
        <ele>43.200000762939</ele>
        <time>2026-03-24T14:33:58.000Z</time>
      </trkpt>
      <trkpt lat="49.32333" lon="-0.5306">
        <ele>43.200000762939</ele>
        <time>2026-03-24T14:33:59.000Z</time>
      </trkpt>
      <trkpt lat="49.32333" lon="-0.53061">
        <ele>43.400001525879</ele>
        <time>2026-03-24T14:34:00.000Z</time>
      </trkpt>
      <trkpt lat="49.32334" lon="-0.53063">
        <ele>43.400001525879</ele>
        <time>2026-03-24T14:34:01.000Z</time>
      </trkpt>
      <trkpt lat="49.32334" lon="-0.53064">
        <ele>43.400001525879</ele>
        <time>2026-03-24T14:34:02.000Z</time>
      </trkpt>
      <trkpt lat="49.32334" lon="-0.53066">
        <ele>43.599998474121</ele>
        <time>2026-03-24T14:34:03.000Z</time>
      </trkpt>
      <trkpt lat="49.32334" lon="-0.53068">
        <ele>43.599998474121</ele>
        <time>2026-03-24T14:34:04.000Z</time>
      </trkpt>
      <trkpt lat="49.32335" lon="-0.5307">
        <ele>43.799999237061</ele>
        <time>2026-03-24T14:34:05.000Z</time>
      </trkpt>
      <trkpt lat="49.32335" lon="-0.53072">
        <ele>43.799999237061</ele>
        <time>2026-03-24T14:34:06.000Z</time>
      </trkpt>
      <trkpt lat="49.32336" lon="-0.53073">
        <ele>43.799999237061</ele>
        <time>2026-03-24T14:34:07.000Z</time>
      </trkpt>
      <trkpt lat="49.32336" lon="-0.53075">
        <ele>44</ele>
        <time>2026-03-24T14:34:08.000Z</time>
      </trkpt>
      <trkpt lat="49.32337" lon="-0.53076">
        <ele>44</ele>
        <time>2026-03-24T14:34:09.000Z</time>
      </trkpt>
      <trkpt lat="49.32337" lon="-0.53078">
        <ele>44</ele>
        <time>2026-03-24T14:34:10.000Z</time>
      </trkpt>
      <trkpt lat="49.32337" lon="-0.53079">
        <ele>43.799999237061</ele>
        <time>2026-03-24T14:34:11.000Z</time>
      </trkpt>
      <trkpt lat="49.32337" lon="-0.53081">
        <ele>43.799999237061</ele>
        <time>2026-03-24T14:34:12.000Z</time>
      </trkpt>
      <trkpt lat="49.32338" lon="-0.53082">
        <ele>43.799999237061</ele>
        <time>2026-03-24T14:34:13.000Z</time>
      </trkpt>
      <trkpt lat="49.32338" lon="-0.53084">
        <ele>43.599998474121</ele>
        <time>2026-03-24T14:34:14.000Z</time>
      </trkpt>
      <trkpt lat="49.32338" lon="-0.53086">
        <ele>43.599998474121</ele>
        <time>2026-03-24T14:34:15.000Z</time>
      </trkpt>
      <trkpt lat="49.32339" lon="-0.53087">
        <ele>43.599998474121</ele>
        <time>2026-03-24T14:34:16.000Z</time>
      </trkpt>
      <trkpt lat="49.32339" lon="-0.53089">
        <ele>43.400001525879</ele>
        <time>2026-03-24T14:34:17.000Z</time>
      </trkpt>
      <trkpt lat="49.3234" lon="-0.5309">
        <ele>43.400001525879</ele>
        <time>2026-03-24T14:34:18.000Z</time>
      </trkpt>
      <trkpt lat="49.3234" lon="-0.53091">
        <ele>43.400001525879</ele>
        <time>2026-03-24T14:34:19.000Z</time>
      </trkpt>
      <trkpt lat="49.3234" lon="-0.53093">
        <ele>43.200000762939</ele>
        <time>2026-03-24T14:34:20.000Z</time>
      </trkpt>
      <trkpt lat="49.32341" lon="-0.53094">
        <ele>43.200000762939</ele>
        <time>2026-03-24T14:34:21.000Z</time>
      </trkpt>
      <trkpt lat="49.32341" lon="-0.53096">
        <ele>43.200000762939</ele>
        <time>2026-03-24T14:34:22.000Z</time>
      </trkpt>
      <trkpt lat="49.32342" lon="-0.53098">
        <ele>43</ele>
        <time>2026-03-24T14:34:23.000Z</time>
      </trkpt>
      <trkpt lat="49.32342" lon="-0.53099">
        <ele>43</ele>
        <time>2026-03-24T14:34:24.000Z</time>
      </trkpt>
      <trkpt lat="49.32342" lon="-0.53101">
        <ele>43</ele>
        <time>2026-03-24T14:34:25.000Z</time>
      </trkpt>
      <trkpt lat="49.32343" lon="-0.53102">
        <ele>43</ele>
        <time>2026-03-24T14:34:26.000Z</time>
      </trkpt>
      <trkpt lat="49.32344" lon="-0.53104">
        <ele>43</ele>
        <time>2026-03-24T14:34:27.000Z</time>
      </trkpt>
      <trkpt lat="49.32344" lon="-0.53105">
        <ele>43</ele>
        <time>2026-03-24T14:34:28.000Z</time>
      </trkpt>
      <trkpt lat="49.32345" lon="-0.53107">
        <ele>43</ele>
        <time>2026-03-24T14:34:29.000Z</time>
      </trkpt>
      <trkpt lat="49.32345" lon="-0.53108">
        <ele>43</ele>
        <time>2026-03-24T14:34:30.000Z</time>
      </trkpt>
      <trkpt lat="49.32345" lon="-0.5311">
        <ele>43</ele>
        <time>2026-03-24T14:34:31.000Z</time>
      </trkpt>
      <trkpt lat="49.32346" lon="-0.53111">
        <ele>43</ele>
        <time>2026-03-24T14:34:32.000Z</time>
      </trkpt>
      <trkpt lat="49.32346" lon="-0.53113">
        <ele>43</ele>
        <time>2026-03-24T14:34:33.000Z</time>
      </trkpt>
      <trkpt lat="49.32347" lon="-0.53114">
        <ele>43</ele>
        <time>2026-03-24T14:34:34.000Z</time>
      </trkpt>
      <trkpt lat="49.32347" lon="-0.53115">
        <ele>43</ele>
        <time>2026-03-24T14:34:35.000Z</time>
      </trkpt>
      <trkpt lat="49.32348" lon="-0.53117">
        <ele>43</ele>
        <time>2026-03-24T14:34:36.000Z</time>
      </trkpt>
      <trkpt lat="49.32348" lon="-0.53118">
        <ele>43</ele>
        <time>2026-03-24T14:34:37.000Z</time>
      </trkpt>
      <trkpt lat="49.32349" lon="-0.53119">
        <ele>43</ele>
        <time>2026-03-24T14:34:38.000Z</time>
      </trkpt>
      <trkpt lat="49.32349" lon="-0.5312">
        <ele>43</ele>
        <time>2026-03-24T14:34:39.000Z</time>
      </trkpt>
      <trkpt lat="49.32349" lon="-0.53122">
        <ele>43</ele>
        <time>2026-03-24T14:34:40.000Z</time>
      </trkpt>
      <trkpt lat="49.32349" lon="-0.53124">
        <ele>43</ele>
        <time>2026-03-24T14:34:41.000Z</time>
      </trkpt>
      <trkpt lat="49.3235" lon="-0.53125">
        <ele>43</ele>
        <time>2026-03-24T14:34:42.000Z</time>
      </trkpt>
      <trkpt lat="49.3235" lon="-0.53127">
        <ele>43</ele>
        <time>2026-03-24T14:34:43.000Z</time>
      </trkpt>
      <trkpt lat="49.3235" lon="-0.53129">
        <ele>43</ele>
        <time>2026-03-24T14:34:44.000Z</time>
      </trkpt>
      <trkpt lat="49.32351" lon="-0.53131">
        <ele>43</ele>
        <time>2026-03-24T14:34:45.000Z</time>
      </trkpt>
      <trkpt lat="49.32351" lon="-0.53133">
        <ele>43</ele>
        <time>2026-03-24T14:34:46.000Z</time>
      </trkpt>
      <trkpt lat="49.32352" lon="-0.53135">
        <ele>43</ele>
        <time>2026-03-24T14:34:47.000Z</time>
      </trkpt>
      <trkpt lat="49.32352" lon="-0.53136">
        <ele>43</ele>
        <time>2026-03-24T14:34:48.000Z</time>
      </trkpt>
      <trkpt lat="49.32353" lon="-0.53138">
        <ele>43</ele>
        <time>2026-03-24T14:34:49.000Z</time>
      </trkpt>
      <trkpt lat="49.32353" lon="-0.53139">
        <ele>43</ele>
        <time>2026-03-24T14:34:50.000Z</time>
      </trkpt>
      <trkpt lat="49.32354" lon="-0.53141">
        <ele>43</ele>
        <time>2026-03-24T14:34:51.000Z</time>
      </trkpt>
      <trkpt lat="49.32355" lon="-0.53142">
        <ele>43</ele>
        <time>2026-03-24T14:34:52.000Z</time>
      </trkpt>
      <trkpt lat="49.32355" lon="-0.53144">
        <ele>43</ele>
        <time>2026-03-24T14:34:53.000Z</time>
      </trkpt>
      <trkpt lat="49.32356" lon="-0.53146">
        <ele>43</ele>
        <time>2026-03-24T14:34:54.000Z</time>
      </trkpt>
      <trkpt lat="49.32356" lon="-0.53148">
        <ele>43</ele>
        <time>2026-03-24T14:34:55.000Z</time>
      </trkpt>
      <trkpt lat="49.32357" lon="-0.53149">
        <ele>43</ele>
        <time>2026-03-24T14:34:56.000Z</time>
      </trkpt>
      <trkpt lat="49.32357" lon="-0.53151">
        <ele>43</ele>
        <time>2026-03-24T14:34:57.000Z</time>
      </trkpt>
      <trkpt lat="49.32358" lon="-0.53153">
        <ele>43</ele>
        <time>2026-03-24T14:34:58.000Z</time>
      </trkpt>
      <trkpt lat="49.32358" lon="-0.53154">
        <ele>43</ele>
        <time>2026-03-24T14:34:59.000Z</time>
      </trkpt>
      <trkpt lat="49.32359" lon="-0.53156">
        <ele>43</ele>
        <time>2026-03-24T14:35:00.000Z</time>
      </trkpt>
      <trkpt lat="49.3236" lon="-0.53157">
        <ele>43</ele>
        <time>2026-03-24T14:35:01.000Z</time>
      </trkpt>
      <trkpt lat="49.3236" lon="-0.53159">
        <ele>43</ele>
        <time>2026-03-24T14:35:02.000Z</time>
      </trkpt>
      <trkpt lat="49.3236" lon="-0.5316">
        <ele>43</ele>
        <time>2026-03-24T14:35:03.000Z</time>
      </trkpt>
      <trkpt lat="49.32361" lon="-0.53162">
        <ele>43</ele>
        <time>2026-03-24T14:35:04.000Z</time>
      </trkpt>
      <trkpt lat="49.32361" lon="-0.53163">
        <ele>43</ele>
        <time>2026-03-24T14:35:05.000Z</time>
      </trkpt>
      <trkpt lat="49.32362" lon="-0.53165">
        <ele>43</ele>
        <time>2026-03-24T14:35:06.000Z</time>
      </trkpt>
      <trkpt lat="49.32362" lon="-0.53166">
        <ele>43</ele>
        <time>2026-03-24T14:35:07.000Z</time>
      </trkpt>
      <trkpt lat="49.32363" lon="-0.53168">
        <ele>43</ele>
        <time>2026-03-24T14:35:08.000Z</time>
      </trkpt>
      <trkpt lat="49.32363" lon="-0.53169">
        <ele>43</ele>
        <time>2026-03-24T14:35:09.000Z</time>
      </trkpt>
      <trkpt lat="49.32363" lon="-0.53171">
        <ele>43</ele>
        <time>2026-03-24T14:35:10.000Z</time>
      </trkpt>
      <trkpt lat="49.32364" lon="-0.53173">
        <ele>43</ele>
        <time>2026-03-24T14:35:11.000Z</time>
      </trkpt>
      <trkpt lat="49.32364" lon="-0.53175">
        <ele>43</ele>
        <time>2026-03-24T14:35:12.000Z</time>
      </trkpt>
      <trkpt lat="49.32365" lon="-0.53176">
        <ele>43</ele>
        <time>2026-03-24T14:35:13.000Z</time>
      </trkpt>
      <trkpt lat="49.32365" lon="-0.53178">
        <ele>43</ele>
        <time>2026-03-24T14:35:14.000Z</time>
      </trkpt>
      <trkpt lat="49.32366" lon="-0.53179">
        <ele>43</ele>
        <time>2026-03-24T14:35:15.000Z</time>
      </trkpt>
      <trkpt lat="49.32366" lon="-0.53181">
        <ele>43</ele>
        <time>2026-03-24T14:35:16.000Z</time>
      </trkpt>
      <trkpt lat="49.32367" lon="-0.53183">
        <ele>43</ele>
        <time>2026-03-24T14:35:17.000Z</time>
      </trkpt>
      <trkpt lat="49.32367" lon="-0.53185">
        <ele>43</ele>
        <time>2026-03-24T14:35:18.000Z</time>
      </trkpt>
      <trkpt lat="49.32368" lon="-0.53187">
        <ele>42.799999237061</ele>
        <time>2026-03-24T14:35:19.000Z</time>
      </trkpt>
      <trkpt lat="49.32369" lon="-0.53188">
        <ele>42.799999237061</ele>
        <time>2026-03-24T14:35:20.000Z</time>
      </trkpt>
      <trkpt lat="49.32369" lon="-0.5319">
        <ele>42.799999237061</ele>
        <time>2026-03-24T14:35:21.000Z</time>
      </trkpt>
      <trkpt lat="49.32369" lon="-0.53191">
        <ele>42.599998474121</ele>
        <time>2026-03-24T14:35:22.000Z</time>
      </trkpt>
      <trkpt lat="49.32369" lon="-0.53193">
        <ele>42.599998474121</ele>
        <time>2026-03-24T14:35:23.000Z</time>
      </trkpt>
      <trkpt lat="49.3237" lon="-0.53194">
        <ele>42.599998474121</ele>
        <time>2026-03-24T14:35:24.000Z</time>
      </trkpt>
      <trkpt lat="49.3237" lon="-0.53196">
        <ele>42.599998474121</ele>
        <time>2026-03-24T14:35:25.000Z</time>
      </trkpt>
      <trkpt lat="49.32371" lon="-0.53198">
        <ele>42.599998474121</ele>
        <time>2026-03-24T14:35:26.000Z</time>
      </trkpt>
      <trkpt lat="49.32371" lon="-0.53199">
        <ele>42.599998474121</ele>
        <time>2026-03-24T14:35:27.000Z</time>
      </trkpt>
      <trkpt lat="49.32372" lon="-0.532">
        <ele>42.599998474121</ele>
        <time>2026-03-24T14:35:28.000Z</time>
      </trkpt>
      <trkpt lat="49.32372" lon="-0.53202">
        <ele>42.599998474121</ele>
        <time>2026-03-24T14:35:29.000Z</time>
      </trkpt>
      <trkpt lat="49.32373" lon="-0.53203">
        <ele>42.599998474121</ele>
        <time>2026-03-24T14:35:30.000Z</time>
      </trkpt>
      <trkpt lat="49.32373" lon="-0.53205">
        <ele>42.799999237061</ele>
        <time>2026-03-24T14:35:31.000Z</time>
      </trkpt>
      <trkpt lat="49.32374" lon="-0.53206">
        <ele>42.799999237061</ele>
        <time>2026-03-24T14:35:32.000Z</time>
      </trkpt>
      <trkpt lat="49.32374" lon="-0.53208">
        <ele>42.799999237061</ele>
        <time>2026-03-24T14:35:33.000Z</time>
      </trkpt>
      <trkpt lat="49.32375" lon="-0.53209">
        <ele>42.599998474121</ele>
        <time>2026-03-24T14:35:34.000Z</time>
      </trkpt>
      <trkpt lat="49.32375" lon="-0.53211">
        <ele>42.599998474121</ele>
        <time>2026-03-24T14:35:35.000Z</time>
      </trkpt>
      <trkpt lat="49.32376" lon="-0.53212">
        <ele>42.599998474121</ele>
        <time>2026-03-24T14:35:36.000Z</time>
      </trkpt>
      <trkpt lat="49.32377" lon="-0.53214">
        <ele>42.599998474121</ele>
        <time>2026-03-24T14:35:37.000Z</time>
      </trkpt>
      <trkpt lat="49.32378" lon="-0.53216">
        <ele>42.400001525879</ele>
        <time>2026-03-24T14:35:38.000Z</time>
      </trkpt>
      <trkpt lat="49.32378" lon="-0.53217">
        <ele>42.400001525879</ele>
        <time>2026-03-24T14:35:39.000Z</time>
      </trkpt>
      <trkpt lat="49.32379" lon="-0.53219">
        <ele>42.400001525879</ele>
        <time>2026-03-24T14:35:40.000Z</time>
      </trkpt>
      <trkpt lat="49.32379" lon="-0.53221">
        <ele>42.400001525879</ele>
        <time>2026-03-24T14:35:41.000Z</time>
      </trkpt>
      <trkpt lat="49.32379" lon="-0.53222">
        <ele>42.400001525879</ele>
        <time>2026-03-24T14:35:42.000Z</time>
      </trkpt>
      <trkpt lat="49.3238" lon="-0.53224">
        <ele>42.200000762939</ele>
        <time>2026-03-24T14:35:43.000Z</time>
      </trkpt>
      <trkpt lat="49.32381" lon="-0.53225">
        <ele>42.200000762939</ele>
        <time>2026-03-24T14:35:44.000Z</time>
      </trkpt>
      <trkpt lat="49.32381" lon="-0.53227">
        <ele>42</ele>
        <time>2026-03-24T14:35:45.000Z</time>
      </trkpt>
      <trkpt lat="49.32382" lon="-0.53229">
        <ele>42</ele>
        <time>2026-03-24T14:35:46.000Z</time>
      </trkpt>
      <trkpt lat="49.32383" lon="-0.5323">
        <ele>42</ele>
        <time>2026-03-24T14:35:47.000Z</time>
      </trkpt>
      <trkpt lat="49.32384" lon="-0.53232">
        <ele>42</ele>
        <time>2026-03-24T14:35:48.000Z</time>
      </trkpt>
      <trkpt lat="49.32384" lon="-0.53234">
        <ele>42</ele>
        <time>2026-03-24T14:35:49.000Z</time>
      </trkpt>
      <trkpt lat="49.32385" lon="-0.53235">
        <ele>42</ele>
        <time>2026-03-24T14:35:50.000Z</time>
      </trkpt>
      <trkpt lat="49.32385" lon="-0.53237">
        <ele>42</ele>
        <time>2026-03-24T14:35:51.000Z</time>
      </trkpt>
      <trkpt lat="49.32385" lon="-0.53238">
        <ele>42</ele>
        <time>2026-03-24T14:35:52.000Z</time>
      </trkpt>
      <trkpt lat="49.32386" lon="-0.5324">
        <ele>42</ele>
        <time>2026-03-24T14:35:53.000Z</time>
      </trkpt>
      <trkpt lat="49.32387" lon="-0.53241">
        <ele>42</ele>
        <time>2026-03-24T14:35:54.000Z</time>
      </trkpt>
      <trkpt lat="49.32387" lon="-0.53243">
        <ele>42</ele>
        <time>2026-03-24T14:35:55.000Z</time>
      </trkpt>
      <trkpt lat="49.32387" lon="-0.53245">
        <ele>42</ele>
        <time>2026-03-24T14:35:56.000Z</time>
      </trkpt>
      <trkpt lat="49.32388" lon="-0.53246">
        <ele>42</ele>
        <time>2026-03-24T14:35:57.000Z</time>
      </trkpt>
      <trkpt lat="49.32388" lon="-0.53248">
        <ele>42</ele>
        <time>2026-03-24T14:35:58.000Z</time>
      </trkpt>
      <trkpt lat="49.32389" lon="-0.53249">
        <ele>41.799999237061</ele>
        <time>2026-03-24T14:35:59.000Z</time>
      </trkpt>
      <trkpt lat="49.32389" lon="-0.53251">
        <ele>41.799999237061</ele>
        <time>2026-03-24T14:36:00.000Z</time>
      </trkpt>
      <trkpt lat="49.3239" lon="-0.53253">
        <ele>41.799999237061</ele>
        <time>2026-03-24T14:36:01.000Z</time>
      </trkpt>
      <trkpt lat="49.3239" lon="-0.53254">
        <ele>41.799999237061</ele>
        <time>2026-03-24T14:36:02.000Z</time>
      </trkpt>
      <trkpt lat="49.32391" lon="-0.53256">
        <ele>41.799999237061</ele>
        <time>2026-03-24T14:36:03.000Z</time>
      </trkpt>
      <trkpt lat="49.32392" lon="-0.53258">
        <ele>41.799999237061</ele>
        <time>2026-03-24T14:36:04.000Z</time>
      </trkpt>
      <trkpt lat="49.32392" lon="-0.5326">
        <ele>41.799999237061</ele>
        <time>2026-03-24T14:36:05.000Z</time>
      </trkpt>
      <trkpt lat="49.32392" lon="-0.53262">
        <ele>41.599998474121</ele>
        <time>2026-03-24T14:36:06.000Z</time>
      </trkpt>
      <trkpt lat="49.32393" lon="-0.53264">
        <ele>41.599998474121</ele>
        <time>2026-03-24T14:36:07.000Z</time>
      </trkpt>
      <trkpt lat="49.32393" lon="-0.53265">
        <ele>41.599998474121</ele>
        <time>2026-03-24T14:36:08.000Z</time>
      </trkpt>
      <trkpt lat="49.32394" lon="-0.53267">
        <ele>41.599998474121</ele>
        <time>2026-03-24T14:36:09.000Z</time>
      </trkpt>
      <trkpt lat="49.32394" lon="-0.53268">
        <ele>41.599998474121</ele>
        <time>2026-03-24T14:36:10.000Z</time>
      </trkpt>
      <trkpt lat="49.32395" lon="-0.53269">
        <ele>41.599998474121</ele>
        <time>2026-03-24T14:36:11.000Z</time>
      </trkpt>
      <trkpt lat="49.32396" lon="-0.53271">
        <ele>41.799999237061</ele>
        <time>2026-03-24T14:36:12.000Z</time>
      </trkpt>
      <trkpt lat="49.32396" lon="-0.53271">
        <ele>41.799999237061</ele>
        <time>2026-03-24T14:36:13.000Z</time>
      </trkpt>
      <trkpt lat="49.32397" lon="-0.53272">
        <ele>41.799999237061</ele>
        <time>2026-03-24T14:36:14.000Z</time>
      </trkpt>
      <trkpt lat="49.32398" lon="-0.53273">
        <ele>41.799999237061</ele>
        <time>2026-03-24T14:36:15.000Z</time>
      </trkpt>
      <trkpt lat="49.32398" lon="-0.53274">
        <ele>41.799999237061</ele>
        <time>2026-03-24T14:36:16.000Z</time>
      </trkpt>
      <trkpt lat="49.32399" lon="-0.53275">
        <ele>41.799999237061</ele>
        <time>2026-03-24T14:36:17.000Z</time>
      </trkpt>
      <trkpt lat="49.32399" lon="-0.53277">
        <ele>42</ele>
        <time>2026-03-24T14:36:18.000Z</time>
      </trkpt>
      <trkpt lat="49.324" lon="-0.53278">
        <ele>42</ele>
        <time>2026-03-24T14:36:19.000Z</time>
      </trkpt>
      <trkpt lat="49.32401" lon="-0.5328">
        <ele>42</ele>
        <time>2026-03-24T14:36:20.000Z</time>
      </trkpt>
      <trkpt lat="49.32402" lon="-0.53282">
        <ele>42</ele>
        <time>2026-03-24T14:36:21.000Z</time>
      </trkpt>
      <trkpt lat="49.32402" lon="-0.53284">
        <ele>42</ele>
        <time>2026-03-24T14:36:22.000Z</time>
      </trkpt>
      <trkpt lat="49.32403" lon="-0.53286">
        <ele>42</ele>
        <time>2026-03-24T14:36:23.000Z</time>
      </trkpt>
      <trkpt lat="49.32404" lon="-0.53288">
        <ele>42</ele>
        <time>2026-03-24T14:36:24.000Z</time>
      </trkpt>
      <trkpt lat="49.32404" lon="-0.53289">
        <ele>42</ele>
        <time>2026-03-24T14:36:25.000Z</time>
      </trkpt>
      <trkpt lat="49.32405" lon="-0.53291">
        <ele>42</ele>
        <time>2026-03-24T14:36:26.000Z</time>
      </trkpt>
      <trkpt lat="49.32406" lon="-0.53293">
        <ele>42</ele>
        <time>2026-03-24T14:36:27.000Z</time>
      </trkpt>
      <trkpt lat="49.32406" lon="-0.53294">
        <ele>42</ele>
        <time>2026-03-24T14:36:28.000Z</time>
      </trkpt>
      <trkpt lat="49.32407" lon="-0.53296">
        <ele>42</ele>
        <time>2026-03-24T14:36:29.000Z</time>
      </trkpt>
      <trkpt lat="49.32408" lon="-0.53298">
        <ele>42</ele>
        <time>2026-03-24T14:36:30.000Z</time>
      </trkpt>
      <trkpt lat="49.32408" lon="-0.53299">
        <ele>42</ele>
        <time>2026-03-24T14:36:31.000Z</time>
      </trkpt>
      <trkpt lat="49.32408" lon="-0.533">
        <ele>42</ele>
        <time>2026-03-24T14:36:32.000Z</time>
      </trkpt>
      <trkpt lat="49.32409" lon="-0.53302">
        <ele>42</ele>
        <time>2026-03-24T14:36:33.000Z</time>
      </trkpt>
      <trkpt lat="49.32409" lon="-0.53304">
        <ele>42</ele>
        <time>2026-03-24T14:36:34.000Z</time>
      </trkpt>
      <trkpt lat="49.3241" lon="-0.53305">
        <ele>42</ele>
        <time>2026-03-24T14:36:35.000Z</time>
      </trkpt>
      <trkpt lat="49.3241" lon="-0.53307">
        <ele>42</ele>
        <time>2026-03-24T14:36:36.000Z</time>
      </trkpt>
      <trkpt lat="49.3241" lon="-0.53309">
        <ele>42</ele>
        <time>2026-03-24T14:36:37.000Z</time>
      </trkpt>
      <trkpt lat="49.32411" lon="-0.53311">
        <ele>42</ele>
        <time>2026-03-24T14:36:38.000Z</time>
      </trkpt>
      <trkpt lat="49.32411" lon="-0.53313">
        <ele>42</ele>
        <time>2026-03-24T14:36:39.000Z</time>
      </trkpt>
      <trkpt lat="49.32412" lon="-0.53314">
        <ele>42</ele>
        <time>2026-03-24T14:36:40.000Z</time>
      </trkpt>
      <trkpt lat="49.32412" lon="-0.53316">
        <ele>42</ele>
        <time>2026-03-24T14:36:41.000Z</time>
      </trkpt>
      <trkpt lat="49.32412" lon="-0.53317">
        <ele>42</ele>
        <time>2026-03-24T14:36:42.000Z</time>
      </trkpt>
      <trkpt lat="49.32413" lon="-0.53319">
        <ele>42</ele>
        <time>2026-03-24T14:36:43.000Z</time>
      </trkpt>
      <trkpt lat="49.32414" lon="-0.5332">
        <ele>42</ele>
        <time>2026-03-24T14:36:44.000Z</time>
      </trkpt>
      <trkpt lat="49.32414" lon="-0.53321">
        <ele>42</ele>
        <time>2026-03-24T14:36:45.000Z</time>
      </trkpt>
      <trkpt lat="49.32415" lon="-0.53323">
        <ele>42</ele>
        <time>2026-03-24T14:36:46.000Z</time>
      </trkpt>
      <trkpt lat="49.32416" lon="-0.53324">
        <ele>42</ele>
        <time>2026-03-24T14:36:47.000Z</time>
      </trkpt>
      <trkpt lat="49.32417" lon="-0.53326">
        <ele>42</ele>
        <time>2026-03-24T14:36:48.000Z</time>
      </trkpt>
      <trkpt lat="49.32417" lon="-0.53326">
        <ele>42</ele>
        <time>2026-03-24T14:36:49.000Z</time>
      </trkpt>
      <trkpt lat="49.32417" lon="-0.53327">
        <ele>42</ele>
        <time>2026-03-24T14:36:50.000Z</time>
      </trkpt>
      <trkpt lat="49.32418" lon="-0.53329">
        <ele>42</ele>
        <time>2026-03-24T14:36:51.000Z</time>
      </trkpt>
      <trkpt lat="49.32418" lon="-0.53331">
        <ele>42</ele>
        <time>2026-03-24T14:36:52.000Z</time>
      </trkpt>
      <trkpt lat="49.32419" lon="-0.53333">
        <ele>42</ele>
        <time>2026-03-24T14:36:53.000Z</time>
      </trkpt>
      <trkpt lat="49.3242" lon="-0.53335">
        <ele>42</ele>
        <time>2026-03-24T14:36:54.000Z</time>
      </trkpt>
      <trkpt lat="49.3242" lon="-0.53336">
        <ele>42</ele>
        <time>2026-03-24T14:36:55.000Z</time>
      </trkpt>
      <trkpt lat="49.3242" lon="-0.53338">
        <ele>41.799999237061</ele>
        <time>2026-03-24T14:36:56.000Z</time>
      </trkpt>
      <trkpt lat="49.32421" lon="-0.5334">
        <ele>41.799999237061</ele>
        <time>2026-03-24T14:36:57.000Z</time>
      </trkpt>
      <trkpt lat="49.32421" lon="-0.53342">
        <ele>41.799999237061</ele>
        <time>2026-03-24T14:36:58.000Z</time>
      </trkpt>
      <trkpt lat="49.32422" lon="-0.53344">
        <ele>41.599998474121</ele>
        <time>2026-03-24T14:36:59.000Z</time>
      </trkpt>
      <trkpt lat="49.32422" lon="-0.53346">
        <ele>41.599998474121</ele>
        <time>2026-03-24T14:37:00.000Z</time>
      </trkpt>
      <trkpt lat="49.32423" lon="-0.53348">
        <ele>41.599998474121</ele>
        <time>2026-03-24T14:37:01.000Z</time>
      </trkpt>
      <trkpt lat="49.32423" lon="-0.53349">
        <ele>41.400001525879</ele>
        <time>2026-03-24T14:37:02.000Z</time>
      </trkpt>
      <trkpt lat="49.32424" lon="-0.53351">
        <ele>41.400001525879</ele>
        <time>2026-03-24T14:37:03.000Z</time>
      </trkpt>
      <trkpt lat="49.32424" lon="-0.53352">
        <ele>41.400001525879</ele>
        <time>2026-03-24T14:37:04.000Z</time>
      </trkpt>
      <trkpt lat="49.32425" lon="-0.53354">
        <ele>41.200000762939</ele>
        <time>2026-03-24T14:37:05.000Z</time>
      </trkpt>
      <trkpt lat="49.32425" lon="-0.53356">
        <ele>41.200000762939</ele>
        <time>2026-03-24T14:37:06.000Z</time>
      </trkpt>
      <trkpt lat="49.32426" lon="-0.53358">
        <ele>41.200000762939</ele>
        <time>2026-03-24T14:37:07.000Z</time>
      </trkpt>
      <trkpt lat="49.32426" lon="-0.5336">
        <ele>41</ele>
        <time>2026-03-24T14:37:08.000Z</time>
      </trkpt>
      <trkpt lat="49.32426" lon="-0.53361">
        <ele>41</ele>
        <time>2026-03-24T14:37:09.000Z</time>
      </trkpt>
      <trkpt lat="49.32427" lon="-0.53363">
        <ele>41</ele>
        <time>2026-03-24T14:37:10.000Z</time>
      </trkpt>
      <trkpt lat="49.32427" lon="-0.53365">
        <ele>41</ele>
        <time>2026-03-24T14:37:11.000Z</time>
      </trkpt>
      <trkpt lat="49.32428" lon="-0.53366">
        <ele>40.799999237061</ele>
        <time>2026-03-24T14:37:12.000Z</time>
      </trkpt>
      <trkpt lat="49.32428" lon="-0.53367">
        <ele>40.799999237061</ele>
        <time>2026-03-24T14:37:13.000Z</time>
      </trkpt>
      <trkpt lat="49.32428" lon="-0.53369">
        <ele>40.799999237061</ele>
        <time>2026-03-24T14:37:14.000Z</time>
      </trkpt>
      <trkpt lat="49.32429" lon="-0.5337">
        <ele>40.799999237061</ele>
        <time>2026-03-24T14:37:15.000Z</time>
      </trkpt>
      <trkpt lat="49.3243" lon="-0.53372">
        <ele>40.599998474121</ele>
        <time>2026-03-24T14:37:16.000Z</time>
      </trkpt>
      <trkpt lat="49.3243" lon="-0.53373">
        <ele>40.599998474121</ele>
        <time>2026-03-24T14:37:17.000Z</time>
      </trkpt>
      <trkpt lat="49.32431" lon="-0.53374">
        <ele>40.599998474121</ele>
        <time>2026-03-24T14:37:18.000Z</time>
      </trkpt>
      <trkpt lat="49.32431" lon="-0.53375">
        <ele>40.599998474121</ele>
        <time>2026-03-24T14:37:19.000Z</time>
      </trkpt>
      <trkpt lat="49.32432" lon="-0.53373">
        <ele>40.599998474121</ele>
        <time>2026-03-24T14:37:20.000Z</time>
      </trkpt>
      <trkpt lat="49.32432" lon="-0.53374">
        <ele>40.599998474121</ele>
        <time>2026-03-24T14:37:21.000Z</time>
      </trkpt>
      <trkpt lat="49.32432" lon="-0.53372">
        <ele>40.599998474121</ele>
        <time>2026-03-24T14:37:22.000Z</time>
      </trkpt>
      <trkpt lat="49.32431" lon="-0.53372">
        <ele>40.599998474121</ele>
        <time>2026-03-24T14:37:23.000Z</time>
      </trkpt>
      <trkpt lat="49.32432" lon="-0.53374">
        <ele>40.599998474121</ele>
        <time>2026-03-24T14:37:24.000Z</time>
      </trkpt>
      <trkpt lat="49.32432" lon="-0.53375">
        <ele>40.599998474121</ele>
        <time>2026-03-24T14:37:25.000Z</time>
      </trkpt>
      <trkpt lat="49.32433" lon="-0.53376">
        <ele>40.400001525879</ele>
        <time>2026-03-24T14:37:26.000Z</time>
      </trkpt>
      <trkpt lat="49.32433" lon="-0.53378">
        <ele>40.400001525879</ele>
        <time>2026-03-24T14:37:27.000Z</time>
      </trkpt>
      <trkpt lat="49.32434" lon="-0.53379">
        <ele>40.400001525879</ele>
        <time>2026-03-24T14:37:28.000Z</time>
      </trkpt>
      <trkpt lat="49.32434" lon="-0.53381">
        <ele>40.400001525879</ele>
        <time>2026-03-24T14:37:29.000Z</time>
      </trkpt>
      <trkpt lat="49.32435" lon="-0.53383">
        <ele>40.200000762939</ele>
        <time>2026-03-24T14:37:30.000Z</time>
      </trkpt>
      <trkpt lat="49.32435" lon="-0.53384">
        <ele>40.200000762939</ele>
        <time>2026-03-24T14:37:31.000Z</time>
      </trkpt>
      <trkpt lat="49.32436" lon="-0.53385">
        <ele>40.200000762939</ele>
        <time>2026-03-24T14:37:32.000Z</time>
      </trkpt>
      <trkpt lat="49.32436" lon="-0.53387">
        <ele>40.200000762939</ele>
        <time>2026-03-24T14:37:33.000Z</time>
      </trkpt>
      <trkpt lat="49.32437" lon="-0.53388">
        <ele>40</ele>
        <time>2026-03-24T14:37:34.000Z</time>
      </trkpt>
      <trkpt lat="49.32437" lon="-0.53389">
        <ele>40</ele>
        <time>2026-03-24T14:37:35.000Z</time>
      </trkpt>
      <trkpt lat="49.32437" lon="-0.53391">
        <ele>40</ele>
        <time>2026-03-24T14:37:36.000Z</time>
      </trkpt>
      <trkpt lat="49.32438" lon="-0.53393">
        <ele>40</ele>
        <time>2026-03-24T14:37:37.000Z</time>
      </trkpt>
      <trkpt lat="49.32438" lon="-0.53394">
        <ele>39.799999237061</ele>
        <time>2026-03-24T14:37:38.000Z</time>
      </trkpt>
      <trkpt lat="49.32439" lon="-0.53396">
        <ele>39.799999237061</ele>
        <time>2026-03-24T14:37:39.000Z</time>
      </trkpt>
      <trkpt lat="49.32439" lon="-0.53397">
        <ele>39.799999237061</ele>
        <time>2026-03-24T14:37:40.000Z</time>
      </trkpt>
      <trkpt lat="49.32439" lon="-0.53399">
        <ele>39.599998474121</ele>
        <time>2026-03-24T14:37:41.000Z</time>
      </trkpt>
      <trkpt lat="49.3244" lon="-0.534">
        <ele>39.599998474121</ele>
        <time>2026-03-24T14:37:42.000Z</time>
      </trkpt>
      <trkpt lat="49.3244" lon="-0.53402">
        <ele>39.599998474121</ele>
        <time>2026-03-24T14:37:43.000Z</time>
      </trkpt>
      <trkpt lat="49.32441" lon="-0.53403">
        <ele>39.400001525879</ele>
        <time>2026-03-24T14:37:44.000Z</time>
      </trkpt>
      <trkpt lat="49.32441" lon="-0.53404">
        <ele>39.400001525879</ele>
        <time>2026-03-24T14:37:45.000Z</time>
      </trkpt>
      <trkpt lat="49.32442" lon="-0.53406">
        <ele>39.400001525879</ele>
        <time>2026-03-24T14:37:46.000Z</time>
      </trkpt>
      <trkpt lat="49.32442" lon="-0.53408">
        <ele>39.200000762939</ele>
        <time>2026-03-24T14:37:47.000Z</time>
      </trkpt>
      <trkpt lat="49.32442" lon="-0.53409">
        <ele>39.200000762939</ele>
        <time>2026-03-24T14:37:48.000Z</time>
      </trkpt>
      <trkpt lat="49.32443" lon="-0.53411">
        <ele>39.200000762939</ele>
        <time>2026-03-24T14:37:49.000Z</time>
      </trkpt>
      <trkpt lat="49.32443" lon="-0.53412">
        <ele>39</ele>
        <time>2026-03-24T14:37:50.000Z</time>
      </trkpt>
      <trkpt lat="49.32443" lon="-0.53413">
        <ele>39</ele>
        <time>2026-03-24T14:37:51.000Z</time>
      </trkpt>
      <trkpt lat="49.32444" lon="-0.53415">
        <ele>39</ele>
        <time>2026-03-24T14:37:52.000Z</time>
      </trkpt>
      <trkpt lat="49.32444" lon="-0.53417">
        <ele>38.799999237061</ele>
        <time>2026-03-24T14:37:53.000Z</time>
      </trkpt>
      <trkpt lat="49.32444" lon="-0.53419">
        <ele>38.799999237061</ele>
        <time>2026-03-24T14:37:54.000Z</time>
      </trkpt>
      <trkpt lat="49.32445" lon="-0.5342">
        <ele>38.799999237061</ele>
        <time>2026-03-24T14:37:55.000Z</time>
      </trkpt>
      <trkpt lat="49.32445" lon="-0.53422">
        <ele>38.799999237061</ele>
        <time>2026-03-24T14:37:56.000Z</time>
      </trkpt>
      <trkpt lat="49.32446" lon="-0.53423">
        <ele>38.799999237061</ele>
        <time>2026-03-24T14:37:57.000Z</time>
      </trkpt>
      <trkpt lat="49.32446" lon="-0.53425">
        <ele>38.799999237061</ele>
        <time>2026-03-24T14:37:58.000Z</time>
      </trkpt>
      <trkpt lat="49.32446" lon="-0.53426">
        <ele>38.799999237061</ele>
        <time>2026-03-24T14:37:59.000Z</time>
      </trkpt>
      <trkpt lat="49.32446" lon="-0.53428">
        <ele>38.799999237061</ele>
        <time>2026-03-24T14:38:00.000Z</time>
      </trkpt>
      <trkpt lat="49.32447" lon="-0.5343">
        <ele>38.799999237061</ele>
        <time>2026-03-24T14:38:01.000Z</time>
      </trkpt>
      <trkpt lat="49.32447" lon="-0.53432">
        <ele>38.799999237061</ele>
        <time>2026-03-24T14:38:02.000Z</time>
      </trkpt>
      <trkpt lat="49.32447" lon="-0.53433">
        <ele>38.799999237061</ele>
        <time>2026-03-24T14:38:03.000Z</time>
      </trkpt>
      <trkpt lat="49.32448" lon="-0.53435">
        <ele>38.799999237061</ele>
        <time>2026-03-24T14:38:04.000Z</time>
      </trkpt>
      <trkpt lat="49.32448" lon="-0.53437">
        <ele>38.599998474121</ele>
        <time>2026-03-24T14:38:05.000Z</time>
      </trkpt>
      <trkpt lat="49.32449" lon="-0.53438">
        <ele>38.599998474121</ele>
        <time>2026-03-24T14:38:06.000Z</time>
      </trkpt>
      <trkpt lat="49.32449" lon="-0.53439">
        <ele>38.599998474121</ele>
        <time>2026-03-24T14:38:07.000Z</time>
      </trkpt>
      <trkpt lat="49.32449" lon="-0.53441">
        <ele>38.400001525879</ele>
        <time>2026-03-24T14:38:08.000Z</time>
      </trkpt>
      <trkpt lat="49.32449" lon="-0.53442">
        <ele>38.400001525879</ele>
        <time>2026-03-24T14:38:09.000Z</time>
      </trkpt>
      <trkpt lat="49.32449" lon="-0.53443">
        <ele>38.400001525879</ele>
        <time>2026-03-24T14:38:10.000Z</time>
      </trkpt>
      <trkpt lat="49.3245" lon="-0.53444">
        <ele>38.400001525879</ele>
        <time>2026-03-24T14:38:11.000Z</time>
      </trkpt>
      <trkpt lat="49.3245" lon="-0.53444">
        <ele>38.400001525879</ele>
        <time>2026-03-24T14:38:12.000Z</time>
      </trkpt>
      <trkpt lat="49.3245" lon="-0.53446">
        <ele>38.200000762939</ele>
        <time>2026-03-24T14:38:13.000Z</time>
      </trkpt>
      <trkpt lat="49.32451" lon="-0.53447">
        <ele>38.200000762939</ele>
        <time>2026-03-24T14:38:14.000Z</time>
      </trkpt>
      <trkpt lat="49.32451" lon="-0.53448">
        <ele>38.200000762939</ele>
        <time>2026-03-24T14:38:15.000Z</time>
      </trkpt>
      <trkpt lat="49.32452" lon="-0.5345">
        <ele>38.200000762939</ele>
        <time>2026-03-24T14:38:16.000Z</time>
      </trkpt>
      <trkpt lat="49.32452" lon="-0.53451">
        <ele>38</ele>
        <time>2026-03-24T14:38:17.000Z</time>
      </trkpt>
      <trkpt lat="49.32453" lon="-0.53452">
        <ele>38</ele>
        <time>2026-03-24T14:38:18.000Z</time>
      </trkpt>
      <trkpt lat="49.32454" lon="-0.53453">
        <ele>38</ele>
        <time>2026-03-24T14:38:19.000Z</time>
      </trkpt>
      <trkpt lat="49.32454" lon="-0.53454">
        <ele>38</ele>
        <time>2026-03-24T14:38:20.000Z</time>
      </trkpt>
      <trkpt lat="49.32455" lon="-0.53456">
        <ele>38</ele>
        <time>2026-03-24T14:38:21.000Z</time>
      </trkpt>
      <trkpt lat="49.32455" lon="-0.53457">
        <ele>37.799999237061</ele>
        <time>2026-03-24T14:38:22.000Z</time>
      </trkpt>
      <trkpt lat="49.32455" lon="-0.53459">
        <ele>37.799999237061</ele>
        <time>2026-03-24T14:38:23.000Z</time>
      </trkpt>
      <trkpt lat="49.32455" lon="-0.5346">
        <ele>37.799999237061</ele>
        <time>2026-03-24T14:38:24.000Z</time>
      </trkpt>
      <trkpt lat="49.32455" lon="-0.53461">
        <ele>37.799999237061</ele>
        <time>2026-03-24T14:38:25.000Z</time>
      </trkpt>
      <trkpt lat="49.32456" lon="-0.53462">
        <ele>37.799999237061</ele>
        <time>2026-03-24T14:38:26.000Z</time>
      </trkpt>
      <trkpt lat="49.32456" lon="-0.53462">
        <ele>37.799999237061</ele>
        <time>2026-03-24T14:38:27.000Z</time>
      </trkpt>
      <trkpt lat="49.32456" lon="-0.53463">
        <ele>37.799999237061</ele>
        <time>2026-03-24T14:38:28.000Z</time>
      </trkpt>
      <trkpt lat="49.32456" lon="-0.53464">
        <ele>37.799999237061</ele>
        <time>2026-03-24T14:38:29.000Z</time>
      </trkpt>
      <trkpt lat="49.32456" lon="-0.53464">
        <ele>37.799999237061</ele>
        <time>2026-03-24T14:38:30.000Z</time>
      </trkpt>
      <trkpt lat="49.32456" lon="-0.53464">
        <ele>37.799999237061</ele>
        <time>2026-03-24T14:38:31.000Z</time>
      </trkpt>
      <trkpt lat="49.32455" lon="-0.53463">
        <ele>37.799999237061</ele>
        <time>2026-03-24T14:38:32.000Z</time>
      </trkpt>
      <trkpt lat="49.32454" lon="-0.53463">
        <ele>38</ele>
        <time>2026-03-24T14:38:33.000Z</time>
      </trkpt>
      <trkpt lat="49.32454" lon="-0.53462">
        <ele>38</ele>
        <time>2026-03-24T14:38:34.000Z</time>
      </trkpt>
      <trkpt lat="49.32454" lon="-0.53462">
        <ele>38</ele>
        <time>2026-03-24T14:38:35.000Z</time>
      </trkpt>
      <trkpt lat="49.32453" lon="-0.53462">
        <ele>38</ele>
        <time>2026-03-24T14:38:36.000Z</time>
      </trkpt>
      <trkpt lat="49.32453" lon="-0.53461">
        <ele>38</ele>
        <time>2026-03-24T14:38:37.000Z</time>
      </trkpt>
      <trkpt lat="49.32453" lon="-0.53461">
        <ele>38</ele>
        <time>2026-03-24T14:38:38.000Z</time>
      </trkpt>
      <trkpt lat="49.32454" lon="-0.53461">
        <ele>38</ele>
        <time>2026-03-24T14:38:39.000Z</time>
      </trkpt>
      <trkpt lat="49.32454" lon="-0.53461">
        <ele>38</ele>
        <time>2026-03-24T14:38:40.000Z</time>
      </trkpt>
      <trkpt lat="49.32454" lon="-0.5346">
        <ele>38</ele>
        <time>2026-03-24T14:38:41.000Z</time>
      </trkpt>
      <trkpt lat="49.32454" lon="-0.5346">
        <ele>38</ele>
        <time>2026-03-24T14:38:42.000Z</time>
      </trkpt>
      <trkpt lat="49.32454" lon="-0.5346">
        <ele>38</ele>
        <time>2026-03-24T14:38:43.000Z</time>
      </trkpt>
      <trkpt lat="49.32454" lon="-0.5346">
        <ele>38</ele>
        <time>2026-03-24T14:38:44.000Z</time>
      </trkpt>
      <trkpt lat="49.32454" lon="-0.53459">
        <ele>38</ele>
        <time>2026-03-24T14:38:45.000Z</time>
      </trkpt>
      <trkpt lat="49.32454" lon="-0.53459">
        <ele>38</ele>
        <time>2026-03-24T14:38:46.000Z</time>
      </trkpt>
      <trkpt lat="49.32454" lon="-0.53459">
        <ele>38</ele>
        <time>2026-03-24T14:38:47.000Z</time>
      </trkpt>
      <trkpt lat="49.32454" lon="-0.53459">
        <ele>38</ele>
        <time>2026-03-24T14:38:48.000Z</time>
      </trkpt>
      <trkpt lat="49.32453" lon="-0.53459">
        <ele>38</ele>
        <time>2026-03-24T14:38:49.000Z</time>
      </trkpt>
      <trkpt lat="49.32453" lon="-0.53459">
        <ele>38</ele>
        <time>2026-03-24T14:38:50.000Z</time>
      </trkpt>
      <trkpt lat="49.32453" lon="-0.5346">
        <ele>38</ele>
        <time>2026-03-24T14:38:51.000Z</time>
      </trkpt>
      <trkpt lat="49.32452" lon="-0.53461">
        <ele>38</ele>
        <time>2026-03-24T14:38:52.000Z</time>
      </trkpt>
      <trkpt lat="49.32452" lon="-0.53461">
        <ele>38.200000762939</ele>
        <time>2026-03-24T14:38:53.000Z</time>
      </trkpt>
      <trkpt lat="49.3245" lon="-0.53461">
        <ele>38.200000762939</ele>
        <time>2026-03-24T14:38:54.000Z</time>
      </trkpt>
      <trkpt lat="49.32449" lon="-0.53461">
        <ele>38.200000762939</ele>
        <time>2026-03-24T14:38:55.000Z</time>
      </trkpt>
      <trkpt lat="49.32448" lon="-0.53461">
        <ele>38.400001525879</ele>
        <time>2026-03-24T14:38:56.000Z</time>
      </trkpt>
      <trkpt lat="49.32447" lon="-0.53462">
        <ele>38.400001525879</ele>
        <time>2026-03-24T14:38:57.000Z</time>
      </trkpt>
      <trkpt lat="49.32446" lon="-0.53462">
        <ele>38.599998474121</ele>
        <time>2026-03-24T14:38:58.000Z</time>
      </trkpt>
      <trkpt lat="49.32445" lon="-0.53462">
        <ele>38.599998474121</ele>
        <time>2026-03-24T14:38:59.000Z</time>
      </trkpt>
      <trkpt lat="49.32445" lon="-0.53463">
        <ele>38.599998474121</ele>
        <time>2026-03-24T14:39:00.000Z</time>
      </trkpt>
      <trkpt lat="49.32443" lon="-0.53463">
        <ele>38.799999237061</ele>
        <time>2026-03-24T14:39:01.000Z</time>
      </trkpt>
      <trkpt lat="49.32443" lon="-0.53463">
        <ele>38.799999237061</ele>
        <time>2026-03-24T14:39:02.000Z</time>
      </trkpt>
      <trkpt lat="49.32441" lon="-0.53463">
        <ele>38.799999237061</ele>
        <time>2026-03-24T14:39:03.000Z</time>
      </trkpt>
      <trkpt lat="49.32441" lon="-0.53463">
        <ele>39</ele>
        <time>2026-03-24T14:39:04.000Z</time>
      </trkpt>
      <trkpt lat="49.3244" lon="-0.53463">
        <ele>39</ele>
        <time>2026-03-24T14:39:05.000Z</time>
      </trkpt>
      <trkpt lat="49.32439" lon="-0.53464">
        <ele>39</ele>
        <time>2026-03-24T14:39:06.000Z</time>
      </trkpt>
      <trkpt lat="49.32438" lon="-0.53464">
        <ele>39</ele>
        <time>2026-03-24T14:39:07.000Z</time>
      </trkpt>
      <trkpt lat="49.32437" lon="-0.53465">
        <ele>39</ele>
        <time>2026-03-24T14:39:08.000Z</time>
      </trkpt>
      <trkpt lat="49.32436" lon="-0.53465">
        <ele>39.200000762939</ele>
        <time>2026-03-24T14:39:09.000Z</time>
      </trkpt>
      <trkpt lat="49.32435" lon="-0.53465">
        <ele>39.200000762939</ele>
        <time>2026-03-24T14:39:10.000Z</time>
      </trkpt>
      <trkpt lat="49.32433" lon="-0.53466">
        <ele>39.200000762939</ele>
        <time>2026-03-24T14:39:11.000Z</time>
      </trkpt>
      <trkpt lat="49.32432" lon="-0.53467">
        <ele>39.200000762939</ele>
        <time>2026-03-24T14:39:12.000Z</time>
      </trkpt>
      <trkpt lat="49.32431" lon="-0.53468">
        <ele>39.200000762939</ele>
        <time>2026-03-24T14:39:13.000Z</time>
      </trkpt>
      <trkpt lat="49.3243" lon="-0.53468">
        <ele>39.400001525879</ele>
        <time>2026-03-24T14:39:14.000Z</time>
      </trkpt>
      <trkpt lat="49.32429" lon="-0.53468">
        <ele>39.400001525879</ele>
        <time>2026-03-24T14:39:15.000Z</time>
      </trkpt>
      <trkpt lat="49.32428" lon="-0.53469">
        <ele>39.400001525879</ele>
        <time>2026-03-24T14:39:16.000Z</time>
      </trkpt>
      <trkpt lat="49.32427" lon="-0.53469">
        <ele>39.400001525879</ele>
        <time>2026-03-24T14:39:17.000Z</time>
      </trkpt>
      <trkpt lat="49.32426" lon="-0.53469">
        <ele>39.400001525879</ele>
        <time>2026-03-24T14:39:18.000Z</time>
      </trkpt>
      <trkpt lat="49.32425" lon="-0.5347">
        <ele>39.599998474121</ele>
        <time>2026-03-24T14:39:19.000Z</time>
      </trkpt>
      <trkpt lat="49.32424" lon="-0.5347">
        <ele>39.599998474121</ele>
        <time>2026-03-24T14:39:20.000Z</time>
      </trkpt>
      <trkpt lat="49.32423" lon="-0.5347">
        <ele>39.599998474121</ele>
        <time>2026-03-24T14:39:21.000Z</time>
      </trkpt>
      <trkpt lat="49.32422" lon="-0.53471">
        <ele>39.599998474121</ele>
        <time>2026-03-24T14:39:22.000Z</time>
      </trkpt>
      <trkpt lat="49.32421" lon="-0.53471">
        <ele>39.599998474121</ele>
        <time>2026-03-24T14:39:23.000Z</time>
      </trkpt>
      <trkpt lat="49.3242" lon="-0.53471">
        <ele>39.799999237061</ele>
        <time>2026-03-24T14:39:24.000Z</time>
      </trkpt>
      <trkpt lat="49.32419" lon="-0.53472">
        <ele>39.799999237061</ele>
        <time>2026-03-24T14:39:25.000Z</time>
      </trkpt>
      <trkpt lat="49.32418" lon="-0.53472">
        <ele>39.799999237061</ele>
        <time>2026-03-24T14:39:26.000Z</time>
      </trkpt>
      <trkpt lat="49.32417" lon="-0.53473">
        <ele>39.799999237061</ele>
        <time>2026-03-24T14:39:27.000Z</time>
      </trkpt>
      <trkpt lat="49.32416" lon="-0.53473">
        <ele>39.799999237061</ele>
        <time>2026-03-24T14:39:28.000Z</time>
      </trkpt>
      <trkpt lat="49.32415" lon="-0.53474">
        <ele>39.799999237061</ele>
        <time>2026-03-24T14:39:29.000Z</time>
      </trkpt>
      <trkpt lat="49.32414" lon="-0.53474">
        <ele>40</ele>
        <time>2026-03-24T14:39:30.000Z</time>
      </trkpt>
      <trkpt lat="49.32413" lon="-0.53475">
        <ele>40</ele>
        <time>2026-03-24T14:39:31.000Z</time>
      </trkpt>
      <trkpt lat="49.32412" lon="-0.53476">
        <ele>40</ele>
        <time>2026-03-24T14:39:32.000Z</time>
      </trkpt>
      <trkpt lat="49.32411" lon="-0.53477">
        <ele>40</ele>
        <time>2026-03-24T14:39:33.000Z</time>
      </trkpt>
      <trkpt lat="49.3241" lon="-0.53477">
        <ele>40</ele>
        <time>2026-03-24T14:39:34.000Z</time>
      </trkpt>
      <trkpt lat="49.32409" lon="-0.53478">
        <ele>40</ele>
        <time>2026-03-24T14:39:35.000Z</time>
      </trkpt>
      <trkpt lat="49.32407" lon="-0.53479">
        <ele>40</ele>
        <time>2026-03-24T14:39:36.000Z</time>
      </trkpt>
      <trkpt lat="49.32406" lon="-0.5348">
        <ele>40</ele>
        <time>2026-03-24T14:39:37.000Z</time>
      </trkpt>
      <trkpt lat="49.32405" lon="-0.53481">
        <ele>40</ele>
        <time>2026-03-24T14:39:38.000Z</time>
      </trkpt>
      <trkpt lat="49.32404" lon="-0.53482">
        <ele>40</ele>
        <time>2026-03-24T14:39:39.000Z</time>
      </trkpt>
      <trkpt lat="49.32403" lon="-0.53482">
        <ele>40</ele>
        <time>2026-03-24T14:39:40.000Z</time>
      </trkpt>
      <trkpt lat="49.32402" lon="-0.53483">
        <ele>40</ele>
        <time>2026-03-24T14:39:41.000Z</time>
      </trkpt>
      <trkpt lat="49.32401" lon="-0.53483">
        <ele>40</ele>
        <time>2026-03-24T14:39:42.000Z</time>
      </trkpt>
      <trkpt lat="49.324" lon="-0.53483">
        <ele>40</ele>
        <time>2026-03-24T14:39:43.000Z</time>
      </trkpt>
      <trkpt lat="49.32399" lon="-0.53483">
        <ele>40</ele>
        <time>2026-03-24T14:39:44.000Z</time>
      </trkpt>
      <trkpt lat="49.32397" lon="-0.53483">
        <ele>40</ele>
        <time>2026-03-24T14:39:45.000Z</time>
      </trkpt>
      <trkpt lat="49.32396" lon="-0.53483">
        <ele>40</ele>
        <time>2026-03-24T14:39:46.000Z</time>
      </trkpt>
      <trkpt lat="49.32396" lon="-0.53484">
        <ele>40</ele>
        <time>2026-03-24T14:39:47.000Z</time>
      </trkpt>
      <trkpt lat="49.32395" lon="-0.53484">
        <ele>40</ele>
        <time>2026-03-24T14:39:48.000Z</time>
      </trkpt>
      <trkpt lat="49.32394" lon="-0.53485">
        <ele>40</ele>
        <time>2026-03-24T14:39:49.000Z</time>
      </trkpt>
      <trkpt lat="49.32393" lon="-0.53486">
        <ele>40</ele>
        <time>2026-03-24T14:39:50.000Z</time>
      </trkpt>
      <trkpt lat="49.32392" lon="-0.53486">
        <ele>40</ele>
        <time>2026-03-24T14:39:51.000Z</time>
      </trkpt>
      <trkpt lat="49.32391" lon="-0.53487">
        <ele>40</ele>
        <time>2026-03-24T14:39:52.000Z</time>
      </trkpt>
      <trkpt lat="49.3239" lon="-0.53487">
        <ele>40</ele>
        <time>2026-03-24T14:39:53.000Z</time>
      </trkpt>
      <trkpt lat="49.32389" lon="-0.53487">
        <ele>40</ele>
        <time>2026-03-24T14:39:54.000Z</time>
      </trkpt>
      <trkpt lat="49.32388" lon="-0.53488">
        <ele>40</ele>
        <time>2026-03-24T14:39:55.000Z</time>
      </trkpt>
      <trkpt lat="49.32386" lon="-0.53488">
        <ele>40</ele>
        <time>2026-03-24T14:39:56.000Z</time>
      </trkpt>
      <trkpt lat="49.32385" lon="-0.53489">
        <ele>40</ele>
        <time>2026-03-24T14:39:57.000Z</time>
      </trkpt>
      <trkpt lat="49.32384" lon="-0.53489">
        <ele>40</ele>
        <time>2026-03-24T14:39:58.000Z</time>
      </trkpt>
      <trkpt lat="49.32383" lon="-0.5349">
        <ele>40</ele>
        <time>2026-03-24T14:39:59.000Z</time>
      </trkpt>
      <trkpt lat="49.32381" lon="-0.53491">
        <ele>40</ele>
        <time>2026-03-24T14:40:00.000Z</time>
      </trkpt>
      <trkpt lat="49.3238" lon="-0.53491">
        <ele>40</ele>
        <time>2026-03-24T14:40:01.000Z</time>
      </trkpt>
      <trkpt lat="49.32379" lon="-0.53492">
        <ele>40</ele>
        <time>2026-03-24T14:40:02.000Z</time>
      </trkpt>
      <trkpt lat="49.32378" lon="-0.53492">
        <ele>40</ele>
        <time>2026-03-24T14:40:03.000Z</time>
      </trkpt>
      <trkpt lat="49.32377" lon="-0.53492">
        <ele>40</ele>
        <time>2026-03-24T14:40:04.000Z</time>
      </trkpt>
      <trkpt lat="49.32376" lon="-0.53493">
        <ele>40</ele>
        <time>2026-03-24T14:40:05.000Z</time>
      </trkpt>
      <trkpt lat="49.32375" lon="-0.53494">
        <ele>40</ele>
        <time>2026-03-24T14:40:06.000Z</time>
      </trkpt>
      <trkpt lat="49.32374" lon="-0.53494">
        <ele>40</ele>
        <time>2026-03-24T14:40:07.000Z</time>
      </trkpt>
      <trkpt lat="49.32372" lon="-0.53495">
        <ele>40</ele>
        <time>2026-03-24T14:40:08.000Z</time>
      </trkpt>
      <trkpt lat="49.32371" lon="-0.53495">
        <ele>40</ele>
        <time>2026-03-24T14:40:09.000Z</time>
      </trkpt>
      <trkpt lat="49.3237" lon="-0.53496">
        <ele>40</ele>
        <time>2026-03-24T14:40:10.000Z</time>
      </trkpt>
      <trkpt lat="49.32369" lon="-0.53496">
        <ele>40</ele>
        <time>2026-03-24T14:40:11.000Z</time>
      </trkpt>
      <trkpt lat="49.32369" lon="-0.53497">
        <ele>40</ele>
        <time>2026-03-24T14:40:12.000Z</time>
      </trkpt>
      <trkpt lat="49.32368" lon="-0.53497">
        <ele>40</ele>
        <time>2026-03-24T14:40:13.000Z</time>
      </trkpt>
      <trkpt lat="49.32367" lon="-0.53497">
        <ele>40</ele>
        <time>2026-03-24T14:40:14.000Z</time>
      </trkpt>
      <trkpt lat="49.32366" lon="-0.53498">
        <ele>40</ele>
        <time>2026-03-24T14:40:15.000Z</time>
      </trkpt>
      <trkpt lat="49.32365" lon="-0.53498">
        <ele>40</ele>
        <time>2026-03-24T14:40:16.000Z</time>
      </trkpt>
      <trkpt lat="49.32364" lon="-0.53498">
        <ele>40</ele>
        <time>2026-03-24T14:40:17.000Z</time>
      </trkpt>
      <trkpt lat="49.32363" lon="-0.53499">
        <ele>40</ele>
        <time>2026-03-24T14:40:18.000Z</time>
      </trkpt>
      <trkpt lat="49.32362" lon="-0.53499">
        <ele>40</ele>
        <time>2026-03-24T14:40:19.000Z</time>
      </trkpt>
      <trkpt lat="49.32361" lon="-0.535">
        <ele>40</ele>
        <time>2026-03-24T14:40:20.000Z</time>
      </trkpt>
      <trkpt lat="49.3236" lon="-0.535">
        <ele>40</ele>
        <time>2026-03-24T14:40:21.000Z</time>
      </trkpt>
      <trkpt lat="49.32359" lon="-0.53501">
        <ele>40</ele>
        <time>2026-03-24T14:40:22.000Z</time>
      </trkpt>
      <trkpt lat="49.32358" lon="-0.53502">
        <ele>40</ele>
        <time>2026-03-24T14:40:23.000Z</time>
      </trkpt>
      <trkpt lat="49.32357" lon="-0.53502">
        <ele>40</ele>
        <time>2026-03-24T14:40:24.000Z</time>
      </trkpt>
      <trkpt lat="49.32355" lon="-0.53503">
        <ele>40</ele>
        <time>2026-03-24T14:40:25.000Z</time>
      </trkpt>
      <trkpt lat="49.32354" lon="-0.53503">
        <ele>40</ele>
        <time>2026-03-24T14:40:26.000Z</time>
      </trkpt>
      <trkpt lat="49.32353" lon="-0.53504">
        <ele>39.799999237061</ele>
        <time>2026-03-24T14:40:27.000Z</time>
      </trkpt>
      <trkpt lat="49.32352" lon="-0.53504">
        <ele>39.799999237061</ele>
        <time>2026-03-24T14:40:28.000Z</time>
      </trkpt>
      <trkpt lat="49.32351" lon="-0.53505">
        <ele>39.799999237061</ele>
        <time>2026-03-24T14:40:29.000Z</time>
      </trkpt>
      <trkpt lat="49.3235" lon="-0.53505">
        <ele>39.799999237061</ele>
        <time>2026-03-24T14:40:30.000Z</time>
      </trkpt>
      <trkpt lat="49.32349" lon="-0.53506">
        <ele>39.799999237061</ele>
        <time>2026-03-24T14:40:31.000Z</time>
      </trkpt>
      <trkpt lat="49.32348" lon="-0.53506">
        <ele>39.799999237061</ele>
        <time>2026-03-24T14:40:32.000Z</time>
      </trkpt>
      <trkpt lat="49.32346" lon="-0.53507">
        <ele>39.799999237061</ele>
        <time>2026-03-24T14:40:33.000Z</time>
      </trkpt>
      <trkpt lat="49.32345" lon="-0.53507">
        <ele>39.799999237061</ele>
        <time>2026-03-24T14:40:34.000Z</time>
      </trkpt>
      <trkpt lat="49.32344" lon="-0.53508">
        <ele>39.799999237061</ele>
        <time>2026-03-24T14:40:35.000Z</time>
      </trkpt>
      <trkpt lat="49.32343" lon="-0.53508">
        <ele>39.799999237061</ele>
        <time>2026-03-24T14:40:36.000Z</time>
      </trkpt>
      <trkpt lat="49.32342" lon="-0.53508">
        <ele>39.799999237061</ele>
        <time>2026-03-24T14:40:37.000Z</time>
      </trkpt>
      <trkpt lat="49.32341" lon="-0.53509">
        <ele>39.799999237061</ele>
        <time>2026-03-24T14:40:38.000Z</time>
      </trkpt>
      <trkpt lat="49.32339" lon="-0.5351">
        <ele>39.599998474121</ele>
        <time>2026-03-24T14:40:39.000Z</time>
      </trkpt>
      <trkpt lat="49.32338" lon="-0.5351">
        <ele>39.599998474121</ele>
        <time>2026-03-24T14:40:40.000Z</time>
      </trkpt>
      <trkpt lat="49.32337" lon="-0.5351">
        <ele>39.599998474121</ele>
        <time>2026-03-24T14:40:41.000Z</time>
      </trkpt>
      <trkpt lat="49.32336" lon="-0.53511">
        <ele>39.599998474121</ele>
        <time>2026-03-24T14:40:42.000Z</time>
      </trkpt>
      <trkpt lat="49.32335" lon="-0.53511">
        <ele>39.599998474121</ele>
        <time>2026-03-24T14:40:43.000Z</time>
      </trkpt>
      <trkpt lat="49.32334" lon="-0.53512">
        <ele>39.599998474121</ele>
        <time>2026-03-24T14:40:44.000Z</time>
      </trkpt>
      <trkpt lat="49.32333" lon="-0.53512">
        <ele>39.599998474121</ele>
        <time>2026-03-24T14:40:45.000Z</time>
      </trkpt>
      <trkpt lat="49.32332" lon="-0.53513">
        <ele>39.599998474121</ele>
        <time>2026-03-24T14:40:46.000Z</time>
      </trkpt>
      <trkpt lat="49.32331" lon="-0.53514">
        <ele>39.599998474121</ele>
        <time>2026-03-24T14:40:47.000Z</time>
      </trkpt>
      <trkpt lat="49.3233" lon="-0.53514">
        <ele>39.599998474121</ele>
        <time>2026-03-24T14:40:48.000Z</time>
      </trkpt>
      <trkpt lat="49.3233" lon="-0.53515">
        <ele>39.599998474121</ele>
        <time>2026-03-24T14:40:49.000Z</time>
      </trkpt>
      <trkpt lat="49.32328" lon="-0.53515">
        <ele>39.599998474121</ele>
        <time>2026-03-24T14:40:50.000Z</time>
      </trkpt>
      <trkpt lat="49.32327" lon="-0.53515">
        <ele>39.400001525879</ele>
        <time>2026-03-24T14:40:51.000Z</time>
      </trkpt>
      <trkpt lat="49.32326" lon="-0.53516">
        <ele>39.400001525879</ele>
        <time>2026-03-24T14:40:52.000Z</time>
      </trkpt>
      <trkpt lat="49.32325" lon="-0.53516">
        <ele>39.400001525879</ele>
        <time>2026-03-24T14:40:53.000Z</time>
      </trkpt>
      <trkpt lat="49.32323" lon="-0.53517">
        <ele>39.400001525879</ele>
        <time>2026-03-24T14:40:54.000Z</time>
      </trkpt>
      <trkpt lat="49.32322" lon="-0.53517">
        <ele>39.400001525879</ele>
        <time>2026-03-24T14:40:55.000Z</time>
      </trkpt>
      <trkpt lat="49.32321" lon="-0.53518">
        <ele>39.400001525879</ele>
        <time>2026-03-24T14:40:56.000Z</time>
      </trkpt>
      <trkpt lat="49.32319" lon="-0.53518">
        <ele>39.400001525879</ele>
        <time>2026-03-24T14:40:57.000Z</time>
      </trkpt>
      <trkpt lat="49.32318" lon="-0.53519">
        <ele>39.400001525879</ele>
        <time>2026-03-24T14:40:58.000Z</time>
      </trkpt>
      <trkpt lat="49.32317" lon="-0.5352">
        <ele>39.400001525879</ele>
        <time>2026-03-24T14:40:59.000Z</time>
      </trkpt>
      <trkpt lat="49.32316" lon="-0.5352">
        <ele>39.200000762939</ele>
        <time>2026-03-24T14:41:00.000Z</time>
      </trkpt>
      <trkpt lat="49.32315" lon="-0.53521">
        <ele>39.200000762939</ele>
        <time>2026-03-24T14:41:01.000Z</time>
      </trkpt>
      <trkpt lat="49.32314" lon="-0.53522">
        <ele>39.200000762939</ele>
        <time>2026-03-24T14:41:02.000Z</time>
      </trkpt>
      <trkpt lat="49.32313" lon="-0.53522">
        <ele>39.200000762939</ele>
        <time>2026-03-24T14:41:03.000Z</time>
      </trkpt>
      <trkpt lat="49.32312" lon="-0.53523">
        <ele>39.200000762939</ele>
        <time>2026-03-24T14:41:04.000Z</time>
      </trkpt>
      <trkpt lat="49.32311" lon="-0.53523">
        <ele>39.200000762939</ele>
        <time>2026-03-24T14:41:05.000Z</time>
      </trkpt>
      <trkpt lat="49.3231" lon="-0.53524">
        <ele>39.200000762939</ele>
        <time>2026-03-24T14:41:06.000Z</time>
      </trkpt>
      <trkpt lat="49.32309" lon="-0.53525">
        <ele>39.200000762939</ele>
        <time>2026-03-24T14:41:07.000Z</time>
      </trkpt>
      <trkpt lat="49.32308" lon="-0.53525">
        <ele>39.200000762939</ele>
        <time>2026-03-24T14:41:08.000Z</time>
      </trkpt>
      <trkpt lat="49.32307" lon="-0.53526">
        <ele>39.200000762939</ele>
        <time>2026-03-24T14:41:09.000Z</time>
      </trkpt>
      <trkpt lat="49.32306" lon="-0.53526">
        <ele>39</ele>
        <time>2026-03-24T14:41:10.000Z</time>
      </trkpt>
      <trkpt lat="49.32305" lon="-0.53527">
        <ele>39</ele>
        <time>2026-03-24T14:41:11.000Z</time>
      </trkpt>
      <trkpt lat="49.32304" lon="-0.53528">
        <ele>39</ele>
        <time>2026-03-24T14:41:12.000Z</time>
      </trkpt>
      <trkpt lat="49.32303" lon="-0.53528">
        <ele>39</ele>
        <time>2026-03-24T14:41:13.000Z</time>
      </trkpt>
      <trkpt lat="49.32301" lon="-0.53529">
        <ele>39</ele>
        <time>2026-03-24T14:41:14.000Z</time>
      </trkpt>
      <trkpt lat="49.323" lon="-0.53529">
        <ele>39</ele>
        <time>2026-03-24T14:41:15.000Z</time>
      </trkpt>
      <trkpt lat="49.32299" lon="-0.5353">
        <ele>39</ele>
        <time>2026-03-24T14:41:16.000Z</time>
      </trkpt>
      <trkpt lat="49.32298" lon="-0.53531">
        <ele>39</ele>
        <time>2026-03-24T14:41:17.000Z</time>
      </trkpt>
      <trkpt lat="49.32297" lon="-0.53532">
        <ele>38.799999237061</ele>
        <time>2026-03-24T14:41:18.000Z</time>
      </trkpt>
      <trkpt lat="49.32296" lon="-0.53533">
        <ele>38.799999237061</ele>
        <time>2026-03-24T14:41:19.000Z</time>
      </trkpt>
      <trkpt lat="49.32295" lon="-0.53533">
        <ele>38.799999237061</ele>
        <time>2026-03-24T14:41:20.000Z</time>
      </trkpt>
      <trkpt lat="49.32294" lon="-0.53534">
        <ele>38.799999237061</ele>
        <time>2026-03-24T14:41:21.000Z</time>
      </trkpt>
      <trkpt lat="49.32293" lon="-0.53535">
        <ele>38.799999237061</ele>
        <time>2026-03-24T14:41:22.000Z</time>
      </trkpt>
      <trkpt lat="49.32291" lon="-0.53535">
        <ele>38.799999237061</ele>
        <time>2026-03-24T14:41:23.000Z</time>
      </trkpt>
      <trkpt lat="49.3229" lon="-0.53536">
        <ele>38.799999237061</ele>
        <time>2026-03-24T14:41:24.000Z</time>
      </trkpt>
      <trkpt lat="49.32289" lon="-0.53536">
        <ele>38.799999237061</ele>
        <time>2026-03-24T14:41:25.000Z</time>
      </trkpt>
      <trkpt lat="49.32288" lon="-0.53536">
        <ele>38.799999237061</ele>
        <time>2026-03-24T14:41:26.000Z</time>
      </trkpt>
      <trkpt lat="49.32286" lon="-0.53536">
        <ele>38.799999237061</ele>
        <time>2026-03-24T14:41:27.000Z</time>
      </trkpt>
      <trkpt lat="49.32285" lon="-0.53537">
        <ele>38.799999237061</ele>
        <time>2026-03-24T14:41:28.000Z</time>
      </trkpt>
      <trkpt lat="49.32284" lon="-0.53537">
        <ele>38.599998474121</ele>
        <time>2026-03-24T14:41:29.000Z</time>
      </trkpt>
      <trkpt lat="49.32283" lon="-0.53538">
        <ele>38.599998474121</ele>
        <time>2026-03-24T14:41:30.000Z</time>
      </trkpt>
      <trkpt lat="49.32282" lon="-0.53538">
        <ele>38.599998474121</ele>
        <time>2026-03-24T14:41:31.000Z</time>
      </trkpt>
      <trkpt lat="49.32281" lon="-0.53539">
        <ele>38.599998474121</ele>
        <time>2026-03-24T14:41:32.000Z</time>
      </trkpt>
      <trkpt lat="49.3228" lon="-0.5354">
        <ele>38.599998474121</ele>
        <time>2026-03-24T14:41:33.000Z</time>
      </trkpt>
      <trkpt lat="49.32279" lon="-0.53541">
        <ele>38.599998474121</ele>
        <time>2026-03-24T14:41:34.000Z</time>
      </trkpt>
      <trkpt lat="49.32278" lon="-0.53541">
        <ele>38.599998474121</ele>
        <time>2026-03-24T14:41:35.000Z</time>
      </trkpt>
      <trkpt lat="49.32277" lon="-0.53542">
        <ele>38.599998474121</ele>
        <time>2026-03-24T14:41:36.000Z</time>
      </trkpt>
      <trkpt lat="49.32275" lon="-0.53542">
        <ele>38.599998474121</ele>
        <time>2026-03-24T14:41:37.000Z</time>
      </trkpt>
      <trkpt lat="49.32274" lon="-0.53543">
        <ele>38.400001525879</ele>
        <time>2026-03-24T14:41:38.000Z</time>
      </trkpt>
      <trkpt lat="49.32273" lon="-0.53544">
        <ele>38.400001525879</ele>
        <time>2026-03-24T14:41:39.000Z</time>
      </trkpt>
      <trkpt lat="49.32272" lon="-0.53544">
        <ele>38.400001525879</ele>
        <time>2026-03-24T14:41:40.000Z</time>
      </trkpt>
      <trkpt lat="49.3227" lon="-0.53545">
        <ele>38.599998474121</ele>
        <time>2026-03-24T14:41:41.000Z</time>
      </trkpt>
      <trkpt lat="49.32269" lon="-0.53545">
        <ele>38.599998474121</ele>
        <time>2026-03-24T14:41:42.000Z</time>
      </trkpt>
      <trkpt lat="49.32268" lon="-0.53546">
        <ele>38.599998474121</ele>
        <time>2026-03-24T14:41:43.000Z</time>
      </trkpt>
      <trkpt lat="49.32267" lon="-0.53546">
        <ele>38.599998474121</ele>
        <time>2026-03-24T14:41:44.000Z</time>
      </trkpt>
      <trkpt lat="49.32266" lon="-0.53547">
        <ele>38.599998474121</ele>
        <time>2026-03-24T14:41:45.000Z</time>
      </trkpt>
      <trkpt lat="49.32265" lon="-0.53547">
        <ele>38.599998474121</ele>
        <time>2026-03-24T14:41:46.000Z</time>
      </trkpt>
      <trkpt lat="49.32264" lon="-0.53547">
        <ele>38.599998474121</ele>
        <time>2026-03-24T14:41:47.000Z</time>
      </trkpt>
      <trkpt lat="49.32263" lon="-0.53548">
        <ele>38.599998474121</ele>
        <time>2026-03-24T14:41:48.000Z</time>
      </trkpt>
      <trkpt lat="49.32262" lon="-0.53548">
        <ele>38.799999237061</ele>
        <time>2026-03-24T14:41:49.000Z</time>
      </trkpt>
      <trkpt lat="49.3226" lon="-0.53548">
        <ele>38.799999237061</ele>
        <time>2026-03-24T14:41:50.000Z</time>
      </trkpt>
      <trkpt lat="49.32259" lon="-0.53549">
        <ele>38.799999237061</ele>
        <time>2026-03-24T14:41:51.000Z</time>
      </trkpt>
      <trkpt lat="49.32258" lon="-0.53549">
        <ele>38.799999237061</ele>
        <time>2026-03-24T14:41:52.000Z</time>
      </trkpt>
      <trkpt lat="49.32257" lon="-0.53549">
        <ele>38.799999237061</ele>
        <time>2026-03-24T14:41:53.000Z</time>
      </trkpt>
      <trkpt lat="49.32256" lon="-0.53549">
        <ele>38.799999237061</ele>
        <time>2026-03-24T14:41:54.000Z</time>
      </trkpt>
      <trkpt lat="49.32255" lon="-0.53549">
        <ele>39</ele>
        <time>2026-03-24T14:41:55.000Z</time>
      </trkpt>
      <trkpt lat="49.32253" lon="-0.5355">
        <ele>39</ele>
        <time>2026-03-24T14:41:56.000Z</time>
      </trkpt>
      <trkpt lat="49.32252" lon="-0.5355">
        <ele>39</ele>
        <time>2026-03-24T14:41:57.000Z</time>
      </trkpt>
      <trkpt lat="49.32251" lon="-0.53551">
        <ele>39</ele>
        <time>2026-03-24T14:41:58.000Z</time>
      </trkpt>
      <trkpt lat="49.3225" lon="-0.53551">
        <ele>39</ele>
        <time>2026-03-24T14:41:59.000Z</time>
      </trkpt>
      <trkpt lat="49.32249" lon="-0.53552">
        <ele>39</ele>
        <time>2026-03-24T14:42:00.000Z</time>
      </trkpt>
      <trkpt lat="49.32248" lon="-0.53553">
        <ele>39</ele>
        <time>2026-03-24T14:42:01.000Z</time>
      </trkpt>
      <trkpt lat="49.32247" lon="-0.53554">
        <ele>39</ele>
        <time>2026-03-24T14:42:02.000Z</time>
      </trkpt>
      <trkpt lat="49.32246" lon="-0.53555">
        <ele>39</ele>
        <time>2026-03-24T14:42:03.000Z</time>
      </trkpt>
      <trkpt lat="49.32246" lon="-0.53556">
        <ele>39</ele>
        <time>2026-03-24T14:42:04.000Z</time>
      </trkpt>
      <trkpt lat="49.32245" lon="-0.53558">
        <ele>39</ele>
        <time>2026-03-24T14:42:05.000Z</time>
      </trkpt>
      <trkpt lat="49.32245" lon="-0.53559">
        <ele>39</ele>
        <time>2026-03-24T14:42:06.000Z</time>
      </trkpt>
      <trkpt lat="49.32245" lon="-0.5356">
        <ele>39</ele>
        <time>2026-03-24T14:42:07.000Z</time>
      </trkpt>
      <trkpt lat="49.32245" lon="-0.53561">
        <ele>39</ele>
        <time>2026-03-24T14:42:08.000Z</time>
      </trkpt>
      <trkpt lat="49.32245" lon="-0.53562">
        <ele>39</ele>
        <time>2026-03-24T14:42:09.000Z</time>
      </trkpt>
      <trkpt lat="49.32245" lon="-0.53563">
        <ele>39</ele>
        <time>2026-03-24T14:42:10.000Z</time>
      </trkpt>
      <trkpt lat="49.32245" lon="-0.53563">
        <ele>39</ele>
        <time>2026-03-24T14:42:11.000Z</time>
      </trkpt>
      <trkpt lat="49.32245" lon="-0.53563">
        <ele>39</ele>
        <time>2026-03-24T14:42:12.000Z</time>
      </trkpt>
      <trkpt lat="49.32246" lon="-0.53563">
        <ele>39</ele>
        <time>2026-03-24T14:42:13.000Z</time>
      </trkpt>
      <trkpt lat="49.32246" lon="-0.53562">
        <ele>39</ele>
        <time>2026-03-24T14:42:14.000Z</time>
      </trkpt>
      <trkpt lat="49.32245" lon="-0.53561">
        <ele>39</ele>
        <time>2026-03-24T14:42:15.000Z</time>
      </trkpt>
      <trkpt lat="49.32245" lon="-0.5356">
        <ele>39</ele>
        <time>2026-03-24T14:42:16.000Z</time>
      </trkpt>
      <trkpt lat="49.32245" lon="-0.53559">
        <ele>39</ele>
        <time>2026-03-24T14:42:17.000Z</time>
      </trkpt>
      <trkpt lat="49.32244" lon="-0.53559">
        <ele>39</ele>
        <time>2026-03-24T14:42:18.000Z</time>
      </trkpt>
      <trkpt lat="49.32243" lon="-0.53558">
        <ele>39</ele>
        <time>2026-03-24T14:42:19.000Z</time>
      </trkpt>
      <trkpt lat="49.32243" lon="-0.53558">
        <ele>39</ele>
        <time>2026-03-24T14:42:20.000Z</time>
      </trkpt>
      <trkpt lat="49.32242" lon="-0.53558">
        <ele>39</ele>
        <time>2026-03-24T14:42:21.000Z</time>
      </trkpt>
      <trkpt lat="49.32241" lon="-0.53558">
        <ele>39</ele>
        <time>2026-03-24T14:42:22.000Z</time>
      </trkpt>
      <trkpt lat="49.3224" lon="-0.53558">
        <ele>39</ele>
        <time>2026-03-24T14:42:23.000Z</time>
      </trkpt>
      <trkpt lat="49.32239" lon="-0.53558">
        <ele>39</ele>
        <time>2026-03-24T14:42:24.000Z</time>
      </trkpt>
      <trkpt lat="49.32238" lon="-0.53559">
        <ele>39</ele>
        <time>2026-03-24T14:42:25.000Z</time>
      </trkpt>
      <trkpt lat="49.32237" lon="-0.5356">
        <ele>39</ele>
        <time>2026-03-24T14:42:26.000Z</time>
      </trkpt>
      <trkpt lat="49.32236" lon="-0.5356">
        <ele>39</ele>
        <time>2026-03-24T14:42:27.000Z</time>
      </trkpt>
      <trkpt lat="49.32235" lon="-0.53561">
        <ele>39</ele>
        <time>2026-03-24T14:42:28.000Z</time>
      </trkpt>
      <trkpt lat="49.32235" lon="-0.53561">
        <ele>39</ele>
        <time>2026-03-24T14:42:29.000Z</time>
      </trkpt>
      <trkpt lat="49.32234" lon="-0.53562">
        <ele>39</ele>
        <time>2026-03-24T14:42:30.000Z</time>
      </trkpt>
      <trkpt lat="49.32233" lon="-0.53563">
        <ele>39</ele>
        <time>2026-03-24T14:42:31.000Z</time>
      </trkpt>
      <trkpt lat="49.32232" lon="-0.53563">
        <ele>39</ele>
        <time>2026-03-24T14:42:32.000Z</time>
      </trkpt>
      <trkpt lat="49.32231" lon="-0.53564">
        <ele>39</ele>
        <time>2026-03-24T14:42:33.000Z</time>
      </trkpt>
      <trkpt lat="49.3223" lon="-0.53565">
        <ele>39</ele>
        <time>2026-03-24T14:42:34.000Z</time>
      </trkpt>
      <trkpt lat="49.32229" lon="-0.53566">
        <ele>39</ele>
        <time>2026-03-24T14:42:35.000Z</time>
      </trkpt>
      <trkpt lat="49.32228" lon="-0.53566">
        <ele>39</ele>
        <time>2026-03-24T14:42:36.000Z</time>
      </trkpt>
      <trkpt lat="49.32227" lon="-0.53567">
        <ele>39</ele>
        <time>2026-03-24T14:42:37.000Z</time>
      </trkpt>
      <trkpt lat="49.32226" lon="-0.53568">
        <ele>39</ele>
        <time>2026-03-24T14:42:38.000Z</time>
      </trkpt>
      <trkpt lat="49.32225" lon="-0.53569">
        <ele>39</ele>
        <time>2026-03-24T14:42:39.000Z</time>
      </trkpt>
      <trkpt lat="49.32224" lon="-0.5357">
        <ele>39</ele>
        <time>2026-03-24T14:42:40.000Z</time>
      </trkpt>
      <trkpt lat="49.32223" lon="-0.53571">
        <ele>39</ele>
        <time>2026-03-24T14:42:41.000Z</time>
      </trkpt>
      <trkpt lat="49.32222" lon="-0.53572">
        <ele>39</ele>
        <time>2026-03-24T14:42:42.000Z</time>
      </trkpt>
      <trkpt lat="49.32221" lon="-0.53573">
        <ele>39</ele>
        <time>2026-03-24T14:42:43.000Z</time>
      </trkpt>
      <trkpt lat="49.3222" lon="-0.53574">
        <ele>39</ele>
        <time>2026-03-24T14:42:44.000Z</time>
      </trkpt>
      <trkpt lat="49.32219" lon="-0.53575">
        <ele>39</ele>
        <time>2026-03-24T14:42:45.000Z</time>
      </trkpt>
      <trkpt lat="49.32218" lon="-0.53576">
        <ele>39</ele>
        <time>2026-03-24T14:42:46.000Z</time>
      </trkpt>
      <trkpt lat="49.32217" lon="-0.53577">
        <ele>39</ele>
        <time>2026-03-24T14:42:47.000Z</time>
      </trkpt>
      <trkpt lat="49.32216" lon="-0.53578">
        <ele>39</ele>
        <time>2026-03-24T14:42:48.000Z</time>
      </trkpt>
      <trkpt lat="49.32215" lon="-0.53578">
        <ele>39</ele>
        <time>2026-03-24T14:42:49.000Z</time>
      </trkpt>
      <trkpt lat="49.32214" lon="-0.53579">
        <ele>39</ele>
        <time>2026-03-24T14:42:50.000Z</time>
      </trkpt>
      <trkpt lat="49.32213" lon="-0.5358">
        <ele>39</ele>
        <time>2026-03-24T14:42:51.000Z</time>
      </trkpt>
      <trkpt lat="49.32213" lon="-0.53581">
        <ele>39</ele>
        <time>2026-03-24T14:42:52.000Z</time>
      </trkpt>
      <trkpt lat="49.32212" lon="-0.53582">
        <ele>39</ele>
        <time>2026-03-24T14:42:53.000Z</time>
      </trkpt>
      <trkpt lat="49.32211" lon="-0.53582">
        <ele>39</ele>
        <time>2026-03-24T14:42:54.000Z</time>
      </trkpt>
      <trkpt lat="49.3221" lon="-0.53583">
        <ele>39</ele>
        <time>2026-03-24T14:42:55.000Z</time>
      </trkpt>
      <trkpt lat="49.32209" lon="-0.53584">
        <ele>39</ele>
        <time>2026-03-24T14:42:56.000Z</time>
      </trkpt>
      <trkpt lat="49.32209" lon="-0.53585">
        <ele>39</ele>
        <time>2026-03-24T14:42:57.000Z</time>
      </trkpt>
      <trkpt lat="49.32208" lon="-0.53586">
        <ele>39</ele>
        <time>2026-03-24T14:42:58.000Z</time>
      </trkpt>
      <trkpt lat="49.32207" lon="-0.53587">
        <ele>39</ele>
        <time>2026-03-24T14:42:59.000Z</time>
      </trkpt>
      <trkpt lat="49.32206" lon="-0.53588">
        <ele>39</ele>
        <time>2026-03-24T14:43:00.000Z</time>
      </trkpt>
      <trkpt lat="49.32205" lon="-0.53589">
        <ele>39</ele>
        <time>2026-03-24T14:43:01.000Z</time>
      </trkpt>
      <trkpt lat="49.32204" lon="-0.5359">
        <ele>39</ele>
        <time>2026-03-24T14:43:02.000Z</time>
      </trkpt>
      <trkpt lat="49.32203" lon="-0.53591">
        <ele>39</ele>
        <time>2026-03-24T14:43:03.000Z</time>
      </trkpt>
      <trkpt lat="49.32202" lon="-0.53592">
        <ele>39</ele>
        <time>2026-03-24T14:43:04.000Z</time>
      </trkpt>
      <trkpt lat="49.32201" lon="-0.53593">
        <ele>39</ele>
        <time>2026-03-24T14:43:05.000Z</time>
      </trkpt>
      <trkpt lat="49.322" lon="-0.53594">
        <ele>39</ele>
        <time>2026-03-24T14:43:06.000Z</time>
      </trkpt>
      <trkpt lat="49.32199" lon="-0.53595">
        <ele>39</ele>
        <time>2026-03-24T14:43:07.000Z</time>
      </trkpt>
      <trkpt lat="49.32198" lon="-0.53596">
        <ele>39</ele>
        <time>2026-03-24T14:43:08.000Z</time>
      </trkpt>
      <trkpt lat="49.32197" lon="-0.53597">
        <ele>39</ele>
        <time>2026-03-24T14:43:09.000Z</time>
      </trkpt>
      <trkpt lat="49.32196" lon="-0.53598">
        <ele>39</ele>
        <time>2026-03-24T14:43:10.000Z</time>
      </trkpt>
      <trkpt lat="49.32196" lon="-0.53599">
        <ele>39</ele>
        <time>2026-03-24T14:43:11.000Z</time>
      </trkpt>
      <trkpt lat="49.32195" lon="-0.536">
        <ele>39</ele>
        <time>2026-03-24T14:43:12.000Z</time>
      </trkpt>
      <trkpt lat="49.32194" lon="-0.53601">
        <ele>39</ele>
        <time>2026-03-24T14:43:13.000Z</time>
      </trkpt>
      <trkpt lat="49.32193" lon="-0.53602">
        <ele>39</ele>
        <time>2026-03-24T14:43:14.000Z</time>
      </trkpt>
      <trkpt lat="49.32192" lon="-0.53603">
        <ele>39</ele>
        <time>2026-03-24T14:43:15.000Z</time>
      </trkpt>
      <trkpt lat="49.32191" lon="-0.53604">
        <ele>39</ele>
        <time>2026-03-24T14:43:16.000Z</time>
      </trkpt>
      <trkpt lat="49.3219" lon="-0.53605">
        <ele>39</ele>
        <time>2026-03-24T14:43:17.000Z</time>
      </trkpt>
      <trkpt lat="49.3219" lon="-0.53606">
        <ele>39</ele>
        <time>2026-03-24T14:43:18.000Z</time>
      </trkpt>
      <trkpt lat="49.32189" lon="-0.53607">
        <ele>39</ele>
        <time>2026-03-24T14:43:19.000Z</time>
      </trkpt>
      <trkpt lat="49.32188" lon="-0.53608">
        <ele>39</ele>
        <time>2026-03-24T14:43:20.000Z</time>
      </trkpt>
      <trkpt lat="49.32188" lon="-0.53609">
        <ele>39</ele>
        <time>2026-03-24T14:43:21.000Z</time>
      </trkpt>
      <trkpt lat="49.32187" lon="-0.5361">
        <ele>39.200000762939</ele>
        <time>2026-03-24T14:43:22.000Z</time>
      </trkpt>
      <trkpt lat="49.32186" lon="-0.53612">
        <ele>39.200000762939</ele>
        <time>2026-03-24T14:43:23.000Z</time>
      </trkpt>
      <trkpt lat="49.32185" lon="-0.53613">
        <ele>39.200000762939</ele>
        <time>2026-03-24T14:43:24.000Z</time>
      </trkpt>
      <trkpt lat="49.32184" lon="-0.53614">
        <ele>39.200000762939</ele>
        <time>2026-03-24T14:43:25.000Z</time>
      </trkpt>
      <trkpt lat="49.32183" lon="-0.53615">
        <ele>39.200000762939</ele>
        <time>2026-03-24T14:43:26.000Z</time>
      </trkpt>
      <trkpt lat="49.32182" lon="-0.53616">
        <ele>39.200000762939</ele>
        <time>2026-03-24T14:43:27.000Z</time>
      </trkpt>
      <trkpt lat="49.3218" lon="-0.53617">
        <ele>39.400001525879</ele>
        <time>2026-03-24T14:43:28.000Z</time>
      </trkpt>
      <trkpt lat="49.32179" lon="-0.53618">
        <ele>39.400001525879</ele>
        <time>2026-03-24T14:43:29.000Z</time>
      </trkpt>
      <trkpt lat="49.32178" lon="-0.53619">
        <ele>39.400001525879</ele>
        <time>2026-03-24T14:43:30.000Z</time>
      </trkpt>
      <trkpt lat="49.32177" lon="-0.5362">
        <ele>39.400001525879</ele>
        <time>2026-03-24T14:43:31.000Z</time>
      </trkpt>
      <trkpt lat="49.32176" lon="-0.5362">
        <ele>39.400001525879</ele>
        <time>2026-03-24T14:43:32.000Z</time>
      </trkpt>
      <trkpt lat="49.32176" lon="-0.53621">
        <ele>39.400001525879</ele>
        <time>2026-03-24T14:43:33.000Z</time>
      </trkpt>
      <trkpt lat="49.32175" lon="-0.53622">
        <ele>39.599998474121</ele>
        <time>2026-03-24T14:43:34.000Z</time>
      </trkpt>
      <trkpt lat="49.32174" lon="-0.53623">
        <ele>39.599998474121</ele>
        <time>2026-03-24T14:43:35.000Z</time>
      </trkpt>
      <trkpt lat="49.32173" lon="-0.53624">
        <ele>39.599998474121</ele>
        <time>2026-03-24T14:43:36.000Z</time>
      </trkpt>
      <trkpt lat="49.32172" lon="-0.53625">
        <ele>39.599998474121</ele>
        <time>2026-03-24T14:43:37.000Z</time>
      </trkpt>
      <trkpt lat="49.32171" lon="-0.53626">
        <ele>39.599998474121</ele>
        <time>2026-03-24T14:43:38.000Z</time>
      </trkpt>
      <trkpt lat="49.3217" lon="-0.53627">
        <ele>39.599998474121</ele>
        <time>2026-03-24T14:43:39.000Z</time>
      </trkpt>
      <trkpt lat="49.32169" lon="-0.53628">
        <ele>39.799999237061</ele>
        <time>2026-03-24T14:43:40.000Z</time>
      </trkpt>
      <trkpt lat="49.32169" lon="-0.53628">
        <ele>39.799999237061</ele>
        <time>2026-03-24T14:43:41.000Z</time>
      </trkpt>
      <trkpt lat="49.32168" lon="-0.53629">
        <ele>39.799999237061</ele>
        <time>2026-03-24T14:43:42.000Z</time>
      </trkpt>
      <trkpt lat="49.32167" lon="-0.5363">
        <ele>39.799999237061</ele>
        <time>2026-03-24T14:43:43.000Z</time>
      </trkpt>
      <trkpt lat="49.32166" lon="-0.53631">
        <ele>39.799999237061</ele>
        <time>2026-03-24T14:43:44.000Z</time>
      </trkpt>
      <trkpt lat="49.32165" lon="-0.53632">
        <ele>39.799999237061</ele>
        <time>2026-03-24T14:43:45.000Z</time>
      </trkpt>
      <trkpt lat="49.32164" lon="-0.53633">
        <ele>40</ele>
        <time>2026-03-24T14:43:46.000Z</time>
      </trkpt>
      <trkpt lat="49.32163" lon="-0.53633">
        <ele>40</ele>
        <time>2026-03-24T14:43:47.000Z</time>
      </trkpt>
      <trkpt lat="49.32162" lon="-0.53634">
        <ele>40</ele>
        <time>2026-03-24T14:43:48.000Z</time>
      </trkpt>
      <trkpt lat="49.32162" lon="-0.53635">
        <ele>40</ele>
        <time>2026-03-24T14:43:49.000Z</time>
      </trkpt>
      <trkpt lat="49.32161" lon="-0.53637">
        <ele>40</ele>
        <time>2026-03-24T14:43:50.000Z</time>
      </trkpt>
      <trkpt lat="49.3216" lon="-0.53638">
        <ele>40</ele>
        <time>2026-03-24T14:43:51.000Z</time>
      </trkpt>
      <trkpt lat="49.32159" lon="-0.53639">
        <ele>40</ele>
        <time>2026-03-24T14:43:52.000Z</time>
      </trkpt>
      <trkpt lat="49.32158" lon="-0.5364">
        <ele>40.200000762939</ele>
        <time>2026-03-24T14:43:53.000Z</time>
      </trkpt>
      <trkpt lat="49.32158" lon="-0.53641">
        <ele>40.200000762939</ele>
        <time>2026-03-24T14:43:54.000Z</time>
      </trkpt>
      <trkpt lat="49.32157" lon="-0.53642">
        <ele>40.200000762939</ele>
        <time>2026-03-24T14:43:55.000Z</time>
      </trkpt>
      <trkpt lat="49.32156" lon="-0.53643">
        <ele>40.200000762939</ele>
        <time>2026-03-24T14:43:56.000Z</time>
      </trkpt>
      <trkpt lat="49.32155" lon="-0.53644">
        <ele>40.200000762939</ele>
        <time>2026-03-24T14:43:57.000Z</time>
      </trkpt>
      <trkpt lat="49.32154" lon="-0.53645">
        <ele>40.200000762939</ele>
        <time>2026-03-24T14:43:58.000Z</time>
      </trkpt>
      <trkpt lat="49.32153" lon="-0.53646">
        <ele>40.400001525879</ele>
        <time>2026-03-24T14:43:59.000Z</time>
      </trkpt>
      <trkpt lat="49.32152" lon="-0.53647">
        <ele>40.400001525879</ele>
        <time>2026-03-24T14:44:00.000Z</time>
      </trkpt>
      <trkpt lat="49.32152" lon="-0.53648">
        <ele>40.400001525879</ele>
        <time>2026-03-24T14:44:01.000Z</time>
      </trkpt>
      <trkpt lat="49.32151" lon="-0.53649">
        <ele>40.400001525879</ele>
        <time>2026-03-24T14:44:02.000Z</time>
      </trkpt>
      <trkpt lat="49.3215" lon="-0.5365">
        <ele>40.400001525879</ele>
        <time>2026-03-24T14:44:03.000Z</time>
      </trkpt>
      <trkpt lat="49.32149" lon="-0.53651">
        <ele>40.400001525879</ele>
        <time>2026-03-24T14:44:04.000Z</time>
      </trkpt>
      <trkpt lat="49.32148" lon="-0.53652">
        <ele>40.400001525879</ele>
        <time>2026-03-24T14:44:05.000Z</time>
      </trkpt>
      <trkpt lat="49.32147" lon="-0.53653">
        <ele>40.599998474121</ele>
        <time>2026-03-24T14:44:06.000Z</time>
      </trkpt>
      <trkpt lat="49.32146" lon="-0.53654">
        <ele>40.599998474121</ele>
        <time>2026-03-24T14:44:07.000Z</time>
      </trkpt>
      <trkpt lat="49.32145" lon="-0.53655">
        <ele>40.599998474121</ele>
        <time>2026-03-24T14:44:08.000Z</time>
      </trkpt>
      <trkpt lat="49.32144" lon="-0.53656">
        <ele>40.599998474121</ele>
        <time>2026-03-24T14:44:09.000Z</time>
      </trkpt>
      <trkpt lat="49.32143" lon="-0.53657">
        <ele>40.599998474121</ele>
        <time>2026-03-24T14:44:10.000Z</time>
      </trkpt>
      <trkpt lat="49.32142" lon="-0.53659">
        <ele>40.799999237061</ele>
        <time>2026-03-24T14:44:11.000Z</time>
      </trkpt>
      <trkpt lat="49.32141" lon="-0.53659">
        <ele>40.799999237061</ele>
        <time>2026-03-24T14:44:12.000Z</time>
      </trkpt>
      <trkpt lat="49.3214" lon="-0.5366">
        <ele>40.799999237061</ele>
        <time>2026-03-24T14:44:13.000Z</time>
      </trkpt>
      <trkpt lat="49.32139" lon="-0.53661">
        <ele>40.799999237061</ele>
        <time>2026-03-24T14:44:14.000Z</time>
      </trkpt>
      <trkpt lat="49.32138" lon="-0.53662">
        <ele>40.799999237061</ele>
        <time>2026-03-24T14:44:15.000Z</time>
      </trkpt>
      <trkpt lat="49.32137" lon="-0.53663">
        <ele>40.799999237061</ele>
        <time>2026-03-24T14:44:16.000Z</time>
      </trkpt>
      <trkpt lat="49.32136" lon="-0.53664">
        <ele>41</ele>
        <time>2026-03-24T14:44:17.000Z</time>
      </trkpt>
      <trkpt lat="49.32136" lon="-0.53665">
        <ele>41</ele>
        <time>2026-03-24T14:44:18.000Z</time>
      </trkpt>
      <trkpt lat="49.32135" lon="-0.53667">
        <ele>41</ele>
        <time>2026-03-24T14:44:19.000Z</time>
      </trkpt>
      <trkpt lat="49.32134" lon="-0.53668">
        <ele>41</ele>
        <time>2026-03-24T14:44:20.000Z</time>
      </trkpt>
      <trkpt lat="49.32133" lon="-0.53669">
        <ele>41</ele>
        <time>2026-03-24T14:44:21.000Z</time>
      </trkpt>
      <trkpt lat="49.32132" lon="-0.5367">
        <ele>41.200000762939</ele>
        <time>2026-03-24T14:44:22.000Z</time>
      </trkpt>
      <trkpt lat="49.32131" lon="-0.53671">
        <ele>41.200000762939</ele>
        <time>2026-03-24T14:44:23.000Z</time>
      </trkpt>
      <trkpt lat="49.3213" lon="-0.53672">
        <ele>41.200000762939</ele>
        <time>2026-03-24T14:44:24.000Z</time>
      </trkpt>
      <trkpt lat="49.3213" lon="-0.53673">
        <ele>41.400001525879</ele>
        <time>2026-03-24T14:44:25.000Z</time>
      </trkpt>
      <trkpt lat="49.32129" lon="-0.53674">
        <ele>41.400001525879</ele>
        <time>2026-03-24T14:44:26.000Z</time>
      </trkpt>
      <trkpt lat="49.32128" lon="-0.53676">
        <ele>41.400001525879</ele>
        <time>2026-03-24T14:44:27.000Z</time>
      </trkpt>
      <trkpt lat="49.32128" lon="-0.53677">
        <ele>41.599998474121</ele>
        <time>2026-03-24T14:44:28.000Z</time>
      </trkpt>
      <trkpt lat="49.32127" lon="-0.53678">
        <ele>41.599998474121</ele>
        <time>2026-03-24T14:44:29.000Z</time>
      </trkpt>
      <trkpt lat="49.32126" lon="-0.53679">
        <ele>41.799999237061</ele>
        <time>2026-03-24T14:44:30.000Z</time>
      </trkpt>
      <trkpt lat="49.32125" lon="-0.5368">
        <ele>41.799999237061</ele>
        <time>2026-03-24T14:44:31.000Z</time>
      </trkpt>
      <trkpt lat="49.32124" lon="-0.53681">
        <ele>41.799999237061</ele>
        <time>2026-03-24T14:44:32.000Z</time>
      </trkpt>
      <trkpt lat="49.32123" lon="-0.53682">
        <ele>42</ele>
        <time>2026-03-24T14:44:33.000Z</time>
      </trkpt>
      <trkpt lat="49.32122" lon="-0.53683">
        <ele>42</ele>
        <time>2026-03-24T14:44:34.000Z</time>
      </trkpt>
      <trkpt lat="49.32122" lon="-0.53684">
        <ele>42</ele>
        <time>2026-03-24T14:44:35.000Z</time>
      </trkpt>
      <trkpt lat="49.3212" lon="-0.53685">
        <ele>42.200000762939</ele>
        <time>2026-03-24T14:44:36.000Z</time>
      </trkpt>
      <trkpt lat="49.3212" lon="-0.53686">
        <ele>42.200000762939</ele>
        <time>2026-03-24T14:44:37.000Z</time>
      </trkpt>
      <trkpt lat="49.32119" lon="-0.53687">
        <ele>42.200000762939</ele>
        <time>2026-03-24T14:44:38.000Z</time>
      </trkpt>
      <trkpt lat="49.32118" lon="-0.53688">
        <ele>42.400001525879</ele>
        <time>2026-03-24T14:44:39.000Z</time>
      </trkpt>
      <trkpt lat="49.32117" lon="-0.53689">
        <ele>42.400001525879</ele>
        <time>2026-03-24T14:44:40.000Z</time>
      </trkpt>
      <trkpt lat="49.32116" lon="-0.5369">
        <ele>42.400001525879</ele>
        <time>2026-03-24T14:44:41.000Z</time>
      </trkpt>
      <trkpt lat="49.32116" lon="-0.53691">
        <ele>42.599998474121</ele>
        <time>2026-03-24T14:44:42.000Z</time>
      </trkpt>
      <trkpt lat="49.32115" lon="-0.53692">
        <ele>42.599998474121</ele>
        <time>2026-03-24T14:44:43.000Z</time>
      </trkpt>
      <trkpt lat="49.32114" lon="-0.53694">
        <ele>42.599998474121</ele>
        <time>2026-03-24T14:44:44.000Z</time>
      </trkpt>
      <trkpt lat="49.32113" lon="-0.53695">
        <ele>42.799999237061</ele>
        <time>2026-03-24T14:44:45.000Z</time>
      </trkpt>
      <trkpt lat="49.32113" lon="-0.53696">
        <ele>42.799999237061</ele>
        <time>2026-03-24T14:44:46.000Z</time>
      </trkpt>
      <trkpt lat="49.32112" lon="-0.53698">
        <ele>42.799999237061</ele>
        <time>2026-03-24T14:44:47.000Z</time>
      </trkpt>
      <trkpt lat="49.32111" lon="-0.53699">
        <ele>42.799999237061</ele>
        <time>2026-03-24T14:44:48.000Z</time>
      </trkpt>
      <trkpt lat="49.3211" lon="-0.53701">
        <ele>42.799999237061</ele>
        <time>2026-03-24T14:44:49.000Z</time>
      </trkpt>
      <trkpt lat="49.3211" lon="-0.53702">
        <ele>42.799999237061</ele>
        <time>2026-03-24T14:44:50.000Z</time>
      </trkpt>
      <trkpt lat="49.32109" lon="-0.53703">
        <ele>42.799999237061</ele>
        <time>2026-03-24T14:44:51.000Z</time>
      </trkpt>
      <trkpt lat="49.32108" lon="-0.53705">
        <ele>43</ele>
        <time>2026-03-24T14:44:52.000Z</time>
      </trkpt>
      <trkpt lat="49.32108" lon="-0.53706">
        <ele>43</ele>
        <time>2026-03-24T14:44:53.000Z</time>
      </trkpt>
      <trkpt lat="49.32107" lon="-0.53707">
        <ele>43</ele>
        <time>2026-03-24T14:44:54.000Z</time>
      </trkpt>
      <trkpt lat="49.32106" lon="-0.53709">
        <ele>43</ele>
        <time>2026-03-24T14:44:55.000Z</time>
      </trkpt>
      <trkpt lat="49.32106" lon="-0.5371">
        <ele>43</ele>
        <time>2026-03-24T14:44:56.000Z</time>
      </trkpt>
      <trkpt lat="49.32105" lon="-0.53711">
        <ele>43</ele>
        <time>2026-03-24T14:44:57.000Z</time>
      </trkpt>
      <trkpt lat="49.32104" lon="-0.53712">
        <ele>43</ele>
        <time>2026-03-24T14:44:58.000Z</time>
      </trkpt>
      <trkpt lat="49.32104" lon="-0.53713">
        <ele>43</ele>
        <time>2026-03-24T14:44:59.000Z</time>
      </trkpt>
      <trkpt lat="49.32103" lon="-0.53715">
        <ele>43.200000762939</ele>
        <time>2026-03-24T14:45:00.000Z</time>
      </trkpt>
      <trkpt lat="49.32102" lon="-0.53715">
        <ele>43.200000762939</ele>
        <time>2026-03-24T14:45:01.000Z</time>
      </trkpt>
      <trkpt lat="49.32101" lon="-0.53716">
        <ele>43.200000762939</ele>
        <time>2026-03-24T14:45:02.000Z</time>
      </trkpt>
      <trkpt lat="49.321" lon="-0.53717">
        <ele>43.200000762939</ele>
        <time>2026-03-24T14:45:03.000Z</time>
      </trkpt>
      <trkpt lat="49.321" lon="-0.53718">
        <ele>43.200000762939</ele>
        <time>2026-03-24T14:45:04.000Z</time>
      </trkpt>
      <trkpt lat="49.32099" lon="-0.53719">
        <ele>43.200000762939</ele>
        <time>2026-03-24T14:45:05.000Z</time>
      </trkpt>
      <trkpt lat="49.32098" lon="-0.5372">
        <ele>43.400001525879</ele>
        <time>2026-03-24T14:45:06.000Z</time>
      </trkpt>
      <trkpt lat="49.32097" lon="-0.53721">
        <ele>43.400001525879</ele>
        <time>2026-03-24T14:45:07.000Z</time>
      </trkpt>
      <trkpt lat="49.32096" lon="-0.53722">
        <ele>43.400001525879</ele>
        <time>2026-03-24T14:45:08.000Z</time>
      </trkpt>
      <trkpt lat="49.32095" lon="-0.53723">
        <ele>43.400001525879</ele>
        <time>2026-03-24T14:45:09.000Z</time>
      </trkpt>
      <trkpt lat="49.32095" lon="-0.53724">
        <ele>43.400001525879</ele>
        <time>2026-03-24T14:45:10.000Z</time>
      </trkpt>
      <trkpt lat="49.32094" lon="-0.53725">
        <ele>43.400001525879</ele>
        <time>2026-03-24T14:45:11.000Z</time>
      </trkpt>
      <trkpt lat="49.32093" lon="-0.53726">
        <ele>43.400001525879</ele>
        <time>2026-03-24T14:45:12.000Z</time>
      </trkpt>
      <trkpt lat="49.32092" lon="-0.53728">
        <ele>43.400001525879</ele>
        <time>2026-03-24T14:45:13.000Z</time>
      </trkpt>
      <trkpt lat="49.32091" lon="-0.53729">
        <ele>43.400001525879</ele>
        <time>2026-03-24T14:45:14.000Z</time>
      </trkpt>
      <trkpt lat="49.3209" lon="-0.5373">
        <ele>43.400001525879</ele>
        <time>2026-03-24T14:45:15.000Z</time>
      </trkpt>
      <trkpt lat="49.32089" lon="-0.53731">
        <ele>43.400001525879</ele>
        <time>2026-03-24T14:45:16.000Z</time>
      </trkpt>
      <trkpt lat="49.32088" lon="-0.53732">
        <ele>43.400001525879</ele>
        <time>2026-03-24T14:45:17.000Z</time>
      </trkpt>
      <trkpt lat="49.32087" lon="-0.53733">
        <ele>43.400001525879</ele>
        <time>2026-03-24T14:45:18.000Z</time>
      </trkpt>
      <trkpt lat="49.32086" lon="-0.53734">
        <ele>43.400001525879</ele>
        <time>2026-03-24T14:45:19.000Z</time>
      </trkpt>
      <trkpt lat="49.32086" lon="-0.53735">
        <ele>43.400001525879</ele>
        <time>2026-03-24T14:45:20.000Z</time>
      </trkpt>
      <trkpt lat="49.32085" lon="-0.53736">
        <ele>43.200000762939</ele>
        <time>2026-03-24T14:45:21.000Z</time>
      </trkpt>
      <trkpt lat="49.32084" lon="-0.53737">
        <ele>43.200000762939</ele>
        <time>2026-03-24T14:45:22.000Z</time>
      </trkpt>
      <trkpt lat="49.32083" lon="-0.53738">
        <ele>43.400001525879</ele>
        <time>2026-03-24T14:45:23.000Z</time>
      </trkpt>
      <trkpt lat="49.32082" lon="-0.53739">
        <ele>43.400001525879</ele>
        <time>2026-03-24T14:45:24.000Z</time>
      </trkpt>
      <trkpt lat="49.32081" lon="-0.5374">
        <ele>43.400001525879</ele>
        <time>2026-03-24T14:45:25.000Z</time>
      </trkpt>
      <trkpt lat="49.3208" lon="-0.53741">
        <ele>43.200000762939</ele>
        <time>2026-03-24T14:45:26.000Z</time>
      </trkpt>
      <trkpt lat="49.32079" lon="-0.53742">
        <ele>43.200000762939</ele>
        <time>2026-03-24T14:45:27.000Z</time>
      </trkpt>
      <trkpt lat="49.32079" lon="-0.53743">
        <ele>43.200000762939</ele>
        <time>2026-03-24T14:45:28.000Z</time>
      </trkpt>
      <trkpt lat="49.32078" lon="-0.53744">
        <ele>43.200000762939</ele>
        <time>2026-03-24T14:45:29.000Z</time>
      </trkpt>
      <trkpt lat="49.32077" lon="-0.53745">
        <ele>43.200000762939</ele>
        <time>2026-03-24T14:45:30.000Z</time>
      </trkpt>
      <trkpt lat="49.32076" lon="-0.53746">
        <ele>43.200000762939</ele>
        <time>2026-03-24T14:45:31.000Z</time>
      </trkpt>
      <trkpt lat="49.32076" lon="-0.53747">
        <ele>43.200000762939</ele>
        <time>2026-03-24T14:45:32.000Z</time>
      </trkpt>
      <trkpt lat="49.32075" lon="-0.53748">
        <ele>43.200000762939</ele>
        <time>2026-03-24T14:45:33.000Z</time>
      </trkpt>
      <trkpt lat="49.32074" lon="-0.5375">
        <ele>43.200000762939</ele>
        <time>2026-03-24T14:45:34.000Z</time>
      </trkpt>
      <trkpt lat="49.32073" lon="-0.53751">
        <ele>43.200000762939</ele>
        <time>2026-03-24T14:45:35.000Z</time>
      </trkpt>
      <trkpt lat="49.32072" lon="-0.53752">
        <ele>43.200000762939</ele>
        <time>2026-03-24T14:45:36.000Z</time>
      </trkpt>
      <trkpt lat="49.32071" lon="-0.53753">
        <ele>43.200000762939</ele>
        <time>2026-03-24T14:45:37.000Z</time>
      </trkpt>
      <trkpt lat="49.32071" lon="-0.53754">
        <ele>43.200000762939</ele>
        <time>2026-03-24T14:45:38.000Z</time>
      </trkpt>
      <trkpt lat="49.3207" lon="-0.53755">
        <ele>43.400001525879</ele>
        <time>2026-03-24T14:45:39.000Z</time>
      </trkpt>
      <trkpt lat="49.32069" lon="-0.53755">
        <ele>43.400001525879</ele>
        <time>2026-03-24T14:45:40.000Z</time>
      </trkpt>
      <trkpt lat="49.32068" lon="-0.53756">
        <ele>43.400001525879</ele>
        <time>2026-03-24T14:45:41.000Z</time>
      </trkpt>
      <trkpt lat="49.32067" lon="-0.53757">
        <ele>43.400001525879</ele>
        <time>2026-03-24T14:45:42.000Z</time>
      </trkpt>
      <trkpt lat="49.32066" lon="-0.53758">
        <ele>43.400001525879</ele>
        <time>2026-03-24T14:45:43.000Z</time>
      </trkpt>
      <trkpt lat="49.32066" lon="-0.53759">
        <ele>43.400001525879</ele>
        <time>2026-03-24T14:45:44.000Z</time>
      </trkpt>
      <trkpt lat="49.32065" lon="-0.5376">
        <ele>43.400001525879</ele>
        <time>2026-03-24T14:45:45.000Z</time>
      </trkpt>
      <trkpt lat="49.32065" lon="-0.53761">
        <ele>43.400001525879</ele>
        <time>2026-03-24T14:45:46.000Z</time>
      </trkpt>
      <trkpt lat="49.32064" lon="-0.53762">
        <ele>43.599998474121</ele>
        <time>2026-03-24T14:45:47.000Z</time>
      </trkpt>
      <trkpt lat="49.32063" lon="-0.53763">
        <ele>43.599998474121</ele>
        <time>2026-03-24T14:45:48.000Z</time>
      </trkpt>
      <trkpt lat="49.32062" lon="-0.53764">
        <ele>43.599998474121</ele>
        <time>2026-03-24T14:45:49.000Z</time>
      </trkpt>
      <trkpt lat="49.32061" lon="-0.53765">
        <ele>43.599998474121</ele>
        <time>2026-03-24T14:45:50.000Z</time>
      </trkpt>
      <trkpt lat="49.3206" lon="-0.53766">
        <ele>43.599998474121</ele>
        <time>2026-03-24T14:45:51.000Z</time>
      </trkpt>
      <trkpt lat="49.32059" lon="-0.53767">
        <ele>43.599998474121</ele>
        <time>2026-03-24T14:45:52.000Z</time>
      </trkpt>
      <trkpt lat="49.32058" lon="-0.53768">
        <ele>43.799999237061</ele>
        <time>2026-03-24T14:45:53.000Z</time>
      </trkpt>
      <trkpt lat="49.32058" lon="-0.53769">
        <ele>43.799999237061</ele>
        <time>2026-03-24T14:45:54.000Z</time>
      </trkpt>
      <trkpt lat="49.32057" lon="-0.53771">
        <ele>43.799999237061</ele>
        <time>2026-03-24T14:45:55.000Z</time>
      </trkpt>
      <trkpt lat="49.32056" lon="-0.53772">
        <ele>43.799999237061</ele>
        <time>2026-03-24T14:45:56.000Z</time>
      </trkpt>
      <trkpt lat="49.32055" lon="-0.53773">
        <ele>43.799999237061</ele>
        <time>2026-03-24T14:45:57.000Z</time>
      </trkpt>
      <trkpt lat="49.32054" lon="-0.53774">
        <ele>43.799999237061</ele>
        <time>2026-03-24T14:45:58.000Z</time>
      </trkpt>
      <trkpt lat="49.32054" lon="-0.53775">
        <ele>43.799999237061</ele>
        <time>2026-03-24T14:45:59.000Z</time>
      </trkpt>
      <trkpt lat="49.32053" lon="-0.53776">
        <ele>44</ele>
        <time>2026-03-24T14:46:00.000Z</time>
      </trkpt>
      <trkpt lat="49.32052" lon="-0.53778">
        <ele>44</ele>
        <time>2026-03-24T14:46:01.000Z</time>
      </trkpt>
      <trkpt lat="49.32051" lon="-0.53779">
        <ele>44</ele>
        <time>2026-03-24T14:46:02.000Z</time>
      </trkpt>
      <trkpt lat="49.32051" lon="-0.5378">
        <ele>44</ele>
        <time>2026-03-24T14:46:03.000Z</time>
      </trkpt>
      <trkpt lat="49.3205" lon="-0.53781">
        <ele>44</ele>
        <time>2026-03-24T14:46:04.000Z</time>
      </trkpt>
      <trkpt lat="49.32049" lon="-0.53782">
        <ele>44</ele>
        <time>2026-03-24T14:46:05.000Z</time>
      </trkpt>
      <trkpt lat="49.32048" lon="-0.53784">
        <ele>44</ele>
        <time>2026-03-24T14:46:06.000Z</time>
      </trkpt>
      <trkpt lat="49.32047" lon="-0.53785">
        <ele>44</ele>
        <time>2026-03-24T14:46:07.000Z</time>
      </trkpt>
      <trkpt lat="49.32046" lon="-0.53786">
        <ele>44</ele>
        <time>2026-03-24T14:46:08.000Z</time>
      </trkpt>
      <trkpt lat="49.32046" lon="-0.53787">
        <ele>43.799999237061</ele>
        <time>2026-03-24T14:46:09.000Z</time>
      </trkpt>
      <trkpt lat="49.32045" lon="-0.53788">
        <ele>43.799999237061</ele>
        <time>2026-03-24T14:46:10.000Z</time>
      </trkpt>
      <trkpt lat="49.32044" lon="-0.53789">
        <ele>43.799999237061</ele>
        <time>2026-03-24T14:46:11.000Z</time>
      </trkpt>
      <trkpt lat="49.32043" lon="-0.5379">
        <ele>43.799999237061</ele>
        <time>2026-03-24T14:46:12.000Z</time>
      </trkpt>
      <trkpt lat="49.32042" lon="-0.53791">
        <ele>43.799999237061</ele>
        <time>2026-03-24T14:46:13.000Z</time>
      </trkpt>
      <trkpt lat="49.32041" lon="-0.53792">
        <ele>43.799999237061</ele>
        <time>2026-03-24T14:46:14.000Z</time>
      </trkpt>
      <trkpt lat="49.3204" lon="-0.53793">
        <ele>43.799999237061</ele>
        <time>2026-03-24T14:46:15.000Z</time>
      </trkpt>
      <trkpt lat="49.32039" lon="-0.53794">
        <ele>43.799999237061</ele>
        <time>2026-03-24T14:46:16.000Z</time>
      </trkpt>
      <trkpt lat="49.32038" lon="-0.53795">
        <ele>43.799999237061</ele>
        <time>2026-03-24T14:46:17.000Z</time>
      </trkpt>
      <trkpt lat="49.32038" lon="-0.53796">
        <ele>43.799999237061</ele>
        <time>2026-03-24T14:46:18.000Z</time>
      </trkpt>
      <trkpt lat="49.32037" lon="-0.53797">
        <ele>43.799999237061</ele>
        <time>2026-03-24T14:46:19.000Z</time>
      </trkpt>
      <trkpt lat="49.32036" lon="-0.53798">
        <ele>43.799999237061</ele>
        <time>2026-03-24T14:46:20.000Z</time>
      </trkpt>
      <trkpt lat="49.32035" lon="-0.53799">
        <ele>43.799999237061</ele>
        <time>2026-03-24T14:46:21.000Z</time>
      </trkpt>
      <trkpt lat="49.32034" lon="-0.53801">
        <ele>43.799999237061</ele>
        <time>2026-03-24T14:46:22.000Z</time>
      </trkpt>
      <trkpt lat="49.32033" lon="-0.53802">
        <ele>43.799999237061</ele>
        <time>2026-03-24T14:46:23.000Z</time>
      </trkpt>
      <trkpt lat="49.32032" lon="-0.53803">
        <ele>43.799999237061</ele>
        <time>2026-03-24T14:46:24.000Z</time>
      </trkpt>
      <trkpt lat="49.32032" lon="-0.53804">
        <ele>43.799999237061</ele>
        <time>2026-03-24T14:46:25.000Z</time>
      </trkpt>
      <trkpt lat="49.32031" lon="-0.53805">
        <ele>43.799999237061</ele>
        <time>2026-03-24T14:46:26.000Z</time>
      </trkpt>
      <trkpt lat="49.3203" lon="-0.53806">
        <ele>43.799999237061</ele>
        <time>2026-03-24T14:46:27.000Z</time>
      </trkpt>
      <trkpt lat="49.32029" lon="-0.53807">
        <ele>43.799999237061</ele>
        <time>2026-03-24T14:46:28.000Z</time>
      </trkpt>
      <trkpt lat="49.32029" lon="-0.53808">
        <ele>43.799999237061</ele>
        <time>2026-03-24T14:46:29.000Z</time>
      </trkpt>
      <trkpt lat="49.32028" lon="-0.53809">
        <ele>43.799999237061</ele>
        <time>2026-03-24T14:46:30.000Z</time>
      </trkpt>
      <trkpt lat="49.32027" lon="-0.53811">
        <ele>43.599998474121</ele>
        <time>2026-03-24T14:46:31.000Z</time>
      </trkpt>
      <trkpt lat="49.32027" lon="-0.53812">
        <ele>43.599998474121</ele>
        <time>2026-03-24T14:46:32.000Z</time>
      </trkpt>
      <trkpt lat="49.32026" lon="-0.53813">
        <ele>43.599998474121</ele>
        <time>2026-03-24T14:46:33.000Z</time>
      </trkpt>
      <trkpt lat="49.32025" lon="-0.53814">
        <ele>43.599998474121</ele>
        <time>2026-03-24T14:46:34.000Z</time>
      </trkpt>
      <trkpt lat="49.32025" lon="-0.53815">
        <ele>43.599998474121</ele>
        <time>2026-03-24T14:46:35.000Z</time>
      </trkpt>
      <trkpt lat="49.32024" lon="-0.53816">
        <ele>43.599998474121</ele>
        <time>2026-03-24T14:46:36.000Z</time>
      </trkpt>
      <trkpt lat="49.32024" lon="-0.53817">
        <ele>43.599998474121</ele>
        <time>2026-03-24T14:46:37.000Z</time>
      </trkpt>
      <trkpt lat="49.32023" lon="-0.53818">
        <ele>43.599998474121</ele>
        <time>2026-03-24T14:46:38.000Z</time>
      </trkpt>
      <trkpt lat="49.32023" lon="-0.53819">
        <ele>43.599998474121</ele>
        <time>2026-03-24T14:46:39.000Z</time>
      </trkpt>
      <trkpt lat="49.32022" lon="-0.5382">
        <ele>43.599998474121</ele>
        <time>2026-03-24T14:46:40.000Z</time>
      </trkpt>
      <trkpt lat="49.32021" lon="-0.53822">
        <ele>43.599998474121</ele>
        <time>2026-03-24T14:46:41.000Z</time>
      </trkpt>
      <trkpt lat="49.32021" lon="-0.53823">
        <ele>43.400001525879</ele>
        <time>2026-03-24T14:46:42.000Z</time>
      </trkpt>
      <trkpt lat="49.3202" lon="-0.53825">
        <ele>43.400001525879</ele>
        <time>2026-03-24T14:46:43.000Z</time>
      </trkpt>
      <trkpt lat="49.32019" lon="-0.53826">
        <ele>43.400001525879</ele>
        <time>2026-03-24T14:46:44.000Z</time>
      </trkpt>
      <trkpt lat="49.32018" lon="-0.53827">
        <ele>43.400001525879</ele>
        <time>2026-03-24T14:46:45.000Z</time>
      </trkpt>
      <trkpt lat="49.32017" lon="-0.53828">
        <ele>43.400001525879</ele>
        <time>2026-03-24T14:46:46.000Z</time>
      </trkpt>
      <trkpt lat="49.32016" lon="-0.53829">
        <ele>43.400001525879</ele>
        <time>2026-03-24T14:46:47.000Z</time>
      </trkpt>
      <trkpt lat="49.32015" lon="-0.5383">
        <ele>43.400001525879</ele>
        <time>2026-03-24T14:46:48.000Z</time>
      </trkpt>
      <trkpt lat="49.32014" lon="-0.53831">
        <ele>43.400001525879</ele>
        <time>2026-03-24T14:46:49.000Z</time>
      </trkpt>
      <trkpt lat="49.32014" lon="-0.53832">
        <ele>43.400001525879</ele>
        <time>2026-03-24T14:46:50.000Z</time>
      </trkpt>
      <trkpt lat="49.32013" lon="-0.53833">
        <ele>43.400001525879</ele>
        <time>2026-03-24T14:46:51.000Z</time>
      </trkpt>
      <trkpt lat="49.32012" lon="-0.53834">
        <ele>43.400001525879</ele>
        <time>2026-03-24T14:46:52.000Z</time>
      </trkpt>
      <trkpt lat="49.32011" lon="-0.53836">
        <ele>43.400001525879</ele>
        <time>2026-03-24T14:46:53.000Z</time>
      </trkpt>
      <trkpt lat="49.3201" lon="-0.53837">
        <ele>43.400001525879</ele>
        <time>2026-03-24T14:46:54.000Z</time>
      </trkpt>
      <trkpt lat="49.3201" lon="-0.53838">
        <ele>43.400001525879</ele>
        <time>2026-03-24T14:46:55.000Z</time>
      </trkpt>
      <trkpt lat="49.32009" lon="-0.53839">
        <ele>43.400001525879</ele>
        <time>2026-03-24T14:46:56.000Z</time>
      </trkpt>
      <trkpt lat="49.32008" lon="-0.5384">
        <ele>43.599998474121</ele>
        <time>2026-03-24T14:46:57.000Z</time>
      </trkpt>
      <trkpt lat="49.32008" lon="-0.53841">
        <ele>43.599998474121</ele>
        <time>2026-03-24T14:46:58.000Z</time>
      </trkpt>
      <trkpt lat="49.32007" lon="-0.53842">
        <ele>43.599998474121</ele>
        <time>2026-03-24T14:46:59.000Z</time>
      </trkpt>
      <trkpt lat="49.32006" lon="-0.53843">
        <ele>43.599998474121</ele>
        <time>2026-03-24T14:47:00.000Z</time>
      </trkpt>
      <trkpt lat="49.32005" lon="-0.53845">
        <ele>43.599998474121</ele>
        <time>2026-03-24T14:47:01.000Z</time>
      </trkpt>
      <trkpt lat="49.32004" lon="-0.53846">
        <ele>43.599998474121</ele>
        <time>2026-03-24T14:47:02.000Z</time>
      </trkpt>
      <trkpt lat="49.32004" lon="-0.53847">
        <ele>43.599998474121</ele>
        <time>2026-03-24T14:47:03.000Z</time>
      </trkpt>
      <trkpt lat="49.32003" lon="-0.53848">
        <ele>43.799999237061</ele>
        <time>2026-03-24T14:47:04.000Z</time>
      </trkpt>
      <trkpt lat="49.32002" lon="-0.5385">
        <ele>43.799999237061</ele>
        <time>2026-03-24T14:47:05.000Z</time>
      </trkpt>
      <trkpt lat="49.32001" lon="-0.53851">
        <ele>43.799999237061</ele>
        <time>2026-03-24T14:47:06.000Z</time>
      </trkpt>
      <trkpt lat="49.32" lon="-0.53852">
        <ele>43.799999237061</ele>
        <time>2026-03-24T14:47:07.000Z</time>
      </trkpt>
      <trkpt lat="49.31999" lon="-0.53854">
        <ele>43.799999237061</ele>
        <time>2026-03-24T14:47:08.000Z</time>
      </trkpt>
      <trkpt lat="49.31999" lon="-0.53855">
        <ele>43.799999237061</ele>
        <time>2026-03-24T14:47:09.000Z</time>
      </trkpt>
      <trkpt lat="49.31998" lon="-0.53856">
        <ele>44</ele>
        <time>2026-03-24T14:47:10.000Z</time>
      </trkpt>
      <trkpt lat="49.31997" lon="-0.53858">
        <ele>44</ele>
        <time>2026-03-24T14:47:11.000Z</time>
      </trkpt>
      <trkpt lat="49.31996" lon="-0.53859">
        <ele>44</ele>
        <time>2026-03-24T14:47:12.000Z</time>
      </trkpt>
      <trkpt lat="49.31995" lon="-0.5386">
        <ele>44</ele>
        <time>2026-03-24T14:47:13.000Z</time>
      </trkpt>
      <trkpt lat="49.31995" lon="-0.53861">
        <ele>44</ele>
        <time>2026-03-24T14:47:14.000Z</time>
      </trkpt>
      <trkpt lat="49.31994" lon="-0.53862">
        <ele>44</ele>
        <time>2026-03-24T14:47:15.000Z</time>
      </trkpt>
      <trkpt lat="49.31993" lon="-0.53863">
        <ele>44</ele>
        <time>2026-03-24T14:47:16.000Z</time>
      </trkpt>
      <trkpt lat="49.31993" lon="-0.53863">
        <ele>44</ele>
        <time>2026-03-24T14:47:17.000Z</time>
      </trkpt>
      <trkpt lat="49.31992" lon="-0.53864">
        <ele>44</ele>
        <time>2026-03-24T14:47:18.000Z</time>
      </trkpt>
      <trkpt lat="49.31992" lon="-0.53865">
        <ele>44.200000762939</ele>
        <time>2026-03-24T14:47:19.000Z</time>
      </trkpt>
      <trkpt lat="49.31991" lon="-0.53867">
        <ele>44.200000762939</ele>
        <time>2026-03-24T14:47:20.000Z</time>
      </trkpt>
      <trkpt lat="49.3199" lon="-0.53868">
        <ele>44.200000762939</ele>
        <time>2026-03-24T14:47:21.000Z</time>
      </trkpt>
      <trkpt lat="49.31989" lon="-0.53869">
        <ele>44.200000762939</ele>
        <time>2026-03-24T14:47:22.000Z</time>
      </trkpt>
      <trkpt lat="49.31988" lon="-0.5387">
        <ele>44.200000762939</ele>
        <time>2026-03-24T14:47:23.000Z</time>
      </trkpt>
      <trkpt lat="49.31988" lon="-0.53871">
        <ele>44.400001525879</ele>
        <time>2026-03-24T14:47:24.000Z</time>
      </trkpt>
      <trkpt lat="49.31987" lon="-0.53871">
        <ele>44.400001525879</ele>
        <time>2026-03-24T14:47:25.000Z</time>
      </trkpt>
      <trkpt lat="49.31987" lon="-0.53872">
        <ele>44.400001525879</ele>
        <time>2026-03-24T14:47:26.000Z</time>
      </trkpt>
      <trkpt lat="49.31987" lon="-0.53872">
        <ele>44.400001525879</ele>
        <time>2026-03-24T14:47:27.000Z</time>
      </trkpt>
      <trkpt lat="49.31987" lon="-0.53872">
        <ele>44.400001525879</ele>
        <time>2026-03-24T14:47:28.000Z</time>
      </trkpt>
      <trkpt lat="49.31987" lon="-0.53872">
        <ele>44.400001525879</ele>
        <time>2026-03-24T14:47:29.000Z</time>
      </trkpt>
      <trkpt lat="49.31987" lon="-0.53873">
        <ele>44.400001525879</ele>
        <time>2026-03-24T14:47:30.000Z</time>
      </trkpt>
      <trkpt lat="49.31987" lon="-0.53873">
        <ele>44.400001525879</ele>
        <time>2026-03-24T14:47:31.000Z</time>
      </trkpt>
      <trkpt lat="49.31987" lon="-0.53873">
        <ele>44.400001525879</ele>
        <time>2026-03-24T14:47:32.000Z</time>
      </trkpt>
      <trkpt lat="49.31987" lon="-0.53873">
        <ele>44.400001525879</ele>
        <time>2026-03-24T14:47:33.000Z</time>
      </trkpt>
      <trkpt lat="49.31987" lon="-0.53873">
        <ele>44.400001525879</ele>
        <time>2026-03-24T14:47:34.000Z</time>
      </trkpt>
      <trkpt lat="49.31987" lon="-0.53873">
        <ele>44.400001525879</ele>
        <time>2026-03-24T14:47:35.000Z</time>
      </trkpt>
      <trkpt lat="49.31986" lon="-0.53873">
        <ele>44.400001525879</ele>
        <time>2026-03-24T14:47:36.000Z</time>
      </trkpt>
      <trkpt lat="49.31986" lon="-0.53873">
        <ele>44.400001525879</ele>
        <time>2026-03-24T14:47:37.000Z</time>
      </trkpt>
      <trkpt lat="49.31986" lon="-0.53873">
        <ele>44.400001525879</ele>
        <time>2026-03-24T14:47:38.000Z</time>
      </trkpt>
      <trkpt lat="49.31986" lon="-0.53873">
        <ele>44.400001525879</ele>
        <time>2026-03-24T14:47:39.000Z</time>
      </trkpt>
      <trkpt lat="49.31986" lon="-0.53873">
        <ele>44.400001525879</ele>
        <time>2026-03-24T14:47:40.000Z</time>
      </trkpt>
      <trkpt lat="49.31986" lon="-0.53873">
        <ele>44.400001525879</ele>
        <time>2026-03-24T14:47:41.000Z</time>
      </trkpt>
      <trkpt lat="49.31986" lon="-0.53873">
        <ele>44.400001525879</ele>
        <time>2026-03-24T14:47:42.000Z</time>
      </trkpt>
      <trkpt lat="49.31986" lon="-0.53873">
        <ele>44.400001525879</ele>
        <time>2026-03-24T14:47:43.000Z</time>
      </trkpt>
      <trkpt lat="49.31987" lon="-0.53873">
        <ele>44.400001525879</ele>
        <time>2026-03-24T14:47:44.000Z</time>
      </trkpt>
      <trkpt lat="49.31987" lon="-0.53872">
        <ele>44.400001525879</ele>
        <time>2026-03-24T14:47:45.000Z</time>
      </trkpt>
      <trkpt lat="49.31987" lon="-0.53872">
        <ele>44.400001525879</ele>
        <time>2026-03-24T14:47:46.000Z</time>
      </trkpt>
      <trkpt lat="49.31988" lon="-0.53871">
        <ele>44.400001525879</ele>
        <time>2026-03-24T14:47:47.000Z</time>
      </trkpt>
      <trkpt lat="49.31988" lon="-0.53871">
        <ele>44.400001525879</ele>
        <time>2026-03-24T14:47:48.000Z</time>
      </trkpt>
      <trkpt lat="49.31988" lon="-0.53871">
        <ele>44.400001525879</ele>
        <time>2026-03-24T14:47:49.000Z</time>
      </trkpt>
      <trkpt lat="49.31988" lon="-0.53871">
        <ele>44.400001525879</ele>
        <time>2026-03-24T14:47:50.000Z</time>
      </trkpt>
      <trkpt lat="49.31988" lon="-0.53871">
        <ele>44.400001525879</ele>
        <time>2026-03-24T14:47:51.000Z</time>
      </trkpt>
      <trkpt lat="49.31988" lon="-0.53871">
        <ele>44.400001525879</ele>
        <time>2026-03-24T14:47:52.000Z</time>
      </trkpt>
      <trkpt lat="49.31988" lon="-0.53871">
        <ele>44.400001525879</ele>
        <time>2026-03-24T14:47:53.000Z</time>
      </trkpt>
      <trkpt lat="49.31988" lon="-0.53871">
        <ele>44.400001525879</ele>
        <time>2026-03-24T14:47:54.000Z</time>
      </trkpt>
      <trkpt lat="49.31988" lon="-0.53871">
        <ele>44.400001525879</ele>
        <time>2026-03-24T14:47:55.000Z</time>
      </trkpt>
      <trkpt lat="49.31988" lon="-0.53872">
        <ele>44.400001525879</ele>
        <time>2026-03-24T14:47:56.000Z</time>
      </trkpt>
      <trkpt lat="49.31988" lon="-0.53872">
        <ele>44.400001525879</ele>
        <time>2026-03-24T14:47:57.000Z</time>
      </trkpt>
      <trkpt lat="49.31987" lon="-0.53872">
        <ele>44.400001525879</ele>
        <time>2026-03-24T14:47:58.000Z</time>
      </trkpt>
      <trkpt lat="49.31986" lon="-0.53872">
        <ele>44.400001525879</ele>
        <time>2026-03-24T14:47:59.000Z</time>
      </trkpt>
      <trkpt lat="49.31985" lon="-0.53873">
        <ele>44.400001525879</ele>
        <time>2026-03-24T14:48:00.000Z</time>
      </trkpt>
      <trkpt lat="49.31985" lon="-0.53873">
        <ele>44.400001525879</ele>
        <time>2026-03-24T14:48:01.000Z</time>
      </trkpt>
      <trkpt lat="49.31985" lon="-0.53874">
        <ele>44.400001525879</ele>
        <time>2026-03-24T14:48:02.000Z</time>
      </trkpt>
      <trkpt lat="49.31985" lon="-0.53875">
        <ele>44.400001525879</ele>
        <time>2026-03-24T14:48:03.000Z</time>
      </trkpt>
      <trkpt lat="49.31985" lon="-0.53875">
        <ele>44.400001525879</ele>
        <time>2026-03-24T14:48:04.000Z</time>
      </trkpt>
      <trkpt lat="49.31984" lon="-0.53876">
        <ele>44.400001525879</ele>
        <time>2026-03-24T14:48:05.000Z</time>
      </trkpt>
      <trkpt lat="49.31984" lon="-0.53876">
        <ele>44.599998474121</ele>
        <time>2026-03-24T14:48:06.000Z</time>
      </trkpt>
      <trkpt lat="49.31983" lon="-0.53877">
        <ele>44.599998474121</ele>
        <time>2026-03-24T14:48:07.000Z</time>
      </trkpt>
      <trkpt lat="49.31983" lon="-0.53877">
        <ele>44.599998474121</ele>
        <time>2026-03-24T14:48:08.000Z</time>
      </trkpt>
      <trkpt lat="49.31983" lon="-0.53878">
        <ele>44.599998474121</ele>
        <time>2026-03-24T14:48:09.000Z</time>
      </trkpt>
      <trkpt lat="49.31982" lon="-0.53878">
        <ele>44.599998474121</ele>
        <time>2026-03-24T14:48:10.000Z</time>
      </trkpt>
      <trkpt lat="49.31982" lon="-0.53879">
        <ele>44.599998474121</ele>
        <time>2026-03-24T14:48:11.000Z</time>
      </trkpt>
      <trkpt lat="49.31982" lon="-0.5388">
        <ele>44.599998474121</ele>
        <time>2026-03-24T14:48:12.000Z</time>
      </trkpt>
      <trkpt lat="49.31982" lon="-0.53881">
        <ele>44.599998474121</ele>
        <time>2026-03-24T14:48:13.000Z</time>
      </trkpt>
      <trkpt lat="49.31982" lon="-0.53881">
        <ele>44.599998474121</ele>
        <time>2026-03-24T14:48:14.000Z</time>
      </trkpt>
      <trkpt lat="49.31981" lon="-0.53882">
        <ele>44.799999237061</ele>
        <time>2026-03-24T14:48:15.000Z</time>
      </trkpt>
      <trkpt lat="49.31981" lon="-0.53883">
        <ele>44.799999237061</ele>
        <time>2026-03-24T14:48:16.000Z</time>
      </trkpt>
      <trkpt lat="49.31981" lon="-0.53884">
        <ele>44.799999237061</ele>
        <time>2026-03-24T14:48:17.000Z</time>
      </trkpt>
      <trkpt lat="49.3198" lon="-0.53885">
        <ele>44.799999237061</ele>
        <time>2026-03-24T14:48:18.000Z</time>
      </trkpt>
      <trkpt lat="49.3198" lon="-0.53887">
        <ele>44.799999237061</ele>
        <time>2026-03-24T14:48:19.000Z</time>
      </trkpt>
      <trkpt lat="49.31979" lon="-0.53888">
        <ele>45</ele>
        <time>2026-03-24T14:48:20.000Z</time>
      </trkpt>
      <trkpt lat="49.31978" lon="-0.53889">
        <ele>45</ele>
        <time>2026-03-24T14:48:21.000Z</time>
      </trkpt>
      <trkpt lat="49.31977" lon="-0.53891">
        <ele>45</ele>
        <time>2026-03-24T14:48:22.000Z</time>
      </trkpt>
      <trkpt lat="49.31977" lon="-0.53892">
        <ele>45</ele>
        <time>2026-03-24T14:48:23.000Z</time>
      </trkpt>
      <trkpt lat="49.31976" lon="-0.53894">
        <ele>45.200000762939</ele>
        <time>2026-03-24T14:48:24.000Z</time>
      </trkpt>
      <trkpt lat="49.31975" lon="-0.53895">
        <ele>45.200000762939</ele>
        <time>2026-03-24T14:48:25.000Z</time>
      </trkpt>
      <trkpt lat="49.31974" lon="-0.53896">
        <ele>45.200000762939</ele>
        <time>2026-03-24T14:48:26.000Z</time>
      </trkpt>
      <trkpt lat="49.31974" lon="-0.53898">
        <ele>45.200000762939</ele>
        <time>2026-03-24T14:48:27.000Z</time>
      </trkpt>
      <trkpt lat="49.31973" lon="-0.53899">
        <ele>45.400001525879</ele>
        <time>2026-03-24T14:48:28.000Z</time>
      </trkpt>
      <trkpt lat="49.31972" lon="-0.539">
        <ele>45.400001525879</ele>
        <time>2026-03-24T14:48:29.000Z</time>
      </trkpt>
      <trkpt lat="49.31971" lon="-0.53902">
        <ele>45.400001525879</ele>
        <time>2026-03-24T14:48:30.000Z</time>
      </trkpt>
      <trkpt lat="49.3197" lon="-0.53903">
        <ele>45.400001525879</ele>
        <time>2026-03-24T14:48:31.000Z</time>
      </trkpt>
      <trkpt lat="49.3197" lon="-0.53905">
        <ele>45.599998474121</ele>
        <time>2026-03-24T14:48:32.000Z</time>
      </trkpt>
      <trkpt lat="49.31969" lon="-0.53906">
        <ele>45.599998474121</ele>
        <time>2026-03-24T14:48:33.000Z</time>
      </trkpt>
      <trkpt lat="49.31968" lon="-0.53908">
        <ele>45.599998474121</ele>
        <time>2026-03-24T14:48:34.000Z</time>
      </trkpt>
      <trkpt lat="49.31967" lon="-0.53908">
        <ele>45.599998474121</ele>
        <time>2026-03-24T14:48:35.000Z</time>
      </trkpt>
      <trkpt lat="49.31966" lon="-0.5391">
        <ele>45.799999237061</ele>
        <time>2026-03-24T14:48:36.000Z</time>
      </trkpt>
      <trkpt lat="49.31965" lon="-0.53911">
        <ele>45.799999237061</ele>
        <time>2026-03-24T14:48:37.000Z</time>
      </trkpt>
      <trkpt lat="49.31964" lon="-0.53912">
        <ele>46</ele>
        <time>2026-03-24T14:48:38.000Z</time>
      </trkpt>
      <trkpt lat="49.31963" lon="-0.53914">
        <ele>46</ele>
        <time>2026-03-24T14:48:39.000Z</time>
      </trkpt>
      <trkpt lat="49.31962" lon="-0.53916">
        <ele>46.200000762939</ele>
        <time>2026-03-24T14:48:40.000Z</time>
      </trkpt>
      <trkpt lat="49.31961" lon="-0.53917">
        <ele>46.200000762939</ele>
        <time>2026-03-24T14:48:41.000Z</time>
      </trkpt>
      <trkpt lat="49.3196" lon="-0.53919">
        <ele>46.200000762939</ele>
        <time>2026-03-24T14:48:42.000Z</time>
      </trkpt>
      <trkpt lat="49.31959" lon="-0.5392">
        <ele>46.200000762939</ele>
        <time>2026-03-24T14:48:43.000Z</time>
      </trkpt>
      <trkpt lat="49.31958" lon="-0.53921">
        <ele>46.200000762939</ele>
        <time>2026-03-24T14:48:44.000Z</time>
      </trkpt>
      <trkpt lat="49.31957" lon="-0.53922">
        <ele>46.200000762939</ele>
        <time>2026-03-24T14:48:45.000Z</time>
      </trkpt>
      <trkpt lat="49.31956" lon="-0.53924">
        <ele>46.200000762939</ele>
        <time>2026-03-24T14:48:46.000Z</time>
      </trkpt>
      <trkpt lat="49.31955" lon="-0.53924">
        <ele>46.200000762939</ele>
        <time>2026-03-24T14:48:47.000Z</time>
      </trkpt>
      <trkpt lat="49.31954" lon="-0.53925">
        <ele>46.200000762939</ele>
        <time>2026-03-24T14:48:48.000Z</time>
      </trkpt>
      <trkpt lat="49.31953" lon="-0.53927">
        <ele>46.200000762939</ele>
        <time>2026-03-24T14:48:49.000Z</time>
      </trkpt>
      <trkpt lat="49.31952" lon="-0.53928">
        <ele>46.200000762939</ele>
        <time>2026-03-24T14:48:50.000Z</time>
      </trkpt>
      <trkpt lat="49.31951" lon="-0.53929">
        <ele>46.200000762939</ele>
        <time>2026-03-24T14:48:51.000Z</time>
      </trkpt>
      <trkpt lat="49.3195" lon="-0.53929">
        <ele>46.200000762939</ele>
        <time>2026-03-24T14:48:52.000Z</time>
      </trkpt>
      <trkpt lat="49.31949" lon="-0.5393">
        <ele>46.200000762939</ele>
        <time>2026-03-24T14:48:53.000Z</time>
      </trkpt>
      <trkpt lat="49.31948" lon="-0.53932">
        <ele>46.200000762939</ele>
        <time>2026-03-24T14:48:54.000Z</time>
      </trkpt>
      <trkpt lat="49.31948" lon="-0.53933">
        <ele>46.200000762939</ele>
        <time>2026-03-24T14:48:55.000Z</time>
      </trkpt>
      <trkpt lat="49.31947" lon="-0.53935">
        <ele>46.200000762939</ele>
        <time>2026-03-24T14:48:56.000Z</time>
      </trkpt>
      <trkpt lat="49.31946" lon="-0.53936">
        <ele>46.200000762939</ele>
        <time>2026-03-24T14:48:57.000Z</time>
      </trkpt>
      <trkpt lat="49.31945" lon="-0.53937">
        <ele>46</ele>
        <time>2026-03-24T14:48:58.000Z</time>
      </trkpt>
      <trkpt lat="49.31945" lon="-0.53939">
        <ele>46</ele>
        <time>2026-03-24T14:48:59.000Z</time>
      </trkpt>
      <trkpt lat="49.31943" lon="-0.5394">
        <ele>46</ele>
        <time>2026-03-24T14:49:00.000Z</time>
      </trkpt>
      <trkpt lat="49.31943" lon="-0.53941">
        <ele>46</ele>
        <time>2026-03-24T14:49:01.000Z</time>
      </trkpt>
      <trkpt lat="49.31942" lon="-0.53943">
        <ele>46</ele>
        <time>2026-03-24T14:49:02.000Z</time>
      </trkpt>
      <trkpt lat="49.31941" lon="-0.53944">
        <ele>46</ele>
        <time>2026-03-24T14:49:03.000Z</time>
      </trkpt>
      <trkpt lat="49.3194" lon="-0.53945">
        <ele>46</ele>
        <time>2026-03-24T14:49:04.000Z</time>
      </trkpt>
      <trkpt lat="49.3194" lon="-0.53946">
        <ele>46</ele>
        <time>2026-03-24T14:49:05.000Z</time>
      </trkpt>
      <trkpt lat="49.31939" lon="-0.53947">
        <ele>46</ele>
        <time>2026-03-24T14:49:06.000Z</time>
      </trkpt>
      <trkpt lat="49.31938" lon="-0.53948">
        <ele>46</ele>
        <time>2026-03-24T14:49:07.000Z</time>
      </trkpt>
      <trkpt lat="49.31937" lon="-0.53949">
        <ele>45.799999237061</ele>
        <time>2026-03-24T14:49:08.000Z</time>
      </trkpt>
      <trkpt lat="49.31936" lon="-0.5395">
        <ele>45.799999237061</ele>
        <time>2026-03-24T14:49:09.000Z</time>
      </trkpt>
      <trkpt lat="49.31935" lon="-0.53951">
        <ele>45.799999237061</ele>
        <time>2026-03-24T14:49:10.000Z</time>
      </trkpt>
      <trkpt lat="49.31935" lon="-0.53952">
        <ele>45.799999237061</ele>
        <time>2026-03-24T14:49:11.000Z</time>
      </trkpt>
      <trkpt lat="49.31934" lon="-0.53952">
        <ele>45.799999237061</ele>
        <time>2026-03-24T14:49:12.000Z</time>
      </trkpt>
      <trkpt lat="49.31934" lon="-0.53953">
        <ele>45.799999237061</ele>
        <time>2026-03-24T14:49:13.000Z</time>
      </trkpt>
      <trkpt lat="49.31933" lon="-0.53954">
        <ele>45.599998474121</ele>
        <time>2026-03-24T14:49:14.000Z</time>
      </trkpt>
      <trkpt lat="49.31933" lon="-0.53955">
        <ele>45.599998474121</ele>
        <time>2026-03-24T14:49:15.000Z</time>
      </trkpt>
      <trkpt lat="49.31932" lon="-0.53956">
        <ele>45.599998474121</ele>
        <time>2026-03-24T14:49:16.000Z</time>
      </trkpt>
      <trkpt lat="49.31931" lon="-0.53958">
        <ele>45.599998474121</ele>
        <time>2026-03-24T14:49:17.000Z</time>
      </trkpt>
      <trkpt lat="49.3193" lon="-0.53959">
        <ele>45.599998474121</ele>
        <time>2026-03-24T14:49:18.000Z</time>
      </trkpt>
      <trkpt lat="49.3193" lon="-0.53961">
        <ele>45.400001525879</ele>
        <time>2026-03-24T14:49:19.000Z</time>
      </trkpt>
      <trkpt lat="49.31929" lon="-0.53962">
        <ele>45.400001525879</ele>
        <time>2026-03-24T14:49:20.000Z</time>
      </trkpt>
      <trkpt lat="49.31928" lon="-0.53964">
        <ele>45.400001525879</ele>
        <time>2026-03-24T14:49:21.000Z</time>
      </trkpt>
      <trkpt lat="49.31927" lon="-0.53965">
        <ele>45.400001525879</ele>
        <time>2026-03-24T14:49:22.000Z</time>
      </trkpt>
      <trkpt lat="49.31927" lon="-0.53966">
        <ele>45.200000762939</ele>
        <time>2026-03-24T14:49:23.000Z</time>
      </trkpt>
      <trkpt lat="49.31926" lon="-0.53968">
        <ele>45.200000762939</ele>
        <time>2026-03-24T14:49:24.000Z</time>
      </trkpt>
      <trkpt lat="49.31926" lon="-0.5397">
        <ele>45.200000762939</ele>
        <time>2026-03-24T14:49:25.000Z</time>
      </trkpt>
      <trkpt lat="49.31925" lon="-0.53971">
        <ele>45</ele>
        <time>2026-03-24T14:49:26.000Z</time>
      </trkpt>
      <trkpt lat="49.31924" lon="-0.53973">
        <ele>45</ele>
        <time>2026-03-24T14:49:27.000Z</time>
      </trkpt>
      <trkpt lat="49.31924" lon="-0.53975">
        <ele>45</ele>
        <time>2026-03-24T14:49:28.000Z</time>
      </trkpt>
      <trkpt lat="49.31923" lon="-0.53976">
        <ele>44.799999237061</ele>
        <time>2026-03-24T14:49:29.000Z</time>
      </trkpt>
      <trkpt lat="49.31923" lon="-0.53978">
        <ele>44.799999237061</ele>
        <time>2026-03-24T14:49:30.000Z</time>
      </trkpt>
      <trkpt lat="49.31922" lon="-0.5398">
        <ele>44.799999237061</ele>
        <time>2026-03-24T14:49:31.000Z</time>
      </trkpt>
      <trkpt lat="49.31922" lon="-0.53982">
        <ele>44.599998474121</ele>
        <time>2026-03-24T14:49:32.000Z</time>
      </trkpt>
      <trkpt lat="49.31921" lon="-0.53983">
        <ele>44.599998474121</ele>
        <time>2026-03-24T14:49:33.000Z</time>
      </trkpt>
      <trkpt lat="49.31921" lon="-0.53985">
        <ele>44.599998474121</ele>
        <time>2026-03-24T14:49:34.000Z</time>
      </trkpt>
      <trkpt lat="49.3192" lon="-0.53986">
        <ele>44.599998474121</ele>
        <time>2026-03-24T14:49:35.000Z</time>
      </trkpt>
      <trkpt lat="49.3192" lon="-0.53988">
        <ele>44.400001525879</ele>
        <time>2026-03-24T14:49:36.000Z</time>
      </trkpt>
      <trkpt lat="49.31919" lon="-0.53989">
        <ele>44.400001525879</ele>
        <time>2026-03-24T14:49:37.000Z</time>
      </trkpt>
      <trkpt lat="49.31918" lon="-0.5399">
        <ele>44.400001525879</ele>
        <time>2026-03-24T14:49:38.000Z</time>
      </trkpt>
      <trkpt lat="49.31917" lon="-0.53992">
        <ele>44.400001525879</ele>
        <time>2026-03-24T14:49:39.000Z</time>
      </trkpt>
      <trkpt lat="49.31916" lon="-0.53993">
        <ele>44.200000762939</ele>
        <time>2026-03-24T14:49:40.000Z</time>
      </trkpt>
      <trkpt lat="49.31916" lon="-0.53994">
        <ele>44.200000762939</ele>
        <time>2026-03-24T14:49:41.000Z</time>
      </trkpt>
      <trkpt lat="49.31915" lon="-0.53995">
        <ele>44.200000762939</ele>
        <time>2026-03-24T14:49:42.000Z</time>
      </trkpt>
      <trkpt lat="49.31914" lon="-0.53995">
        <ele>44.200000762939</ele>
        <time>2026-03-24T14:49:43.000Z</time>
      </trkpt>
      <trkpt lat="49.31913" lon="-0.53997">
        <ele>44.200000762939</ele>
        <time>2026-03-24T14:49:44.000Z</time>
      </trkpt>
      <trkpt lat="49.31912" lon="-0.53998">
        <ele>44.200000762939</ele>
        <time>2026-03-24T14:49:45.000Z</time>
      </trkpt>
      <trkpt lat="49.31912" lon="-0.53998">
        <ele>44</ele>
        <time>2026-03-24T14:49:46.000Z</time>
      </trkpt>
      <trkpt lat="49.31911" lon="-0.53999">
        <ele>44</ele>
        <time>2026-03-24T14:49:47.000Z</time>
      </trkpt>
      <trkpt lat="49.3191" lon="-0.54">
        <ele>44</ele>
        <time>2026-03-24T14:49:48.000Z</time>
      </trkpt>
      <trkpt lat="49.3191" lon="-0.54001">
        <ele>44</ele>
        <time>2026-03-24T14:49:49.000Z</time>
      </trkpt>
      <trkpt lat="49.31909" lon="-0.54002">
        <ele>44</ele>
        <time>2026-03-24T14:49:50.000Z</time>
      </trkpt>
      <trkpt lat="49.31908" lon="-0.54003">
        <ele>44</ele>
        <time>2026-03-24T14:49:51.000Z</time>
      </trkpt>
      <trkpt lat="49.31907" lon="-0.54004">
        <ele>44</ele>
        <time>2026-03-24T14:49:52.000Z</time>
      </trkpt>
      <trkpt lat="49.31907" lon="-0.54005">
        <ele>44</ele>
        <time>2026-03-24T14:49:53.000Z</time>
      </trkpt>
      <trkpt lat="49.31906" lon="-0.54006">
        <ele>44</ele>
        <time>2026-03-24T14:49:54.000Z</time>
      </trkpt>
      <trkpt lat="49.31905" lon="-0.54008">
        <ele>44</ele>
        <time>2026-03-24T14:49:55.000Z</time>
      </trkpt>
      <trkpt lat="49.31905" lon="-0.54009">
        <ele>44</ele>
        <time>2026-03-24T14:49:56.000Z</time>
      </trkpt>
      <trkpt lat="49.31904" lon="-0.54011">
        <ele>44</ele>
        <time>2026-03-24T14:49:57.000Z</time>
      </trkpt>
      <trkpt lat="49.31903" lon="-0.54012">
        <ele>44</ele>
        <time>2026-03-24T14:49:58.000Z</time>
      </trkpt>
      <trkpt lat="49.31903" lon="-0.54014">
        <ele>44</ele>
        <time>2026-03-24T14:49:59.000Z</time>
      </trkpt>
      <trkpt lat="49.31902" lon="-0.54015">
        <ele>44</ele>
        <time>2026-03-24T14:50:00.000Z</time>
      </trkpt>
      <trkpt lat="49.31901" lon="-0.54016">
        <ele>44</ele>
        <time>2026-03-24T14:50:01.000Z</time>
      </trkpt>
      <trkpt lat="49.319" lon="-0.54018">
        <ele>44</ele>
        <time>2026-03-24T14:50:02.000Z</time>
      </trkpt>
      <trkpt lat="49.31899" lon="-0.54019">
        <ele>44</ele>
        <time>2026-03-24T14:50:03.000Z</time>
      </trkpt>
      <trkpt lat="49.31898" lon="-0.54021">
        <ele>44</ele>
        <time>2026-03-24T14:50:04.000Z</time>
      </trkpt>
      <trkpt lat="49.31897" lon="-0.54023">
        <ele>44</ele>
        <time>2026-03-24T14:50:05.000Z</time>
      </trkpt>
      <trkpt lat="49.31896" lon="-0.54024">
        <ele>44</ele>
        <time>2026-03-24T14:50:06.000Z</time>
      </trkpt>
      <trkpt lat="49.31895" lon="-0.54026">
        <ele>44</ele>
        <time>2026-03-24T14:50:07.000Z</time>
      </trkpt>
      <trkpt lat="49.31894" lon="-0.54027">
        <ele>44</ele>
        <time>2026-03-24T14:50:08.000Z</time>
      </trkpt>
      <trkpt lat="49.31894" lon="-0.54028">
        <ele>44</ele>
        <time>2026-03-24T14:50:09.000Z</time>
      </trkpt>
      <trkpt lat="49.31893" lon="-0.5403">
        <ele>44</ele>
        <time>2026-03-24T14:50:10.000Z</time>
      </trkpt>
      <trkpt lat="49.31892" lon="-0.54031">
        <ele>44</ele>
        <time>2026-03-24T14:50:11.000Z</time>
      </trkpt>
      <trkpt lat="49.31892" lon="-0.54032">
        <ele>44</ele>
        <time>2026-03-24T14:50:12.000Z</time>
      </trkpt>
      <trkpt lat="49.31891" lon="-0.54033">
        <ele>44</ele>
        <time>2026-03-24T14:50:13.000Z</time>
      </trkpt>
      <trkpt lat="49.3189" lon="-0.54035">
        <ele>44</ele>
        <time>2026-03-24T14:50:14.000Z</time>
      </trkpt>
      <trkpt lat="49.3189" lon="-0.54036">
        <ele>44</ele>
        <time>2026-03-24T14:50:15.000Z</time>
      </trkpt>
      <trkpt lat="49.31889" lon="-0.54037">
        <ele>44</ele>
        <time>2026-03-24T14:50:16.000Z</time>
      </trkpt>
      <trkpt lat="49.31888" lon="-0.54039">
        <ele>44</ele>
        <time>2026-03-24T14:50:17.000Z</time>
      </trkpt>
      <trkpt lat="49.31888" lon="-0.5404">
        <ele>44</ele>
        <time>2026-03-24T14:50:18.000Z</time>
      </trkpt>
      <trkpt lat="49.31887" lon="-0.54042">
        <ele>44</ele>
        <time>2026-03-24T14:50:19.000Z</time>
      </trkpt>
      <trkpt lat="49.31887" lon="-0.54043">
        <ele>44</ele>
        <time>2026-03-24T14:50:20.000Z</time>
      </trkpt>
      <trkpt lat="49.31886" lon="-0.54045">
        <ele>44</ele>
        <time>2026-03-24T14:50:21.000Z</time>
      </trkpt>
      <trkpt lat="49.31885" lon="-0.54046">
        <ele>44</ele>
        <time>2026-03-24T14:50:22.000Z</time>
      </trkpt>
      <trkpt lat="49.31885" lon="-0.54047">
        <ele>44</ele>
        <time>2026-03-24T14:50:23.000Z</time>
      </trkpt>
      <trkpt lat="49.31884" lon="-0.54048">
        <ele>44</ele>
        <time>2026-03-24T14:50:24.000Z</time>
      </trkpt>
      <trkpt lat="49.31883" lon="-0.5405">
        <ele>44</ele>
        <time>2026-03-24T14:50:25.000Z</time>
      </trkpt>
      <trkpt lat="49.31883" lon="-0.54051">
        <ele>44</ele>
        <time>2026-03-24T14:50:26.000Z</time>
      </trkpt>
      <trkpt lat="49.31882" lon="-0.54052">
        <ele>44</ele>
        <time>2026-03-24T14:50:27.000Z</time>
      </trkpt>
      <trkpt lat="49.31882" lon="-0.54054">
        <ele>44</ele>
        <time>2026-03-24T14:50:28.000Z</time>
      </trkpt>
      <trkpt lat="49.31881" lon="-0.54055">
        <ele>44</ele>
        <time>2026-03-24T14:50:29.000Z</time>
      </trkpt>
      <trkpt lat="49.3188" lon="-0.54057">
        <ele>44</ele>
        <time>2026-03-24T14:50:30.000Z</time>
      </trkpt>
      <trkpt lat="49.3188" lon="-0.54058">
        <ele>44</ele>
        <time>2026-03-24T14:50:31.000Z</time>
      </trkpt>
      <trkpt lat="49.31879" lon="-0.54059">
        <ele>44</ele>
        <time>2026-03-24T14:50:32.000Z</time>
      </trkpt>
      <trkpt lat="49.31878" lon="-0.54061">
        <ele>44</ele>
        <time>2026-03-24T14:50:33.000Z</time>
      </trkpt>
      <trkpt lat="49.31877" lon="-0.54062">
        <ele>44</ele>
        <time>2026-03-24T14:50:34.000Z</time>
      </trkpt>
      <trkpt lat="49.31876" lon="-0.54063">
        <ele>44</ele>
        <time>2026-03-24T14:50:35.000Z</time>
      </trkpt>
      <trkpt lat="49.31875" lon="-0.54064">
        <ele>44</ele>
        <time>2026-03-24T14:50:36.000Z</time>
      </trkpt>
      <trkpt lat="49.31874" lon="-0.54065">
        <ele>44</ele>
        <time>2026-03-24T14:50:37.000Z</time>
      </trkpt>
      <trkpt lat="49.31873" lon="-0.54066">
        <ele>44</ele>
        <time>2026-03-24T14:50:38.000Z</time>
      </trkpt>
      <trkpt lat="49.31872" lon="-0.54067">
        <ele>44</ele>
        <time>2026-03-24T14:50:39.000Z</time>
      </trkpt>
      <trkpt lat="49.31871" lon="-0.54067">
        <ele>44</ele>
        <time>2026-03-24T14:50:40.000Z</time>
      </trkpt>
      <trkpt lat="49.3187" lon="-0.54068">
        <ele>44</ele>
        <time>2026-03-24T14:50:41.000Z</time>
      </trkpt>
      <trkpt lat="49.31869" lon="-0.54069">
        <ele>44</ele>
        <time>2026-03-24T14:50:42.000Z</time>
      </trkpt>
      <trkpt lat="49.31869" lon="-0.5407">
        <ele>44</ele>
        <time>2026-03-24T14:50:43.000Z</time>
      </trkpt>
      <trkpt lat="49.31868" lon="-0.5407">
        <ele>44</ele>
        <time>2026-03-24T14:50:44.000Z</time>
      </trkpt>
      <trkpt lat="49.31867" lon="-0.5407">
        <ele>44</ele>
        <time>2026-03-24T14:50:45.000Z</time>
      </trkpt>
      <trkpt lat="49.31866" lon="-0.54071">
        <ele>44</ele>
        <time>2026-03-24T14:50:46.000Z</time>
      </trkpt>
      <trkpt lat="49.31865" lon="-0.54072">
        <ele>44</ele>
        <time>2026-03-24T14:50:47.000Z</time>
      </trkpt>
      <trkpt lat="49.31865" lon="-0.54073">
        <ele>44</ele>
        <time>2026-03-24T14:50:48.000Z</time>
      </trkpt>
      <trkpt lat="49.31864" lon="-0.54073">
        <ele>44</ele>
        <time>2026-03-24T14:50:49.000Z</time>
      </trkpt>
      <trkpt lat="49.31863" lon="-0.54074">
        <ele>44</ele>
        <time>2026-03-24T14:50:50.000Z</time>
      </trkpt>
      <trkpt lat="49.31862" lon="-0.54075">
        <ele>44</ele>
        <time>2026-03-24T14:50:51.000Z</time>
      </trkpt>
      <trkpt lat="49.31861" lon="-0.54076">
        <ele>44</ele>
        <time>2026-03-24T14:50:52.000Z</time>
      </trkpt>
      <trkpt lat="49.3186" lon="-0.54077">
        <ele>44</ele>
        <time>2026-03-24T14:50:53.000Z</time>
      </trkpt>
      <trkpt lat="49.3186" lon="-0.54078">
        <ele>44</ele>
        <time>2026-03-24T14:50:54.000Z</time>
      </trkpt>
      <trkpt lat="49.31859" lon="-0.54079">
        <ele>44</ele>
        <time>2026-03-24T14:50:55.000Z</time>
      </trkpt>
      <trkpt lat="49.31858" lon="-0.5408">
        <ele>44</ele>
        <time>2026-03-24T14:50:56.000Z</time>
      </trkpt>
      <trkpt lat="49.31858" lon="-0.54081">
        <ele>44</ele>
        <time>2026-03-24T14:50:57.000Z</time>
      </trkpt>
      <trkpt lat="49.31857" lon="-0.54083">
        <ele>44</ele>
        <time>2026-03-24T14:50:58.000Z</time>
      </trkpt>
      <trkpt lat="49.31856" lon="-0.54084">
        <ele>44</ele>
        <time>2026-03-24T14:50:59.000Z</time>
      </trkpt>
      <trkpt lat="49.31855" lon="-0.54085">
        <ele>44</ele>
        <time>2026-03-24T14:51:00.000Z</time>
      </trkpt>
      <trkpt lat="49.31854" lon="-0.54086">
        <ele>44.200000762939</ele>
        <time>2026-03-24T14:51:01.000Z</time>
      </trkpt>
      <trkpt lat="49.31854" lon="-0.54087">
        <ele>44.200000762939</ele>
        <time>2026-03-24T14:51:02.000Z</time>
      </trkpt>
      <trkpt lat="49.31853" lon="-0.54088">
        <ele>44.200000762939</ele>
        <time>2026-03-24T14:51:03.000Z</time>
      </trkpt>
      <trkpt lat="49.31852" lon="-0.54089">
        <ele>44.400001525879</ele>
        <time>2026-03-24T14:51:04.000Z</time>
      </trkpt>
      <trkpt lat="49.31852" lon="-0.5409">
        <ele>44.400001525879</ele>
        <time>2026-03-24T14:51:05.000Z</time>
      </trkpt>
      <trkpt lat="49.31851" lon="-0.54091">
        <ele>44.400001525879</ele>
        <time>2026-03-24T14:51:06.000Z</time>
      </trkpt>
      <trkpt lat="49.3185" lon="-0.54093">
        <ele>44.599998474121</ele>
        <time>2026-03-24T14:51:07.000Z</time>
      </trkpt>
      <trkpt lat="49.3185" lon="-0.54094">
        <ele>44.599998474121</ele>
        <time>2026-03-24T14:51:08.000Z</time>
      </trkpt>
      <trkpt lat="49.3185" lon="-0.54095">
        <ele>44.599998474121</ele>
        <time>2026-03-24T14:51:09.000Z</time>
      </trkpt>
      <trkpt lat="49.31849" lon="-0.54096">
        <ele>44.599998474121</ele>
        <time>2026-03-24T14:51:10.000Z</time>
      </trkpt>
      <trkpt lat="49.31849" lon="-0.54097">
        <ele>44.799999237061</ele>
        <time>2026-03-24T14:51:11.000Z</time>
      </trkpt>
      <trkpt lat="49.31848" lon="-0.54099">
        <ele>44.799999237061</ele>
        <time>2026-03-24T14:51:12.000Z</time>
      </trkpt>
      <trkpt lat="49.31847" lon="-0.541">
        <ele>44.799999237061</ele>
        <time>2026-03-24T14:51:13.000Z</time>
      </trkpt>
      <trkpt lat="49.31846" lon="-0.54102">
        <ele>45</ele>
        <time>2026-03-24T14:51:14.000Z</time>
      </trkpt>
      <trkpt lat="49.31846" lon="-0.54104">
        <ele>45</ele>
        <time>2026-03-24T14:51:15.000Z</time>
      </trkpt>
      <trkpt lat="49.31845" lon="-0.54105">
        <ele>45.200000762939</ele>
        <time>2026-03-24T14:51:16.000Z</time>
      </trkpt>
      <trkpt lat="49.31844" lon="-0.54107">
        <ele>45.200000762939</ele>
        <time>2026-03-24T14:51:17.000Z</time>
      </trkpt>
      <trkpt lat="49.31844" lon="-0.54108">
        <ele>45.200000762939</ele>
        <time>2026-03-24T14:51:18.000Z</time>
      </trkpt>
      <trkpt lat="49.31843" lon="-0.54109">
        <ele>45.400001525879</ele>
        <time>2026-03-24T14:51:19.000Z</time>
      </trkpt>
      <trkpt lat="49.31842" lon="-0.5411">
        <ele>45.400001525879</ele>
        <time>2026-03-24T14:51:20.000Z</time>
      </trkpt>
      <trkpt lat="49.31842" lon="-0.54112">
        <ele>45.599998474121</ele>
        <time>2026-03-24T14:51:21.000Z</time>
      </trkpt>
      <trkpt lat="49.31841" lon="-0.54113">
        <ele>45.599998474121</ele>
        <time>2026-03-24T14:51:22.000Z</time>
      </trkpt>
      <trkpt lat="49.3184" lon="-0.54114">
        <ele>45.599998474121</ele>
        <time>2026-03-24T14:51:23.000Z</time>
      </trkpt>
      <trkpt lat="49.31839" lon="-0.54115">
        <ele>45.599998474121</ele>
        <time>2026-03-24T14:51:24.000Z</time>
      </trkpt>
      <trkpt lat="49.31839" lon="-0.54116">
        <ele>45.599998474121</ele>
        <time>2026-03-24T14:51:25.000Z</time>
      </trkpt>
      <trkpt lat="49.31838" lon="-0.54118">
        <ele>45.599998474121</ele>
        <time>2026-03-24T14:51:26.000Z</time>
      </trkpt>
      <trkpt lat="49.31838" lon="-0.54119">
        <ele>45.599998474121</ele>
        <time>2026-03-24T14:51:27.000Z</time>
      </trkpt>
      <trkpt lat="49.31837" lon="-0.5412">
        <ele>45.599998474121</ele>
        <time>2026-03-24T14:51:28.000Z</time>
      </trkpt>
      <trkpt lat="49.31837" lon="-0.54121">
        <ele>45.799999237061</ele>
        <time>2026-03-24T14:51:29.000Z</time>
      </trkpt>
      <trkpt lat="49.31836" lon="-0.54122">
        <ele>45.799999237061</ele>
        <time>2026-03-24T14:51:30.000Z</time>
      </trkpt>
      <trkpt lat="49.31836" lon="-0.54122">
        <ele>45.799999237061</ele>
        <time>2026-03-24T14:51:31.000Z</time>
      </trkpt>
      <trkpt lat="49.31836" lon="-0.54122">
        <ele>45.799999237061</ele>
        <time>2026-03-24T14:51:32.000Z</time>
      </trkpt>
      <trkpt lat="49.31836" lon="-0.54122">
        <ele>45.799999237061</ele>
        <time>2026-03-24T14:51:33.000Z</time>
      </trkpt>
      <trkpt lat="49.31836" lon="-0.54121">
        <ele>45.799999237061</ele>
        <time>2026-03-24T14:51:34.000Z</time>
      </trkpt>
      <trkpt lat="49.31836" lon="-0.54121">
        <ele>45.799999237061</ele>
        <time>2026-03-24T14:51:35.000Z</time>
      </trkpt>
      <trkpt lat="49.31837" lon="-0.54122">
        <ele>45.799999237061</ele>
        <time>2026-03-24T14:51:36.000Z</time>
      </trkpt>
      <trkpt lat="49.31837" lon="-0.54122">
        <ele>45.599998474121</ele>
        <time>2026-03-24T14:51:37.000Z</time>
      </trkpt>
      <trkpt lat="49.31837" lon="-0.54123">
        <ele>45.599998474121</ele>
        <time>2026-03-24T14:51:38.000Z</time>
      </trkpt>
      <trkpt lat="49.31837" lon="-0.54123">
        <ele>45.599998474121</ele>
        <time>2026-03-24T14:51:39.000Z</time>
      </trkpt>
      <trkpt lat="49.31838" lon="-0.54123">
        <ele>45.599998474121</ele>
        <time>2026-03-24T14:51:40.000Z</time>
      </trkpt>
      <trkpt lat="49.31838" lon="-0.54124">
        <ele>45.599998474121</ele>
        <time>2026-03-24T14:51:41.000Z</time>
      </trkpt>
      <trkpt lat="49.31838" lon="-0.54124">
        <ele>45.599998474121</ele>
        <time>2026-03-24T14:51:42.000Z</time>
      </trkpt>
      <trkpt lat="49.31838" lon="-0.54124">
        <ele>45.599998474121</ele>
        <time>2026-03-24T14:51:43.000Z</time>
      </trkpt>
      <trkpt lat="49.31838" lon="-0.54124">
        <ele>45.599998474121</ele>
        <time>2026-03-24T14:51:44.000Z</time>
      </trkpt>
      <trkpt lat="49.31838" lon="-0.54124">
        <ele>45.599998474121</ele>
        <time>2026-03-24T14:51:45.000Z</time>
      </trkpt>
      <trkpt lat="49.31837" lon="-0.54124">
        <ele>45.599998474121</ele>
        <time>2026-03-24T14:51:46.000Z</time>
      </trkpt>
      <trkpt lat="49.31837" lon="-0.54124">
        <ele>45.599998474121</ele>
        <time>2026-03-24T14:51:47.000Z</time>
      </trkpt>
      <trkpt lat="49.31837" lon="-0.54124">
        <ele>45.599998474121</ele>
        <time>2026-03-24T14:51:48.000Z</time>
      </trkpt>
      <trkpt lat="49.31837" lon="-0.54123">
        <ele>45.599998474121</ele>
        <time>2026-03-24T14:51:49.000Z</time>
      </trkpt>
      <trkpt lat="49.31835" lon="-0.54122">
        <ele>45.799999237061</ele>
        <time>2026-03-24T14:51:50.000Z</time>
      </trkpt>
      <trkpt lat="49.31836" lon="-0.5412">
        <ele>45.799999237061</ele>
        <time>2026-03-24T14:51:51.000Z</time>
      </trkpt>
      <trkpt lat="49.31836" lon="-0.5412">
        <ele>45.799999237061</ele>
        <time>2026-03-24T14:51:52.000Z</time>
      </trkpt>
      <trkpt lat="49.31836" lon="-0.5412">
        <ele>45.799999237061</ele>
        <time>2026-03-24T14:51:53.000Z</time>
      </trkpt>
      <trkpt lat="49.31836" lon="-0.5412">
        <ele>45.799999237061</ele>
        <time>2026-03-24T14:51:54.000Z</time>
      </trkpt>
      <trkpt lat="49.31836" lon="-0.54121">
        <ele>45.799999237061</ele>
        <time>2026-03-24T14:51:55.000Z</time>
      </trkpt>
      <trkpt lat="49.31836" lon="-0.54121">
        <ele>45.799999237061</ele>
        <time>2026-03-24T14:51:56.000Z</time>
      </trkpt>
      <trkpt lat="49.31836" lon="-0.54121">
        <ele>45.799999237061</ele>
        <time>2026-03-24T14:51:57.000Z</time>
      </trkpt>
      <trkpt lat="49.31836" lon="-0.54121">
        <ele>45.799999237061</ele>
        <time>2026-03-24T14:51:58.000Z</time>
      </trkpt>
      <trkpt lat="49.31837" lon="-0.54121">
        <ele>45.799999237061</ele>
        <time>2026-03-24T14:51:59.000Z</time>
      </trkpt>
      <trkpt lat="49.31837" lon="-0.54121">
        <ele>45.599998474121</ele>
        <time>2026-03-24T14:52:00.000Z</time>
      </trkpt>
      <trkpt lat="49.31837" lon="-0.54121">
        <ele>45.599998474121</ele>
        <time>2026-03-24T14:52:01.000Z</time>
      </trkpt>
      <trkpt lat="49.31837" lon="-0.54121">
        <ele>45.599998474121</ele>
        <time>2026-03-24T14:52:02.000Z</time>
      </trkpt>
      <trkpt lat="49.31837" lon="-0.54121">
        <ele>45.599998474121</ele>
        <time>2026-03-24T14:52:03.000Z</time>
      </trkpt>
      <trkpt lat="49.31837" lon="-0.54121">
        <ele>45.599998474121</ele>
        <time>2026-03-24T14:52:04.000Z</time>
      </trkpt>
      <trkpt lat="49.31837" lon="-0.54122">
        <ele>45.599998474121</ele>
        <time>2026-03-24T14:52:05.000Z</time>
      </trkpt>
      <trkpt lat="49.31838" lon="-0.54122">
        <ele>45.599998474121</ele>
        <time>2026-03-24T14:52:06.000Z</time>
      </trkpt>
      <trkpt lat="49.31838" lon="-0.54123">
        <ele>45.599998474121</ele>
        <time>2026-03-24T14:52:07.000Z</time>
      </trkpt>
      <trkpt lat="49.31838" lon="-0.54124">
        <ele>45.599998474121</ele>
        <time>2026-03-24T14:52:08.000Z</time>
      </trkpt>
      <trkpt lat="49.31838" lon="-0.54125">
        <ele>45.599998474121</ele>
        <time>2026-03-24T14:52:09.000Z</time>
      </trkpt>
      <trkpt lat="49.31839" lon="-0.54129">
        <ele>45.599998474121</ele>
        <time>2026-03-24T14:52:10.000Z</time>
      </trkpt>
      <trkpt lat="49.3184" lon="-0.5413">
        <ele>45.599998474121</ele>
        <time>2026-03-24T14:52:11.000Z</time>
      </trkpt>
      <trkpt lat="49.3184" lon="-0.54132">
        <ele>45.599998474121</ele>
        <time>2026-03-24T14:52:12.000Z</time>
      </trkpt>
      <trkpt lat="49.3184" lon="-0.54134">
        <ele>45.599998474121</ele>
        <time>2026-03-24T14:52:13.000Z</time>
      </trkpt>
      <trkpt lat="49.31841" lon="-0.54136">
        <ele>45.599998474121</ele>
        <time>2026-03-24T14:52:14.000Z</time>
      </trkpt>
      <trkpt lat="49.31841" lon="-0.54137">
        <ele>45.599998474121</ele>
        <time>2026-03-24T14:52:15.000Z</time>
      </trkpt>
      <trkpt lat="49.31841" lon="-0.54138">
        <ele>45.599998474121</ele>
        <time>2026-03-24T14:52:16.000Z</time>
      </trkpt>
      <trkpt lat="49.31841" lon="-0.5414">
        <ele>45.599998474121</ele>
        <time>2026-03-24T14:52:17.000Z</time>
      </trkpt>
      <trkpt lat="49.31841" lon="-0.54141">
        <ele>45.599998474121</ele>
        <time>2026-03-24T14:52:18.000Z</time>
      </trkpt>
      <trkpt lat="49.31841" lon="-0.54143">
        <ele>45.599998474121</ele>
        <time>2026-03-24T14:52:19.000Z</time>
      </trkpt>
      <trkpt lat="49.31841" lon="-0.54144">
        <ele>45.599998474121</ele>
        <time>2026-03-24T14:52:20.000Z</time>
      </trkpt>
      <trkpt lat="49.31841" lon="-0.54145">
        <ele>45.599998474121</ele>
        <time>2026-03-24T14:52:21.000Z</time>
      </trkpt>
      <trkpt lat="49.31842" lon="-0.54147">
        <ele>45.599998474121</ele>
        <time>2026-03-24T14:52:22.000Z</time>
      </trkpt>
      <trkpt lat="49.31842" lon="-0.54148">
        <ele>45.599998474121</ele>
        <time>2026-03-24T14:52:23.000Z</time>
      </trkpt>
      <trkpt lat="49.31842" lon="-0.5415">
        <ele>45.599998474121</ele>
        <time>2026-03-24T14:52:24.000Z</time>
      </trkpt>
      <trkpt lat="49.31842" lon="-0.54151">
        <ele>45.400001525879</ele>
        <time>2026-03-24T14:52:25.000Z</time>
      </trkpt>
      <trkpt lat="49.31842" lon="-0.54153">
        <ele>45.400001525879</ele>
        <time>2026-03-24T14:52:26.000Z</time>
      </trkpt>
      <trkpt lat="49.31842" lon="-0.54154">
        <ele>45.400001525879</ele>
        <time>2026-03-24T14:52:27.000Z</time>
      </trkpt>
      <trkpt lat="49.31842" lon="-0.54155">
        <ele>45.599998474121</ele>
        <time>2026-03-24T14:52:28.000Z</time>
      </trkpt>
      <trkpt lat="49.31843" lon="-0.54156">
        <ele>45.599998474121</ele>
        <time>2026-03-24T14:52:29.000Z</time>
      </trkpt>
      <trkpt lat="49.31843" lon="-0.54158">
        <ele>45.599998474121</ele>
        <time>2026-03-24T14:52:30.000Z</time>
      </trkpt>
      <trkpt lat="49.31843" lon="-0.5416">
        <ele>45.799999237061</ele>
        <time>2026-03-24T14:52:31.000Z</time>
      </trkpt>
      <trkpt lat="49.31843" lon="-0.54162">
        <ele>45.799999237061</ele>
        <time>2026-03-24T14:52:32.000Z</time>
      </trkpt>
      <trkpt lat="49.31843" lon="-0.54164">
        <ele>45.799999237061</ele>
        <time>2026-03-24T14:52:33.000Z</time>
      </trkpt>
      <trkpt lat="49.31843" lon="-0.54167">
        <ele>46</ele>
        <time>2026-03-24T14:52:34.000Z</time>
      </trkpt>
      <trkpt lat="49.31843" lon="-0.54168">
        <ele>46</ele>
        <time>2026-03-24T14:52:35.000Z</time>
      </trkpt>
      <trkpt lat="49.31843" lon="-0.5417">
        <ele>46</ele>
        <time>2026-03-24T14:52:36.000Z</time>
      </trkpt>
      <trkpt lat="49.31843" lon="-0.54172">
        <ele>46</ele>
        <time>2026-03-24T14:52:37.000Z</time>
      </trkpt>
      <trkpt lat="49.31842" lon="-0.54174">
        <ele>46</ele>
        <time>2026-03-24T14:52:38.000Z</time>
      </trkpt>
      <trkpt lat="49.31843" lon="-0.54179">
        <ele>46</ele>
        <time>2026-03-24T14:52:39.000Z</time>
      </trkpt>
      <trkpt lat="49.31843" lon="-0.5418">
        <ele>46</ele>
        <time>2026-03-24T14:52:40.000Z</time>
      </trkpt>
      <trkpt lat="49.31843" lon="-0.54181">
        <ele>46</ele>
        <time>2026-03-24T14:52:41.000Z</time>
      </trkpt>
      <trkpt lat="49.31843" lon="-0.54182">
        <ele>46</ele>
        <time>2026-03-24T14:52:42.000Z</time>
      </trkpt>
      <trkpt lat="49.31843" lon="-0.54184">
        <ele>46</ele>
        <time>2026-03-24T14:52:43.000Z</time>
      </trkpt>
      <trkpt lat="49.31843" lon="-0.54186">
        <ele>46</ele>
        <time>2026-03-24T14:52:44.000Z</time>
      </trkpt>
      <trkpt lat="49.31843" lon="-0.54188">
        <ele>46</ele>
        <time>2026-03-24T14:52:45.000Z</time>
      </trkpt>
      <trkpt lat="49.31843" lon="-0.5419">
        <ele>46</ele>
        <time>2026-03-24T14:52:46.000Z</time>
      </trkpt>
      <trkpt lat="49.31843" lon="-0.54191">
        <ele>46</ele>
        <time>2026-03-24T14:52:47.000Z</time>
      </trkpt>
      <trkpt lat="49.31843" lon="-0.54193">
        <ele>46</ele>
        <time>2026-03-24T14:52:48.000Z</time>
      </trkpt>
      <trkpt lat="49.31843" lon="-0.54195">
        <ele>46</ele>
        <time>2026-03-24T14:52:49.000Z</time>
      </trkpt>
      <trkpt lat="49.31843" lon="-0.54197">
        <ele>46</ele>
        <time>2026-03-24T14:52:50.000Z</time>
      </trkpt>
      <trkpt lat="49.31844" lon="-0.54198">
        <ele>46</ele>
        <time>2026-03-24T14:52:51.000Z</time>
      </trkpt>
      <trkpt lat="49.31844" lon="-0.542">
        <ele>46</ele>
        <time>2026-03-24T14:52:52.000Z</time>
      </trkpt>
      <trkpt lat="49.31844" lon="-0.54202">
        <ele>46</ele>
        <time>2026-03-24T14:52:53.000Z</time>
      </trkpt>
      <trkpt lat="49.31844" lon="-0.54203">
        <ele>46</ele>
        <time>2026-03-24T14:52:54.000Z</time>
      </trkpt>
      <trkpt lat="49.31845" lon="-0.54205">
        <ele>46</ele>
        <time>2026-03-24T14:52:55.000Z</time>
      </trkpt>
      <trkpt lat="49.31845" lon="-0.54207">
        <ele>46</ele>
        <time>2026-03-24T14:52:56.000Z</time>
      </trkpt>
      <trkpt lat="49.31845" lon="-0.54209">
        <ele>46</ele>
        <time>2026-03-24T14:52:57.000Z</time>
      </trkpt>
      <trkpt lat="49.31846" lon="-0.54211">
        <ele>46</ele>
        <time>2026-03-24T14:52:58.000Z</time>
      </trkpt>
      <trkpt lat="49.31846" lon="-0.54212">
        <ele>46</ele>
        <time>2026-03-24T14:52:59.000Z</time>
      </trkpt>
      <trkpt lat="49.31846" lon="-0.54214">
        <ele>46</ele>
        <time>2026-03-24T14:53:00.000Z</time>
      </trkpt>
      <trkpt lat="49.31846" lon="-0.54216">
        <ele>46</ele>
        <time>2026-03-24T14:53:01.000Z</time>
      </trkpt>
      <trkpt lat="49.31846" lon="-0.54217">
        <ele>46</ele>
        <time>2026-03-24T14:53:02.000Z</time>
      </trkpt>
      <trkpt lat="49.31846" lon="-0.54219">
        <ele>46</ele>
        <time>2026-03-24T14:53:03.000Z</time>
      </trkpt>
      <trkpt lat="49.31847" lon="-0.54221">
        <ele>46</ele>
        <time>2026-03-24T14:53:04.000Z</time>
      </trkpt>
      <trkpt lat="49.31847" lon="-0.54223">
        <ele>46</ele>
        <time>2026-03-24T14:53:05.000Z</time>
      </trkpt>
      <trkpt lat="49.31847" lon="-0.54225">
        <ele>46</ele>
        <time>2026-03-24T14:53:06.000Z</time>
      </trkpt>
      <trkpt lat="49.31847" lon="-0.54227">
        <ele>46</ele>
        <time>2026-03-24T14:53:07.000Z</time>
      </trkpt>
      <trkpt lat="49.31848" lon="-0.54229">
        <ele>46</ele>
        <time>2026-03-24T14:53:08.000Z</time>
      </trkpt>
      <trkpt lat="49.31848" lon="-0.5423">
        <ele>46</ele>
        <time>2026-03-24T14:53:09.000Z</time>
      </trkpt>
      <trkpt lat="49.31848" lon="-0.54232">
        <ele>46</ele>
        <time>2026-03-24T14:53:10.000Z</time>
      </trkpt>
      <trkpt lat="49.31848" lon="-0.54234">
        <ele>46</ele>
        <time>2026-03-24T14:53:11.000Z</time>
      </trkpt>
      <trkpt lat="49.31848" lon="-0.54236">
        <ele>45.799999237061</ele>
        <time>2026-03-24T14:53:12.000Z</time>
      </trkpt>
      <trkpt lat="49.31849" lon="-0.54237">
        <ele>45.799999237061</ele>
        <time>2026-03-24T14:53:13.000Z</time>
      </trkpt>
      <trkpt lat="49.31849" lon="-0.54239">
        <ele>45.799999237061</ele>
        <time>2026-03-24T14:53:14.000Z</time>
      </trkpt>
      <trkpt lat="49.31849" lon="-0.54241">
        <ele>45.599998474121</ele>
        <time>2026-03-24T14:53:15.000Z</time>
      </trkpt>
      <trkpt lat="49.31849" lon="-0.54242">
        <ele>45.599998474121</ele>
        <time>2026-03-24T14:53:16.000Z</time>
      </trkpt>
      <trkpt lat="49.31849" lon="-0.54244">
        <ele>45.599998474121</ele>
        <time>2026-03-24T14:53:17.000Z</time>
      </trkpt>
      <trkpt lat="49.3185" lon="-0.54245">
        <ele>45.400001525879</ele>
        <time>2026-03-24T14:53:18.000Z</time>
      </trkpt>
      <trkpt lat="49.3185" lon="-0.54247">
        <ele>45.400001525879</ele>
        <time>2026-03-24T14:53:19.000Z</time>
      </trkpt>
      <trkpt lat="49.3185" lon="-0.54249">
        <ele>45.400001525879</ele>
        <time>2026-03-24T14:53:20.000Z</time>
      </trkpt>
      <trkpt lat="49.3185" lon="-0.54251">
        <ele>45.200000762939</ele>
        <time>2026-03-24T14:53:21.000Z</time>
      </trkpt>
      <trkpt lat="49.3185" lon="-0.54252">
        <ele>45.200000762939</ele>
        <time>2026-03-24T14:53:22.000Z</time>
      </trkpt>
      <trkpt lat="49.3185" lon="-0.54254">
        <ele>45.200000762939</ele>
        <time>2026-03-24T14:53:23.000Z</time>
      </trkpt>
      <trkpt lat="49.3185" lon="-0.54255">
        <ele>45</ele>
        <time>2026-03-24T14:53:24.000Z</time>
      </trkpt>
      <trkpt lat="49.31851" lon="-0.54257">
        <ele>45</ele>
        <time>2026-03-24T14:53:25.000Z</time>
      </trkpt>
      <trkpt lat="49.31851" lon="-0.54258">
        <ele>45</ele>
        <time>2026-03-24T14:53:26.000Z</time>
      </trkpt>
      <trkpt lat="49.31851" lon="-0.5426">
        <ele>45</ele>
        <time>2026-03-24T14:53:27.000Z</time>
      </trkpt>
      <trkpt lat="49.31851" lon="-0.54262">
        <ele>45</ele>
        <time>2026-03-24T14:53:28.000Z</time>
      </trkpt>
      <trkpt lat="49.31852" lon="-0.54264">
        <ele>45</ele>
        <time>2026-03-24T14:53:29.000Z</time>
      </trkpt>
      <trkpt lat="49.31852" lon="-0.54265">
        <ele>45</ele>
        <time>2026-03-24T14:53:30.000Z</time>
      </trkpt>
      <trkpt lat="49.31852" lon="-0.54266">
        <ele>45</ele>
        <time>2026-03-24T14:53:31.000Z</time>
      </trkpt>
      <trkpt lat="49.31853" lon="-0.54269">
        <ele>45</ele>
        <time>2026-03-24T14:53:32.000Z</time>
      </trkpt>
      <trkpt lat="49.31853" lon="-0.54272">
        <ele>45</ele>
        <time>2026-03-24T14:53:33.000Z</time>
      </trkpt>
      <trkpt lat="49.31853" lon="-0.54274">
        <ele>45</ele>
        <time>2026-03-24T14:53:34.000Z</time>
      </trkpt>
      <trkpt lat="49.31854" lon="-0.54276">
        <ele>45</ele>
        <time>2026-03-24T14:53:35.000Z</time>
      </trkpt>
      <trkpt lat="49.31854" lon="-0.54277">
        <ele>45</ele>
        <time>2026-03-24T14:53:36.000Z</time>
      </trkpt>
      <trkpt lat="49.31854" lon="-0.54279">
        <ele>45</ele>
        <time>2026-03-24T14:53:37.000Z</time>
      </trkpt>
      <trkpt lat="49.31854" lon="-0.54281">
        <ele>45</ele>
        <time>2026-03-24T14:53:38.000Z</time>
      </trkpt>
      <trkpt lat="49.31855" lon="-0.54282">
        <ele>45</ele>
        <time>2026-03-24T14:53:39.000Z</time>
      </trkpt>
      <trkpt lat="49.31855" lon="-0.54284">
        <ele>45</ele>
        <time>2026-03-24T14:53:40.000Z</time>
      </trkpt>
      <trkpt lat="49.31855" lon="-0.54286">
        <ele>45</ele>
        <time>2026-03-24T14:53:41.000Z</time>
      </trkpt>
      <trkpt lat="49.31855" lon="-0.54288">
        <ele>45</ele>
        <time>2026-03-24T14:53:42.000Z</time>
      </trkpt>
      <trkpt lat="49.31855" lon="-0.5429">
        <ele>45</ele>
        <time>2026-03-24T14:53:43.000Z</time>
      </trkpt>
      <trkpt lat="49.31855" lon="-0.54292">
        <ele>45</ele>
        <time>2026-03-24T14:53:44.000Z</time>
      </trkpt>
      <trkpt lat="49.31855" lon="-0.54294">
        <ele>45</ele>
        <time>2026-03-24T14:53:45.000Z</time>
      </trkpt>
      <trkpt lat="49.31856" lon="-0.54295">
        <ele>45</ele>
        <time>2026-03-24T14:53:46.000Z</time>
      </trkpt>
      <trkpt lat="49.31856" lon="-0.54297">
        <ele>45</ele>
        <time>2026-03-24T14:53:47.000Z</time>
      </trkpt>
      <trkpt lat="49.31856" lon="-0.54299">
        <ele>45</ele>
        <time>2026-03-24T14:53:48.000Z</time>
      </trkpt>
      <trkpt lat="49.31856" lon="-0.54301">
        <ele>45</ele>
        <time>2026-03-24T14:53:49.000Z</time>
      </trkpt>
      <trkpt lat="49.31856" lon="-0.54302">
        <ele>45</ele>
        <time>2026-03-24T14:53:50.000Z</time>
      </trkpt>
      <trkpt lat="49.31856" lon="-0.54304">
        <ele>45</ele>
        <time>2026-03-24T14:53:51.000Z</time>
      </trkpt>
      <trkpt lat="49.31856" lon="-0.54305">
        <ele>45</ele>
        <time>2026-03-24T14:53:52.000Z</time>
      </trkpt>
      <trkpt lat="49.31856" lon="-0.54307">
        <ele>45</ele>
        <time>2026-03-24T14:53:53.000Z</time>
      </trkpt>
      <trkpt lat="49.31856" lon="-0.54309">
        <ele>45</ele>
        <time>2026-03-24T14:53:54.000Z</time>
      </trkpt>
      <trkpt lat="49.31856" lon="-0.5431">
        <ele>45</ele>
        <time>2026-03-24T14:53:55.000Z</time>
      </trkpt>
      <trkpt lat="49.31857" lon="-0.54312">
        <ele>45</ele>
        <time>2026-03-24T14:53:56.000Z</time>
      </trkpt>
      <trkpt lat="49.31857" lon="-0.54314">
        <ele>45</ele>
        <time>2026-03-24T14:53:57.000Z</time>
      </trkpt>
      <trkpt lat="49.31857" lon="-0.54315">
        <ele>45</ele>
        <time>2026-03-24T14:53:58.000Z</time>
      </trkpt>
      <trkpt lat="49.31857" lon="-0.54317">
        <ele>45</ele>
        <time>2026-03-24T14:53:59.000Z</time>
      </trkpt>
      <trkpt lat="49.31857" lon="-0.54319">
        <ele>44.799999237061</ele>
        <time>2026-03-24T14:54:00.000Z</time>
      </trkpt>
      <trkpt lat="49.31858" lon="-0.5432">
        <ele>44.799999237061</ele>
        <time>2026-03-24T14:54:01.000Z</time>
      </trkpt>
      <trkpt lat="49.31858" lon="-0.54322">
        <ele>44.799999237061</ele>
        <time>2026-03-24T14:54:02.000Z</time>
      </trkpt>
      <trkpt lat="49.31858" lon="-0.54324">
        <ele>44.799999237061</ele>
        <time>2026-03-24T14:54:03.000Z</time>
      </trkpt>
      <trkpt lat="49.31859" lon="-0.54326">
        <ele>44.799999237061</ele>
        <time>2026-03-24T14:54:04.000Z</time>
      </trkpt>
      <trkpt lat="49.31859" lon="-0.54327">
        <ele>44.799999237061</ele>
        <time>2026-03-24T14:54:05.000Z</time>
      </trkpt>
      <trkpt lat="49.31859" lon="-0.54329">
        <ele>44.799999237061</ele>
        <time>2026-03-24T14:54:06.000Z</time>
      </trkpt>
      <trkpt lat="49.31859" lon="-0.54331">
        <ele>44.799999237061</ele>
        <time>2026-03-24T14:54:07.000Z</time>
      </trkpt>
      <trkpt lat="49.31859" lon="-0.54332">
        <ele>44.799999237061</ele>
        <time>2026-03-24T14:54:08.000Z</time>
      </trkpt>
      <trkpt lat="49.3186" lon="-0.54334">
        <ele>44.799999237061</ele>
        <time>2026-03-24T14:54:09.000Z</time>
      </trkpt>
      <trkpt lat="49.3186" lon="-0.54336">
        <ele>44.799999237061</ele>
        <time>2026-03-24T14:54:10.000Z</time>
      </trkpt>
      <trkpt lat="49.3186" lon="-0.54337">
        <ele>44.799999237061</ele>
        <time>2026-03-24T14:54:11.000Z</time>
      </trkpt>
      <trkpt lat="49.3186" lon="-0.54339">
        <ele>44.799999237061</ele>
        <time>2026-03-24T14:54:12.000Z</time>
      </trkpt>
      <trkpt lat="49.3186" lon="-0.5434">
        <ele>44.799999237061</ele>
        <time>2026-03-24T14:54:13.000Z</time>
      </trkpt>
      <trkpt lat="49.3186" lon="-0.54342">
        <ele>44.799999237061</ele>
        <time>2026-03-24T14:54:14.000Z</time>
      </trkpt>
      <trkpt lat="49.3186" lon="-0.54344">
        <ele>44.599998474121</ele>
        <time>2026-03-24T14:54:15.000Z</time>
      </trkpt>
      <trkpt lat="49.3186" lon="-0.54345">
        <ele>44.599998474121</ele>
        <time>2026-03-24T14:54:16.000Z</time>
      </trkpt>
      <trkpt lat="49.3186" lon="-0.54347">
        <ele>44.599998474121</ele>
        <time>2026-03-24T14:54:17.000Z</time>
      </trkpt>
      <trkpt lat="49.31861" lon="-0.54349">
        <ele>44.599998474121</ele>
        <time>2026-03-24T14:54:18.000Z</time>
      </trkpt>
      <trkpt lat="49.31861" lon="-0.54351">
        <ele>44.599998474121</ele>
        <time>2026-03-24T14:54:19.000Z</time>
      </trkpt>
      <trkpt lat="49.31861" lon="-0.54353">
        <ele>44.599998474121</ele>
        <time>2026-03-24T14:54:20.000Z</time>
      </trkpt>
      <trkpt lat="49.31861" lon="-0.54355">
        <ele>44.599998474121</ele>
        <time>2026-03-24T14:54:21.000Z</time>
      </trkpt>
      <trkpt lat="49.31861" lon="-0.54356">
        <ele>44.599998474121</ele>
        <time>2026-03-24T14:54:22.000Z</time>
      </trkpt>
      <trkpt lat="49.31861" lon="-0.54358">
        <ele>44.599998474121</ele>
        <time>2026-03-24T14:54:23.000Z</time>
      </trkpt>
      <trkpt lat="49.31861" lon="-0.54359">
        <ele>44.599998474121</ele>
        <time>2026-03-24T14:54:24.000Z</time>
      </trkpt>
      <trkpt lat="49.31862" lon="-0.5436">
        <ele>44.799999237061</ele>
        <time>2026-03-24T14:54:25.000Z</time>
      </trkpt>
      <trkpt lat="49.31862" lon="-0.54362">
        <ele>44.799999237061</ele>
        <time>2026-03-24T14:54:26.000Z</time>
      </trkpt>
      <trkpt lat="49.31862" lon="-0.54364">
        <ele>44.799999237061</ele>
        <time>2026-03-24T14:54:27.000Z</time>
      </trkpt>
      <trkpt lat="49.31862" lon="-0.54365">
        <ele>44.799999237061</ele>
        <time>2026-03-24T14:54:28.000Z</time>
      </trkpt>
      <trkpt lat="49.31862" lon="-0.54367">
        <ele>44.799999237061</ele>
        <time>2026-03-24T14:54:29.000Z</time>
      </trkpt>
      <trkpt lat="49.31862" lon="-0.54368">
        <ele>44.799999237061</ele>
        <time>2026-03-24T14:54:30.000Z</time>
      </trkpt>
      <trkpt lat="49.31862" lon="-0.5437">
        <ele>44.799999237061</ele>
        <time>2026-03-24T14:54:31.000Z</time>
      </trkpt>
      <trkpt lat="49.31862" lon="-0.54372">
        <ele>44.799999237061</ele>
        <time>2026-03-24T14:54:32.000Z</time>
      </trkpt>
      <trkpt lat="49.31863" lon="-0.54374">
        <ele>44.799999237061</ele>
        <time>2026-03-24T14:54:33.000Z</time>
      </trkpt>
      <trkpt lat="49.31863" lon="-0.54376">
        <ele>44.799999237061</ele>
        <time>2026-03-24T14:54:34.000Z</time>
      </trkpt>
      <trkpt lat="49.31863" lon="-0.54378">
        <ele>44.799999237061</ele>
        <time>2026-03-24T14:54:35.000Z</time>
      </trkpt>
      <trkpt lat="49.31864" lon="-0.5438">
        <ele>44.799999237061</ele>
        <time>2026-03-24T14:54:36.000Z</time>
      </trkpt>
      <trkpt lat="49.31864" lon="-0.54382">
        <ele>44.799999237061</ele>
        <time>2026-03-24T14:54:37.000Z</time>
      </trkpt>
      <trkpt lat="49.31864" lon="-0.54384">
        <ele>44.799999237061</ele>
        <time>2026-03-24T14:54:38.000Z</time>
      </trkpt>
      <trkpt lat="49.31865" lon="-0.54385">
        <ele>44.599998474121</ele>
        <time>2026-03-24T14:54:39.000Z</time>
      </trkpt>
      <trkpt lat="49.31865" lon="-0.54387">
        <ele>44.599998474121</ele>
        <time>2026-03-24T14:54:40.000Z</time>
      </trkpt>
      <trkpt lat="49.31865" lon="-0.54388">
        <ele>44.599998474121</ele>
        <time>2026-03-24T14:54:41.000Z</time>
      </trkpt>
      <trkpt lat="49.31865" lon="-0.5439">
        <ele>44.599998474121</ele>
        <time>2026-03-24T14:54:42.000Z</time>
      </trkpt>
      <trkpt lat="49.31865" lon="-0.54391">
        <ele>44.599998474121</ele>
        <time>2026-03-24T14:54:43.000Z</time>
      </trkpt>
      <trkpt lat="49.31866" lon="-0.54393">
        <ele>44.599998474121</ele>
        <time>2026-03-24T14:54:44.000Z</time>
      </trkpt>
      <trkpt lat="49.31866" lon="-0.54395">
        <ele>44.599998474121</ele>
        <time>2026-03-24T14:54:45.000Z</time>
      </trkpt>
      <trkpt lat="49.31866" lon="-0.54397">
        <ele>44.599998474121</ele>
        <time>2026-03-24T14:54:46.000Z</time>
      </trkpt>
      <trkpt lat="49.31866" lon="-0.54398">
        <ele>44.599998474121</ele>
        <time>2026-03-24T14:54:47.000Z</time>
      </trkpt>
      <trkpt lat="49.31866" lon="-0.544">
        <ele>44.599998474121</ele>
        <time>2026-03-24T14:54:48.000Z</time>
      </trkpt>
      <trkpt lat="49.31867" lon="-0.54401">
        <ele>44.599998474121</ele>
        <time>2026-03-24T14:54:49.000Z</time>
      </trkpt>
      <trkpt lat="49.31867" lon="-0.54403">
        <ele>44.599998474121</ele>
        <time>2026-03-24T14:54:50.000Z</time>
      </trkpt>
      <trkpt lat="49.31867" lon="-0.54404">
        <ele>44.599998474121</ele>
        <time>2026-03-24T14:54:51.000Z</time>
      </trkpt>
      <trkpt lat="49.31867" lon="-0.54406">
        <ele>44.599998474121</ele>
        <time>2026-03-24T14:54:52.000Z</time>
      </trkpt>
      <trkpt lat="49.31867" lon="-0.54408">
        <ele>44.599998474121</ele>
        <time>2026-03-24T14:54:53.000Z</time>
      </trkpt>
      <trkpt lat="49.31867" lon="-0.5441">
        <ele>44.799999237061</ele>
        <time>2026-03-24T14:54:54.000Z</time>
      </trkpt>
      <trkpt lat="49.31868" lon="-0.54412">
        <ele>44.799999237061</ele>
        <time>2026-03-24T14:54:55.000Z</time>
      </trkpt>
      <trkpt lat="49.31868" lon="-0.54413">
        <ele>44.799999237061</ele>
        <time>2026-03-24T14:54:56.000Z</time>
      </trkpt>
      <trkpt lat="49.31868" lon="-0.54415">
        <ele>44.799999237061</ele>
        <time>2026-03-24T14:54:57.000Z</time>
      </trkpt>
      <trkpt lat="49.31869" lon="-0.54417">
        <ele>45</ele>
        <time>2026-03-24T14:54:58.000Z</time>
      </trkpt>
      <trkpt lat="49.31869" lon="-0.54418">
        <ele>45</ele>
        <time>2026-03-24T14:54:59.000Z</time>
      </trkpt>
      <trkpt lat="49.3187" lon="-0.5442">
        <ele>45</ele>
        <time>2026-03-24T14:55:00.000Z</time>
      </trkpt>
      <trkpt lat="49.3187" lon="-0.54421">
        <ele>44.799999237061</ele>
        <time>2026-03-24T14:55:01.000Z</time>
      </trkpt>
      <trkpt lat="49.3187" lon="-0.54423">
        <ele>44.799999237061</ele>
        <time>2026-03-24T14:55:02.000Z</time>
      </trkpt>
      <trkpt lat="49.3187" lon="-0.54425">
        <ele>44.799999237061</ele>
        <time>2026-03-24T14:55:03.000Z</time>
      </trkpt>
      <trkpt lat="49.3187" lon="-0.54427">
        <ele>44.599998474121</ele>
        <time>2026-03-24T14:55:04.000Z</time>
      </trkpt>
      <trkpt lat="49.31871" lon="-0.54429">
        <ele>44.599998474121</ele>
        <time>2026-03-24T14:55:05.000Z</time>
      </trkpt>
      <trkpt lat="49.31871" lon="-0.54431">
        <ele>44.599998474121</ele>
        <time>2026-03-24T14:55:06.000Z</time>
      </trkpt>
      <trkpt lat="49.31871" lon="-0.54433">
        <ele>44.599998474121</ele>
        <time>2026-03-24T14:55:07.000Z</time>
      </trkpt>
      <trkpt lat="49.31871" lon="-0.54434">
        <ele>44.599998474121</ele>
        <time>2026-03-24T14:55:08.000Z</time>
      </trkpt>
      <trkpt lat="49.31871" lon="-0.54436">
        <ele>44.599998474121</ele>
        <time>2026-03-24T14:55:09.000Z</time>
      </trkpt>
      <trkpt lat="49.31871" lon="-0.54438">
        <ele>44.599998474121</ele>
        <time>2026-03-24T14:55:10.000Z</time>
      </trkpt>
      <trkpt lat="49.31872" lon="-0.54439">
        <ele>44.599998474121</ele>
        <time>2026-03-24T14:55:11.000Z</time>
      </trkpt>
      <trkpt lat="49.31872" lon="-0.54441">
        <ele>44.599998474121</ele>
        <time>2026-03-24T14:55:12.000Z</time>
      </trkpt>
      <trkpt lat="49.31872" lon="-0.54443">
        <ele>44.599998474121</ele>
        <time>2026-03-24T14:55:13.000Z</time>
      </trkpt>
      <trkpt lat="49.31872" lon="-0.54444">
        <ele>44.599998474121</ele>
        <time>2026-03-24T14:55:14.000Z</time>
      </trkpt>
      <trkpt lat="49.31872" lon="-0.54446">
        <ele>44.599998474121</ele>
        <time>2026-03-24T14:55:15.000Z</time>
      </trkpt>
      <trkpt lat="49.31872" lon="-0.54448">
        <ele>44.599998474121</ele>
        <time>2026-03-24T14:55:16.000Z</time>
      </trkpt>
      <trkpt lat="49.31873" lon="-0.54449">
        <ele>44.599998474121</ele>
        <time>2026-03-24T14:55:17.000Z</time>
      </trkpt>
      <trkpt lat="49.31873" lon="-0.54451">
        <ele>44.599998474121</ele>
        <time>2026-03-24T14:55:18.000Z</time>
      </trkpt>
      <trkpt lat="49.31873" lon="-0.54453">
        <ele>44.599998474121</ele>
        <time>2026-03-24T14:55:19.000Z</time>
      </trkpt>
      <trkpt lat="49.31873" lon="-0.54454">
        <ele>44.599998474121</ele>
        <time>2026-03-24T14:55:20.000Z</time>
      </trkpt>
      <trkpt lat="49.31873" lon="-0.54456">
        <ele>44.599998474121</ele>
        <time>2026-03-24T14:55:21.000Z</time>
      </trkpt>
      <trkpt lat="49.31874" lon="-0.54458">
        <ele>44.599998474121</ele>
        <time>2026-03-24T14:55:22.000Z</time>
      </trkpt>
      <trkpt lat="49.31874" lon="-0.54459">
        <ele>44.599998474121</ele>
        <time>2026-03-24T14:55:23.000Z</time>
      </trkpt>
      <trkpt lat="49.31874" lon="-0.5446">
        <ele>44.599998474121</ele>
        <time>2026-03-24T14:55:24.000Z</time>
      </trkpt>
      <trkpt lat="49.31874" lon="-0.54462">
        <ele>44.599998474121</ele>
        <time>2026-03-24T14:55:25.000Z</time>
      </trkpt>
      <trkpt lat="49.31874" lon="-0.54463">
        <ele>44.599998474121</ele>
        <time>2026-03-24T14:55:26.000Z</time>
      </trkpt>
      <trkpt lat="49.31875" lon="-0.54465">
        <ele>44.599998474121</ele>
        <time>2026-03-24T14:55:27.000Z</time>
      </trkpt>
      <trkpt lat="49.31875" lon="-0.54466">
        <ele>44.599998474121</ele>
        <time>2026-03-24T14:55:28.000Z</time>
      </trkpt>
      <trkpt lat="49.31875" lon="-0.54468">
        <ele>44.599998474121</ele>
        <time>2026-03-24T14:55:29.000Z</time>
      </trkpt>
      <trkpt lat="49.31875" lon="-0.5447">
        <ele>44.599998474121</ele>
        <time>2026-03-24T14:55:30.000Z</time>
      </trkpt>
      <trkpt lat="49.31875" lon="-0.54472">
        <ele>44.599998474121</ele>
        <time>2026-03-24T14:55:31.000Z</time>
      </trkpt>
      <trkpt lat="49.31876" lon="-0.54474">
        <ele>44.799999237061</ele>
        <time>2026-03-24T14:55:32.000Z</time>
      </trkpt>
      <trkpt lat="49.31876" lon="-0.54476">
        <ele>44.799999237061</ele>
        <time>2026-03-24T14:55:33.000Z</time>
      </trkpt>
      <trkpt lat="49.31876" lon="-0.54478">
        <ele>44.799999237061</ele>
        <time>2026-03-24T14:55:34.000Z</time>
      </trkpt>
      <trkpt lat="49.31876" lon="-0.54479">
        <ele>44.799999237061</ele>
        <time>2026-03-24T14:55:35.000Z</time>
      </trkpt>
      <trkpt lat="49.31876" lon="-0.54481">
        <ele>44.799999237061</ele>
        <time>2026-03-24T14:55:36.000Z</time>
      </trkpt>
      <trkpt lat="49.31876" lon="-0.54482">
        <ele>44.799999237061</ele>
        <time>2026-03-24T14:55:37.000Z</time>
      </trkpt>
      <trkpt lat="49.31876" lon="-0.54483">
        <ele>44.799999237061</ele>
        <time>2026-03-24T14:55:38.000Z</time>
      </trkpt>
      <trkpt lat="49.31876" lon="-0.54485">
        <ele>44.799999237061</ele>
        <time>2026-03-24T14:55:39.000Z</time>
      </trkpt>
      <trkpt lat="49.31877" lon="-0.54486">
        <ele>44.799999237061</ele>
        <time>2026-03-24T14:55:40.000Z</time>
      </trkpt>
      <trkpt lat="49.31877" lon="-0.54488">
        <ele>44.799999237061</ele>
        <time>2026-03-24T14:55:41.000Z</time>
      </trkpt>
      <trkpt lat="49.31877" lon="-0.54489">
        <ele>44.799999237061</ele>
        <time>2026-03-24T14:55:42.000Z</time>
      </trkpt>
      <trkpt lat="49.31877" lon="-0.54491">
        <ele>44.799999237061</ele>
        <time>2026-03-24T14:55:43.000Z</time>
      </trkpt>
      <trkpt lat="49.31877" lon="-0.54493">
        <ele>44.799999237061</ele>
        <time>2026-03-24T14:55:44.000Z</time>
      </trkpt>
      <trkpt lat="49.31877" lon="-0.54494">
        <ele>44.799999237061</ele>
        <time>2026-03-24T14:55:45.000Z</time>
      </trkpt>
      <trkpt lat="49.31878" lon="-0.54496">
        <ele>44.799999237061</ele>
        <time>2026-03-24T14:55:46.000Z</time>
      </trkpt>
      <trkpt lat="49.31878" lon="-0.54497">
        <ele>44.799999237061</ele>
        <time>2026-03-24T14:55:47.000Z</time>
      </trkpt>
      <trkpt lat="49.31878" lon="-0.54499">
        <ele>44.799999237061</ele>
        <time>2026-03-24T14:55:48.000Z</time>
      </trkpt>
      <trkpt lat="49.31878" lon="-0.54501">
        <ele>44.799999237061</ele>
        <time>2026-03-24T14:55:49.000Z</time>
      </trkpt>
      <trkpt lat="49.31878" lon="-0.54503">
        <ele>44.799999237061</ele>
        <time>2026-03-24T14:55:50.000Z</time>
      </trkpt>
      <trkpt lat="49.31878" lon="-0.54505">
        <ele>44.799999237061</ele>
        <time>2026-03-24T14:55:51.000Z</time>
      </trkpt>
      <trkpt lat="49.31879" lon="-0.54508">
        <ele>44.799999237061</ele>
        <time>2026-03-24T14:55:52.000Z</time>
      </trkpt>
      <trkpt lat="49.31879" lon="-0.54509">
        <ele>44.799999237061</ele>
        <time>2026-03-24T14:55:53.000Z</time>
      </trkpt>
      <trkpt lat="49.3188" lon="-0.54511">
        <ele>44.799999237061</ele>
        <time>2026-03-24T14:55:54.000Z</time>
      </trkpt>
      <trkpt lat="49.3188" lon="-0.54513">
        <ele>44.799999237061</ele>
        <time>2026-03-24T14:55:55.000Z</time>
      </trkpt>
      <trkpt lat="49.3188" lon="-0.54515">
        <ele>44.799999237061</ele>
        <time>2026-03-24T14:55:56.000Z</time>
      </trkpt>
      <trkpt lat="49.3188" lon="-0.54517">
        <ele>44.799999237061</ele>
        <time>2026-03-24T14:55:57.000Z</time>
      </trkpt>
      <trkpt lat="49.3188" lon="-0.54519">
        <ele>44.799999237061</ele>
        <time>2026-03-24T14:55:58.000Z</time>
      </trkpt>
      <trkpt lat="49.3188" lon="-0.54521">
        <ele>44.799999237061</ele>
        <time>2026-03-24T14:55:59.000Z</time>
      </trkpt>
      <trkpt lat="49.31881" lon="-0.54522">
        <ele>44.799999237061</ele>
        <time>2026-03-24T14:56:00.000Z</time>
      </trkpt>
      <trkpt lat="49.31881" lon="-0.54524">
        <ele>44.799999237061</ele>
        <time>2026-03-24T14:56:01.000Z</time>
      </trkpt>
      <trkpt lat="49.31881" lon="-0.54526">
        <ele>44.799999237061</ele>
        <time>2026-03-24T14:56:02.000Z</time>
      </trkpt>
      <trkpt lat="49.31881" lon="-0.54527">
        <ele>44.799999237061</ele>
        <time>2026-03-24T14:56:03.000Z</time>
      </trkpt>
      <trkpt lat="49.31881" lon="-0.54529">
        <ele>44.799999237061</ele>
        <time>2026-03-24T14:56:04.000Z</time>
      </trkpt>
      <trkpt lat="49.31881" lon="-0.54531">
        <ele>45</ele>
        <time>2026-03-24T14:56:05.000Z</time>
      </trkpt>
      <trkpt lat="49.31881" lon="-0.54532">
        <ele>45</ele>
        <time>2026-03-24T14:56:06.000Z</time>
      </trkpt>
      <trkpt lat="49.31881" lon="-0.54534">
        <ele>45</ele>
        <time>2026-03-24T14:56:07.000Z</time>
      </trkpt>
      <trkpt lat="49.31882" lon="-0.54536">
        <ele>45</ele>
        <time>2026-03-24T14:56:08.000Z</time>
      </trkpt>
      <trkpt lat="49.31882" lon="-0.54538">
        <ele>45</ele>
        <time>2026-03-24T14:56:09.000Z</time>
      </trkpt>
      <trkpt lat="49.31882" lon="-0.54539">
        <ele>45</ele>
        <time>2026-03-24T14:56:10.000Z</time>
      </trkpt>
      <trkpt lat="49.31882" lon="-0.54541">
        <ele>45</ele>
        <time>2026-03-24T14:56:11.000Z</time>
      </trkpt>
      <trkpt lat="49.31882" lon="-0.54542">
        <ele>45</ele>
        <time>2026-03-24T14:56:12.000Z</time>
      </trkpt>
      <trkpt lat="49.31882" lon="-0.54544">
        <ele>45</ele>
        <time>2026-03-24T14:56:13.000Z</time>
      </trkpt>
      <trkpt lat="49.31882" lon="-0.54546">
        <ele>45</ele>
        <time>2026-03-24T14:56:14.000Z</time>
      </trkpt>
      <trkpt lat="49.31882" lon="-0.54547">
        <ele>45</ele>
        <time>2026-03-24T14:56:15.000Z</time>
      </trkpt>
      <trkpt lat="49.31882" lon="-0.54549">
        <ele>45</ele>
        <time>2026-03-24T14:56:16.000Z</time>
      </trkpt>
      <trkpt lat="49.31882" lon="-0.5455">
        <ele>45</ele>
        <time>2026-03-24T14:56:17.000Z</time>
      </trkpt>
      <trkpt lat="49.31882" lon="-0.54551">
        <ele>45</ele>
        <time>2026-03-24T14:56:18.000Z</time>
      </trkpt>
      <trkpt lat="49.31882" lon="-0.54551">
        <ele>45</ele>
        <time>2026-03-24T14:56:19.000Z</time>
      </trkpt>
      <trkpt lat="49.31882" lon="-0.54551">
        <ele>45</ele>
        <time>2026-03-24T14:56:20.000Z</time>
      </trkpt>
      <trkpt lat="49.31883" lon="-0.54551">
        <ele>45</ele>
        <time>2026-03-24T14:56:21.000Z</time>
      </trkpt>
      <trkpt lat="49.31882" lon="-0.54552">
        <ele>45</ele>
        <time>2026-03-24T14:56:22.000Z</time>
      </trkpt>
      <trkpt lat="49.31883" lon="-0.54552">
        <ele>45</ele>
        <time>2026-03-24T14:56:23.000Z</time>
      </trkpt>
      <trkpt lat="49.31883" lon="-0.54552">
        <ele>45</ele>
        <time>2026-03-24T14:56:24.000Z</time>
      </trkpt>
      <trkpt lat="49.31883" lon="-0.54552">
        <ele>45</ele>
        <time>2026-03-24T14:56:25.000Z</time>
      </trkpt>
      <trkpt lat="49.31883" lon="-0.54552">
        <ele>45</ele>
        <time>2026-03-24T14:56:26.000Z</time>
      </trkpt>
      <trkpt lat="49.31883" lon="-0.54552">
        <ele>45</ele>
        <time>2026-03-24T14:56:27.000Z</time>
      </trkpt>
      <trkpt lat="49.31883" lon="-0.54553">
        <ele>45</ele>
        <time>2026-03-24T14:56:28.000Z</time>
      </trkpt>
      <trkpt lat="49.31884" lon="-0.54553">
        <ele>45</ele>
        <time>2026-03-24T14:56:29.000Z</time>
      </trkpt>
      <trkpt lat="49.31884" lon="-0.54553">
        <ele>45</ele>
        <time>2026-03-24T14:56:30.000Z</time>
      </trkpt>
      <trkpt lat="49.31884" lon="-0.54553">
        <ele>45</ele>
        <time>2026-03-24T14:56:31.000Z</time>
      </trkpt>
      <trkpt lat="49.31884" lon="-0.54553">
        <ele>45</ele>
        <time>2026-03-24T14:56:32.000Z</time>
      </trkpt>
      <trkpt lat="49.31884" lon="-0.54553">
        <ele>45</ele>
        <time>2026-03-24T14:56:33.000Z</time>
      </trkpt>
      <trkpt lat="49.31884" lon="-0.54554">
        <ele>45</ele>
        <time>2026-03-24T14:56:34.000Z</time>
      </trkpt>
      <trkpt lat="49.31884" lon="-0.54556">
        <ele>45</ele>
        <time>2026-03-24T14:56:35.000Z</time>
      </trkpt>
      <trkpt lat="49.31884" lon="-0.54556">
        <ele>45</ele>
        <time>2026-03-24T14:56:36.000Z</time>
      </trkpt>
      <trkpt lat="49.31885" lon="-0.54558">
        <ele>45</ele>
        <time>2026-03-24T14:56:37.000Z</time>
      </trkpt>
      <trkpt lat="49.31885" lon="-0.54559">
        <ele>45</ele>
        <time>2026-03-24T14:56:38.000Z</time>
      </trkpt>
      <trkpt lat="49.31886" lon="-0.5456">
        <ele>45</ele>
        <time>2026-03-24T14:56:39.000Z</time>
      </trkpt>
      <trkpt lat="49.31886" lon="-0.54561">
        <ele>45</ele>
        <time>2026-03-24T14:56:40.000Z</time>
      </trkpt>
      <trkpt lat="49.31886" lon="-0.54562">
        <ele>45</ele>
        <time>2026-03-24T14:56:41.000Z</time>
      </trkpt>
      <trkpt lat="49.31886" lon="-0.54563">
        <ele>45</ele>
        <time>2026-03-24T14:56:42.000Z</time>
      </trkpt>
      <trkpt lat="49.31886" lon="-0.54565">
        <ele>45</ele>
        <time>2026-03-24T14:56:43.000Z</time>
      </trkpt>
      <trkpt lat="49.31887" lon="-0.54566">
        <ele>45</ele>
        <time>2026-03-24T14:56:44.000Z</time>
      </trkpt>
      <trkpt lat="49.31887" lon="-0.54567">
        <ele>45</ele>
        <time>2026-03-24T14:56:45.000Z</time>
      </trkpt>
      <trkpt lat="49.31887" lon="-0.54569">
        <ele>45</ele>
        <time>2026-03-24T14:56:46.000Z</time>
      </trkpt>
      <trkpt lat="49.31886" lon="-0.5457">
        <ele>45</ele>
        <time>2026-03-24T14:56:47.000Z</time>
      </trkpt>
      <trkpt lat="49.31886" lon="-0.54571">
        <ele>45</ele>
        <time>2026-03-24T14:56:48.000Z</time>
      </trkpt>
      <trkpt lat="49.31886" lon="-0.54573">
        <ele>45</ele>
        <time>2026-03-24T14:56:49.000Z</time>
      </trkpt>
      <trkpt lat="49.31887" lon="-0.54574">
        <ele>45</ele>
        <time>2026-03-24T14:56:50.000Z</time>
      </trkpt>
      <trkpt lat="49.31887" lon="-0.54576">
        <ele>45</ele>
        <time>2026-03-24T14:56:51.000Z</time>
      </trkpt>
      <trkpt lat="49.31887" lon="-0.54578">
        <ele>45</ele>
        <time>2026-03-24T14:56:52.000Z</time>
      </trkpt>
      <trkpt lat="49.31887" lon="-0.54579">
        <ele>45</ele>
        <time>2026-03-24T14:56:53.000Z</time>
      </trkpt>
      <trkpt lat="49.31888" lon="-0.5458">
        <ele>45</ele>
        <time>2026-03-24T14:56:54.000Z</time>
      </trkpt>
      <trkpt lat="49.31888" lon="-0.5458">
        <ele>45</ele>
        <time>2026-03-24T14:56:55.000Z</time>
      </trkpt>
      <trkpt lat="49.31888" lon="-0.5458">
        <ele>45</ele>
        <time>2026-03-24T14:56:56.000Z</time>
      </trkpt>
      <trkpt lat="49.31888" lon="-0.54581">
        <ele>45</ele>
        <time>2026-03-24T14:56:57.000Z</time>
      </trkpt>
      <trkpt lat="49.31888" lon="-0.54581">
        <ele>45</ele>
        <time>2026-03-24T14:56:58.000Z</time>
      </trkpt>
      <trkpt lat="49.31889" lon="-0.54581">
        <ele>45</ele>
        <time>2026-03-24T14:56:59.000Z</time>
      </trkpt>
      <trkpt lat="49.31889" lon="-0.54581">
        <ele>45</ele>
        <time>2026-03-24T14:57:00.000Z</time>
      </trkpt>
      <trkpt lat="49.31888" lon="-0.54581">
        <ele>45</ele>
        <time>2026-03-24T14:57:01.000Z</time>
      </trkpt>
      <trkpt lat="49.31888" lon="-0.54581">
        <ele>45</ele>
        <time>2026-03-24T14:57:02.000Z</time>
      </trkpt>
      <trkpt lat="49.31888" lon="-0.54582">
        <ele>45</ele>
        <time>2026-03-24T14:57:03.000Z</time>
      </trkpt>
      <trkpt lat="49.31888" lon="-0.54583">
        <ele>45</ele>
        <time>2026-03-24T14:57:04.000Z</time>
      </trkpt>
      <trkpt lat="49.31887" lon="-0.54583">
        <ele>45</ele>
        <time>2026-03-24T14:57:05.000Z</time>
      </trkpt>
      <trkpt lat="49.31887" lon="-0.54585">
        <ele>45.200000762939</ele>
        <time>2026-03-24T14:57:06.000Z</time>
      </trkpt>
      <trkpt lat="49.31887" lon="-0.54586">
        <ele>45.200000762939</ele>
        <time>2026-03-24T14:57:07.000Z</time>
      </trkpt>
      <trkpt lat="49.31886" lon="-0.54588">
        <ele>45.200000762939</ele>
        <time>2026-03-24T14:57:08.000Z</time>
      </trkpt>
      <trkpt lat="49.31886" lon="-0.5459">
        <ele>45.200000762939</ele>
        <time>2026-03-24T14:57:09.000Z</time>
      </trkpt>
      <trkpt lat="49.31885" lon="-0.54592">
        <ele>45.400001525879</ele>
        <time>2026-03-24T14:57:10.000Z</time>
      </trkpt>
      <trkpt lat="49.31885" lon="-0.54594">
        <ele>45.400001525879</ele>
        <time>2026-03-24T14:57:11.000Z</time>
      </trkpt>
      <trkpt lat="49.31885" lon="-0.54595">
        <ele>45.400001525879</ele>
        <time>2026-03-24T14:57:12.000Z</time>
      </trkpt>
      <trkpt lat="49.31886" lon="-0.54596">
        <ele>45.400001525879</ele>
        <time>2026-03-24T14:57:13.000Z</time>
      </trkpt>
      <trkpt lat="49.31885" lon="-0.54598">
        <ele>45.599998474121</ele>
        <time>2026-03-24T14:57:14.000Z</time>
      </trkpt>
      <trkpt lat="49.31884" lon="-0.546">
        <ele>45.599998474121</ele>
        <time>2026-03-24T14:57:15.000Z</time>
      </trkpt>
      <trkpt lat="49.31884" lon="-0.54601">
        <ele>45.599998474121</ele>
        <time>2026-03-24T14:57:16.000Z</time>
      </trkpt>
      <trkpt lat="49.31884" lon="-0.54603">
        <ele>45.599998474121</ele>
        <time>2026-03-24T14:57:17.000Z</time>
      </trkpt>
      <trkpt lat="49.31884" lon="-0.54604">
        <ele>45.599998474121</ele>
        <time>2026-03-24T14:57:18.000Z</time>
      </trkpt>
      <trkpt lat="49.31884" lon="-0.54605">
        <ele>45.799999237061</ele>
        <time>2026-03-24T14:57:19.000Z</time>
      </trkpt>
      <trkpt lat="49.31883" lon="-0.54607">
        <ele>45.799999237061</ele>
        <time>2026-03-24T14:57:20.000Z</time>
      </trkpt>
      <trkpt lat="49.31883" lon="-0.54608">
        <ele>45.799999237061</ele>
        <time>2026-03-24T14:57:21.000Z</time>
      </trkpt>
      <trkpt lat="49.31883" lon="-0.5461">
        <ele>45.799999237061</ele>
        <time>2026-03-24T14:57:22.000Z</time>
      </trkpt>
      <trkpt lat="49.31883" lon="-0.54611">
        <ele>46</ele>
        <time>2026-03-24T14:57:23.000Z</time>
      </trkpt>
      <trkpt lat="49.31882" lon="-0.54613">
        <ele>46</ele>
        <time>2026-03-24T14:57:24.000Z</time>
      </trkpt>
      <trkpt lat="49.31882" lon="-0.54614">
        <ele>46</ele>
        <time>2026-03-24T14:57:25.000Z</time>
      </trkpt>
      <trkpt lat="49.31882" lon="-0.54616">
        <ele>46</ele>
        <time>2026-03-24T14:57:26.000Z</time>
      </trkpt>
      <trkpt lat="49.31881" lon="-0.54617">
        <ele>46</ele>
        <time>2026-03-24T14:57:27.000Z</time>
      </trkpt>
      <trkpt lat="49.31881" lon="-0.54618">
        <ele>46</ele>
        <time>2026-03-24T14:57:28.000Z</time>
      </trkpt>
      <trkpt lat="49.3188" lon="-0.54619">
        <ele>46</ele>
        <time>2026-03-24T14:57:29.000Z</time>
      </trkpt>
      <trkpt lat="49.3188" lon="-0.5462">
        <ele>46</ele>
        <time>2026-03-24T14:57:30.000Z</time>
      </trkpt>
      <trkpt lat="49.3188" lon="-0.54622">
        <ele>46</ele>
        <time>2026-03-24T14:57:31.000Z</time>
      </trkpt>
      <trkpt lat="49.31879" lon="-0.54624">
        <ele>46</ele>
        <time>2026-03-24T14:57:32.000Z</time>
      </trkpt>
      <trkpt lat="49.31879" lon="-0.54625">
        <ele>46.200000762939</ele>
        <time>2026-03-24T14:57:33.000Z</time>
      </trkpt>
      <trkpt lat="49.31879" lon="-0.54627">
        <ele>46.200000762939</ele>
        <time>2026-03-24T14:57:34.000Z</time>
      </trkpt>
      <trkpt lat="49.31879" lon="-0.54628">
        <ele>46.200000762939</ele>
        <time>2026-03-24T14:57:35.000Z</time>
      </trkpt>
      <trkpt lat="49.31878" lon="-0.5463">
        <ele>46.200000762939</ele>
        <time>2026-03-24T14:57:36.000Z</time>
      </trkpt>
      <trkpt lat="49.31878" lon="-0.54632">
        <ele>46.200000762939</ele>
        <time>2026-03-24T14:57:37.000Z</time>
      </trkpt>
      <trkpt lat="49.31877" lon="-0.54633">
        <ele>46.200000762939</ele>
        <time>2026-03-24T14:57:38.000Z</time>
      </trkpt>
      <trkpt lat="49.31877" lon="-0.54635">
        <ele>46.400001525879</ele>
        <time>2026-03-24T14:57:39.000Z</time>
      </trkpt>
      <trkpt lat="49.31876" lon="-0.54636">
        <ele>46.400001525879</ele>
        <time>2026-03-24T14:57:40.000Z</time>
      </trkpt>
      <trkpt lat="49.31876" lon="-0.54637">
        <ele>46.400001525879</ele>
        <time>2026-03-24T14:57:41.000Z</time>
      </trkpt>
      <trkpt lat="49.31876" lon="-0.54639">
        <ele>46.400001525879</ele>
        <time>2026-03-24T14:57:42.000Z</time>
      </trkpt>
      <trkpt lat="49.31876" lon="-0.54641">
        <ele>46.400001525879</ele>
        <time>2026-03-24T14:57:43.000Z</time>
      </trkpt>
      <trkpt lat="49.31875" lon="-0.54642">
        <ele>46.400001525879</ele>
        <time>2026-03-24T14:57:44.000Z</time>
      </trkpt>
      <trkpt lat="49.31875" lon="-0.54644">
        <ele>46.599998474121</ele>
        <time>2026-03-24T14:57:45.000Z</time>
      </trkpt>
      <trkpt lat="49.31875" lon="-0.54645">
        <ele>46.599998474121</ele>
        <time>2026-03-24T14:57:46.000Z</time>
      </trkpt>
      <trkpt lat="49.31874" lon="-0.54647">
        <ele>46.599998474121</ele>
        <time>2026-03-24T14:57:47.000Z</time>
      </trkpt>
      <trkpt lat="49.31874" lon="-0.54648">
        <ele>46.599998474121</ele>
        <time>2026-03-24T14:57:48.000Z</time>
      </trkpt>
      <trkpt lat="49.31873" lon="-0.54649">
        <ele>46.599998474121</ele>
        <time>2026-03-24T14:57:49.000Z</time>
      </trkpt>
      <trkpt lat="49.31872" lon="-0.54651">
        <ele>46.599998474121</ele>
        <time>2026-03-24T14:57:50.000Z</time>
      </trkpt>
      <trkpt lat="49.31872" lon="-0.54652">
        <ele>46.599998474121</ele>
        <time>2026-03-24T14:57:51.000Z</time>
      </trkpt>
      <trkpt lat="49.31872" lon="-0.54654">
        <ele>46.599998474121</ele>
        <time>2026-03-24T14:57:52.000Z</time>
      </trkpt>
      <trkpt lat="49.31871" lon="-0.54655">
        <ele>46.599998474121</ele>
        <time>2026-03-24T14:57:53.000Z</time>
      </trkpt>
      <trkpt lat="49.31871" lon="-0.54657">
        <ele>46.599998474121</ele>
        <time>2026-03-24T14:57:54.000Z</time>
      </trkpt>
      <trkpt lat="49.3187" lon="-0.54658">
        <ele>46.599998474121</ele>
        <time>2026-03-24T14:57:55.000Z</time>
      </trkpt>
      <trkpt lat="49.3187" lon="-0.54659">
        <ele>46.400001525879</ele>
        <time>2026-03-24T14:57:56.000Z</time>
      </trkpt>
      <trkpt lat="49.31869" lon="-0.5466">
        <ele>46.400001525879</ele>
        <time>2026-03-24T14:57:57.000Z</time>
      </trkpt>
      <trkpt lat="49.31868" lon="-0.54662">
        <ele>46.400001525879</ele>
        <time>2026-03-24T14:57:58.000Z</time>
      </trkpt>
      <trkpt lat="49.31868" lon="-0.54663">
        <ele>46.400001525879</ele>
        <time>2026-03-24T14:57:59.000Z</time>
      </trkpt>
      <trkpt lat="49.31867" lon="-0.54664">
        <ele>46.400001525879</ele>
        <time>2026-03-24T14:58:00.000Z</time>
      </trkpt>
      <trkpt lat="49.31867" lon="-0.54666">
        <ele>46.400001525879</ele>
        <time>2026-03-24T14:58:01.000Z</time>
      </trkpt>
      <trkpt lat="49.31867" lon="-0.54667">
        <ele>46.400001525879</ele>
        <time>2026-03-24T14:58:02.000Z</time>
      </trkpt>
      <trkpt lat="49.31866" lon="-0.54668">
        <ele>46.400001525879</ele>
        <time>2026-03-24T14:58:03.000Z</time>
      </trkpt>
      <trkpt lat="49.31866" lon="-0.5467">
        <ele>46.400001525879</ele>
        <time>2026-03-24T14:58:04.000Z</time>
      </trkpt>
      <trkpt lat="49.31865" lon="-0.54671">
        <ele>46.400001525879</ele>
        <time>2026-03-24T14:58:05.000Z</time>
      </trkpt>
      <trkpt lat="49.31864" lon="-0.54672">
        <ele>46.400001525879</ele>
        <time>2026-03-24T14:58:06.000Z</time>
      </trkpt>
      <trkpt lat="49.31864" lon="-0.54674">
        <ele>46.200000762939</ele>
        <time>2026-03-24T14:58:07.000Z</time>
      </trkpt>
      <trkpt lat="49.31863" lon="-0.54675">
        <ele>46.200000762939</ele>
        <time>2026-03-24T14:58:08.000Z</time>
      </trkpt>
      <trkpt lat="49.31863" lon="-0.54677">
        <ele>46.200000762939</ele>
        <time>2026-03-24T14:58:09.000Z</time>
      </trkpt>
      <trkpt lat="49.31862" lon="-0.54678">
        <ele>46.200000762939</ele>
        <time>2026-03-24T14:58:10.000Z</time>
      </trkpt>
      <trkpt lat="49.31861" lon="-0.5468">
        <ele>46.200000762939</ele>
        <time>2026-03-24T14:58:11.000Z</time>
      </trkpt>
      <trkpt lat="49.31861" lon="-0.54682">
        <ele>46.200000762939</ele>
        <time>2026-03-24T14:58:12.000Z</time>
      </trkpt>
      <trkpt lat="49.31861" lon="-0.54683">
        <ele>46.200000762939</ele>
        <time>2026-03-24T14:58:13.000Z</time>
      </trkpt>
      <trkpt lat="49.3186" lon="-0.54685">
        <ele>46.200000762939</ele>
        <time>2026-03-24T14:58:14.000Z</time>
      </trkpt>
      <trkpt lat="49.3186" lon="-0.54687">
        <ele>46.200000762939</ele>
        <time>2026-03-24T14:58:15.000Z</time>
      </trkpt>
      <trkpt lat="49.31859" lon="-0.54688">
        <ele>46.200000762939</ele>
        <time>2026-03-24T14:58:16.000Z</time>
      </trkpt>
      <trkpt lat="49.31859" lon="-0.5469">
        <ele>46</ele>
        <time>2026-03-24T14:58:17.000Z</time>
      </trkpt>
      <trkpt lat="49.31858" lon="-0.54691">
        <ele>46</ele>
        <time>2026-03-24T14:58:18.000Z</time>
      </trkpt>
      <trkpt lat="49.31858" lon="-0.54693">
        <ele>46</ele>
        <time>2026-03-24T14:58:19.000Z</time>
      </trkpt>
      <trkpt lat="49.31858" lon="-0.54695">
        <ele>46</ele>
        <time>2026-03-24T14:58:20.000Z</time>
      </trkpt>
      <trkpt lat="49.31858" lon="-0.54697">
        <ele>46</ele>
        <time>2026-03-24T14:58:21.000Z</time>
      </trkpt>
      <trkpt lat="49.31857" lon="-0.54698">
        <ele>46.200000762939</ele>
        <time>2026-03-24T14:58:22.000Z</time>
      </trkpt>
      <trkpt lat="49.31857" lon="-0.54699">
        <ele>46.200000762939</ele>
        <time>2026-03-24T14:58:23.000Z</time>
      </trkpt>
      <trkpt lat="49.31857" lon="-0.54701">
        <ele>46.200000762939</ele>
        <time>2026-03-24T14:58:24.000Z</time>
      </trkpt>
      <trkpt lat="49.31856" lon="-0.54703">
        <ele>46.200000762939</ele>
        <time>2026-03-24T14:58:25.000Z</time>
      </trkpt>
      <trkpt lat="49.31856" lon="-0.54704">
        <ele>46.400001525879</ele>
        <time>2026-03-24T14:58:26.000Z</time>
      </trkpt>
      <trkpt lat="49.31856" lon="-0.54706">
        <ele>46.400001525879</ele>
        <time>2026-03-24T14:58:27.000Z</time>
      </trkpt>
      <trkpt lat="49.31855" lon="-0.54707">
        <ele>46.400001525879</ele>
        <time>2026-03-24T14:58:28.000Z</time>
      </trkpt>
      <trkpt lat="49.31855" lon="-0.54708">
        <ele>46.400001525879</ele>
        <time>2026-03-24T14:58:29.000Z</time>
      </trkpt>
      <trkpt lat="49.31855" lon="-0.5471">
        <ele>46.599998474121</ele>
        <time>2026-03-24T14:58:30.000Z</time>
      </trkpt>
      <trkpt lat="49.31854" lon="-0.54711">
        <ele>46.599998474121</ele>
        <time>2026-03-24T14:58:31.000Z</time>
      </trkpt>
      <trkpt lat="49.31854" lon="-0.54712">
        <ele>46.599998474121</ele>
        <time>2026-03-24T14:58:32.000Z</time>
      </trkpt>
      <trkpt lat="49.31854" lon="-0.54714">
        <ele>46.599998474121</ele>
        <time>2026-03-24T14:58:33.000Z</time>
      </trkpt>
      <trkpt lat="49.31853" lon="-0.54715">
        <ele>46.799999237061</ele>
        <time>2026-03-24T14:58:34.000Z</time>
      </trkpt>
      <trkpt lat="49.31853" lon="-0.54717">
        <ele>46.799999237061</ele>
        <time>2026-03-24T14:58:35.000Z</time>
      </trkpt>
      <trkpt lat="49.31853" lon="-0.54718">
        <ele>46.799999237061</ele>
        <time>2026-03-24T14:58:36.000Z</time>
      </trkpt>
      <trkpt lat="49.31853" lon="-0.54719">
        <ele>46.799999237061</ele>
        <time>2026-03-24T14:58:37.000Z</time>
      </trkpt>
      <trkpt lat="49.31854" lon="-0.5472">
        <ele>46.799999237061</ele>
        <time>2026-03-24T14:58:38.000Z</time>
      </trkpt>
      <trkpt lat="49.31854" lon="-0.54722">
        <ele>47</ele>
        <time>2026-03-24T14:58:39.000Z</time>
      </trkpt>
      <trkpt lat="49.31853" lon="-0.54723">
        <ele>47</ele>
        <time>2026-03-24T14:58:40.000Z</time>
      </trkpt>
      <trkpt lat="49.31853" lon="-0.54724">
        <ele>47</ele>
        <time>2026-03-24T14:58:41.000Z</time>
      </trkpt>
      <trkpt lat="49.31853" lon="-0.54726">
        <ele>47</ele>
        <time>2026-03-24T14:58:42.000Z</time>
      </trkpt>
      <trkpt lat="49.31853" lon="-0.54727">
        <ele>47.200000762939</ele>
        <time>2026-03-24T14:58:43.000Z</time>
      </trkpt>
      <trkpt lat="49.31853" lon="-0.54728">
        <ele>47.200000762939</ele>
        <time>2026-03-24T14:58:44.000Z</time>
      </trkpt>
      <trkpt lat="49.31853" lon="-0.54729">
        <ele>47.200000762939</ele>
        <time>2026-03-24T14:58:45.000Z</time>
      </trkpt>
      <trkpt lat="49.31853" lon="-0.5473">
        <ele>47.200000762939</ele>
        <time>2026-03-24T14:58:46.000Z</time>
      </trkpt>
      <trkpt lat="49.31853" lon="-0.54731">
        <ele>47.200000762939</ele>
        <time>2026-03-24T14:58:47.000Z</time>
      </trkpt>
      <trkpt lat="49.31853" lon="-0.54731">
        <ele>47.200000762939</ele>
        <time>2026-03-24T14:58:48.000Z</time>
      </trkpt>
      <trkpt lat="49.31853" lon="-0.54732">
        <ele>47.200000762939</ele>
        <time>2026-03-24T14:58:49.000Z</time>
      </trkpt>
      <trkpt lat="49.31853" lon="-0.54732">
        <ele>47.400001525879</ele>
        <time>2026-03-24T14:58:50.000Z</time>
      </trkpt>
      <trkpt lat="49.31853" lon="-0.54732">
        <ele>47.400001525879</ele>
        <time>2026-03-24T14:58:51.000Z</time>
      </trkpt>
      <trkpt lat="49.31853" lon="-0.54733">
        <ele>47.400001525879</ele>
        <time>2026-03-24T14:58:52.000Z</time>
      </trkpt>
      <trkpt lat="49.31852" lon="-0.54734">
        <ele>47.400001525879</ele>
        <time>2026-03-24T14:58:53.000Z</time>
      </trkpt>
      <trkpt lat="49.31852" lon="-0.54734">
        <ele>47.400001525879</ele>
        <time>2026-03-24T14:58:54.000Z</time>
      </trkpt>
      <trkpt lat="49.31852" lon="-0.54735">
        <ele>47.400001525879</ele>
        <time>2026-03-24T14:58:55.000Z</time>
      </trkpt>
      <trkpt lat="49.31852" lon="-0.54735">
        <ele>47.400001525879</ele>
        <time>2026-03-24T14:58:56.000Z</time>
      </trkpt>
      <trkpt lat="49.31853" lon="-0.54735">
        <ele>47.400001525879</ele>
        <time>2026-03-24T14:58:57.000Z</time>
      </trkpt>
      <trkpt lat="49.31853" lon="-0.54735">
        <ele>47.400001525879</ele>
        <time>2026-03-24T14:58:58.000Z</time>
      </trkpt>
      <trkpt lat="49.31853" lon="-0.54735">
        <ele>47.400001525879</ele>
        <time>2026-03-24T14:58:59.000Z</time>
      </trkpt>
      <trkpt lat="49.31853" lon="-0.54735">
        <ele>47.400001525879</ele>
        <time>2026-03-24T14:59:00.000Z</time>
      </trkpt>
      <trkpt lat="49.31853" lon="-0.54734">
        <ele>47.400001525879</ele>
        <time>2026-03-24T14:59:01.000Z</time>
      </trkpt>
      <trkpt lat="49.31853" lon="-0.54734">
        <ele>47.400001525879</ele>
        <time>2026-03-24T14:59:02.000Z</time>
      </trkpt>
      <trkpt lat="49.31852" lon="-0.54734">
        <ele>47.400001525879</ele>
        <time>2026-03-24T14:59:03.000Z</time>
      </trkpt>
      <trkpt lat="49.31852" lon="-0.54733">
        <ele>47.400001525879</ele>
        <time>2026-03-24T14:59:04.000Z</time>
      </trkpt>
      <trkpt lat="49.31852" lon="-0.54732">
        <ele>47.400001525879</ele>
        <time>2026-03-24T14:59:05.000Z</time>
      </trkpt>
      <trkpt lat="49.31851" lon="-0.54729">
        <ele>47.200000762939</ele>
        <time>2026-03-24T14:59:06.000Z</time>
      </trkpt>
      <trkpt lat="49.31851" lon="-0.54728">
        <ele>47.200000762939</ele>
        <time>2026-03-24T14:59:07.000Z</time>
      </trkpt>
      <trkpt lat="49.31851" lon="-0.54728">
        <ele>47.200000762939</ele>
        <time>2026-03-24T14:59:08.000Z</time>
      </trkpt>
      <trkpt lat="49.31851" lon="-0.54727">
        <ele>47.200000762939</ele>
        <time>2026-03-24T14:59:09.000Z</time>
      </trkpt>
      <trkpt lat="49.31851" lon="-0.54726">
        <ele>47.200000762939</ele>
        <time>2026-03-24T14:59:10.000Z</time>
      </trkpt>
      <trkpt lat="49.31851" lon="-0.54726">
        <ele>47.200000762939</ele>
        <time>2026-03-24T14:59:11.000Z</time>
      </trkpt>
      <trkpt lat="49.31851" lon="-0.54728">
        <ele>47.200000762939</ele>
        <time>2026-03-24T14:59:12.000Z</time>
      </trkpt>
      <trkpt lat="49.31852" lon="-0.54728">
        <ele>47.200000762939</ele>
        <time>2026-03-24T14:59:13.000Z</time>
      </trkpt>
      <trkpt lat="49.31852" lon="-0.54728">
        <ele>47.200000762939</ele>
        <time>2026-03-24T14:59:14.000Z</time>
      </trkpt>
      <trkpt lat="49.31852" lon="-0.54729">
        <ele>47.200000762939</ele>
        <time>2026-03-24T14:59:15.000Z</time>
      </trkpt>
      <trkpt lat="49.31852" lon="-0.54729">
        <ele>47.200000762939</ele>
        <time>2026-03-24T14:59:16.000Z</time>
      </trkpt>
      <trkpt lat="49.31852" lon="-0.54729">
        <ele>47.200000762939</ele>
        <time>2026-03-24T14:59:17.000Z</time>
      </trkpt>
      <trkpt lat="49.31852" lon="-0.54729">
        <ele>47.200000762939</ele>
        <time>2026-03-24T14:59:18.000Z</time>
      </trkpt>
      <trkpt lat="49.31852" lon="-0.54729">
        <ele>47.200000762939</ele>
        <time>2026-03-24T14:59:19.000Z</time>
      </trkpt>
      <trkpt lat="49.31852" lon="-0.54728">
        <ele>47.200000762939</ele>
        <time>2026-03-24T14:59:20.000Z</time>
      </trkpt>
      <trkpt lat="49.31852" lon="-0.54728">
        <ele>47.200000762939</ele>
        <time>2026-03-24T14:59:21.000Z</time>
      </trkpt>
      <trkpt lat="49.31852" lon="-0.54729">
        <ele>47.200000762939</ele>
        <time>2026-03-24T14:59:22.000Z</time>
      </trkpt>
      <trkpt lat="49.31853" lon="-0.54729">
        <ele>47.200000762939</ele>
        <time>2026-03-24T14:59:23.000Z</time>
      </trkpt>
      <trkpt lat="49.31853" lon="-0.5473">
        <ele>47.200000762939</ele>
        <time>2026-03-24T14:59:24.000Z</time>
      </trkpt>
      <trkpt lat="49.31853" lon="-0.5473">
        <ele>47.200000762939</ele>
        <time>2026-03-24T14:59:25.000Z</time>
      </trkpt>
      <trkpt lat="49.31853" lon="-0.54731">
        <ele>47.200000762939</ele>
        <time>2026-03-24T14:59:26.000Z</time>
      </trkpt>
      <trkpt lat="49.31853" lon="-0.54731">
        <ele>47.200000762939</ele>
        <time>2026-03-24T14:59:27.000Z</time>
      </trkpt>
      <trkpt lat="49.31853" lon="-0.54732">
        <ele>47.400001525879</ele>
        <time>2026-03-24T14:59:28.000Z</time>
      </trkpt>
      <trkpt lat="49.31853" lon="-0.54733">
        <ele>47.400001525879</ele>
        <time>2026-03-24T14:59:29.000Z</time>
      </trkpt>
      <trkpt lat="49.31853" lon="-0.54735">
        <ele>47.400001525879</ele>
        <time>2026-03-24T14:59:30.000Z</time>
      </trkpt>
      <trkpt lat="49.31853" lon="-0.54736">
        <ele>47.400001525879</ele>
        <time>2026-03-24T14:59:31.000Z</time>
      </trkpt>
      <trkpt lat="49.31852" lon="-0.54737">
        <ele>47.599998474121</ele>
        <time>2026-03-24T14:59:32.000Z</time>
      </trkpt>
      <trkpt lat="49.31852" lon="-0.54739">
        <ele>47.599998474121</ele>
        <time>2026-03-24T14:59:33.000Z</time>
      </trkpt>
      <trkpt lat="49.31852" lon="-0.5474">
        <ele>47.599998474121</ele>
        <time>2026-03-24T14:59:34.000Z</time>
      </trkpt>
      <trkpt lat="49.31852" lon="-0.54741">
        <ele>47.599998474121</ele>
        <time>2026-03-24T14:59:35.000Z</time>
      </trkpt>
      <trkpt lat="49.31852" lon="-0.54742">
        <ele>47.599998474121</ele>
        <time>2026-03-24T14:59:36.000Z</time>
      </trkpt>
      <trkpt lat="49.31852" lon="-0.54743">
        <ele>47.599998474121</ele>
        <time>2026-03-24T14:59:37.000Z</time>
      </trkpt>
      <trkpt lat="49.31852" lon="-0.54744">
        <ele>47.799999237061</ele>
        <time>2026-03-24T14:59:38.000Z</time>
      </trkpt>
      <trkpt lat="49.31851" lon="-0.54745">
        <ele>47.799999237061</ele>
        <time>2026-03-24T14:59:39.000Z</time>
      </trkpt>
      <trkpt lat="49.3185" lon="-0.54746">
        <ele>47.799999237061</ele>
        <time>2026-03-24T14:59:40.000Z</time>
      </trkpt>
      <trkpt lat="49.3185" lon="-0.54747">
        <ele>47.799999237061</ele>
        <time>2026-03-24T14:59:41.000Z</time>
      </trkpt>
      <trkpt lat="49.31849" lon="-0.54748">
        <ele>47.799999237061</ele>
        <time>2026-03-24T14:59:42.000Z</time>
      </trkpt>
      <trkpt lat="49.31849" lon="-0.5475">
        <ele>48</ele>
        <time>2026-03-24T14:59:43.000Z</time>
      </trkpt>
      <trkpt lat="49.31848" lon="-0.54751">
        <ele>48</ele>
        <time>2026-03-24T14:59:44.000Z</time>
      </trkpt>
      <trkpt lat="49.31848" lon="-0.54752">
        <ele>48</ele>
        <time>2026-03-24T14:59:45.000Z</time>
      </trkpt>
      <trkpt lat="49.31847" lon="-0.54754">
        <ele>48</ele>
        <time>2026-03-24T14:59:46.000Z</time>
      </trkpt>
      <trkpt lat="49.31847" lon="-0.54755">
        <ele>48</ele>
        <time>2026-03-24T14:59:47.000Z</time>
      </trkpt>
      <trkpt lat="49.31846" lon="-0.54756">
        <ele>48</ele>
        <time>2026-03-24T14:59:48.000Z</time>
      </trkpt>
      <trkpt lat="49.31846" lon="-0.54757">
        <ele>48</ele>
        <time>2026-03-24T14:59:49.000Z</time>
      </trkpt>
      <trkpt lat="49.31845" lon="-0.54758">
        <ele>48</ele>
        <time>2026-03-24T14:59:50.000Z</time>
      </trkpt>
      <trkpt lat="49.31844" lon="-0.5476">
        <ele>48</ele>
        <time>2026-03-24T14:59:51.000Z</time>
      </trkpt>
      <trkpt lat="49.31843" lon="-0.54762">
        <ele>48</ele>
        <time>2026-03-24T14:59:52.000Z</time>
      </trkpt>
      <trkpt lat="49.31843" lon="-0.54765">
        <ele>48</ele>
        <time>2026-03-24T14:59:53.000Z</time>
      </trkpt>
      <trkpt lat="49.31842" lon="-0.54769">
        <ele>48.200000762939</ele>
        <time>2026-03-24T14:59:54.000Z</time>
      </trkpt>
      <trkpt lat="49.31842" lon="-0.54773">
        <ele>48.200000762939</ele>
        <time>2026-03-24T14:59:55.000Z</time>
      </trkpt>
      <trkpt lat="49.31841" lon="-0.54776">
        <ele>48.400001525879</ele>
        <time>2026-03-24T14:59:56.000Z</time>
      </trkpt>
      <trkpt lat="49.3184" lon="-0.5478">
        <ele>48.400001525879</ele>
        <time>2026-03-24T14:59:57.000Z</time>
      </trkpt>
      <trkpt lat="49.3184" lon="-0.54782">
        <ele>48.599998474121</ele>
        <time>2026-03-24T14:59:58.000Z</time>
      </trkpt>
      <trkpt lat="49.3184" lon="-0.54785">
        <ele>48.599998474121</ele>
        <time>2026-03-24T14:59:59.000Z</time>
      </trkpt>
      <trkpt lat="49.31839" lon="-0.54787">
        <ele>48.599998474121</ele>
        <time>2026-03-24T15:00:00.000Z</time>
      </trkpt>
      <trkpt lat="49.31839" lon="-0.54791">
        <ele>48.799999237061</ele>
        <time>2026-03-24T15:00:01.000Z</time>
      </trkpt>
      <trkpt lat="49.31839" lon="-0.54793">
        <ele>48.799999237061</ele>
        <time>2026-03-24T15:00:02.000Z</time>
      </trkpt>
      <trkpt lat="49.31839" lon="-0.54797">
        <ele>49</ele>
        <time>2026-03-24T15:00:03.000Z</time>
      </trkpt>
      <trkpt lat="49.31838" lon="-0.548">
        <ele>49</ele>
        <time>2026-03-24T15:00:04.000Z</time>
      </trkpt>
      <trkpt lat="49.31837" lon="-0.54793">
        <ele>48.799999237061</ele>
        <time>2026-03-24T15:00:05.000Z</time>
      </trkpt>
      <trkpt lat="49.31836" lon="-0.54792">
        <ele>48.799999237061</ele>
        <time>2026-03-24T15:00:06.000Z</time>
      </trkpt>
      <trkpt lat="49.31835" lon="-0.54791">
        <ele>48.599998474121</ele>
        <time>2026-03-24T15:00:07.000Z</time>
      </trkpt>
      <trkpt lat="49.31834" lon="-0.54791">
        <ele>48.599998474121</ele>
        <time>2026-03-24T15:00:08.000Z</time>
      </trkpt>
      <trkpt lat="49.31832" lon="-0.54792">
        <ele>48.599998474121</ele>
        <time>2026-03-24T15:00:09.000Z</time>
      </trkpt>
      <trkpt lat="49.31831" lon="-0.54793">
        <ele>48.599998474121</ele>
        <time>2026-03-24T15:00:10.000Z</time>
      </trkpt>
      <trkpt lat="49.3183" lon="-0.54794">
        <ele>48.599998474121</ele>
        <time>2026-03-24T15:00:11.000Z</time>
      </trkpt>
      <trkpt lat="49.3183" lon="-0.54795">
        <ele>48.599998474121</ele>
        <time>2026-03-24T15:00:12.000Z</time>
      </trkpt>
      <trkpt lat="49.31829" lon="-0.54795">
        <ele>48.599998474121</ele>
        <time>2026-03-24T15:00:13.000Z</time>
      </trkpt>
      <trkpt lat="49.31829" lon="-0.54797">
        <ele>48.599998474121</ele>
        <time>2026-03-24T15:00:14.000Z</time>
      </trkpt>
      <trkpt lat="49.31828" lon="-0.54798">
        <ele>48.599998474121</ele>
        <time>2026-03-24T15:00:15.000Z</time>
      </trkpt>
      <trkpt lat="49.31827" lon="-0.54798">
        <ele>48.599998474121</ele>
        <time>2026-03-24T15:00:16.000Z</time>
      </trkpt>
      <trkpt lat="49.31826" lon="-0.54799">
        <ele>48.599998474121</ele>
        <time>2026-03-24T15:00:17.000Z</time>
      </trkpt>
      <trkpt lat="49.31825" lon="-0.548">
        <ele>48.599998474121</ele>
        <time>2026-03-24T15:00:18.000Z</time>
      </trkpt>
      <trkpt lat="49.31824" lon="-0.548">
        <ele>48.599998474121</ele>
        <time>2026-03-24T15:00:19.000Z</time>
      </trkpt>
      <trkpt lat="49.31824" lon="-0.54801">
        <ele>48.599998474121</ele>
        <time>2026-03-24T15:00:20.000Z</time>
      </trkpt>
      <trkpt lat="49.31823" lon="-0.54802">
        <ele>48.599998474121</ele>
        <time>2026-03-24T15:00:21.000Z</time>
      </trkpt>
      <trkpt lat="49.31822" lon="-0.54803">
        <ele>48.599998474121</ele>
        <time>2026-03-24T15:00:22.000Z</time>
      </trkpt>
      <trkpt lat="49.31821" lon="-0.54804">
        <ele>48.599998474121</ele>
        <time>2026-03-24T15:00:23.000Z</time>
      </trkpt>
      <trkpt lat="49.31821" lon="-0.54804">
        <ele>48.599998474121</ele>
        <time>2026-03-24T15:00:24.000Z</time>
      </trkpt>
      <trkpt lat="49.3182" lon="-0.54805">
        <ele>48.599998474121</ele>
        <time>2026-03-24T15:00:25.000Z</time>
      </trkpt>
      <trkpt lat="49.31819" lon="-0.54806">
        <ele>48.599998474121</ele>
        <time>2026-03-24T15:00:26.000Z</time>
      </trkpt>
      <trkpt lat="49.31819" lon="-0.54807">
        <ele>48.599998474121</ele>
        <time>2026-03-24T15:00:27.000Z</time>
      </trkpt>
      <trkpt lat="49.31818" lon="-0.54808">
        <ele>48.599998474121</ele>
        <time>2026-03-24T15:00:28.000Z</time>
      </trkpt>
      <trkpt lat="49.31817" lon="-0.54809">
        <ele>48.599998474121</ele>
        <time>2026-03-24T15:00:29.000Z</time>
      </trkpt>
      <trkpt lat="49.31816" lon="-0.5481">
        <ele>48.599998474121</ele>
        <time>2026-03-24T15:00:30.000Z</time>
      </trkpt>
      <trkpt lat="49.31815" lon="-0.54811">
        <ele>48.599998474121</ele>
        <time>2026-03-24T15:00:31.000Z</time>
      </trkpt>
      <trkpt lat="49.31814" lon="-0.54812">
        <ele>48.599998474121</ele>
        <time>2026-03-24T15:00:32.000Z</time>
      </trkpt>
      <trkpt lat="49.31812" lon="-0.54813">
        <ele>48.599998474121</ele>
        <time>2026-03-24T15:00:33.000Z</time>
      </trkpt>
      <trkpt lat="49.31811" lon="-0.54813">
        <ele>48.599998474121</ele>
        <time>2026-03-24T15:00:34.000Z</time>
      </trkpt>
      <trkpt lat="49.31811" lon="-0.54813">
        <ele>48.599998474121</ele>
        <time>2026-03-24T15:00:35.000Z</time>
      </trkpt>
      <trkpt lat="49.3181" lon="-0.54814">
        <ele>48.599998474121</ele>
        <time>2026-03-24T15:00:36.000Z</time>
      </trkpt>
      <trkpt lat="49.31809" lon="-0.54814">
        <ele>48.599998474121</ele>
        <time>2026-03-24T15:00:37.000Z</time>
      </trkpt>
      <trkpt lat="49.31808" lon="-0.54814">
        <ele>48.599998474121</ele>
        <time>2026-03-24T15:00:38.000Z</time>
      </trkpt>
      <trkpt lat="49.31808" lon="-0.54815">
        <ele>48.599998474121</ele>
        <time>2026-03-24T15:00:39.000Z</time>
      </trkpt>
      <trkpt lat="49.31807" lon="-0.54816">
        <ele>48.599998474121</ele>
        <time>2026-03-24T15:00:40.000Z</time>
      </trkpt>
      <trkpt lat="49.31807" lon="-0.54817">
        <ele>48.599998474121</ele>
        <time>2026-03-24T15:00:41.000Z</time>
      </trkpt>
      <trkpt lat="49.31806" lon="-0.54817">
        <ele>48.599998474121</ele>
        <time>2026-03-24T15:00:42.000Z</time>
      </trkpt>
      <trkpt lat="49.31806" lon="-0.54818">
        <ele>48.599998474121</ele>
        <time>2026-03-24T15:00:43.000Z</time>
      </trkpt>
      <trkpt lat="49.31805" lon="-0.54818">
        <ele>48.599998474121</ele>
        <time>2026-03-24T15:00:44.000Z</time>
      </trkpt>
      <trkpt lat="49.31805" lon="-0.54818">
        <ele>48.599998474121</ele>
        <time>2026-03-24T15:00:45.000Z</time>
      </trkpt>
      <trkpt lat="49.31804" lon="-0.54818">
        <ele>48.599998474121</ele>
        <time>2026-03-24T15:00:46.000Z</time>
      </trkpt>
      <trkpt lat="49.31803" lon="-0.54817">
        <ele>48.400001525879</ele>
        <time>2026-03-24T15:00:47.000Z</time>
      </trkpt>
      <trkpt lat="49.31803" lon="-0.54817">
        <ele>48.400001525879</ele>
        <time>2026-03-24T15:00:48.000Z</time>
      </trkpt>
      <trkpt lat="49.31803" lon="-0.54817">
        <ele>48.400001525879</ele>
        <time>2026-03-24T15:00:49.000Z</time>
      </trkpt>
      <trkpt lat="49.31802" lon="-0.54817">
        <ele>48.400001525879</ele>
        <time>2026-03-24T15:00:50.000Z</time>
      </trkpt>
      <trkpt lat="49.31802" lon="-0.54818">
        <ele>48.400001525879</ele>
        <time>2026-03-24T15:00:51.000Z</time>
      </trkpt>
      <trkpt lat="49.31802" lon="-0.54818">
        <ele>48.400001525879</ele>
        <time>2026-03-24T15:00:52.000Z</time>
      </trkpt>
      <trkpt lat="49.31802" lon="-0.54817">
        <ele>48.400001525879</ele>
        <time>2026-03-24T15:00:53.000Z</time>
      </trkpt>
      <trkpt lat="49.318" lon="-0.54819">
        <ele>48.400001525879</ele>
        <time>2026-03-24T15:00:54.000Z</time>
      </trkpt>
      <trkpt lat="49.31799" lon="-0.5482">
        <ele>48.400001525879</ele>
        <time>2026-03-24T15:00:55.000Z</time>
      </trkpt>
      <trkpt lat="49.31798" lon="-0.54822">
        <ele>48.400001525879</ele>
        <time>2026-03-24T15:00:56.000Z</time>
      </trkpt>
      <trkpt lat="49.31797" lon="-0.54823">
        <ele>48.400001525879</ele>
        <time>2026-03-24T15:00:57.000Z</time>
      </trkpt>
      <trkpt lat="49.31795" lon="-0.54823">
        <ele>48.400001525879</ele>
        <time>2026-03-24T15:00:58.000Z</time>
      </trkpt>
      <trkpt lat="49.31794" lon="-0.54824">
        <ele>48.400001525879</ele>
        <time>2026-03-24T15:00:59.000Z</time>
      </trkpt>
      <trkpt lat="49.31793" lon="-0.54824">
        <ele>48.400001525879</ele>
        <time>2026-03-24T15:01:00.000Z</time>
      </trkpt>
      <trkpt lat="49.31793" lon="-0.54825">
        <ele>48.400001525879</ele>
        <time>2026-03-24T15:01:01.000Z</time>
      </trkpt>
      <trkpt lat="49.31793" lon="-0.54825">
        <ele>48.400001525879</ele>
        <time>2026-03-24T15:01:02.000Z</time>
      </trkpt>
      <trkpt lat="49.31793" lon="-0.54826">
        <ele>48.400001525879</ele>
        <time>2026-03-24T15:01:03.000Z</time>
      </trkpt>
      <trkpt lat="49.31792" lon="-0.54827">
        <ele>48.400001525879</ele>
        <time>2026-03-24T15:01:04.000Z</time>
      </trkpt>
      <trkpt lat="49.31791" lon="-0.54827">
        <ele>48.400001525879</ele>
        <time>2026-03-24T15:01:05.000Z</time>
      </trkpt>
      <trkpt lat="49.3179" lon="-0.54828">
        <ele>48.400001525879</ele>
        <time>2026-03-24T15:01:06.000Z</time>
      </trkpt>
      <trkpt lat="49.3179" lon="-0.54829">
        <ele>48.400001525879</ele>
        <time>2026-03-24T15:01:07.000Z</time>
      </trkpt>
      <trkpt lat="49.3179" lon="-0.54831">
        <ele>48.400001525879</ele>
        <time>2026-03-24T15:01:08.000Z</time>
      </trkpt>
      <trkpt lat="49.31788" lon="-0.54832">
        <ele>48.400001525879</ele>
        <time>2026-03-24T15:01:09.000Z</time>
      </trkpt>
      <trkpt lat="49.31787" lon="-0.54834">
        <ele>48.400001525879</ele>
        <time>2026-03-24T15:01:10.000Z</time>
      </trkpt>
      <trkpt lat="49.31786" lon="-0.54835">
        <ele>48.599998474121</ele>
        <time>2026-03-24T15:01:11.000Z</time>
      </trkpt>
      <trkpt lat="49.31783" lon="-0.54837">
        <ele>48.400001525879</ele>
        <time>2026-03-24T15:01:12.000Z</time>
      </trkpt>
      <trkpt lat="49.31782" lon="-0.54836">
        <ele>48.400001525879</ele>
        <time>2026-03-24T15:01:13.000Z</time>
      </trkpt>
      <trkpt lat="49.31781" lon="-0.54837">
        <ele>48.400001525879</ele>
        <time>2026-03-24T15:01:14.000Z</time>
      </trkpt>
      <trkpt lat="49.31779" lon="-0.54838">
        <ele>48.400001525879</ele>
        <time>2026-03-24T15:01:15.000Z</time>
      </trkpt>
      <trkpt lat="49.31778" lon="-0.54839">
        <ele>48.400001525879</ele>
        <time>2026-03-24T15:01:16.000Z</time>
      </trkpt>
      <trkpt lat="49.31777" lon="-0.54841">
        <ele>48.400001525879</ele>
        <time>2026-03-24T15:01:17.000Z</time>
      </trkpt>
      <trkpt lat="49.31776" lon="-0.54842">
        <ele>48.400001525879</ele>
        <time>2026-03-24T15:01:18.000Z</time>
      </trkpt>
      <trkpt lat="49.31775" lon="-0.54842">
        <ele>48.400001525879</ele>
        <time>2026-03-24T15:01:19.000Z</time>
      </trkpt>
      <trkpt lat="49.31774" lon="-0.54842">
        <ele>48.400001525879</ele>
        <time>2026-03-24T15:01:20.000Z</time>
      </trkpt>
      <trkpt lat="49.31772" lon="-0.54842">
        <ele>48.200000762939</ele>
        <time>2026-03-24T15:01:21.000Z</time>
      </trkpt>
      <trkpt lat="49.3177" lon="-0.54843">
        <ele>48.200000762939</ele>
        <time>2026-03-24T15:01:22.000Z</time>
      </trkpt>
      <trkpt lat="49.31768" lon="-0.54844">
        <ele>48.200000762939</ele>
        <time>2026-03-24T15:01:23.000Z</time>
      </trkpt>
      <trkpt lat="49.31766" lon="-0.54844">
        <ele>48.200000762939</ele>
        <time>2026-03-24T15:01:24.000Z</time>
      </trkpt>
      <trkpt lat="49.31765" lon="-0.54845">
        <ele>48.200000762939</ele>
        <time>2026-03-24T15:01:25.000Z</time>
      </trkpt>
      <trkpt lat="49.31764" lon="-0.54846">
        <ele>48.200000762939</ele>
        <time>2026-03-24T15:01:26.000Z</time>
      </trkpt>
      <trkpt lat="49.31763" lon="-0.54847">
        <ele>48.200000762939</ele>
        <time>2026-03-24T15:01:27.000Z</time>
      </trkpt>
      <trkpt lat="49.31761" lon="-0.54849">
        <ele>48.200000762939</ele>
        <time>2026-03-24T15:01:28.000Z</time>
      </trkpt>
      <trkpt lat="49.3176" lon="-0.5485">
        <ele>48</ele>
        <time>2026-03-24T15:01:29.000Z</time>
      </trkpt>
      <trkpt lat="49.31758" lon="-0.54851">
        <ele>48</ele>
        <time>2026-03-24T15:01:30.000Z</time>
      </trkpt>
      <trkpt lat="49.31757" lon="-0.5485">
        <ele>48</ele>
        <time>2026-03-24T15:01:31.000Z</time>
      </trkpt>
      <trkpt lat="49.31756" lon="-0.54851">
        <ele>48</ele>
        <time>2026-03-24T15:01:32.000Z</time>
      </trkpt>
      <trkpt lat="49.31755" lon="-0.54853">
        <ele>48</ele>
        <time>2026-03-24T15:01:33.000Z</time>
      </trkpt>
      <trkpt lat="49.31753" lon="-0.54854">
        <ele>48</ele>
        <time>2026-03-24T15:01:34.000Z</time>
      </trkpt>
      <trkpt lat="49.31753" lon="-0.54855">
        <ele>48</ele>
        <time>2026-03-24T15:01:35.000Z</time>
      </trkpt>
      <trkpt lat="49.31751" lon="-0.54857">
        <ele>48</ele>
        <time>2026-03-24T15:01:36.000Z</time>
      </trkpt>
      <trkpt lat="49.3175" lon="-0.54858">
        <ele>48</ele>
        <time>2026-03-24T15:01:37.000Z</time>
      </trkpt>
      <trkpt lat="49.31749" lon="-0.54859">
        <ele>48</ele>
        <time>2026-03-24T15:01:38.000Z</time>
      </trkpt>
      <trkpt lat="49.31748" lon="-0.54861">
        <ele>48</ele>
        <time>2026-03-24T15:01:39.000Z</time>
      </trkpt>
      <trkpt lat="49.31747" lon="-0.54862">
        <ele>48</ele>
        <time>2026-03-24T15:01:40.000Z</time>
      </trkpt>
      <trkpt lat="49.31747" lon="-0.54864">
        <ele>48</ele>
        <time>2026-03-24T15:01:41.000Z</time>
      </trkpt>
      <trkpt lat="49.31746" lon="-0.54866">
        <ele>48</ele>
        <time>2026-03-24T15:01:42.000Z</time>
      </trkpt>
      <trkpt lat="49.31745" lon="-0.54866">
        <ele>48</ele>
        <time>2026-03-24T15:01:43.000Z</time>
      </trkpt>
      <trkpt lat="49.31744" lon="-0.54867">
        <ele>48</ele>
        <time>2026-03-24T15:01:44.000Z</time>
      </trkpt>
      <trkpt lat="49.31743" lon="-0.54867">
        <ele>48</ele>
        <time>2026-03-24T15:01:45.000Z</time>
      </trkpt>
      <trkpt lat="49.31743" lon="-0.54869">
        <ele>48</ele>
        <time>2026-03-24T15:01:46.000Z</time>
      </trkpt>
      <trkpt lat="49.31743" lon="-0.54871">
        <ele>48</ele>
        <time>2026-03-24T15:01:47.000Z</time>
      </trkpt>
      <trkpt lat="49.31743" lon="-0.54873">
        <ele>48</ele>
        <time>2026-03-24T15:01:48.000Z</time>
      </trkpt>
      <trkpt lat="49.31743" lon="-0.54875">
        <ele>48</ele>
        <time>2026-03-24T15:01:49.000Z</time>
      </trkpt>
      <trkpt lat="49.31743" lon="-0.54877">
        <ele>48</ele>
        <time>2026-03-24T15:01:50.000Z</time>
      </trkpt>
      <trkpt lat="49.31742" lon="-0.54879">
        <ele>48</ele>
        <time>2026-03-24T15:01:51.000Z</time>
      </trkpt>
      <trkpt lat="49.31742" lon="-0.54881">
        <ele>47.799999237061</ele>
        <time>2026-03-24T15:01:52.000Z</time>
      </trkpt>
      <trkpt lat="49.31741" lon="-0.54883">
        <ele>47.799999237061</ele>
        <time>2026-03-24T15:01:53.000Z</time>
      </trkpt>
      <trkpt lat="49.31741" lon="-0.54885">
        <ele>47.799999237061</ele>
        <time>2026-03-24T15:01:54.000Z</time>
      </trkpt>
      <trkpt lat="49.3174" lon="-0.54886">
        <ele>47.799999237061</ele>
        <time>2026-03-24T15:01:55.000Z</time>
      </trkpt>
      <trkpt lat="49.31739" lon="-0.54888">
        <ele>47.799999237061</ele>
        <time>2026-03-24T15:01:56.000Z</time>
      </trkpt>
      <trkpt lat="49.31739" lon="-0.54889">
        <ele>47.799999237061</ele>
        <time>2026-03-24T15:01:57.000Z</time>
      </trkpt>
      <trkpt lat="49.31739" lon="-0.54891">
        <ele>47.799999237061</ele>
        <time>2026-03-24T15:01:58.000Z</time>
      </trkpt>
      <trkpt lat="49.3174" lon="-0.54892">
        <ele>47.799999237061</ele>
        <time>2026-03-24T15:01:59.000Z</time>
      </trkpt>
      <trkpt lat="49.3174" lon="-0.54894">
        <ele>47.799999237061</ele>
        <time>2026-03-24T15:02:00.000Z</time>
      </trkpt>
      <trkpt lat="49.3174" lon="-0.54895">
        <ele>47.799999237061</ele>
        <time>2026-03-24T15:02:01.000Z</time>
      </trkpt>
      <trkpt lat="49.31739" lon="-0.54896">
        <ele>47.799999237061</ele>
        <time>2026-03-24T15:02:02.000Z</time>
      </trkpt>
      <trkpt lat="49.31739" lon="-0.54898">
        <ele>47.799999237061</ele>
        <time>2026-03-24T15:02:03.000Z</time>
      </trkpt>
      <trkpt lat="49.31738" lon="-0.549">
        <ele>47.799999237061</ele>
        <time>2026-03-24T15:02:04.000Z</time>
      </trkpt>
      <trkpt lat="49.31737" lon="-0.54901">
        <ele>47.799999237061</ele>
        <time>2026-03-24T15:02:05.000Z</time>
      </trkpt>
      <trkpt lat="49.31735" lon="-0.54903">
        <ele>47.599998474121</ele>
        <time>2026-03-24T15:02:06.000Z</time>
      </trkpt>
      <trkpt lat="49.31733" lon="-0.54905">
        <ele>47.599998474121</ele>
        <time>2026-03-24T15:02:07.000Z</time>
      </trkpt>
      <trkpt lat="49.31732" lon="-0.54906">
        <ele>47.599998474121</ele>
        <time>2026-03-24T15:02:08.000Z</time>
      </trkpt>
      <trkpt lat="49.31731" lon="-0.54908">
        <ele>47.400001525879</ele>
        <time>2026-03-24T15:02:09.000Z</time>
      </trkpt>
      <trkpt lat="49.3173" lon="-0.54909">
        <ele>47.400001525879</ele>
        <time>2026-03-24T15:02:10.000Z</time>
      </trkpt>
      <trkpt lat="49.31728" lon="-0.54911">
        <ele>47.400001525879</ele>
        <time>2026-03-24T15:02:11.000Z</time>
      </trkpt>
      <trkpt lat="49.31728" lon="-0.54912">
        <ele>47.400001525879</ele>
        <time>2026-03-24T15:02:12.000Z</time>
      </trkpt>
      <trkpt lat="49.31727" lon="-0.54913">
        <ele>47.400001525879</ele>
        <time>2026-03-24T15:02:13.000Z</time>
      </trkpt>
      <trkpt lat="49.31726" lon="-0.54914">
        <ele>47.400001525879</ele>
        <time>2026-03-24T15:02:14.000Z</time>
      </trkpt>
      <trkpt lat="49.31727" lon="-0.54914">
        <ele>47.400001525879</ele>
        <time>2026-03-24T15:02:15.000Z</time>
      </trkpt>
      <trkpt lat="49.31727" lon="-0.54915">
        <ele>47.400001525879</ele>
        <time>2026-03-24T15:02:16.000Z</time>
      </trkpt>
      <trkpt lat="49.31725" lon="-0.54916">
        <ele>47.200000762939</ele>
        <time>2026-03-24T15:02:17.000Z</time>
      </trkpt>
      <trkpt lat="49.31725" lon="-0.54916">
        <ele>47.200000762939</ele>
        <time>2026-03-24T15:02:18.000Z</time>
      </trkpt>
      <trkpt lat="49.31723" lon="-0.54917">
        <ele>47.200000762939</ele>
        <time>2026-03-24T15:02:19.000Z</time>
      </trkpt>
      <trkpt lat="49.31722" lon="-0.54918">
        <ele>47.200000762939</ele>
        <time>2026-03-24T15:02:20.000Z</time>
      </trkpt>
      <trkpt lat="49.31722" lon="-0.54918">
        <ele>47.200000762939</ele>
        <time>2026-03-24T15:02:21.000Z</time>
      </trkpt>
      <trkpt lat="49.31721" lon="-0.54918">
        <ele>47.200000762939</ele>
        <time>2026-03-24T15:02:22.000Z</time>
      </trkpt>
      <trkpt lat="49.3172" lon="-0.54919">
        <ele>47</ele>
        <time>2026-03-24T15:02:23.000Z</time>
      </trkpt>
      <trkpt lat="49.31719" lon="-0.54919">
        <ele>47</ele>
        <time>2026-03-24T15:02:24.000Z</time>
      </trkpt>
      <trkpt lat="49.31718" lon="-0.54921">
        <ele>47</ele>
        <time>2026-03-24T15:02:25.000Z</time>
      </trkpt>
      <trkpt lat="49.31718" lon="-0.54922">
        <ele>47</ele>
        <time>2026-03-24T15:02:26.000Z</time>
      </trkpt>
      <trkpt lat="49.31717" lon="-0.54923">
        <ele>47</ele>
        <time>2026-03-24T15:02:27.000Z</time>
      </trkpt>
      <trkpt lat="49.31717" lon="-0.54925">
        <ele>47</ele>
        <time>2026-03-24T15:02:28.000Z</time>
      </trkpt>
      <trkpt lat="49.31716" lon="-0.54926">
        <ele>47</ele>
        <time>2026-03-24T15:02:29.000Z</time>
      </trkpt>
      <trkpt lat="49.31716" lon="-0.54928">
        <ele>47</ele>
        <time>2026-03-24T15:02:30.000Z</time>
      </trkpt>
      <trkpt lat="49.31716" lon="-0.54929">
        <ele>47</ele>
        <time>2026-03-24T15:02:31.000Z</time>
      </trkpt>
      <trkpt lat="49.31717" lon="-0.54932">
        <ele>47</ele>
        <time>2026-03-24T15:02:32.000Z</time>
      </trkpt>
      <trkpt lat="49.31718" lon="-0.54934">
        <ele>47</ele>
        <time>2026-03-24T15:02:33.000Z</time>
      </trkpt>
      <trkpt lat="49.31719" lon="-0.54936">
        <ele>47</ele>
        <time>2026-03-24T15:02:34.000Z</time>
      </trkpt>
      <trkpt lat="49.3172" lon="-0.54938">
        <ele>47</ele>
        <time>2026-03-24T15:02:35.000Z</time>
      </trkpt>
      <trkpt lat="49.3172" lon="-0.5494">
        <ele>47.200000762939</ele>
        <time>2026-03-24T15:02:36.000Z</time>
      </trkpt>
      <trkpt lat="49.3172" lon="-0.5494">
        <ele>47.200000762939</ele>
        <time>2026-03-24T15:02:37.000Z</time>
      </trkpt>
      <trkpt lat="49.3172" lon="-0.54942">
        <ele>47.200000762939</ele>
        <time>2026-03-24T15:02:38.000Z</time>
      </trkpt>
      <trkpt lat="49.3172" lon="-0.54942">
        <ele>47.200000762939</ele>
        <time>2026-03-24T15:02:39.000Z</time>
      </trkpt>
      <trkpt lat="49.31721" lon="-0.54943">
        <ele>47.200000762939</ele>
        <time>2026-03-24T15:02:40.000Z</time>
      </trkpt>
      <trkpt lat="49.31721" lon="-0.54944">
        <ele>47.200000762939</ele>
        <time>2026-03-24T15:02:41.000Z</time>
      </trkpt>
      <trkpt lat="49.3172" lon="-0.54945">
        <ele>47.200000762939</ele>
        <time>2026-03-24T15:02:42.000Z</time>
      </trkpt>
      <trkpt lat="49.3172" lon="-0.54946">
        <ele>47.200000762939</ele>
        <time>2026-03-24T15:02:43.000Z</time>
      </trkpt>
      <trkpt lat="49.31719" lon="-0.54946">
        <ele>47</ele>
        <time>2026-03-24T15:02:44.000Z</time>
      </trkpt>
      <trkpt lat="49.31719" lon="-0.54947">
        <ele>47</ele>
        <time>2026-03-24T15:02:45.000Z</time>
      </trkpt>
      <trkpt lat="49.31718" lon="-0.54947">
        <ele>47</ele>
        <time>2026-03-24T15:02:46.000Z</time>
      </trkpt>
      <trkpt lat="49.31717" lon="-0.54948">
        <ele>47</ele>
        <time>2026-03-24T15:02:47.000Z</time>
      </trkpt>
      <trkpt lat="49.31717" lon="-0.54949">
        <ele>47.200000762939</ele>
        <time>2026-03-24T15:02:48.000Z</time>
      </trkpt>
      <trkpt lat="49.31716" lon="-0.5495">
        <ele>47.200000762939</ele>
        <time>2026-03-24T15:02:49.000Z</time>
      </trkpt>
      <trkpt lat="49.31715" lon="-0.54951">
        <ele>47.200000762939</ele>
        <time>2026-03-24T15:02:50.000Z</time>
      </trkpt>
      <trkpt lat="49.31714" lon="-0.54951">
        <ele>47.200000762939</ele>
        <time>2026-03-24T15:02:51.000Z</time>
      </trkpt>
      <trkpt lat="49.31713" lon="-0.54952">
        <ele>47.200000762939</ele>
        <time>2026-03-24T15:02:52.000Z</time>
      </trkpt>
      <trkpt lat="49.31713" lon="-0.54954">
        <ele>47.200000762939</ele>
        <time>2026-03-24T15:02:53.000Z</time>
      </trkpt>
      <trkpt lat="49.31713" lon="-0.54955">
        <ele>47.400001525879</ele>
        <time>2026-03-24T15:02:54.000Z</time>
      </trkpt>
      <trkpt lat="49.31712" lon="-0.54957">
        <ele>47.400001525879</ele>
        <time>2026-03-24T15:02:55.000Z</time>
      </trkpt>
      <trkpt lat="49.31712" lon="-0.54958">
        <ele>47.400001525879</ele>
        <time>2026-03-24T15:02:56.000Z</time>
      </trkpt>
      <trkpt lat="49.31711" lon="-0.54958">
        <ele>47.400001525879</ele>
        <time>2026-03-24T15:02:57.000Z</time>
      </trkpt>
      <trkpt lat="49.3171" lon="-0.54959">
        <ele>47.400001525879</ele>
        <time>2026-03-24T15:02:58.000Z</time>
      </trkpt>
      <trkpt lat="49.31709" lon="-0.54959">
        <ele>47.400001525879</ele>
        <time>2026-03-24T15:02:59.000Z</time>
      </trkpt>
      <trkpt lat="49.31708" lon="-0.5496">
        <ele>47.599998474121</ele>
        <time>2026-03-24T15:03:00.000Z</time>
      </trkpt>
      <trkpt lat="49.31706" lon="-0.5496">
        <ele>47.599998474121</ele>
        <time>2026-03-24T15:03:01.000Z</time>
      </trkpt>
      <trkpt lat="49.31706" lon="-0.54961">
        <ele>47.599998474121</ele>
        <time>2026-03-24T15:03:02.000Z</time>
      </trkpt>
      <trkpt lat="49.31706" lon="-0.54963">
        <ele>47.599998474121</ele>
        <time>2026-03-24T15:03:03.000Z</time>
      </trkpt>
      <trkpt lat="49.31705" lon="-0.54964">
        <ele>47.599998474121</ele>
        <time>2026-03-24T15:03:04.000Z</time>
      </trkpt>
      <trkpt lat="49.31704" lon="-0.54964">
        <ele>47.599998474121</ele>
        <time>2026-03-24T15:03:05.000Z</time>
      </trkpt>
      <trkpt lat="49.31703" lon="-0.54965">
        <ele>47.599998474121</ele>
        <time>2026-03-24T15:03:06.000Z</time>
      </trkpt>
      <trkpt lat="49.31702" lon="-0.54966">
        <ele>47.799999237061</ele>
        <time>2026-03-24T15:03:07.000Z</time>
      </trkpt>
      <trkpt lat="49.31701" lon="-0.54967">
        <ele>47.799999237061</ele>
        <time>2026-03-24T15:03:08.000Z</time>
      </trkpt>
      <trkpt lat="49.317" lon="-0.54968">
        <ele>47.799999237061</ele>
        <time>2026-03-24T15:03:09.000Z</time>
      </trkpt>
      <trkpt lat="49.31699" lon="-0.54969">
        <ele>47.799999237061</ele>
        <time>2026-03-24T15:03:10.000Z</time>
      </trkpt>
      <trkpt lat="49.31698" lon="-0.54969">
        <ele>47.799999237061</ele>
        <time>2026-03-24T15:03:11.000Z</time>
      </trkpt>
      <trkpt lat="49.31696" lon="-0.5497">
        <ele>47.799999237061</ele>
        <time>2026-03-24T15:03:12.000Z</time>
      </trkpt>
      <trkpt lat="49.31695" lon="-0.54972">
        <ele>48</ele>
        <time>2026-03-24T15:03:13.000Z</time>
      </trkpt>
      <trkpt lat="49.31693" lon="-0.54973">
        <ele>48</ele>
        <time>2026-03-24T15:03:14.000Z</time>
      </trkpt>
      <trkpt lat="49.31692" lon="-0.54975">
        <ele>48</ele>
        <time>2026-03-24T15:03:15.000Z</time>
      </trkpt>
      <trkpt lat="49.31691" lon="-0.54976">
        <ele>48</ele>
        <time>2026-03-24T15:03:16.000Z</time>
      </trkpt>
      <trkpt lat="49.3169" lon="-0.54976">
        <ele>48</ele>
        <time>2026-03-24T15:03:17.000Z</time>
      </trkpt>
      <trkpt lat="49.31689" lon="-0.54976">
        <ele>48.200000762939</ele>
        <time>2026-03-24T15:03:18.000Z</time>
      </trkpt>
      <trkpt lat="49.31688" lon="-0.54978">
        <ele>48.200000762939</ele>
        <time>2026-03-24T15:03:19.000Z</time>
      </trkpt>
      <trkpt lat="49.31686" lon="-0.54978">
        <ele>48.200000762939</ele>
        <time>2026-03-24T15:03:20.000Z</time>
      </trkpt>
      <trkpt lat="49.31685" lon="-0.54979">
        <ele>48.400001525879</ele>
        <time>2026-03-24T15:03:21.000Z</time>
      </trkpt>
      <trkpt lat="49.31684" lon="-0.5498">
        <ele>48.400001525879</ele>
        <time>2026-03-24T15:03:22.000Z</time>
      </trkpt>
      <trkpt lat="49.31684" lon="-0.5498">
        <ele>48.400001525879</ele>
        <time>2026-03-24T15:03:23.000Z</time>
      </trkpt>
      <trkpt lat="49.31683" lon="-0.5498">
        <ele>48.400001525879</ele>
        <time>2026-03-24T15:03:24.000Z</time>
      </trkpt>
      <trkpt lat="49.31682" lon="-0.5498">
        <ele>48.599998474121</ele>
        <time>2026-03-24T15:03:25.000Z</time>
      </trkpt>
      <trkpt lat="49.31681" lon="-0.54979">
        <ele>48.599998474121</ele>
        <time>2026-03-24T15:03:26.000Z</time>
      </trkpt>
      <trkpt lat="49.31681" lon="-0.54978">
        <ele>48.599998474121</ele>
        <time>2026-03-24T15:03:27.000Z</time>
      </trkpt>
      <trkpt lat="49.3168" lon="-0.54978">
        <ele>48.599998474121</ele>
        <time>2026-03-24T15:03:28.000Z</time>
      </trkpt>
      <trkpt lat="49.31679" lon="-0.54976">
        <ele>48.799999237061</ele>
        <time>2026-03-24T15:03:29.000Z</time>
      </trkpt>
      <trkpt lat="49.31678" lon="-0.54976">
        <ele>48.799999237061</ele>
        <time>2026-03-24T15:03:30.000Z</time>
      </trkpt>
      <trkpt lat="49.31677" lon="-0.54975">
        <ele>48.799999237061</ele>
        <time>2026-03-24T15:03:31.000Z</time>
      </trkpt>
      <trkpt lat="49.31676" lon="-0.54974">
        <ele>49</ele>
        <time>2026-03-24T15:03:32.000Z</time>
      </trkpt>
      <trkpt lat="49.31675" lon="-0.54974">
        <ele>49</ele>
        <time>2026-03-24T15:03:33.000Z</time>
      </trkpt>
      <trkpt lat="49.31674" lon="-0.54973">
        <ele>49</ele>
        <time>2026-03-24T15:03:34.000Z</time>
      </trkpt>
      <trkpt lat="49.31674" lon="-0.54972">
        <ele>49.200000762939</ele>
        <time>2026-03-24T15:03:35.000Z</time>
      </trkpt>
      <trkpt lat="49.31673" lon="-0.54972">
        <ele>49.200000762939</ele>
        <time>2026-03-24T15:03:36.000Z</time>
      </trkpt>
      <trkpt lat="49.31673" lon="-0.54971">
        <ele>49.200000762939</ele>
        <time>2026-03-24T15:03:37.000Z</time>
      </trkpt>
      <trkpt lat="49.31672" lon="-0.5497">
        <ele>49.200000762939</ele>
        <time>2026-03-24T15:03:38.000Z</time>
      </trkpt>
      <trkpt lat="49.31671" lon="-0.54969">
        <ele>49.400001525879</ele>
        <time>2026-03-24T15:03:39.000Z</time>
      </trkpt>
      <trkpt lat="49.3167" lon="-0.54968">
        <ele>49.400001525879</ele>
        <time>2026-03-24T15:03:40.000Z</time>
      </trkpt>
      <trkpt lat="49.31669" lon="-0.54967">
        <ele>49.400001525879</ele>
        <time>2026-03-24T15:03:41.000Z</time>
      </trkpt>
      <trkpt lat="49.31668" lon="-0.54966">
        <ele>49.599998474121</ele>
        <time>2026-03-24T15:03:42.000Z</time>
      </trkpt>
      <trkpt lat="49.31667" lon="-0.54965">
        <ele>49.599998474121</ele>
        <time>2026-03-24T15:03:43.000Z</time>
      </trkpt>
      <trkpt lat="49.31666" lon="-0.54964">
        <ele>49.599998474121</ele>
        <time>2026-03-24T15:03:44.000Z</time>
      </trkpt>
      <trkpt lat="49.31665" lon="-0.54963">
        <ele>49.799999237061</ele>
        <time>2026-03-24T15:03:45.000Z</time>
      </trkpt>
      <trkpt lat="49.31665" lon="-0.54962">
        <ele>49.799999237061</ele>
        <time>2026-03-24T15:03:46.000Z</time>
      </trkpt>
      <trkpt lat="49.31664" lon="-0.54961">
        <ele>49.799999237061</ele>
        <time>2026-03-24T15:03:47.000Z</time>
      </trkpt>
      <trkpt lat="49.31663" lon="-0.54959">
        <ele>49.799999237061</ele>
        <time>2026-03-24T15:03:48.000Z</time>
      </trkpt>
      <trkpt lat="49.31663" lon="-0.54957">
        <ele>50</ele>
        <time>2026-03-24T15:03:49.000Z</time>
      </trkpt>
      <trkpt lat="49.31662" lon="-0.54956">
        <ele>50</ele>
        <time>2026-03-24T15:03:50.000Z</time>
      </trkpt>
      <trkpt lat="49.31662" lon="-0.54954">
        <ele>50</ele>
        <time>2026-03-24T15:03:51.000Z</time>
      </trkpt>
      <trkpt lat="49.31661" lon="-0.54952">
        <ele>50</ele>
        <time>2026-03-24T15:03:52.000Z</time>
      </trkpt>
      <trkpt lat="49.31661" lon="-0.54951">
        <ele>50</ele>
        <time>2026-03-24T15:03:53.000Z</time>
      </trkpt>
      <trkpt lat="49.3166" lon="-0.5495">
        <ele>50.200000762939</ele>
        <time>2026-03-24T15:03:54.000Z</time>
      </trkpt>
      <trkpt lat="49.31659" lon="-0.54949">
        <ele>50.200000762939</ele>
        <time>2026-03-24T15:03:55.000Z</time>
      </trkpt>
      <trkpt lat="49.31659" lon="-0.54947">
        <ele>50.200000762939</ele>
        <time>2026-03-24T15:03:56.000Z</time>
      </trkpt>
      <trkpt lat="49.31659" lon="-0.54946">
        <ele>50.200000762939</ele>
        <time>2026-03-24T15:03:57.000Z</time>
      </trkpt>
      <trkpt lat="49.31658" lon="-0.54944">
        <ele>50</ele>
        <time>2026-03-24T15:03:58.000Z</time>
      </trkpt>
      <trkpt lat="49.31658" lon="-0.54943">
        <ele>50</ele>
        <time>2026-03-24T15:03:59.000Z</time>
      </trkpt>
      <trkpt lat="49.31657" lon="-0.54944">
        <ele>50.200000762939</ele>
        <time>2026-03-24T15:04:00.000Z</time>
      </trkpt>
      <trkpt lat="49.31656" lon="-0.54944">
        <ele>50.200000762939</ele>
        <time>2026-03-24T15:04:01.000Z</time>
      </trkpt>
      <trkpt lat="49.31655" lon="-0.54945">
        <ele>50.200000762939</ele>
        <time>2026-03-24T15:04:02.000Z</time>
      </trkpt>
      <trkpt lat="49.31655" lon="-0.54945">
        <ele>50.200000762939</ele>
        <time>2026-03-24T15:04:03.000Z</time>
      </trkpt>
      <trkpt lat="49.31653" lon="-0.54946">
        <ele>50.200000762939</ele>
        <time>2026-03-24T15:04:04.000Z</time>
      </trkpt>
      <trkpt lat="49.31652" lon="-0.54946">
        <ele>50.400001525879</ele>
        <time>2026-03-24T15:04:05.000Z</time>
      </trkpt>
      <trkpt lat="49.31651" lon="-0.54947">
        <ele>50.400001525879</ele>
        <time>2026-03-24T15:04:06.000Z</time>
      </trkpt>
      <trkpt lat="49.31649" lon="-0.54947">
        <ele>50.400001525879</ele>
        <time>2026-03-24T15:04:07.000Z</time>
      </trkpt>
      <trkpt lat="49.31648" lon="-0.54948">
        <ele>50.599998474121</ele>
        <time>2026-03-24T15:04:08.000Z</time>
      </trkpt>
      <trkpt lat="49.31646" lon="-0.54948">
        <ele>50.599998474121</ele>
        <time>2026-03-24T15:04:09.000Z</time>
      </trkpt>
      <trkpt lat="49.31645" lon="-0.54949">
        <ele>50.799999237061</ele>
        <time>2026-03-24T15:04:10.000Z</time>
      </trkpt>
      <trkpt lat="49.31643" lon="-0.54951">
        <ele>50.799999237061</ele>
        <time>2026-03-24T15:04:11.000Z</time>
      </trkpt>
      <trkpt lat="49.31643" lon="-0.54951">
        <ele>50.799999237061</ele>
        <time>2026-03-24T15:04:12.000Z</time>
      </trkpt>
      <trkpt lat="49.31642" lon="-0.54951">
        <ele>50.799999237061</ele>
        <time>2026-03-24T15:04:13.000Z</time>
      </trkpt>
      <trkpt lat="49.31642" lon="-0.54952">
        <ele>51</ele>
        <time>2026-03-24T15:04:14.000Z</time>
      </trkpt>
      <trkpt lat="49.31642" lon="-0.54953">
        <ele>51</ele>
        <time>2026-03-24T15:04:15.000Z</time>
      </trkpt>
      <trkpt lat="49.31642" lon="-0.54955">
        <ele>51</ele>
        <time>2026-03-24T15:04:16.000Z</time>
      </trkpt>
      <trkpt lat="49.31641" lon="-0.54955">
        <ele>51</ele>
        <time>2026-03-24T15:04:17.000Z</time>
      </trkpt>
      <trkpt lat="49.31641" lon="-0.54956">
        <ele>51.200000762939</ele>
        <time>2026-03-24T15:04:18.000Z</time>
      </trkpt>
      <trkpt lat="49.3164" lon="-0.54957">
        <ele>51.200000762939</ele>
        <time>2026-03-24T15:04:19.000Z</time>
      </trkpt>
      <trkpt lat="49.31639" lon="-0.54958">
        <ele>51.200000762939</ele>
        <time>2026-03-24T15:04:20.000Z</time>
      </trkpt>
      <trkpt lat="49.31638" lon="-0.54959">
        <ele>51.200000762939</ele>
        <time>2026-03-24T15:04:21.000Z</time>
      </trkpt>
      <trkpt lat="49.31637" lon="-0.5496">
        <ele>51.400001525879</ele>
        <time>2026-03-24T15:04:22.000Z</time>
      </trkpt>
      <trkpt lat="49.31636" lon="-0.54962">
        <ele>51.400001525879</ele>
        <time>2026-03-24T15:04:23.000Z</time>
      </trkpt>
      <trkpt lat="49.31634" lon="-0.54963">
        <ele>51.599998474121</ele>
        <time>2026-03-24T15:04:24.000Z</time>
      </trkpt>
      <trkpt lat="49.31633" lon="-0.54965">
        <ele>51.599998474121</ele>
        <time>2026-03-24T15:04:25.000Z</time>
      </trkpt>
      <trkpt lat="49.31633" lon="-0.54965">
        <ele>51.599998474121</ele>
        <time>2026-03-24T15:04:26.000Z</time>
      </trkpt>
      <trkpt lat="49.31633" lon="-0.54967">
        <ele>51.799999237061</ele>
        <time>2026-03-24T15:04:27.000Z</time>
      </trkpt>
      <trkpt lat="49.31632" lon="-0.54969">
        <ele>51.799999237061</ele>
        <time>2026-03-24T15:04:28.000Z</time>
      </trkpt>
      <trkpt lat="49.31633" lon="-0.54971">
        <ele>51.799999237061</ele>
        <time>2026-03-24T15:04:29.000Z</time>
      </trkpt>
      <trkpt lat="49.31633" lon="-0.54973">
        <ele>52</ele>
        <time>2026-03-24T15:04:30.000Z</time>
      </trkpt>
      <trkpt lat="49.31633" lon="-0.54977">
        <ele>52</ele>
        <time>2026-03-24T15:04:31.000Z</time>
      </trkpt>
      <trkpt lat="49.31633" lon="-0.54978">
        <ele>52</ele>
        <time>2026-03-24T15:04:32.000Z</time>
      </trkpt>
      <trkpt lat="49.31634" lon="-0.54982">
        <ele>52</ele>
        <time>2026-03-24T15:04:33.000Z</time>
      </trkpt>
      <trkpt lat="49.31634" lon="-0.54983">
        <ele>52</ele>
        <time>2026-03-24T15:04:34.000Z</time>
      </trkpt>
      <trkpt lat="49.31633" lon="-0.54984">
        <ele>52</ele>
        <time>2026-03-24T15:04:35.000Z</time>
      </trkpt>
      <trkpt lat="49.31633" lon="-0.54987">
        <ele>52</ele>
        <time>2026-03-24T15:04:36.000Z</time>
      </trkpt>
      <trkpt lat="49.31633" lon="-0.54988">
        <ele>52</ele>
        <time>2026-03-24T15:04:37.000Z</time>
      </trkpt>
      <trkpt lat="49.31632" lon="-0.5499">
        <ele>52</ele>
        <time>2026-03-24T15:04:38.000Z</time>
      </trkpt>
      <trkpt lat="49.31632" lon="-0.54992">
        <ele>52</ele>
        <time>2026-03-24T15:04:39.000Z</time>
      </trkpt>
      <trkpt lat="49.31632" lon="-0.54994">
        <ele>52</ele>
        <time>2026-03-24T15:04:40.000Z</time>
      </trkpt>
      <trkpt lat="49.31632" lon="-0.54996">
        <ele>52</ele>
        <time>2026-03-24T15:04:41.000Z</time>
      </trkpt>
      <trkpt lat="49.31631" lon="-0.54997">
        <ele>52</ele>
        <time>2026-03-24T15:04:42.000Z</time>
      </trkpt>
      <trkpt lat="49.3163" lon="-0.54997">
        <ele>51.799999237061</ele>
        <time>2026-03-24T15:04:43.000Z</time>
      </trkpt>
      <trkpt lat="49.31628" lon="-0.54998">
        <ele>51.799999237061</ele>
        <time>2026-03-24T15:04:44.000Z</time>
      </trkpt>
      <trkpt lat="49.31626" lon="-0.54997">
        <ele>51.799999237061</ele>
        <time>2026-03-24T15:04:45.000Z</time>
      </trkpt>
      <trkpt lat="49.31625" lon="-0.54998">
        <ele>51.599998474121</ele>
        <time>2026-03-24T15:04:46.000Z</time>
      </trkpt>
      <trkpt lat="49.31625" lon="-0.54998">
        <ele>51.599998474121</ele>
        <time>2026-03-24T15:04:47.000Z</time>
      </trkpt>
      <trkpt lat="49.31625" lon="-0.54999">
        <ele>51.599998474121</ele>
        <time>2026-03-24T15:04:48.000Z</time>
      </trkpt>
      <trkpt lat="49.31626" lon="-0.55">
        <ele>51.799999237061</ele>
        <time>2026-03-24T15:04:49.000Z</time>
      </trkpt>
      <trkpt lat="49.31626" lon="-0.55">
        <ele>51.799999237061</ele>
        <time>2026-03-24T15:04:50.000Z</time>
      </trkpt>
      <trkpt lat="49.31626" lon="-0.55">
        <ele>51.799999237061</ele>
        <time>2026-03-24T15:04:51.000Z</time>
      </trkpt>
      <trkpt lat="49.31626" lon="-0.54999">
        <ele>51.799999237061</ele>
        <time>2026-03-24T15:04:52.000Z</time>
      </trkpt>
      <trkpt lat="49.31626" lon="-0.54999">
        <ele>51.799999237061</ele>
        <time>2026-03-24T15:04:53.000Z</time>
      </trkpt>
      <trkpt lat="49.31626" lon="-0.54999">
        <ele>51.799999237061</ele>
        <time>2026-03-24T15:04:54.000Z</time>
      </trkpt>
      <trkpt lat="49.31626" lon="-0.54999">
        <ele>51.799999237061</ele>
        <time>2026-03-24T15:04:55.000Z</time>
      </trkpt>
      <trkpt lat="49.31626" lon="-0.54998">
        <ele>51.799999237061</ele>
        <time>2026-03-24T15:04:56.000Z</time>
      </trkpt>
      <trkpt lat="49.31626" lon="-0.54998">
        <ele>51.799999237061</ele>
        <time>2026-03-24T15:04:57.000Z</time>
      </trkpt>
      <trkpt lat="49.31626" lon="-0.54998">
        <ele>51.799999237061</ele>
        <time>2026-03-24T15:04:58.000Z</time>
      </trkpt>
      <trkpt lat="49.31625" lon="-0.54998">
        <ele>51.599998474121</ele>
        <time>2026-03-24T15:04:59.000Z</time>
      </trkpt>
      <trkpt lat="49.31625" lon="-0.54997">
        <ele>51.599998474121</ele>
        <time>2026-03-24T15:05:00.000Z</time>
      </trkpt>
      <trkpt lat="49.31625" lon="-0.54997">
        <ele>51.599998474121</ele>
        <time>2026-03-24T15:05:01.000Z</time>
      </trkpt>
      <trkpt lat="49.31625" lon="-0.54997">
        <ele>51.599998474121</ele>
        <time>2026-03-24T15:05:02.000Z</time>
      </trkpt>
      <trkpt lat="49.31625" lon="-0.54997">
        <ele>51.599998474121</ele>
        <time>2026-03-24T15:05:03.000Z</time>
      </trkpt>
      <trkpt lat="49.31626" lon="-0.54998">
        <ele>51.799999237061</ele>
        <time>2026-03-24T15:05:04.000Z</time>
      </trkpt>
      <trkpt lat="49.31626" lon="-0.54999">
        <ele>51.799999237061</ele>
        <time>2026-03-24T15:05:05.000Z</time>
      </trkpt>
      <trkpt lat="49.31626" lon="-0.54999">
        <ele>51.799999237061</ele>
        <time>2026-03-24T15:05:06.000Z</time>
      </trkpt>
      <trkpt lat="49.31627" lon="-0.55">
        <ele>51.799999237061</ele>
        <time>2026-03-24T15:05:07.000Z</time>
      </trkpt>
      <trkpt lat="49.31627" lon="-0.55001">
        <ele>51.799999237061</ele>
        <time>2026-03-24T15:05:08.000Z</time>
      </trkpt>
      <trkpt lat="49.31627" lon="-0.55002">
        <ele>51.799999237061</ele>
        <time>2026-03-24T15:05:09.000Z</time>
      </trkpt>
      <trkpt lat="49.31626" lon="-0.55003">
        <ele>51.599998474121</ele>
        <time>2026-03-24T15:05:10.000Z</time>
      </trkpt>
      <trkpt lat="49.31626" lon="-0.55003">
        <ele>51.599998474121</ele>
        <time>2026-03-24T15:05:11.000Z</time>
      </trkpt>
      <trkpt lat="49.31626" lon="-0.55004">
        <ele>51.599998474121</ele>
        <time>2026-03-24T15:05:12.000Z</time>
      </trkpt>
      <trkpt lat="49.31627" lon="-0.55004">
        <ele>51.599998474121</ele>
        <time>2026-03-24T15:05:13.000Z</time>
      </trkpt>
      <trkpt lat="49.31626" lon="-0.55005">
        <ele>51.599998474121</ele>
        <time>2026-03-24T15:05:14.000Z</time>
      </trkpt>
      <trkpt lat="49.31623" lon="-0.55">
        <ele>51.599998474121</ele>
        <time>2026-03-24T15:05:15.000Z</time>
      </trkpt>
      <trkpt lat="49.31623" lon="-0.54995">
        <ele>51.599998474121</ele>
        <time>2026-03-24T15:05:16.000Z</time>
      </trkpt>
      <trkpt lat="49.31622" lon="-0.54995">
        <ele>51.599998474121</ele>
        <time>2026-03-24T15:05:17.000Z</time>
      </trkpt>
      <trkpt lat="49.31618" lon="-0.54997">
        <ele>51.400001525879</ele>
        <time>2026-03-24T15:05:18.000Z</time>
      </trkpt>
      <trkpt lat="49.31615" lon="-0.54998">
        <ele>51.400001525879</ele>
        <time>2026-03-24T15:05:19.000Z</time>
      </trkpt>
      <trkpt lat="49.31613" lon="-0.54999">
        <ele>51.200000762939</ele>
        <time>2026-03-24T15:05:20.000Z</time>
      </trkpt>
      <trkpt lat="49.31612" lon="-0.54999">
        <ele>51.200000762939</ele>
        <time>2026-03-24T15:05:21.000Z</time>
      </trkpt>
      <trkpt lat="49.31611" lon="-0.55">
        <ele>51.200000762939</ele>
        <time>2026-03-24T15:05:22.000Z</time>
      </trkpt>
      <trkpt lat="49.3161" lon="-0.55">
        <ele>51.200000762939</ele>
        <time>2026-03-24T15:05:23.000Z</time>
      </trkpt>
      <trkpt lat="49.3161" lon="-0.55">
        <ele>51.200000762939</ele>
        <time>2026-03-24T15:05:24.000Z</time>
      </trkpt>
      <trkpt lat="49.31609" lon="-0.55">
        <ele>51.200000762939</ele>
        <time>2026-03-24T15:05:25.000Z</time>
      </trkpt>
      <trkpt lat="49.31609" lon="-0.55">
        <ele>51.200000762939</ele>
        <time>2026-03-24T15:05:26.000Z</time>
      </trkpt>
      <trkpt lat="49.31609" lon="-0.55">
        <ele>51</ele>
        <time>2026-03-24T15:05:27.000Z</time>
      </trkpt>
      <trkpt lat="49.31609" lon="-0.55">
        <ele>51.200000762939</ele>
        <time>2026-03-24T15:05:28.000Z</time>
      </trkpt>
      <trkpt lat="49.31609" lon="-0.55">
        <ele>51.200000762939</ele>
        <time>2026-03-24T15:05:29.000Z</time>
      </trkpt>
      <trkpt lat="49.31609" lon="-0.55">
        <ele>51.200000762939</ele>
        <time>2026-03-24T15:05:30.000Z</time>
      </trkpt>
      <trkpt lat="49.31609" lon="-0.55">
        <ele>51.200000762939</ele>
        <time>2026-03-24T15:05:31.000Z</time>
      </trkpt>
      <trkpt lat="49.31609" lon="-0.55">
        <ele>51.200000762939</ele>
        <time>2026-03-24T15:05:32.000Z</time>
      </trkpt>
      <trkpt lat="49.31608" lon="-0.55">
        <ele>51</ele>
        <time>2026-03-24T15:05:33.000Z</time>
      </trkpt>
      <trkpt lat="49.31607" lon="-0.55001">
        <ele>51</ele>
        <time>2026-03-24T15:05:34.000Z</time>
      </trkpt>
      <trkpt lat="49.31607" lon="-0.55001">
        <ele>51</ele>
        <time>2026-03-24T15:05:35.000Z</time>
      </trkpt>
      <trkpt lat="49.31606" lon="-0.55002">
        <ele>51</ele>
        <time>2026-03-24T15:05:36.000Z</time>
      </trkpt>
      <trkpt lat="49.31605" lon="-0.55002">
        <ele>51</ele>
        <time>2026-03-24T15:05:37.000Z</time>
      </trkpt>
      <trkpt lat="49.31604" lon="-0.55003">
        <ele>50.799999237061</ele>
        <time>2026-03-24T15:05:38.000Z</time>
      </trkpt>
      <trkpt lat="49.31604" lon="-0.55003">
        <ele>50.799999237061</ele>
        <time>2026-03-24T15:05:39.000Z</time>
      </trkpt>
      <trkpt lat="49.31603" lon="-0.55005">
        <ele>50.799999237061</ele>
        <time>2026-03-24T15:05:40.000Z</time>
      </trkpt>
      <trkpt lat="49.31602" lon="-0.55007">
        <ele>50.599998474121</ele>
        <time>2026-03-24T15:05:41.000Z</time>
      </trkpt>
      <trkpt lat="49.31601" lon="-0.55008">
        <ele>50.599998474121</ele>
        <time>2026-03-24T15:05:42.000Z</time>
      </trkpt>
      <trkpt lat="49.316" lon="-0.55009">
        <ele>50.599998474121</ele>
        <time>2026-03-24T15:05:43.000Z</time>
      </trkpt>
      <trkpt lat="49.316" lon="-0.5501">
        <ele>50.400001525879</ele>
        <time>2026-03-24T15:05:44.000Z</time>
      </trkpt>
      <trkpt lat="49.31599" lon="-0.55011">
        <ele>50.400001525879</ele>
        <time>2026-03-24T15:05:45.000Z</time>
      </trkpt>
      <trkpt lat="49.31599" lon="-0.55012">
        <ele>50.400001525879</ele>
        <time>2026-03-24T15:05:46.000Z</time>
      </trkpt>
      <trkpt lat="49.31599" lon="-0.55014">
        <ele>50.200000762939</ele>
        <time>2026-03-24T15:05:47.000Z</time>
      </trkpt>
      <trkpt lat="49.31598" lon="-0.55015">
        <ele>50.200000762939</ele>
        <time>2026-03-24T15:05:48.000Z</time>
      </trkpt>
      <trkpt lat="49.31597" lon="-0.55016">
        <ele>50.200000762939</ele>
        <time>2026-03-24T15:05:49.000Z</time>
      </trkpt>
      <trkpt lat="49.31597" lon="-0.55017">
        <ele>50</ele>
        <time>2026-03-24T15:05:50.000Z</time>
      </trkpt>
      <trkpt lat="49.31596" lon="-0.55018">
        <ele>50</ele>
        <time>2026-03-24T15:05:51.000Z</time>
      </trkpt>
      <trkpt lat="49.31595" lon="-0.55018">
        <ele>50</ele>
        <time>2026-03-24T15:05:52.000Z</time>
      </trkpt>
      <trkpt lat="49.31595" lon="-0.55019">
        <ele>50</ele>
        <time>2026-03-24T15:05:53.000Z</time>
      </trkpt>
      <trkpt lat="49.31595" lon="-0.5502">
        <ele>50</ele>
        <time>2026-03-24T15:05:54.000Z</time>
      </trkpt>
      <trkpt lat="49.31594" lon="-0.55021">
        <ele>49.799999237061</ele>
        <time>2026-03-24T15:05:55.000Z</time>
      </trkpt>
    </trkseg>
  </trk>
</gpx>